<?xml version='1.0' encoding='UTF-8'?><gpx version="1.1" creator="JPX - https://github.com/jenetics/jpx" xmlns="http://www.topografix.com/GPX/1/1"><trk><trkseg><trkpt lat="45.0463733" lon="9.6723887"><ele>60.0</ele><time>2026-04-17T08:39:40.264Z</time></trkpt><trkpt lat="45.0463023" lon="9.6724482"><ele>60.0</ele><time>2026-04-17T08:39:55.258Z</time></trkpt><trkpt lat="45.0462665" lon="9.6725281"><ele>60.0</ele><time>2026-04-17T08:40:05.253Z</time></trkpt><trkpt lat="45.0462618" lon="9.6726217"><ele>60.0</ele><time>2026-04-17T08:40:17.272Z</time></trkpt><trkpt lat="45.0463093" lon="9.6727437"><ele>60.0</ele><time>2026-04-17T08:40:48.331Z</time></trkpt><trkpt lat="45.0462764" lon="9.6728438"><ele>60.0</ele><time>2026-04-17T08:41:42.151Z</time></trkpt><trkpt lat="45.0463355" lon="9.6729013"><ele>60.0</ele><time>2026-04-17T08:41:46.165Z</time></trkpt><trkpt lat="45.0464052" lon="9.6728287"><ele>60.0</ele><time>2026-04-17T08:41:48.188Z</time></trkpt><trkpt lat="45.0464743" lon="9.6727474"><ele>60.0</ele><time>2026-04-17T08:41:50.211Z</time></trkpt><trkpt lat="45.0465149" lon="9.6726418"><ele>60.0</ele><time>2026-04-17T08:41:52.197Z</time></trkpt><trkpt lat="45.0465" lon="9.6725371"><ele>60.0</ele><time>2026-04-17T08:41:54.138Z</time></trkpt><trkpt lat="45.0464763" lon="9.6723971"><ele>60.0</ele><time>2026-04-17T08:41:56.161Z</time></trkpt><trkpt lat="45.046352" lon="9.672308"><ele>60.0</ele><time>2026-04-17T08:41:58.184Z</time></trkpt><trkpt lat="45.0461517" lon="9.6721567"><ele>60.0</ele><time>2026-04-17T08:41:59.942Z</time></trkpt><trkpt lat="45.0460867" lon="9.6721067"><ele>60.0</ele><time>2026-04-17T08:42:00.942Z</time></trkpt><trkpt lat="45.04602" lon="9.6720533"><ele>60.0</ele><time>2026-04-17T08:42:01.942Z</time></trkpt><trkpt lat="45.045955" lon="9.672"><ele>60.0</ele><time>2026-04-17T08:42:02.942Z</time></trkpt><trkpt lat="45.04589" lon="9.671945"><ele>60.0</ele><time>2026-04-17T08:42:03.942Z</time></trkpt><trkpt lat="45.0458267" lon="9.6718917"><ele>60.0</ele><time>2026-04-17T08:42:04.942Z</time></trkpt><trkpt lat="45.045765" lon="9.6718367"><ele>60.0</ele><time>2026-04-17T08:42:05.942Z</time></trkpt><trkpt lat="45.0456683" lon="9.671745"><ele>60.0</ele><time>2026-04-17T08:42:07.942Z</time></trkpt><trkpt lat="45.04561" lon="9.6716967"><ele>60.0</ele><time>2026-04-17T08:42:09.942Z</time></trkpt><trkpt lat="45.045515" lon="9.6716733"><ele>60.0</ele><time>2026-04-17T08:42:17.942Z</time></trkpt><trkpt lat="45.0454717" lon="9.6717483"><ele>60.0</ele><time>2026-04-17T08:42:19.942Z</time></trkpt><trkpt lat="45.0454083" lon="9.67188"><ele>60.0</ele><time>2026-04-17T08:42:21.942Z</time></trkpt><trkpt lat="45.04537" lon="9.6719733"><ele>60.0</ele><time>2026-04-17T08:42:22.942Z</time></trkpt><trkpt lat="45.0453333" lon="9.6720567"><ele>60.0</ele><time>2026-04-17T08:42:23.943Z</time></trkpt><trkpt lat="45.045295" lon="9.6721367"><ele>60.0</ele><time>2026-04-17T08:42:24.942Z</time></trkpt><trkpt lat="45.04523" lon="9.6722717"><ele>60.0</ele><time>2026-04-17T08:42:26.942Z</time></trkpt><trkpt lat="45.04518" lon="9.672355"><ele>60.0</ele><time>2026-04-17T08:42:28.942Z</time></trkpt><trkpt lat="45.0451267" lon="9.672465"><ele>60.0</ele><time>2026-04-17T08:42:31.942Z</time></trkpt><trkpt lat="45.0450817" lon="9.6725767"><ele>60.0</ele><time>2026-04-17T08:42:33.942Z</time></trkpt><trkpt lat="45.0450317" lon="9.6727017"><ele>60.0</ele><time>2026-04-17T08:42:35.942Z</time></trkpt><trkpt lat="45.0449817" lon="9.672795"><ele>60.0</ele><time>2026-04-17T08:42:37.942Z</time></trkpt><trkpt lat="45.0449183" lon="9.6728383"><ele>60.0</ele><time>2026-04-17T08:42:43.942Z</time></trkpt><trkpt lat="45.044825" lon="9.6727617"><ele>60.0</ele><time>2026-04-17T08:42:45.942Z</time></trkpt><trkpt lat="45.04476" lon="9.6727117"><ele>60.0</ele><time>2026-04-17T08:42:46.943Z</time></trkpt><trkpt lat="45.04469" lon="9.6726567"><ele>60.0</ele><time>2026-04-17T08:42:47.942Z</time></trkpt><trkpt lat="45.0446233" lon="9.6726"><ele>60.0</ele><time>2026-04-17T08:42:48.942Z</time></trkpt><trkpt lat="45.0445583" lon="9.67255"><ele>60.0</ele><time>2026-04-17T08:42:49.942Z</time></trkpt><trkpt lat="45.044495" lon="9.6725017"><ele>60.0</ele><time>2026-04-17T08:42:50.942Z</time></trkpt><trkpt lat="45.0444283" lon="9.672445"><ele>60.0</ele><time>2026-04-17T08:42:51.942Z</time></trkpt><trkpt lat="45.0443617" lon="9.6723883"><ele>60.0</ele><time>2026-04-17T08:42:52.942Z</time></trkpt><trkpt lat="45.0442933" lon="9.672325"><ele>60.0</ele><time>2026-04-17T08:42:53.942Z</time></trkpt><trkpt lat="45.0442217" lon="9.67226"><ele>60.0</ele><time>2026-04-17T08:42:54.942Z</time></trkpt><trkpt lat="45.04414" lon="9.672195"><ele>60.0</ele><time>2026-04-17T08:42:55.943Z</time></trkpt><trkpt lat="45.04405" lon="9.6721283"><ele>60.2</ele><time>2026-04-17T08:42:56.942Z</time></trkpt><trkpt lat="45.0439583" lon="9.6720617"><ele>60.4</ele><time>2026-04-17T08:42:57.942Z</time></trkpt><trkpt lat="45.043865" lon="9.67199"><ele>60.599999999999994</ele><time>2026-04-17T08:42:58.942Z</time></trkpt><trkpt lat="45.0437733" lon="9.67192"><ele>60.8</ele><time>2026-04-17T08:42:59.942Z</time></trkpt><trkpt lat="45.0436833" lon="9.6718483"><ele>61.0</ele><time>2026-04-17T08:43:00.942Z</time></trkpt><trkpt lat="45.0435917" lon="9.67178"><ele>60.8</ele><time>2026-04-17T08:43:01.942Z</time></trkpt><trkpt lat="45.043495" lon="9.6717167"><ele>60.599999999999994</ele><time>2026-04-17T08:43:02.942Z</time></trkpt><trkpt lat="45.0434" lon="9.6716533"><ele>60.4</ele><time>2026-04-17T08:43:03.943Z</time></trkpt><trkpt lat="45.043305" lon="9.6715867"><ele>60.2</ele><time>2026-04-17T08:43:04.942Z</time></trkpt><trkpt lat="45.0432117" lon="9.6715117"><ele>60.0</ele><time>2026-04-17T08:43:05.942Z</time></trkpt><trkpt lat="45.04312" lon="9.6714333"><ele>60.0</ele><time>2026-04-17T08:43:06.942Z</time></trkpt><trkpt lat="45.04303" lon="9.6713533"><ele>60.0</ele><time>2026-04-17T08:43:07.942Z</time></trkpt><trkpt lat="45.0429383" lon="9.6712733"><ele>60.0</ele><time>2026-04-17T08:43:08.942Z</time></trkpt><trkpt lat="45.04285" lon="9.6711933"><ele>60.0</ele><time>2026-04-17T08:43:09.942Z</time></trkpt><trkpt lat="45.0427767" lon="9.67111"><ele>60.0</ele><time>2026-04-17T08:43:10.942Z</time></trkpt><trkpt lat="45.0427167" lon="9.6710383"><ele>60.166666666666664</ele><time>2026-04-17T08:43:11.942Z</time></trkpt><trkpt lat="45.0426667" lon="9.67098"><ele>60.33333333333333</ele><time>2026-04-17T08:43:12.942Z</time></trkpt><trkpt lat="45.0426167" lon="9.670925"><ele>60.5</ele><time>2026-04-17T08:43:14.942Z</time></trkpt><trkpt lat="45.0425533" lon="9.6709383"><ele>60.666666666666664</ele><time>2026-04-17T08:43:16.942Z</time></trkpt><trkpt lat="45.0424733" lon="9.6710383"><ele>60.83333333333333</ele><time>2026-04-17T08:43:18.942Z</time></trkpt><trkpt lat="45.0424233" lon="9.6711183"><ele>61.0</ele><time>2026-04-17T08:43:19.942Z</time></trkpt><trkpt lat="45.0423667" lon="9.6711983"><ele>60.99999999999999</ele><time>2026-04-17T08:43:20.942Z</time></trkpt><trkpt lat="45.042305" lon="9.67129"><ele>61.0</ele><time>2026-04-17T08:43:21.942Z</time></trkpt><trkpt lat="45.0422367" lon="9.6713867"><ele>61.0</ele><time>2026-04-17T08:43:22.943Z</time></trkpt><trkpt lat="45.04217" lon="9.6714833"><ele>61.0</ele><time>2026-04-17T08:43:23.942Z</time></trkpt><trkpt lat="45.0421067" lon="9.671565"><ele>60.99999999999999</ele><time>2026-04-17T08:43:24.942Z</time></trkpt><trkpt lat="45.04205" lon="9.6716383"><ele>61.0</ele><time>2026-04-17T08:43:25.942Z</time></trkpt><trkpt lat="45.0419983" lon="9.6717067"><ele>60.99999999999999</ele><time>2026-04-17T08:43:26.942Z</time></trkpt><trkpt lat="45.0419533" lon="9.67177"><ele>61.0</ele><time>2026-04-17T08:43:27.942Z</time></trkpt><trkpt lat="45.0418683" lon="9.6718967"><ele>61.0</ele><time>2026-04-17T08:43:29.942Z</time></trkpt><trkpt lat="45.0418217" lon="9.6719633"><ele>61.0</ele><time>2026-04-17T08:43:30.942Z</time></trkpt><trkpt lat="45.0417733" lon="9.67203"><ele>60.99999999999999</ele><time>2026-04-17T08:43:31.942Z</time></trkpt><trkpt lat="45.0417233" lon="9.6721017"><ele>61.0</ele><time>2026-04-17T08:43:32.942Z</time></trkpt><trkpt lat="45.0416683" lon="9.6721817"><ele>60.83333333333333</ele><time>2026-04-17T08:43:33.942Z</time></trkpt><trkpt lat="45.0416017" lon="9.6722717"><ele>60.666666666666664</ele><time>2026-04-17T08:43:34.942Z</time></trkpt><trkpt lat="45.0415333" lon="9.6723717"><ele>60.5</ele><time>2026-04-17T08:43:35.942Z</time></trkpt><trkpt lat="45.0414683" lon="9.672465"><ele>60.33333333333333</ele><time>2026-04-17T08:43:36.942Z</time></trkpt><trkpt lat="45.0414067" lon="9.672545"><ele>60.166666666666664</ele><time>2026-04-17T08:43:37.942Z</time></trkpt><trkpt lat="45.0413533" lon="9.67261"><ele>60.0</ele><time>2026-04-17T08:43:38.942Z</time></trkpt><trkpt lat="45.0412717" lon="9.6726933"><ele>60.0</ele><time>2026-04-17T08:43:40.942Z</time></trkpt><trkpt lat="45.0412083" lon="9.672705"><ele>60.0</ele><time>2026-04-17T08:43:42.942Z</time></trkpt><trkpt lat="45.0411467" lon="9.6726183"><ele>60.0</ele><time>2026-04-17T08:43:44.942Z</time></trkpt><trkpt lat="45.041115" lon="9.6725333"><ele>60.0</ele><time>2026-04-17T08:43:45.942Z</time></trkpt><trkpt lat="45.0410867" lon="9.67243"><ele>60.0</ele><time>2026-04-17T08:43:46.942Z</time></trkpt><trkpt lat="45.041055" lon="9.6723083"><ele>60.0</ele><time>2026-04-17T08:43:47.942Z</time></trkpt><trkpt lat="45.0410267" lon="9.6721717"><ele>60.0</ele><time>2026-04-17T08:43:48.942Z</time></trkpt><trkpt lat="45.0410017" lon="9.6720333"><ele>60.0</ele><time>2026-04-17T08:43:49.942Z</time></trkpt><trkpt lat="45.04098" lon="9.671905"><ele>60.0</ele><time>2026-04-17T08:43:50.942Z</time></trkpt><trkpt lat="45.0409617" lon="9.6718017"><ele>60.0</ele><time>2026-04-17T08:43:51.942Z</time></trkpt><trkpt lat="45.0409267" lon="9.6716783"><ele>60.0</ele><time>2026-04-17T08:43:53.942Z</time></trkpt><trkpt lat="45.040825" lon="9.6716783"><ele>60.0</ele><time>2026-04-17T08:43:56.942Z</time></trkpt><trkpt lat="45.040755" lon="9.6717517"><ele>60.0</ele><time>2026-04-17T08:43:57.942Z</time></trkpt><trkpt lat="45.0406967" lon="9.671815"><ele>60.0</ele><time>2026-04-17T08:43:58.942Z</time></trkpt><trkpt lat="45.0406317" lon="9.671895"><ele>60.0</ele><time>2026-04-17T08:43:59.942Z</time></trkpt><trkpt lat="45.04056" lon="9.6719917"><ele>60.0</ele><time>2026-04-17T08:44:00.942Z</time></trkpt><trkpt lat="45.0404817" lon="9.6720917"><ele>60.0</ele><time>2026-04-17T08:44:01.942Z</time></trkpt><trkpt lat="45.0404017" lon="9.672195"><ele>60.0</ele><time>2026-04-17T08:44:02.942Z</time></trkpt><trkpt lat="45.0403217" lon="9.6723017"><ele>60.0</ele><time>2026-04-17T08:44:03.942Z</time></trkpt><trkpt lat="45.0402417" lon="9.6724167"><ele>60.0</ele><time>2026-04-17T08:44:04.942Z</time></trkpt><trkpt lat="45.0401667" lon="9.67253"><ele>60.0</ele><time>2026-04-17T08:44:05.942Z</time></trkpt><trkpt lat="45.0400933" lon="9.6726417"><ele>60.0</ele><time>2026-04-17T08:44:06.942Z</time></trkpt><trkpt lat="45.0400167" lon="9.6727517"><ele>60.0</ele><time>2026-04-17T08:44:07.942Z</time></trkpt><trkpt lat="45.0399367" lon="9.6728617"><ele>60.0</ele><time>2026-04-17T08:44:08.942Z</time></trkpt><trkpt lat="45.0398583" lon="9.67297"><ele>60.0</ele><time>2026-04-17T08:44:09.942Z</time></trkpt><trkpt lat="45.0397783" lon="9.6730717"><ele>60.0</ele><time>2026-04-17T08:44:10.942Z</time></trkpt><trkpt lat="45.03971" lon="9.67317"><ele>60.0</ele><time>2026-04-17T08:44:11.942Z</time></trkpt><trkpt lat="45.039635" lon="9.6732767"><ele>60.0</ele><time>2026-04-17T08:44:12.942Z</time></trkpt><trkpt lat="45.0395667" lon="9.6733817"><ele>60.0</ele><time>2026-04-17T08:44:13.943Z</time></trkpt><trkpt lat="45.0394933" lon="9.6734883"><ele>60.0</ele><time>2026-04-17T08:44:14.943Z</time></trkpt><trkpt lat="45.03942" lon="9.67359"><ele>60.0</ele><time>2026-04-17T08:44:15.942Z</time></trkpt><trkpt lat="45.0393517" lon="9.6736983"><ele>60.0</ele><time>2026-04-17T08:44:16.942Z</time></trkpt><trkpt lat="45.0392817" lon="9.673795"><ele>60.0</ele><time>2026-04-17T08:44:17.942Z</time></trkpt><trkpt lat="45.039215" lon="9.6738883"><ele>60.0</ele><time>2026-04-17T08:44:18.942Z</time></trkpt><trkpt lat="45.0391483" lon="9.6739783"><ele>60.0</ele><time>2026-04-17T08:44:19.942Z</time></trkpt><trkpt lat="45.0390883" lon="9.6740617"><ele>60.0</ele><time>2026-04-17T08:44:20.942Z</time></trkpt><trkpt lat="45.0390283" lon="9.6741433"><ele>60.0</ele><time>2026-04-17T08:44:21.942Z</time></trkpt><trkpt lat="45.03897" lon="9.6742233"><ele>60.0</ele><time>2026-04-17T08:44:22.942Z</time></trkpt><trkpt lat="45.038915" lon="9.6742867"><ele>60.0</ele><time>2026-04-17T08:44:23.942Z</time></trkpt><trkpt lat="45.0388417" lon="9.6743767"><ele>60.0</ele><time>2026-04-17T08:44:25.942Z</time></trkpt><trkpt lat="45.0387667" lon="9.6743533"><ele>60.0</ele><time>2026-04-17T08:44:30.943Z</time></trkpt><trkpt lat="45.03868" lon="9.6742367"><ele>60.0</ele><time>2026-04-17T08:44:32.942Z</time></trkpt><trkpt lat="45.038625" lon="9.6741567"><ele>60.0</ele><time>2026-04-17T08:44:33.942Z</time></trkpt><trkpt lat="45.0385683" lon="9.6740683"><ele>60.0</ele><time>2026-04-17T08:44:34.942Z</time></trkpt><trkpt lat="45.0385033" lon="9.6739733"><ele>60.0</ele><time>2026-04-17T08:44:35.942Z</time></trkpt><trkpt lat="45.038435" lon="9.673875"><ele>60.0</ele><time>2026-04-17T08:44:36.942Z</time></trkpt><trkpt lat="45.0383683" lon="9.67377"><ele>60.0</ele><time>2026-04-17T08:44:37.942Z</time></trkpt><trkpt lat="45.0383" lon="9.6736683"><ele>60.2</ele><time>2026-04-17T08:44:38.942Z</time></trkpt><trkpt lat="45.03823" lon="9.67356"><ele>60.4</ele><time>2026-04-17T08:44:39.942Z</time></trkpt><trkpt lat="45.0381567" lon="9.67344"><ele>60.599999999999994</ele><time>2026-04-17T08:44:40.942Z</time></trkpt><trkpt lat="45.0380867" lon="9.673325"><ele>60.8</ele><time>2026-04-17T08:44:41.942Z</time></trkpt><trkpt lat="45.0380217" lon="9.67322"><ele>61.0</ele><time>2026-04-17T08:44:42.942Z</time></trkpt><trkpt lat="45.0379633" lon="9.6731267"><ele>61.0</ele><time>2026-04-17T08:44:43.942Z</time></trkpt><trkpt lat="45.03791" lon="9.6730483"><ele>60.99999999999999</ele><time>2026-04-17T08:44:44.942Z</time></trkpt><trkpt lat="45.03784" lon="9.6729467"><ele>60.99999999999999</ele><time>2026-04-17T08:44:46.942Z</time></trkpt><trkpt lat="45.0377917" lon="9.67287"><ele>61.0</ele><time>2026-04-17T08:44:48.942Z</time></trkpt><trkpt lat="45.0377383" lon="9.672755"><ele>61.0</ele><time>2026-04-17T08:44:50.942Z</time></trkpt><trkpt lat="45.0376867" lon="9.6726183"><ele>60.8</ele><time>2026-04-17T08:44:52.942Z</time></trkpt><trkpt lat="45.037585" lon="9.67251"><ele>60.599999999999994</ele><time>2026-04-17T08:44:54.942Z</time></trkpt><trkpt lat="45.0375183" lon="9.6724617"><ele>60.4</ele><time>2026-04-17T08:44:55.942Z</time></trkpt><trkpt lat="45.03746" lon="9.6724067"><ele>60.2</ele><time>2026-04-17T08:44:56.942Z</time></trkpt><trkpt lat="45.0374" lon="9.6723217"><ele>60.0</ele><time>2026-04-17T08:44:57.942Z</time></trkpt><trkpt lat="45.037335" lon="9.672225"><ele>60.2</ele><time>2026-04-17T08:44:58.942Z</time></trkpt><trkpt lat="45.0372633" lon="9.67212"><ele>60.4</ele><time>2026-04-17T08:44:59.942Z</time></trkpt><trkpt lat="45.03719" lon="9.67201"><ele>60.599999999999994</ele><time>2026-04-17T08:45:00.942Z</time></trkpt><trkpt lat="45.0371167" lon="9.6718917"><ele>60.8</ele><time>2026-04-17T08:45:01.942Z</time></trkpt><trkpt lat="45.037035" lon="9.6717633"><ele>61.0</ele><time>2026-04-17T08:45:02.942Z</time></trkpt><trkpt lat="45.0369433" lon="9.67163"><ele>61.0</ele><time>2026-04-17T08:45:03.942Z</time></trkpt><trkpt lat="45.0368483" lon="9.671495"><ele>61.0</ele><time>2026-04-17T08:45:04.942Z</time></trkpt><trkpt lat="45.03675" lon="9.6713517"><ele>61.0</ele><time>2026-04-17T08:45:05.942Z</time></trkpt><trkpt lat="45.0366483" lon="9.6712067"><ele>61.0</ele><time>2026-04-17T08:45:06.942Z</time></trkpt><trkpt lat="45.0365433" lon="9.671055"><ele>61.33333333333333</ele><time>2026-04-17T08:45:07.943Z</time></trkpt><trkpt lat="45.036435" lon="9.6709033"><ele>61.66666666666667</ele><time>2026-04-17T08:45:08.942Z</time></trkpt><trkpt lat="45.036325" lon="9.670745"><ele>62.0</ele><time>2026-04-17T08:45:09.942Z</time></trkpt><trkpt lat="45.0362133" lon="9.6705867"><ele>62.0</ele><time>2026-04-17T08:45:10.942Z</time></trkpt><trkpt lat="45.0361017" lon="9.6704267"><ele>62.0</ele><time>2026-04-17T08:45:11.942Z</time></trkpt><trkpt lat="45.0359883" lon="9.6702667"><ele>62.0</ele><time>2026-04-17T08:45:12.942Z</time></trkpt><trkpt lat="45.0358767" lon="9.6701067"><ele>62.5</ele><time>2026-04-17T08:45:13.942Z</time></trkpt><trkpt lat="45.0357683" lon="9.6699517"><ele>63.0</ele><time>2026-04-17T08:45:14.942Z</time></trkpt><trkpt lat="45.0356617" lon="9.6698017"><ele>63.5</ele><time>2026-04-17T08:45:15.942Z</time></trkpt><trkpt lat="45.03556" lon="9.6696567"><ele>64.0</ele><time>2026-04-17T08:45:16.942Z</time></trkpt><trkpt lat="45.03546" lon="9.6695183"><ele>64.60000000000001</ele><time>2026-04-17T08:45:17.942Z</time></trkpt><trkpt lat="45.03537" lon="9.66939"><ele>65.2</ele><time>2026-04-17T08:45:18.942Z</time></trkpt><trkpt lat="45.03529" lon="9.669275"><ele>65.80000000000001</ele><time>2026-04-17T08:45:19.942Z</time></trkpt><trkpt lat="45.0352217" lon="9.6691683"><ele>66.4</ele><time>2026-04-17T08:45:20.943Z</time></trkpt><trkpt lat="45.0351667" lon="9.6690617"><ele>67.0</ele><time>2026-04-17T08:45:21.942Z</time></trkpt><trkpt lat="45.0351283" lon="9.668945"><ele>67.0</ele><time>2026-04-17T08:45:22.942Z</time></trkpt><trkpt lat="45.0351" lon="9.6688283"><ele>67.0</ele><time>2026-04-17T08:45:23.942Z</time></trkpt><trkpt lat="45.0350633" lon="9.6687117"><ele>67.0</ele><time>2026-04-17T08:45:24.942Z</time></trkpt><trkpt lat="45.0350083" lon="9.6686067"><ele>67.0</ele><time>2026-04-17T08:45:25.942Z</time></trkpt><trkpt lat="45.0349367" lon="9.6685217"><ele>67.0</ele><time>2026-04-17T08:45:26.942Z</time></trkpt><trkpt lat="45.03485" lon="9.6684667"><ele>67.0</ele><time>2026-04-17T08:45:27.942Z</time></trkpt><trkpt lat="45.03476" lon="9.6684183"><ele>67.0</ele><time>2026-04-17T08:45:28.942Z</time></trkpt><trkpt lat="45.0346683" lon="9.66835"><ele>67.0</ele><time>2026-04-17T08:45:29.942Z</time></trkpt><trkpt lat="45.03458" lon="9.6682483"><ele>67.0</ele><time>2026-04-17T08:45:30.943Z</time></trkpt><trkpt lat="45.0344933" lon="9.6681317"><ele>67.0</ele><time>2026-04-17T08:45:31.942Z</time></trkpt><trkpt lat="45.0344017" lon="9.668005"><ele>67.0</ele><time>2026-04-17T08:45:32.942Z</time></trkpt><trkpt lat="45.03431" lon="9.6678783"><ele>67.0</ele><time>2026-04-17T08:45:33.942Z</time></trkpt><trkpt lat="45.0342133" lon="9.667745"><ele>67.0</ele><time>2026-04-17T08:45:34.942Z</time></trkpt><trkpt lat="45.0341167" lon="9.6676117"><ele>67.0</ele><time>2026-04-17T08:45:35.942Z</time></trkpt><trkpt lat="45.034015" lon="9.6674783"><ele>67.0</ele><time>2026-04-17T08:45:36.942Z</time></trkpt><trkpt lat="45.033915" lon="9.6673367"><ele>67.0</ele><time>2026-04-17T08:45:37.942Z</time></trkpt><trkpt lat="45.0338133" lon="9.6671917"><ele>67.0</ele><time>2026-04-17T08:45:38.942Z</time></trkpt><trkpt lat="45.0337117" lon="9.6670467"><ele>67.0</ele><time>2026-04-17T08:45:39.942Z</time></trkpt><trkpt lat="45.0336067" lon="9.666895"><ele>67.0</ele><time>2026-04-17T08:45:40.942Z</time></trkpt><trkpt lat="45.0335017" lon="9.666745"><ele>67.0</ele><time>2026-04-17T08:45:41.942Z</time></trkpt><trkpt lat="45.0333967" lon="9.6665933"><ele>67.0</ele><time>2026-04-17T08:45:42.942Z</time></trkpt><trkpt lat="45.0332933" lon="9.66644"><ele>67.0</ele><time>2026-04-17T08:45:43.942Z</time></trkpt><trkpt lat="45.03319" lon="9.6662917"><ele>67.25</ele><time>2026-04-17T08:45:44.942Z</time></trkpt><trkpt lat="45.0330867" lon="9.6661467"><ele>67.5</ele><time>2026-04-17T08:45:45.942Z</time></trkpt><trkpt lat="45.0329817" lon="9.6660067"><ele>67.75</ele><time>2026-04-17T08:45:46.942Z</time></trkpt><trkpt lat="45.0328783" lon="9.6658683"><ele>68.0</ele><time>2026-04-17T08:45:47.942Z</time></trkpt><trkpt lat="45.0327733" lon="9.6657217"><ele>68.0</ele><time>2026-04-17T08:45:48.942Z</time></trkpt><trkpt lat="45.03266" lon="9.6655667"><ele>68.0</ele><time>2026-04-17T08:45:49.942Z</time></trkpt><trkpt lat="45.032535" lon="9.6653967"><ele>68.0</ele><time>2026-04-17T08:45:50.942Z</time></trkpt><trkpt lat="45.0324083" lon="9.6652183"><ele>66.66666666666667</ele><time>2026-04-17T08:45:51.943Z</time></trkpt><trkpt lat="45.03228" lon="9.6650367"><ele>65.33333333333333</ele><time>2026-04-17T08:45:52.942Z</time></trkpt><trkpt lat="45.0321467" lon="9.66485"><ele>64.0</ele><time>2026-04-17T08:45:53.942Z</time></trkpt><trkpt lat="45.03201" lon="9.66467"><ele>64.0</ele><time>2026-04-17T08:45:54.942Z</time></trkpt><trkpt lat="45.0318717" lon="9.664485"><ele>64.0</ele><time>2026-04-17T08:45:55.942Z</time></trkpt><trkpt lat="45.0317333" lon="9.6642983"><ele>64.0</ele><time>2026-04-17T08:45:56.942Z</time></trkpt><trkpt lat="45.031595" lon="9.6641083"><ele>66.0</ele><time>2026-04-17T08:45:57.942Z</time></trkpt><trkpt lat="45.0314567" lon="9.6639183"><ele>68.0</ele><time>2026-04-17T08:45:58.942Z</time></trkpt><trkpt lat="45.0313233" lon="9.6637267"><ele>70.0</ele><time>2026-04-17T08:45:59.942Z</time></trkpt><trkpt lat="45.03119" lon="9.6635383"><ele>70.0</ele><time>2026-04-17T08:46:00.942Z</time></trkpt><trkpt lat="45.0310517" lon="9.6633467"><ele>70.0</ele><time>2026-04-17T08:46:01.942Z</time></trkpt><trkpt lat="45.030915" lon="9.6631583"><ele>70.0</ele><time>2026-04-17T08:46:02.942Z</time></trkpt><trkpt lat="45.0307783" lon="9.6629683"><ele>69.66666666666666</ele><time>2026-04-17T08:46:03.943Z</time></trkpt><trkpt lat="45.030645" lon="9.6627733"><ele>69.33333333333333</ele><time>2026-04-17T08:46:04.942Z</time></trkpt><trkpt lat="45.0305117" lon="9.66258"><ele>69.0</ele><time>2026-04-17T08:46:05.942Z</time></trkpt><trkpt lat="45.0303767" lon="9.6623883"><ele>69.0</ele><time>2026-04-17T08:46:06.942Z</time></trkpt><trkpt lat="45.0302383" lon="9.6621967"><ele>69.0</ele><time>2026-04-17T08:46:07.942Z</time></trkpt><trkpt lat="45.0301017" lon="9.6620033"><ele>69.0</ele><time>2026-04-17T08:46:08.942Z</time></trkpt><trkpt lat="45.02996" lon="9.6618117"><ele>69.33333333333333</ele><time>2026-04-17T08:46:09.942Z</time></trkpt><trkpt lat="45.0298133" lon="9.6616167"><ele>69.66666666666666</ele><time>2026-04-17T08:46:10.943Z</time></trkpt><trkpt lat="45.0296767" lon="9.6614117"><ele>70.0</ele><time>2026-04-17T08:46:11.942Z</time></trkpt><trkpt lat="45.0295317" lon="9.661205"><ele>69.33333333333333</ele><time>2026-04-17T08:46:12.943Z</time></trkpt><trkpt lat="45.02938" lon="9.661"><ele>68.66666666666667</ele><time>2026-04-17T08:46:13.942Z</time></trkpt><trkpt lat="45.0292317" lon="9.6607933"><ele>68.0</ele><time>2026-04-17T08:46:14.942Z</time></trkpt><trkpt lat="45.0290867" lon="9.6605917"><ele>68.0</ele><time>2026-04-17T08:46:15.942Z</time></trkpt><trkpt lat="45.0289467" lon="9.6603983"><ele>68.0</ele><time>2026-04-17T08:46:16.942Z</time></trkpt><trkpt lat="45.02881" lon="9.6602067"><ele>68.0</ele><time>2026-04-17T08:46:17.942Z</time></trkpt><trkpt lat="45.02868" lon="9.6600183"><ele>68.66666666666667</ele><time>2026-04-17T08:46:18.942Z</time></trkpt><trkpt lat="45.0285533" lon="9.6598317"><ele>69.33333333333333</ele><time>2026-04-17T08:46:19.942Z</time></trkpt><trkpt lat="45.0284217" lon="9.65965"><ele>70.0</ele><time>2026-04-17T08:46:20.943Z</time></trkpt><trkpt lat="45.0282917" lon="9.6594617"><ele>69.66666666666666</ele><time>2026-04-17T08:46:21.943Z</time></trkpt><trkpt lat="45.02816" lon="9.6592733"><ele>69.33333333333333</ele><time>2026-04-17T08:46:22.942Z</time></trkpt><trkpt lat="45.0280233" lon="9.6590917"><ele>69.0</ele><time>2026-04-17T08:46:23.942Z</time></trkpt><trkpt lat="45.0279017" lon="9.6588867"><ele>69.0</ele><time>2026-04-17T08:46:24.943Z</time></trkpt><trkpt lat="45.0277633" lon="9.6587033"><ele>69.0</ele><time>2026-04-17T08:46:25.942Z</time></trkpt><trkpt lat="45.0276267" lon="9.658515"><ele>69.0</ele><time>2026-04-17T08:46:26.942Z</time></trkpt><trkpt lat="45.0274917" lon="9.6583283"><ele>68.33333333333333</ele><time>2026-04-17T08:46:27.942Z</time></trkpt><trkpt lat="45.02737" lon="9.6581167"><ele>67.66666666666666</ele><time>2026-04-17T08:46:28.942Z</time></trkpt><trkpt lat="45.027235" lon="9.657935"><ele>67.0</ele><time>2026-04-17T08:46:29.942Z</time></trkpt><trkpt lat="45.027105" lon="9.6577533"><ele>67.0</ele><time>2026-04-17T08:46:30.942Z</time></trkpt><trkpt lat="45.0269867" lon="9.6575733"><ele>67.0</ele><time>2026-04-17T08:46:31.942Z</time></trkpt><trkpt lat="45.0268683" lon="9.6574017"><ele>67.0</ele><time>2026-04-17T08:46:32.942Z</time></trkpt><trkpt lat="45.0267533" lon="9.6572267"><ele>67.33333333333333</ele><time>2026-04-17T08:46:33.942Z</time></trkpt><trkpt lat="45.0266333" lon="9.6570717"><ele>67.66666666666667</ele><time>2026-04-17T08:46:34.942Z</time></trkpt><trkpt lat="45.0265233" lon="9.65692"><ele>68.0</ele><time>2026-04-17T08:46:35.942Z</time></trkpt><trkpt lat="45.0264217" lon="9.6567783"><ele>68.75</ele><time>2026-04-17T08:46:36.942Z</time></trkpt><trkpt lat="45.0263283" lon="9.6566367"><ele>69.5</ele><time>2026-04-17T08:46:37.942Z</time></trkpt><trkpt lat="45.0262367" lon="9.6565183"><ele>70.25</ele><time>2026-04-17T08:46:38.942Z</time></trkpt><trkpt lat="45.02615" lon="9.6563617"><ele>71.0</ele><time>2026-04-17T08:46:39.943Z</time></trkpt><trkpt lat="45.0260317" lon="9.6563183"><ele>71.0</ele><time>2026-04-17T08:46:40.943Z</time></trkpt><trkpt lat="45.026005" lon="9.65619"><ele>71.0</ele><time>2026-04-17T08:46:41.942Z</time></trkpt><trkpt lat="45.0259317" lon="9.6560783"><ele>71.0</ele><time>2026-04-17T08:46:42.942Z</time></trkpt><trkpt lat="45.025855" lon="9.6559633"><ele>71.0</ele><time>2026-04-17T08:46:43.942Z</time></trkpt><trkpt lat="45.0257667" lon="9.6558483"><ele>71.0</ele><time>2026-04-17T08:46:44.942Z</time></trkpt><trkpt lat="45.025675" lon="9.6557283"><ele>70.66666666666667</ele><time>2026-04-17T08:46:45.942Z</time></trkpt><trkpt lat="45.0255783" lon="9.655595"><ele>70.33333333333333</ele><time>2026-04-17T08:46:46.942Z</time></trkpt><trkpt lat="45.0254717" lon="9.655445"><ele>70.0</ele><time>2026-04-17T08:46:47.942Z</time></trkpt><trkpt lat="45.0253517" lon="9.655275"><ele>70.66666666666666</ele><time>2026-04-17T08:46:48.942Z</time></trkpt><trkpt lat="45.02523" lon="9.6551"><ele>71.33333333333333</ele><time>2026-04-17T08:46:49.942Z</time></trkpt><trkpt lat="45.0251067" lon="9.654925"><ele>72.0</ele><time>2026-04-17T08:46:50.942Z</time></trkpt><trkpt lat="45.024985" lon="9.65475"><ele>72.0</ele><time>2026-04-17T08:46:51.942Z</time></trkpt><trkpt lat="45.0248717" lon="9.6545683"><ele>72.0</ele><time>2026-04-17T08:46:52.942Z</time></trkpt><trkpt lat="45.024755" lon="9.6544033"><ele>72.0</ele><time>2026-04-17T08:46:53.942Z</time></trkpt><trkpt lat="45.0246417" lon="9.6542433"><ele>72.66666666666667</ele><time>2026-04-17T08:46:54.942Z</time></trkpt><trkpt lat="45.0245283" lon="9.654085"><ele>73.33333333333334</ele><time>2026-04-17T08:46:55.942Z</time></trkpt><trkpt lat="45.02442" lon="9.6539283"><ele>74.0</ele><time>2026-04-17T08:46:56.942Z</time></trkpt><trkpt lat="45.024315" lon="9.65378"><ele>74.0</ele><time>2026-04-17T08:46:57.942Z</time></trkpt><trkpt lat="45.024215" lon="9.6536317"><ele>74.0</ele><time>2026-04-17T08:46:58.942Z</time></trkpt><trkpt lat="45.0241133" lon="9.65348"><ele>74.0</ele><time>2026-04-17T08:46:59.942Z</time></trkpt><trkpt lat="45.0240083" lon="9.65332"><ele>74.0</ele><time>2026-04-17T08:47:00.942Z</time></trkpt><trkpt lat="45.0239033" lon="9.6531567"><ele>73.0</ele><time>2026-04-17T08:47:01.942Z</time></trkpt><trkpt lat="45.02379" lon="9.6529933"><ele>72.0</ele><time>2026-04-17T08:47:02.942Z</time></trkpt><trkpt lat="45.0236617" lon="9.6528433"><ele>71.0</ele><time>2026-04-17T08:47:03.942Z</time></trkpt><trkpt lat="45.023545" lon="9.6526667"><ele>71.0</ele><time>2026-04-17T08:47:04.942Z</time></trkpt><trkpt lat="45.0234233" lon="9.652485"><ele>71.0</ele><time>2026-04-17T08:47:05.942Z</time></trkpt><trkpt lat="45.0233067" lon="9.6522983"><ele>71.0</ele><time>2026-04-17T08:47:06.942Z</time></trkpt><trkpt lat="45.0231833" lon="9.6521233"><ele>71.66666666666667</ele><time>2026-04-17T08:47:07.943Z</time></trkpt><trkpt lat="45.0230467" lon="9.6519617"><ele>72.33333333333333</ele><time>2026-04-17T08:47:08.943Z</time></trkpt><trkpt lat="45.0229233" lon="9.65178"><ele>73.0</ele><time>2026-04-17T08:47:09.943Z</time></trkpt><trkpt lat="45.0227967" lon="9.6516033"><ele>73.33333333333333</ele><time>2026-04-17T08:47:10.943Z</time></trkpt><trkpt lat="45.0226717" lon="9.6514267"><ele>73.66666666666667</ele><time>2026-04-17T08:47:11.943Z</time></trkpt><trkpt lat="45.0225467" lon="9.65125"><ele>74.0</ele><time>2026-04-17T08:47:12.943Z</time></trkpt><trkpt lat="45.0224167" lon="9.65109"><ele>73.33333333333334</ele><time>2026-04-17T08:47:13.943Z</time></trkpt><trkpt lat="45.0222883" lon="9.650925"><ele>72.66666666666667</ele><time>2026-04-17T08:47:14.943Z</time></trkpt><trkpt lat="45.022165" lon="9.650755"><ele>72.0</ele><time>2026-04-17T08:47:15.943Z</time></trkpt><trkpt lat="45.0220317" lon="9.65059"><ele>72.0</ele><time>2026-04-17T08:47:16.943Z</time></trkpt><trkpt lat="45.0219017" lon="9.6504217"><ele>72.0</ele><time>2026-04-17T08:47:17.944Z</time></trkpt><trkpt lat="45.021775" lon="9.6502417"><ele>72.0</ele><time>2026-04-17T08:47:18.943Z</time></trkpt><trkpt lat="45.0216483" lon="9.650065"><ele>72.66666666666667</ele><time>2026-04-17T08:47:19.943Z</time></trkpt><trkpt lat="45.02152" lon="9.6498817"><ele>73.33333333333334</ele><time>2026-04-17T08:47:20.943Z</time></trkpt><trkpt lat="45.0213883" lon="9.649695"><ele>74.0</ele><time>2026-04-17T08:47:21.943Z</time></trkpt><trkpt lat="45.0212483" lon="9.6495017"><ele>74.0</ele><time>2026-04-17T08:47:22.943Z</time></trkpt><trkpt lat="45.0211017" lon="9.6493"><ele>74.0</ele><time>2026-04-17T08:47:23.943Z</time></trkpt><trkpt lat="45.0209483" lon="9.6490833"><ele>74.0</ele><time>2026-04-17T08:47:24.943Z</time></trkpt><trkpt lat="45.02079" lon="9.64886"><ele>73.66666666666667</ele><time>2026-04-17T08:47:25.943Z</time></trkpt><trkpt lat="45.02063" lon="9.6486367"><ele>73.33333333333333</ele><time>2026-04-17T08:47:26.943Z</time></trkpt><trkpt lat="45.020475" lon="9.648415"><ele>73.0</ele><time>2026-04-17T08:47:27.944Z</time></trkpt><trkpt lat="45.0203283" lon="9.6482033"><ele>73.66666666666666</ele><time>2026-04-17T08:47:28.943Z</time></trkpt><trkpt lat="45.0201867" lon="9.6479933"><ele>74.33333333333333</ele><time>2026-04-17T08:47:29.943Z</time></trkpt><trkpt lat="45.020045" lon="9.647785"><ele>75.0</ele><time>2026-04-17T08:47:30.943Z</time></trkpt><trkpt lat="45.0199017" lon="9.6475767"><ele>75.0</ele><time>2026-04-17T08:47:31.944Z</time></trkpt><trkpt lat="45.0197567" lon="9.6473733"><ele>75.0</ele><time>2026-04-17T08:47:32.943Z</time></trkpt><trkpt lat="45.0195917" lon="9.64718"><ele>75.0</ele><time>2026-04-17T08:47:33.943Z</time></trkpt><trkpt lat="45.0194383" lon="9.64698"><ele>74.66666666666667</ele><time>2026-04-17T08:47:34.943Z</time></trkpt><trkpt lat="45.0193017" lon="9.646755"><ele>74.33333333333334</ele><time>2026-04-17T08:47:35.943Z</time></trkpt><trkpt lat="45.01917" lon="9.6465117"><ele>74.0</ele><time>2026-04-17T08:47:36.943Z</time></trkpt><trkpt lat="45.01902" lon="9.6463183"><ele>74.0</ele><time>2026-04-17T08:47:37.943Z</time></trkpt><trkpt lat="45.0188817" lon="9.6461183"><ele>74.0</ele><time>2026-04-17T08:47:38.943Z</time></trkpt><trkpt lat="45.0187417" lon="9.6459183"><ele>74.0</ele><time>2026-04-17T08:47:39.943Z</time></trkpt><trkpt lat="45.0186017" lon="9.6457117"><ele>74.0</ele><time>2026-04-17T08:47:40.943Z</time></trkpt><trkpt lat="45.01847" lon="9.645505"><ele>74.0</ele><time>2026-04-17T08:47:41.944Z</time></trkpt><trkpt lat="45.0183367" lon="9.6453117"><ele>74.0</ele><time>2026-04-17T08:47:42.943Z</time></trkpt><trkpt lat="45.018205" lon="9.64513"><ele>73.33333333333334</ele><time>2026-04-17T08:47:43.943Z</time></trkpt><trkpt lat="45.018075" lon="9.6449517"><ele>72.66666666666667</ele><time>2026-04-17T08:47:44.943Z</time></trkpt><trkpt lat="45.0179467" lon="9.6447767"><ele>72.0</ele><time>2026-04-17T08:47:45.943Z</time></trkpt><trkpt lat="45.01782" lon="9.6446033"><ele>72.0</ele><time>2026-04-17T08:47:46.943Z</time></trkpt><trkpt lat="45.017695" lon="9.6444317"><ele>72.0</ele><time>2026-04-17T08:47:47.943Z</time></trkpt><trkpt lat="45.0175667" lon="9.64425"><ele>72.0</ele><time>2026-04-17T08:47:48.943Z</time></trkpt><trkpt lat="45.0174367" lon="9.6440683"><ele>72.33333333333333</ele><time>2026-04-17T08:47:49.943Z</time></trkpt><trkpt lat="45.0173033" lon="9.64388"><ele>72.66666666666666</ele><time>2026-04-17T08:47:50.943Z</time></trkpt><trkpt lat="45.01717" lon="9.643695"><ele>73.0</ele><time>2026-04-17T08:47:51.943Z</time></trkpt><trkpt lat="45.0170383" lon="9.6435033"><ele>74.0</ele><time>2026-04-17T08:47:52.943Z</time></trkpt><trkpt lat="45.0169133" lon="9.643305"><ele>75.0</ele><time>2026-04-17T08:47:53.943Z</time></trkpt><trkpt lat="45.016775" lon="9.6430817"><ele>76.0</ele><time>2026-04-17T08:47:54.943Z</time></trkpt><trkpt lat="45.0166317" lon="9.6429417"><ele>76.33333333333333</ele><time>2026-04-17T08:47:55.943Z</time></trkpt><trkpt lat="45.016485" lon="9.64277"><ele>76.66666666666667</ele><time>2026-04-17T08:47:56.943Z</time></trkpt><trkpt lat="45.0163383" lon="9.6425783"><ele>77.0</ele><time>2026-04-17T08:47:57.943Z</time></trkpt><trkpt lat="45.0161917" lon="9.6423783"><ele>77.0</ele><time>2026-04-17T08:47:58.943Z</time></trkpt><trkpt lat="45.0160433" lon="9.6421767"><ele>77.0</ele><time>2026-04-17T08:47:59.943Z</time></trkpt><trkpt lat="45.0158933" lon="9.641975"><ele>77.0</ele><time>2026-04-17T08:48:00.943Z</time></trkpt><trkpt lat="45.0157433" lon="9.641775"><ele>76.66666666666667</ele><time>2026-04-17T08:48:01.943Z</time></trkpt><trkpt lat="45.0156017" lon="9.6415733"><ele>76.33333333333333</ele><time>2026-04-17T08:48:02.943Z</time></trkpt><trkpt lat="45.0154667" lon="9.6413767"><ele>76.0</ele><time>2026-04-17T08:48:03.943Z</time></trkpt><trkpt lat="45.0153333" lon="9.6411833"><ele>75.33333333333333</ele><time>2026-04-17T08:48:04.943Z</time></trkpt><trkpt lat="45.0151983" lon="9.6409933"><ele>74.66666666666667</ele><time>2026-04-17T08:48:05.943Z</time></trkpt><trkpt lat="45.015065" lon="9.6408067"><ele>74.0</ele><time>2026-04-17T08:48:06.943Z</time></trkpt><trkpt lat="45.0149283" lon="9.6406217"><ele>75.66666666666667</ele><time>2026-04-17T08:48:07.943Z</time></trkpt><trkpt lat="45.0147883" lon="9.64044"><ele>77.33333333333333</ele><time>2026-04-17T08:48:08.943Z</time></trkpt><trkpt lat="45.01465" lon="9.64025"><ele>79.0</ele><time>2026-04-17T08:48:09.943Z</time></trkpt><trkpt lat="45.014505" lon="9.6400583"><ele>79.0</ele><time>2026-04-17T08:48:10.943Z</time></trkpt><trkpt lat="45.01436" lon="9.63986"><ele>79.0</ele><time>2026-04-17T08:48:11.943Z</time></trkpt><trkpt lat="45.014215" lon="9.6396567"><ele>79.0</ele><time>2026-04-17T08:48:12.943Z</time></trkpt><trkpt lat="45.0140683" lon="9.6394533"><ele>79.0</ele><time>2026-04-17T08:48:13.943Z</time></trkpt><trkpt lat="45.013925" lon="9.6392483"><ele>79.0</ele><time>2026-04-17T08:48:14.944Z</time></trkpt><trkpt lat="45.013765" lon="9.6390567"><ele>79.0</ele><time>2026-04-17T08:48:15.943Z</time></trkpt><trkpt lat="45.0136217" lon="9.6388667"><ele>79.0</ele><time>2026-04-17T08:48:16.943Z</time></trkpt><trkpt lat="45.01349" lon="9.6386833"><ele>79.0</ele><time>2026-04-17T08:48:17.943Z</time></trkpt><trkpt lat="45.01339" lon="9.638465"><ele>79.0</ele><time>2026-04-17T08:48:18.943Z</time></trkpt><trkpt lat="45.0132817" lon="9.63831"><ele>79.5</ele><time>2026-04-17T08:48:19.943Z</time></trkpt><trkpt lat="45.0131867" lon="9.638165"><ele>80.0</ele><time>2026-04-17T08:48:20.943Z</time></trkpt><trkpt lat="45.0130983" lon="9.63803"><ele>80.5</ele><time>2026-04-17T08:48:21.943Z</time></trkpt><trkpt lat="45.0130133" lon="9.6378917"><ele>81.0</ele><time>2026-04-17T08:48:22.943Z</time></trkpt><trkpt lat="45.0129217" lon="9.6377267"><ele>81.0</ele><time>2026-04-17T08:48:23.943Z</time></trkpt><trkpt lat="45.0128067" lon="9.637605"><ele>81.0</ele><time>2026-04-17T08:48:24.943Z</time></trkpt><trkpt lat="45.0126967" lon="9.63745"><ele>81.0</ele><time>2026-04-17T08:48:25.943Z</time></trkpt><trkpt lat="45.0125817" lon="9.63729"><ele>81.0</ele><time>2026-04-17T08:48:26.943Z</time></trkpt><trkpt lat="45.0124667" lon="9.6371267"><ele>81.0</ele><time>2026-04-17T08:48:27.943Z</time></trkpt><trkpt lat="45.0123517" lon="9.63696"><ele>81.0</ele><time>2026-04-17T08:48:28.943Z</time></trkpt><trkpt lat="45.0122417" lon="9.6367933"><ele>81.0</ele><time>2026-04-17T08:48:29.943Z</time></trkpt><trkpt lat="45.0121283" lon="9.6366317"><ele>81.0</ele><time>2026-04-17T08:48:30.943Z</time></trkpt><trkpt lat="45.012015" lon="9.6364617"><ele>81.0</ele><time>2026-04-17T08:48:31.944Z</time></trkpt><trkpt lat="45.01191" lon="9.63627"><ele>81.33333333333333</ele><time>2026-04-17T08:48:32.943Z</time></trkpt><trkpt lat="45.0117833" lon="9.6361067"><ele>81.66666666666666</ele><time>2026-04-17T08:48:33.944Z</time></trkpt><trkpt lat="45.01165" lon="9.6359483"><ele>82.0</ele><time>2026-04-17T08:48:34.943Z</time></trkpt><trkpt lat="45.0115283" lon="9.6357717"><ele>82.0</ele><time>2026-04-17T08:48:35.943Z</time></trkpt><trkpt lat="45.0114" lon="9.635595"><ele>82.0</ele><time>2026-04-17T08:48:36.943Z</time></trkpt><trkpt lat="45.01127" lon="9.6354117"><ele>82.0</ele><time>2026-04-17T08:48:37.943Z</time></trkpt><trkpt lat="45.0111383" lon="9.635225"><ele>82.0</ele><time>2026-04-17T08:48:38.943Z</time></trkpt><trkpt lat="45.0110033" lon="9.63504"><ele>82.0</ele><time>2026-04-17T08:48:39.943Z</time></trkpt><trkpt lat="45.0108633" lon="9.6348583"><ele>82.0</ele><time>2026-04-17T08:48:40.943Z</time></trkpt><trkpt lat="45.0107233" lon="9.6346767"><ele>81.66666666666666</ele><time>2026-04-17T08:48:41.943Z</time></trkpt><trkpt lat="45.0105933" lon="9.6344783"><ele>81.33333333333333</ele><time>2026-04-17T08:48:42.943Z</time></trkpt><trkpt lat="45.0104383" lon="9.6343117"><ele>81.0</ele><time>2026-04-17T08:48:43.943Z</time></trkpt><trkpt lat="45.0103117" lon="9.6341133"><ele>81.0</ele><time>2026-04-17T08:48:44.943Z</time></trkpt><trkpt lat="45.0101817" lon="9.63392"><ele>81.0</ele><time>2026-04-17T08:48:45.944Z</time></trkpt><trkpt lat="45.0100483" lon="9.63374"><ele>81.0</ele><time>2026-04-17T08:48:46.943Z</time></trkpt><trkpt lat="45.0099167" lon="9.6335567"><ele>81.66666666666667</ele><time>2026-04-17T08:48:47.943Z</time></trkpt><trkpt lat="45.0097867" lon="9.6333683"><ele>82.33333333333334</ele><time>2026-04-17T08:48:48.943Z</time></trkpt><trkpt lat="45.0096533" lon="9.6331867"><ele>83.0</ele><time>2026-04-17T08:48:49.943Z</time></trkpt><trkpt lat="45.0095217" lon="9.632995"><ele>83.0</ele><time>2026-04-17T08:48:50.943Z</time></trkpt><trkpt lat="45.0093867" lon="9.6328117"><ele>83.0</ele><time>2026-04-17T08:48:51.943Z</time></trkpt><trkpt lat="45.0092517" lon="9.6326183"><ele>83.0</ele><time>2026-04-17T08:48:52.943Z</time></trkpt><trkpt lat="45.0091183" lon="9.6324283"><ele>83.0</ele><time>2026-04-17T08:48:53.944Z</time></trkpt><trkpt lat="45.00899" lon="9.6322417"><ele>83.0</ele><time>2026-04-17T08:48:54.943Z</time></trkpt><trkpt lat="45.0088667" lon="9.6320683"><ele>83.0</ele><time>2026-04-17T08:48:55.943Z</time></trkpt><trkpt lat="45.0087283" lon="9.6319083"><ele>82.0</ele><time>2026-04-17T08:48:56.943Z</time></trkpt><trkpt lat="45.0086033" lon="9.6317333"><ele>81.0</ele><time>2026-04-17T08:48:57.943Z</time></trkpt><trkpt lat="45.008485" lon="9.631545"><ele>80.0</ele><time>2026-04-17T08:48:58.944Z</time></trkpt><trkpt lat="45.0083633" lon="9.6313633"><ele>80.33333333333334</ele><time>2026-04-17T08:48:59.944Z</time></trkpt><trkpt lat="45.0082433" lon="9.63118"><ele>80.66666666666667</ele><time>2026-04-17T08:49:00.943Z</time></trkpt><trkpt lat="45.0081367" lon="9.6309667"><ele>81.0</ele><time>2026-04-17T08:49:01.943Z</time></trkpt><trkpt lat="45.00801" lon="9.630795"><ele>81.0</ele><time>2026-04-17T08:49:02.943Z</time></trkpt><trkpt lat="45.007885" lon="9.6306217"><ele>81.0</ele><time>2026-04-17T08:49:03.943Z</time></trkpt><trkpt lat="45.0077633" lon="9.6304417"><ele>81.0</ele><time>2026-04-17T08:49:04.943Z</time></trkpt><trkpt lat="45.00764" lon="9.6302617"><ele>80.66666666666667</ele><time>2026-04-17T08:49:05.943Z</time></trkpt><trkpt lat="45.0075217" lon="9.630095"><ele>80.33333333333334</ele><time>2026-04-17T08:49:06.942Z</time></trkpt><trkpt lat="45.0074133" lon="9.6299417"><ele>80.0</ele><time>2026-04-17T08:49:07.942Z</time></trkpt><trkpt lat="45.0073117" lon="9.6297967"><ele>80.75</ele><time>2026-04-17T08:49:08.942Z</time></trkpt><trkpt lat="45.0072183" lon="9.6296533"><ele>81.5</ele><time>2026-04-17T08:49:09.942Z</time></trkpt><trkpt lat="45.0071333" lon="9.62951"><ele>82.25</ele><time>2026-04-17T08:49:10.943Z</time></trkpt><trkpt lat="45.0070417" lon="9.6293883"><ele>83.0</ele><time>2026-04-17T08:49:11.942Z</time></trkpt><trkpt lat="45.0069517" lon="9.629265"><ele>83.0</ele><time>2026-04-17T08:49:12.942Z</time></trkpt><trkpt lat="45.006865" lon="9.6291517"><ele>83.0</ele><time>2026-04-17T08:49:13.942Z</time></trkpt><trkpt lat="45.0067867" lon="9.629025"><ele>83.0</ele><time>2026-04-17T08:49:14.942Z</time></trkpt><trkpt lat="45.0066917" lon="9.6288833"><ele>83.0</ele><time>2026-04-17T08:49:15.942Z</time></trkpt><trkpt lat="45.0065867" lon="9.6288167"><ele>83.0</ele><time>2026-04-17T08:49:16.942Z</time></trkpt><trkpt lat="45.0064917" lon="9.6287467"><ele>83.0</ele><time>2026-04-17T08:49:17.942Z</time></trkpt><trkpt lat="45.006415" lon="9.6286717"><ele>83.0</ele><time>2026-04-17T08:49:18.942Z</time></trkpt><trkpt lat="45.006355" lon="9.6285833"><ele>83.0</ele><time>2026-04-17T08:49:19.942Z</time></trkpt><trkpt lat="45.0062983" lon="9.6284983"><ele>83.0</ele><time>2026-04-17T08:49:20.942Z</time></trkpt><trkpt lat="45.0062317" lon="9.6284367"><ele>83.0</ele><time>2026-04-17T08:49:21.942Z</time></trkpt><trkpt lat="45.00614" lon="9.62841"><ele>83.0</ele><time>2026-04-17T08:49:22.942Z</time></trkpt><trkpt lat="45.0060267" lon="9.6284033"><ele>83.0</ele><time>2026-04-17T08:49:23.942Z</time></trkpt><trkpt lat="45.0058733" lon="9.62839"><ele>83.0</ele><time>2026-04-17T08:49:24.942Z</time></trkpt><trkpt lat="45.0056983" lon="9.6283283"><ele>83.0</ele><time>2026-04-17T08:49:25.942Z</time></trkpt><trkpt lat="45.0055" lon="9.6282383"><ele>81.5</ele><time>2026-04-17T08:49:26.942Z</time></trkpt><trkpt lat="45.0052883" lon="9.6281183"><ele>80.0</ele><time>2026-04-17T08:49:27.942Z</time></trkpt><trkpt lat="45.0050733" lon="9.62799"><ele>80.66666666666667</ele><time>2026-04-17T08:49:28.942Z</time></trkpt><trkpt lat="45.0048767" lon="9.6278517"><ele>81.33333333333333</ele><time>2026-04-17T08:49:29.942Z</time></trkpt><trkpt lat="45.004695" lon="9.6277083"><ele>82.0</ele><time>2026-04-17T08:49:30.942Z</time></trkpt><trkpt lat="45.0045067" lon="9.627555"><ele>82.66666666666666</ele><time>2026-04-17T08:49:31.942Z</time></trkpt><trkpt lat="45.0043583" lon="9.6273417"><ele>83.33333333333333</ele><time>2026-04-17T08:49:32.942Z</time></trkpt><trkpt lat="45.0041783" lon="9.6271667"><ele>84.0</ele><time>2026-04-17T08:49:33.942Z</time></trkpt><trkpt lat="45.0040017" lon="9.6269883"><ele>85.0</ele><time>2026-04-17T08:49:34.942Z</time></trkpt><trkpt lat="45.00387" lon="9.6267883"><ele>86.0</ele><time>2026-04-17T08:49:35.942Z</time></trkpt><trkpt lat="45.003735" lon="9.6266117"><ele>87.0</ele><time>2026-04-17T08:49:36.942Z</time></trkpt><trkpt lat="45.0036267" lon="9.6264217"><ele>87.0</ele><time>2026-04-17T08:49:37.942Z</time></trkpt><trkpt lat="45.0035283" lon="9.6262483"><ele>87.0</ele><time>2026-04-17T08:49:38.942Z</time></trkpt><trkpt lat="45.0034333" lon="9.6260983"><ele>87.0</ele><time>2026-04-17T08:49:39.942Z</time></trkpt><trkpt lat="45.0033433" lon="9.6259583"><ele>87.0</ele><time>2026-04-17T08:49:40.942Z</time></trkpt><trkpt lat="45.0032633" lon="9.62583"><ele>86.8</ele><time>2026-04-17T08:49:41.942Z</time></trkpt><trkpt lat="45.0031867" lon="9.6257033"><ele>86.6</ele><time>2026-04-17T08:49:42.943Z</time></trkpt><trkpt lat="45.0031283" lon="9.6255583"><ele>86.39999999999999</ele><time>2026-04-17T08:49:43.942Z</time></trkpt><trkpt lat="45.00307" lon="9.6254283"><ele>86.19999999999999</ele><time>2026-04-17T08:49:44.942Z</time></trkpt><trkpt lat="45.0030117" lon="9.625325"><ele>86.0</ele><time>2026-04-17T08:49:45.942Z</time></trkpt><trkpt lat="45.0029533" lon="9.6252183"><ele>86.0</ele><time>2026-04-17T08:49:46.942Z</time></trkpt><trkpt lat="45.0028933" lon="9.6251267"><ele>86.0</ele><time>2026-04-17T08:49:47.942Z</time></trkpt><trkpt lat="45.00284" lon="9.62503"><ele>86.0</ele><time>2026-04-17T08:49:48.942Z</time></trkpt><trkpt lat="45.0027967" lon="9.6249367"><ele>86.0</ele><time>2026-04-17T08:49:49.942Z</time></trkpt><trkpt lat="45.0027683" lon="9.624835"><ele>86.0</ele><time>2026-04-17T08:49:50.942Z</time></trkpt><trkpt lat="45.002755" lon="9.6247267"><ele>86.0</ele><time>2026-04-17T08:49:51.942Z</time></trkpt><trkpt lat="45.0027333" lon="9.6246217"><ele>86.0</ele><time>2026-04-17T08:49:52.942Z</time></trkpt><trkpt lat="45.0026883" lon="9.6245283"><ele>86.0</ele><time>2026-04-17T08:49:53.943Z</time></trkpt><trkpt lat="45.0026217" lon="9.624475"><ele>86.0</ele><time>2026-04-17T08:49:54.942Z</time></trkpt><trkpt lat="45.0025467" lon="9.6244367"><ele>86.0</ele><time>2026-04-17T08:49:55.942Z</time></trkpt><trkpt lat="45.0024583" lon="9.6243817"><ele>86.0</ele><time>2026-04-17T08:49:56.942Z</time></trkpt><trkpt lat="45.00235" lon="9.62427"><ele>86.0</ele><time>2026-04-17T08:49:57.942Z</time></trkpt><trkpt lat="45.00222" lon="9.6241033"><ele>86.0</ele><time>2026-04-17T08:49:58.942Z</time></trkpt><trkpt lat="45.0020683" lon="9.6238867"><ele>86.0</ele><time>2026-04-17T08:49:59.942Z</time></trkpt><trkpt lat="45.0019017" lon="9.62364"><ele>86.0</ele><time>2026-04-17T08:50:00.942Z</time></trkpt><trkpt lat="45.0017333" lon="9.6233733"><ele>86.0</ele><time>2026-04-17T08:50:01.942Z</time></trkpt><trkpt lat="45.0015767" lon="9.6230967"><ele>86.0</ele><time>2026-04-17T08:50:02.942Z</time></trkpt><trkpt lat="45.0014267" lon="9.6228283"><ele>86.0</ele><time>2026-04-17T08:50:03.942Z</time></trkpt><trkpt lat="45.0012667" lon="9.6225617"><ele>86.0</ele><time>2026-04-17T08:50:04.942Z</time></trkpt><trkpt lat="45.0010967" lon="9.6222833"><ele>86.0</ele><time>2026-04-17T08:50:05.942Z</time></trkpt><trkpt lat="45.0009133" lon="9.6219933"><ele>86.0</ele><time>2026-04-17T08:50:06.942Z</time></trkpt><trkpt lat="45.000715" lon="9.6216783"><ele>86.0</ele><time>2026-04-17T08:50:07.942Z</time></trkpt><trkpt lat="45.0005117" lon="9.6213567"><ele>86.0</ele><time>2026-04-17T08:50:08.942Z</time></trkpt><trkpt lat="45.0003117" lon="9.6210183"><ele>86.0</ele><time>2026-04-17T08:50:09.942Z</time></trkpt><trkpt lat="45.0001133" lon="9.62067"><ele>86.0</ele><time>2026-04-17T08:50:10.942Z</time></trkpt><trkpt lat="44.9999117" lon="9.6203267"><ele>86.0</ele><time>2026-04-17T08:50:11.942Z</time></trkpt><trkpt lat="44.9997083" lon="9.61999"><ele>86.0</ele><time>2026-04-17T08:50:12.942Z</time></trkpt><trkpt lat="44.999505" lon="9.61967"><ele>86.0</ele><time>2026-04-17T08:50:13.942Z</time></trkpt><trkpt lat="44.999295" lon="9.6193633"><ele>86.0</ele><time>2026-04-17T08:50:14.942Z</time></trkpt><trkpt lat="44.9990817" lon="9.6190767"><ele>86.0</ele><time>2026-04-17T08:50:15.942Z</time></trkpt><trkpt lat="44.9988583" lon="9.6187483"><ele>86.0</ele><time>2026-04-17T08:50:16.942Z</time></trkpt><trkpt lat="44.9986233" lon="9.6184767"><ele>86.0</ele><time>2026-04-17T08:50:17.943Z</time></trkpt><trkpt lat="44.9984067" lon="9.6182233"><ele>85.5</ele><time>2026-04-17T08:50:18.942Z</time></trkpt><trkpt lat="44.9981717" lon="9.618035"><ele>85.0</ele><time>2026-04-17T08:50:19.942Z</time></trkpt><trkpt lat="44.99795" lon="9.6178067"><ele>85.0</ele><time>2026-04-17T08:50:20.942Z</time></trkpt><trkpt lat="44.99773" lon="9.6175783"><ele>85.0</ele><time>2026-04-17T08:50:21.942Z</time></trkpt><trkpt lat="44.99751" lon="9.6173517"><ele>86.5</ele><time>2026-04-17T08:50:22.942Z</time></trkpt><trkpt lat="44.997295" lon="9.6171233"><ele>88.0</ele><time>2026-04-17T08:50:23.942Z</time></trkpt><trkpt lat="44.99708" lon="9.6168967"><ele>88.0</ele><time>2026-04-17T08:50:24.942Z</time></trkpt><trkpt lat="44.9968633" lon="9.61667"><ele>88.0</ele><time>2026-04-17T08:50:25.942Z</time></trkpt><trkpt lat="44.9966483" lon="9.6164483"><ele>88.5</ele><time>2026-04-17T08:50:26.942Z</time></trkpt><trkpt lat="44.996435" lon="9.6162283"><ele>89.0</ele><time>2026-04-17T08:50:27.943Z</time></trkpt><trkpt lat="44.996225" lon="9.6160083"><ele>89.0</ele><time>2026-04-17T08:50:28.942Z</time></trkpt><trkpt lat="44.996015" lon="9.615785"><ele>89.0</ele><time>2026-04-17T08:50:29.942Z</time></trkpt><trkpt lat="44.995805" lon="9.6155583"><ele>88.5</ele><time>2026-04-17T08:50:30.942Z</time></trkpt><trkpt lat="44.9955933" lon="9.6153333"><ele>88.0</ele><time>2026-04-17T08:50:31.942Z</time></trkpt><trkpt lat="44.9953817" lon="9.6151083"><ele>88.0</ele><time>2026-04-17T08:50:32.942Z</time></trkpt><trkpt lat="44.9951733" lon="9.614885"><ele>88.0</ele><time>2026-04-17T08:50:33.942Z</time></trkpt><trkpt lat="44.9949633" lon="9.6146617"><ele>87.5</ele><time>2026-04-17T08:50:34.942Z</time></trkpt><trkpt lat="44.9947517" lon="9.6144367"><ele>87.0</ele><time>2026-04-17T08:50:35.942Z</time></trkpt><trkpt lat="44.99454" lon="9.6142117"><ele>87.0</ele><time>2026-04-17T08:50:36.942Z</time></trkpt><trkpt lat="44.99434" lon="9.613955"><ele>87.0</ele><time>2026-04-17T08:50:37.942Z</time></trkpt><trkpt lat="44.9941167" lon="9.61375"><ele>87.5</ele><time>2026-04-17T08:50:38.942Z</time></trkpt><trkpt lat="44.9938967" lon="9.6135367"><ele>88.0</ele><time>2026-04-17T08:50:39.942Z</time></trkpt><trkpt lat="44.993675" lon="9.613325"><ele>88.0</ele><time>2026-04-17T08:50:40.942Z</time></trkpt><trkpt lat="44.9934483" lon="9.6131167"><ele>88.0</ele><time>2026-04-17T08:50:41.942Z</time></trkpt><trkpt lat="44.99322" lon="9.6129167"><ele>89.5</ele><time>2026-04-17T08:50:42.942Z</time></trkpt><trkpt lat="44.99299" lon="9.6127233"><ele>91.0</ele><time>2026-04-17T08:50:43.942Z</time></trkpt><trkpt lat="44.9927583" lon="9.6125267"><ele>91.0</ele><time>2026-04-17T08:50:44.942Z</time></trkpt><trkpt lat="44.9925267" lon="9.6123283"><ele>91.0</ele><time>2026-04-17T08:50:45.942Z</time></trkpt><trkpt lat="44.992295" lon="9.6121317"><ele>90.5</ele><time>2026-04-17T08:50:46.942Z</time></trkpt><trkpt lat="44.992065" lon="9.6119333"><ele>90.0</ele><time>2026-04-17T08:50:47.942Z</time></trkpt><trkpt lat="44.9918367" lon="9.6117433"><ele>91.5</ele><time>2026-04-17T08:50:48.942Z</time></trkpt><trkpt lat="44.9916083" lon="9.61155"><ele>93.0</ele><time>2026-04-17T08:50:49.942Z</time></trkpt><trkpt lat="44.99138" lon="9.611345"><ele>92.0</ele><time>2026-04-17T08:50:50.942Z</time></trkpt><trkpt lat="44.9911517" lon="9.6111417"><ele>91.0</ele><time>2026-04-17T08:50:51.943Z</time></trkpt><trkpt lat="44.9909233" lon="9.6109433"><ele>91.5</ele><time>2026-04-17T08:50:52.942Z</time></trkpt><trkpt lat="44.990695" lon="9.6107383"><ele>92.0</ele><time>2026-04-17T08:50:53.942Z</time></trkpt><trkpt lat="44.9904667" lon="9.6105367"><ele>92.0</ele><time>2026-04-17T08:50:54.942Z</time></trkpt><trkpt lat="44.9902367" lon="9.6103333"><ele>92.0</ele><time>2026-04-17T08:50:55.942Z</time></trkpt><trkpt lat="44.99001" lon="9.610125"><ele>91.5</ele><time>2026-04-17T08:50:56.943Z</time></trkpt><trkpt lat="44.9897883" lon="9.60992"><ele>91.0</ele><time>2026-04-17T08:50:57.942Z</time></trkpt><trkpt lat="44.9895633" lon="9.6097183"><ele>91.0</ele><time>2026-04-17T08:50:58.942Z</time></trkpt><trkpt lat="44.9893383" lon="9.6095183"><ele>91.0</ele><time>2026-04-17T08:50:59.942Z</time></trkpt><trkpt lat="44.989115" lon="9.6093167"><ele>91.0</ele><time>2026-04-17T08:51:00.942Z</time></trkpt><trkpt lat="44.9888817" lon="9.609135"><ele>91.0</ele><time>2026-04-17T08:51:01.942Z</time></trkpt><trkpt lat="44.98867" lon="9.608915"><ele>91.0</ele><time>2026-04-17T08:51:02.942Z</time></trkpt><trkpt lat="44.98845" lon="9.6087083"><ele>91.0</ele><time>2026-04-17T08:51:03.942Z</time></trkpt><trkpt lat="44.9882317" lon="9.6084933"><ele>92.5</ele><time>2026-04-17T08:51:04.942Z</time></trkpt><trkpt lat="44.9880083" lon="9.6082283"><ele>94.0</ele><time>2026-04-17T08:51:05.942Z</time></trkpt><trkpt lat="44.987765" lon="9.60807"><ele>94.0</ele><time>2026-04-17T08:51:06.942Z</time></trkpt><trkpt lat="44.9875217" lon="9.607895"><ele>94.0</ele><time>2026-04-17T08:51:07.942Z</time></trkpt><trkpt lat="44.9872717" lon="9.60773"><ele>93.5</ele><time>2026-04-17T08:51:08.942Z</time></trkpt><trkpt lat="44.987015" lon="9.607575"><ele>93.0</ele><time>2026-04-17T08:51:09.942Z</time></trkpt><trkpt lat="44.9867533" lon="9.6074283"><ele>93.5</ele><time>2026-04-17T08:51:10.942Z</time></trkpt><trkpt lat="44.986495" lon="9.6073"><ele>94.0</ele><time>2026-04-17T08:51:11.942Z</time></trkpt><trkpt lat="44.9862483" lon="9.607195"><ele>94.0</ele><time>2026-04-17T08:51:12.943Z</time></trkpt><trkpt lat="44.9860083" lon="9.60711"><ele>94.0</ele><time>2026-04-17T08:51:13.942Z</time></trkpt><trkpt lat="44.9857717" lon="9.607035"><ele>93.5</ele><time>2026-04-17T08:51:14.942Z</time></trkpt><trkpt lat="44.9855333" lon="9.6069733"><ele>93.0</ele><time>2026-04-17T08:51:15.942Z</time></trkpt><trkpt lat="44.985295" lon="9.6069283"><ele>93.0</ele><time>2026-04-17T08:51:16.942Z</time></trkpt><trkpt lat="44.9850633" lon="9.6069"><ele>93.0</ele><time>2026-04-17T08:51:17.942Z</time></trkpt><trkpt lat="44.98484" lon="9.606885"><ele>93.33333333333333</ele><time>2026-04-17T08:51:18.943Z</time></trkpt><trkpt lat="44.9846117" lon="9.6068833"><ele>93.66666666666666</ele><time>2026-04-17T08:51:19.942Z</time></trkpt><trkpt lat="44.9845133" lon="9.606755"><ele>94.0</ele><time>2026-04-17T08:51:20.942Z</time></trkpt><trkpt lat="44.9842917" lon="9.6067917"><ele>94.33333333333333</ele><time>2026-04-17T08:51:21.942Z</time></trkpt><trkpt lat="44.9840783" lon="9.6068333"><ele>94.66666666666667</ele><time>2026-04-17T08:51:22.943Z</time></trkpt><trkpt lat="44.983875" lon="9.6068617"><ele>95.0</ele><time>2026-04-17T08:51:23.942Z</time></trkpt><trkpt lat="44.9836817" lon="9.6068733"><ele>95.0</ele><time>2026-04-17T08:51:24.942Z</time></trkpt><trkpt lat="44.9834917" lon="9.6068833"><ele>95.0</ele><time>2026-04-17T08:51:25.943Z</time></trkpt><trkpt lat="44.9833017" lon="9.6068933"><ele>95.0</ele><time>2026-04-17T08:51:26.942Z</time></trkpt><trkpt lat="44.9831117" lon="9.6068983"><ele>95.0</ele><time>2026-04-17T08:51:27.942Z</time></trkpt><trkpt lat="44.98292" lon="9.6069"><ele>95.0</ele><time>2026-04-17T08:51:28.942Z</time></trkpt><trkpt lat="44.9827283" lon="9.6069033"><ele>95.0</ele><time>2026-04-17T08:51:29.942Z</time></trkpt><trkpt lat="44.9825233" lon="9.6069133"><ele>95.0</ele><time>2026-04-17T08:51:30.942Z</time></trkpt><trkpt lat="44.9823033" lon="9.606925"><ele>95.0</ele><time>2026-04-17T08:51:31.942Z</time></trkpt><trkpt lat="44.982065" lon="9.60696"><ele>95.0</ele><time>2026-04-17T08:51:32.942Z</time></trkpt><trkpt lat="44.9818133" lon="9.60694"><ele>95.0</ele><time>2026-04-17T08:51:33.942Z</time></trkpt><trkpt lat="44.9815367" lon="9.6069517"><ele>94.0</ele><time>2026-04-17T08:51:34.942Z</time></trkpt><trkpt lat="44.9812533" lon="9.60696"><ele>93.0</ele><time>2026-04-17T08:51:35.942Z</time></trkpt><trkpt lat="44.9809633" lon="9.606965"><ele>94.5</ele><time>2026-04-17T08:51:36.942Z</time></trkpt><trkpt lat="44.9806667" lon="9.6069667"><ele>96.0</ele><time>2026-04-17T08:51:37.942Z</time></trkpt><trkpt lat="44.9803667" lon="9.6069533"><ele>96.0</ele><time>2026-04-17T08:51:38.942Z</time></trkpt><trkpt lat="44.9800583" lon="9.6069533"><ele>96.0</ele><time>2026-04-17T08:51:39.942Z</time></trkpt><trkpt lat="44.9797433" lon="9.6069217"><ele>96.5</ele><time>2026-04-17T08:51:40.942Z</time></trkpt><trkpt lat="44.9794467" lon="9.6067883"><ele>97.0</ele><time>2026-04-17T08:51:41.942Z</time></trkpt><trkpt lat="44.9791367" lon="9.606725"><ele>96.0</ele><time>2026-04-17T08:51:42.942Z</time></trkpt><trkpt lat="44.97882" lon="9.60665"><ele>95.0</ele><time>2026-04-17T08:51:43.942Z</time></trkpt><trkpt lat="44.9785017" lon="9.606575"><ele>97.0</ele><time>2026-04-17T08:51:44.942Z</time></trkpt><trkpt lat="44.9781833" lon="9.6065"><ele>99.0</ele><time>2026-04-17T08:51:45.943Z</time></trkpt><trkpt lat="44.9778667" lon="9.606425"><ele>99.0</ele><time>2026-04-17T08:51:46.942Z</time></trkpt><trkpt lat="44.97755" lon="9.6063517"><ele>99.0</ele><time>2026-04-17T08:51:47.942Z</time></trkpt><trkpt lat="44.9772333" lon="9.606275"><ele>98.5</ele><time>2026-04-17T08:51:48.942Z</time></trkpt><trkpt lat="44.9769133" lon="9.6061817"><ele>98.0</ele><time>2026-04-17T08:51:49.942Z</time></trkpt><trkpt lat="44.97659" lon="9.6060817"><ele>98.0</ele><time>2026-04-17T08:51:50.942Z</time></trkpt><trkpt lat="44.9762617" lon="9.6060083"><ele>98.0</ele><time>2026-04-17T08:51:51.942Z</time></trkpt><trkpt lat="44.975935" lon="9.6059183"><ele>97.5</ele><time>2026-04-17T08:51:52.942Z</time></trkpt><trkpt lat="44.975605" lon="9.605805"><ele>97.0</ele><time>2026-04-17T08:51:53.942Z</time></trkpt><trkpt lat="44.975285" lon="9.6057433"><ele>99.0</ele><time>2026-04-17T08:51:54.942Z</time></trkpt><trkpt lat="44.9749617" lon="9.60571"><ele>101.0</ele><time>2026-04-17T08:51:55.942Z</time></trkpt><trkpt lat="44.97464" lon="9.6056783"><ele>101.0</ele><time>2026-04-17T08:51:56.942Z</time></trkpt><trkpt lat="44.9743217" lon="9.60566"><ele>101.0</ele><time>2026-04-17T08:51:57.942Z</time></trkpt><trkpt lat="44.9740017" lon="9.605645"><ele>101.0</ele><time>2026-04-17T08:51:58.942Z</time></trkpt><trkpt lat="44.973685" lon="9.6056317"><ele>101.0</ele><time>2026-04-17T08:51:59.942Z</time></trkpt><trkpt lat="44.9733667" lon="9.60562"><ele>100.5</ele><time>2026-04-17T08:52:00.942Z</time></trkpt><trkpt lat="44.97305" lon="9.6056067"><ele>100.0</ele><time>2026-04-17T08:52:01.942Z</time></trkpt><trkpt lat="44.972735" lon="9.6055867"><ele>99.5</ele><time>2026-04-17T08:52:02.942Z</time></trkpt><trkpt lat="44.9724217" lon="9.6055533"><ele>99.0</ele><time>2026-04-17T08:52:03.942Z</time></trkpt><trkpt lat="44.97211" lon="9.6055017"><ele>99.0</ele><time>2026-04-17T08:52:04.942Z</time></trkpt><trkpt lat="44.9718083" lon="9.605445"><ele>99.0</ele><time>2026-04-17T08:52:05.942Z</time></trkpt><trkpt lat="44.9715217" lon="9.6053967"><ele>100.5</ele><time>2026-04-17T08:52:06.942Z</time></trkpt><trkpt lat="44.9712567" lon="9.6053583"><ele>102.0</ele><time>2026-04-17T08:52:07.942Z</time></trkpt><trkpt lat="44.9710283" lon="9.6053433"><ele>101.66666666666666</ele><time>2026-04-17T08:52:08.943Z</time></trkpt><trkpt lat="44.9708367" lon="9.6053783"><ele>101.33333333333333</ele><time>2026-04-17T08:52:09.942Z</time></trkpt><trkpt lat="44.9706717" lon="9.6054417"><ele>101.0</ele><time>2026-04-17T08:52:10.942Z</time></trkpt><trkpt lat="44.9705383" lon="9.6055183"><ele>101.0</ele><time>2026-04-17T08:52:11.942Z</time></trkpt><trkpt lat="44.9704317" lon="9.60559"><ele>101.0</ele><time>2026-04-17T08:52:12.942Z</time></trkpt><trkpt lat="44.9703283" lon="9.6056267"><ele>101.0</ele><time>2026-04-17T08:52:13.942Z</time></trkpt><trkpt lat="44.9702167" lon="9.6056067"><ele>101.0</ele><time>2026-04-17T08:52:14.942Z</time></trkpt><trkpt lat="44.970095" lon="9.6055133"><ele>101.33333333333333</ele><time>2026-04-17T08:52:15.942Z</time></trkpt><trkpt lat="44.96996" lon="9.60535"><ele>101.66666666666666</ele><time>2026-04-17T08:52:16.942Z</time></trkpt><trkpt lat="44.9698167" lon="9.6051483"><ele>102.0</ele><time>2026-04-17T08:52:17.942Z</time></trkpt><trkpt lat="44.969665" lon="9.60493"><ele>103.0</ele><time>2026-04-17T08:52:18.942Z</time></trkpt><trkpt lat="44.9694867" lon="9.6047067"><ele>104.0</ele><time>2026-04-17T08:52:19.942Z</time></trkpt><trkpt lat="44.9692733" lon="9.60449"><ele>105.0</ele><time>2026-04-17T08:52:20.942Z</time></trkpt><trkpt lat="44.96904" lon="9.6042817"><ele>106.0</ele><time>2026-04-17T08:52:21.942Z</time></trkpt><trkpt lat="44.968785" lon="9.604085"><ele>106.0</ele><time>2026-04-17T08:52:22.942Z</time></trkpt><trkpt lat="44.968505" lon="9.6039167"><ele>106.0</ele><time>2026-04-17T08:52:23.942Z</time></trkpt><trkpt lat="44.968205" lon="9.6037733"><ele>104.5</ele><time>2026-04-17T08:52:24.942Z</time></trkpt><trkpt lat="44.967895" lon="9.6036617"><ele>103.0</ele><time>2026-04-17T08:52:25.942Z</time></trkpt><trkpt lat="44.9675767" lon="9.603585"><ele>104.0</ele><time>2026-04-17T08:52:26.942Z</time></trkpt><trkpt lat="44.9672683" lon="9.6035483"><ele>105.0</ele><time>2026-04-17T08:52:27.942Z</time></trkpt><trkpt lat="44.9669817" lon="9.60354"><ele>105.0</ele><time>2026-04-17T08:52:28.942Z</time></trkpt><trkpt lat="44.9667083" lon="9.603555"><ele>105.0</ele><time>2026-04-17T08:52:29.943Z</time></trkpt><trkpt lat="44.9664433" lon="9.6035867"><ele>105.5</ele><time>2026-04-17T08:52:30.942Z</time></trkpt><trkpt lat="44.9661867" lon="9.60363"><ele>106.0</ele><time>2026-04-17T08:52:31.942Z</time></trkpt><trkpt lat="44.9659383" lon="9.6036683"><ele>105.5</ele><time>2026-04-17T08:52:32.942Z</time></trkpt><trkpt lat="44.9656917" lon="9.603695"><ele>105.0</ele><time>2026-04-17T08:52:33.942Z</time></trkpt><trkpt lat="44.9654567" lon="9.6037017"><ele>105.0</ele><time>2026-04-17T08:52:34.942Z</time></trkpt><trkpt lat="44.96523" lon="9.6036867"><ele>105.0</ele><time>2026-04-17T08:52:35.942Z</time></trkpt><trkpt lat="44.96502" lon="9.6036383"><ele>105.0</ele><time>2026-04-17T08:52:36.942Z</time></trkpt><trkpt lat="44.9648" lon="9.60361"><ele>105.0</ele><time>2026-04-17T08:52:37.942Z</time></trkpt><trkpt lat="44.9646217" lon="9.6034817"><ele>105.0</ele><time>2026-04-17T08:52:38.942Z</time></trkpt><trkpt lat="44.9644383" lon="9.60336"><ele>105.0</ele><time>2026-04-17T08:52:39.942Z</time></trkpt><trkpt lat="44.9642767" lon="9.6032133"><ele>105.0</ele><time>2026-04-17T08:52:40.942Z</time></trkpt><trkpt lat="44.9641233" lon="9.6030617"><ele>105.0</ele><time>2026-04-17T08:52:41.942Z</time></trkpt><trkpt lat="44.9639917" lon="9.6028917"><ele>105.0</ele><time>2026-04-17T08:52:42.942Z</time></trkpt><trkpt lat="44.9638867" lon="9.602685"><ele>105.0</ele><time>2026-04-17T08:52:43.942Z</time></trkpt><trkpt lat="44.9637967" lon="9.6024683"><ele>105.0</ele><time>2026-04-17T08:52:44.942Z</time></trkpt><trkpt lat="44.96372" lon="9.602235"><ele>105.0</ele><time>2026-04-17T08:52:45.942Z</time></trkpt><trkpt lat="44.9636583" lon="9.602"><ele>104.33333333333334</ele><time>2026-04-17T08:52:46.942Z</time></trkpt><trkpt lat="44.9636117" lon="9.6017667"><ele>103.66666666666667</ele><time>2026-04-17T08:52:47.942Z</time></trkpt><trkpt lat="44.9635667" lon="9.60154"><ele>103.0</ele><time>2026-04-17T08:52:48.942Z</time></trkpt><trkpt lat="44.9635467" lon="9.6013017"><ele>103.33333333333334</ele><time>2026-04-17T08:52:49.942Z</time></trkpt><trkpt lat="44.9635417" lon="9.6010483"><ele>103.66666666666666</ele><time>2026-04-17T08:52:50.942Z</time></trkpt><trkpt lat="44.963545" lon="9.6007817"><ele>104.0</ele><time>2026-04-17T08:52:51.942Z</time></trkpt><trkpt lat="44.9635567" lon="9.6004867"><ele>104.0</ele><time>2026-04-17T08:52:52.942Z</time></trkpt><trkpt lat="44.9635733" lon="9.6001567"><ele>104.0</ele><time>2026-04-17T08:52:53.942Z</time></trkpt><trkpt lat="44.963595" lon="9.5997883"><ele>104.5</ele><time>2026-04-17T08:52:54.942Z</time></trkpt><trkpt lat="44.9636217" lon="9.5993783"><ele>105.0</ele><time>2026-04-17T08:52:55.942Z</time></trkpt><trkpt lat="44.9636533" lon="9.5989433"><ele>104.0</ele><time>2026-04-17T08:52:56.942Z</time></trkpt><trkpt lat="44.9636917" lon="9.598485"><ele>103.0</ele><time>2026-04-17T08:52:57.942Z</time></trkpt><trkpt lat="44.963735" lon="9.5980117"><ele>102.0</ele><time>2026-04-17T08:52:58.942Z</time></trkpt><trkpt lat="44.963775" lon="9.5975267"><ele>101.0</ele><time>2026-04-17T08:52:59.942Z</time></trkpt><trkpt lat="44.9638083" lon="9.5970233"><ele>101.0</ele><time>2026-04-17T08:53:00.942Z</time></trkpt><trkpt lat="44.9638433" lon="9.5965117"><ele>101.0</ele><time>2026-04-17T08:53:01.942Z</time></trkpt><trkpt lat="44.9638767" lon="9.595985"><ele>100.5</ele><time>2026-04-17T08:53:02.943Z</time></trkpt><trkpt lat="44.9639083" lon="9.5954583"><ele>100.0</ele><time>2026-04-17T08:53:03.942Z</time></trkpt><trkpt lat="44.96394" lon="9.5949467"><ele>100.0</ele><time>2026-04-17T08:53:04.942Z</time></trkpt><trkpt lat="44.9639667" lon="9.5944567"><ele>100.0</ele><time>2026-04-17T08:53:05.942Z</time></trkpt><trkpt lat="44.9639967" lon="9.5939733"><ele>100.5</ele><time>2026-04-17T08:53:06.942Z</time></trkpt><trkpt lat="44.964025" lon="9.593515"><ele>101.0</ele><time>2026-04-17T08:53:07.942Z</time></trkpt><trkpt lat="44.9640533" lon="9.5930833"><ele>100.5</ele><time>2026-04-17T08:53:08.942Z</time></trkpt><trkpt lat="44.96408" lon="9.5926783"><ele>100.0</ele><time>2026-04-17T08:53:09.942Z</time></trkpt><trkpt lat="44.9641033" lon="9.5923"><ele>100.5</ele><time>2026-04-17T08:53:10.943Z</time></trkpt><trkpt lat="44.9641283" lon="9.591935"><ele>101.0</ele><time>2026-04-17T08:53:11.942Z</time></trkpt><trkpt lat="44.96415" lon="9.59156"><ele>101.5</ele><time>2026-04-17T08:53:12.942Z</time></trkpt><trkpt lat="44.9641767" lon="9.5911567"><ele>102.0</ele><time>2026-04-17T08:53:13.942Z</time></trkpt><trkpt lat="44.9642117" lon="9.5907317"><ele>102.0</ele><time>2026-04-17T08:53:14.942Z</time></trkpt><trkpt lat="44.964245" lon="9.5902933"><ele>102.0</ele><time>2026-04-17T08:53:15.942Z</time></trkpt><trkpt lat="44.9642767" lon="9.5898417"><ele>103.0</ele><time>2026-04-17T08:53:16.942Z</time></trkpt><trkpt lat="44.9643083" lon="9.5893817"><ele>104.0</ele><time>2026-04-17T08:53:17.942Z</time></trkpt><trkpt lat="44.9643383" lon="9.5889133"><ele>105.0</ele><time>2026-04-17T08:53:18.942Z</time></trkpt><trkpt lat="44.9643683" lon="9.58844"><ele>106.0</ele><time>2026-04-17T08:53:19.942Z</time></trkpt><trkpt lat="44.9643983" lon="9.5879783"><ele>107.0</ele><time>2026-04-17T08:53:20.942Z</time></trkpt><trkpt lat="44.96442" lon="9.5875533"><ele>108.0</ele><time>2026-04-17T08:53:21.942Z</time></trkpt><trkpt lat="44.964445" lon="9.58717"><ele>109.33333333333334</ele><time>2026-04-17T08:53:22.942Z</time></trkpt><trkpt lat="44.9644683" lon="9.5868383"><ele>110.66666666666667</ele><time>2026-04-17T08:53:23.942Z</time></trkpt><trkpt lat="44.9644917" lon="9.5865567"><ele>112.0</ele><time>2026-04-17T08:53:24.942Z</time></trkpt><trkpt lat="44.9645133" lon="9.586325"><ele>112.0</ele><time>2026-04-17T08:53:25.943Z</time></trkpt><trkpt lat="44.96454" lon="9.5861333"><ele>111.99999999999999</ele><time>2026-04-17T08:53:26.942Z</time></trkpt><trkpt lat="44.9645583" lon="9.5859883"><ele>111.99999999999999</ele><time>2026-04-17T08:53:27.942Z</time></trkpt><trkpt lat="44.9645667" lon="9.5858867"><ele>112.0</ele><time>2026-04-17T08:53:28.942Z</time></trkpt><trkpt lat="44.964545" lon="9.5857633"><ele>112.0</ele><time>2026-04-17T08:53:30.942Z</time></trkpt><trkpt lat="44.9643817" lon="9.58575"><ele>112.0</ele><time>2026-04-17T08:53:32.942Z</time></trkpt><trkpt lat="44.9642683" lon="9.5857717"><ele>112.0</ele><time>2026-04-17T08:53:33.942Z</time></trkpt><trkpt lat="44.964105" lon="9.585805"><ele>112.0</ele><time>2026-04-17T08:53:34.942Z</time></trkpt><trkpt lat="44.963915" lon="9.5858517"><ele>113.0</ele><time>2026-04-17T08:53:35.942Z</time></trkpt><trkpt lat="44.9637083" lon="9.5859133"><ele>114.0</ele><time>2026-04-17T08:53:36.942Z</time></trkpt><trkpt lat="44.96348" lon="9.585985"><ele>115.0</ele><time>2026-04-17T08:53:37.942Z</time></trkpt><trkpt lat="44.9632317" lon="9.5860583"><ele>115.5</ele><time>2026-04-17T08:53:38.942Z</time></trkpt><trkpt lat="44.962975" lon="9.5861333"><ele>116.0</ele><time>2026-04-17T08:53:39.942Z</time></trkpt><trkpt lat="44.9627083" lon="9.5862083"><ele>118.0</ele><time>2026-04-17T08:53:40.942Z</time></trkpt><trkpt lat="44.9624367" lon="9.5862883"><ele>120.0</ele><time>2026-04-17T08:53:41.942Z</time></trkpt><trkpt lat="44.9621583" lon="9.5863733"><ele>120.0</ele><time>2026-04-17T08:53:42.942Z</time></trkpt><trkpt lat="44.9618883" lon="9.58645"><ele>120.0</ele><time>2026-04-17T08:53:43.942Z</time></trkpt><trkpt lat="44.9616133" lon="9.5865517"><ele>121.0</ele><time>2026-04-17T08:53:44.942Z</time></trkpt><trkpt lat="44.9613817" lon="9.5866"><ele>122.0</ele><time>2026-04-17T08:53:45.942Z</time></trkpt><trkpt lat="44.9611583" lon="9.5866633"><ele>122.0</ele><time>2026-04-17T08:53:46.943Z</time></trkpt><trkpt lat="44.96095" lon="9.5867283"><ele>122.0</ele><time>2026-04-17T08:53:47.943Z</time></trkpt><trkpt lat="44.9607533" lon="9.5867917"><ele>122.0</ele><time>2026-04-17T08:53:48.942Z</time></trkpt><trkpt lat="44.9605683" lon="9.5868533"><ele>121.66666666666666</ele><time>2026-04-17T08:53:49.942Z</time></trkpt><trkpt lat="44.96038" lon="9.5869583"><ele>121.33333333333334</ele><time>2026-04-17T08:53:50.942Z</time></trkpt><trkpt lat="44.9602233" lon="9.5869867"><ele>121.0</ele><time>2026-04-17T08:53:51.942Z</time></trkpt><trkpt lat="44.9600417" lon="9.5870033"><ele>121.66666666666667</ele><time>2026-04-17T08:53:52.942Z</time></trkpt><trkpt lat="44.959855" lon="9.5870683"><ele>122.33333333333334</ele><time>2026-04-17T08:53:53.942Z</time></trkpt><trkpt lat="44.9596483" lon="9.587165"><ele>123.0</ele><time>2026-04-17T08:53:54.942Z</time></trkpt><trkpt lat="44.95944" lon="9.5872333"><ele>123.0</ele><time>2026-04-17T08:53:55.942Z</time></trkpt><trkpt lat="44.9592317" lon="9.5873117"><ele>123.0</ele><time>2026-04-17T08:53:56.942Z</time></trkpt><trkpt lat="44.95902" lon="9.5873933"><ele>123.0</ele><time>2026-04-17T08:53:57.942Z</time></trkpt><trkpt lat="44.9588167" lon="9.5874733"><ele>123.33333333333334</ele><time>2026-04-17T08:53:58.942Z</time></trkpt><trkpt lat="44.9586283" lon="9.5875467"><ele>123.66666666666667</ele><time>2026-04-17T08:53:59.942Z</time></trkpt><trkpt lat="44.9584533" lon="9.58761"><ele>124.0</ele><time>2026-04-17T08:54:00.942Z</time></trkpt><trkpt lat="44.9582833" lon="9.5876633"><ele>124.66666666666667</ele><time>2026-04-17T08:54:01.942Z</time></trkpt><trkpt lat="44.958115" lon="9.5877017"><ele>125.33333333333334</ele><time>2026-04-17T08:54:02.942Z</time></trkpt><trkpt lat="44.957945" lon="9.5877133"><ele>126.0</ele><time>2026-04-17T08:54:03.942Z</time></trkpt><trkpt lat="44.957775" lon="9.5876967"><ele>126.0</ele><time>2026-04-17T08:54:04.942Z</time></trkpt><trkpt lat="44.9576033" lon="9.5876583"><ele>126.0</ele><time>2026-04-17T08:54:05.942Z</time></trkpt><trkpt lat="44.9574283" lon="9.587615"><ele>126.0</ele><time>2026-04-17T08:54:06.942Z</time></trkpt><trkpt lat="44.9572533" lon="9.5875717"><ele>126.0</ele><time>2026-04-17T08:54:07.942Z</time></trkpt><trkpt lat="44.957085" lon="9.5875283"><ele>126.0</ele><time>2026-04-17T08:54:08.942Z</time></trkpt><trkpt lat="44.9569267" lon="9.5874817"><ele>126.0</ele><time>2026-04-17T08:54:09.942Z</time></trkpt><trkpt lat="44.9567717" lon="9.58745"><ele>126.66666666666666</ele><time>2026-04-17T08:54:10.943Z</time></trkpt><trkpt lat="44.9566117" lon="9.5874467"><ele>127.33333333333333</ele><time>2026-04-17T08:54:11.942Z</time></trkpt><trkpt lat="44.956445" lon="9.5874733"><ele>128.0</ele><time>2026-04-17T08:54:12.942Z</time></trkpt><trkpt lat="44.956275" lon="9.587505"><ele>128.0</ele><time>2026-04-17T08:54:13.942Z</time></trkpt><trkpt lat="44.9561033" lon="9.58754"><ele>128.0</ele><time>2026-04-17T08:54:14.942Z</time></trkpt><trkpt lat="44.9559283" lon="9.58758"><ele>128.0</ele><time>2026-04-17T08:54:15.942Z</time></trkpt><trkpt lat="44.95575" lon="9.5876217"><ele>128.0</ele><time>2026-04-17T08:54:16.942Z</time></trkpt><trkpt lat="44.955575" lon="9.5876633"><ele>128.0</ele><time>2026-04-17T08:54:17.942Z</time></trkpt><trkpt lat="44.955405" lon="9.5876933"><ele>128.0</ele><time>2026-04-17T08:54:18.942Z</time></trkpt><trkpt lat="44.9552383" lon="9.5877067"><ele>128.0</ele><time>2026-04-17T08:54:19.942Z</time></trkpt><trkpt lat="44.9550683" lon="9.5876883"><ele>128.0</ele><time>2026-04-17T08:54:20.942Z</time></trkpt><trkpt lat="44.9548983" lon="9.5876383"><ele>128.0</ele><time>2026-04-17T08:54:21.942Z</time></trkpt><trkpt lat="44.9547283" lon="9.5875667"><ele>128.66666666666666</ele><time>2026-04-17T08:54:22.942Z</time></trkpt><trkpt lat="44.95455" lon="9.5874883"><ele>129.33333333333334</ele><time>2026-04-17T08:54:23.942Z</time></trkpt><trkpt lat="44.9543633" lon="9.5874067"><ele>130.0</ele><time>2026-04-17T08:54:24.942Z</time></trkpt><trkpt lat="44.9541683" lon="9.5873233"><ele>130.0</ele><time>2026-04-17T08:54:25.942Z</time></trkpt><trkpt lat="44.95397" lon="9.5872383"><ele>130.0</ele><time>2026-04-17T08:54:26.942Z</time></trkpt><trkpt lat="44.953775" lon="9.5871567"><ele>130.0</ele><time>2026-04-17T08:54:27.942Z</time></trkpt><trkpt lat="44.9535733" lon="9.587035"><ele>130.33333333333334</ele><time>2026-04-17T08:54:28.942Z</time></trkpt><trkpt lat="44.9533867" lon="9.5869983"><ele>130.66666666666666</ele><time>2026-04-17T08:54:29.942Z</time></trkpt><trkpt lat="44.9531983" lon="9.5869717"><ele>131.0</ele><time>2026-04-17T08:54:30.942Z</time></trkpt><trkpt lat="44.95301" lon="9.5869883"><ele>130.66666666666666</ele><time>2026-04-17T08:54:31.942Z</time></trkpt><trkpt lat="44.9528283" lon="9.5870483"><ele>130.33333333333334</ele><time>2026-04-17T08:54:32.942Z</time></trkpt><trkpt lat="44.9526483" lon="9.5871517"><ele>130.0</ele><time>2026-04-17T08:54:33.942Z</time></trkpt><trkpt lat="44.95245" lon="9.5872717"><ele>132.0</ele><time>2026-04-17T08:54:34.942Z</time></trkpt><trkpt lat="44.9522383" lon="9.5873967"><ele>134.0</ele><time>2026-04-17T08:54:35.942Z</time></trkpt><trkpt lat="44.952015" lon="9.58754"><ele>134.0</ele><time>2026-04-17T08:54:36.942Z</time></trkpt><trkpt lat="44.9518" lon="9.5876833"><ele>134.0</ele><time>2026-04-17T08:54:37.942Z</time></trkpt><trkpt lat="44.95161" lon="9.5878483"><ele>133.5</ele><time>2026-04-17T08:54:38.942Z</time></trkpt><trkpt lat="44.9514267" lon="9.5880433"><ele>133.0</ele><time>2026-04-17T08:54:39.943Z</time></trkpt><trkpt lat="44.9512383" lon="9.58825"><ele>133.0</ele><time>2026-04-17T08:54:40.942Z</time></trkpt><trkpt lat="44.9510533" lon="9.5884567"><ele>133.0</ele><time>2026-04-17T08:54:41.942Z</time></trkpt><trkpt lat="44.9508733" lon="9.5886583"><ele>132.0</ele><time>2026-04-17T08:54:42.942Z</time></trkpt><trkpt lat="44.95069" lon="9.5888483"><ele>131.0</ele><time>2026-04-17T08:54:43.942Z</time></trkpt><trkpt lat="44.9504933" lon="9.58902"><ele>131.0</ele><time>2026-04-17T08:54:44.942Z</time></trkpt><trkpt lat="44.950285" lon="9.5891833"><ele>131.0</ele><time>2026-04-17T08:54:45.942Z</time></trkpt><trkpt lat="44.950075" lon="9.5893383"><ele>132.5</ele><time>2026-04-17T08:54:46.942Z</time></trkpt><trkpt lat="44.949865" lon="9.5894917"><ele>134.0</ele><time>2026-04-17T08:54:47.943Z</time></trkpt><trkpt lat="44.9496567" lon="9.589645"><ele>134.0</ele><time>2026-04-17T08:54:48.942Z</time></trkpt><trkpt lat="44.94946" lon="9.58979"><ele>134.0</ele><time>2026-04-17T08:54:49.942Z</time></trkpt><trkpt lat="44.9492683" lon="9.589925"><ele>134.0</ele><time>2026-04-17T08:54:50.942Z</time></trkpt><trkpt lat="44.9490833" lon="9.5900833"><ele>133.66666666666666</ele><time>2026-04-17T08:54:51.942Z</time></trkpt><trkpt lat="44.9488683" lon="9.5901117"><ele>133.33333333333334</ele><time>2026-04-17T08:54:52.942Z</time></trkpt><trkpt lat="44.9486467" lon="9.5900983"><ele>133.0</ele><time>2026-04-17T08:54:53.942Z</time></trkpt><trkpt lat="44.9484083" lon="9.5900283"><ele>131.0</ele><time>2026-04-17T08:54:54.942Z</time></trkpt><trkpt lat="44.9481517" lon="9.5899133"><ele>129.0</ele><time>2026-04-17T08:54:55.942Z</time></trkpt><trkpt lat="44.94788" lon="9.589775"><ele>129.0</ele><time>2026-04-17T08:54:56.942Z</time></trkpt><trkpt lat="44.9476" lon="9.58964"><ele>129.0</ele><time>2026-04-17T08:54:57.942Z</time></trkpt><trkpt lat="44.9473283" lon="9.5895017"><ele>130.5</ele><time>2026-04-17T08:54:58.942Z</time></trkpt><trkpt lat="44.94707" lon="9.5893717"><ele>132.0</ele><time>2026-04-17T08:54:59.942Z</time></trkpt><trkpt lat="44.9468117" lon="9.5892"><ele>133.0</ele><time>2026-04-17T08:55:00.942Z</time></trkpt><trkpt lat="44.946565" lon="9.5891317"><ele>134.0</ele><time>2026-04-17T08:55:01.942Z</time></trkpt><trkpt lat="44.9463017" lon="9.589085"><ele>134.0</ele><time>2026-04-17T08:55:02.942Z</time></trkpt><trkpt lat="44.946015" lon="9.5890783"><ele>134.0</ele><time>2026-04-17T08:55:03.942Z</time></trkpt><trkpt lat="44.9457183" lon="9.589085"><ele>134.5</ele><time>2026-04-17T08:55:04.942Z</time></trkpt><trkpt lat="44.94541" lon="9.5891083"><ele>135.0</ele><time>2026-04-17T08:55:05.942Z</time></trkpt><trkpt lat="44.9451" lon="9.5891367"><ele>135.0</ele><time>2026-04-17T08:55:06.942Z</time></trkpt><trkpt lat="44.9448033" lon="9.58916"><ele>135.0</ele><time>2026-04-17T08:55:07.942Z</time></trkpt><trkpt lat="44.944525" lon="9.58918"><ele>135.0</ele><time>2026-04-17T08:55:08.942Z</time></trkpt><trkpt lat="44.9442583" lon="9.5891967"><ele>135.0</ele><time>2026-04-17T08:55:09.942Z</time></trkpt><trkpt lat="44.943995" lon="9.5892167"><ele>136.0</ele><time>2026-04-17T08:55:10.942Z</time></trkpt><trkpt lat="44.9437317" lon="9.5892567"><ele>137.0</ele><time>2026-04-17T08:55:11.942Z</time></trkpt><trkpt lat="44.9434583" lon="9.589335"><ele>138.5</ele><time>2026-04-17T08:55:12.942Z</time></trkpt><trkpt lat="44.9431783" lon="9.5894317"><ele>140.0</ele><time>2026-04-17T08:55:13.942Z</time></trkpt><trkpt lat="44.9428917" lon="9.5895567"><ele>135.0</ele><time>2026-04-17T08:55:14.942Z</time></trkpt><trkpt lat="44.9425967" lon="9.5896967"><ele>130.0</ele><time>2026-04-17T08:55:15.942Z</time></trkpt><trkpt lat="44.942295" lon="9.5898517"><ele>130.0</ele><time>2026-04-17T08:55:16.942Z</time></trkpt><trkpt lat="44.9419883" lon="9.590005"><ele>130.0</ele><time>2026-04-17T08:55:17.942Z</time></trkpt><trkpt lat="44.941695" lon="9.5901533"><ele>133.0</ele><time>2026-04-17T08:55:18.943Z</time></trkpt><trkpt lat="44.9414167" lon="9.5903017"><ele>136.0</ele><time>2026-04-17T08:55:19.942Z</time></trkpt><trkpt lat="44.941145" lon="9.590415"><ele>130.5</ele><time>2026-04-17T08:55:20.942Z</time></trkpt><trkpt lat="44.9408633" lon="9.5904917"><ele>125.0</ele><time>2026-04-17T08:55:21.943Z</time></trkpt><trkpt lat="44.9405717" lon="9.5905383"><ele>125.0</ele><time>2026-04-17T08:55:22.942Z</time></trkpt><trkpt lat="44.9402717" lon="9.5905683"><ele>125.0</ele><time>2026-04-17T08:55:23.942Z</time></trkpt><trkpt lat="44.939965" lon="9.5906133"><ele>125.0</ele><time>2026-04-17T08:55:24.942Z</time></trkpt><trkpt lat="44.9396533" lon="9.5906533"><ele>125.0</ele><time>2026-04-17T08:55:25.942Z</time></trkpt><trkpt lat="44.939335" lon="9.5907"><ele>125.0</ele><time>2026-04-17T08:55:26.942Z</time></trkpt><trkpt lat="44.9390183" lon="9.5907517"><ele>125.0</ele><time>2026-04-17T08:55:27.942Z</time></trkpt><trkpt lat="44.9386983" lon="9.590825"><ele>127.0</ele><time>2026-04-17T08:55:28.942Z</time></trkpt><trkpt lat="44.9383833" lon="9.5908417"><ele>129.0</ele><time>2026-04-17T08:55:29.942Z</time></trkpt><trkpt lat="44.938065" lon="9.5908717"><ele>129.0</ele><time>2026-04-17T08:55:30.943Z</time></trkpt><trkpt lat="44.9377567" lon="9.5909067"><ele>129.0</ele><time>2026-04-17T08:55:31.942Z</time></trkpt><trkpt lat="44.9374717" lon="9.5909417"><ele>135.0</ele><time>2026-04-17T08:55:32.942Z</time></trkpt><trkpt lat="44.9372083" lon="9.59097"><ele>141.0</ele><time>2026-04-17T08:55:33.942Z</time></trkpt><trkpt lat="44.9369617" lon="9.590995"><ele>141.5</ele><time>2026-04-17T08:55:34.943Z</time></trkpt><trkpt lat="44.936715" lon="9.59098"><ele>142.0</ele><time>2026-04-17T08:55:35.942Z</time></trkpt><trkpt lat="44.9364683" lon="9.5908967"><ele>142.0</ele><time>2026-04-17T08:55:36.942Z</time></trkpt><trkpt lat="44.936215" lon="9.590755"><ele>142.0</ele><time>2026-04-17T08:55:37.942Z</time></trkpt><trkpt lat="44.93595" lon="9.590575"><ele>144.0</ele><time>2026-04-17T08:55:38.942Z</time></trkpt><trkpt lat="44.9356783" lon="9.5903933"><ele>146.0</ele><time>2026-04-17T08:55:39.942Z</time></trkpt><trkpt lat="44.9354117" lon="9.5902217"><ele>146.0</ele><time>2026-04-17T08:55:40.942Z</time></trkpt><trkpt lat="44.93515" lon="9.59006"><ele>146.0</ele><time>2026-04-17T08:55:41.942Z</time></trkpt><trkpt lat="44.93489" lon="9.5899033"><ele>141.5</ele><time>2026-04-17T08:55:42.942Z</time></trkpt><trkpt lat="44.93463" lon="9.5897483"><ele>137.0</ele><time>2026-04-17T08:55:43.942Z</time></trkpt><trkpt lat="44.9343683" lon="9.5895967"><ele>143.0</ele><time>2026-04-17T08:55:44.942Z</time></trkpt><trkpt lat="44.9341083" lon="9.58943"><ele>149.0</ele><time>2026-04-17T08:55:45.942Z</time></trkpt><trkpt lat="44.9338433" lon="9.589265"><ele>149.0</ele><time>2026-04-17T08:55:46.942Z</time></trkpt><trkpt lat="44.933575" lon="9.5890967"><ele>149.0</ele><time>2026-04-17T08:55:47.942Z</time></trkpt><trkpt lat="44.93332" lon="9.5889167"><ele>152.5</ele><time>2026-04-17T08:55:48.942Z</time></trkpt><trkpt lat="44.93307" lon="9.5887367"><ele>156.0</ele><time>2026-04-17T08:55:49.942Z</time></trkpt><trkpt lat="44.93281" lon="9.5885567"><ele>150.0</ele><time>2026-04-17T08:55:50.942Z</time></trkpt><trkpt lat="44.93254" lon="9.5883683"><ele>144.0</ele><time>2026-04-17T08:55:51.942Z</time></trkpt><trkpt lat="44.9322683" lon="9.5881733"><ele>144.0</ele><time>2026-04-17T08:55:52.942Z</time></trkpt><trkpt lat="44.9319917" lon="9.5879833"><ele>144.0</ele><time>2026-04-17T08:55:53.943Z</time></trkpt><trkpt lat="44.9317117" lon="9.5878"><ele>146.0</ele><time>2026-04-17T08:55:54.942Z</time></trkpt><trkpt lat="44.9314367" lon="9.5876217"><ele>148.0</ele><time>2026-04-17T08:55:55.942Z</time></trkpt><trkpt lat="44.9311483" lon="9.5874783"><ele>143.0</ele><time>2026-04-17T08:55:56.942Z</time></trkpt><trkpt lat="44.9308833" lon="9.5873117"><ele>138.0</ele><time>2026-04-17T08:55:57.942Z</time></trkpt><trkpt lat="44.9306767" lon="9.5874233"><ele>138.0</ele><time>2026-04-17T08:55:58.942Z</time></trkpt><trkpt lat="44.930375" lon="9.587195"><ele>138.0</ele><time>2026-04-17T08:55:59.942Z</time></trkpt><trkpt lat="44.9300783" lon="9.5869783"><ele>136.5</ele><time>2026-04-17T08:56:00.942Z</time></trkpt><trkpt lat="44.9297917" lon="9.586775"><ele>135.0</ele><time>2026-04-17T08:56:01.942Z</time></trkpt><trkpt lat="44.92951" lon="9.586575"><ele>135.0</ele><time>2026-04-17T08:56:02.942Z</time></trkpt><trkpt lat="44.9292267" lon="9.5863867"><ele>135.0</ele><time>2026-04-17T08:56:03.942Z</time></trkpt><trkpt lat="44.9289467" lon="9.586215"><ele>135.0</ele><time>2026-04-17T08:56:04.942Z</time></trkpt><trkpt lat="44.928665" lon="9.5860483"><ele>135.0</ele><time>2026-04-17T08:56:05.942Z</time></trkpt><trkpt lat="44.9283833" lon="9.5858817"><ele>135.0</ele><time>2026-04-17T08:56:06.942Z</time></trkpt><trkpt lat="44.928105" lon="9.58571"><ele>135.0</ele><time>2026-04-17T08:56:07.942Z</time></trkpt><trkpt lat="44.92783" lon="9.585535"><ele>135.0</ele><time>2026-04-17T08:56:08.942Z</time></trkpt><trkpt lat="44.9276783" lon="9.585805"><ele>135.0</ele><time>2026-04-17T08:56:09.942Z</time></trkpt><trkpt lat="44.9275017" lon="9.5859367"><ele>135.0</ele><time>2026-04-17T08:56:10.942Z</time></trkpt><trkpt lat="44.927315" lon="9.5858667"><ele>134.0</ele><time>2026-04-17T08:56:11.942Z</time></trkpt><trkpt lat="44.927055" lon="9.5856"><ele>133.0</ele><time>2026-04-17T08:56:12.942Z</time></trkpt><trkpt lat="44.9268217" lon="9.5853683"><ele>133.33333333333334</ele><time>2026-04-17T08:56:13.942Z</time></trkpt><trkpt lat="44.9266483" lon="9.5852667"><ele>133.66666666666666</ele><time>2026-04-17T08:56:14.942Z</time></trkpt><trkpt lat="44.9264583" lon="9.5851533"><ele>134.0</ele><time>2026-04-17T08:56:15.942Z</time></trkpt><trkpt lat="44.9261883" lon="9.5849583"><ele>137.0</ele><time>2026-04-17T08:56:16.942Z</time></trkpt><trkpt lat="44.9256783" lon="9.5844267"><ele>137.0</ele><time>2026-04-17T08:56:17.942Z</time></trkpt><trkpt lat="44.9251617" lon="9.5838717"><ele>139.0</ele><time>2026-04-17T08:56:18.942Z</time></trkpt><trkpt lat="44.9248517" lon="9.5836433"><ele>141.0</ele><time>2026-04-17T08:56:19.942Z</time></trkpt><trkpt lat="44.92463" lon="9.5836383"><ele>141.0</ele><time>2026-04-17T08:56:20.942Z</time></trkpt><trkpt lat="44.9243433" lon="9.5833667"><ele>141.0</ele><time>2026-04-17T08:56:21.942Z</time></trkpt><trkpt lat="44.9241083" lon="9.5832383"><ele>144.0</ele><time>2026-04-17T08:56:22.942Z</time></trkpt><trkpt lat="44.9238983" lon="9.5832183"><ele>147.0</ele><time>2026-04-17T08:56:23.942Z</time></trkpt><trkpt lat="44.923625" lon="9.5830483"><ele>146.5</ele><time>2026-04-17T08:56:24.942Z</time></trkpt><trkpt lat="44.9233783" lon="9.58297"><ele>146.0</ele><time>2026-04-17T08:56:25.942Z</time></trkpt><trkpt lat="44.9231283" lon="9.5829017"><ele>150.0</ele><time>2026-04-17T08:56:26.942Z</time></trkpt><trkpt lat="44.9228567" lon="9.5828217"><ele>154.0</ele><time>2026-04-17T08:56:27.942Z</time></trkpt><trkpt lat="44.9226133" lon="9.582755"><ele>154.5</ele><time>2026-04-17T08:56:28.942Z</time></trkpt><trkpt lat="44.9223783" lon="9.582695"><ele>155.0</ele><time>2026-04-17T08:56:29.942Z</time></trkpt><trkpt lat="44.9221617" lon="9.5826517"><ele>155.0</ele><time>2026-04-17T08:56:30.942Z</time></trkpt><trkpt lat="44.92193" lon="9.582645"><ele>155.0</ele><time>2026-04-17T08:56:31.942Z</time></trkpt><trkpt lat="44.9216867" lon="9.5826883"><ele>154.0</ele><time>2026-04-17T08:56:32.942Z</time></trkpt><trkpt lat="44.9214417" lon="9.5827567"><ele>153.0</ele><time>2026-04-17T08:56:33.942Z</time></trkpt><trkpt lat="44.9211867" lon="9.5828483"><ele>151.0</ele><time>2026-04-17T08:56:34.942Z</time></trkpt><trkpt lat="44.9209267" lon="9.5829383"><ele>149.0</ele><time>2026-04-17T08:56:35.942Z</time></trkpt><trkpt lat="44.92066" lon="9.5830283"><ele>148.5</ele><time>2026-04-17T08:56:36.942Z</time></trkpt><trkpt lat="44.9204017" lon="9.58311"><ele>148.0</ele><time>2026-04-17T08:56:37.942Z</time></trkpt><trkpt lat="44.9201567" lon="9.5831817"><ele>149.5</ele><time>2026-04-17T08:56:38.942Z</time></trkpt><trkpt lat="44.919925" lon="9.5832467"><ele>151.0</ele><time>2026-04-17T08:56:39.943Z</time></trkpt><trkpt lat="44.9196983" lon="9.5832983"><ele>151.0</ele><time>2026-04-17T08:56:40.942Z</time></trkpt><trkpt lat="44.9194633" lon="9.58331"><ele>151.0</ele><time>2026-04-17T08:56:41.942Z</time></trkpt><trkpt lat="44.9192083" lon="9.58326"><ele>152.0</ele><time>2026-04-17T08:56:42.942Z</time></trkpt><trkpt lat="44.9189483" lon="9.58318"><ele>153.0</ele><time>2026-04-17T08:56:43.942Z</time></trkpt><trkpt lat="44.91869" lon="9.58309"><ele>153.0</ele><time>2026-04-17T08:56:44.942Z</time></trkpt><trkpt lat="44.9184417" lon="9.5829983"><ele>153.0</ele><time>2026-04-17T08:56:45.942Z</time></trkpt><trkpt lat="44.9182167" lon="9.5828967"><ele>153.0</ele><time>2026-04-17T08:56:46.942Z</time></trkpt><trkpt lat="44.9180067" lon="9.5827233"><ele>153.0</ele><time>2026-04-17T08:56:47.942Z</time></trkpt><trkpt lat="44.9178033" lon="9.5826483"><ele>153.0</ele><time>2026-04-17T08:56:48.942Z</time></trkpt><trkpt lat="44.9176117" lon="9.5826317"><ele>153.0</ele><time>2026-04-17T08:56:49.942Z</time></trkpt><trkpt lat="44.9174233" lon="9.58257"><ele>153.0</ele><time>2026-04-17T08:56:50.943Z</time></trkpt><trkpt lat="44.9172517" lon="9.58251"><ele>152.33333333333334</ele><time>2026-04-17T08:56:51.942Z</time></trkpt><trkpt lat="44.9170933" lon="9.5824533"><ele>151.66666666666669</ele><time>2026-04-17T08:56:52.942Z</time></trkpt><trkpt lat="44.91694" lon="9.5824467"><ele>151.0</ele><time>2026-04-17T08:56:53.942Z</time></trkpt><trkpt lat="44.9167817" lon="9.5825017"><ele>151.0</ele><time>2026-04-17T08:56:54.942Z</time></trkpt><trkpt lat="44.9166183" lon="9.5826217"><ele>151.0</ele><time>2026-04-17T08:56:55.943Z</time></trkpt><trkpt lat="44.916425" lon="9.582805"><ele>151.0</ele><time>2026-04-17T08:56:56.942Z</time></trkpt><trkpt lat="44.9162067" lon="9.5829783"><ele>148.5</ele><time>2026-04-17T08:56:57.943Z</time></trkpt><trkpt lat="44.9159533" lon="9.5831117"><ele>146.0</ele><time>2026-04-17T08:56:58.942Z</time></trkpt><trkpt lat="44.9156683" lon="9.58324"><ele>146.0</ele><time>2026-04-17T08:56:59.942Z</time></trkpt><trkpt lat="44.9153933" lon="9.5833517"><ele>146.0</ele><time>2026-04-17T08:57:00.942Z</time></trkpt><trkpt lat="44.9151433" lon="9.5834467"><ele>145.0</ele><time>2026-04-17T08:57:01.942Z</time></trkpt><trkpt lat="44.9149133" lon="9.5835333"><ele>144.0</ele><time>2026-04-17T08:57:02.942Z</time></trkpt><trkpt lat="44.9147117" lon="9.5836167"><ele>143.0</ele><time>2026-04-17T08:57:03.942Z</time></trkpt><trkpt lat="44.91453" lon="9.5837117"><ele>146.33333333333331</ele><time>2026-04-17T08:57:04.942Z</time></trkpt><trkpt lat="44.9143633" lon="9.5836733"><ele>149.66666666666666</ele><time>2026-04-17T08:57:05.942Z</time></trkpt><trkpt lat="44.9142117" lon="9.5836033"><ele>153.0</ele><time>2026-04-17T08:57:06.942Z</time></trkpt><trkpt lat="44.9140633" lon="9.5834817"><ele>154.66666666666666</ele><time>2026-04-17T08:57:07.942Z</time></trkpt><trkpt lat="44.9139083" lon="9.5833933"><ele>156.33333333333331</ele><time>2026-04-17T08:57:08.942Z</time></trkpt><trkpt lat="44.913735" lon="9.5833817"><ele>158.0</ele><time>2026-04-17T08:57:09.942Z</time></trkpt><trkpt lat="44.9135417" lon="9.5834233"><ele>159.0</ele><time>2026-04-17T08:57:10.942Z</time></trkpt><trkpt lat="44.913325" lon="9.5835267"><ele>160.0</ele><time>2026-04-17T08:57:11.942Z</time></trkpt><trkpt lat="44.9131183" lon="9.58367"><ele>157.33333333333334</ele><time>2026-04-17T08:57:12.942Z</time></trkpt><trkpt lat="44.9129333" lon="9.5838267"><ele>154.66666666666666</ele><time>2026-04-17T08:57:13.942Z</time></trkpt><trkpt lat="44.9127617" lon="9.5839683"><ele>152.0</ele><time>2026-04-17T08:57:14.942Z</time></trkpt><trkpt lat="44.9125967" lon="9.584075"><ele>155.33333333333331</ele><time>2026-04-17T08:57:15.942Z</time></trkpt><trkpt lat="44.91243" lon="9.584145"><ele>158.66666666666666</ele><time>2026-04-17T08:57:16.942Z</time></trkpt><trkpt lat="44.9122617" lon="9.58418"><ele>162.0</ele><time>2026-04-17T08:57:17.943Z</time></trkpt><trkpt lat="44.9121067" lon="9.5841883"><ele>162.0</ele><time>2026-04-17T08:57:18.942Z</time></trkpt><trkpt lat="44.9119517" lon="9.5841617"><ele>162.0</ele><time>2026-04-17T08:57:19.942Z</time></trkpt><trkpt lat="44.911805" lon="9.5840817"><ele>162.0</ele><time>2026-04-17T08:57:20.943Z</time></trkpt><trkpt lat="44.9116783" lon="9.5839533"><ele>162.5</ele><time>2026-04-17T08:57:21.942Z</time></trkpt><trkpt lat="44.9115583" lon="9.5838317"><ele>163.0</ele><time>2026-04-17T08:57:22.942Z</time></trkpt><trkpt lat="44.9114383" lon="9.5837267"><ele>163.5</ele><time>2026-04-17T08:57:23.942Z</time></trkpt><trkpt lat="44.91129" lon="9.5836617"><ele>164.0</ele><time>2026-04-17T08:57:24.942Z</time></trkpt><trkpt lat="44.9111017" lon="9.5836283"><ele>166.5</ele><time>2026-04-17T08:57:25.943Z</time></trkpt><trkpt lat="44.9108767" lon="9.5835983"><ele>169.0</ele><time>2026-04-17T08:57:26.942Z</time></trkpt><trkpt lat="44.9106383" lon="9.58356"><ele>169.0</ele><time>2026-04-17T08:57:27.942Z</time></trkpt><trkpt lat="44.9103867" lon="9.5835367"><ele>169.0</ele><time>2026-04-17T08:57:28.943Z</time></trkpt><trkpt lat="44.9101283" lon="9.5835183"><ele>171.5</ele><time>2026-04-17T08:57:29.942Z</time></trkpt><trkpt lat="44.9098867" lon="9.5834983"><ele>174.0</ele><time>2026-04-17T08:57:30.942Z</time></trkpt><trkpt lat="44.9096683" lon="9.5834733"><ele>174.0</ele><time>2026-04-17T08:57:31.943Z</time></trkpt><trkpt lat="44.9094683" lon="9.5834317"><ele>174.0</ele><time>2026-04-17T08:57:32.942Z</time></trkpt><trkpt lat="44.9092833" lon="9.5833783"><ele>174.0</ele><time>2026-04-17T08:57:33.942Z</time></trkpt><trkpt lat="44.90912" lon="9.5833133"><ele>175.33333333333334</ele><time>2026-04-17T08:57:34.942Z</time></trkpt><trkpt lat="44.9089783" lon="9.58322"><ele>176.66666666666669</ele><time>2026-04-17T08:57:35.942Z</time></trkpt><trkpt lat="44.908865" lon="9.5830783"><ele>178.0</ele><time>2026-04-17T08:57:36.942Z</time></trkpt><trkpt lat="44.9087683" lon="9.5828917"><ele>180.0</ele><time>2026-04-17T08:57:37.942Z</time></trkpt><trkpt lat="44.908695" lon="9.5826567"><ele>182.0</ele><time>2026-04-17T08:57:38.942Z</time></trkpt><trkpt lat="44.9086217" lon="9.5824083"><ele>184.0</ele><time>2026-04-17T08:57:39.942Z</time></trkpt><trkpt lat="44.9085383" lon="9.5821617"><ele>184.0</ele><time>2026-04-17T08:57:40.942Z</time></trkpt><trkpt lat="44.9084633" lon="9.581915"><ele>184.0</ele><time>2026-04-17T08:57:41.942Z</time></trkpt><trkpt lat="44.9083783" lon="9.5816783"><ele>184.0</ele><time>2026-04-17T08:57:42.942Z</time></trkpt><trkpt lat="44.9082783" lon="9.5814433"><ele>184.0</ele><time>2026-04-17T08:57:43.942Z</time></trkpt><trkpt lat="44.9081583" lon="9.5812167"><ele>184.0</ele><time>2026-04-17T08:57:44.942Z</time></trkpt><trkpt lat="44.9080167" lon="9.58102"><ele>184.0</ele><time>2026-04-17T08:57:45.942Z</time></trkpt><trkpt lat="44.9078717" lon="9.5808583"><ele>184.66666666666669</ele><time>2026-04-17T08:57:46.942Z</time></trkpt><trkpt lat="44.9077317" lon="9.5807233"><ele>185.33333333333334</ele><time>2026-04-17T08:57:47.942Z</time></trkpt><trkpt lat="44.9075917" lon="9.5806217"><ele>186.0</ele><time>2026-04-17T08:57:48.942Z</time></trkpt><trkpt lat="44.9074283" lon="9.5805683"><ele>186.0</ele><time>2026-04-17T08:57:49.942Z</time></trkpt><trkpt lat="44.907245" lon="9.58052"><ele>186.0</ele><time>2026-04-17T08:57:50.942Z</time></trkpt><trkpt lat="44.9070467" lon="9.580455"><ele>186.0</ele><time>2026-04-17T08:57:51.942Z</time></trkpt><trkpt lat="44.9068117" lon="9.5803483"><ele>183.5</ele><time>2026-04-17T08:57:52.942Z</time></trkpt><trkpt lat="44.906565" lon="9.580245"><ele>181.0</ele><time>2026-04-17T08:57:53.942Z</time></trkpt><trkpt lat="44.9063267" lon="9.58016"><ele>181.0</ele><time>2026-04-17T08:57:54.942Z</time></trkpt><trkpt lat="44.906095" lon="9.5800817"><ele>181.0</ele><time>2026-04-17T08:57:55.942Z</time></trkpt><trkpt lat="44.9058483" lon="9.5800033"><ele>178.0</ele><time>2026-04-17T08:57:56.942Z</time></trkpt><trkpt lat="44.9056017" lon="9.5799233"><ele>175.0</ele><time>2026-04-17T08:57:57.942Z</time></trkpt><trkpt lat="44.90536" lon="9.5798467"><ele>175.0</ele><time>2026-04-17T08:57:58.942Z</time></trkpt><trkpt lat="44.9051283" lon="9.579785"><ele>175.0</ele><time>2026-04-17T08:57:59.943Z</time></trkpt><trkpt lat="44.9049067" lon="9.5797367"><ele>173.0</ele><time>2026-04-17T08:58:00.942Z</time></trkpt><trkpt lat="44.904685" lon="9.57967"><ele>171.0</ele><time>2026-04-17T08:58:01.942Z</time></trkpt><trkpt lat="44.9044633" lon="9.579565"><ele>172.5</ele><time>2026-04-17T08:58:02.942Z</time></trkpt><trkpt lat="44.9042367" lon="9.5794133"><ele>174.0</ele><time>2026-04-17T08:58:03.942Z</time></trkpt><trkpt lat="44.904" lon="9.579235"><ele>174.0</ele><time>2026-04-17T08:58:04.942Z</time></trkpt><trkpt lat="44.90376" lon="9.5790567"><ele>174.0</ele><time>2026-04-17T08:58:05.942Z</time></trkpt><trkpt lat="44.90351" lon="9.5788917"><ele>173.5</ele><time>2026-04-17T08:58:06.942Z</time></trkpt><trkpt lat="44.9032633" lon="9.5787433"><ele>173.0</ele><time>2026-04-17T08:58:07.942Z</time></trkpt><trkpt lat="44.9030283" lon="9.57861"><ele>173.0</ele><time>2026-04-17T08:58:08.942Z</time></trkpt><trkpt lat="44.902805" lon="9.578485"><ele>173.0</ele><time>2026-04-17T08:58:09.942Z</time></trkpt><trkpt lat="44.9025833" lon="9.5783733"><ele>172.66666666666666</ele><time>2026-04-17T08:58:10.943Z</time></trkpt><trkpt lat="44.902365" lon="9.5782933"><ele>172.33333333333334</ele><time>2026-04-17T08:58:11.942Z</time></trkpt><trkpt lat="44.9021633" lon="9.57824"><ele>172.0</ele><time>2026-04-17T08:58:12.942Z</time></trkpt><trkpt lat="44.9019717" lon="9.5782133"><ele>172.0</ele><time>2026-04-17T08:58:13.942Z</time></trkpt><trkpt lat="44.9017867" lon="9.5782217"><ele>172.0</ele><time>2026-04-17T08:58:14.942Z</time></trkpt><trkpt lat="44.9015967" lon="9.5782817"><ele>172.0</ele><time>2026-04-17T08:58:15.942Z</time></trkpt><trkpt lat="44.9014033" lon="9.5783883"><ele>172.33333333333334</ele><time>2026-04-17T08:58:16.942Z</time></trkpt><trkpt lat="44.9012183" lon="9.5785233"><ele>172.66666666666666</ele><time>2026-04-17T08:58:17.942Z</time></trkpt><trkpt lat="44.90106" lon="9.5786733"><ele>173.0</ele><time>2026-04-17T08:58:18.942Z</time></trkpt><trkpt lat="44.9009367" lon="9.5788183"><ele>171.5</ele><time>2026-04-17T08:58:19.942Z</time></trkpt><trkpt lat="44.9008333" lon="9.5789467"><ele>170.0</ele><time>2026-04-17T08:58:20.942Z</time></trkpt><trkpt lat="44.90073" lon="9.5790317"><ele>168.5</ele><time>2026-04-17T08:58:21.942Z</time></trkpt><trkpt lat="44.9006167" lon="9.57906"><ele>167.0</ele><time>2026-04-17T08:58:22.942Z</time></trkpt><trkpt lat="44.9004867" lon="9.5790417"><ele>167.0</ele><time>2026-04-17T08:58:23.942Z</time></trkpt><trkpt lat="44.9003333" lon="9.5789617"><ele>167.0</ele><time>2026-04-17T08:58:24.942Z</time></trkpt><trkpt lat="44.900175" lon="9.5788683"><ele>167.0</ele><time>2026-04-17T08:58:25.942Z</time></trkpt><trkpt lat="44.8999983" lon="9.5788033"><ele>166.66666666666666</ele><time>2026-04-17T08:58:26.942Z</time></trkpt><trkpt lat="44.8998117" lon="9.5787783"><ele>166.33333333333334</ele><time>2026-04-17T08:58:27.942Z</time></trkpt><trkpt lat="44.899625" lon="9.5787633"><ele>166.0</ele><time>2026-04-17T08:58:28.942Z</time></trkpt><trkpt lat="44.899425" lon="9.5787117"><ele>167.5</ele><time>2026-04-17T08:58:29.942Z</time></trkpt><trkpt lat="44.8991983" lon="9.5786167"><ele>169.0</ele><time>2026-04-17T08:58:30.942Z</time></trkpt><trkpt lat="44.8989633" lon="9.578515"><ele>169.0</ele><time>2026-04-17T08:58:31.942Z</time></trkpt><trkpt lat="44.8987433" lon="9.578395"><ele>169.0</ele><time>2026-04-17T08:58:32.942Z</time></trkpt><trkpt lat="44.898535" lon="9.57825"><ele>170.33333333333334</ele><time>2026-04-17T08:58:33.942Z</time></trkpt><trkpt lat="44.8983483" lon="9.57807"><ele>171.66666666666666</ele><time>2026-04-17T08:58:34.942Z</time></trkpt><trkpt lat="44.8981867" lon="9.57788"><ele>173.0</ele><time>2026-04-17T08:58:35.943Z</time></trkpt><trkpt lat="44.8980267" lon="9.5777"><ele>173.0</ele><time>2026-04-17T08:58:36.942Z</time></trkpt><trkpt lat="44.8978533" lon="9.577555"><ele>173.0</ele><time>2026-04-17T08:58:37.942Z</time></trkpt><trkpt lat="44.89768" lon="9.5774483"><ele>173.0</ele><time>2026-04-17T08:58:38.942Z</time></trkpt><trkpt lat="44.89752" lon="9.5773717"><ele>171.60000000000002</ele><time>2026-04-17T08:58:39.942Z</time></trkpt><trkpt lat="44.8973867" lon="9.5773117"><ele>170.20000000000002</ele><time>2026-04-17T08:58:40.942Z</time></trkpt><trkpt lat="44.8972933" lon="9.577275"><ele>168.8</ele><time>2026-04-17T08:58:41.942Z</time></trkpt><trkpt lat="44.8972283" lon="9.57727"><ele>167.4</ele><time>2026-04-17T08:58:42.942Z</time></trkpt><trkpt lat="44.8972067" lon="9.5773933"><ele>166.0</ele><time>2026-04-17T08:58:44.942Z</time></trkpt><trkpt lat="44.8972367" lon="9.5774733"><ele>166.0</ele><time>2026-04-17T08:58:45.942Z</time></trkpt><trkpt lat="44.8972817" lon="9.577575"><ele>166.0</ele><time>2026-04-17T08:58:46.943Z</time></trkpt><trkpt lat="44.8974017" lon="9.5777317"><ele>166.0</ele><time>2026-04-17T08:58:47.943Z</time></trkpt><trkpt lat="44.8975383" lon="9.5779233"><ele>166.0</ele><time>2026-04-17T08:58:48.943Z</time></trkpt><trkpt lat="44.8976767" lon="9.5781217"><ele>165.0</ele><time>2026-04-17T08:58:49.943Z</time></trkpt><trkpt lat="44.8978133" lon="9.578315"><ele>164.0</ele><time>2026-04-17T08:58:50.944Z</time></trkpt><trkpt lat="44.89794" lon="9.5784883"><ele>163.0</ele><time>2026-04-17T08:58:51.943Z</time></trkpt><trkpt lat="44.8980583" lon="9.5786467"><ele>161.33333333333334</ele><time>2026-04-17T08:58:52.943Z</time></trkpt><trkpt lat="44.8981633" lon="9.5788067"><ele>159.66666666666666</ele><time>2026-04-17T08:58:53.944Z</time></trkpt><trkpt lat="44.8982683" lon="9.5789717"><ele>158.0</ele><time>2026-04-17T08:58:54.943Z</time></trkpt><trkpt lat="44.89839" lon="9.5791233"><ele>159.0</ele><time>2026-04-17T08:58:55.943Z</time></trkpt><trkpt lat="44.8985317" lon="9.57927"><ele>160.0</ele><time>2026-04-17T08:58:56.943Z</time></trkpt><trkpt lat="44.8986883" lon="9.5794083"><ele>161.0</ele><time>2026-04-17T08:58:57.943Z</time></trkpt><trkpt lat="44.8988683" lon="9.579545"><ele>159.0</ele><time>2026-04-17T08:58:58.943Z</time></trkpt><trkpt lat="44.8990683" lon="9.5796867"><ele>157.0</ele><time>2026-04-17T08:58:59.943Z</time></trkpt><trkpt lat="44.8992617" lon="9.579825"><ele>155.0</ele><time>2026-04-17T08:59:00.943Z</time></trkpt><trkpt lat="44.8994483" lon="9.5799567"><ele>155.0</ele><time>2026-04-17T08:59:01.943Z</time></trkpt><trkpt lat="44.8996317" lon="9.580075"><ele>155.0</ele><time>2026-04-17T08:59:02.944Z</time></trkpt><trkpt lat="44.899805" lon="9.5801767"><ele>155.0</ele><time>2026-04-17T08:59:03.943Z</time></trkpt><trkpt lat="44.8999617" lon="9.5802533"><ele>155.6</ele><time>2026-04-17T08:59:04.943Z</time></trkpt><trkpt lat="44.9000983" lon="9.580305"><ele>156.2</ele><time>2026-04-17T08:59:05.943Z</time></trkpt><trkpt lat="44.9002133" lon="9.5803533"><ele>156.8</ele><time>2026-04-17T08:59:06.943Z</time></trkpt><trkpt lat="44.9003017" lon="9.5804117"><ele>157.4</ele><time>2026-04-17T08:59:07.943Z</time></trkpt><trkpt lat="44.9003683" lon="9.5804967"><ele>158.0</ele><time>2026-04-17T08:59:08.943Z</time></trkpt><trkpt lat="44.9004083" lon="9.5806233"><ele>154.25</ele><time>2026-04-17T08:59:09.943Z</time></trkpt><trkpt lat="44.90043" lon="9.5807883"><ele>150.5</ele><time>2026-04-17T08:59:10.943Z</time></trkpt><trkpt lat="44.9004317" lon="9.5809733"><ele>146.75</ele><time>2026-04-17T08:59:11.943Z</time></trkpt><trkpt lat="44.9004" lon="9.5812333"><ele>143.0</ele><time>2026-04-17T08:59:12.943Z</time></trkpt><trkpt lat="44.9003717" lon="9.5815017"><ele>140.33333333333331</ele><time>2026-04-17T08:59:13.943Z</time></trkpt><trkpt lat="44.900345" lon="9.581775"><ele>137.66666666666666</ele><time>2026-04-17T08:59:14.943Z</time></trkpt><trkpt lat="44.9003167" lon="9.582075"><ele>135.0</ele><time>2026-04-17T08:59:15.943Z</time></trkpt><trkpt lat="44.9002833" lon="9.5823933"><ele>135.0</ele><time>2026-04-17T08:59:16.943Z</time></trkpt><trkpt lat="44.90028" lon="9.58274"><ele>135.0</ele><time>2026-04-17T08:59:17.943Z</time></trkpt><trkpt lat="44.9002433" lon="9.583025"><ele>137.33333333333334</ele><time>2026-04-17T08:59:18.943Z</time></trkpt><trkpt lat="44.9002233" lon="9.5833067"><ele>139.66666666666669</ele><time>2026-04-17T08:59:19.944Z</time></trkpt><trkpt lat="44.90024" lon="9.5836"><ele>142.0</ele><time>2026-04-17T08:59:20.943Z</time></trkpt><trkpt lat="44.9003017" lon="9.583925"><ele>144.0</ele><time>2026-04-17T08:59:21.943Z</time></trkpt><trkpt lat="44.90038" lon="9.58427"><ele>146.0</ele><time>2026-04-17T08:59:22.943Z</time></trkpt><trkpt lat="44.9004833" lon="9.5846117"><ele>147.0</ele><time>2026-04-17T08:59:23.943Z</time></trkpt><trkpt lat="44.9006167" lon="9.58495"><ele>148.0</ele><time>2026-04-17T08:59:24.943Z</time></trkpt><trkpt lat="44.9007683" lon="9.5852733"><ele>146.5</ele><time>2026-04-17T08:59:25.943Z</time></trkpt><trkpt lat="44.9009217" lon="9.5855817"><ele>145.0</ele><time>2026-04-17T08:59:26.943Z</time></trkpt><trkpt lat="44.9010583" lon="9.5858683"><ele>145.0</ele><time>2026-04-17T08:59:27.943Z</time></trkpt><trkpt lat="44.9011983" lon="9.5861317"><ele>145.0</ele><time>2026-04-17T08:59:28.943Z</time></trkpt><trkpt lat="44.9013667" lon="9.58636"><ele>152.0</ele><time>2026-04-17T08:59:29.943Z</time></trkpt><trkpt lat="44.901555" lon="9.5865633"><ele>159.0</ele><time>2026-04-17T08:59:30.943Z</time></trkpt><trkpt lat="44.901745" lon="9.5867483"><ele>159.0</ele><time>2026-04-17T08:59:31.943Z</time></trkpt><trkpt lat="44.9019117" lon="9.5869117"><ele>159.0</ele><time>2026-04-17T08:59:32.943Z</time></trkpt><trkpt lat="44.902055" lon="9.587055"><ele>159.0</ele><time>2026-04-17T08:59:33.943Z</time></trkpt><trkpt lat="44.9021833" lon="9.587175"><ele>159.0</ele><time>2026-04-17T08:59:34.943Z</time></trkpt><trkpt lat="44.90228" lon="9.58727"><ele>159.0</ele><time>2026-04-17T08:59:35.943Z</time></trkpt><trkpt lat="44.9023533" lon="9.5873467"><ele>159.0</ele><time>2026-04-17T08:59:36.943Z</time></trkpt><trkpt lat="44.902405" lon="9.5874117"><ele>159.0</ele><time>2026-04-17T08:59:37.943Z</time></trkpt><trkpt lat="44.90244" lon="9.587545"><ele>159.0</ele><time>2026-04-17T08:59:39.943Z</time></trkpt><trkpt lat="44.90239" lon="9.5876"><ele>159.0</ele><time>2026-04-17T08:59:41.943Z</time></trkpt><trkpt lat="44.9023283" lon="9.587565"><ele>159.0</ele><time>2026-04-17T08:59:42.943Z</time></trkpt><trkpt lat="44.9022733" lon="9.5875183"><ele>159.0</ele><time>2026-04-17T08:59:43.944Z</time></trkpt><trkpt lat="44.9021967" lon="9.5874667"><ele>159.0</ele><time>2026-04-17T08:59:44.943Z</time></trkpt><trkpt lat="44.9020683" lon="9.5873283"><ele>159.0</ele><time>2026-04-17T08:59:45.943Z</time></trkpt><trkpt lat="44.9019367" lon="9.5872033"><ele>159.0</ele><time>2026-04-17T08:59:46.943Z</time></trkpt><trkpt lat="44.901785" lon="9.5870717"><ele>159.0</ele><time>2026-04-17T08:59:47.943Z</time></trkpt><trkpt lat="44.901605" lon="9.5869233"><ele>159.0</ele><time>2026-04-17T08:59:48.943Z</time></trkpt><trkpt lat="44.9014083" lon="9.58677"><ele>159.0</ele><time>2026-04-17T08:59:49.943Z</time></trkpt><trkpt lat="44.9011933" lon="9.58661"><ele>159.0</ele><time>2026-04-17T08:59:50.943Z</time></trkpt><trkpt lat="44.9009633" lon="9.5864483"><ele>162.5</ele><time>2026-04-17T08:59:51.943Z</time></trkpt><trkpt lat="44.90072" lon="9.58631"><ele>166.0</ele><time>2026-04-17T08:59:52.944Z</time></trkpt><trkpt lat="44.9004917" lon="9.5861867"><ele>164.5</ele><time>2026-04-17T08:59:53.944Z</time></trkpt><trkpt lat="44.90026" lon="9.5860867"><ele>163.0</ele><time>2026-04-17T08:59:54.944Z</time></trkpt><trkpt lat="44.9000233" lon="9.586"><ele>163.0</ele><time>2026-04-17T08:59:55.943Z</time></trkpt><trkpt lat="44.8997667" lon="9.5859183"><ele>163.0</ele><time>2026-04-17T08:59:56.943Z</time></trkpt><trkpt lat="44.89951" lon="9.58584"><ele>163.0</ele><time>2026-04-17T08:59:57.943Z</time></trkpt><trkpt lat="44.899265" lon="9.5857717"><ele>163.0</ele><time>2026-04-17T08:59:58.943Z</time></trkpt><trkpt lat="44.8990417" lon="9.5856983"><ele>165.0</ele><time>2026-04-17T08:59:59.943Z</time></trkpt><trkpt lat="44.8988383" lon="9.58563"><ele>167.0</ele><time>2026-04-17T09:00:00.943Z</time></trkpt><trkpt lat="44.8986383" lon="9.5855867"><ele>169.0</ele><time>2026-04-17T09:00:01.943Z</time></trkpt><trkpt lat="44.8984417" lon="9.585595"><ele>170.66666666666669</ele><time>2026-04-17T09:00:02.943Z</time></trkpt><trkpt lat="44.8982467" lon="9.585665"><ele>172.33333333333334</ele><time>2026-04-17T09:00:03.944Z</time></trkpt><trkpt lat="44.89806" lon="9.5857733"><ele>174.0</ele><time>2026-04-17T09:00:04.943Z</time></trkpt><trkpt lat="44.8978717" lon="9.585855"><ele>174.0</ele><time>2026-04-17T09:00:05.943Z</time></trkpt><trkpt lat="44.8976817" lon="9.585875"><ele>174.0</ele><time>2026-04-17T09:00:06.943Z</time></trkpt><trkpt lat="44.8974883" lon="9.5858367"><ele>174.0</ele><time>2026-04-17T09:00:07.943Z</time></trkpt><trkpt lat="44.8972817" lon="9.58574"><ele>176.5</ele><time>2026-04-17T09:00:08.943Z</time></trkpt><trkpt lat="44.8970583" lon="9.5855883"><ele>179.0</ele><time>2026-04-17T09:00:09.943Z</time></trkpt><trkpt lat="44.8968283" lon="9.5854433"><ele>176.0</ele><time>2026-04-17T09:00:10.943Z</time></trkpt><trkpt lat="44.8966017" lon="9.5853017"><ele>173.0</ele><time>2026-04-17T09:00:11.943Z</time></trkpt><trkpt lat="44.89638" lon="9.58517"><ele>173.0</ele><time>2026-04-17T09:00:12.943Z</time></trkpt><trkpt lat="44.8961517" lon="9.585075"><ele>173.0</ele><time>2026-04-17T09:00:13.943Z</time></trkpt><trkpt lat="44.8959183" lon="9.585015"><ele>176.5</ele><time>2026-04-17T09:00:14.943Z</time></trkpt><trkpt lat="44.8956767" lon="9.5849967"><ele>180.0</ele><time>2026-04-17T09:00:15.943Z</time></trkpt><trkpt lat="44.8954217" lon="9.58504"><ele>180.0</ele><time>2026-04-17T09:00:16.943Z</time></trkpt><trkpt lat="44.8951483" lon="9.5851133"><ele>180.0</ele><time>2026-04-17T09:00:17.943Z</time></trkpt><trkpt lat="44.8948583" lon="9.5851833"><ele>181.5</ele><time>2026-04-17T09:00:18.943Z</time></trkpt><trkpt lat="44.8945817" lon="9.5852317"><ele>183.0</ele><time>2026-04-17T09:00:19.943Z</time></trkpt><trkpt lat="44.8943467" lon="9.585255"><ele>183.0</ele><time>2026-04-17T09:00:20.943Z</time></trkpt><trkpt lat="44.8941467" lon="9.5852667"><ele>183.0</ele><time>2026-04-17T09:00:21.943Z</time></trkpt><trkpt lat="44.8939683" lon="9.585275"><ele>183.0</ele><time>2026-04-17T09:00:22.943Z</time></trkpt><trkpt lat="44.8937933" lon="9.58528"><ele>183.0</ele><time>2026-04-17T09:00:23.943Z</time></trkpt><trkpt lat="44.8935933" lon="9.5852933"><ele>183.0</ele><time>2026-04-17T09:00:24.943Z</time></trkpt><trkpt lat="44.893355" lon="9.585305"><ele>183.0</ele><time>2026-04-17T09:00:25.943Z</time></trkpt><trkpt lat="44.8930867" lon="9.58531"><ele>184.0</ele><time>2026-04-17T09:00:26.943Z</time></trkpt><trkpt lat="44.8927967" lon="9.5853083"><ele>185.0</ele><time>2026-04-17T09:00:27.943Z</time></trkpt><trkpt lat="44.8924933" lon="9.5853217"><ele>188.0</ele><time>2026-04-17T09:00:28.943Z</time></trkpt><trkpt lat="44.8921867" lon="9.5853333"><ele>191.0</ele><time>2026-04-17T09:00:29.943Z</time></trkpt><trkpt lat="44.8918933" lon="9.5853433"><ele>191.5</ele><time>2026-04-17T09:00:30.943Z</time></trkpt><trkpt lat="44.8916167" lon="9.5853517"><ele>192.0</ele><time>2026-04-17T09:00:31.944Z</time></trkpt><trkpt lat="44.891355" lon="9.58536"><ele>192.0</ele><time>2026-04-17T09:00:32.943Z</time></trkpt><trkpt lat="44.8911133" lon="9.5853617"><ele>192.0</ele><time>2026-04-17T09:00:33.943Z</time></trkpt><trkpt lat="44.89088" lon="9.585365"><ele>191.5</ele><time>2026-04-17T09:00:34.943Z</time></trkpt><trkpt lat="44.890665" lon="9.5853783"><ele>191.0</ele><time>2026-04-17T09:00:35.943Z</time></trkpt><trkpt lat="44.890425" lon="9.5853417"><ele>191.0</ele><time>2026-04-17T09:00:36.943Z</time></trkpt><trkpt lat="44.8902367" lon="9.585405"><ele>191.0</ele><time>2026-04-17T09:00:37.943Z</time></trkpt><trkpt lat="44.8900567" lon="9.5854633"><ele>191.0</ele><time>2026-04-17T09:00:38.943Z</time></trkpt><trkpt lat="44.88989" lon="9.585515"><ele>191.66666666666666</ele><time>2026-04-17T09:00:39.943Z</time></trkpt><trkpt lat="44.8897233" lon="9.5855383"><ele>192.33333333333331</ele><time>2026-04-17T09:00:40.942Z</time></trkpt><trkpt lat="44.8895633" lon="9.5854883"><ele>193.0</ele><time>2026-04-17T09:00:41.942Z</time></trkpt><trkpt lat="44.8894183" lon="9.5854017"><ele>191.66666666666666</ele><time>2026-04-17T09:00:42.943Z</time></trkpt><trkpt lat="44.8893017" lon="9.5852533"><ele>190.33333333333331</ele><time>2026-04-17T09:00:43.942Z</time></trkpt><trkpt lat="44.889195" lon="9.5850967"><ele>189.0</ele><time>2026-04-17T09:00:44.942Z</time></trkpt><trkpt lat="44.8890983" lon="9.58494"><ele>189.0</ele><time>2026-04-17T09:00:45.942Z</time></trkpt><trkpt lat="44.8890133" lon="9.5847917"><ele>189.0</ele><time>2026-04-17T09:00:46.942Z</time></trkpt><trkpt lat="44.8889383" lon="9.58465"><ele>189.0</ele><time>2026-04-17T09:00:47.942Z</time></trkpt><trkpt lat="44.888865" lon="9.5845083"><ele>189.0</ele><time>2026-04-17T09:00:48.942Z</time></trkpt><trkpt lat="44.888785" lon="9.584365"><ele>187.75</ele><time>2026-04-17T09:00:49.943Z</time></trkpt><trkpt lat="44.88869" lon="9.5842267"><ele>186.5</ele><time>2026-04-17T09:00:50.942Z</time></trkpt><trkpt lat="44.88857" lon="9.5841333"><ele>185.25</ele><time>2026-04-17T09:00:51.942Z</time></trkpt><trkpt lat="44.8884417" lon="9.5840883"><ele>184.0</ele><time>2026-04-17T09:00:52.943Z</time></trkpt><trkpt lat="44.88831" lon="9.5840817"><ele>184.0</ele><time>2026-04-17T09:00:53.942Z</time></trkpt><trkpt lat="44.8881783" lon="9.5841017"><ele>184.0</ele><time>2026-04-17T09:00:54.942Z</time></trkpt><trkpt lat="44.88805" lon="9.584125"><ele>184.0</ele><time>2026-04-17T09:00:55.942Z</time></trkpt><trkpt lat="44.8879233" lon="9.5841483"><ele>184.0</ele><time>2026-04-17T09:00:56.942Z</time></trkpt><trkpt lat="44.8878" lon="9.5841417"><ele>184.0</ele><time>2026-04-17T09:00:57.942Z</time></trkpt><trkpt lat="44.8876767" lon="9.5840967"><ele>184.0</ele><time>2026-04-17T09:00:58.942Z</time></trkpt><trkpt lat="44.887575" lon="9.5839883"><ele>184.0</ele><time>2026-04-17T09:00:59.942Z</time></trkpt><trkpt lat="44.8874867" lon="9.58385"><ele>184.0</ele><time>2026-04-17T09:01:00.942Z</time></trkpt><trkpt lat="44.8874017" lon="9.58371"><ele>183.0</ele><time>2026-04-17T09:01:01.942Z</time></trkpt><trkpt lat="44.88731" lon="9.583575"><ele>182.0</ele><time>2026-04-17T09:01:02.942Z</time></trkpt><trkpt lat="44.887205" lon="9.5834617"><ele>181.0</ele><time>2026-04-17T09:01:03.942Z</time></trkpt><trkpt lat="44.8870883" lon="9.5833917"><ele>180.0</ele><time>2026-04-17T09:01:04.942Z</time></trkpt><trkpt lat="44.886965" lon="9.5833483"><ele>180.0</ele><time>2026-04-17T09:01:05.942Z</time></trkpt><trkpt lat="44.8868283" lon="9.5833383"><ele>180.0</ele><time>2026-04-17T09:01:06.942Z</time></trkpt><trkpt lat="44.8866917" lon="9.5833617"><ele>180.0</ele><time>2026-04-17T09:01:07.942Z</time></trkpt><trkpt lat="44.8865667" lon="9.5833833"><ele>180.0</ele><time>2026-04-17T09:01:08.942Z</time></trkpt><trkpt lat="44.8864433" lon="9.5834"><ele>179.75</ele><time>2026-04-17T09:01:09.942Z</time></trkpt><trkpt lat="44.8863183" lon="9.583375"><ele>179.5</ele><time>2026-04-17T09:01:10.943Z</time></trkpt><trkpt lat="44.8861933" lon="9.5833017"><ele>179.25</ele><time>2026-04-17T09:01:11.942Z</time></trkpt><trkpt lat="44.8860833" lon="9.5831667"><ele>179.0</ele><time>2026-04-17T09:01:12.942Z</time></trkpt><trkpt lat="44.8859717" lon="9.5829717"><ele>179.5</ele><time>2026-04-17T09:01:13.942Z</time></trkpt><trkpt lat="44.8858467" lon="9.5827"><ele>180.0</ele><time>2026-04-17T09:01:14.942Z</time></trkpt><trkpt lat="44.8857167" lon="9.5824067"><ele>180.0</ele><time>2026-04-17T09:01:15.942Z</time></trkpt><trkpt lat="44.885595" lon="9.58211"><ele>180.0</ele><time>2026-04-17T09:01:16.942Z</time></trkpt><trkpt lat="44.8855067" lon="9.5817983"><ele>177.0</ele><time>2026-04-17T09:01:17.942Z</time></trkpt><trkpt lat="44.8854033" lon="9.5814567"><ele>174.0</ele><time>2026-04-17T09:01:18.942Z</time></trkpt><trkpt lat="44.8853833" lon="9.581105"><ele>173.0</ele><time>2026-04-17T09:01:19.942Z</time></trkpt><trkpt lat="44.88533" lon="9.5807633"><ele>172.0</ele><time>2026-04-17T09:01:20.942Z</time></trkpt><trkpt lat="44.8852267" lon="9.58044"><ele>169.5</ele><time>2026-04-17T09:01:21.942Z</time></trkpt><trkpt lat="44.885115" lon="9.58011"><ele>167.0</ele><time>2026-04-17T09:01:22.942Z</time></trkpt><trkpt lat="44.88501" lon="9.5797717"><ele>173.0</ele><time>2026-04-17T09:01:23.942Z</time></trkpt><trkpt lat="44.8849233" lon="9.5794017"><ele>179.0</ele><time>2026-04-17T09:01:24.942Z</time></trkpt><trkpt lat="44.88484" lon="9.5790083"><ele>178.0</ele><time>2026-04-17T09:01:25.942Z</time></trkpt><trkpt lat="44.8847683" lon="9.5786033"><ele>177.0</ele><time>2026-04-17T09:01:26.942Z</time></trkpt><trkpt lat="44.8847133" lon="9.5782083"><ele>173.5</ele><time>2026-04-17T09:01:27.942Z</time></trkpt><trkpt lat="44.884675" lon="9.5778433"><ele>170.0</ele><time>2026-04-17T09:01:28.942Z</time></trkpt><trkpt lat="44.8846583" lon="9.5774967"><ele>170.0</ele><time>2026-04-17T09:01:29.942Z</time></trkpt><trkpt lat="44.88463" lon="9.57717"><ele>170.0</ele><time>2026-04-17T09:01:30.943Z</time></trkpt><trkpt lat="44.8847033" lon="9.5768417"><ele>168.33333333333331</ele><time>2026-04-17T09:01:31.942Z</time></trkpt><trkpt lat="44.884665" lon="9.576625"><ele>166.66666666666666</ele><time>2026-04-17T09:01:32.942Z</time></trkpt><trkpt lat="44.8846017" lon="9.5764117"><ele>165.0</ele><time>2026-04-17T09:01:33.942Z</time></trkpt><trkpt lat="44.884485" lon="9.57623"><ele>163.33333333333334</ele><time>2026-04-17T09:01:34.942Z</time></trkpt><trkpt lat="44.8843233" lon="9.5760783"><ele>161.66666666666669</ele><time>2026-04-17T09:01:35.942Z</time></trkpt><trkpt lat="44.8841533" lon="9.57595"><ele>160.0</ele><time>2026-04-17T09:01:36.942Z</time></trkpt><trkpt lat="44.8840033" lon="9.5758083"><ele>162.33333333333334</ele><time>2026-04-17T09:01:37.942Z</time></trkpt><trkpt lat="44.8838883" lon="9.5756367"><ele>164.66666666666666</ele><time>2026-04-17T09:01:38.942Z</time></trkpt><trkpt lat="44.883815" lon="9.5754067"><ele>167.0</ele><time>2026-04-17T09:01:39.943Z</time></trkpt><trkpt lat="44.8837933" lon="9.57512"><ele>167.0</ele><time>2026-04-17T09:01:40.942Z</time></trkpt><trkpt lat="44.8838167" lon="9.5748067"><ele>167.0</ele><time>2026-04-17T09:01:41.942Z</time></trkpt><trkpt lat="44.8838533" lon="9.5745067"><ele>167.0</ele><time>2026-04-17T09:01:42.942Z</time></trkpt><trkpt lat="44.8839" lon="9.5742183"><ele>167.33333333333331</ele><time>2026-04-17T09:01:43.942Z</time></trkpt><trkpt lat="44.8839167" lon="9.5739317"><ele>167.66666666666666</ele><time>2026-04-17T09:01:44.942Z</time></trkpt><trkpt lat="44.883885" lon="9.5736317"><ele>168.0</ele><time>2026-04-17T09:01:45.942Z</time></trkpt><trkpt lat="44.8838017" lon="9.573305"><ele>168.0</ele><time>2026-04-17T09:01:46.942Z</time></trkpt><trkpt lat="44.8836817" lon="9.572935"><ele>168.0</ele><time>2026-04-17T09:01:47.942Z</time></trkpt><trkpt lat="44.8835367" lon="9.57254"><ele>168.5</ele><time>2026-04-17T09:01:48.942Z</time></trkpt><trkpt lat="44.8833817" lon="9.57212"><ele>169.0</ele><time>2026-04-17T09:01:49.942Z</time></trkpt><trkpt lat="44.88322" lon="9.57168"><ele>169.0</ele><time>2026-04-17T09:01:50.942Z</time></trkpt><trkpt lat="44.883055" lon="9.5712217"><ele>169.0</ele><time>2026-04-17T09:01:51.942Z</time></trkpt><trkpt lat="44.8828883" lon="9.5707533"><ele>166.0</ele><time>2026-04-17T09:01:52.942Z</time></trkpt><trkpt lat="44.8827217" lon="9.5702783"><ele>163.0</ele><time>2026-04-17T09:01:53.942Z</time></trkpt><trkpt lat="44.8825583" lon="9.569815"><ele>167.0</ele><time>2026-04-17T09:01:54.942Z</time></trkpt><trkpt lat="44.8823983" lon="9.5693883"><ele>171.0</ele><time>2026-04-17T09:01:55.942Z</time></trkpt><trkpt lat="44.8822433" lon="9.568985"><ele>169.0</ele><time>2026-04-17T09:01:56.942Z</time></trkpt><trkpt lat="44.8821033" lon="9.5685833"><ele>167.0</ele><time>2026-04-17T09:01:57.942Z</time></trkpt><trkpt lat="44.881975" lon="9.5681883"><ele>166.5</ele><time>2026-04-17T09:01:58.943Z</time></trkpt><trkpt lat="44.8818583" lon="9.5678133"><ele>166.0</ele><time>2026-04-17T09:01:59.942Z</time></trkpt><trkpt lat="44.88177" lon="9.5674117"><ele>167.5</ele><time>2026-04-17T09:02:00.942Z</time></trkpt><trkpt lat="44.881585" lon="9.5671617"><ele>169.0</ele><time>2026-04-17T09:02:01.942Z</time></trkpt><trkpt lat="44.881405" lon="9.5668867"><ele>169.0</ele><time>2026-04-17T09:02:02.942Z</time></trkpt><trkpt lat="44.8812133" lon="9.5666083"><ele>169.0</ele><time>2026-04-17T09:02:03.942Z</time></trkpt><trkpt lat="44.8809983" lon="9.5663267"><ele>169.0</ele><time>2026-04-17T09:02:04.942Z</time></trkpt><trkpt lat="44.8807617" lon="9.5660233"><ele>169.0</ele><time>2026-04-17T09:02:05.942Z</time></trkpt><trkpt lat="44.88051" lon="9.56571"><ele>169.0</ele><time>2026-04-17T09:02:06.942Z</time></trkpt><trkpt lat="44.8802567" lon="9.565385"><ele>169.0</ele><time>2026-04-17T09:02:07.942Z</time></trkpt><trkpt lat="44.8799983" lon="9.5650383"><ele>171.5</ele><time>2026-04-17T09:02:08.942Z</time></trkpt><trkpt lat="44.8797317" lon="9.5646817"><ele>174.0</ele><time>2026-04-17T09:02:09.942Z</time></trkpt><trkpt lat="44.87946" lon="9.5643167"><ele>177.5</ele><time>2026-04-17T09:02:10.942Z</time></trkpt><trkpt lat="44.8791867" lon="9.5639467"><ele>181.0</ele><time>2026-04-17T09:02:11.942Z</time></trkpt><trkpt lat="44.8789167" lon="9.56357"><ele>177.5</ele><time>2026-04-17T09:02:12.942Z</time></trkpt><trkpt lat="44.8786483" lon="9.5632017"><ele>174.0</ele><time>2026-04-17T09:02:13.942Z</time></trkpt><trkpt lat="44.878365" lon="9.5628533"><ele>174.0</ele><time>2026-04-17T09:02:14.942Z</time></trkpt><trkpt lat="44.8780767" lon="9.5625267"><ele>174.0</ele><time>2026-04-17T09:02:15.942Z</time></trkpt><trkpt lat="44.8777983" lon="9.56223"><ele>174.5</ele><time>2026-04-17T09:02:16.942Z</time></trkpt><trkpt lat="44.8775367" lon="9.5619517"><ele>175.0</ele><time>2026-04-17T09:02:17.942Z</time></trkpt><trkpt lat="44.8772933" lon="9.5617"><ele>175.0</ele><time>2026-04-17T09:02:18.942Z</time></trkpt><trkpt lat="44.877065" lon="9.5614767"><ele>175.0</ele><time>2026-04-17T09:02:19.942Z</time></trkpt><trkpt lat="44.8768533" lon="9.5612767"><ele>175.0</ele><time>2026-04-17T09:02:20.942Z</time></trkpt><trkpt lat="44.8766467" lon="9.5611067"><ele>175.0</ele><time>2026-04-17T09:02:21.942Z</time></trkpt><trkpt lat="44.87643" lon="9.5609767"><ele>175.0</ele><time>2026-04-17T09:02:22.942Z</time></trkpt><trkpt lat="44.8762033" lon="9.5608833"><ele>175.0</ele><time>2026-04-17T09:02:23.943Z</time></trkpt><trkpt lat="44.8759633" lon="9.560845"><ele>175.5</ele><time>2026-04-17T09:02:24.942Z</time></trkpt><trkpt lat="44.8757033" lon="9.56087"><ele>176.0</ele><time>2026-04-17T09:02:25.942Z</time></trkpt><trkpt lat="44.87544" lon="9.5609283"><ele>176.0</ele><time>2026-04-17T09:02:26.942Z</time></trkpt><trkpt lat="44.8751917" lon="9.5609917"><ele>176.0</ele><time>2026-04-17T09:02:27.942Z</time></trkpt><trkpt lat="44.8749617" lon="9.561035"><ele>176.33333333333331</ele><time>2026-04-17T09:02:28.942Z</time></trkpt><trkpt lat="44.8747467" lon="9.56102"><ele>176.66666666666666</ele><time>2026-04-17T09:02:29.942Z</time></trkpt><trkpt lat="44.8745267" lon="9.5609317"><ele>177.0</ele><time>2026-04-17T09:02:30.942Z</time></trkpt><trkpt lat="44.8743033" lon="9.560775"><ele>178.0</ele><time>2026-04-17T09:02:31.942Z</time></trkpt><trkpt lat="44.8740667" lon="9.56059"><ele>179.0</ele><time>2026-04-17T09:02:32.942Z</time></trkpt><trkpt lat="44.8738117" lon="9.560395"><ele>180.0</ele><time>2026-04-17T09:02:33.942Z</time></trkpt><trkpt lat="44.873545" lon="9.5602"><ele>181.0</ele><time>2026-04-17T09:02:34.942Z</time></trkpt><trkpt lat="44.873275" lon="9.560005"><ele>181.0</ele><time>2026-04-17T09:02:35.942Z</time></trkpt><trkpt lat="44.8730167" lon="9.55982"><ele>181.0</ele><time>2026-04-17T09:02:36.942Z</time></trkpt><trkpt lat="44.8727867" lon="9.55965"><ele>179.5</ele><time>2026-04-17T09:02:37.942Z</time></trkpt><trkpt lat="44.872585" lon="9.5594683"><ele>178.0</ele><time>2026-04-17T09:02:38.942Z</time></trkpt><trkpt lat="44.8723833" lon="9.5593633"><ele>178.0</ele><time>2026-04-17T09:02:39.942Z</time></trkpt><trkpt lat="44.8721967" lon="9.5592083"><ele>178.0</ele><time>2026-04-17T09:02:40.942Z</time></trkpt><trkpt lat="44.8720717" lon="9.5589483"><ele>178.0</ele><time>2026-04-17T09:02:41.942Z</time></trkpt><trkpt lat="44.8719683" lon="9.5586467"><ele>176.66666666666669</ele><time>2026-04-17T09:02:42.942Z</time></trkpt><trkpt lat="44.8718867" lon="9.55835"><ele>175.33333333333334</ele><time>2026-04-17T09:02:43.942Z</time></trkpt><trkpt lat="44.87178" lon="9.5580917"><ele>174.0</ele><time>2026-04-17T09:02:44.942Z</time></trkpt><trkpt lat="44.871635" lon="9.5578767"><ele>175.33333333333334</ele><time>2026-04-17T09:02:45.942Z</time></trkpt><trkpt lat="44.8714633" lon="9.5576883"><ele>176.66666666666669</ele><time>2026-04-17T09:02:46.942Z</time></trkpt><trkpt lat="44.871265" lon="9.5575783"><ele>178.0</ele><time>2026-04-17T09:02:47.942Z</time></trkpt><trkpt lat="44.871055" lon="9.5575483"><ele>182.0</ele><time>2026-04-17T09:02:48.942Z</time></trkpt><trkpt lat="44.8708217" lon="9.557595"><ele>186.0</ele><time>2026-04-17T09:02:49.942Z</time></trkpt><trkpt lat="44.870565" lon="9.557675"><ele>186.0</ele><time>2026-04-17T09:02:50.942Z</time></trkpt><trkpt lat="44.8703" lon="9.55776"><ele>186.0</ele><time>2026-04-17T09:02:51.942Z</time></trkpt><trkpt lat="44.87003" lon="9.55784"><ele>191.0</ele><time>2026-04-17T09:02:52.942Z</time></trkpt><trkpt lat="44.8697733" lon="9.5578917"><ele>196.0</ele><time>2026-04-17T09:02:53.942Z</time></trkpt><trkpt lat="44.86953" lon="9.557895"><ele>192.33333333333331</ele><time>2026-04-17T09:02:54.942Z</time></trkpt><trkpt lat="44.8693" lon="9.5578583"><ele>188.66666666666666</ele><time>2026-04-17T09:02:55.942Z</time></trkpt><trkpt lat="44.8690967" lon="9.557795"><ele>185.0</ele><time>2026-04-17T09:02:56.942Z</time></trkpt><trkpt lat="44.86892" lon="9.5576817"><ele>185.0</ele><time>2026-04-17T09:02:57.942Z</time></trkpt><trkpt lat="44.8687583" lon="9.5575117"><ele>185.0</ele><time>2026-04-17T09:02:58.942Z</time></trkpt><trkpt lat="44.8686117" lon="9.5572767"><ele>185.0</ele><time>2026-04-17T09:02:59.942Z</time></trkpt><trkpt lat="44.868485" lon="9.55701"><ele>186.0</ele><time>2026-04-17T09:03:00.942Z</time></trkpt><trkpt lat="44.8683717" lon="9.5567467"><ele>187.0</ele><time>2026-04-17T09:03:01.942Z</time></trkpt><trkpt lat="44.8682417" lon="9.5565183"><ele>188.0</ele><time>2026-04-17T09:03:02.942Z</time></trkpt><trkpt lat="44.868075" lon="9.556335"><ele>188.0</ele><time>2026-04-17T09:03:03.942Z</time></trkpt><trkpt lat="44.8678783" lon="9.5562067"><ele>188.0</ele><time>2026-04-17T09:03:04.942Z</time></trkpt><trkpt lat="44.8676483" lon="9.5561267"><ele>187.0</ele><time>2026-04-17T09:03:05.942Z</time></trkpt><trkpt lat="44.867415" lon="9.5560633"><ele>186.0</ele><time>2026-04-17T09:03:06.942Z</time></trkpt><trkpt lat="44.8672" lon="9.55597"><ele>186.0</ele><time>2026-04-17T09:03:07.942Z</time></trkpt><trkpt lat="44.8669967" lon="9.5558167"><ele>186.0</ele><time>2026-04-17T09:03:08.943Z</time></trkpt><trkpt lat="44.8668067" lon="9.5556117"><ele>186.0</ele><time>2026-04-17T09:03:09.942Z</time></trkpt><trkpt lat="44.866635" lon="9.55539"><ele>186.0</ele><time>2026-04-17T09:03:10.942Z</time></trkpt><trkpt lat="44.8664783" lon="9.5551783"><ele>186.0</ele><time>2026-04-17T09:03:11.942Z</time></trkpt><trkpt lat="44.8663333" lon="9.5549833"><ele>186.0</ele><time>2026-04-17T09:03:12.942Z</time></trkpt><trkpt lat="44.86619" lon="9.5548083"><ele>186.0</ele><time>2026-04-17T09:03:13.942Z</time></trkpt><trkpt lat="44.8660417" lon="9.554685"><ele>189.0</ele><time>2026-04-17T09:03:14.942Z</time></trkpt><trkpt lat="44.8658733" lon="9.55461"><ele>192.0</ele><time>2026-04-17T09:03:15.942Z</time></trkpt><trkpt lat="44.8656883" lon="9.5546083"><ele>195.0</ele><time>2026-04-17T09:03:16.942Z</time></trkpt><trkpt lat="44.8654367" lon="9.5546717"><ele>195.0</ele><time>2026-04-17T09:03:17.942Z</time></trkpt><trkpt lat="44.8651717" lon="9.5547517"><ele>195.0</ele><time>2026-04-17T09:03:18.943Z</time></trkpt><trkpt lat="44.8648883" lon="9.5548433"><ele>194.0</ele><time>2026-04-17T09:03:19.942Z</time></trkpt><trkpt lat="44.8646133" lon="9.5549383"><ele>193.0</ele><time>2026-04-17T09:03:20.942Z</time></trkpt><trkpt lat="44.8643533" lon="9.55502"><ele>190.5</ele><time>2026-04-17T09:03:21.942Z</time></trkpt><trkpt lat="44.8641033" lon="9.5550967"><ele>188.0</ele><time>2026-04-17T09:03:22.942Z</time></trkpt><trkpt lat="44.8638767" lon="9.55516"><ele>188.0</ele><time>2026-04-17T09:03:23.942Z</time></trkpt><trkpt lat="44.863665" lon="9.555215"><ele>188.0</ele><time>2026-04-17T09:03:24.942Z</time></trkpt><trkpt lat="44.86346" lon="9.555195"><ele>188.0</ele><time>2026-04-17T09:03:25.942Z</time></trkpt><trkpt lat="44.8632767" lon="9.5551033"><ele>188.0</ele><time>2026-04-17T09:03:26.942Z</time></trkpt><trkpt lat="44.86311" lon="9.5549533"><ele>188.0</ele><time>2026-04-17T09:03:27.942Z</time></trkpt><trkpt lat="44.8629467" lon="9.5547467"><ele>188.0</ele><time>2026-04-17T09:03:28.942Z</time></trkpt><trkpt lat="44.8628033" lon="9.554475"><ele>189.5</ele><time>2026-04-17T09:03:29.942Z</time></trkpt><trkpt lat="44.8626833" lon="9.5541867"><ele>191.0</ele><time>2026-04-17T09:03:30.942Z</time></trkpt><trkpt lat="44.8625517" lon="9.5539367"><ele>191.0</ele><time>2026-04-17T09:03:31.942Z</time></trkpt><trkpt lat="44.8623867" lon="9.5537283"><ele>191.0</ele><time>2026-04-17T09:03:32.942Z</time></trkpt><trkpt lat="44.862185" lon="9.5535667"><ele>185.5</ele><time>2026-04-17T09:03:33.942Z</time></trkpt><trkpt lat="44.86198" lon="9.5534033"><ele>180.0</ele><time>2026-04-17T09:03:34.942Z</time></trkpt><trkpt lat="44.8617933" lon="9.5532033"><ele>182.5</ele><time>2026-04-17T09:03:35.942Z</time></trkpt><trkpt lat="44.86164" lon="9.5529567"><ele>185.0</ele><time>2026-04-17T09:03:36.943Z</time></trkpt><trkpt lat="44.8615183" lon="9.5527"><ele>185.0</ele><time>2026-04-17T09:03:37.942Z</time></trkpt><trkpt lat="44.8614183" lon="9.5524533"><ele>185.0</ele><time>2026-04-17T09:03:38.942Z</time></trkpt><trkpt lat="44.8613167" lon="9.552235"><ele>185.0</ele><time>2026-04-17T09:03:39.942Z</time></trkpt><trkpt lat="44.861205" lon="9.552045"><ele>185.5</ele><time>2026-04-17T09:03:40.942Z</time></trkpt><trkpt lat="44.861085" lon="9.5519017"><ele>186.0</ele><time>2026-04-17T09:03:41.943Z</time></trkpt><trkpt lat="44.860965" lon="9.5517833"><ele>186.5</ele><time>2026-04-17T09:03:42.942Z</time></trkpt><trkpt lat="44.860845" lon="9.5516667"><ele>187.0</ele><time>2026-04-17T09:03:43.942Z</time></trkpt><trkpt lat="44.8607167" lon="9.551535"><ele>187.0</ele><time>2026-04-17T09:03:44.942Z</time></trkpt><trkpt lat="44.860575" lon="9.551395"><ele>187.0</ele><time>2026-04-17T09:03:45.942Z</time></trkpt><trkpt lat="44.860415" lon="9.5512233"><ele>187.0</ele><time>2026-04-17T09:03:46.942Z</time></trkpt><trkpt lat="44.8602433" lon="9.551005"><ele>190.5</ele><time>2026-04-17T09:03:47.942Z</time></trkpt><trkpt lat="44.8600567" lon="9.5507383"><ele>194.0</ele><time>2026-04-17T09:03:48.942Z</time></trkpt><trkpt lat="44.8598383" lon="9.5504567"><ele>184.0</ele><time>2026-04-17T09:03:49.942Z</time></trkpt><trkpt lat="44.8595817" lon="9.550185"><ele>174.0</ele><time>2026-04-17T09:03:50.943Z</time></trkpt><trkpt lat="44.8593067" lon="9.549905"><ele>173.0</ele><time>2026-04-17T09:03:51.942Z</time></trkpt><trkpt lat="44.8590283" lon="9.5496283"><ele>172.0</ele><time>2026-04-17T09:03:52.942Z</time></trkpt><trkpt lat="44.858765" lon="9.5493633"><ele>172.0</ele><time>2026-04-17T09:03:53.942Z</time></trkpt><trkpt lat="44.8585267" lon="9.5491167"><ele>172.0</ele><time>2026-04-17T09:03:54.942Z</time></trkpt><trkpt lat="44.8583067" lon="9.5488817"><ele>174.0</ele><time>2026-04-17T09:03:55.942Z</time></trkpt><trkpt lat="44.8581" lon="9.54867"><ele>176.0</ele><time>2026-04-17T09:03:56.942Z</time></trkpt><trkpt lat="44.85788" lon="9.5485"><ele>176.0</ele><time>2026-04-17T09:03:57.942Z</time></trkpt><trkpt lat="44.8576483" lon="9.5483667"><ele>176.0</ele><time>2026-04-17T09:03:58.942Z</time></trkpt><trkpt lat="44.85742" lon="9.5482633"><ele>180.5</ele><time>2026-04-17T09:03:59.942Z</time></trkpt><trkpt lat="44.857195" lon="9.5481567"><ele>185.0</ele><time>2026-04-17T09:04:00.942Z</time></trkpt><trkpt lat="44.8569783" lon="9.548055"><ele>186.0</ele><time>2026-04-17T09:04:01.942Z</time></trkpt><trkpt lat="44.8567683" lon="9.5479583"><ele>187.0</ele><time>2026-04-17T09:04:02.942Z</time></trkpt><trkpt lat="44.8565583" lon="9.54786"><ele>188.0</ele><time>2026-04-17T09:04:03.942Z</time></trkpt><trkpt lat="44.856365" lon="9.54776"><ele>188.33333333333331</ele><time>2026-04-17T09:04:04.942Z</time></trkpt><trkpt lat="44.8561867" lon="9.5476433"><ele>188.66666666666666</ele><time>2026-04-17T09:04:05.943Z</time></trkpt><trkpt lat="44.8560117" lon="9.5474833"><ele>189.0</ele><time>2026-04-17T09:04:06.943Z</time></trkpt><trkpt lat="44.8558267" lon="9.54728"><ele>189.0</ele><time>2026-04-17T09:04:07.942Z</time></trkpt><trkpt lat="44.855635" lon="9.547045"><ele>189.0</ele><time>2026-04-17T09:04:08.942Z</time></trkpt><trkpt lat="44.8554283" lon="9.5467933"><ele>190.0</ele><time>2026-04-17T09:04:09.942Z</time></trkpt><trkpt lat="44.8552117" lon="9.5465267"><ele>191.0</ele><time>2026-04-17T09:04:10.942Z</time></trkpt><trkpt lat="44.8550033" lon="9.5462667"><ele>187.0</ele><time>2026-04-17T09:04:11.942Z</time></trkpt><trkpt lat="44.8548083" lon="9.5460233"><ele>183.0</ele><time>2026-04-17T09:04:12.942Z</time></trkpt><trkpt lat="44.8546267" lon="9.5457833"><ele>183.0</ele><time>2026-04-17T09:04:13.943Z</time></trkpt><trkpt lat="44.854455" lon="9.5455233"><ele>183.0</ele><time>2026-04-17T09:04:14.942Z</time></trkpt><trkpt lat="44.8543" lon="9.5452333"><ele>186.0</ele><time>2026-04-17T09:04:15.942Z</time></trkpt><trkpt lat="44.8541583" lon="9.5449567"><ele>189.0</ele><time>2026-04-17T09:04:16.942Z</time></trkpt><trkpt lat="44.8540267" lon="9.544685"><ele>185.5</ele><time>2026-04-17T09:04:17.942Z</time></trkpt><trkpt lat="44.8539317" lon="9.5443967"><ele>182.0</ele><time>2026-04-17T09:04:18.942Z</time></trkpt><trkpt lat="44.8538583" lon="9.54409"><ele>182.0</ele><time>2026-04-17T09:04:19.942Z</time></trkpt><trkpt lat="44.8538033" lon="9.543775"><ele>182.0</ele><time>2026-04-17T09:04:20.943Z</time></trkpt><trkpt lat="44.8537667" lon="9.5434517"><ele>181.33333333333331</ele><time>2026-04-17T09:04:21.942Z</time></trkpt><trkpt lat="44.8537167" lon="9.5431417"><ele>180.66666666666666</ele><time>2026-04-17T09:04:22.942Z</time></trkpt><trkpt lat="44.8536417" lon="9.542855"><ele>180.0</ele><time>2026-04-17T09:04:23.942Z</time></trkpt><trkpt lat="44.8535333" lon="9.5425783"><ele>185.5</ele><time>2026-04-17T09:04:24.942Z</time></trkpt><trkpt lat="44.853375" lon="9.5423433"><ele>191.0</ele><time>2026-04-17T09:04:25.942Z</time></trkpt><trkpt lat="44.853165" lon="9.5421583"><ele>185.0</ele><time>2026-04-17T09:04:26.942Z</time></trkpt><trkpt lat="44.8529233" lon="9.5419817"><ele>179.0</ele><time>2026-04-17T09:04:27.942Z</time></trkpt><trkpt lat="44.8526617" lon="9.541805"><ele>186.0</ele><time>2026-04-17T09:04:28.942Z</time></trkpt><trkpt lat="44.852395" lon="9.541625"><ele>193.0</ele><time>2026-04-17T09:04:29.942Z</time></trkpt><trkpt lat="44.85212" lon="9.541445"><ele>193.0</ele><time>2026-04-17T09:04:30.942Z</time></trkpt><trkpt lat="44.8518533" lon="9.5412717"><ele>193.0</ele><time>2026-04-17T09:04:31.942Z</time></trkpt><trkpt lat="44.851605" lon="9.5411167"><ele>191.5</ele><time>2026-04-17T09:04:32.943Z</time></trkpt><trkpt lat="44.85137" lon="9.5409733"><ele>190.0</ele><time>2026-04-17T09:04:33.942Z</time></trkpt><trkpt lat="44.85114" lon="9.5408667"><ele>191.0</ele><time>2026-04-17T09:04:34.942Z</time></trkpt><trkpt lat="44.8509" lon="9.5408133"><ele>192.0</ele><time>2026-04-17T09:04:35.942Z</time></trkpt><trkpt lat="44.850655" lon="9.54079"><ele>192.0</ele><time>2026-04-17T09:04:36.942Z</time></trkpt><trkpt lat="44.8504083" lon="9.54078"><ele>192.0</ele><time>2026-04-17T09:04:37.942Z</time></trkpt><trkpt lat="44.85016" lon="9.5407667"><ele>191.0</ele><time>2026-04-17T09:04:38.942Z</time></trkpt><trkpt lat="44.84992" lon="9.540745"><ele>190.0</ele><time>2026-04-17T09:04:39.942Z</time></trkpt><trkpt lat="44.849685" lon="9.5407183"><ele>190.0</ele><time>2026-04-17T09:04:40.942Z</time></trkpt><trkpt lat="44.8494583" lon="9.5406983"><ele>190.0</ele><time>2026-04-17T09:04:41.942Z</time></trkpt><trkpt lat="44.8492333" lon="9.5406733"><ele>191.5</ele><time>2026-04-17T09:04:42.942Z</time></trkpt><trkpt lat="44.8490067" lon="9.5406483"><ele>193.0</ele><time>2026-04-17T09:04:43.942Z</time></trkpt><trkpt lat="44.8487833" lon="9.5406233"><ele>193.0</ele><time>2026-04-17T09:04:44.942Z</time></trkpt><trkpt lat="44.84857" lon="9.5406233"><ele>193.0</ele><time>2026-04-17T09:04:45.942Z</time></trkpt><trkpt lat="44.8483683" lon="9.540565"><ele>193.0</ele><time>2026-04-17T09:04:46.942Z</time></trkpt><trkpt lat="44.8481733" lon="9.540445"><ele>189.0</ele><time>2026-04-17T09:04:47.942Z</time></trkpt><trkpt lat="44.8479967" lon="9.540245"><ele>185.0</ele><time>2026-04-17T09:04:48.942Z</time></trkpt><trkpt lat="44.8478133" lon="9.539975"><ele>187.0</ele><time>2026-04-17T09:04:49.942Z</time></trkpt><trkpt lat="44.8476217" lon="9.5396917"><ele>189.0</ele><time>2026-04-17T09:04:50.943Z</time></trkpt><trkpt lat="44.8474483" lon="9.5394183"><ele>189.0</ele><time>2026-04-17T09:04:51.942Z</time></trkpt><trkpt lat="44.8472867" lon="9.5391583"><ele>189.0</ele><time>2026-04-17T09:04:52.942Z</time></trkpt><trkpt lat="44.8471267" lon="9.5389133"><ele>188.66666666666666</ele><time>2026-04-17T09:04:53.942Z</time></trkpt><trkpt lat="44.8469583" lon="9.5386983"><ele>188.33333333333331</ele><time>2026-04-17T09:04:54.942Z</time></trkpt><trkpt lat="44.8467733" lon="9.5385333"><ele>188.0</ele><time>2026-04-17T09:04:55.942Z</time></trkpt><trkpt lat="44.8465583" lon="9.5383917"><ele>188.0</ele><time>2026-04-17T09:04:56.942Z</time></trkpt><trkpt lat="44.8463383" lon="9.53825"><ele>188.0</ele><time>2026-04-17T09:04:57.942Z</time></trkpt><trkpt lat="44.8461383" lon="9.53812"><ele>188.0</ele><time>2026-04-17T09:04:58.942Z</time></trkpt><trkpt lat="44.84597" lon="9.5379917"><ele>188.0</ele><time>2026-04-17T09:04:59.942Z</time></trkpt><trkpt lat="44.84584" lon="9.537845"><ele>188.0</ele><time>2026-04-17T09:05:00.942Z</time></trkpt><trkpt lat="44.8457383" lon="9.5376617"><ele>189.33333333333331</ele><time>2026-04-17T09:05:01.942Z</time></trkpt><trkpt lat="44.845635" lon="9.5374467"><ele>190.66666666666666</ele><time>2026-04-17T09:05:02.942Z</time></trkpt><trkpt lat="44.8455283" lon="9.5372267"><ele>192.0</ele><time>2026-04-17T09:05:03.942Z</time></trkpt><trkpt lat="44.8454133" lon="9.53703"><ele>193.66666666666669</ele><time>2026-04-17T09:05:04.942Z</time></trkpt><trkpt lat="44.8452533" lon="9.53687"><ele>195.33333333333334</ele><time>2026-04-17T09:05:05.943Z</time></trkpt><trkpt lat="44.8450683" lon="9.5367667"><ele>197.0</ele><time>2026-04-17T09:05:06.942Z</time></trkpt><trkpt lat="44.844895" lon="9.536675"><ele>197.0</ele><time>2026-04-17T09:05:07.942Z</time></trkpt><trkpt lat="44.84474" lon="9.53655"><ele>197.0</ele><time>2026-04-17T09:05:08.942Z</time></trkpt><trkpt lat="44.8446183" lon="9.5363817"><ele>197.0</ele><time>2026-04-17T09:05:09.942Z</time></trkpt><trkpt lat="44.8445117" lon="9.5361983"><ele>197.33333333333334</ele><time>2026-04-17T09:05:10.942Z</time></trkpt><trkpt lat="44.844395" lon="9.5360383"><ele>197.66666666666669</ele><time>2026-04-17T09:05:11.942Z</time></trkpt><trkpt lat="44.84425" lon="9.53595"><ele>198.0</ele><time>2026-04-17T09:05:12.942Z</time></trkpt><trkpt lat="44.844095" lon="9.53594"><ele>198.0</ele><time>2026-04-17T09:05:13.942Z</time></trkpt><trkpt lat="44.8439317" lon="9.5359567"><ele>198.0</ele><time>2026-04-17T09:05:14.942Z</time></trkpt><trkpt lat="44.8437733" lon="9.535955"><ele>198.0</ele><time>2026-04-17T09:05:15.942Z</time></trkpt><trkpt lat="44.84362" lon="9.53592"><ele>198.0</ele><time>2026-04-17T09:05:16.942Z</time></trkpt><trkpt lat="44.8434733" lon="9.535825"><ele>198.0</ele><time>2026-04-17T09:05:17.942Z</time></trkpt><trkpt lat="44.84334" lon="9.5356767"><ele>198.0</ele><time>2026-04-17T09:05:18.942Z</time></trkpt><trkpt lat="44.84325" lon="9.53546"><ele>202.0</ele><time>2026-04-17T09:05:19.942Z</time></trkpt><trkpt lat="44.843185" lon="9.5351833"><ele>206.0</ele><time>2026-04-17T09:05:20.942Z</time></trkpt><trkpt lat="44.8432317" lon="9.5347167"><ele>203.5</ele><time>2026-04-17T09:05:21.943Z</time></trkpt><trkpt lat="44.8432" lon="9.534295"><ele>201.0</ele><time>2026-04-17T09:05:22.942Z</time></trkpt><trkpt lat="44.843175" lon="9.533855"><ele>199.0</ele><time>2026-04-17T09:05:23.942Z</time></trkpt><trkpt lat="44.8431383" lon="9.5334417"><ele>197.0</ele><time>2026-04-17T09:05:24.942Z</time></trkpt><trkpt lat="44.8430717" lon="9.53306"><ele>192.5</ele><time>2026-04-17T09:05:25.942Z</time></trkpt><trkpt lat="44.8429933" lon="9.53271"><ele>188.0</ele><time>2026-04-17T09:05:26.942Z</time></trkpt><trkpt lat="44.8429283" lon="9.5323883"><ele>188.0</ele><time>2026-04-17T09:05:27.942Z</time></trkpt><trkpt lat="44.8428583" lon="9.5321"><ele>188.0</ele><time>2026-04-17T09:05:28.942Z</time></trkpt><trkpt lat="44.8427583" lon="9.5318767"><ele>188.0</ele><time>2026-04-17T09:05:29.942Z</time></trkpt><trkpt lat="44.84261" lon="9.5317"><ele>194.66666666666666</ele><time>2026-04-17T09:05:30.942Z</time></trkpt><trkpt lat="44.8424183" lon="9.5315617"><ele>201.33333333333331</ele><time>2026-04-17T09:05:31.942Z</time></trkpt><trkpt lat="44.8422083" lon="9.53143"><ele>208.0</ele><time>2026-04-17T09:05:32.942Z</time></trkpt><trkpt lat="44.8420033" lon="9.531255"><ele>209.5</ele><time>2026-04-17T09:05:33.942Z</time></trkpt><trkpt lat="44.8418217" lon="9.5310317"><ele>211.0</ele><time>2026-04-17T09:05:34.942Z</time></trkpt><trkpt lat="44.841665" lon="9.5307583"><ele>211.0</ele><time>2026-04-17T09:05:35.942Z</time></trkpt><trkpt lat="44.8415417" lon="9.5304467"><ele>211.0</ele><time>2026-04-17T09:05:36.943Z</time></trkpt><trkpt lat="44.841415" lon="9.530135"><ele>206.5</ele><time>2026-04-17T09:05:37.942Z</time></trkpt><trkpt lat="44.8412683" lon="9.5298317"><ele>202.0</ele><time>2026-04-17T09:05:38.942Z</time></trkpt><trkpt lat="44.84109" lon="9.5295333"><ele>205.0</ele><time>2026-04-17T09:05:39.942Z</time></trkpt><trkpt lat="44.84091" lon="9.52925"><ele>208.0</ele><time>2026-04-17T09:05:40.942Z</time></trkpt><trkpt lat="44.8407567" lon="9.5289933"><ele>208.0</ele><time>2026-04-17T09:05:41.942Z</time></trkpt><trkpt lat="44.8406317" lon="9.5287833"><ele>208.0</ele><time>2026-04-17T09:05:42.942Z</time></trkpt><trkpt lat="44.840525" lon="9.5286067"><ele>208.0</ele><time>2026-04-17T09:05:43.943Z</time></trkpt><trkpt lat="44.8404333" lon="9.5284383"><ele>206.75</ele><time>2026-04-17T09:05:44.943Z</time></trkpt><trkpt lat="44.8403517" lon="9.52827"><ele>205.5</ele><time>2026-04-17T09:05:45.942Z</time></trkpt><trkpt lat="44.840275" lon="9.5280967"><ele>204.25</ele><time>2026-04-17T09:05:46.943Z</time></trkpt><trkpt lat="44.8401967" lon="9.5279183"><ele>203.0</ele><time>2026-04-17T09:05:47.942Z</time></trkpt><trkpt lat="44.8401067" lon="9.5276983"><ele>204.5</ele><time>2026-04-17T09:05:48.942Z</time></trkpt><trkpt lat="44.839995" lon="9.5273917"><ele>206.0</ele><time>2026-04-17T09:05:49.942Z</time></trkpt><trkpt lat="44.8398717" lon="9.5270367"><ele>206.0</ele><time>2026-04-17T09:05:50.942Z</time></trkpt><trkpt lat="44.83973" lon="9.52664"><ele>206.0</ele><time>2026-04-17T09:05:51.942Z</time></trkpt><trkpt lat="44.8395767" lon="9.5262333"><ele>202.0</ele><time>2026-04-17T09:05:52.942Z</time></trkpt><trkpt lat="44.8394183" lon="9.525855"><ele>198.0</ele><time>2026-04-17T09:05:53.942Z</time></trkpt><trkpt lat="44.8392667" lon="9.5255117"><ele>206.0</ele><time>2026-04-17T09:05:54.942Z</time></trkpt><trkpt lat="44.8391267" lon="9.5251867"><ele>214.0</ele><time>2026-04-17T09:05:55.942Z</time></trkpt><trkpt lat="44.8390217" lon="9.524845"><ele>211.0</ele><time>2026-04-17T09:05:56.943Z</time></trkpt><trkpt lat="44.8389433" lon="9.52449"><ele>208.0</ele><time>2026-04-17T09:05:57.942Z</time></trkpt><trkpt lat="44.8388667" lon="9.5241517"><ele>208.0</ele><time>2026-04-17T09:05:58.942Z</time></trkpt><trkpt lat="44.838765" lon="9.5238367"><ele>208.0</ele><time>2026-04-17T09:05:59.942Z</time></trkpt><trkpt lat="44.8386283" lon="9.5235383"><ele>202.0</ele><time>2026-04-17T09:06:00.942Z</time></trkpt><trkpt lat="44.83847" lon="9.5232517"><ele>196.0</ele><time>2026-04-17T09:06:01.942Z</time></trkpt><trkpt lat="44.8382667" lon="9.5230017"><ele>199.5</ele><time>2026-04-17T09:06:02.942Z</time></trkpt><trkpt lat="44.8380267" lon="9.52274"><ele>203.0</ele><time>2026-04-17T09:06:03.942Z</time></trkpt><trkpt lat="44.83777" lon="9.5224667"><ele>203.0</ele><time>2026-04-17T09:06:04.942Z</time></trkpt><trkpt lat="44.8375133" lon="9.5221917"><ele>203.0</ele><time>2026-04-17T09:06:05.942Z</time></trkpt><trkpt lat="44.8372683" lon="9.5219167"><ele>203.0</ele><time>2026-04-17T09:06:06.942Z</time></trkpt><trkpt lat="44.8370417" lon="9.52166"><ele>203.0</ele><time>2026-04-17T09:06:07.942Z</time></trkpt><trkpt lat="44.836825" lon="9.5213883"><ele>205.5</ele><time>2026-04-17T09:06:08.943Z</time></trkpt><trkpt lat="44.8366217" lon="9.5210967"><ele>208.0</ele><time>2026-04-17T09:06:09.942Z</time></trkpt><trkpt lat="44.8364317" lon="9.5208217"><ele>208.0</ele><time>2026-04-17T09:06:10.942Z</time></trkpt><trkpt lat="44.8362533" lon="9.5205667"><ele>208.0</ele><time>2026-04-17T09:06:11.942Z</time></trkpt><trkpt lat="44.8360683" lon="9.5203533"><ele>206.66666666666666</ele><time>2026-04-17T09:06:12.942Z</time></trkpt><trkpt lat="44.83587" lon="9.5202033"><ele>205.33333333333331</ele><time>2026-04-17T09:06:13.943Z</time></trkpt><trkpt lat="44.83567" lon="9.52008"><ele>204.0</ele><time>2026-04-17T09:06:14.942Z</time></trkpt><trkpt lat="44.835475" lon="9.519975"><ele>204.0</ele><time>2026-04-17T09:06:15.942Z</time></trkpt><trkpt lat="44.8352867" lon="9.5198917"><ele>204.0</ele><time>2026-04-17T09:06:16.942Z</time></trkpt><trkpt lat="44.8351017" lon="9.519865"><ele>204.0</ele><time>2026-04-17T09:06:17.942Z</time></trkpt><trkpt lat="44.834925" lon="9.5199"><ele>206.66666666666669</ele><time>2026-04-17T09:06:18.942Z</time></trkpt><trkpt lat="44.8347633" lon="9.52"><ele>209.33333333333334</ele><time>2026-04-17T09:06:19.942Z</time></trkpt><trkpt lat="44.8346333" lon="9.52014"><ele>212.0</ele><time>2026-04-17T09:06:20.942Z</time></trkpt><trkpt lat="44.8345" lon="9.5202583"><ele>212.0</ele><time>2026-04-17T09:06:21.942Z</time></trkpt><trkpt lat="44.83436" lon="9.5203183"><ele>212.0</ele><time>2026-04-17T09:06:22.942Z</time></trkpt><trkpt lat="44.8342133" lon="9.5202867"><ele>212.0</ele><time>2026-04-17T09:06:23.943Z</time></trkpt><trkpt lat="44.834075" lon="9.5201583"><ele>210.33333333333334</ele><time>2026-04-17T09:06:24.942Z</time></trkpt><trkpt lat="44.83393" lon="9.5199817"><ele>208.66666666666669</ele><time>2026-04-17T09:06:25.942Z</time></trkpt><trkpt lat="44.833755" lon="9.519825"><ele>207.0</ele><time>2026-04-17T09:06:26.942Z</time></trkpt><trkpt lat="44.833565" lon="9.5196967"><ele>208.66666666666669</ele><time>2026-04-17T09:06:27.942Z</time></trkpt><trkpt lat="44.8333767" lon="9.5196067"><ele>210.33333333333334</ele><time>2026-04-17T09:06:28.942Z</time></trkpt><trkpt lat="44.8331917" lon="9.5195717"><ele>212.0</ele><time>2026-04-17T09:06:29.942Z</time></trkpt><trkpt lat="44.833" lon="9.5196017"><ele>212.0</ele><time>2026-04-17T09:06:30.942Z</time></trkpt><trkpt lat="44.83278" lon="9.5196867"><ele>212.0</ele><time>2026-04-17T09:06:31.942Z</time></trkpt><trkpt lat="44.8325383" lon="9.5198"><ele>210.5</ele><time>2026-04-17T09:06:32.942Z</time></trkpt><trkpt lat="44.832295" lon="9.5199183"><ele>209.0</ele><time>2026-04-17T09:06:33.942Z</time></trkpt><trkpt lat="44.832065" lon="9.5200233"><ele>209.0</ele><time>2026-04-17T09:06:34.942Z</time></trkpt><trkpt lat="44.8318533" lon="9.5200767"><ele>209.0</ele><time>2026-04-17T09:06:35.942Z</time></trkpt><trkpt lat="44.83165" lon="9.5200617"><ele>209.0</ele><time>2026-04-17T09:06:36.943Z</time></trkpt><trkpt lat="44.8314517" lon="9.5199667"><ele>207.0</ele><time>2026-04-17T09:06:37.942Z</time></trkpt><trkpt lat="44.83126" lon="9.51979"><ele>205.0</ele><time>2026-04-17T09:06:38.942Z</time></trkpt><trkpt lat="44.8310817" lon="9.51954"><ele>203.5</ele><time>2026-04-17T09:06:39.942Z</time></trkpt><trkpt lat="44.8309067" lon="9.5192717"><ele>202.0</ele><time>2026-04-17T09:06:40.942Z</time></trkpt><trkpt lat="44.8307467" lon="9.519025"><ele>202.0</ele><time>2026-04-17T09:06:41.942Z</time></trkpt><trkpt lat="44.8306083" lon="9.5188017"><ele>202.0</ele><time>2026-04-17T09:06:42.942Z</time></trkpt><trkpt lat="44.8305133" lon="9.5185883"><ele>202.0</ele><time>2026-04-17T09:06:43.942Z</time></trkpt><trkpt lat="44.8304767" lon="9.518365"><ele>201.33333333333331</ele><time>2026-04-17T09:06:44.942Z</time></trkpt><trkpt lat="44.8305033" lon="9.518125"><ele>200.66666666666669</ele><time>2026-04-17T09:06:45.943Z</time></trkpt><trkpt lat="44.8305817" lon="9.5178883"><ele>200.0</ele><time>2026-04-17T09:06:46.942Z</time></trkpt><trkpt lat="44.8306667" lon="9.5176633"><ele>201.66666666666669</ele><time>2026-04-17T09:06:47.943Z</time></trkpt><trkpt lat="44.83075" lon="9.5174467"><ele>203.33333333333331</ele><time>2026-04-17T09:06:48.942Z</time></trkpt><trkpt lat="44.8308117" lon="9.51722"><ele>205.0</ele><time>2026-04-17T09:06:49.942Z</time></trkpt><trkpt lat="44.8308317" lon="9.5169783"><ele>205.0</ele><time>2026-04-17T09:06:50.942Z</time></trkpt><trkpt lat="44.8308283" lon="9.516735"><ele>205.0</ele><time>2026-04-17T09:06:51.942Z</time></trkpt><trkpt lat="44.830795" lon="9.5165133"><ele>205.0</ele><time>2026-04-17T09:06:52.942Z</time></trkpt><trkpt lat="44.8307283" lon="9.5163183"><ele>202.33333333333331</ele><time>2026-04-17T09:06:53.942Z</time></trkpt><trkpt lat="44.8306217" lon="9.51614"><ele>199.66666666666669</ele><time>2026-04-17T09:06:54.942Z</time></trkpt><trkpt lat="44.8305" lon="9.5159567"><ele>197.0</ele><time>2026-04-17T09:06:55.943Z</time></trkpt><trkpt lat="44.83037" lon="9.51577"><ele>197.0</ele><time>2026-04-17T09:06:56.942Z</time></trkpt><trkpt lat="44.8302233" lon="9.5155783"><ele>197.0</ele><time>2026-04-17T09:06:57.942Z</time></trkpt><trkpt lat="44.8300467" lon="9.5153833"><ele>197.0</ele><time>2026-04-17T09:06:58.942Z</time></trkpt><trkpt lat="44.8298367" lon="9.51518"><ele>195.5</ele><time>2026-04-17T09:06:59.942Z</time></trkpt><trkpt lat="44.8295933" lon="9.51496"><ele>194.0</ele><time>2026-04-17T09:07:00.942Z</time></trkpt><trkpt lat="44.8293383" lon="9.5147283"><ele>194.5</ele><time>2026-04-17T09:07:01.942Z</time></trkpt><trkpt lat="44.8290717" lon="9.5144767"><ele>195.0</ele><time>2026-04-17T09:07:02.942Z</time></trkpt><trkpt lat="44.8288083" lon="9.5142"><ele>195.0</ele><time>2026-04-17T09:07:03.942Z</time></trkpt><trkpt lat="44.8285683" lon="9.5138917"><ele>195.0</ele><time>2026-04-17T09:07:04.943Z</time></trkpt><trkpt lat="44.82836" lon="9.5135567"><ele>193.0</ele><time>2026-04-17T09:07:05.942Z</time></trkpt><trkpt lat="44.82819" lon="9.5132033"><ele>191.0</ele><time>2026-04-17T09:07:06.942Z</time></trkpt><trkpt lat="44.8280517" lon="9.512845"><ele>191.0</ele><time>2026-04-17T09:07:07.942Z</time></trkpt><trkpt lat="44.82792" lon="9.5124833"><ele>191.0</ele><time>2026-04-17T09:07:08.942Z</time></trkpt><trkpt lat="44.8277783" lon="9.5121367"><ele>196.0</ele><time>2026-04-17T09:07:09.942Z</time></trkpt><trkpt lat="44.8276083" lon="9.5118017"><ele>201.0</ele><time>2026-04-17T09:07:10.942Z</time></trkpt><trkpt lat="44.8274133" lon="9.5114533"><ele>195.0</ele><time>2026-04-17T09:07:11.942Z</time></trkpt><trkpt lat="44.827215" lon="9.5110867"><ele>189.0</ele><time>2026-04-17T09:07:12.942Z</time></trkpt><trkpt lat="44.827005" lon="9.5107167"><ele>188.5</ele><time>2026-04-17T09:07:13.942Z</time></trkpt><trkpt lat="44.826785" lon="9.5103417"><ele>188.0</ele><time>2026-04-17T09:07:14.943Z</time></trkpt><trkpt lat="44.82657" lon="9.50996"><ele>187.5</ele><time>2026-04-17T09:07:15.942Z</time></trkpt><trkpt lat="44.8263633" lon="9.5095667"><ele>187.0</ele><time>2026-04-17T09:07:16.942Z</time></trkpt><trkpt lat="44.8261567" lon="9.5091667"><ele>190.0</ele><time>2026-04-17T09:07:17.942Z</time></trkpt><trkpt lat="44.825955" lon="9.5087617"><ele>193.0</ele><time>2026-04-17T09:07:18.942Z</time></trkpt><trkpt lat="44.8257583" lon="9.5083617"><ele>193.0</ele><time>2026-04-17T09:07:19.942Z</time></trkpt><trkpt lat="44.8255633" lon="9.5079583"><ele>193.0</ele><time>2026-04-17T09:07:20.942Z</time></trkpt><trkpt lat="44.825375" lon="9.5075533"><ele>191.0</ele><time>2026-04-17T09:07:21.942Z</time></trkpt><trkpt lat="44.8251883" lon="9.507145"><ele>189.0</ele><time>2026-04-17T09:07:22.943Z</time></trkpt><trkpt lat="44.8250033" lon="9.50674"><ele>189.0</ele><time>2026-04-17T09:07:23.942Z</time></trkpt><trkpt lat="44.8248183" lon="9.5063383"><ele>189.0</ele><time>2026-04-17T09:07:24.942Z</time></trkpt><trkpt lat="44.82463" lon="9.505935"><ele>189.0</ele><time>2026-04-17T09:07:25.942Z</time></trkpt><trkpt lat="44.8244433" lon="9.5055283"><ele>189.0</ele><time>2026-04-17T09:07:26.942Z</time></trkpt><trkpt lat="44.8242567" lon="9.5051283"><ele>189.0</ele><time>2026-04-17T09:07:27.942Z</time></trkpt><trkpt lat="44.8240617" lon="9.5047333"><ele>189.0</ele><time>2026-04-17T09:07:28.942Z</time></trkpt><trkpt lat="44.8238483" lon="9.5043517"><ele>189.0</ele><time>2026-04-17T09:07:29.942Z</time></trkpt><trkpt lat="44.8236233" lon="9.5039933"><ele>189.0</ele><time>2026-04-17T09:07:30.942Z</time></trkpt><trkpt lat="44.8233917" lon="9.5036533"><ele>189.0</ele><time>2026-04-17T09:07:31.942Z</time></trkpt><trkpt lat="44.8231467" lon="9.5033283"><ele>189.0</ele><time>2026-04-17T09:07:32.942Z</time></trkpt><trkpt lat="44.8228883" lon="9.5030133"><ele>188.0</ele><time>2026-04-17T09:07:33.942Z</time></trkpt><trkpt lat="44.8226233" lon="9.5027133"><ele>187.0</ele><time>2026-04-17T09:07:34.943Z</time></trkpt><trkpt lat="44.82235" lon="9.5024133"><ele>187.0</ele><time>2026-04-17T09:07:35.942Z</time></trkpt><trkpt lat="44.82208" lon="9.5021083"><ele>187.0</ele><time>2026-04-17T09:07:36.942Z</time></trkpt><trkpt lat="44.8218167" lon="9.50179"><ele>188.0</ele><time>2026-04-17T09:07:37.942Z</time></trkpt><trkpt lat="44.8215633" lon="9.5014633"><ele>189.0</ele><time>2026-04-17T09:07:38.942Z</time></trkpt><trkpt lat="44.8213383" lon="9.5011067"><ele>189.0</ele><time>2026-04-17T09:07:39.942Z</time></trkpt><trkpt lat="44.821145" lon="9.5007133"><ele>189.0</ele><time>2026-04-17T09:07:40.942Z</time></trkpt><trkpt lat="44.82098" lon="9.500295"><ele>191.0</ele><time>2026-04-17T09:07:41.942Z</time></trkpt><trkpt lat="44.8208467" lon="9.4998567"><ele>193.0</ele><time>2026-04-17T09:07:42.942Z</time></trkpt><trkpt lat="44.8207383" lon="9.4994117"><ele>193.0</ele><time>2026-04-17T09:07:43.942Z</time></trkpt><trkpt lat="44.8206317" lon="9.4989567"><ele>193.0</ele><time>2026-04-17T09:07:44.942Z</time></trkpt><trkpt lat="44.820515" lon="9.4984983"><ele>192.5</ele><time>2026-04-17T09:07:45.942Z</time></trkpt><trkpt lat="44.8203817" lon="9.4980417"><ele>192.0</ele><time>2026-04-17T09:07:46.942Z</time></trkpt><trkpt lat="44.8202417" lon="9.4975867"><ele>195.0</ele><time>2026-04-17T09:07:47.943Z</time></trkpt><trkpt lat="44.8200967" lon="9.49713"><ele>198.0</ele><time>2026-04-17T09:07:48.942Z</time></trkpt><trkpt lat="44.8199467" lon="9.4966683"><ele>195.5</ele><time>2026-04-17T09:07:49.942Z</time></trkpt><trkpt lat="44.8197983" lon="9.4962067"><ele>193.0</ele><time>2026-04-17T09:07:50.942Z</time></trkpt><trkpt lat="44.81966" lon="9.495745"><ele>191.5</ele><time>2026-04-17T09:07:51.942Z</time></trkpt><trkpt lat="44.8195267" lon="9.4952883"><ele>190.0</ele><time>2026-04-17T09:07:52.942Z</time></trkpt><trkpt lat="44.8193967" lon="9.4948367"><ele>194.0</ele><time>2026-04-17T09:07:53.942Z</time></trkpt><trkpt lat="44.8192717" lon="9.4943833"><ele>198.0</ele><time>2026-04-17T09:07:54.942Z</time></trkpt><trkpt lat="44.819155" lon="9.49392"><ele>196.0</ele><time>2026-04-17T09:07:55.942Z</time></trkpt><trkpt lat="44.819065" lon="9.49345"><ele>194.0</ele><time>2026-04-17T09:07:56.942Z</time></trkpt><trkpt lat="44.8189933" lon="9.492975"><ele>194.0</ele><time>2026-04-17T09:07:57.942Z</time></trkpt><trkpt lat="44.81894" lon="9.492495"><ele>194.0</ele><time>2026-04-17T09:07:58.942Z</time></trkpt><trkpt lat="44.818915" lon="9.492015"><ele>194.0</ele><time>2026-04-17T09:07:59.942Z</time></trkpt><trkpt lat="44.8189017" lon="9.491535"><ele>194.0</ele><time>2026-04-17T09:08:00.942Z</time></trkpt><trkpt lat="44.8188933" lon="9.4910533"><ele>194.5</ele><time>2026-04-17T09:08:01.942Z</time></trkpt><trkpt lat="44.8188767" lon="9.49057"><ele>195.0</ele><time>2026-04-17T09:08:02.942Z</time></trkpt><trkpt lat="44.8188617" lon="9.49009"><ele>195.0</ele><time>2026-04-17T09:08:03.942Z</time></trkpt><trkpt lat="44.8188483" lon="9.4896133"><ele>195.0</ele><time>2026-04-17T09:08:04.942Z</time></trkpt><trkpt lat="44.8188367" lon="9.489135"><ele>194.5</ele><time>2026-04-17T09:08:05.942Z</time></trkpt><trkpt lat="44.8188267" lon="9.4886583"><ele>194.0</ele><time>2026-04-17T09:08:06.942Z</time></trkpt><trkpt lat="44.8188133" lon="9.4881833"><ele>195.0</ele><time>2026-04-17T09:08:07.942Z</time></trkpt><trkpt lat="44.8188" lon="9.4877133"><ele>196.0</ele><time>2026-04-17T09:08:08.942Z</time></trkpt><trkpt lat="44.818785" lon="9.4872417"><ele>197.0</ele><time>2026-04-17T09:08:09.942Z</time></trkpt><trkpt lat="44.8187617" lon="9.4867733"><ele>198.0</ele><time>2026-04-17T09:08:10.942Z</time></trkpt><trkpt lat="44.8187117" lon="9.4863183"><ele>198.5</ele><time>2026-04-17T09:08:11.942Z</time></trkpt><trkpt lat="44.8186267" lon="9.4858817"><ele>199.0</ele><time>2026-04-17T09:08:12.942Z</time></trkpt><trkpt lat="44.8185033" lon="9.4854667"><ele>208.0</ele><time>2026-04-17T09:08:13.942Z</time></trkpt><trkpt lat="44.81835" lon="9.4850617"><ele>217.0</ele><time>2026-04-17T09:08:14.943Z</time></trkpt><trkpt lat="44.8181883" lon="9.4846633"><ele>219.5</ele><time>2026-04-17T09:08:15.942Z</time></trkpt><trkpt lat="44.8180283" lon="9.4842567"><ele>222.0</ele><time>2026-04-17T09:08:16.942Z</time></trkpt><trkpt lat="44.8178683" lon="9.4838517"><ele>220.0</ele><time>2026-04-17T09:08:17.942Z</time></trkpt><trkpt lat="44.8177083" lon="9.4834467"><ele>218.0</ele><time>2026-04-17T09:08:18.942Z</time></trkpt><trkpt lat="44.8175483" lon="9.4830417"><ele>216.5</ele><time>2026-04-17T09:08:19.942Z</time></trkpt><trkpt lat="44.8173883" lon="9.48264"><ele>215.0</ele><time>2026-04-17T09:08:20.942Z</time></trkpt><trkpt lat="44.8172317" lon="9.4822383"><ele>209.5</ele><time>2026-04-17T09:08:21.942Z</time></trkpt><trkpt lat="44.8170883" lon="9.4817267"><ele>204.0</ele><time>2026-04-17T09:08:22.942Z</time></trkpt><trkpt lat="44.8169867" lon="9.481245"><ele>205.5</ele><time>2026-04-17T09:08:23.942Z</time></trkpt><trkpt lat="44.8168633" lon="9.4808133"><ele>207.0</ele><time>2026-04-17T09:08:24.942Z</time></trkpt><trkpt lat="44.8167617" lon="9.4803733"><ele>207.0</ele><time>2026-04-17T09:08:25.942Z</time></trkpt><trkpt lat="44.8166817" lon="9.4799117"><ele>207.0</ele><time>2026-04-17T09:08:26.942Z</time></trkpt><trkpt lat="44.8166217" lon="9.4794517"><ele>208.0</ele><time>2026-04-17T09:08:27.942Z</time></trkpt><trkpt lat="44.8166017" lon="9.4789933"><ele>209.0</ele><time>2026-04-17T09:08:28.942Z</time></trkpt><trkpt lat="44.8165983" lon="9.478575"><ele>209.5</ele><time>2026-04-17T09:08:29.943Z</time></trkpt><trkpt lat="44.8165983" lon="9.4781533"><ele>210.0</ele><time>2026-04-17T09:08:30.942Z</time></trkpt><trkpt lat="44.8165967" lon="9.47775"><ele>210.5</ele><time>2026-04-17T09:08:31.942Z</time></trkpt><trkpt lat="44.8165983" lon="9.47736"><ele>211.0</ele><time>2026-04-17T09:08:32.942Z</time></trkpt><trkpt lat="44.8166" lon="9.4769883"><ele>213.5</ele><time>2026-04-17T09:08:33.942Z</time></trkpt><trkpt lat="44.8166017" lon="9.4766317"><ele>216.0</ele><time>2026-04-17T09:08:34.942Z</time></trkpt><trkpt lat="44.8166033" lon="9.476275"><ele>218.5</ele><time>2026-04-17T09:08:35.942Z</time></trkpt><trkpt lat="44.8166067" lon="9.4759167"><ele>221.0</ele><time>2026-04-17T09:08:36.942Z</time></trkpt><trkpt lat="44.8166067" lon="9.4755583"><ele>223.0</ele><time>2026-04-17T09:08:37.942Z</time></trkpt><trkpt lat="44.8166117" lon="9.4751983"><ele>225.0</ele><time>2026-04-17T09:08:38.942Z</time></trkpt><trkpt lat="44.81661" lon="9.4748483"><ele>226.5</ele><time>2026-04-17T09:08:39.942Z</time></trkpt><trkpt lat="44.8166133" lon="9.4745117"><ele>228.0</ele><time>2026-04-17T09:08:40.942Z</time></trkpt><trkpt lat="44.8166217" lon="9.4741933"><ele>228.0</ele><time>2026-04-17T09:08:41.942Z</time></trkpt><trkpt lat="44.8166317" lon="9.4738983"><ele>228.0</ele><time>2026-04-17T09:08:42.942Z</time></trkpt><trkpt lat="44.8166467" lon="9.4736217"><ele>228.0</ele><time>2026-04-17T09:08:43.942Z</time></trkpt><trkpt lat="44.8166683" lon="9.473365"><ele>228.0</ele><time>2026-04-17T09:08:44.942Z</time></trkpt><trkpt lat="44.8167067" lon="9.4731267"><ele>228.0</ele><time>2026-04-17T09:08:45.942Z</time></trkpt><trkpt lat="44.81677" lon="9.472895"><ele>228.0</ele><time>2026-04-17T09:08:46.942Z</time></trkpt><trkpt lat="44.816855" lon="9.4726683"><ele>229.0</ele><time>2026-04-17T09:08:47.942Z</time></trkpt><trkpt lat="44.8169633" lon="9.4724467"><ele>230.0</ele><time>2026-04-17T09:08:48.942Z</time></trkpt><trkpt lat="44.8170933" lon="9.4722383"><ele>231.0</ele><time>2026-04-17T09:08:49.942Z</time></trkpt><trkpt lat="44.8172367" lon="9.472045"><ele>231.0</ele><time>2026-04-17T09:08:50.943Z</time></trkpt><trkpt lat="44.8173717" lon="9.4718417"><ele>231.0</ele><time>2026-04-17T09:08:51.943Z</time></trkpt><trkpt lat="44.817485" lon="9.471605"><ele>231.0</ele><time>2026-04-17T09:08:52.943Z</time></trkpt><trkpt lat="44.8175583" lon="9.4713283"><ele>230.66666666666669</ele><time>2026-04-17T09:08:53.943Z</time></trkpt><trkpt lat="44.8175917" lon="9.471025"><ele>230.33333333333334</ele><time>2026-04-17T09:08:54.943Z</time></trkpt><trkpt lat="44.8175783" lon="9.470705"><ele>230.0</ele><time>2026-04-17T09:08:55.943Z</time></trkpt><trkpt lat="44.8175283" lon="9.4703867"><ele>230.0</ele><time>2026-04-17T09:08:56.943Z</time></trkpt><trkpt lat="44.817465" lon="9.4700617"><ele>230.0</ele><time>2026-04-17T09:08:57.943Z</time></trkpt><trkpt lat="44.817385" lon="9.4697117"><ele>225.0</ele><time>2026-04-17T09:08:58.943Z</time></trkpt><trkpt lat="44.8173017" lon="9.4693133"><ele>220.0</ele><time>2026-04-17T09:08:59.943Z</time></trkpt><trkpt lat="44.81722" lon="9.4688817"><ele>219.0</ele><time>2026-04-17T09:09:00.943Z</time></trkpt><trkpt lat="44.8171417" lon="9.4684417"><ele>218.0</ele><time>2026-04-17T09:09:01.943Z</time></trkpt><trkpt lat="44.8170583" lon="9.4680033"><ele>217.5</ele><time>2026-04-17T09:09:02.943Z</time></trkpt><trkpt lat="44.8169567" lon="9.4675717"><ele>217.0</ele><time>2026-04-17T09:09:03.943Z</time></trkpt><trkpt lat="44.8168267" lon="9.4671667"><ele>222.5</ele><time>2026-04-17T09:09:04.943Z</time></trkpt><trkpt lat="44.8166783" lon="9.4667817"><ele>228.0</ele><time>2026-04-17T09:09:05.943Z</time></trkpt><trkpt lat="44.8165317" lon="9.4664133"><ele>223.5</ele><time>2026-04-17T09:09:06.943Z</time></trkpt><trkpt lat="44.8163883" lon="9.4660683"><ele>219.0</ele><time>2026-04-17T09:09:07.943Z</time></trkpt><trkpt lat="44.8162617" lon="9.46572"><ele>216.0</ele><time>2026-04-17T09:09:08.943Z</time></trkpt><trkpt lat="44.8161567" lon="9.4653633"><ele>213.0</ele><time>2026-04-17T09:09:09.943Z</time></trkpt><trkpt lat="44.8160817" lon="9.464985"><ele>212.0</ele><time>2026-04-17T09:09:10.943Z</time></trkpt><trkpt lat="44.8160267" lon="9.4646067"><ele>211.0</ele><time>2026-04-17T09:09:11.943Z</time></trkpt><trkpt lat="44.8159867" lon="9.4642367"><ele>220.5</ele><time>2026-04-17T09:09:12.943Z</time></trkpt><trkpt lat="44.81595" lon="9.463885"><ele>230.0</ele><time>2026-04-17T09:09:13.943Z</time></trkpt><trkpt lat="44.8159133" lon="9.463555"><ele>229.66666666666669</ele><time>2026-04-17T09:09:14.943Z</time></trkpt><trkpt lat="44.8158783" lon="9.4632417"><ele>229.33333333333331</ele><time>2026-04-17T09:09:15.943Z</time></trkpt><trkpt lat="44.8158383" lon="9.4629417"><ele>229.0</ele><time>2026-04-17T09:09:16.943Z</time></trkpt><trkpt lat="44.8157933" lon="9.4626433"><ele>229.0</ele><time>2026-04-17T09:09:17.943Z</time></trkpt><trkpt lat="44.8157433" lon="9.46235"><ele>229.0</ele><time>2026-04-17T09:09:18.943Z</time></trkpt><trkpt lat="44.815695" lon="9.4620583"><ele>229.0</ele><time>2026-04-17T09:09:19.943Z</time></trkpt><trkpt lat="44.815645" lon="9.4617767"><ele>228.0</ele><time>2026-04-17T09:09:20.943Z</time></trkpt><trkpt lat="44.8155983" lon="9.461505"><ele>227.0</ele><time>2026-04-17T09:09:21.943Z</time></trkpt><trkpt lat="44.8155633" lon="9.4612467"><ele>226.0</ele><time>2026-04-17T09:09:22.943Z</time></trkpt><trkpt lat="44.8155383" lon="9.4610067"><ele>225.33333333333331</ele><time>2026-04-17T09:09:23.943Z</time></trkpt><trkpt lat="44.81552" lon="9.46078"><ele>224.66666666666669</ele><time>2026-04-17T09:09:24.944Z</time></trkpt><trkpt lat="44.8155033" lon="9.46057"><ele>224.0</ele><time>2026-04-17T09:09:25.943Z</time></trkpt><trkpt lat="44.81549" lon="9.4603717"><ele>223.5</ele><time>2026-04-17T09:09:26.943Z</time></trkpt><trkpt lat="44.815475" lon="9.460185"><ele>223.0</ele><time>2026-04-17T09:09:27.943Z</time></trkpt><trkpt lat="44.8154567" lon="9.460015"><ele>222.5</ele><time>2026-04-17T09:09:28.943Z</time></trkpt><trkpt lat="44.81544" lon="9.45985"><ele>222.0</ele><time>2026-04-17T09:09:29.943Z</time></trkpt><trkpt lat="44.8154267" lon="9.45969"><ele>222.2</ele><time>2026-04-17T09:09:30.943Z</time></trkpt><trkpt lat="44.8154117" lon="9.4595383"><ele>222.39999999999998</ele><time>2026-04-17T09:09:31.943Z</time></trkpt><trkpt lat="44.8153967" lon="9.4593867"><ele>222.60000000000002</ele><time>2026-04-17T09:09:32.944Z</time></trkpt><trkpt lat="44.81538" lon="9.4592367"><ele>222.8</ele><time>2026-04-17T09:09:33.943Z</time></trkpt><trkpt lat="44.81536" lon="9.4590933"><ele>223.0</ele><time>2026-04-17T09:09:34.943Z</time></trkpt><trkpt lat="44.8153317" lon="9.4589567"><ele>222.99999999999997</ele><time>2026-04-17T09:09:35.943Z</time></trkpt><trkpt lat="44.815305" lon="9.45882"><ele>223.0</ele><time>2026-04-17T09:09:36.943Z</time></trkpt><trkpt lat="44.8152817" lon="9.4586933"><ele>223.0</ele><time>2026-04-17T09:09:37.943Z</time></trkpt><trkpt lat="44.8152567" lon="9.4585817"><ele>223.0</ele><time>2026-04-17T09:09:38.943Z</time></trkpt><trkpt lat="44.8152383" lon="9.4584917"><ele>222.99999999999997</ele><time>2026-04-17T09:09:39.943Z</time></trkpt><trkpt lat="44.8152017" lon="9.458375"><ele>223.0</ele><time>2026-04-17T09:09:41.943Z</time></trkpt><trkpt lat="44.8151683" lon="9.4582967"><ele>223.60000000000002</ele><time>2026-04-17T09:09:43.943Z</time></trkpt><trkpt lat="44.81512" lon="9.4582133"><ele>224.20000000000002</ele><time>2026-04-17T09:09:46.943Z</time></trkpt><trkpt lat="44.8150917" lon="9.4580933"><ele>224.8</ele><time>2026-04-17T09:09:49.943Z</time></trkpt><trkpt lat="44.8150433" lon="9.4580217"><ele>225.4</ele><time>2026-04-17T09:09:55.943Z</time></trkpt><trkpt lat="44.815005" lon="9.4579383"><ele>226.0</ele><time>2026-04-17T09:09:56.943Z</time></trkpt><trkpt lat="44.8149217" lon="9.4577667"><ele>226.0</ele><time>2026-04-17T09:09:57.943Z</time></trkpt><trkpt lat="44.8148317" lon="9.4575717"><ele>226.0</ele><time>2026-04-17T09:09:58.943Z</time></trkpt><trkpt lat="44.81473" lon="9.4573467"><ele>226.0</ele><time>2026-04-17T09:09:59.943Z</time></trkpt><trkpt lat="44.81462" lon="9.457105"><ele>226.0</ele><time>2026-04-17T09:10:00.943Z</time></trkpt><trkpt lat="44.81451" lon="9.45685"><ele>226.0</ele><time>2026-04-17T09:10:01.943Z</time></trkpt><trkpt lat="44.8143967" lon="9.4565933"><ele>226.0</ele><time>2026-04-17T09:10:02.943Z</time></trkpt><trkpt lat="44.814275" lon="9.45633"><ele>223.0</ele><time>2026-04-17T09:10:03.943Z</time></trkpt><trkpt lat="44.8141533" lon="9.4560567"><ele>220.0</ele><time>2026-04-17T09:10:04.943Z</time></trkpt><trkpt lat="44.81403" lon="9.4557833"><ele>220.0</ele><time>2026-04-17T09:10:05.943Z</time></trkpt><trkpt lat="44.813905" lon="9.4554933"><ele>220.0</ele><time>2026-04-17T09:10:06.943Z</time></trkpt><trkpt lat="44.8137767" lon="9.4552083"><ele>217.5</ele><time>2026-04-17T09:10:07.944Z</time></trkpt><trkpt lat="44.813645" lon="9.4549183"><ele>215.0</ele><time>2026-04-17T09:10:08.942Z</time></trkpt><trkpt lat="44.8135183" lon="9.4546383"><ele>217.5</ele><time>2026-04-17T09:10:09.942Z</time></trkpt><trkpt lat="44.8133917" lon="9.4543533"><ele>220.0</ele><time>2026-04-17T09:10:10.942Z</time></trkpt><trkpt lat="44.8132667" lon="9.454075"><ele>220.0</ele><time>2026-04-17T09:10:11.942Z</time></trkpt><trkpt lat="44.8131417" lon="9.4538"><ele>220.0</ele><time>2026-04-17T09:10:12.942Z</time></trkpt><trkpt lat="44.8130183" lon="9.4535283"><ele>217.0</ele><time>2026-04-17T09:10:13.942Z</time></trkpt><trkpt lat="44.812895" lon="9.45326"><ele>214.0</ele><time>2026-04-17T09:10:14.942Z</time></trkpt><trkpt lat="44.8127767" lon="9.45299"><ele>213.33333333333331</ele><time>2026-04-17T09:10:15.942Z</time></trkpt><trkpt lat="44.81266" lon="9.4527233"><ele>212.66666666666669</ele><time>2026-04-17T09:10:16.942Z</time></trkpt><trkpt lat="44.8125567" lon="9.452445"><ele>212.0</ele><time>2026-04-17T09:10:17.942Z</time></trkpt><trkpt lat="44.8124783" lon="9.4521583"><ele>214.33333333333334</ele><time>2026-04-17T09:10:18.942Z</time></trkpt><trkpt lat="44.812415" lon="9.45187"><ele>216.66666666666669</ele><time>2026-04-17T09:10:19.942Z</time></trkpt><trkpt lat="44.8123667" lon="9.4515633"><ele>219.0</ele><time>2026-04-17T09:10:20.942Z</time></trkpt><trkpt lat="44.8123217" lon="9.45125"><ele>219.0</ele><time>2026-04-17T09:10:21.943Z</time></trkpt><trkpt lat="44.8122783" lon="9.4509217"><ele>219.0</ele><time>2026-04-17T09:10:22.942Z</time></trkpt><trkpt lat="44.8122367" lon="9.4505583"><ele>219.0</ele><time>2026-04-17T09:10:23.942Z</time></trkpt><trkpt lat="44.812185" lon="9.4501667"><ele>219.0</ele><time>2026-04-17T09:10:24.942Z</time></trkpt><trkpt lat="44.8121267" lon="9.4497433"><ele>217.0</ele><time>2026-04-17T09:10:25.942Z</time></trkpt><trkpt lat="44.81207" lon="9.4492883"><ele>215.0</ele><time>2026-04-17T09:10:26.942Z</time></trkpt><trkpt lat="44.81201" lon="9.4488167"><ele>214.5</ele><time>2026-04-17T09:10:27.942Z</time></trkpt><trkpt lat="44.8119533" lon="9.4483383"><ele>214.0</ele><time>2026-04-17T09:10:28.942Z</time></trkpt><trkpt lat="44.8119" lon="9.44784"><ele>213.5</ele><time>2026-04-17T09:10:29.942Z</time></trkpt><trkpt lat="44.8118417" lon="9.44734"><ele>213.0</ele><time>2026-04-17T09:10:30.942Z</time></trkpt><trkpt lat="44.8117817" lon="9.4468333"><ele>216.5</ele><time>2026-04-17T09:10:31.942Z</time></trkpt><trkpt lat="44.8117217" lon="9.4463217"><ele>220.0</ele><time>2026-04-17T09:10:32.942Z</time></trkpt><trkpt lat="44.8116567" lon="9.4458133"><ele>221.0</ele><time>2026-04-17T09:10:33.942Z</time></trkpt><trkpt lat="44.8115917" lon="9.4453133"><ele>222.0</ele><time>2026-04-17T09:10:34.942Z</time></trkpt><trkpt lat="44.8115283" lon="9.4448217"><ele>222.0</ele><time>2026-04-17T09:10:35.942Z</time></trkpt><trkpt lat="44.811465" lon="9.4443367"><ele>222.0</ele><time>2026-04-17T09:10:36.942Z</time></trkpt><trkpt lat="44.8114033" lon="9.44386"><ele>221.5</ele><time>2026-04-17T09:10:37.942Z</time></trkpt><trkpt lat="44.8113467" lon="9.4433917"><ele>221.0</ele><time>2026-04-17T09:10:38.942Z</time></trkpt><trkpt lat="44.811285" lon="9.4429333"><ele>221.0</ele><time>2026-04-17T09:10:39.942Z</time></trkpt><trkpt lat="44.8112417" lon="9.4424633"><ele>221.0</ele><time>2026-04-17T09:10:40.942Z</time></trkpt><trkpt lat="44.8111917" lon="9.4420017"><ele>220.0</ele><time>2026-04-17T09:10:41.942Z</time></trkpt><trkpt lat="44.8111383" lon="9.44155"><ele>219.0</ele><time>2026-04-17T09:10:42.942Z</time></trkpt><trkpt lat="44.8110767" lon="9.4410983"><ele>218.0</ele><time>2026-04-17T09:10:43.942Z</time></trkpt><trkpt lat="44.8109967" lon="9.4406567"><ele>217.0</ele><time>2026-04-17T09:10:44.942Z</time></trkpt><trkpt lat="44.81089" lon="9.4402217"><ele>219.0</ele><time>2026-04-17T09:10:45.942Z</time></trkpt><trkpt lat="44.8107467" lon="9.4398167"><ele>221.0</ele><time>2026-04-17T09:10:46.943Z</time></trkpt><trkpt lat="44.8105667" lon="9.4394433"><ele>221.0</ele><time>2026-04-17T09:10:47.942Z</time></trkpt><trkpt lat="44.8103533" lon="9.4390967"><ele>221.0</ele><time>2026-04-17T09:10:48.942Z</time></trkpt><trkpt lat="44.81012" lon="9.4387433"><ele>225.0</ele><time>2026-04-17T09:10:49.942Z</time></trkpt><trkpt lat="44.80988" lon="9.4383917"><ele>229.0</ele><time>2026-04-17T09:10:50.942Z</time></trkpt><trkpt lat="44.8096467" lon="9.438045"><ele>230.5</ele><time>2026-04-17T09:10:51.942Z</time></trkpt><trkpt lat="44.8094233" lon="9.4377067"><ele>232.0</ele><time>2026-04-17T09:10:52.942Z</time></trkpt><trkpt lat="44.8092083" lon="9.4373683"><ele>227.0</ele><time>2026-04-17T09:10:53.942Z</time></trkpt><trkpt lat="44.8090167" lon="9.4370133"><ele>222.0</ele><time>2026-04-17T09:10:54.942Z</time></trkpt><trkpt lat="44.8088417" lon="9.4366233"><ele>219.5</ele><time>2026-04-17T09:10:55.943Z</time></trkpt><trkpt lat="44.80869" lon="9.4361867"><ele>217.0</ele><time>2026-04-17T09:10:56.942Z</time></trkpt><trkpt lat="44.8085383" lon="9.435735"><ele>217.5</ele><time>2026-04-17T09:10:57.942Z</time></trkpt><trkpt lat="44.8083817" lon="9.435275"><ele>218.0</ele><time>2026-04-17T09:10:58.942Z</time></trkpt><trkpt lat="44.8082233" lon="9.4348167"><ele>219.5</ele><time>2026-04-17T09:10:59.942Z</time></trkpt><trkpt lat="44.8080633" lon="9.4343667"><ele>221.0</ele><time>2026-04-17T09:11:00.942Z</time></trkpt><trkpt lat="44.8079083" lon="9.4339083"><ele>221.0</ele><time>2026-04-17T09:11:01.942Z</time></trkpt><trkpt lat="44.8077533" lon="9.4334517"><ele>221.0</ele><time>2026-04-17T09:11:02.942Z</time></trkpt><trkpt lat="44.8076" lon="9.4329967"><ele>223.0</ele><time>2026-04-17T09:11:03.942Z</time></trkpt><trkpt lat="44.8074417" lon="9.432545"><ele>225.0</ele><time>2026-04-17T09:11:04.942Z</time></trkpt><trkpt lat="44.8072817" lon="9.4320967"><ele>229.5</ele><time>2026-04-17T09:11:05.942Z</time></trkpt><trkpt lat="44.8071083" lon="9.4316617"><ele>234.0</ele><time>2026-04-17T09:11:06.942Z</time></trkpt><trkpt lat="44.80692" lon="9.4312417"><ele>231.5</ele><time>2026-04-17T09:11:07.942Z</time></trkpt><trkpt lat="44.80671" lon="9.43083"><ele>229.0</ele><time>2026-04-17T09:11:08.942Z</time></trkpt><trkpt lat="44.806485" lon="9.4304283"><ele>229.0</ele><time>2026-04-17T09:11:09.942Z</time></trkpt><trkpt lat="44.8062467" lon="9.430035"><ele>229.0</ele><time>2026-04-17T09:11:10.942Z</time></trkpt><trkpt lat="44.8059967" lon="9.429655"><ele>227.5</ele><time>2026-04-17T09:11:11.942Z</time></trkpt><trkpt lat="44.8057333" lon="9.429285"><ele>226.0</ele><time>2026-04-17T09:11:12.942Z</time></trkpt><trkpt lat="44.8054583" lon="9.42893"><ele>226.0</ele><time>2026-04-17T09:11:13.942Z</time></trkpt><trkpt lat="44.8051817" lon="9.4285783"><ele>226.0</ele><time>2026-04-17T09:11:14.942Z</time></trkpt><trkpt lat="44.8049" lon="9.42823"><ele>227.0</ele><time>2026-04-17T09:11:15.942Z</time></trkpt><trkpt lat="44.8046233" lon="9.427875"><ele>228.0</ele><time>2026-04-17T09:11:16.942Z</time></trkpt><trkpt lat="44.8043483" lon="9.4275167"><ele>227.0</ele><time>2026-04-17T09:11:17.942Z</time></trkpt><trkpt lat="44.8040717" lon="9.4271567"><ele>226.0</ele><time>2026-04-17T09:11:18.942Z</time></trkpt><trkpt lat="44.8038" lon="9.4267967"><ele>226.5</ele><time>2026-04-17T09:11:19.942Z</time></trkpt><trkpt lat="44.8035233" lon="9.4264467"><ele>227.0</ele><time>2026-04-17T09:11:20.942Z</time></trkpt><trkpt lat="44.8032383" lon="9.4261133"><ele>227.0</ele><time>2026-04-17T09:11:21.942Z</time></trkpt><trkpt lat="44.8029417" lon="9.425805"><ele>227.0</ele><time>2026-04-17T09:11:22.942Z</time></trkpt><trkpt lat="44.8026333" lon="9.4255233"><ele>229.0</ele><time>2026-04-17T09:11:23.942Z</time></trkpt><trkpt lat="44.8023167" lon="9.4252617"><ele>231.0</ele><time>2026-04-17T09:11:24.942Z</time></trkpt><trkpt lat="44.802" lon="9.425015"><ele>229.0</ele><time>2026-04-17T09:11:25.942Z</time></trkpt><trkpt lat="44.801685" lon="9.42478"><ele>227.0</ele><time>2026-04-17T09:11:26.942Z</time></trkpt><trkpt lat="44.8013683" lon="9.4245533"><ele>227.0</ele><time>2026-04-17T09:11:27.942Z</time></trkpt><trkpt lat="44.8010517" lon="9.4243367"><ele>227.0</ele><time>2026-04-17T09:11:28.942Z</time></trkpt><trkpt lat="44.800735" lon="9.4241233"><ele>228.0</ele><time>2026-04-17T09:11:29.942Z</time></trkpt><trkpt lat="44.8004367" lon="9.423915"><ele>229.0</ele><time>2026-04-17T09:11:30.942Z</time></trkpt><trkpt lat="44.8001483" lon="9.423725"><ele>231.5</ele><time>2026-04-17T09:11:31.942Z</time></trkpt><trkpt lat="44.7998583" lon="9.4235583"><ele>234.0</ele><time>2026-04-17T09:11:32.942Z</time></trkpt><trkpt lat="44.799565" lon="9.4234233"><ele>235.0</ele><time>2026-04-17T09:11:33.942Z</time></trkpt><trkpt lat="44.7992633" lon="9.423315"><ele>236.0</ele><time>2026-04-17T09:11:34.942Z</time></trkpt><trkpt lat="44.7989517" lon="9.4232467"><ele>236.0</ele><time>2026-04-17T09:11:35.942Z</time></trkpt><trkpt lat="44.7986317" lon="9.4232017"><ele>236.0</ele><time>2026-04-17T09:11:36.942Z</time></trkpt><trkpt lat="44.7983067" lon="9.4231567"><ele>238.5</ele><time>2026-04-17T09:11:37.942Z</time></trkpt><trkpt lat="44.7979817" lon="9.4231067"><ele>241.0</ele><time>2026-04-17T09:11:38.942Z</time></trkpt><trkpt lat="44.79767" lon="9.4230467"><ele>236.5</ele><time>2026-04-17T09:11:39.942Z</time></trkpt><trkpt lat="44.7973783" lon="9.4229683"><ele>232.0</ele><time>2026-04-17T09:11:40.942Z</time></trkpt><trkpt lat="44.79711" lon="9.4228683"><ele>232.0</ele><time>2026-04-17T09:11:41.942Z</time></trkpt><trkpt lat="44.7968567" lon="9.4227433"><ele>232.0</ele><time>2026-04-17T09:11:42.942Z</time></trkpt><trkpt lat="44.7966217" lon="9.42259"><ele>236.0</ele><time>2026-04-17T09:11:43.942Z</time></trkpt><trkpt lat="44.7963933" lon="9.4224083"><ele>240.0</ele><time>2026-04-17T09:11:44.942Z</time></trkpt><trkpt lat="44.7961767" lon="9.422195"><ele>243.5</ele><time>2026-04-17T09:11:45.942Z</time></trkpt><trkpt lat="44.79597" lon="9.4219633"><ele>247.0</ele><time>2026-04-17T09:11:46.942Z</time></trkpt><trkpt lat="44.7957717" lon="9.4217167"><ele>247.0</ele><time>2026-04-17T09:11:47.942Z</time></trkpt><trkpt lat="44.7955817" lon="9.421455"><ele>247.0</ele><time>2026-04-17T09:11:48.942Z</time></trkpt><trkpt lat="44.7953917" lon="9.4211967"><ele>244.5</ele><time>2026-04-17T09:11:49.942Z</time></trkpt><trkpt lat="44.7952" lon="9.4209483"><ele>242.0</ele><time>2026-04-17T09:11:50.942Z</time></trkpt><trkpt lat="44.7950067" lon="9.4206983"><ele>261.5</ele><time>2026-04-17T09:11:51.942Z</time></trkpt><trkpt lat="44.79481" lon="9.4204517"><ele>281.0</ele><time>2026-04-17T09:11:52.942Z</time></trkpt><trkpt lat="44.7946167" lon="9.4202067"><ele>281.0</ele><time>2026-04-17T09:11:53.942Z</time></trkpt><trkpt lat="44.794425" lon="9.4199633"><ele>281.0</ele><time>2026-04-17T09:11:54.942Z</time></trkpt><trkpt lat="44.79423" lon="9.4197167"><ele>240.0</ele><time>2026-04-17T09:11:55.942Z</time></trkpt><trkpt lat="44.7899117" lon="9.413835"><ele>238.0</ele><time>2026-04-17T09:12:15.942Z</time></trkpt><trkpt lat="44.789695" lon="9.41359"><ele>236.0</ele><time>2026-04-17T09:12:16.942Z</time></trkpt><trkpt lat="44.7894933" lon="9.4133633"><ele>236.5</ele><time>2026-04-17T09:12:17.942Z</time></trkpt><trkpt lat="44.7892767" lon="9.4130817"><ele>237.0</ele><time>2026-04-17T09:12:18.942Z</time></trkpt><trkpt lat="44.78906" lon="9.4128067"><ele>237.0</ele><time>2026-04-17T09:12:19.942Z</time></trkpt><trkpt lat="44.7888417" lon="9.4125283"><ele>237.0</ele><time>2026-04-17T09:12:20.942Z</time></trkpt><trkpt lat="44.788625" lon="9.41225"><ele>237.5</ele><time>2026-04-17T09:12:21.942Z</time></trkpt><trkpt lat="44.7884067" lon="9.4119667"><ele>238.0</ele><time>2026-04-17T09:12:22.942Z</time></trkpt><trkpt lat="44.78819" lon="9.4116867"><ele>238.0</ele><time>2026-04-17T09:12:23.943Z</time></trkpt><trkpt lat="44.7879683" lon="9.4113967"><ele>238.0</ele><time>2026-04-17T09:12:24.942Z</time></trkpt><trkpt lat="44.7877483" lon="9.4111067"><ele>239.0</ele><time>2026-04-17T09:12:25.942Z</time></trkpt><trkpt lat="44.7875283" lon="9.4108183"><ele>240.0</ele><time>2026-04-17T09:12:26.942Z</time></trkpt><trkpt lat="44.787305" lon="9.4105283"><ele>238.5</ele><time>2026-04-17T09:12:27.942Z</time></trkpt><trkpt lat="44.7870833" lon="9.4102367"><ele>237.0</ele><time>2026-04-17T09:12:28.942Z</time></trkpt><trkpt lat="44.7868583" lon="9.409945"><ele>241.5</ele><time>2026-04-17T09:12:29.942Z</time></trkpt><trkpt lat="44.78663" lon="9.40965"><ele>246.0</ele><time>2026-04-17T09:12:30.943Z</time></trkpt><trkpt lat="44.7864017" lon="9.4093583"><ele>246.0</ele><time>2026-04-17T09:12:31.942Z</time></trkpt><trkpt lat="44.7861767" lon="9.4090683"><ele>246.0</ele><time>2026-04-17T09:12:32.942Z</time></trkpt><trkpt lat="44.7859533" lon="9.4087817"><ele>246.0</ele><time>2026-04-17T09:12:33.942Z</time></trkpt><trkpt lat="44.7857283" lon="9.408495"><ele>246.0</ele><time>2026-04-17T09:12:34.942Z</time></trkpt><trkpt lat="44.7855117" lon="9.4081983"><ele>247.0</ele><time>2026-04-17T09:12:35.942Z</time></trkpt><trkpt lat="44.785295" lon="9.4079033"><ele>248.0</ele><time>2026-04-17T09:12:36.942Z</time></trkpt><trkpt lat="44.785075" lon="9.40761"><ele>248.0</ele><time>2026-04-17T09:12:37.942Z</time></trkpt><trkpt lat="44.78486" lon="9.40731"><ele>248.0</ele><time>2026-04-17T09:12:38.942Z</time></trkpt><trkpt lat="44.7846467" lon="9.407005"><ele>247.0</ele><time>2026-04-17T09:12:39.942Z</time></trkpt><trkpt lat="44.7844317" lon="9.4066983"><ele>246.0</ele><time>2026-04-17T09:12:40.942Z</time></trkpt><trkpt lat="44.7842183" lon="9.4063933"><ele>245.0</ele><time>2026-04-17T09:12:41.942Z</time></trkpt><trkpt lat="44.784005" lon="9.406085"><ele>244.0</ele><time>2026-04-17T09:12:42.942Z</time></trkpt><trkpt lat="44.783795" lon="9.4057767"><ele>242.5</ele><time>2026-04-17T09:12:43.942Z</time></trkpt><trkpt lat="44.7835833" lon="9.4054683"><ele>241.0</ele><time>2026-04-17T09:12:44.943Z</time></trkpt><trkpt lat="44.7833667" lon="9.4051617"><ele>241.0</ele><time>2026-04-17T09:12:45.942Z</time></trkpt><trkpt lat="44.7831483" lon="9.4048533"><ele>241.0</ele><time>2026-04-17T09:12:46.942Z</time></trkpt><trkpt lat="44.7829317" lon="9.4045433"><ele>241.0</ele><time>2026-04-17T09:12:47.942Z</time></trkpt><trkpt lat="44.782715" lon="9.4042283"><ele>241.0</ele><time>2026-04-17T09:12:48.942Z</time></trkpt><trkpt lat="44.7824967" lon="9.4039117"><ele>242.5</ele><time>2026-04-17T09:12:49.942Z</time></trkpt><trkpt lat="44.7822767" lon="9.4036"><ele>244.0</ele><time>2026-04-17T09:12:50.942Z</time></trkpt><trkpt lat="44.782055" lon="9.40329"><ele>245.5</ele><time>2026-04-17T09:12:51.942Z</time></trkpt><trkpt lat="44.7818333" lon="9.4029783"><ele>247.0</ele><time>2026-04-17T09:12:52.942Z</time></trkpt><trkpt lat="44.781615" lon="9.4026617"><ele>247.0</ele><time>2026-04-17T09:12:53.942Z</time></trkpt><trkpt lat="44.781395" lon="9.4023467"><ele>247.0</ele><time>2026-04-17T09:12:54.942Z</time></trkpt><trkpt lat="44.781165" lon="9.402045"><ele>247.5</ele><time>2026-04-17T09:12:55.942Z</time></trkpt><trkpt lat="44.7809333" lon="9.40174"><ele>248.0</ele><time>2026-04-17T09:12:56.942Z</time></trkpt><trkpt lat="44.7807067" lon="9.4014283"><ele>251.5</ele><time>2026-04-17T09:12:57.942Z</time></trkpt><trkpt lat="44.780535" lon="9.4010717"><ele>255.0</ele><time>2026-04-17T09:12:58.942Z</time></trkpt><trkpt lat="44.780365" lon="9.4007167"><ele>253.5</ele><time>2026-04-17T09:12:59.943Z</time></trkpt><trkpt lat="44.780215" lon="9.400355"><ele>252.0</ele><time>2026-04-17T09:13:00.942Z</time></trkpt><trkpt lat="44.78008" lon="9.399985"><ele>254.5</ele><time>2026-04-17T09:13:01.942Z</time></trkpt><trkpt lat="44.77997" lon="9.3995933"><ele>257.0</ele><time>2026-04-17T09:13:02.942Z</time></trkpt><trkpt lat="44.7798483" lon="9.3991983"><ele>258.5</ele><time>2026-04-17T09:13:03.942Z</time></trkpt><trkpt lat="44.7797783" lon="9.398785"><ele>260.0</ele><time>2026-04-17T09:13:04.942Z</time></trkpt><trkpt lat="44.7797367" lon="9.3983683"><ele>260.0</ele><time>2026-04-17T09:13:05.942Z</time></trkpt><trkpt lat="44.77964" lon="9.3980067"><ele>260.0</ele><time>2026-04-17T09:13:06.942Z</time></trkpt><trkpt lat="44.7796383" lon="9.397555"><ele>263.5</ele><time>2026-04-17T09:13:07.942Z</time></trkpt><trkpt lat="44.77963" lon="9.3970983"><ele>267.0</ele><time>2026-04-17T09:13:08.942Z</time></trkpt><trkpt lat="44.7795917" lon="9.3966383"><ele>271.0</ele><time>2026-04-17T09:13:09.942Z</time></trkpt><trkpt lat="44.77953" lon="9.396175"><ele>275.0</ele><time>2026-04-17T09:13:10.942Z</time></trkpt><trkpt lat="44.7794483" lon="9.3956983"><ele>262.0</ele><time>2026-04-17T09:13:11.942Z</time></trkpt><trkpt lat="44.7793467" lon="9.3952167"><ele>249.0</ele><time>2026-04-17T09:13:12.942Z</time></trkpt><trkpt lat="44.7792267" lon="9.3947417"><ele>251.0</ele><time>2026-04-17T09:13:13.942Z</time></trkpt><trkpt lat="44.7791083" lon="9.3942333"><ele>253.0</ele><time>2026-04-17T09:13:14.942Z</time></trkpt><trkpt lat="44.778955" lon="9.3937617"><ele>258.5</ele><time>2026-04-17T09:13:15.942Z</time></trkpt><trkpt lat="44.778765" lon="9.3933367"><ele>264.0</ele><time>2026-04-17T09:13:16.943Z</time></trkpt><trkpt lat="44.7785333" lon="9.3930467"><ele>259.5</ele><time>2026-04-17T09:13:17.942Z</time></trkpt><trkpt lat="44.7783517" lon="9.39271"><ele>255.0</ele><time>2026-04-17T09:13:18.942Z</time></trkpt><trkpt lat="44.7781667" lon="9.3923883"><ele>267.5</ele><time>2026-04-17T09:13:19.942Z</time></trkpt><trkpt lat="44.77797" lon="9.3920883"><ele>280.0</ele><time>2026-04-17T09:13:20.942Z</time></trkpt><trkpt lat="44.7777567" lon="9.3918083"><ele>278.0</ele><time>2026-04-17T09:13:21.942Z</time></trkpt><trkpt lat="44.7775267" lon="9.3915367"><ele>276.0</ele><time>2026-04-17T09:13:22.942Z</time></trkpt><trkpt lat="44.7772817" lon="9.3912733"><ele>276.0</ele><time>2026-04-17T09:13:23.942Z</time></trkpt><trkpt lat="44.7770033" lon="9.3910417"><ele>276.0</ele><time>2026-04-17T09:13:24.942Z</time></trkpt><trkpt lat="44.7767467" lon="9.3907783"><ele>273.0</ele><time>2026-04-17T09:13:25.942Z</time></trkpt><trkpt lat="44.776485" lon="9.39053"><ele>270.0</ele><time>2026-04-17T09:13:26.942Z</time></trkpt><trkpt lat="44.7762383" lon="9.3903017"><ele>262.0</ele><time>2026-04-17T09:13:27.942Z</time></trkpt><trkpt lat="44.776005" lon="9.3900883"><ele>254.0</ele><time>2026-04-17T09:13:28.942Z</time></trkpt><trkpt lat="44.7757717" lon="9.38989"><ele>254.0</ele><time>2026-04-17T09:13:29.942Z</time></trkpt><trkpt lat="44.7755283" lon="9.3897283"><ele>254.0</ele><time>2026-04-17T09:13:30.942Z</time></trkpt><trkpt lat="44.77527" lon="9.3895933"><ele>254.5</ele><time>2026-04-17T09:13:31.942Z</time></trkpt><trkpt lat="44.775005" lon="9.38949"><ele>255.0</ele><time>2026-04-17T09:13:32.942Z</time></trkpt><trkpt lat="44.7747333" lon="9.3894233"><ele>255.0</ele><time>2026-04-17T09:13:33.942Z</time></trkpt><trkpt lat="44.7744567" lon="9.3893967"><ele>255.0</ele><time>2026-04-17T09:13:34.942Z</time></trkpt><trkpt lat="44.7741783" lon="9.3894017"><ele>255.0</ele><time>2026-04-17T09:13:35.942Z</time></trkpt><trkpt lat="44.7739117" lon="9.3894183"><ele>255.0</ele><time>2026-04-17T09:13:36.943Z</time></trkpt><trkpt lat="44.7736733" lon="9.3894333"><ele>256.6666666666667</ele><time>2026-04-17T09:13:37.943Z</time></trkpt><trkpt lat="44.7734683" lon="9.389445"><ele>258.33333333333337</ele><time>2026-04-17T09:13:38.942Z</time></trkpt><trkpt lat="44.7733067" lon="9.3894467"><ele>260.0</ele><time>2026-04-17T09:13:39.942Z</time></trkpt><trkpt lat="44.773175" lon="9.3894383"><ele>260.0</ele><time>2026-04-17T09:13:40.942Z</time></trkpt><trkpt lat="44.7730717" lon="9.389405"><ele>260.0</ele><time>2026-04-17T09:13:41.942Z</time></trkpt><trkpt lat="44.7729917" lon="9.38933"><ele>260.0</ele><time>2026-04-17T09:13:42.942Z</time></trkpt><trkpt lat="44.7729367" lon="9.389215"><ele>260.0</ele><time>2026-04-17T09:13:43.942Z</time></trkpt><trkpt lat="44.772905" lon="9.38907"><ele>260.0</ele><time>2026-04-17T09:13:44.942Z</time></trkpt><trkpt lat="44.7728983" lon="9.388895"><ele>260.75</ele><time>2026-04-17T09:13:45.942Z</time></trkpt><trkpt lat="44.7729017" lon="9.38872"><ele>261.5</ele><time>2026-04-17T09:13:46.942Z</time></trkpt><trkpt lat="44.7729183" lon="9.3885383"><ele>262.25</ele><time>2026-04-17T09:13:47.942Z</time></trkpt><trkpt lat="44.772945" lon="9.3883717"><ele>263.0</ele><time>2026-04-17T09:13:48.942Z</time></trkpt><trkpt lat="44.77297" lon="9.3882233"><ele>263.0</ele><time>2026-04-17T09:13:49.943Z</time></trkpt><trkpt lat="44.7729867" lon="9.3880933"><ele>263.0</ele><time>2026-04-17T09:13:50.942Z</time></trkpt><trkpt lat="44.7729967" lon="9.3879917"><ele>263.0</ele><time>2026-04-17T09:13:51.942Z</time></trkpt><trkpt lat="44.773005" lon="9.38789"><ele>263.0</ele><time>2026-04-17T09:13:52.942Z</time></trkpt><trkpt lat="44.773015" lon="9.3877867"><ele>263.0</ele><time>2026-04-17T09:13:53.942Z</time></trkpt><trkpt lat="44.773025" lon="9.38769"><ele>263.0</ele><time>2026-04-17T09:13:54.942Z</time></trkpt><trkpt lat="44.7730083" lon="9.38752"><ele>263.25</ele><time>2026-04-17T09:13:56.942Z</time></trkpt><trkpt lat="44.772905" lon="9.38743"><ele>263.5</ele><time>2026-04-17T09:13:58.942Z</time></trkpt><trkpt lat="44.7728217" lon="9.387415"><ele>263.75</ele><time>2026-04-17T09:13:59.942Z</time></trkpt><trkpt lat="44.7727033" lon="9.3873933"><ele>264.0</ele><time>2026-04-17T09:14:00.942Z</time></trkpt><trkpt lat="44.77256" lon="9.3873783"><ele>265.0</ele><time>2026-04-17T09:14:01.942Z</time></trkpt><trkpt lat="44.7724317" lon="9.3873567"><ele>266.0</ele><time>2026-04-17T09:14:02.942Z</time></trkpt><trkpt lat="44.7723033" lon="9.3873283"><ele>267.0</ele><time>2026-04-17T09:14:03.942Z</time></trkpt><trkpt lat="44.7721767" lon="9.3873317"><ele>268.0</ele><time>2026-04-17T09:14:04.942Z</time></trkpt><trkpt lat="44.7720783" lon="9.3873133"><ele>268.0</ele><time>2026-04-17T09:14:05.942Z</time></trkpt><trkpt lat="44.77198" lon="9.3872983"><ele>268.0</ele><time>2026-04-17T09:14:06.942Z</time></trkpt><trkpt lat="44.7718683" lon="9.38728"><ele>268.0</ele><time>2026-04-17T09:14:07.942Z</time></trkpt><trkpt lat="44.7717433" lon="9.3872567"><ele>268.0</ele><time>2026-04-17T09:14:08.942Z</time></trkpt><trkpt lat="44.7715967" lon="9.3872317"><ele>268.3333333333333</ele><time>2026-04-17T09:14:09.942Z</time></trkpt><trkpt lat="44.7714417" lon="9.3872033"><ele>268.6666666666667</ele><time>2026-04-17T09:14:10.942Z</time></trkpt><trkpt lat="44.7712883" lon="9.387175"><ele>269.0</ele><time>2026-04-17T09:14:11.942Z</time></trkpt><trkpt lat="44.771145" lon="9.3871433"><ele>271.5</ele><time>2026-04-17T09:14:12.942Z</time></trkpt><trkpt lat="44.7710033" lon="9.387115"><ele>274.0</ele><time>2026-04-17T09:14:13.942Z</time></trkpt><trkpt lat="44.7708667" lon="9.3870883"><ele>276.5</ele><time>2026-04-17T09:14:14.942Z</time></trkpt><trkpt lat="44.7707317" lon="9.38706"><ele>279.0</ele><time>2026-04-17T09:14:15.942Z</time></trkpt><trkpt lat="44.7706017" lon="9.387005"><ele>279.0</ele><time>2026-04-17T09:14:16.942Z</time></trkpt><trkpt lat="44.7704717" lon="9.3869317"><ele>279.0</ele><time>2026-04-17T09:14:17.942Z</time></trkpt><trkpt lat="44.77034" lon="9.3868533"><ele>279.0</ele><time>2026-04-17T09:14:18.942Z</time></trkpt><trkpt lat="44.770205" lon="9.386775"><ele>279.0</ele><time>2026-04-17T09:14:19.942Z</time></trkpt><trkpt lat="44.7700717" lon="9.3867067"><ele>279.0</ele><time>2026-04-17T09:14:20.942Z</time></trkpt><trkpt lat="44.7699367" lon="9.3866567"><ele>279.0</ele><time>2026-04-17T09:14:21.942Z</time></trkpt><trkpt lat="44.7698117" lon="9.38662"><ele>279.0</ele><time>2026-04-17T09:14:22.942Z</time></trkpt><trkpt lat="44.769705" lon="9.3865783"><ele>279.0</ele><time>2026-04-17T09:14:23.942Z</time></trkpt><trkpt lat="44.7696183" lon="9.3865417"><ele>279.0</ele><time>2026-04-17T09:14:24.942Z</time></trkpt><trkpt lat="44.7695417" lon="9.3865167"><ele>279.0</ele><time>2026-04-17T09:14:25.942Z</time></trkpt><trkpt lat="44.7694783" lon="9.38649"><ele>279.0</ele><time>2026-04-17T09:14:26.942Z</time></trkpt><trkpt lat="44.7693983" lon="9.3864483"><ele>279.0</ele><time>2026-04-17T09:14:28.942Z</time></trkpt><trkpt lat="44.76933" lon="9.3864567"><ele>279.0</ele><time>2026-04-17T09:14:30.943Z</time></trkpt><trkpt lat="44.7692333" lon="9.3865583"><ele>279.0</ele><time>2026-04-17T09:14:32.942Z</time></trkpt><trkpt lat="44.7691967" lon="9.3866433"><ele>279.4</ele><time>2026-04-17T09:14:33.942Z</time></trkpt><trkpt lat="44.7691617" lon="9.38674"><ele>279.79999999999995</ele><time>2026-04-17T09:14:34.942Z</time></trkpt><trkpt lat="44.7691283" lon="9.386855"><ele>280.20000000000005</ele><time>2026-04-17T09:14:35.942Z</time></trkpt><trkpt lat="44.76909" lon="9.3869883"><ele>280.6</ele><time>2026-04-17T09:14:36.942Z</time></trkpt><trkpt lat="44.76905" lon="9.38713"><ele>281.0</ele><time>2026-04-17T09:14:37.942Z</time></trkpt><trkpt lat="44.7690033" lon="9.38726"><ele>279.8</ele><time>2026-04-17T09:14:38.942Z</time></trkpt><trkpt lat="44.7689417" lon="9.3873517"><ele>278.6</ele><time>2026-04-17T09:14:39.942Z</time></trkpt><trkpt lat="44.768875" lon="9.38742"><ele>277.4</ele><time>2026-04-17T09:14:40.942Z</time></trkpt><trkpt lat="44.768795" lon="9.3874567"><ele>276.2</ele><time>2026-04-17T09:14:41.942Z</time></trkpt><trkpt lat="44.76868" lon="9.3874817"><ele>275.0</ele><time>2026-04-17T09:14:42.942Z</time></trkpt><trkpt lat="44.7684983" lon="9.387485"><ele>275.0</ele><time>2026-04-17T09:14:43.942Z</time></trkpt><trkpt lat="44.7683383" lon="9.38751"><ele>275.0</ele><time>2026-04-17T09:14:44.942Z</time></trkpt><trkpt lat="44.7682017" lon="9.387545"><ele>275.0</ele><time>2026-04-17T09:14:45.942Z</time></trkpt><trkpt lat="44.7680917" lon="9.3875867"><ele>275.0</ele><time>2026-04-17T09:14:46.942Z</time></trkpt><trkpt lat="44.7680133" lon="9.3876233"><ele>275.0</ele><time>2026-04-17T09:14:47.942Z</time></trkpt><trkpt lat="44.7679517" lon="9.38766"><ele>275.0</ele><time>2026-04-17T09:14:48.942Z</time></trkpt><trkpt lat="44.7678717" lon="9.3877133"><ele>275.0</ele><time>2026-04-17T09:14:50.942Z</time></trkpt><trkpt lat="44.7678017" lon="9.3877583"><ele>275.0</ele><time>2026-04-17T09:14:52.942Z</time></trkpt><trkpt lat="44.7677217" lon="9.3878067"><ele>275.0</ele><time>2026-04-17T09:14:54.942Z</time></trkpt><trkpt lat="44.7676417" lon="9.3879"><ele>275.0</ele><time>2026-04-17T09:14:56.942Z</time></trkpt><trkpt lat="44.76756" lon="9.3880283"><ele>274.1666666666667</ele><time>2026-04-17T09:14:58.942Z</time></trkpt><trkpt lat="44.7675167" lon="9.388095"><ele>273.33333333333337</ele><time>2026-04-17T09:14:59.942Z</time></trkpt><trkpt lat="44.7674717" lon="9.3881633"><ele>272.5</ele><time>2026-04-17T09:15:00.942Z</time></trkpt><trkpt lat="44.7674267" lon="9.3882283"><ele>271.6666666666667</ele><time>2026-04-17T09:15:01.942Z</time></trkpt><trkpt lat="44.7673383" lon="9.3883567"><ele>270.8333333333333</ele><time>2026-04-17T09:15:03.942Z</time></trkpt><trkpt lat="44.76729" lon="9.3884183"><ele>270.0</ele><time>2026-04-17T09:15:04.942Z</time></trkpt><trkpt lat="44.7672367" lon="9.3884783"><ele>270.0</ele><time>2026-04-17T09:15:05.942Z</time></trkpt><trkpt lat="44.76718" lon="9.3885333"><ele>270.0</ele><time>2026-04-17T09:15:06.942Z</time></trkpt><trkpt lat="44.7671183" lon="9.3885633"><ele>270.0</ele><time>2026-04-17T09:15:07.942Z</time></trkpt><trkpt lat="44.7670483" lon="9.388575"><ele>270.0</ele><time>2026-04-17T09:15:08.942Z</time></trkpt><trkpt lat="44.7669783" lon="9.3885583"><ele>270.0</ele><time>2026-04-17T09:15:09.942Z</time></trkpt><trkpt lat="44.7669033" lon="9.3885283"><ele>270.0</ele><time>2026-04-17T09:15:10.942Z</time></trkpt><trkpt lat="44.7668233" lon="9.38849"><ele>270.0</ele><time>2026-04-17T09:15:11.943Z</time></trkpt><trkpt lat="44.766745" lon="9.3884517"><ele>270.1666666666667</ele><time>2026-04-17T09:15:12.942Z</time></trkpt><trkpt lat="44.7666667" lon="9.388415"><ele>270.3333333333333</ele><time>2026-04-17T09:15:13.942Z</time></trkpt><trkpt lat="44.76659" lon="9.3883667"><ele>270.5</ele><time>2026-04-17T09:15:14.942Z</time></trkpt><trkpt lat="44.7665083" lon="9.3883367"><ele>270.66666666666663</ele><time>2026-04-17T09:15:15.942Z</time></trkpt><trkpt lat="44.766425" lon="9.3883083"><ele>270.8333333333333</ele><time>2026-04-17T09:15:16.943Z</time></trkpt><trkpt lat="44.7663417" lon="9.38826"><ele>271.0</ele><time>2026-04-17T09:15:17.942Z</time></trkpt><trkpt lat="44.7662633" lon="9.3882083"><ele>271.0</ele><time>2026-04-17T09:15:18.942Z</time></trkpt><trkpt lat="44.7661983" lon="9.3881267"><ele>271.0</ele><time>2026-04-17T09:15:19.942Z</time></trkpt><trkpt lat="44.7661517" lon="9.3880233"><ele>271.0</ele><time>2026-04-17T09:15:20.942Z</time></trkpt><trkpt lat="44.7661167" lon="9.3879167"><ele>271.0</ele><time>2026-04-17T09:15:21.942Z</time></trkpt><trkpt lat="44.7661067" lon="9.3877983"><ele>271.0</ele><time>2026-04-17T09:15:22.942Z</time></trkpt><trkpt lat="44.7661017" lon="9.387685"><ele>271.0</ele><time>2026-04-17T09:15:23.942Z</time></trkpt><trkpt lat="44.7661" lon="9.38757"><ele>272.5</ele><time>2026-04-17T09:15:24.942Z</time></trkpt><trkpt lat="44.7660883" lon="9.3874517"><ele>274.0</ele><time>2026-04-17T09:15:25.942Z</time></trkpt><trkpt lat="44.76609" lon="9.3873267"><ele>275.5</ele><time>2026-04-17T09:15:26.942Z</time></trkpt><trkpt lat="44.7660817" lon="9.3872067"><ele>277.0</ele><time>2026-04-17T09:15:27.942Z</time></trkpt><trkpt lat="44.76607" lon="9.3870867"><ele>278.5</ele><time>2026-04-17T09:15:28.942Z</time></trkpt><trkpt lat="44.7660567" lon="9.3869733"><ele>280.0</ele><time>2026-04-17T09:15:29.942Z</time></trkpt><trkpt lat="44.7660383" lon="9.38686"><ele>278.0</ele><time>2026-04-17T09:15:30.942Z</time></trkpt><trkpt lat="44.7659983" lon="9.3867367"><ele>276.0</ele><time>2026-04-17T09:15:31.942Z</time></trkpt><trkpt lat="44.765935" lon="9.3866417"><ele>274.0</ele><time>2026-04-17T09:15:32.942Z</time></trkpt><trkpt lat="44.7658517" lon="9.3865667"><ele>272.0</ele><time>2026-04-17T09:15:33.942Z</time></trkpt><trkpt lat="44.7657333" lon="9.386495"><ele>270.0</ele><time>2026-04-17T09:15:34.942Z</time></trkpt><trkpt lat="44.7655917" lon="9.3864317"><ele>270.0</ele><time>2026-04-17T09:15:35.942Z</time></trkpt><trkpt lat="44.7654333" lon="9.3863783"><ele>270.0</ele><time>2026-04-17T09:15:36.942Z</time></trkpt><trkpt lat="44.7652533" lon="9.3863067"><ele>270.0</ele><time>2026-04-17T09:15:37.942Z</time></trkpt><trkpt lat="44.765065" lon="9.3862417"><ele>269.75</ele><time>2026-04-17T09:15:38.942Z</time></trkpt><trkpt lat="44.7648933" lon="9.3861817"><ele>269.5</ele><time>2026-04-17T09:15:39.942Z</time></trkpt><trkpt lat="44.7647567" lon="9.3861317"><ele>269.25</ele><time>2026-04-17T09:15:40.942Z</time></trkpt><trkpt lat="44.764655" lon="9.3860933"><ele>269.0</ele><time>2026-04-17T09:15:41.942Z</time></trkpt><trkpt lat="44.7645583" lon="9.3860517"><ele>269.0</ele><time>2026-04-17T09:15:42.942Z</time></trkpt><trkpt lat="44.76444" lon="9.38603"><ele>269.0</ele><time>2026-04-17T09:15:43.942Z</time></trkpt><trkpt lat="44.764335" lon="9.3859633"><ele>269.0</ele><time>2026-04-17T09:15:44.943Z</time></trkpt><trkpt lat="44.76423" lon="9.38589"><ele>269.0</ele><time>2026-04-17T09:15:45.942Z</time></trkpt><trkpt lat="44.7641217" lon="9.38579"><ele>268.0</ele><time>2026-04-17T09:15:46.942Z</time></trkpt><trkpt lat="44.7640133" lon="9.3856417"><ele>267.0</ele><time>2026-04-17T09:15:47.942Z</time></trkpt><trkpt lat="44.7638933" lon="9.3854333"><ele>266.0</ele><time>2026-04-17T09:15:48.942Z</time></trkpt><trkpt lat="44.7637633" lon="9.3851583"><ele>267.0</ele><time>2026-04-17T09:15:49.942Z</time></trkpt><trkpt lat="44.7635817" lon="9.3847867"><ele>268.0</ele><time>2026-04-17T09:15:50.942Z</time></trkpt><trkpt lat="44.7634" lon="9.38443"><ele>268.0</ele><time>2026-04-17T09:15:51.942Z</time></trkpt><trkpt lat="44.7632117" lon="9.3840967"><ele>268.0</ele><time>2026-04-17T09:15:52.942Z</time></trkpt><trkpt lat="44.7630167" lon="9.3837917"><ele>265.5</ele><time>2026-04-17T09:15:53.942Z</time></trkpt><trkpt lat="44.7628033" lon="9.3835233"><ele>263.0</ele><time>2026-04-17T09:15:54.942Z</time></trkpt><trkpt lat="44.7625667" lon="9.3832983"><ele>263.0</ele><time>2026-04-17T09:15:55.942Z</time></trkpt><trkpt lat="44.7623" lon="9.3830967"><ele>263.0</ele><time>2026-04-17T09:15:56.942Z</time></trkpt><trkpt lat="44.762015" lon="9.382895"><ele>263.0</ele><time>2026-04-17T09:15:57.942Z</time></trkpt><trkpt lat="44.761725" lon="9.3826967"><ele>263.0</ele><time>2026-04-17T09:15:58.942Z</time></trkpt><trkpt lat="44.7614283" lon="9.3824967"><ele>263.0</ele><time>2026-04-17T09:15:59.942Z</time></trkpt><trkpt lat="44.7611333" lon="9.3823"><ele>263.0</ele><time>2026-04-17T09:16:00.942Z</time></trkpt><trkpt lat="44.7608533" lon="9.3821067"><ele>265.5</ele><time>2026-04-17T09:16:01.942Z</time></trkpt><trkpt lat="44.7605917" lon="9.381925"><ele>268.0</ele><time>2026-04-17T09:16:02.942Z</time></trkpt><trkpt lat="44.760335" lon="9.3817667"><ele>267.0</ele><time>2026-04-17T09:16:03.942Z</time></trkpt><trkpt lat="44.760075" lon="9.381655"><ele>266.0</ele><time>2026-04-17T09:16:04.942Z</time></trkpt><trkpt lat="44.7598183" lon="9.3816017"><ele>266.0</ele><time>2026-04-17T09:16:05.942Z</time></trkpt><trkpt lat="44.7595883" lon="9.3816"><ele>266.0</ele><time>2026-04-17T09:16:06.942Z</time></trkpt><trkpt lat="44.7594033" lon="9.3816283"><ele>266.0</ele><time>2026-04-17T09:16:07.942Z</time></trkpt><trkpt lat="44.75925" lon="9.381655"><ele>266.0</ele><time>2026-04-17T09:16:08.942Z</time></trkpt><trkpt lat="44.759125" lon="9.3816733"><ele>266.0</ele><time>2026-04-17T09:16:09.942Z</time></trkpt><trkpt lat="44.759005" lon="9.3816867"><ele>266.0</ele><time>2026-04-17T09:16:10.942Z</time></trkpt><trkpt lat="44.7588667" lon="9.381715"><ele>266.0</ele><time>2026-04-17T09:16:11.942Z</time></trkpt><trkpt lat="44.7586967" lon="9.3817633"><ele>266.33333333333337</ele><time>2026-04-17T09:16:12.942Z</time></trkpt><trkpt lat="44.7584983" lon="9.3818117"><ele>266.6666666666667</ele><time>2026-04-17T09:16:13.942Z</time></trkpt><trkpt lat="44.7582783" lon="9.381855"><ele>267.0</ele><time>2026-04-17T09:16:14.942Z</time></trkpt><trkpt lat="44.75805" lon="9.3819033"><ele>267.0</ele><time>2026-04-17T09:16:15.942Z</time></trkpt><trkpt lat="44.75784" lon="9.3819483"><ele>267.0</ele><time>2026-04-17T09:16:16.942Z</time></trkpt><trkpt lat="44.7576467" lon="9.381985"><ele>267.0</ele><time>2026-04-17T09:16:17.942Z</time></trkpt><trkpt lat="44.757435" lon="9.3820317"><ele>268.0</ele><time>2026-04-17T09:16:18.942Z</time></trkpt><trkpt lat="44.7571983" lon="9.38207"><ele>269.0</ele><time>2026-04-17T09:16:19.942Z</time></trkpt><trkpt lat="44.7569417" lon="9.3820867"><ele>270.0</ele><time>2026-04-17T09:16:20.942Z</time></trkpt><trkpt lat="44.7566733" lon="9.3820683"><ele>271.0</ele><time>2026-04-17T09:16:21.942Z</time></trkpt><trkpt lat="44.756395" lon="9.3819967"><ele>271.0</ele><time>2026-04-17T09:16:22.942Z</time></trkpt><trkpt lat="44.7561183" lon="9.3818683"><ele>271.0</ele><time>2026-04-17T09:16:23.942Z</time></trkpt><trkpt lat="44.755845" lon="9.3816733"><ele>270.5</ele><time>2026-04-17T09:16:24.942Z</time></trkpt><trkpt lat="44.7555667" lon="9.38143"><ele>270.0</ele><time>2026-04-17T09:16:25.942Z</time></trkpt><trkpt lat="44.7552633" lon="9.3811667"><ele>270.5</ele><time>2026-04-17T09:16:26.942Z</time></trkpt><trkpt lat="44.75496" lon="9.380895"><ele>271.0</ele><time>2026-04-17T09:16:27.942Z</time></trkpt><trkpt lat="44.7546733" lon="9.3806317"><ele>271.0</ele><time>2026-04-17T09:16:28.942Z</time></trkpt><trkpt lat="44.7544117" lon="9.3803883"><ele>271.0</ele><time>2026-04-17T09:16:29.942Z</time></trkpt><trkpt lat="44.7541683" lon="9.3801683"><ele>271.0</ele><time>2026-04-17T09:16:30.942Z</time></trkpt><trkpt lat="44.753905" lon="9.3800083"><ele>271.0</ele><time>2026-04-17T09:16:31.942Z</time></trkpt><trkpt lat="44.7536067" lon="9.37991"><ele>267.5</ele><time>2026-04-17T09:16:32.942Z</time></trkpt><trkpt lat="44.7532817" lon="9.37986"><ele>264.0</ele><time>2026-04-17T09:16:33.942Z</time></trkpt><trkpt lat="44.7529433" lon="9.3798283"><ele>263.0</ele><time>2026-04-17T09:16:34.942Z</time></trkpt><trkpt lat="44.75259" lon="9.3797967"><ele>262.0</ele><time>2026-04-17T09:16:35.942Z</time></trkpt><trkpt lat="44.7522283" lon="9.3797633"><ele>263.5</ele><time>2026-04-17T09:16:36.942Z</time></trkpt><trkpt lat="44.7518667" lon="9.379725"><ele>265.0</ele><time>2026-04-17T09:16:37.942Z</time></trkpt><trkpt lat="44.7515133" lon="9.3796917"><ele>264.5</ele><time>2026-04-17T09:16:38.943Z</time></trkpt><trkpt lat="44.7511733" lon="9.379665"><ele>264.0</ele><time>2026-04-17T09:16:39.942Z</time></trkpt><trkpt lat="44.7508567" lon="9.37964"><ele>265.5</ele><time>2026-04-17T09:16:40.942Z</time></trkpt><trkpt lat="44.750565" lon="9.3796183"><ele>267.0</ele><time>2026-04-17T09:16:41.942Z</time></trkpt><trkpt lat="44.7502867" lon="9.3796183"><ele>267.0</ele><time>2026-04-17T09:16:42.942Z</time></trkpt><trkpt lat="44.7500183" lon="9.3796717"><ele>267.0</ele><time>2026-04-17T09:16:43.942Z</time></trkpt><trkpt lat="44.7497683" lon="9.3797783"><ele>268.5</ele><time>2026-04-17T09:16:44.942Z</time></trkpt><trkpt lat="44.7495533" lon="9.3799233"><ele>270.0</ele><time>2026-04-17T09:16:45.942Z</time></trkpt><trkpt lat="44.749365" lon="9.38009"><ele>272.0</ele><time>2026-04-17T09:16:46.942Z</time></trkpt><trkpt lat="44.7492033" lon="9.3802783"><ele>274.0</ele><time>2026-04-17T09:16:47.942Z</time></trkpt><trkpt lat="44.7490767" lon="9.3804733"><ele>276.0</ele><time>2026-04-17T09:16:48.942Z</time></trkpt><trkpt lat="44.748975" lon="9.380665"><ele>278.25</ele><time>2026-04-17T09:16:49.943Z</time></trkpt><trkpt lat="44.7488933" lon="9.3808483"><ele>280.5</ele><time>2026-04-17T09:16:50.942Z</time></trkpt><trkpt lat="44.7488383" lon="9.3810183"><ele>282.75</ele><time>2026-04-17T09:16:51.942Z</time></trkpt><trkpt lat="44.7487917" lon="9.3812"><ele>285.0</ele><time>2026-04-17T09:16:52.942Z</time></trkpt><trkpt lat="44.7487633" lon="9.3813883"><ele>289.6666666666667</ele><time>2026-04-17T09:16:53.942Z</time></trkpt><trkpt lat="44.7487283" lon="9.38158"><ele>294.33333333333337</ele><time>2026-04-17T09:16:54.942Z</time></trkpt><trkpt lat="44.748715" lon="9.3817833"><ele>299.0</ele><time>2026-04-17T09:16:55.942Z</time></trkpt><trkpt lat="44.74872" lon="9.3820167"><ele>302.5</ele><time>2026-04-17T09:16:56.942Z</time></trkpt><trkpt lat="44.748745" lon="9.3823067"><ele>306.0</ele><time>2026-04-17T09:16:57.942Z</time></trkpt><trkpt lat="44.7487867" lon="9.38265"><ele>306.5</ele><time>2026-04-17T09:16:58.942Z</time></trkpt><trkpt lat="44.7488417" lon="9.3830233"><ele>307.0</ele><time>2026-04-17T09:16:59.942Z</time></trkpt><trkpt lat="44.7488983" lon="9.3834267"><ele>307.0</ele><time>2026-04-17T09:17:00.942Z</time></trkpt><trkpt lat="44.748935" lon="9.3838417"><ele>307.0</ele><time>2026-04-17T09:17:01.942Z</time></trkpt><trkpt lat="44.7489467" lon="9.384275"><ele>308.0</ele><time>2026-04-17T09:17:02.942Z</time></trkpt><trkpt lat="44.748945" lon="9.3847067"><ele>309.0</ele><time>2026-04-17T09:17:03.942Z</time></trkpt><trkpt lat="44.7489383" lon="9.38512"><ele>313.0</ele><time>2026-04-17T09:17:04.942Z</time></trkpt><trkpt lat="44.7489333" lon="9.3855167"><ele>317.0</ele><time>2026-04-17T09:17:05.942Z</time></trkpt><trkpt lat="44.74893" lon="9.385885"><ele>317.0</ele><time>2026-04-17T09:17:06.942Z</time></trkpt><trkpt lat="44.748905" lon="9.3862533"><ele>317.0</ele><time>2026-04-17T09:17:07.942Z</time></trkpt><trkpt lat="44.7488633" lon="9.3865983"><ele>321.6666666666667</ele><time>2026-04-17T09:17:08.942Z</time></trkpt><trkpt lat="44.7488083" lon="9.3869167"><ele>326.3333333333333</ele><time>2026-04-17T09:17:09.942Z</time></trkpt><trkpt lat="44.7487483" lon="9.3872"><ele>331.0</ele><time>2026-04-17T09:17:10.942Z</time></trkpt><trkpt lat="44.7486833" lon="9.3874483"><ele>336.3333333333333</ele><time>2026-04-17T09:17:11.942Z</time></trkpt><trkpt lat="44.7486217" lon="9.3876717"><ele>341.6666666666667</ele><time>2026-04-17T09:17:12.942Z</time></trkpt><trkpt lat="44.7485483" lon="9.3878833"><ele>347.0</ele><time>2026-04-17T09:17:13.942Z</time></trkpt><trkpt lat="44.748455" lon="9.3881083"><ele>343.6666666666667</ele><time>2026-04-17T09:17:14.942Z</time></trkpt><trkpt lat="44.7483433" lon="9.38837"><ele>340.3333333333333</ele><time>2026-04-17T09:17:15.942Z</time></trkpt><trkpt lat="44.74823" lon="9.388635"><ele>337.0</ele><time>2026-04-17T09:17:16.942Z</time></trkpt><trkpt lat="44.748115" lon="9.38888"><ele>337.0</ele><time>2026-04-17T09:17:17.942Z</time></trkpt><trkpt lat="44.7480017" lon="9.3891"><ele>337.0</ele><time>2026-04-17T09:17:18.942Z</time></trkpt><trkpt lat="44.7478817" lon="9.3893033"><ele>337.0</ele><time>2026-04-17T09:17:19.942Z</time></trkpt><trkpt lat="44.74775" lon="9.3894967"><ele>332.66666666666663</ele><time>2026-04-17T09:17:20.942Z</time></trkpt><trkpt lat="44.7475967" lon="9.3896617"><ele>328.3333333333333</ele><time>2026-04-17T09:17:21.942Z</time></trkpt><trkpt lat="44.7474483" lon="9.3897967"><ele>324.0</ele><time>2026-04-17T09:17:22.942Z</time></trkpt><trkpt lat="44.7472983" lon="9.389905"><ele>324.0</ele><time>2026-04-17T09:17:23.942Z</time></trkpt><trkpt lat="44.7471467" lon="9.38999"><ele>324.0</ele><time>2026-04-17T09:17:24.942Z</time></trkpt><trkpt lat="44.7469883" lon="9.3900517"><ele>324.0</ele><time>2026-04-17T09:17:25.942Z</time></trkpt><trkpt lat="44.7468317" lon="9.3900967"><ele>318.0</ele><time>2026-04-17T09:17:26.942Z</time></trkpt><trkpt lat="44.7466767" lon="9.3901217"><ele>312.0</ele><time>2026-04-17T09:17:27.943Z</time></trkpt><trkpt lat="44.7465233" lon="9.39013"><ele>306.0</ele><time>2026-04-17T09:17:28.942Z</time></trkpt><trkpt lat="44.7463667" lon="9.3901217"><ele>306.0</ele><time>2026-04-17T09:17:29.942Z</time></trkpt><trkpt lat="44.74621" lon="9.39009"><ele>306.0</ele><time>2026-04-17T09:17:30.942Z</time></trkpt><trkpt lat="44.7460517" lon="9.39004"><ele>306.0</ele><time>2026-04-17T09:17:31.942Z</time></trkpt><trkpt lat="44.7458933" lon="9.389975"><ele>301.0</ele><time>2026-04-17T09:17:32.942Z</time></trkpt><trkpt lat="44.7457267" lon="9.3899017"><ele>296.0</ele><time>2026-04-17T09:17:33.943Z</time></trkpt><trkpt lat="44.74555" lon="9.3898017"><ele>291.0</ele><time>2026-04-17T09:17:34.943Z</time></trkpt><trkpt lat="44.7453833" lon="9.38967"><ele>291.0</ele><time>2026-04-17T09:17:35.943Z</time></trkpt><trkpt lat="44.7452283" lon="9.3895433"><ele>291.0</ele><time>2026-04-17T09:17:36.943Z</time></trkpt><trkpt lat="44.7450817" lon="9.389415"><ele>291.0</ele><time>2026-04-17T09:17:37.943Z</time></trkpt><trkpt lat="44.744945" lon="9.3893033"><ele>298.6666666666667</ele><time>2026-04-17T09:17:38.943Z</time></trkpt><trkpt lat="44.74481" lon="9.3891967"><ele>306.33333333333337</ele><time>2026-04-17T09:17:39.943Z</time></trkpt><trkpt lat="44.7446683" lon="9.3891183"><ele>314.0</ele><time>2026-04-17T09:17:40.943Z</time></trkpt><trkpt lat="44.74453" lon="9.3890517"><ele>314.0</ele><time>2026-04-17T09:17:41.943Z</time></trkpt><trkpt lat="44.7443833" lon="9.389005"><ele>314.0</ele><time>2026-04-17T09:17:42.943Z</time></trkpt><trkpt lat="44.7442067" lon="9.3889783"><ele>314.0</ele><time>2026-04-17T09:17:43.943Z</time></trkpt><trkpt lat="44.744015" lon="9.3889617"><ele>319.33333333333337</ele><time>2026-04-17T09:17:44.943Z</time></trkpt><trkpt lat="44.7438333" lon="9.3889517"><ele>324.6666666666667</ele><time>2026-04-17T09:17:45.943Z</time></trkpt><trkpt lat="44.743665" lon="9.3889417"><ele>330.0</ele><time>2026-04-17T09:17:46.943Z</time></trkpt><trkpt lat="44.74352" lon="9.38896"><ele>334.25</ele><time>2026-04-17T09:17:47.943Z</time></trkpt><trkpt lat="44.7433817" lon="9.3889583"><ele>338.5</ele><time>2026-04-17T09:17:48.943Z</time></trkpt><trkpt lat="44.7432517" lon="9.3889233"><ele>342.75</ele><time>2026-04-17T09:17:49.943Z</time></trkpt><trkpt lat="44.7431333" lon="9.38888"><ele>347.0</ele><time>2026-04-17T09:17:50.943Z</time></trkpt><trkpt lat="44.7430283" lon="9.38883"><ele>344.6666666666667</ele><time>2026-04-17T09:17:51.943Z</time></trkpt><trkpt lat="44.7429417" lon="9.38878"><ele>342.33333333333337</ele><time>2026-04-17T09:17:52.943Z</time></trkpt><trkpt lat="44.74287" lon="9.38874"><ele>340.0</ele><time>2026-04-17T09:17:53.943Z</time></trkpt><trkpt lat="44.74279" lon="9.388685"><ele>337.6666666666667</ele><time>2026-04-17T09:17:55.943Z</time></trkpt><trkpt lat="44.7427183" lon="9.3886433"><ele>335.3333333333333</ele><time>2026-04-17T09:18:01.943Z</time></trkpt><trkpt lat="44.7426333" lon="9.3886017"><ele>333.0</ele><time>2026-04-17T09:18:03.943Z</time></trkpt><trkpt lat="44.7425433" lon="9.388545"><ele>333.0</ele><time>2026-04-17T09:18:05.943Z</time></trkpt><trkpt lat="44.7424833" lon="9.38851"><ele>333.0</ele><time>2026-04-17T09:18:06.943Z</time></trkpt><trkpt lat="44.7424183" lon="9.3884667"><ele>333.0</ele><time>2026-04-17T09:18:07.944Z</time></trkpt><trkpt lat="44.742355" lon="9.3884283"><ele>333.0</ele><time>2026-04-17T09:18:08.943Z</time></trkpt><trkpt lat="44.742295" lon="9.3883917"><ele>333.0</ele><time>2026-04-17T09:18:09.943Z</time></trkpt><trkpt lat="44.7422333" lon="9.3883583"><ele>333.0</ele><time>2026-04-17T09:18:10.943Z</time></trkpt><trkpt lat="44.74217" lon="9.3883267"><ele>333.0</ele><time>2026-04-17T09:18:11.943Z</time></trkpt><trkpt lat="44.7421083" lon="9.388295"><ele>316.0</ele><time>2026-04-17T09:18:12.943Z</time></trkpt><trkpt lat="44.7401283" lon="9.3872333"><ele>316.0</ele><time>2026-04-17T09:18:27.943Z</time></trkpt><trkpt lat="44.739995" lon="9.387185"><ele>316.0</ele><time>2026-04-17T09:18:28.943Z</time></trkpt><trkpt lat="44.739855" lon="9.3871717"><ele>316.0</ele><time>2026-04-17T09:18:29.943Z</time></trkpt><trkpt lat="44.7397017" lon="9.387165"><ele>316.0</ele><time>2026-04-17T09:18:30.943Z</time></trkpt><trkpt lat="44.7395467" lon="9.3871917"><ele>316.0</ele><time>2026-04-17T09:18:31.943Z</time></trkpt><trkpt lat="44.739385" lon="9.3872367"><ele>316.0</ele><time>2026-04-17T09:18:32.943Z</time></trkpt><trkpt lat="44.7392233" lon="9.38731"><ele>316.0</ele><time>2026-04-17T09:18:33.943Z</time></trkpt><trkpt lat="44.7390717" lon="9.387405"><ele>320.0</ele><time>2026-04-17T09:18:34.943Z</time></trkpt><trkpt lat="44.7389183" lon="9.3875333"><ele>324.0</ele><time>2026-04-17T09:18:35.943Z</time></trkpt><trkpt lat="44.738775" lon="9.3876817"><ele>328.0</ele><time>2026-04-17T09:18:36.943Z</time></trkpt><trkpt lat="44.7386067" lon="9.38788"><ele>327.0</ele><time>2026-04-17T09:18:37.943Z</time></trkpt><trkpt lat="44.7384233" lon="9.3881083"><ele>326.0</ele><time>2026-04-17T09:18:38.943Z</time></trkpt><trkpt lat="44.7382583" lon="9.3883433"><ele>326.0</ele><time>2026-04-17T09:18:39.943Z</time></trkpt><trkpt lat="44.73807" lon="9.3885717"><ele>326.0</ele><time>2026-04-17T09:18:40.943Z</time></trkpt><trkpt lat="44.7378883" lon="9.3887717"><ele>328.33333333333337</ele><time>2026-04-17T09:18:41.944Z</time></trkpt><trkpt lat="44.7377083" lon="9.3889567"><ele>330.6666666666667</ele><time>2026-04-17T09:18:42.943Z</time></trkpt><trkpt lat="44.7375267" lon="9.38913"><ele>333.0</ele><time>2026-04-17T09:18:43.943Z</time></trkpt><trkpt lat="44.7373433" lon="9.38929"><ele>333.0</ele><time>2026-04-17T09:18:44.943Z</time></trkpt><trkpt lat="44.73716" lon="9.3894283"><ele>333.0</ele><time>2026-04-17T09:18:45.944Z</time></trkpt><trkpt lat="44.736965" lon="9.38954"><ele>333.0</ele><time>2026-04-17T09:18:46.943Z</time></trkpt><trkpt lat="44.73676" lon="9.38962"><ele>328.5</ele><time>2026-04-17T09:18:47.943Z</time></trkpt><trkpt lat="44.73653" lon="9.3896733"><ele>324.0</ele><time>2026-04-17T09:18:48.943Z</time></trkpt><trkpt lat="44.7362667" lon="9.3897067"><ele>342.0</ele><time>2026-04-17T09:18:49.943Z</time></trkpt><trkpt lat="44.735985" lon="9.3897167"><ele>360.0</ele><time>2026-04-17T09:18:50.943Z</time></trkpt><trkpt lat="44.73571" lon="9.3897267"><ele>360.0</ele><time>2026-04-17T09:18:51.943Z</time></trkpt><trkpt lat="44.7354717" lon="9.3897083"><ele>360.0</ele><time>2026-04-17T09:18:52.943Z</time></trkpt><trkpt lat="44.7352817" lon="9.3896567"><ele>360.0</ele><time>2026-04-17T09:18:53.943Z</time></trkpt><trkpt lat="44.7351267" lon="9.38961"><ele>350.0</ele><time>2026-04-17T09:18:54.943Z</time></trkpt><trkpt lat="44.734985" lon="9.3895483"><ele>340.0</ele><time>2026-04-17T09:18:55.943Z</time></trkpt><trkpt lat="44.7348383" lon="9.3894733"><ele>330.0</ele><time>2026-04-17T09:18:56.944Z</time></trkpt><trkpt lat="44.7346717" lon="9.3893583"><ele>330.0</ele><time>2026-04-17T09:18:57.942Z</time></trkpt><trkpt lat="44.734475" lon="9.389245"><ele>330.0</ele><time>2026-04-17T09:18:58.942Z</time></trkpt><trkpt lat="44.7342517" lon="9.3891633"><ele>330.0</ele><time>2026-04-17T09:18:59.942Z</time></trkpt><trkpt lat="44.7340133" lon="9.3891167"><ele>337.5</ele><time>2026-04-17T09:19:00.942Z</time></trkpt><trkpt lat="44.7337817" lon="9.38912"><ele>345.0</ele><time>2026-04-17T09:19:01.942Z</time></trkpt><trkpt lat="44.73356" lon="9.389115"><ele>346.0</ele><time>2026-04-17T09:19:02.942Z</time></trkpt><trkpt lat="44.7333433" lon="9.3891017"><ele>347.0</ele><time>2026-04-17T09:19:03.942Z</time></trkpt><trkpt lat="44.7331217" lon="9.3890483"><ele>348.0</ele><time>2026-04-17T09:19:04.942Z</time></trkpt><trkpt lat="44.73291" lon="9.3889967"><ele>355.0</ele><time>2026-04-17T09:19:05.942Z</time></trkpt><trkpt lat="44.7327183" lon="9.3889733"><ele>362.0</ele><time>2026-04-17T09:19:06.942Z</time></trkpt><trkpt lat="44.7325533" lon="9.3889467"><ele>369.0</ele><time>2026-04-17T09:19:07.942Z</time></trkpt><trkpt lat="44.7324067" lon="9.3888883"><ele>352.0</ele><time>2026-04-17T09:19:08.942Z</time></trkpt><trkpt lat="44.7322933" lon="9.3887783"><ele>335.0</ele><time>2026-04-17T09:19:09.942Z</time></trkpt><trkpt lat="44.7321817" lon="9.38864"><ele>318.0</ele><time>2026-04-17T09:19:10.942Z</time></trkpt><trkpt lat="44.73203" lon="9.38851"><ele>325.6666666666667</ele><time>2026-04-17T09:19:11.942Z</time></trkpt><trkpt lat="44.731855" lon="9.38841"><ele>333.33333333333337</ele><time>2026-04-17T09:19:12.942Z</time></trkpt><trkpt lat="44.731675" lon="9.3883583"><ele>341.0</ele><time>2026-04-17T09:19:13.942Z</time></trkpt><trkpt lat="44.7315017" lon="9.3883717"><ele>341.0</ele><time>2026-04-17T09:19:14.942Z</time></trkpt><trkpt lat="44.73134" lon="9.3884117"><ele>341.0</ele><time>2026-04-17T09:19:15.942Z</time></trkpt><trkpt lat="44.7311917" lon="9.3884333"><ele>341.0</ele><time>2026-04-17T09:19:16.942Z</time></trkpt><trkpt lat="44.731055" lon="9.3884067"><ele>345.75</ele><time>2026-04-17T09:19:17.942Z</time></trkpt><trkpt lat="44.7309433" lon="9.3883083"><ele>350.5</ele><time>2026-04-17T09:19:18.942Z</time></trkpt><trkpt lat="44.7308633" lon="9.38818"><ele>355.25</ele><time>2026-04-17T09:19:19.942Z</time></trkpt><trkpt lat="44.7307683" lon="9.388075"><ele>360.0</ele><time>2026-04-17T09:19:20.942Z</time></trkpt><trkpt lat="44.7306367" lon="9.38802"><ele>352.0</ele><time>2026-04-17T09:19:21.942Z</time></trkpt><trkpt lat="44.730475" lon="9.388"><ele>344.0</ele><time>2026-04-17T09:19:22.942Z</time></trkpt><trkpt lat="44.730295" lon="9.38795"><ele>336.0</ele><time>2026-04-17T09:19:23.942Z</time></trkpt><trkpt lat="44.7301033" lon="9.38784"><ele>336.0</ele><time>2026-04-17T09:19:24.942Z</time></trkpt><trkpt lat="44.7299183" lon="9.3877383"><ele>336.0</ele><time>2026-04-17T09:19:25.942Z</time></trkpt><trkpt lat="44.729765" lon="9.3876117"><ele>336.0</ele><time>2026-04-17T09:19:26.942Z</time></trkpt><trkpt lat="44.7296367" lon="9.387475"><ele>336.0</ele><time>2026-04-17T09:19:27.942Z</time></trkpt><trkpt lat="44.7295083" lon="9.3873767"><ele>336.0</ele><time>2026-04-17T09:19:28.942Z</time></trkpt><trkpt lat="44.7293717" lon="9.3873283"><ele>336.0</ele><time>2026-04-17T09:19:29.942Z</time></trkpt><trkpt lat="44.7292267" lon="9.3873233"><ele>336.0</ele><time>2026-04-17T09:19:30.942Z</time></trkpt><trkpt lat="44.72908" lon="9.3873"><ele>332.0</ele><time>2026-04-17T09:19:31.942Z</time></trkpt><trkpt lat="44.7289517" lon="9.387245"><ele>328.0</ele><time>2026-04-17T09:19:32.942Z</time></trkpt><trkpt lat="44.728845" lon="9.387145"><ele>324.0</ele><time>2026-04-17T09:19:33.942Z</time></trkpt><trkpt lat="44.7287733" lon="9.3870033"><ele>320.0</ele><time>2026-04-17T09:19:34.942Z</time></trkpt><trkpt lat="44.728725" lon="9.3868467"><ele>320.0</ele><time>2026-04-17T09:19:35.942Z</time></trkpt><trkpt lat="44.7286583" lon="9.3867117"><ele>320.0</ele><time>2026-04-17T09:19:36.942Z</time></trkpt><trkpt lat="44.7285583" lon="9.3866267"><ele>320.0</ele><time>2026-04-17T09:19:37.942Z</time></trkpt><trkpt lat="44.7284133" lon="9.3865717"><ele>320.0</ele><time>2026-04-17T09:19:38.942Z</time></trkpt><trkpt lat="44.7282217" lon="9.3865167"><ele>311.0</ele><time>2026-04-17T09:19:39.943Z</time></trkpt><trkpt lat="44.7280017" lon="9.3864417"><ele>302.0</ele><time>2026-04-17T09:19:40.942Z</time></trkpt><trkpt lat="44.7277817" lon="9.3863333"><ele>317.5</ele><time>2026-04-17T09:19:41.942Z</time></trkpt><trkpt lat="44.7275683" lon="9.3861883"><ele>333.0</ele><time>2026-04-17T09:19:42.942Z</time></trkpt><trkpt lat="44.727365" lon="9.38604"><ele>333.0</ele><time>2026-04-17T09:19:43.942Z</time></trkpt><trkpt lat="44.7271783" lon="9.3859"><ele>333.0</ele><time>2026-04-17T09:19:44.942Z</time></trkpt><trkpt lat="44.7270183" lon="9.3857583"><ele>333.0</ele><time>2026-04-17T09:19:45.942Z</time></trkpt><trkpt lat="44.7268917" lon="9.3856083"><ele>327.6666666666667</ele><time>2026-04-17T09:19:46.942Z</time></trkpt><trkpt lat="44.72676" lon="9.385465"><ele>322.33333333333337</ele><time>2026-04-17T09:19:47.942Z</time></trkpt><trkpt lat="44.7266183" lon="9.3853633"><ele>317.0</ele><time>2026-04-17T09:19:48.942Z</time></trkpt><trkpt lat="44.7264833" lon="9.3852867"><ele>317.0</ele><time>2026-04-17T09:19:49.942Z</time></trkpt><trkpt lat="44.7263667" lon="9.385215"><ele>317.0</ele><time>2026-04-17T09:19:50.942Z</time></trkpt><trkpt lat="44.7262717" lon="9.3852017"><ele>317.0</ele><time>2026-04-17T09:19:51.942Z</time></trkpt><trkpt lat="44.7261883" lon="9.3852567"><ele>317.0</ele><time>2026-04-17T09:19:52.942Z</time></trkpt><trkpt lat="44.7261567" lon="9.3853733"><ele>317.0</ele><time>2026-04-17T09:19:53.942Z</time></trkpt><trkpt lat="44.7261617" lon="9.385525"><ele>330.33333333333337</ele><time>2026-04-17T09:19:54.942Z</time></trkpt><trkpt lat="44.7261867" lon="9.3857283"><ele>343.6666666666667</ele><time>2026-04-17T09:19:55.942Z</time></trkpt><trkpt lat="44.7262367" lon="9.3860033"><ele>357.0</ele><time>2026-04-17T09:19:56.942Z</time></trkpt><trkpt lat="44.7262967" lon="9.3863067"><ele>363.3333333333333</ele><time>2026-04-17T09:19:57.942Z</time></trkpt><trkpt lat="44.7263367" lon="9.3865767"><ele>369.66666666666663</ele><time>2026-04-17T09:19:58.942Z</time></trkpt><trkpt lat="44.72634" lon="9.3868417"><ele>376.0</ele><time>2026-04-17T09:19:59.942Z</time></trkpt><trkpt lat="44.7263" lon="9.3871217"><ele>385.5</ele><time>2026-04-17T09:20:00.942Z</time></trkpt><trkpt lat="44.7262133" lon="9.3874117"><ele>395.0</ele><time>2026-04-17T09:20:01.942Z</time></trkpt><trkpt lat="44.7260933" lon="9.3876983"><ele>382.0</ele><time>2026-04-17T09:20:02.942Z</time></trkpt><trkpt lat="44.7259583" lon="9.387965"><ele>369.0</ele><time>2026-04-17T09:20:03.942Z</time></trkpt><trkpt lat="44.7258067" lon="9.38821"><ele>369.0</ele><time>2026-04-17T09:20:04.942Z</time></trkpt><trkpt lat="44.725635" lon="9.3884367"><ele>369.0</ele><time>2026-04-17T09:20:05.943Z</time></trkpt><trkpt lat="44.725455" lon="9.3886267"><ele>369.0</ele><time>2026-04-17T09:20:06.942Z</time></trkpt><trkpt lat="44.72528" lon="9.38878"><ele>369.0</ele><time>2026-04-17T09:20:07.942Z</time></trkpt><trkpt lat="44.7251167" lon="9.3889067"><ele>369.0</ele><time>2026-04-17T09:20:08.942Z</time></trkpt><trkpt lat="44.7249733" lon="9.3890517"><ele>365.6666666666667</ele><time>2026-04-17T09:20:09.942Z</time></trkpt><trkpt lat="44.7248583" lon="9.3892317"><ele>362.33333333333337</ele><time>2026-04-17T09:20:10.942Z</time></trkpt><trkpt lat="44.7247783" lon="9.3894533"><ele>359.0</ele><time>2026-04-17T09:20:11.942Z</time></trkpt><trkpt lat="44.7247233" lon="9.389685"><ele>359.0</ele><time>2026-04-17T09:20:12.942Z</time></trkpt><trkpt lat="44.7246933" lon="9.3899067"><ele>359.0</ele><time>2026-04-17T09:20:13.942Z</time></trkpt><trkpt lat="44.7247083" lon="9.3901033"><ele>359.0</ele><time>2026-04-17T09:20:14.942Z</time></trkpt><trkpt lat="44.7247583" lon="9.3902733"><ele>359.0</ele><time>2026-04-17T09:20:15.942Z</time></trkpt><trkpt lat="44.7248117" lon="9.3904283"><ele>355.33333333333337</ele><time>2026-04-17T09:20:16.942Z</time></trkpt><trkpt lat="44.72485" lon="9.3905967"><ele>351.6666666666667</ele><time>2026-04-17T09:20:17.942Z</time></trkpt><trkpt lat="44.7248383" lon="9.3908067"><ele>348.0</ele><time>2026-04-17T09:20:18.942Z</time></trkpt><trkpt lat="44.7247883" lon="9.39107"><ele>352.6666666666667</ele><time>2026-04-17T09:20:19.942Z</time></trkpt><trkpt lat="44.724725" lon="9.3913667"><ele>357.33333333333337</ele><time>2026-04-17T09:20:20.942Z</time></trkpt><trkpt lat="44.724655" lon="9.3916667"><ele>362.0</ele><time>2026-04-17T09:20:21.942Z</time></trkpt><trkpt lat="44.7245833" lon="9.3919567"><ele>367.6666666666667</ele><time>2026-04-17T09:20:22.942Z</time></trkpt><trkpt lat="44.7245067" lon="9.3922233"><ele>373.3333333333333</ele><time>2026-04-17T09:20:23.942Z</time></trkpt><trkpt lat="44.7244067" lon="9.392475"><ele>379.0</ele><time>2026-04-17T09:20:24.942Z</time></trkpt><trkpt lat="44.72428" lon="9.3927167"><ele>374.66666666666663</ele><time>2026-04-17T09:20:25.942Z</time></trkpt><trkpt lat="44.72415" lon="9.3929483"><ele>370.3333333333333</ele><time>2026-04-17T09:20:26.942Z</time></trkpt><trkpt lat="44.72403" lon="9.3931667"><ele>366.0</ele><time>2026-04-17T09:20:27.942Z</time></trkpt><trkpt lat="44.7239183" lon="9.393365"><ele>366.0</ele><time>2026-04-17T09:20:28.942Z</time></trkpt><trkpt lat="44.7238" lon="9.3935317"><ele>366.0</ele><time>2026-04-17T09:20:29.942Z</time></trkpt><trkpt lat="44.72366" lon="9.3936683"><ele>366.0</ele><time>2026-04-17T09:20:30.942Z</time></trkpt><trkpt lat="44.72348" lon="9.393805"><ele>366.6666666666667</ele><time>2026-04-17T09:20:31.942Z</time></trkpt><trkpt lat="44.72328" lon="9.3939067"><ele>367.33333333333337</ele><time>2026-04-17T09:20:32.942Z</time></trkpt><trkpt lat="44.723075" lon="9.3939983"><ele>368.0</ele><time>2026-04-17T09:20:33.942Z</time></trkpt><trkpt lat="44.7228933" lon="9.3940767"><ele>368.0</ele><time>2026-04-17T09:20:34.942Z</time></trkpt><trkpt lat="44.72274" lon="9.3941483"><ele>368.0</ele><time>2026-04-17T09:20:35.942Z</time></trkpt><trkpt lat="44.7226333" lon="9.394245"><ele>368.0</ele><time>2026-04-17T09:20:36.942Z</time></trkpt><trkpt lat="44.7225733" lon="9.394375"><ele>368.0</ele><time>2026-04-17T09:20:37.942Z</time></trkpt><trkpt lat="44.7225267" lon="9.3944767"><ele>362.4</ele><time>2026-04-17T09:20:38.942Z</time></trkpt><trkpt lat="44.72246" lon="9.39455"><ele>356.79999999999995</ele><time>2026-04-17T09:20:39.942Z</time></trkpt><trkpt lat="44.7223817" lon="9.3945683"><ele>351.2</ele><time>2026-04-17T09:20:40.942Z</time></trkpt><trkpt lat="44.7223067" lon="9.3945033"><ele>345.6</ele><time>2026-04-17T09:20:41.942Z</time></trkpt><trkpt lat="44.7222167" lon="9.3943583"><ele>340.0</ele><time>2026-04-17T09:20:42.942Z</time></trkpt><trkpt lat="44.7221067" lon="9.394185"><ele>340.0</ele><time>2026-04-17T09:20:43.942Z</time></trkpt><trkpt lat="44.7219867" lon="9.3940333"><ele>340.0</ele><time>2026-04-17T09:20:44.942Z</time></trkpt><trkpt lat="44.72185" lon="9.393905"><ele>340.0</ele><time>2026-04-17T09:20:45.942Z</time></trkpt><trkpt lat="44.7217067" lon="9.3938267"><ele>339.25</ele><time>2026-04-17T09:20:46.942Z</time></trkpt><trkpt lat="44.72157" lon="9.39379"><ele>338.5</ele><time>2026-04-17T09:20:47.942Z</time></trkpt><trkpt lat="44.7214333" lon="9.3937967"><ele>337.75</ele><time>2026-04-17T09:20:48.942Z</time></trkpt><trkpt lat="44.721315" lon="9.39384"><ele>337.0</ele><time>2026-04-17T09:20:49.942Z</time></trkpt><trkpt lat="44.72124" lon="9.39401"><ele>337.0</ele><time>2026-04-17T09:20:50.942Z</time></trkpt><trkpt lat="44.721185" lon="9.3942817"><ele>337.0</ele><time>2026-04-17T09:20:51.942Z</time></trkpt><trkpt lat="44.7210683" lon="9.3944933"><ele>337.0</ele><time>2026-04-17T09:20:52.942Z</time></trkpt><trkpt lat="44.7209433" lon="9.394685"><ele>340.0</ele><time>2026-04-17T09:20:53.942Z</time></trkpt><trkpt lat="44.7208117" lon="9.3948183"><ele>343.0</ele><time>2026-04-17T09:20:54.942Z</time></trkpt><trkpt lat="44.7206967" lon="9.3949133"><ele>346.0</ele><time>2026-04-17T09:20:55.942Z</time></trkpt><trkpt lat="44.7205767" lon="9.39494"><ele>349.0</ele><time>2026-04-17T09:20:56.942Z</time></trkpt><trkpt lat="44.7204783" lon="9.39491"><ele>349.0</ele><time>2026-04-17T09:20:57.942Z</time></trkpt><trkpt lat="44.7203933" lon="9.39482"><ele>349.0</ele><time>2026-04-17T09:20:58.942Z</time></trkpt><trkpt lat="44.7203317" lon="9.3946717"><ele>349.0</ele><time>2026-04-17T09:20:59.942Z</time></trkpt><trkpt lat="44.720345" lon="9.3944183"><ele>349.0</ele><time>2026-04-17T09:21:00.942Z</time></trkpt><trkpt lat="44.7203833" lon="9.39416"><ele>341.66666666666663</ele><time>2026-04-17T09:21:01.942Z</time></trkpt><trkpt lat="44.720465" lon="9.393885"><ele>334.3333333333333</ele><time>2026-04-17T09:21:02.942Z</time></trkpt><trkpt lat="44.7205683" lon="9.3936633"><ele>327.0</ele><time>2026-04-17T09:21:03.942Z</time></trkpt><trkpt lat="44.720675" lon="9.3934767"><ele>327.0</ele><time>2026-04-17T09:21:04.942Z</time></trkpt><trkpt lat="44.720725" lon="9.3932667"><ele>327.0</ele><time>2026-04-17T09:21:05.942Z</time></trkpt><trkpt lat="44.720725" lon="9.3930467"><ele>327.0</ele><time>2026-04-17T09:21:06.942Z</time></trkpt><trkpt lat="44.7207067" lon="9.3928367"><ele>325.3333333333333</ele><time>2026-04-17T09:21:07.942Z</time></trkpt><trkpt lat="44.7206317" lon="9.392635"><ele>323.66666666666663</ele><time>2026-04-17T09:21:08.942Z</time></trkpt><trkpt lat="44.7205083" lon="9.392445"><ele>322.0</ele><time>2026-04-17T09:21:09.942Z</time></trkpt><trkpt lat="44.72042" lon="9.3922083"><ele>317.66666666666663</ele><time>2026-04-17T09:21:10.942Z</time></trkpt><trkpt lat="44.7203383" lon="9.391965"><ele>313.3333333333333</ele><time>2026-04-17T09:21:11.942Z</time></trkpt><trkpt lat="44.7202883" lon="9.3917017"><ele>309.0</ele><time>2026-04-17T09:21:12.942Z</time></trkpt><trkpt lat="44.72026" lon="9.3914367"><ele>307.0</ele><time>2026-04-17T09:21:13.942Z</time></trkpt><trkpt lat="44.720235" lon="9.3911683"><ele>305.0</ele><time>2026-04-17T09:21:14.942Z</time></trkpt><trkpt lat="44.7202067" lon="9.3909033"><ele>303.0</ele><time>2026-04-17T09:21:15.942Z</time></trkpt><trkpt lat="44.7201717" lon="9.3906533"><ele>308.3333333333333</ele><time>2026-04-17T09:21:16.942Z</time></trkpt><trkpt lat="44.7201383" lon="9.39042"><ele>313.66666666666663</ele><time>2026-04-17T09:21:17.942Z</time></trkpt><trkpt lat="44.7200617" lon="9.3902183"><ele>319.0</ele><time>2026-04-17T09:21:18.942Z</time></trkpt><trkpt lat="44.71994" lon="9.3900517"><ele>319.0</ele><time>2026-04-17T09:21:19.942Z</time></trkpt><trkpt lat="44.7197717" lon="9.38995"><ele>319.0</ele><time>2026-04-17T09:21:20.942Z</time></trkpt><trkpt lat="44.7195633" lon="9.3899117"><ele>319.0</ele><time>2026-04-17T09:21:21.943Z</time></trkpt><trkpt lat="44.7193483" lon="9.3899117"><ele>320.3333333333333</ele><time>2026-04-17T09:21:22.942Z</time></trkpt><trkpt lat="44.7191517" lon="9.38995"><ele>321.6666666666667</ele><time>2026-04-17T09:21:23.942Z</time></trkpt><trkpt lat="44.7189567" lon="9.3900483"><ele>323.0</ele><time>2026-04-17T09:21:24.942Z</time></trkpt><trkpt lat="44.718745" lon="9.3901367"><ele>324.0</ele><time>2026-04-17T09:21:25.942Z</time></trkpt><trkpt lat="44.718505" lon="9.3901817"><ele>325.0</ele><time>2026-04-17T09:21:26.942Z</time></trkpt><trkpt lat="44.71823" lon="9.3901867"><ele>325.0</ele><time>2026-04-17T09:21:27.942Z</time></trkpt><trkpt lat="44.7179683" lon="9.3901567"><ele>325.0</ele><time>2026-04-17T09:21:28.942Z</time></trkpt><trkpt lat="44.717725" lon="9.3901417"><ele>328.5</ele><time>2026-04-17T09:21:29.942Z</time></trkpt><trkpt lat="44.7174983" lon="9.3901183"><ele>332.0</ele><time>2026-04-17T09:21:30.942Z</time></trkpt><trkpt lat="44.71727" lon="9.3900417"><ele>332.0</ele><time>2026-04-17T09:21:31.942Z</time></trkpt><trkpt lat="44.7170433" lon="9.3899333"><ele>332.0</ele><time>2026-04-17T09:21:32.942Z</time></trkpt><trkpt lat="44.7168283" lon="9.3898117"><ele>337.0</ele><time>2026-04-17T09:21:33.942Z</time></trkpt><trkpt lat="44.7166333" lon="9.3896883"><ele>342.0</ele><time>2026-04-17T09:21:34.942Z</time></trkpt><trkpt lat="44.71647" lon="9.3895517"><ele>347.0</ele><time>2026-04-17T09:21:35.942Z</time></trkpt><trkpt lat="44.71632" lon="9.38941"><ele>347.6666666666667</ele><time>2026-04-17T09:21:36.942Z</time></trkpt><trkpt lat="44.7161867" lon="9.3892733"><ele>348.3333333333333</ele><time>2026-04-17T09:21:37.942Z</time></trkpt><trkpt lat="44.7160733" lon="9.3891183"><ele>349.0</ele><time>2026-04-17T09:21:38.942Z</time></trkpt><trkpt lat="44.71598" lon="9.3889183"><ele>340.66666666666663</ele><time>2026-04-17T09:21:39.942Z</time></trkpt><trkpt lat="44.71588" lon="9.3887083"><ele>332.3333333333333</ele><time>2026-04-17T09:21:40.942Z</time></trkpt><trkpt lat="44.7157983" lon="9.3884867"><ele>324.0</ele><time>2026-04-17T09:21:41.942Z</time></trkpt><trkpt lat="44.71573" lon="9.3882917"><ele>324.0</ele><time>2026-04-17T09:21:42.942Z</time></trkpt><trkpt lat="44.7156667" lon="9.38811"><ele>324.0</ele><time>2026-04-17T09:21:43.942Z</time></trkpt><trkpt lat="44.71557" lon="9.3879333"><ele>324.0</ele><time>2026-04-17T09:21:44.942Z</time></trkpt><trkpt lat="44.715445" lon="9.3877383"><ele>324.6666666666667</ele><time>2026-04-17T09:21:45.942Z</time></trkpt><trkpt lat="44.71532" lon="9.387545"><ele>325.33333333333337</ele><time>2026-04-17T09:21:46.942Z</time></trkpt><trkpt lat="44.71521" lon="9.3873117"><ele>326.0</ele><time>2026-04-17T09:21:47.942Z</time></trkpt><trkpt lat="44.715115" lon="9.3870533"><ele>326.0</ele><time>2026-04-17T09:21:48.942Z</time></trkpt><trkpt lat="44.7150133" lon="9.3867617"><ele>326.0</ele><time>2026-04-17T09:21:49.942Z</time></trkpt><trkpt lat="44.7149067" lon="9.3864433"><ele>320.5</ele><time>2026-04-17T09:21:50.942Z</time></trkpt><trkpt lat="44.7147967" lon="9.3861083"><ele>315.0</ele><time>2026-04-17T09:21:51.942Z</time></trkpt><trkpt lat="44.714685" lon="9.3857967"><ele>315.0</ele><time>2026-04-17T09:21:52.942Z</time></trkpt><trkpt lat="44.7145833" lon="9.3855217"><ele>315.0</ele><time>2026-04-17T09:21:53.942Z</time></trkpt><trkpt lat="44.714505" lon="9.3852917"><ele>315.0</ele><time>2026-04-17T09:21:54.942Z</time></trkpt><trkpt lat="44.7144483" lon="9.385085"><ele>312.6666666666667</ele><time>2026-04-17T09:21:55.942Z</time></trkpt><trkpt lat="44.7144167" lon="9.3848617"><ele>310.33333333333337</ele><time>2026-04-17T09:21:56.942Z</time></trkpt><trkpt lat="44.71441" lon="9.3846017"><ele>308.0</ele><time>2026-04-17T09:21:57.942Z</time></trkpt><trkpt lat="44.7144167" lon="9.38431"><ele>308.0</ele><time>2026-04-17T09:21:58.942Z</time></trkpt><trkpt lat="44.7144583" lon="9.3840183"><ele>308.0</ele><time>2026-04-17T09:21:59.942Z</time></trkpt><trkpt lat="44.7145067" lon="9.3837483"><ele>308.0</ele><time>2026-04-17T09:22:00.942Z</time></trkpt><trkpt lat="44.714515" lon="9.3835117"><ele>309.33333333333337</ele><time>2026-04-17T09:22:01.942Z</time></trkpt><trkpt lat="44.71447" lon="9.3832883"><ele>310.6666666666667</ele><time>2026-04-17T09:22:02.942Z</time></trkpt><trkpt lat="44.7143833" lon="9.3831167"><ele>312.0</ele><time>2026-04-17T09:22:03.942Z</time></trkpt><trkpt lat="44.7142883" lon="9.3829617"><ele>313.25</ele><time>2026-04-17T09:22:04.943Z</time></trkpt><trkpt lat="44.7141967" lon="9.38282"><ele>314.5</ele><time>2026-04-17T09:22:05.942Z</time></trkpt><trkpt lat="44.7141117" lon="9.3826767"><ele>315.75</ele><time>2026-04-17T09:22:06.942Z</time></trkpt><trkpt lat="44.7140333" lon="9.3825333"><ele>317.0</ele><time>2026-04-17T09:22:07.943Z</time></trkpt><trkpt lat="44.713975" lon="9.3823833"><ele>317.0</ele><time>2026-04-17T09:22:08.942Z</time></trkpt><trkpt lat="44.7139367" lon="9.382225"><ele>317.0</ele><time>2026-04-17T09:22:09.942Z</time></trkpt><trkpt lat="44.713915" lon="9.3820517"><ele>317.0</ele><time>2026-04-17T09:22:10.942Z</time></trkpt><trkpt lat="44.7138983" lon="9.381875"><ele>317.0</ele><time>2026-04-17T09:22:11.942Z</time></trkpt><trkpt lat="44.713885" lon="9.3816933"><ele>316.25</ele><time>2026-04-17T09:22:12.942Z</time></trkpt><trkpt lat="44.7138667" lon="9.3815133"><ele>315.5</ele><time>2026-04-17T09:22:13.942Z</time></trkpt><trkpt lat="44.7138367" lon="9.3813383"><ele>314.75</ele><time>2026-04-17T09:22:14.942Z</time></trkpt><trkpt lat="44.7137983" lon="9.3811583"><ele>314.0</ele><time>2026-04-17T09:22:15.942Z</time></trkpt><trkpt lat="44.71373" lon="9.380995"><ele>314.0</ele><time>2026-04-17T09:22:16.942Z</time></trkpt><trkpt lat="44.71365" lon="9.380845"><ele>314.0</ele><time>2026-04-17T09:22:17.942Z</time></trkpt><trkpt lat="44.713565" lon="9.3807067"><ele>314.0</ele><time>2026-04-17T09:22:18.942Z</time></trkpt><trkpt lat="44.713485" lon="9.3805883"><ele>314.0</ele><time>2026-04-17T09:22:19.942Z</time></trkpt><trkpt lat="44.7134133" lon="9.3804817"><ele>314.83333333333337</ele><time>2026-04-17T09:22:20.942Z</time></trkpt><trkpt lat="44.7133467" lon="9.380385"><ele>315.6666666666667</ele><time>2026-04-17T09:22:21.942Z</time></trkpt><trkpt lat="44.7132767" lon="9.380315"><ele>316.5</ele><time>2026-04-17T09:22:22.942Z</time></trkpt><trkpt lat="44.713215" lon="9.3802533"><ele>317.3333333333333</ele><time>2026-04-17T09:22:23.942Z</time></trkpt><trkpt lat="44.713155" lon="9.3802017"><ele>318.16666666666663</ele><time>2026-04-17T09:22:24.942Z</time></trkpt><trkpt lat="44.7130867" lon="9.380165"><ele>319.0</ele><time>2026-04-17T09:22:25.942Z</time></trkpt><trkpt lat="44.7130067" lon="9.38013"><ele>319.0</ele><time>2026-04-17T09:22:26.942Z</time></trkpt><trkpt lat="44.7129133" lon="9.3801033"><ele>319.0</ele><time>2026-04-17T09:22:27.942Z</time></trkpt><trkpt lat="44.7127983" lon="9.3800717"><ele>319.0</ele><time>2026-04-17T09:22:28.942Z</time></trkpt><trkpt lat="44.7126517" lon="9.3800417"><ele>319.0</ele><time>2026-04-17T09:22:29.942Z</time></trkpt><trkpt lat="44.7124883" lon="9.3800183"><ele>320.0</ele><time>2026-04-17T09:22:30.942Z</time></trkpt><trkpt lat="44.7123067" lon="9.379995"><ele>321.0</ele><time>2026-04-17T09:22:31.942Z</time></trkpt><trkpt lat="44.7121267" lon="9.37998"><ele>322.0</ele><time>2026-04-17T09:22:32.942Z</time></trkpt><trkpt lat="44.7119567" lon="9.3799567"><ele>321.0</ele><time>2026-04-17T09:22:33.942Z</time></trkpt><trkpt lat="44.711805" lon="9.3799283"><ele>320.0</ele><time>2026-04-17T09:22:34.942Z</time></trkpt><trkpt lat="44.7116717" lon="9.3798667"><ele>319.0</ele><time>2026-04-17T09:22:35.942Z</time></trkpt><trkpt lat="44.71155" lon="9.37975"><ele>318.0</ele><time>2026-04-17T09:22:36.942Z</time></trkpt><trkpt lat="44.7114433" lon="9.379595"><ele>316.3333333333333</ele><time>2026-04-17T09:22:37.943Z</time></trkpt><trkpt lat="44.7113367" lon="9.379395"><ele>314.66666666666663</ele><time>2026-04-17T09:22:38.942Z</time></trkpt><trkpt lat="44.71122" lon="9.3791483"><ele>313.0</ele><time>2026-04-17T09:22:39.942Z</time></trkpt><trkpt lat="44.71109" lon="9.3788717"><ele>314.0</ele><time>2026-04-17T09:22:40.942Z</time></trkpt><trkpt lat="44.7109667" lon="9.3786"><ele>315.0</ele><time>2026-04-17T09:22:41.942Z</time></trkpt><trkpt lat="44.71085" lon="9.3783417"><ele>316.0</ele><time>2026-04-17T09:22:42.942Z</time></trkpt><trkpt lat="44.7107417" lon="9.3781017"><ele>318.66666666666663</ele><time>2026-04-17T09:22:43.942Z</time></trkpt><trkpt lat="44.710645" lon="9.37789"><ele>321.3333333333333</ele><time>2026-04-17T09:22:44.942Z</time></trkpt><trkpt lat="44.7105533" lon="9.3776967"><ele>324.0</ele><time>2026-04-17T09:22:45.942Z</time></trkpt><trkpt lat="44.710445" lon="9.3775433"><ele>324.0</ele><time>2026-04-17T09:22:46.942Z</time></trkpt><trkpt lat="44.7103183" lon="9.3774383"><ele>324.0</ele><time>2026-04-17T09:22:47.942Z</time></trkpt><trkpt lat="44.7101633" lon="9.3774017"><ele>324.0</ele><time>2026-04-17T09:22:48.942Z</time></trkpt><trkpt lat="44.709995" lon="9.3774417"><ele>326.3333333333333</ele><time>2026-04-17T09:22:49.942Z</time></trkpt><trkpt lat="44.7098167" lon="9.37756"><ele>328.66666666666663</ele><time>2026-04-17T09:22:50.942Z</time></trkpt><trkpt lat="44.709645" lon="9.377715"><ele>331.0</ele><time>2026-04-17T09:22:51.942Z</time></trkpt><trkpt lat="44.7094783" lon="9.37785"><ele>332.66666666666663</ele><time>2026-04-17T09:22:52.943Z</time></trkpt><trkpt lat="44.709315" lon="9.3779433"><ele>334.3333333333333</ele><time>2026-04-17T09:22:53.942Z</time></trkpt><trkpt lat="44.7091583" lon="9.378015"><ele>336.0</ele><time>2026-04-17T09:22:54.942Z</time></trkpt><trkpt lat="44.709015" lon="9.3780483"><ele>336.0</ele><time>2026-04-17T09:22:55.942Z</time></trkpt><trkpt lat="44.7088683" lon="9.3780333"><ele>336.0</ele><time>2026-04-17T09:22:56.942Z</time></trkpt><trkpt lat="44.7086983" lon="9.377985"><ele>336.0</ele><time>2026-04-17T09:22:57.942Z</time></trkpt><trkpt lat="44.70853" lon="9.3779283"><ele>335.75</ele><time>2026-04-17T09:22:58.942Z</time></trkpt><trkpt lat="44.7083833" lon="9.3778633"><ele>335.5</ele><time>2026-04-17T09:22:59.942Z</time></trkpt><trkpt lat="44.7082533" lon="9.3777783"><ele>335.25</ele><time>2026-04-17T09:23:00.942Z</time></trkpt><trkpt lat="44.708155" lon="9.3776567"><ele>335.0</ele><time>2026-04-17T09:23:01.942Z</time></trkpt><trkpt lat="44.708095" lon="9.3775033"><ele>335.0</ele><time>2026-04-17T09:23:02.942Z</time></trkpt><trkpt lat="44.7080633" lon="9.3773583"><ele>335.0</ele><time>2026-04-17T09:23:03.942Z</time></trkpt><trkpt lat="44.708045" lon="9.3772367"><ele>335.0</ele><time>2026-04-17T09:23:04.942Z</time></trkpt><trkpt lat="44.7080283" lon="9.37713"><ele>335.0</ele><time>2026-04-17T09:23:05.942Z</time></trkpt><trkpt lat="44.708005" lon="9.3770383"><ele>335.0</ele><time>2026-04-17T09:23:06.942Z</time></trkpt><trkpt lat="44.7079333" lon="9.3769217"><ele>336.6666666666667</ele><time>2026-04-17T09:23:08.942Z</time></trkpt><trkpt lat="44.70786" lon="9.3768367"><ele>338.33333333333337</ele><time>2026-04-17T09:23:10.942Z</time></trkpt><trkpt lat="44.7078033" lon="9.3767933"><ele>340.0</ele><time>2026-04-17T09:23:12.942Z</time></trkpt><trkpt lat="44.7077233" lon="9.37679"><ele>341.6666666666667</ele><time>2026-04-17T09:23:42.943Z</time></trkpt><trkpt lat="44.707605" lon="9.376815"><ele>343.3333333333333</ele><time>2026-04-17T09:23:44.942Z</time></trkpt><trkpt lat="44.7075183" lon="9.37683"><ele>345.0</ele><time>2026-04-17T09:23:45.942Z</time></trkpt><trkpt lat="44.7074317" lon="9.3768367"><ele>345.0</ele><time>2026-04-17T09:23:46.942Z</time></trkpt><trkpt lat="44.707345" lon="9.3768417"><ele>345.0</ele><time>2026-04-17T09:23:47.942Z</time></trkpt><trkpt lat="44.7072633" lon="9.3768467"><ele>345.0</ele><time>2026-04-17T09:23:48.942Z</time></trkpt><trkpt lat="44.7071833" lon="9.3768633"><ele>345.0</ele><time>2026-04-17T09:23:49.942Z</time></trkpt><trkpt lat="44.7071117" lon="9.3769017"><ele>345.0</ele><time>2026-04-17T09:23:50.942Z</time></trkpt><trkpt lat="44.7070467" lon="9.3769617"><ele>345.0</ele><time>2026-04-17T09:23:51.942Z</time></trkpt><trkpt lat="44.7069833" lon="9.3770383"><ele>345.0</ele><time>2026-04-17T09:23:52.942Z</time></trkpt><trkpt lat="44.7069283" lon="9.377115"><ele>345.0</ele><time>2026-04-17T09:23:53.942Z</time></trkpt><trkpt lat="44.70688" lon="9.37718"><ele>345.0</ele><time>2026-04-17T09:23:54.942Z</time></trkpt><trkpt lat="44.70683" lon="9.3772417"><ele>345.0</ele><time>2026-04-17T09:23:55.942Z</time></trkpt><trkpt lat="44.706775" lon="9.3772867"><ele>345.0</ele><time>2026-04-17T09:23:56.943Z</time></trkpt><trkpt lat="44.7067067" lon="9.377325"><ele>345.0</ele><time>2026-04-17T09:23:57.942Z</time></trkpt><trkpt lat="44.70663" lon="9.3773417"><ele>345.0</ele><time>2026-04-17T09:23:58.942Z</time></trkpt><trkpt lat="44.70652" lon="9.3772783"><ele>345.3333333333333</ele><time>2026-04-17T09:23:59.942Z</time></trkpt><trkpt lat="44.70639" lon="9.3771867"><ele>345.66666666666663</ele><time>2026-04-17T09:24:00.942Z</time></trkpt><trkpt lat="44.70624" lon="9.3770517"><ele>346.0</ele><time>2026-04-17T09:24:01.942Z</time></trkpt><trkpt lat="44.7060733" lon="9.3768733"><ele>346.0</ele><time>2026-04-17T09:24:02.942Z</time></trkpt><trkpt lat="44.70592" lon="9.37668"><ele>346.0</ele><time>2026-04-17T09:24:03.942Z</time></trkpt><trkpt lat="44.7057883" lon="9.376475"><ele>346.0</ele><time>2026-04-17T09:24:04.942Z</time></trkpt><trkpt lat="44.7056833" lon="9.3762333"><ele>348.3333333333333</ele><time>2026-04-17T09:24:05.943Z</time></trkpt><trkpt lat="44.7055967" lon="9.3759967"><ele>350.6666666666667</ele><time>2026-04-17T09:24:06.942Z</time></trkpt><trkpt lat="44.7055433" lon="9.3757633"><ele>353.0</ele><time>2026-04-17T09:24:07.942Z</time></trkpt><trkpt lat="44.7055267" lon="9.375535"><ele>354.33333333333337</ele><time>2026-04-17T09:24:08.942Z</time></trkpt><trkpt lat="44.705555" lon="9.3753033"><ele>355.6666666666667</ele><time>2026-04-17T09:24:09.942Z</time></trkpt><trkpt lat="44.705605" lon="9.3750967"><ele>357.0</ele><time>2026-04-17T09:24:10.942Z</time></trkpt><trkpt lat="44.7056617" lon="9.374895"><ele>357.0</ele><time>2026-04-17T09:24:11.942Z</time></trkpt><trkpt lat="44.705715" lon="9.3746917"><ele>357.0</ele><time>2026-04-17T09:24:12.942Z</time></trkpt><trkpt lat="44.7057667" lon="9.3745033"><ele>357.0</ele><time>2026-04-17T09:24:13.942Z</time></trkpt><trkpt lat="44.7058067" lon="9.3743283"><ele>357.0</ele><time>2026-04-17T09:24:14.943Z</time></trkpt><trkpt lat="44.7058317" lon="9.37417"><ele>358.0</ele><time>2026-04-17T09:24:15.942Z</time></trkpt><trkpt lat="44.70583" lon="9.3740333"><ele>359.0</ele><time>2026-04-17T09:24:16.942Z</time></trkpt><trkpt lat="44.70581" lon="9.3739083"><ele>360.0</ele><time>2026-04-17T09:24:17.942Z</time></trkpt><trkpt lat="44.7057517" lon="9.3737733"><ele>361.0</ele><time>2026-04-17T09:24:18.942Z</time></trkpt><trkpt lat="44.70566" lon="9.3736033"><ele>367.0</ele><time>2026-04-17T09:24:19.942Z</time></trkpt><trkpt lat="44.7055533" lon="9.37341"><ele>373.0</ele><time>2026-04-17T09:24:20.942Z</time></trkpt><trkpt lat="44.7054383" lon="9.3732267"><ele>379.0</ele><time>2026-04-17T09:24:21.942Z</time></trkpt><trkpt lat="44.705315" lon="9.373075"><ele>383.3333333333333</ele><time>2026-04-17T09:24:22.942Z</time></trkpt><trkpt lat="44.7051767" lon="9.372985"><ele>387.66666666666663</ele><time>2026-04-17T09:24:23.942Z</time></trkpt><trkpt lat="44.7050167" lon="9.3729317"><ele>392.0</ele><time>2026-04-17T09:24:24.942Z</time></trkpt><trkpt lat="44.7048533" lon="9.372875"><ele>392.0</ele><time>2026-04-17T09:24:25.942Z</time></trkpt><trkpt lat="44.7046783" lon="9.37282"><ele>392.0</ele><time>2026-04-17T09:24:26.942Z</time></trkpt><trkpt lat="44.70449" lon="9.3727983"><ele>392.0</ele><time>2026-04-17T09:24:27.942Z</time></trkpt><trkpt lat="44.70431" lon="9.3728083"><ele>390.0</ele><time>2026-04-17T09:24:28.942Z</time></trkpt><trkpt lat="44.7041417" lon="9.372815"><ele>388.0</ele><time>2026-04-17T09:24:29.942Z</time></trkpt><trkpt lat="44.7039883" lon="9.37276"><ele>386.0</ele><time>2026-04-17T09:24:30.942Z</time></trkpt><trkpt lat="44.70383" lon="9.3726633"><ele>386.0</ele><time>2026-04-17T09:24:31.943Z</time></trkpt><trkpt lat="44.7036683" lon="9.3725217"><ele>386.0</ele><time>2026-04-17T09:24:32.942Z</time></trkpt><trkpt lat="44.70352" lon="9.3723167"><ele>386.0</ele><time>2026-04-17T09:24:33.942Z</time></trkpt><trkpt lat="44.70338" lon="9.37207"><ele>386.66666666666663</ele><time>2026-04-17T09:24:34.942Z</time></trkpt><trkpt lat="44.7032483" lon="9.37183"><ele>387.33333333333337</ele><time>2026-04-17T09:24:35.942Z</time></trkpt><trkpt lat="44.7031133" lon="9.37163"><ele>388.0</ele><time>2026-04-17T09:24:36.943Z</time></trkpt><trkpt lat="44.7029483" lon="9.37149"><ele>388.0</ele><time>2026-04-17T09:24:37.942Z</time></trkpt><trkpt lat="44.7027517" lon="9.371395"><ele>388.0</ele><time>2026-04-17T09:24:38.942Z</time></trkpt><trkpt lat="44.7025433" lon="9.37131"><ele>388.0</ele><time>2026-04-17T09:24:39.942Z</time></trkpt><trkpt lat="44.7023383" lon="9.371245"><ele>392.0</ele><time>2026-04-17T09:24:40.942Z</time></trkpt><trkpt lat="44.7021667" lon="9.3711767"><ele>396.0</ele><time>2026-04-17T09:24:41.943Z</time></trkpt><trkpt lat="44.7020217" lon="9.3710933"><ele>400.0</ele><time>2026-04-17T09:24:42.942Z</time></trkpt><trkpt lat="44.7018883" lon="9.3709833"><ele>397.0</ele><time>2026-04-17T09:24:43.942Z</time></trkpt><trkpt lat="44.7017917" lon="9.3708267"><ele>394.0</ele><time>2026-04-17T09:24:44.942Z</time></trkpt><trkpt lat="44.70174" lon="9.3706467"><ele>391.0</ele><time>2026-04-17T09:24:45.942Z</time></trkpt><trkpt lat="44.7017517" lon="9.3704483"><ele>388.0</ele><time>2026-04-17T09:24:46.942Z</time></trkpt><trkpt lat="44.7018067" lon="9.37025"><ele>388.0</ele><time>2026-04-17T09:24:47.942Z</time></trkpt><trkpt lat="44.70186" lon="9.370065"><ele>388.0</ele><time>2026-04-17T09:24:48.942Z</time></trkpt><trkpt lat="44.7018733" lon="9.3698917"><ele>388.0</ele><time>2026-04-17T09:24:49.942Z</time></trkpt><trkpt lat="44.7018283" lon="9.369715"><ele>388.0</ele><time>2026-04-17T09:24:50.942Z</time></trkpt><trkpt lat="44.701755" lon="9.369515"><ele>394.33333333333337</ele><time>2026-04-17T09:24:51.942Z</time></trkpt><trkpt lat="44.7016967" lon="9.3693033"><ele>400.66666666666663</ele><time>2026-04-17T09:24:52.942Z</time></trkpt><trkpt lat="44.7016467" lon="9.3690983"><ele>407.0</ele><time>2026-04-17T09:24:53.942Z</time></trkpt><trkpt lat="44.70158" lon="9.3689067"><ele>414.3333333333333</ele><time>2026-04-17T09:24:54.943Z</time></trkpt><trkpt lat="44.7014633" lon="9.368735"><ele>421.66666666666663</ele><time>2026-04-17T09:24:55.942Z</time></trkpt><trkpt lat="44.70135" lon="9.3685333"><ele>429.0</ele><time>2026-04-17T09:24:56.942Z</time></trkpt><trkpt lat="44.7012567" lon="9.3683067"><ele>429.0</ele><time>2026-04-17T09:24:57.942Z</time></trkpt><trkpt lat="44.7011717" lon="9.368085"><ele>429.0</ele><time>2026-04-17T09:24:58.942Z</time></trkpt><trkpt lat="44.70107" lon="9.3678867"><ele>429.0</ele><time>2026-04-17T09:24:59.942Z</time></trkpt><trkpt lat="44.70093" lon="9.367715"><ele>424.33333333333337</ele><time>2026-04-17T09:25:00.942Z</time></trkpt><trkpt lat="44.7007767" lon="9.3675617"><ele>419.6666666666667</ele><time>2026-04-17T09:25:01.942Z</time></trkpt><trkpt lat="44.7006467" lon="9.3674083"><ele>415.0</ele><time>2026-04-17T09:25:02.942Z</time></trkpt><trkpt lat="44.7005383" lon="9.3672533"><ele>420.0</ele><time>2026-04-17T09:25:03.942Z</time></trkpt><trkpt lat="44.70047" lon="9.36708"><ele>425.0</ele><time>2026-04-17T09:25:04.943Z</time></trkpt><trkpt lat="44.7004517" lon="9.3668817"><ele>430.0</ele><time>2026-04-17T09:25:05.942Z</time></trkpt><trkpt lat="44.70047" lon="9.3667067"><ele>435.0</ele><time>2026-04-17T09:25:06.943Z</time></trkpt><trkpt lat="44.7004883" lon="9.3665433"><ele>435.0</ele><time>2026-04-17T09:25:07.942Z</time></trkpt><trkpt lat="44.700465" lon="9.3663883"><ele>435.0</ele><time>2026-04-17T09:25:08.942Z</time></trkpt><trkpt lat="44.700395" lon="9.3662467"><ele>435.0</ele><time>2026-04-17T09:25:09.942Z</time></trkpt><trkpt lat="44.7002967" lon="9.3661483"><ele>435.0</ele><time>2026-04-17T09:25:10.943Z</time></trkpt><trkpt lat="44.700165" lon="9.36611"><ele>437.0</ele><time>2026-04-17T09:25:11.942Z</time></trkpt><trkpt lat="44.7000033" lon="9.3661267"><ele>439.0</ele><time>2026-04-17T09:25:12.942Z</time></trkpt><trkpt lat="44.6998183" lon="9.3661767"><ele>441.0</ele><time>2026-04-17T09:25:13.943Z</time></trkpt><trkpt lat="44.6996417" lon="9.36623"><ele>441.0</ele><time>2026-04-17T09:25:14.942Z</time></trkpt><trkpt lat="44.69948" lon="9.36627"><ele>441.0</ele><time>2026-04-17T09:25:15.942Z</time></trkpt><trkpt lat="44.6993383" lon="9.3662733"><ele>441.0</ele><time>2026-04-17T09:25:16.942Z</time></trkpt><trkpt lat="44.6992217" lon="9.3661967"><ele>441.0</ele><time>2026-04-17T09:25:17.942Z</time></trkpt><trkpt lat="44.6991" lon="9.36613"><ele>436.5</ele><time>2026-04-17T09:25:18.942Z</time></trkpt><trkpt lat="44.6989867" lon="9.3660517"><ele>432.0</ele><time>2026-04-17T09:25:19.942Z</time></trkpt><trkpt lat="44.6988917" lon="9.365965"><ele>427.5</ele><time>2026-04-17T09:25:20.942Z</time></trkpt><trkpt lat="44.698835" lon="9.3658483"><ele>423.0</ele><time>2026-04-17T09:25:21.942Z</time></trkpt><trkpt lat="44.6988067" lon="9.3656833"><ele>435.66666666666663</ele><time>2026-04-17T09:25:22.942Z</time></trkpt><trkpt lat="44.6987833" lon="9.3654767"><ele>448.3333333333333</ele><time>2026-04-17T09:25:23.942Z</time></trkpt><trkpt lat="44.698725" lon="9.36526"><ele>461.0</ele><time>2026-04-17T09:25:24.942Z</time></trkpt><trkpt lat="44.6986417" lon="9.36507"><ele>450.0</ele><time>2026-04-17T09:25:25.942Z</time></trkpt><trkpt lat="44.698545" lon="9.3649217"><ele>439.0</ele><time>2026-04-17T09:25:26.942Z</time></trkpt><trkpt lat="44.698425" lon="9.36484"><ele>428.0</ele><time>2026-04-17T09:25:27.942Z</time></trkpt><trkpt lat="44.6983133" lon="9.3648"><ele>417.0</ele><time>2026-04-17T09:25:28.942Z</time></trkpt><trkpt lat="44.6981983" lon="9.3647467"><ele>432.0</ele><time>2026-04-17T09:25:29.942Z</time></trkpt><trkpt lat="44.6980767" lon="9.364645"><ele>447.0</ele><time>2026-04-17T09:25:30.942Z</time></trkpt><trkpt lat="44.6979817" lon="9.3644767"><ele>462.0</ele><time>2026-04-17T09:25:31.942Z</time></trkpt><trkpt lat="44.69792" lon="9.3642717"><ele>462.0</ele><time>2026-04-17T09:25:32.942Z</time></trkpt><trkpt lat="44.6978383" lon="9.36412"><ele>462.0</ele><time>2026-04-17T09:25:33.942Z</time></trkpt><trkpt lat="44.6977283" lon="9.3640133"><ele>462.0</ele><time>2026-04-17T09:25:34.942Z</time></trkpt><trkpt lat="44.6975933" lon="9.3639533"><ele>462.0</ele><time>2026-04-17T09:25:35.942Z</time></trkpt><trkpt lat="44.6974017" lon="9.3639183"><ele>456.0</ele><time>2026-04-17T09:25:36.942Z</time></trkpt><trkpt lat="44.69719" lon="9.3639017"><ele>450.0</ele><time>2026-04-17T09:25:37.943Z</time></trkpt><trkpt lat="44.6969783" lon="9.36392"><ele>444.0</ele><time>2026-04-17T09:25:38.942Z</time></trkpt><trkpt lat="44.69676" lon="9.3639433"><ele>444.0</ele><time>2026-04-17T09:25:39.942Z</time></trkpt><trkpt lat="44.6965333" lon="9.36394"><ele>444.0</ele><time>2026-04-17T09:25:40.942Z</time></trkpt><trkpt lat="44.6963083" lon="9.3639267"><ele>444.0</ele><time>2026-04-17T09:25:41.942Z</time></trkpt><trkpt lat="44.6960933" lon="9.3638933"><ele>444.0</ele><time>2026-04-17T09:25:42.942Z</time></trkpt><trkpt lat="44.695895" lon="9.36382"><ele>444.0</ele><time>2026-04-17T09:25:43.942Z</time></trkpt><trkpt lat="44.6956967" lon="9.3637667"><ele>457.0</ele><time>2026-04-17T09:25:44.942Z</time></trkpt><trkpt lat="44.6954867" lon="9.3637433"><ele>470.0</ele><time>2026-04-17T09:25:45.942Z</time></trkpt><trkpt lat="44.6952367" lon="9.3638"><ele>470.0</ele><time>2026-04-17T09:25:46.942Z</time></trkpt><trkpt lat="44.6949983" lon="9.36384"><ele>470.0</ele><time>2026-04-17T09:25:47.942Z</time></trkpt><trkpt lat="44.6947867" lon="9.3638783"><ele>464.0</ele><time>2026-04-17T09:25:48.942Z</time></trkpt><trkpt lat="44.6946117" lon="9.363905"><ele>458.0</ele><time>2026-04-17T09:25:49.942Z</time></trkpt><trkpt lat="44.6944667" lon="9.3639383"><ele>452.0</ele><time>2026-04-17T09:25:50.942Z</time></trkpt><trkpt lat="44.6943617" lon="9.3639517"><ele>446.0</ele><time>2026-04-17T09:25:51.942Z</time></trkpt><trkpt lat="44.6942883" lon="9.36391"><ele>442.0</ele><time>2026-04-17T09:25:52.942Z</time></trkpt><trkpt lat="44.6942367" lon="9.3638367"><ele>438.0</ele><time>2026-04-17T09:25:53.942Z</time></trkpt><trkpt lat="44.6942517" lon="9.363695"><ele>434.0</ele><time>2026-04-17T09:25:55.942Z</time></trkpt><trkpt lat="44.6944" lon="9.3635967"><ele>430.0</ele><time>2026-04-17T09:25:56.942Z</time></trkpt><trkpt lat="44.69447" lon="9.3635117"><ele>426.0</ele><time>2026-04-17T09:25:57.943Z</time></trkpt><trkpt lat="44.6945383" lon="9.36341"><ele>434.75</ele><time>2026-04-17T09:25:58.942Z</time></trkpt><trkpt lat="44.694535" lon="9.3632017"><ele>443.5</ele><time>2026-04-17T09:25:59.942Z</time></trkpt><trkpt lat="44.6945533" lon="9.3629967"><ele>452.25</ele><time>2026-04-17T09:26:00.942Z</time></trkpt><trkpt lat="44.6946" lon="9.3627983"><ele>461.0</ele><time>2026-04-17T09:26:01.942Z</time></trkpt><trkpt lat="44.6946967" lon="9.3626017"><ele>461.0</ele><time>2026-04-17T09:26:02.942Z</time></trkpt><trkpt lat="44.6948167" lon="9.3624117"><ele>461.0</ele><time>2026-04-17T09:26:03.942Z</time></trkpt><trkpt lat="44.694955" lon="9.3622567"><ele>461.0</ele><time>2026-04-17T09:26:04.942Z</time></trkpt><trkpt lat="44.695105" lon="9.3621567"><ele>457.0</ele><time>2026-04-17T09:26:05.942Z</time></trkpt><trkpt lat="44.6952333" lon="9.3620617"><ele>453.0</ele><time>2026-04-17T09:26:06.942Z</time></trkpt><trkpt lat="44.695335" lon="9.36195"><ele>449.0</ele><time>2026-04-17T09:26:07.942Z</time></trkpt><trkpt lat="44.6953933" lon="9.361785"><ele>445.0</ele><time>2026-04-17T09:26:08.942Z</time></trkpt><trkpt lat="44.6953933" lon="9.3615867"><ele>456.0</ele><time>2026-04-17T09:26:09.942Z</time></trkpt><trkpt lat="44.6953483" lon="9.3613733"><ele>467.0</ele><time>2026-04-17T09:26:10.942Z</time></trkpt><trkpt lat="44.6953233" lon="9.3611483"><ele>478.0</ele><time>2026-04-17T09:26:11.942Z</time></trkpt><trkpt lat="44.6953333" lon="9.3609183"><ele>478.0</ele><time>2026-04-17T09:26:12.942Z</time></trkpt><trkpt lat="44.6953783" lon="9.3606617"><ele>478.0</ele><time>2026-04-17T09:26:13.942Z</time></trkpt><trkpt lat="44.69544" lon="9.3603933"><ele>478.0</ele><time>2026-04-17T09:26:14.943Z</time></trkpt><trkpt lat="44.6955017" lon="9.3601417"><ele>478.6666666666667</ele><time>2026-04-17T09:26:15.942Z</time></trkpt><trkpt lat="44.6955533" lon="9.3599017"><ele>479.33333333333337</ele><time>2026-04-17T09:26:16.942Z</time></trkpt><trkpt lat="44.69557" lon="9.3596733"><ele>480.0</ele><time>2026-04-17T09:26:17.942Z</time></trkpt><trkpt lat="44.6955567" lon="9.3594683"><ele>480.5</ele><time>2026-04-17T09:26:18.942Z</time></trkpt><trkpt lat="44.69549" lon="9.3592917"><ele>481.0</ele><time>2026-04-17T09:26:19.942Z</time></trkpt><trkpt lat="44.69539" lon="9.3591633"><ele>481.5</ele><time>2026-04-17T09:26:20.942Z</time></trkpt><trkpt lat="44.69527" lon="9.3590967"><ele>482.0</ele><time>2026-04-17T09:26:21.942Z</time></trkpt><trkpt lat="44.6951217" lon="9.359095"><ele>479.0</ele><time>2026-04-17T09:26:22.942Z</time></trkpt><trkpt lat="44.6949417" lon="9.35915"><ele>476.0</ele><time>2026-04-17T09:26:23.942Z</time></trkpt><trkpt lat="44.694765" lon="9.359205"><ele>473.0</ele><time>2026-04-17T09:26:24.942Z</time></trkpt><trkpt lat="44.6946083" lon="9.359225"><ele>473.0</ele><time>2026-04-17T09:26:25.942Z</time></trkpt><trkpt lat="44.6944783" lon="9.3592183"><ele>473.0</ele><time>2026-04-17T09:26:26.942Z</time></trkpt><trkpt lat="44.694365" lon="9.3591533"><ele>473.0</ele><time>2026-04-17T09:26:27.943Z</time></trkpt><trkpt lat="44.6942583" lon="9.3590233"><ele>473.0</ele><time>2026-04-17T09:26:28.942Z</time></trkpt><trkpt lat="44.6941417" lon="9.3588383"><ele>471.5</ele><time>2026-04-17T09:26:29.942Z</time></trkpt><trkpt lat="44.6940267" lon="9.358645"><ele>470.0</ele><time>2026-04-17T09:26:30.942Z</time></trkpt><trkpt lat="44.69394" lon="9.3584783"><ele>468.5</ele><time>2026-04-17T09:26:31.942Z</time></trkpt><trkpt lat="44.693915" lon="9.35831"><ele>467.0</ele><time>2026-04-17T09:26:32.942Z</time></trkpt><trkpt lat="44.69394" lon="9.358145"><ele>459.0</ele><time>2026-04-17T09:26:33.942Z</time></trkpt><trkpt lat="44.6940317" lon="9.3579667"><ele>451.0</ele><time>2026-04-17T09:26:34.942Z</time></trkpt><trkpt lat="44.6941617" lon="9.3578033"><ele>443.0</ele><time>2026-04-17T09:26:35.942Z</time></trkpt><trkpt lat="44.6943167" lon="9.357665"><ele>453.0</ele><time>2026-04-17T09:26:36.942Z</time></trkpt><trkpt lat="44.6944733" lon="9.3575433"><ele>463.0</ele><time>2026-04-17T09:26:37.942Z</time></trkpt><trkpt lat="44.6946" lon="9.3573933"><ele>473.0</ele><time>2026-04-17T09:26:38.942Z</time></trkpt><trkpt lat="44.694695" lon="9.3571783"><ele>473.0</ele><time>2026-04-17T09:26:39.942Z</time></trkpt><trkpt lat="44.6947567" lon="9.3568917"><ele>473.0</ele><time>2026-04-17T09:26:40.942Z</time></trkpt><trkpt lat="44.69482" lon="9.3566067"><ele>473.0</ele><time>2026-04-17T09:26:41.942Z</time></trkpt><trkpt lat="44.6948767" lon="9.3563517"><ele>472.25</ele><time>2026-04-17T09:26:42.943Z</time></trkpt><trkpt lat="44.694915" lon="9.35614"><ele>471.5</ele><time>2026-04-17T09:26:43.942Z</time></trkpt><trkpt lat="44.6949117" lon="9.3559483"><ele>470.75</ele><time>2026-04-17T09:26:44.942Z</time></trkpt><trkpt lat="44.69485" lon="9.3557967"><ele>470.0</ele><time>2026-04-17T09:26:45.942Z</time></trkpt><trkpt lat="44.6947883" lon="9.3556467"><ele>469.25</ele><time>2026-04-17T09:26:46.942Z</time></trkpt><trkpt lat="44.69475" lon="9.3554983"><ele>468.5</ele><time>2026-04-17T09:26:47.942Z</time></trkpt><trkpt lat="44.6947583" lon="9.3553"><ele>467.75</ele><time>2026-04-17T09:26:48.942Z</time></trkpt><trkpt lat="44.6947933" lon="9.355075"><ele>467.0</ele><time>2026-04-17T09:26:49.942Z</time></trkpt><trkpt lat="44.6948333" lon="9.3548533"><ele>470.66666666666663</ele><time>2026-04-17T09:26:50.942Z</time></trkpt><trkpt lat="44.6948417" lon="9.35464"><ele>474.33333333333337</ele><time>2026-04-17T09:26:51.942Z</time></trkpt><trkpt lat="44.6948083" lon="9.3544333"><ele>478.0</ele><time>2026-04-17T09:26:52.942Z</time></trkpt><trkpt lat="44.6947367" lon="9.3542433"><ele>478.0</ele><time>2026-04-17T09:26:53.942Z</time></trkpt><trkpt lat="44.6946833" lon="9.3540433"><ele>478.0</ele><time>2026-04-17T09:26:54.942Z</time></trkpt><trkpt lat="44.69469" lon="9.353835"><ele>478.0</ele><time>2026-04-17T09:26:55.942Z</time></trkpt><trkpt lat="44.6946867" lon="9.3536667"><ele>478.0</ele><time>2026-04-17T09:26:56.942Z</time></trkpt><trkpt lat="44.694655" lon="9.35352"><ele>474.25</ele><time>2026-04-17T09:26:57.942Z</time></trkpt><trkpt lat="44.6945683" lon="9.3534167"><ele>470.5</ele><time>2026-04-17T09:26:58.943Z</time></trkpt><trkpt lat="44.694435" lon="9.35338"><ele>466.75</ele><time>2026-04-17T09:26:59.942Z</time></trkpt><trkpt lat="44.6942783" lon="9.3533983"><ele>463.0</ele><time>2026-04-17T09:27:00.942Z</time></trkpt><trkpt lat="44.6941433" lon="9.3534217"><ele>463.0</ele><time>2026-04-17T09:27:01.942Z</time></trkpt><trkpt lat="44.6940083" lon="9.3534133"><ele>463.0</ele><time>2026-04-17T09:27:02.942Z</time></trkpt><trkpt lat="44.6939017" lon="9.3533467"><ele>463.0</ele><time>2026-04-17T09:27:03.943Z</time></trkpt><trkpt lat="44.693795" lon="9.3532583"><ele>463.0</ele><time>2026-04-17T09:27:04.942Z</time></trkpt><trkpt lat="44.6936783" lon="9.3531983"><ele>458.0</ele><time>2026-04-17T09:27:05.942Z</time></trkpt><trkpt lat="44.6935483" lon="9.3531817"><ele>453.0</ele><time>2026-04-17T09:27:06.942Z</time></trkpt><trkpt lat="44.6934217" lon="9.3531833"><ele>448.0</ele><time>2026-04-17T09:27:07.942Z</time></trkpt><trkpt lat="44.693325" lon="9.3531333"><ele>443.0</ele><time>2026-04-17T09:27:08.942Z</time></trkpt><trkpt lat="44.6932667" lon="9.35303"><ele>443.0</ele><time>2026-04-17T09:27:09.943Z</time></trkpt><trkpt lat="44.6932467" lon="9.3528833"><ele>443.0</ele><time>2026-04-17T09:27:10.942Z</time></trkpt><trkpt lat="44.6932717" lon="9.3526883"><ele>443.0</ele><time>2026-04-17T09:27:11.942Z</time></trkpt><trkpt lat="44.69327" lon="9.35249"><ele>443.0</ele><time>2026-04-17T09:27:12.942Z</time></trkpt><trkpt lat="44.6932217" lon="9.3522783"><ele>451.0</ele><time>2026-04-17T09:27:13.942Z</time></trkpt><trkpt lat="44.6931267" lon="9.3520383"><ele>459.0</ele><time>2026-04-17T09:27:14.942Z</time></trkpt><trkpt lat="44.6930167" lon="9.3518083"><ele>467.0</ele><time>2026-04-17T09:27:15.942Z</time></trkpt><trkpt lat="44.6929167" lon="9.3515833"><ele>472.3333333333333</ele><time>2026-04-17T09:27:16.942Z</time></trkpt><trkpt lat="44.6928433" lon="9.3513633"><ele>477.66666666666663</ele><time>2026-04-17T09:27:17.942Z</time></trkpt><trkpt lat="44.69275" lon="9.3511517"><ele>483.0</ele><time>2026-04-17T09:27:18.942Z</time></trkpt><trkpt lat="44.6926167" lon="9.350945"><ele>478.0</ele><time>2026-04-17T09:27:19.942Z</time></trkpt><trkpt lat="44.6924733" lon="9.35071"><ele>473.0</ele><time>2026-04-17T09:27:20.942Z</time></trkpt><trkpt lat="44.6923383" lon="9.35045"><ele>468.0</ele><time>2026-04-17T09:27:21.942Z</time></trkpt><trkpt lat="44.6922067" lon="9.35022"><ele>468.0</ele><time>2026-04-17T09:27:22.942Z</time></trkpt><trkpt lat="44.6921" lon="9.3500283"><ele>468.0</ele><time>2026-04-17T09:27:23.942Z</time></trkpt><trkpt lat="44.6920167" lon="9.3498517"><ele>468.0</ele><time>2026-04-17T09:27:24.942Z</time></trkpt><trkpt lat="44.6919583" lon="9.3496867"><ele>458.75</ele><time>2026-04-17T09:27:25.943Z</time></trkpt><trkpt lat="44.6918767" lon="9.34955"><ele>449.5</ele><time>2026-04-17T09:27:26.942Z</time></trkpt><trkpt lat="44.691775" lon="9.3494383"><ele>440.25</ele><time>2026-04-17T09:27:27.942Z</time></trkpt><trkpt lat="44.6916633" lon="9.349345"><ele>431.0</ele><time>2026-04-17T09:27:28.942Z</time></trkpt><trkpt lat="44.6915717" lon="9.349225"><ele>431.0</ele><time>2026-04-17T09:27:29.942Z</time></trkpt><trkpt lat="44.6915317" lon="9.3490533"><ele>431.0</ele><time>2026-04-17T09:27:30.942Z</time></trkpt><trkpt lat="44.6915233" lon="9.3488817"><ele>431.0</ele><time>2026-04-17T09:27:31.942Z</time></trkpt><trkpt lat="44.6915817" lon="9.3487033"><ele>431.0</ele><time>2026-04-17T09:27:32.942Z</time></trkpt><trkpt lat="44.6916717" lon="9.34851"><ele>432.0</ele><time>2026-04-17T09:27:33.942Z</time></trkpt><trkpt lat="44.6917417" lon="9.3483083"><ele>433.0</ele><time>2026-04-17T09:27:34.942Z</time></trkpt><trkpt lat="44.6917933" lon="9.348105"><ele>434.0</ele><time>2026-04-17T09:27:35.942Z</time></trkpt><trkpt lat="44.6918" lon="9.3479283"><ele>435.0</ele><time>2026-04-17T09:27:36.942Z</time></trkpt><trkpt lat="44.6917533" lon="9.3477917"><ele>436.75</ele><time>2026-04-17T09:27:37.942Z</time></trkpt><trkpt lat="44.6916717" lon="9.3476717"><ele>438.5</ele><time>2026-04-17T09:27:38.942Z</time></trkpt><trkpt lat="44.6915783" lon="9.347525"><ele>440.25</ele><time>2026-04-17T09:27:39.942Z</time></trkpt><trkpt lat="44.6915033" lon="9.34734"><ele>442.0</ele><time>2026-04-17T09:27:40.942Z</time></trkpt><trkpt lat="44.6914517" lon="9.347155"><ele>442.75</ele><time>2026-04-17T09:27:41.942Z</time></trkpt><trkpt lat="44.6914583" lon="9.3469867"><ele>443.5</ele><time>2026-04-17T09:27:42.942Z</time></trkpt><trkpt lat="44.69152" lon="9.3468233"><ele>444.25</ele><time>2026-04-17T09:27:43.942Z</time></trkpt><trkpt lat="44.6915583" lon="9.3466617"><ele>445.0</ele><time>2026-04-17T09:27:44.942Z</time></trkpt><trkpt lat="44.69154" lon="9.3464983"><ele>447.25</ele><time>2026-04-17T09:27:45.942Z</time></trkpt><trkpt lat="44.69147" lon="9.346345"><ele>449.5</ele><time>2026-04-17T09:27:46.942Z</time></trkpt><trkpt lat="44.6913467" lon="9.3462217"><ele>451.75</ele><time>2026-04-17T09:27:47.942Z</time></trkpt><trkpt lat="44.691235" lon="9.3460667"><ele>454.0</ele><time>2026-04-17T09:27:48.942Z</time></trkpt><trkpt lat="44.691145" lon="9.345885"><ele>454.0</ele><time>2026-04-17T09:27:49.942Z</time></trkpt><trkpt lat="44.6911283" lon="9.3456517"><ele>454.0</ele><time>2026-04-17T09:27:50.942Z</time></trkpt><trkpt lat="44.691135" lon="9.3454017"><ele>454.0</ele><time>2026-04-17T09:27:51.942Z</time></trkpt><trkpt lat="44.6911533" lon="9.3451617"><ele>451.75</ele><time>2026-04-17T09:27:52.942Z</time></trkpt><trkpt lat="44.6911917" lon="9.3449483"><ele>449.5</ele><time>2026-04-17T09:27:53.942Z</time></trkpt><trkpt lat="44.6912717" lon="9.3447833"><ele>447.25</ele><time>2026-04-17T09:27:54.943Z</time></trkpt><trkpt lat="44.6913867" lon="9.3446517"><ele>445.0</ele><time>2026-04-17T09:27:55.942Z</time></trkpt><trkpt lat="44.6915283" lon="9.3445317"><ele>444.5</ele><time>2026-04-17T09:27:56.942Z</time></trkpt><trkpt lat="44.69171" lon="9.3443767"><ele>444.0</ele><time>2026-04-17T09:27:57.942Z</time></trkpt><trkpt lat="44.6919733" lon="9.3441567"><ele>444.0</ele><time>2026-04-17T09:27:58.942Z</time></trkpt><trkpt lat="44.6922133" lon="9.3439483"><ele>444.0</ele><time>2026-04-17T09:27:59.942Z</time></trkpt><trkpt lat="44.6924133" lon="9.34375"><ele>449.33333333333337</ele><time>2026-04-17T09:28:00.942Z</time></trkpt><trkpt lat="44.692585" lon="9.3435633"><ele>454.6666666666667</ele><time>2026-04-17T09:28:01.942Z</time></trkpt><trkpt lat="44.6927167" lon="9.3433583"><ele>460.0</ele><time>2026-04-17T09:28:02.942Z</time></trkpt><trkpt lat="44.6928183" lon="9.3430933"><ele>448.0</ele><time>2026-04-17T09:28:03.942Z</time></trkpt><trkpt lat="44.69292" lon="9.3428267"><ele>436.0</ele><time>2026-04-17T09:28:04.942Z</time></trkpt><trkpt lat="44.69303" lon="9.3425567"><ele>424.0</ele><time>2026-04-17T09:28:05.942Z</time></trkpt><trkpt lat="44.6931517" lon="9.3423167"><ele>420.0</ele><time>2026-04-17T09:28:06.942Z</time></trkpt><trkpt lat="44.693265" lon="9.3421383"><ele>416.0</ele><time>2026-04-17T09:28:07.942Z</time></trkpt><trkpt lat="44.693355" lon="9.3419767"><ele>412.0</ele><time>2026-04-17T09:28:08.942Z</time></trkpt><trkpt lat="44.693425" lon="9.341795"><ele>412.0</ele><time>2026-04-17T09:28:09.942Z</time></trkpt><trkpt lat="44.6934417" lon="9.3415933"><ele>412.0</ele><time>2026-04-17T09:28:10.942Z</time></trkpt><trkpt lat="44.69343" lon="9.3414183"><ele>412.0</ele><time>2026-04-17T09:28:11.942Z</time></trkpt><trkpt lat="44.6933817" lon="9.3412833"><ele>412.0</ele><time>2026-04-17T09:28:12.942Z</time></trkpt><trkpt lat="44.6932967" lon="9.3411683"><ele>422.0</ele><time>2026-04-17T09:28:13.943Z</time></trkpt><trkpt lat="44.6931467" lon="9.3411083"><ele>432.0</ele><time>2026-04-17T09:28:14.943Z</time></trkpt><trkpt lat="44.692955" lon="9.34109"><ele>442.0</ele><time>2026-04-17T09:28:15.944Z</time></trkpt><trkpt lat="44.6927667" lon="9.3411167"><ele>441.0</ele><time>2026-04-17T09:28:16.943Z</time></trkpt><trkpt lat="44.6926167" lon="9.3412067"><ele>440.0</ele><time>2026-04-17T09:28:17.943Z</time></trkpt><trkpt lat="44.69249" lon="9.3413267"><ele>439.0</ele><time>2026-04-17T09:28:18.943Z</time></trkpt><trkpt lat="44.6923617" lon="9.3415667"><ele>430.33333333333337</ele><time>2026-04-17T09:28:19.943Z</time></trkpt><trkpt lat="44.692235" lon="9.3417567"><ele>421.66666666666663</ele><time>2026-04-17T09:28:20.943Z</time></trkpt><trkpt lat="44.6921233" lon="9.341935"><ele>413.0</ele><time>2026-04-17T09:28:21.943Z</time></trkpt><trkpt lat="44.691985" lon="9.3421267"><ele>409.5</ele><time>2026-04-17T09:28:22.943Z</time></trkpt><trkpt lat="44.69185" lon="9.3422617"><ele>406.0</ele><time>2026-04-17T09:28:23.943Z</time></trkpt><trkpt lat="44.6917183" lon="9.3423317"><ele>402.5</ele><time>2026-04-17T09:28:24.943Z</time></trkpt><trkpt lat="44.691595" lon="9.34234"><ele>399.0</ele><time>2026-04-17T09:28:25.943Z</time></trkpt><trkpt lat="44.6914867" lon="9.3422817"><ele>405.0</ele><time>2026-04-17T09:28:26.943Z</time></trkpt><trkpt lat="44.691445" lon="9.3421183"><ele>411.0</ele><time>2026-04-17T09:28:27.943Z</time></trkpt><trkpt lat="44.6914683" lon="9.34189"><ele>417.0</ele><time>2026-04-17T09:28:28.943Z</time></trkpt><trkpt lat="44.6914933" lon="9.3416433"><ele>417.0</ele><time>2026-04-17T09:28:29.943Z</time></trkpt><trkpt lat="44.6914783" lon="9.341385"><ele>417.0</ele><time>2026-04-17T09:28:30.943Z</time></trkpt><trkpt lat="44.6914467" lon="9.3411383"><ele>417.0</ele><time>2026-04-17T09:28:31.943Z</time></trkpt><trkpt lat="44.6914233" lon="9.3409083"><ele>418.66666666666663</ele><time>2026-04-17T09:28:32.943Z</time></trkpt><trkpt lat="44.6914417" lon="9.3406783"><ele>420.3333333333333</ele><time>2026-04-17T09:28:33.943Z</time></trkpt><trkpt lat="44.69149" lon="9.3404483"><ele>422.0</ele><time>2026-04-17T09:28:34.943Z</time></trkpt><trkpt lat="44.691545" lon="9.3402217"><ele>422.25</ele><time>2026-04-17T09:28:35.943Z</time></trkpt><trkpt lat="44.69157" lon="9.3400067"><ele>422.5</ele><time>2026-04-17T09:28:36.943Z</time></trkpt><trkpt lat="44.6915517" lon="9.3397933"><ele>422.75</ele><time>2026-04-17T09:28:37.943Z</time></trkpt><trkpt lat="44.6914967" lon="9.3396167"><ele>423.0</ele><time>2026-04-17T09:28:38.943Z</time></trkpt><trkpt lat="44.6914417" lon="9.3394733"><ele>422.5</ele><time>2026-04-17T09:28:39.943Z</time></trkpt><trkpt lat="44.6914317" lon="9.3393217"><ele>422.0</ele><time>2026-04-17T09:28:40.943Z</time></trkpt><trkpt lat="44.69147" lon="9.3391467"><ele>421.5</ele><time>2026-04-17T09:28:41.943Z</time></trkpt><trkpt lat="44.69157" lon="9.338955"><ele>421.0</ele><time>2026-04-17T09:28:42.943Z</time></trkpt><trkpt lat="44.6916767" lon="9.3387683"><ele>420.75</ele><time>2026-04-17T09:28:43.943Z</time></trkpt><trkpt lat="44.6917633" lon="9.3385967"><ele>420.5</ele><time>2026-04-17T09:28:44.943Z</time></trkpt><trkpt lat="44.6917967" lon="9.3384083"><ele>420.25</ele><time>2026-04-17T09:28:45.943Z</time></trkpt><trkpt lat="44.6917783" lon="9.338225"><ele>420.0</ele><time>2026-04-17T09:28:46.944Z</time></trkpt><trkpt lat="44.6917083" lon="9.3380617"><ele>423.0</ele><time>2026-04-17T09:28:47.943Z</time></trkpt><trkpt lat="44.691595" lon="9.33795"><ele>426.0</ele><time>2026-04-17T09:28:48.943Z</time></trkpt><trkpt lat="44.6914483" lon="9.3378683"><ele>429.0</ele><time>2026-04-17T09:28:49.944Z</time></trkpt><trkpt lat="44.6912817" lon="9.3378133"><ele>429.0</ele><time>2026-04-17T09:28:50.943Z</time></trkpt><trkpt lat="44.6911117" lon="9.3377783"><ele>429.0</ele><time>2026-04-17T09:28:51.943Z</time></trkpt><trkpt lat="44.6909583" lon="9.3377233"><ele>429.0</ele><time>2026-04-17T09:28:52.943Z</time></trkpt><trkpt lat="44.69082" lon="9.3375967"><ele>427.0</ele><time>2026-04-17T09:28:53.943Z</time></trkpt><trkpt lat="44.6906833" lon="9.3374467"><ele>425.0</ele><time>2026-04-17T09:28:54.943Z</time></trkpt><trkpt lat="44.6905783" lon="9.3372867"><ele>423.0</ele><time>2026-04-17T09:28:55.944Z</time></trkpt><trkpt lat="44.6905267" lon="9.337115"><ele>423.0</ele><time>2026-04-17T09:28:56.943Z</time></trkpt><trkpt lat="44.69051" lon="9.3369233"><ele>423.0</ele><time>2026-04-17T09:28:57.943Z</time></trkpt><trkpt lat="44.69052" lon="9.3366767"><ele>423.0</ele><time>2026-04-17T09:28:58.943Z</time></trkpt><trkpt lat="44.690545" lon="9.33636"><ele>424.5</ele><time>2026-04-17T09:28:59.943Z</time></trkpt><trkpt lat="44.6905483" lon="9.336015"><ele>426.0</ele><time>2026-04-17T09:29:00.943Z</time></trkpt><trkpt lat="44.6905467" lon="9.3356917"><ele>424.66666666666663</ele><time>2026-04-17T09:29:01.943Z</time></trkpt><trkpt lat="44.69054" lon="9.3353967"><ele>423.3333333333333</ele><time>2026-04-17T09:29:02.943Z</time></trkpt><trkpt lat="44.690515" lon="9.335125"><ele>422.0</ele><time>2026-04-17T09:29:03.943Z</time></trkpt><trkpt lat="44.69044" lon="9.3348883"><ele>420.3333333333333</ele><time>2026-04-17T09:29:04.943Z</time></trkpt><trkpt lat="44.69034" lon="9.33469"><ele>418.66666666666663</ele><time>2026-04-17T09:29:05.943Z</time></trkpt><trkpt lat="44.6902417" lon="9.3345067"><ele>417.0</ele><time>2026-04-17T09:29:06.944Z</time></trkpt><trkpt lat="44.6901767" lon="9.3343133"><ele>410.33333333333337</ele><time>2026-04-17T09:29:07.943Z</time></trkpt><trkpt lat="44.69015" lon="9.3340817"><ele>403.6666666666667</ele><time>2026-04-17T09:29:08.943Z</time></trkpt><trkpt lat="44.6901433" lon="9.33381"><ele>397.0</ele><time>2026-04-17T09:29:09.943Z</time></trkpt><trkpt lat="44.6901217" lon="9.333555"><ele>396.5</ele><time>2026-04-17T09:29:10.943Z</time></trkpt><trkpt lat="44.6901017" lon="9.333365"><ele>396.0</ele><time>2026-04-17T09:29:11.943Z</time></trkpt><trkpt lat="44.69011" lon="9.333195"><ele>395.5</ele><time>2026-04-17T09:29:12.943Z</time></trkpt><trkpt lat="44.690155" lon="9.3330533"><ele>395.0</ele><time>2026-04-17T09:29:13.943Z</time></trkpt><trkpt lat="44.6902417" lon="9.3329283"><ele>395.66666666666663</ele><time>2026-04-17T09:29:14.943Z</time></trkpt><trkpt lat="44.6903883" lon="9.332835"><ele>396.33333333333337</ele><time>2026-04-17T09:29:15.943Z</time></trkpt><trkpt lat="44.6905467" lon="9.3327867"><ele>397.0</ele><time>2026-04-17T09:29:16.943Z</time></trkpt><trkpt lat="44.6906983" lon="9.332765"><ele>397.0</ele><time>2026-04-17T09:29:17.943Z</time></trkpt><trkpt lat="44.6908333" lon="9.3327417"><ele>397.0</ele><time>2026-04-17T09:29:18.943Z</time></trkpt><trkpt lat="44.6909233" lon="9.33269"><ele>397.0</ele><time>2026-04-17T09:29:19.943Z</time></trkpt><trkpt lat="44.6910133" lon="9.332595"><ele>397.0</ele><time>2026-04-17T09:29:20.943Z</time></trkpt><trkpt lat="44.6910417" lon="9.3324667"><ele>397.0</ele><time>2026-04-17T09:29:21.943Z</time></trkpt><trkpt lat="44.69101" lon="9.3323417"><ele>397.0</ele><time>2026-04-17T09:29:22.943Z</time></trkpt><trkpt lat="44.6909067" lon="9.3322617"><ele>397.0</ele><time>2026-04-17T09:29:23.943Z</time></trkpt><trkpt lat="44.6907867" lon="9.3321933"><ele>397.0</ele><time>2026-04-17T09:29:24.943Z</time></trkpt><trkpt lat="44.6906617" lon="9.3320967"><ele>397.0</ele><time>2026-04-17T09:29:25.943Z</time></trkpt><trkpt lat="44.6905483" lon="9.3319683"><ele>398.75</ele><time>2026-04-17T09:29:26.943Z</time></trkpt><trkpt lat="44.6904483" lon="9.33181"><ele>400.5</ele><time>2026-04-17T09:29:27.943Z</time></trkpt><trkpt lat="44.6903583" lon="9.3316583"><ele>402.25</ele><time>2026-04-17T09:29:28.943Z</time></trkpt><trkpt lat="44.6902717" lon="9.3314967"><ele>404.0</ele><time>2026-04-17T09:29:29.943Z</time></trkpt><trkpt lat="44.690215" lon="9.331315"><ele>394.3333333333333</ele><time>2026-04-17T09:29:30.943Z</time></trkpt><trkpt lat="44.6901783" lon="9.3311233"><ele>384.66666666666663</ele><time>2026-04-17T09:29:31.943Z</time></trkpt><trkpt lat="44.6901733" lon="9.3309117"><ele>375.0</ele><time>2026-04-17T09:29:32.943Z</time></trkpt><trkpt lat="44.6901883" lon="9.3306883"><ele>375.6666666666667</ele><time>2026-04-17T09:29:33.943Z</time></trkpt><trkpt lat="44.6902" lon="9.3304633"><ele>376.33333333333337</ele><time>2026-04-17T09:29:34.943Z</time></trkpt><trkpt lat="44.6902067" lon="9.3302383"><ele>377.0</ele><time>2026-04-17T09:29:35.943Z</time></trkpt><trkpt lat="44.6902133" lon="9.330025"><ele>377.0</ele><time>2026-04-17T09:29:36.943Z</time></trkpt><trkpt lat="44.6901917" lon="9.3298383"><ele>377.0</ele><time>2026-04-17T09:29:37.943Z</time></trkpt><trkpt lat="44.6901167" lon="9.3296833"><ele>377.0</ele><time>2026-04-17T09:29:38.943Z</time></trkpt><trkpt lat="44.6900033" lon="9.3295667"><ele>377.0</ele><time>2026-04-17T09:29:39.943Z</time></trkpt><trkpt lat="44.6898567" lon="9.3294617"><ele>376.33333333333337</ele><time>2026-04-17T09:29:40.943Z</time></trkpt><trkpt lat="44.6897" lon="9.3293567"><ele>375.6666666666667</ele><time>2026-04-17T09:29:41.943Z</time></trkpt><trkpt lat="44.689535" lon="9.32925"><ele>375.0</ele><time>2026-04-17T09:29:42.943Z</time></trkpt><trkpt lat="44.6893683" lon="9.3291467"><ele>374.5</ele><time>2026-04-17T09:29:43.943Z</time></trkpt><trkpt lat="44.68922" lon="9.3290517"><ele>374.0</ele><time>2026-04-17T09:29:44.943Z</time></trkpt><trkpt lat="44.6890983" lon="9.32897"><ele>373.5</ele><time>2026-04-17T09:29:45.943Z</time></trkpt><trkpt lat="44.689" lon="9.32889"><ele>373.0</ele><time>2026-04-17T09:29:46.944Z</time></trkpt><trkpt lat="44.6889233" lon="9.3287983"><ele>373.0</ele><time>2026-04-17T09:29:47.943Z</time></trkpt><trkpt lat="44.68888" lon="9.3286833"><ele>373.0</ele><time>2026-04-17T09:29:48.944Z</time></trkpt><trkpt lat="44.6888917" lon="9.328545"><ele>373.0</ele><time>2026-04-17T09:29:49.943Z</time></trkpt><trkpt lat="44.6889217" lon="9.3284033"><ele>373.0</ele><time>2026-04-17T09:29:50.943Z</time></trkpt><trkpt lat="44.6889617" lon="9.3282483"><ele>373.0</ele><time>2026-04-17T09:29:51.943Z</time></trkpt><trkpt lat="44.6890033" lon="9.3280833"><ele>374.0</ele><time>2026-04-17T09:29:52.943Z</time></trkpt><trkpt lat="44.6890383" lon="9.3279117"><ele>375.0</ele><time>2026-04-17T09:29:53.943Z</time></trkpt><trkpt lat="44.6890633" lon="9.3277517"><ele>376.0</ele><time>2026-04-17T09:29:54.943Z</time></trkpt><trkpt lat="44.68908" lon="9.327605"><ele>377.0</ele><time>2026-04-17T09:29:55.944Z</time></trkpt><trkpt lat="44.6890933" lon="9.327485"><ele>378.0</ele><time>2026-04-17T09:29:56.943Z</time></trkpt><trkpt lat="44.6891083" lon="9.3273767"><ele>378.0</ele><time>2026-04-17T09:29:57.943Z</time></trkpt><trkpt lat="44.6891183" lon="9.3272833"><ele>378.0</ele><time>2026-04-17T09:29:58.943Z</time></trkpt><trkpt lat="44.6891333" lon="9.327155"><ele>378.0</ele><time>2026-04-17T09:30:00.944Z</time></trkpt><trkpt lat="44.6891617" lon="9.326955"><ele>378.0</ele><time>2026-04-17T09:31:04.942Z</time></trkpt><trkpt lat="44.689195" lon="9.3266833"><ele>380.33333333333337</ele><time>2026-04-17T09:31:06.943Z</time></trkpt><trkpt lat="44.6892333" lon="9.3264683"><ele>382.6666666666667</ele><time>2026-04-17T09:31:07.942Z</time></trkpt><trkpt lat="44.6892633" lon="9.326235"><ele>385.0</ele><time>2026-04-17T09:31:08.942Z</time></trkpt><trkpt lat="44.6892967" lon="9.3259683"><ele>386.33333333333337</ele><time>2026-04-17T09:31:09.942Z</time></trkpt><trkpt lat="44.6893133" lon="9.3256967"><ele>387.66666666666663</ele><time>2026-04-17T09:31:10.942Z</time></trkpt><trkpt lat="44.68932" lon="9.3254083"><ele>389.0</ele><time>2026-04-17T09:31:11.943Z</time></trkpt><trkpt lat="44.689315" lon="9.3251117"><ele>390.0</ele><time>2026-04-17T09:31:12.942Z</time></trkpt><trkpt lat="44.6893083" lon="9.3248133"><ele>391.0</ele><time>2026-04-17T09:31:13.942Z</time></trkpt><trkpt lat="44.689305" lon="9.3245333"><ele>392.0</ele><time>2026-04-17T09:31:14.942Z</time></trkpt><trkpt lat="44.6893033" lon="9.324305"><ele>391.75</ele><time>2026-04-17T09:31:15.942Z</time></trkpt><trkpt lat="44.6892983" lon="9.3241"><ele>391.5</ele><time>2026-04-17T09:31:16.942Z</time></trkpt><trkpt lat="44.6892667" lon="9.3239083"><ele>391.25</ele><time>2026-04-17T09:31:17.942Z</time></trkpt><trkpt lat="44.6891983" lon="9.3237267"><ele>391.0</ele><time>2026-04-17T09:31:18.942Z</time></trkpt><trkpt lat="44.6891067" lon="9.323545"><ele>391.0</ele><time>2026-04-17T09:31:19.942Z</time></trkpt><trkpt lat="44.6890067" lon="9.323375"><ele>391.0</ele><time>2026-04-17T09:31:20.942Z</time></trkpt><trkpt lat="44.6889" lon="9.32323"><ele>391.0</ele><time>2026-04-17T09:31:21.942Z</time></trkpt><trkpt lat="44.6887717" lon="9.3231283"><ele>389.0</ele><time>2026-04-17T09:31:22.942Z</time></trkpt><trkpt lat="44.6886283" lon="9.32306"><ele>387.0</ele><time>2026-04-17T09:31:23.942Z</time></trkpt><trkpt lat="44.6884933" lon="9.3229983"><ele>385.0</ele><time>2026-04-17T09:31:24.942Z</time></trkpt><trkpt lat="44.68837" lon="9.32292"><ele>383.0</ele><time>2026-04-17T09:31:25.943Z</time></trkpt><trkpt lat="44.6882817" lon="9.3228183"><ele>387.2</ele><time>2026-04-17T09:31:26.942Z</time></trkpt><trkpt lat="44.6882117" lon="9.3227033"><ele>391.4</ele><time>2026-04-17T09:31:27.942Z</time></trkpt><trkpt lat="44.68818" lon="9.3225667"><ele>395.59999999999997</ele><time>2026-04-17T09:31:28.942Z</time></trkpt><trkpt lat="44.6881667" lon="9.3224033"><ele>399.79999999999995</ele><time>2026-04-17T09:31:29.942Z</time></trkpt><trkpt lat="44.68816" lon="9.322235"><ele>404.0</ele><time>2026-04-17T09:31:30.942Z</time></trkpt><trkpt lat="44.68815" lon="9.322045"><ele>404.0</ele><time>2026-04-17T09:31:31.942Z</time></trkpt><trkpt lat="44.6881233" lon="9.3218817"><ele>404.0</ele><time>2026-04-17T09:31:32.942Z</time></trkpt><trkpt lat="44.6880733" lon="9.3216967"><ele>404.0</ele><time>2026-04-17T09:31:33.942Z</time></trkpt><trkpt lat="44.68803" lon="9.3214667"><ele>404.0</ele><time>2026-04-17T09:31:34.942Z</time></trkpt><trkpt lat="44.688015" lon="9.32118"><ele>402.0</ele><time>2026-04-17T09:31:35.942Z</time></trkpt><trkpt lat="44.6880233" lon="9.3208633"><ele>400.0</ele><time>2026-04-17T09:31:36.942Z</time></trkpt><trkpt lat="44.6880333" lon="9.320545"><ele>398.0</ele><time>2026-04-17T09:31:37.942Z</time></trkpt><trkpt lat="44.6880467" lon="9.32025"><ele>396.0</ele><time>2026-04-17T09:31:38.942Z</time></trkpt><trkpt lat="44.6880583" lon="9.3199883"><ele>394.0</ele><time>2026-04-17T09:31:39.942Z</time></trkpt><trkpt lat="44.6880367" lon="9.3197667"><ele>392.5</ele><time>2026-04-17T09:31:40.942Z</time></trkpt><trkpt lat="44.6880233" lon="9.3195617"><ele>391.0</ele><time>2026-04-17T09:31:41.942Z</time></trkpt><trkpt lat="44.687965" lon="9.3193817"><ele>389.5</ele><time>2026-04-17T09:31:42.942Z</time></trkpt><trkpt lat="44.6878767" lon="9.3192433"><ele>388.0</ele><time>2026-04-17T09:31:43.942Z</time></trkpt><trkpt lat="44.6877667" lon="9.3191817"><ele>395.75</ele><time>2026-04-17T09:31:44.942Z</time></trkpt><trkpt lat="44.687655" lon="9.3191967"><ele>403.5</ele><time>2026-04-17T09:31:45.942Z</time></trkpt><trkpt lat="44.687545" lon="9.3192683"><ele>411.25</ele><time>2026-04-17T09:31:46.942Z</time></trkpt><trkpt lat="44.6874383" lon="9.31935"><ele>419.0</ele><time>2026-04-17T09:31:47.942Z</time></trkpt><trkpt lat="44.6873317" lon="9.3194117"><ele>419.0</ele><time>2026-04-17T09:31:48.942Z</time></trkpt><trkpt lat="44.6872183" lon="9.319435"><ele>419.0</ele><time>2026-04-17T09:31:49.942Z</time></trkpt><trkpt lat="44.6871117" lon="9.319395"><ele>419.0</ele><time>2026-04-17T09:31:50.942Z</time></trkpt><trkpt lat="44.6870083" lon="9.319305"><ele>419.0</ele><time>2026-04-17T09:31:51.942Z</time></trkpt><trkpt lat="44.686925" lon="9.3191367"><ele>428.3333333333333</ele><time>2026-04-17T09:31:52.942Z</time></trkpt><trkpt lat="44.68687" lon="9.3189317"><ele>437.66666666666663</ele><time>2026-04-17T09:31:53.942Z</time></trkpt><trkpt lat="44.6868217" lon="9.318725"><ele>447.0</ele><time>2026-04-17T09:31:54.943Z</time></trkpt><trkpt lat="44.6868017" lon="9.3184933"><ele>447.0</ele><time>2026-04-17T09:31:55.942Z</time></trkpt><trkpt lat="44.6868167" lon="9.3182767"><ele>447.0</ele><time>2026-04-17T09:31:56.943Z</time></trkpt><trkpt lat="44.6868683" lon="9.31806"><ele>447.0</ele><time>2026-04-17T09:31:57.942Z</time></trkpt><trkpt lat="44.68697" lon="9.3178533"><ele>440.75</ele><time>2026-04-17T09:31:58.942Z</time></trkpt><trkpt lat="44.68708" lon="9.3176867"><ele>434.5</ele><time>2026-04-17T09:31:59.942Z</time></trkpt><trkpt lat="44.6871667" lon="9.3175333"><ele>428.25</ele><time>2026-04-17T09:32:00.942Z</time></trkpt><trkpt lat="44.68722" lon="9.317345"><ele>422.0</ele><time>2026-04-17T09:32:01.942Z</time></trkpt><trkpt lat="44.68722" lon="9.3171367"><ele>422.0</ele><time>2026-04-17T09:32:02.942Z</time></trkpt><trkpt lat="44.6872083" lon="9.3169183"><ele>422.0</ele><time>2026-04-17T09:32:03.943Z</time></trkpt><trkpt lat="44.6872233" lon="9.3166767"><ele>422.0</ele><time>2026-04-17T09:32:04.942Z</time></trkpt><trkpt lat="44.6872567" lon="9.3164033"><ele>425.3333333333333</ele><time>2026-04-17T09:32:05.942Z</time></trkpt><trkpt lat="44.6873083" lon="9.3161067"><ele>428.66666666666663</ele><time>2026-04-17T09:32:06.942Z</time></trkpt><trkpt lat="44.6873383" lon="9.3158383"><ele>432.0</ele><time>2026-04-17T09:32:07.942Z</time></trkpt><trkpt lat="44.687345" lon="9.3156"><ele>435.25</ele><time>2026-04-17T09:32:08.942Z</time></trkpt><trkpt lat="44.6873283" lon="9.3153983"><ele>438.5</ele><time>2026-04-17T09:32:09.942Z</time></trkpt><trkpt lat="44.6873383" lon="9.3152267"><ele>441.75</ele><time>2026-04-17T09:32:10.942Z</time></trkpt><trkpt lat="44.687405" lon="9.3150767"><ele>445.0</ele><time>2026-04-17T09:32:11.942Z</time></trkpt><trkpt lat="44.6874833" lon="9.31489"><ele>448.33333333333337</ele><time>2026-04-17T09:32:12.942Z</time></trkpt><trkpt lat="44.6875733" lon="9.3146617"><ele>451.66666666666663</ele><time>2026-04-17T09:32:13.942Z</time></trkpt><trkpt lat="44.6876433" lon="9.3144133"><ele>455.0</ele><time>2026-04-17T09:32:14.942Z</time></trkpt><trkpt lat="44.6876833" lon="9.3141717"><ele>455.0</ele><time>2026-04-17T09:32:15.942Z</time></trkpt><trkpt lat="44.6876883" lon="9.3139517"><ele>455.0</ele><time>2026-04-17T09:32:16.942Z</time></trkpt><trkpt lat="44.6876633" lon="9.3137617"><ele>455.0</ele><time>2026-04-17T09:32:17.942Z</time></trkpt><trkpt lat="44.6875933" lon="9.3136017"><ele>455.0</ele><time>2026-04-17T09:32:18.942Z</time></trkpt><trkpt lat="44.6874817" lon="9.313495"><ele>451.75</ele><time>2026-04-17T09:32:19.942Z</time></trkpt><trkpt lat="44.6873633" lon="9.31342"><ele>448.5</ele><time>2026-04-17T09:32:20.943Z</time></trkpt><trkpt lat="44.68727" lon="9.3133017"><ele>445.25</ele><time>2026-04-17T09:32:21.943Z</time></trkpt><trkpt lat="44.6871967" lon="9.3131283"><ele>442.0</ele><time>2026-04-17T09:32:22.942Z</time></trkpt><trkpt lat="44.687135" lon="9.31288"><ele>434.0</ele><time>2026-04-17T09:32:23.942Z</time></trkpt><trkpt lat="44.6870517" lon="9.3125767"><ele>426.0</ele><time>2026-04-17T09:32:24.942Z</time></trkpt><trkpt lat="44.686945" lon="9.312285"><ele>436.0</ele><time>2026-04-17T09:32:25.942Z</time></trkpt><trkpt lat="44.6868267" lon="9.3120217"><ele>446.0</ele><time>2026-04-17T09:32:26.943Z</time></trkpt><trkpt lat="44.6867017" lon="9.3118017"><ele>456.0</ele><time>2026-04-17T09:32:27.942Z</time></trkpt><trkpt lat="44.686565" lon="9.31165"><ele>456.0</ele><time>2026-04-17T09:32:28.942Z</time></trkpt><trkpt lat="44.6864367" lon="9.3115367"><ele>456.0</ele><time>2026-04-17T09:32:29.942Z</time></trkpt><trkpt lat="44.6863333" lon="9.3114417"><ele>456.0</ele><time>2026-04-17T09:32:30.942Z</time></trkpt><trkpt lat="44.6862583" lon="9.31132"><ele>456.0</ele><time>2026-04-17T09:32:31.942Z</time></trkpt><trkpt lat="44.68621" lon="9.3111467"><ele>454.0</ele><time>2026-04-17T09:32:32.942Z</time></trkpt><trkpt lat="44.6862" lon="9.3109467"><ele>452.0</ele><time>2026-04-17T09:32:33.942Z</time></trkpt><trkpt lat="44.6861967" lon="9.310745"><ele>450.0</ele><time>2026-04-17T09:32:34.942Z</time></trkpt><trkpt lat="44.6862367" lon="9.3105417"><ele>448.0</ele><time>2026-04-17T09:32:35.942Z</time></trkpt><trkpt lat="44.68628" lon="9.3103583"><ele>455.33333333333337</ele><time>2026-04-17T09:32:36.942Z</time></trkpt><trkpt lat="44.686345" lon="9.3102017"><ele>462.66666666666663</ele><time>2026-04-17T09:32:37.942Z</time></trkpt><trkpt lat="44.6865383" lon="9.3102017"><ele>470.0</ele><time>2026-04-17T09:32:38.942Z</time></trkpt><trkpt lat="44.6866667" lon="9.3101483"><ele>470.0</ele><time>2026-04-17T09:32:39.942Z</time></trkpt><trkpt lat="44.6867883" lon="9.310025"><ele>470.0</ele><time>2026-04-17T09:32:40.942Z</time></trkpt><trkpt lat="44.686875" lon="9.3098483"><ele>470.0</ele><time>2026-04-17T09:32:41.942Z</time></trkpt><trkpt lat="44.68691" lon="9.3096467"><ele>469.5</ele><time>2026-04-17T09:32:42.942Z</time></trkpt><trkpt lat="44.6868867" lon="9.309435"><ele>469.0</ele><time>2026-04-17T09:32:43.942Z</time></trkpt><trkpt lat="44.686835" lon="9.3092433"><ele>468.5</ele><time>2026-04-17T09:32:44.942Z</time></trkpt><trkpt lat="44.6867317" lon="9.3090967"><ele>468.0</ele><time>2026-04-17T09:32:45.942Z</time></trkpt><trkpt lat="44.6865833" lon="9.308995"><ele>468.0</ele><time>2026-04-17T09:32:46.942Z</time></trkpt><trkpt lat="44.6864117" lon="9.3089183"><ele>468.0</ele><time>2026-04-17T09:32:47.942Z</time></trkpt><trkpt lat="44.6862333" lon="9.3088567"><ele>468.0</ele><time>2026-04-17T09:32:48.942Z</time></trkpt><trkpt lat="44.6860467" lon="9.30883"><ele>462.66666666666663</ele><time>2026-04-17T09:32:49.942Z</time></trkpt><trkpt lat="44.685855" lon="9.3088333"><ele>457.3333333333333</ele><time>2026-04-17T09:32:50.942Z</time></trkpt><trkpt lat="44.685655" lon="9.3088317"><ele>452.0</ele><time>2026-04-17T09:32:51.942Z</time></trkpt><trkpt lat="44.6854383" lon="9.3088217"><ele>457.3333333333333</ele><time>2026-04-17T09:32:52.942Z</time></trkpt><trkpt lat="44.685205" lon="9.3088333"><ele>462.66666666666663</ele><time>2026-04-17T09:32:53.942Z</time></trkpt><trkpt lat="44.6849917" lon="9.3088583"><ele>468.0</ele><time>2026-04-17T09:32:54.942Z</time></trkpt><trkpt lat="44.6847983" lon="9.3089283"><ele>475.33333333333337</ele><time>2026-04-17T09:32:55.942Z</time></trkpt><trkpt lat="44.6846433" lon="9.3090267"><ele>482.6666666666667</ele><time>2026-04-17T09:32:56.942Z</time></trkpt><trkpt lat="44.684495" lon="9.309085"><ele>490.0</ele><time>2026-04-17T09:32:57.942Z</time></trkpt><trkpt lat="44.6843367" lon="9.30911"><ele>490.25</ele><time>2026-04-17T09:32:58.942Z</time></trkpt><trkpt lat="44.6841917" lon="9.3091133"><ele>490.5</ele><time>2026-04-17T09:32:59.942Z</time></trkpt><trkpt lat="44.6840617" lon="9.3090867"><ele>490.75</ele><time>2026-04-17T09:33:00.942Z</time></trkpt><trkpt lat="44.68395" lon="9.3090167"><ele>491.0</ele><time>2026-04-17T09:33:01.942Z</time></trkpt><trkpt lat="44.6838567" lon="9.308885"><ele>490.3333333333333</ele><time>2026-04-17T09:33:02.942Z</time></trkpt><trkpt lat="44.68376" lon="9.308705"><ele>489.66666666666663</ele><time>2026-04-17T09:33:03.942Z</time></trkpt><trkpt lat="44.68365" lon="9.30855"><ele>489.0</ele><time>2026-04-17T09:33:04.942Z</time></trkpt><trkpt lat="44.6835317" lon="9.3084383"><ele>489.0</ele><time>2026-04-17T09:33:05.942Z</time></trkpt><trkpt lat="44.6834217" lon="9.308355"><ele>489.0</ele><time>2026-04-17T09:33:06.942Z</time></trkpt><trkpt lat="44.6833367" lon="9.3082733"><ele>489.0</ele><time>2026-04-17T09:33:07.942Z</time></trkpt><trkpt lat="44.683285" lon="9.3081783"><ele>489.0</ele><time>2026-04-17T09:33:08.942Z</time></trkpt><trkpt lat="44.6832867" lon="9.308065"><ele>489.0</ele><time>2026-04-17T09:33:09.942Z</time></trkpt><trkpt lat="44.6833033" lon="9.3079417"><ele>492.33333333333337</ele><time>2026-04-17T09:33:10.942Z</time></trkpt><trkpt lat="44.6833483" lon="9.3078"><ele>495.6666666666667</ele><time>2026-04-17T09:33:11.942Z</time></trkpt><trkpt lat="44.6834333" lon="9.3075733"><ele>499.0</ele><time>2026-04-17T09:33:12.942Z</time></trkpt><trkpt lat="44.6835417" lon="9.3072917"><ele>493.0</ele><time>2026-04-17T09:33:13.942Z</time></trkpt><trkpt lat="44.6836283" lon="9.3070083"><ele>487.0</ele><time>2026-04-17T09:33:14.942Z</time></trkpt><trkpt lat="44.6836933" lon="9.306755"><ele>481.0</ele><time>2026-04-17T09:33:15.943Z</time></trkpt><trkpt lat="44.6837067" lon="9.306525"><ele>477.5</ele><time>2026-04-17T09:33:16.942Z</time></trkpt><trkpt lat="44.6836717" lon="9.3063083"><ele>474.0</ele><time>2026-04-17T09:33:17.942Z</time></trkpt><trkpt lat="44.68362" lon="9.3061167"><ele>470.5</ele><time>2026-04-17T09:33:18.942Z</time></trkpt><trkpt lat="44.6835517" lon="9.3059733"><ele>467.0</ele><time>2026-04-17T09:33:19.943Z</time></trkpt><trkpt lat="44.6834483" lon="9.3058833"><ele>472.5</ele><time>2026-04-17T09:33:20.942Z</time></trkpt><trkpt lat="44.68333" lon="9.3058083"><ele>478.0</ele><time>2026-04-17T09:33:21.942Z</time></trkpt><trkpt lat="44.68321" lon="9.3057233"><ele>483.5</ele><time>2026-04-17T09:33:22.943Z</time></trkpt><trkpt lat="44.6831233" lon="9.305605"><ele>489.0</ele><time>2026-04-17T09:33:23.942Z</time></trkpt><trkpt lat="44.6830783" lon="9.3054467"><ele>489.0</ele><time>2026-04-17T09:33:24.942Z</time></trkpt><trkpt lat="44.68306" lon="9.30526"><ele>489.0</ele><time>2026-04-17T09:33:25.942Z</time></trkpt><trkpt lat="44.6830333" lon="9.305065"><ele>489.0</ele><time>2026-04-17T09:33:26.942Z</time></trkpt><trkpt lat="44.6829767" lon="9.3048467"><ele>489.0</ele><time>2026-04-17T09:33:27.942Z</time></trkpt><trkpt lat="44.6829017" lon="9.3046183"><ele>489.66666666666663</ele><time>2026-04-17T09:33:28.942Z</time></trkpt><trkpt lat="44.6828183" lon="9.3044067"><ele>490.3333333333333</ele><time>2026-04-17T09:33:29.942Z</time></trkpt><trkpt lat="44.68274" lon="9.30422"><ele>491.0</ele><time>2026-04-17T09:33:30.942Z</time></trkpt><trkpt lat="44.68265" lon="9.3040533"><ele>493.5</ele><time>2026-04-17T09:33:31.942Z</time></trkpt><trkpt lat="44.6825333" lon="9.3039367"><ele>496.0</ele><time>2026-04-17T09:33:32.942Z</time></trkpt><trkpt lat="44.682405" lon="9.3038733"><ele>498.5</ele><time>2026-04-17T09:33:33.942Z</time></trkpt><trkpt lat="44.6822433" lon="9.3038983"><ele>501.0</ele><time>2026-04-17T09:33:34.942Z</time></trkpt><trkpt lat="44.6820267" lon="9.30397"><ele>503.5</ele><time>2026-04-17T09:33:35.942Z</time></trkpt><trkpt lat="44.681805" lon="9.3040333"><ele>506.0</ele><time>2026-04-17T09:33:36.942Z</time></trkpt><trkpt lat="44.6815783" lon="9.3040917"><ele>506.0</ele><time>2026-04-17T09:33:37.942Z</time></trkpt><trkpt lat="44.681365" lon="9.3041283"><ele>506.0</ele><time>2026-04-17T09:33:38.943Z</time></trkpt><trkpt lat="44.68117" lon="9.3041417"><ele>506.0</ele><time>2026-04-17T09:33:39.942Z</time></trkpt><trkpt lat="44.680985" lon="9.3041117"><ele>504.3333333333333</ele><time>2026-04-17T09:33:40.942Z</time></trkpt><trkpt lat="44.6808017" lon="9.3040033"><ele>502.66666666666663</ele><time>2026-04-17T09:33:41.942Z</time></trkpt><trkpt lat="44.6806267" lon="9.3038317"><ele>501.0</ele><time>2026-04-17T09:33:42.942Z</time></trkpt><trkpt lat="44.6804667" lon="9.3036467"><ele>501.0</ele><time>2026-04-17T09:33:43.942Z</time></trkpt><trkpt lat="44.6803333" lon="9.3034767"><ele>501.0</ele><time>2026-04-17T09:33:44.942Z</time></trkpt><trkpt lat="44.6802067" lon="9.30335"><ele>501.0</ele><time>2026-04-17T09:33:45.942Z</time></trkpt><trkpt lat="44.6800817" lon="9.3032833"><ele>506.66666666666663</ele><time>2026-04-17T09:33:46.942Z</time></trkpt><trkpt lat="44.6799517" lon="9.3033033"><ele>512.3333333333333</ele><time>2026-04-17T09:33:47.942Z</time></trkpt><trkpt lat="44.67981" lon="9.3034017"><ele>518.0</ele><time>2026-04-17T09:33:48.942Z</time></trkpt><trkpt lat="44.67965" lon="9.3035433"><ele>518.0</ele><time>2026-04-17T09:33:49.942Z</time></trkpt><trkpt lat="44.67949" lon="9.3036733"><ele>518.0</ele><time>2026-04-17T09:33:50.942Z</time></trkpt><trkpt lat="44.6793083" lon="9.3037667"><ele>518.0</ele><time>2026-04-17T09:33:51.942Z</time></trkpt><trkpt lat="44.679105" lon="9.3038083"><ele>518.6666666666666</ele><time>2026-04-17T09:33:52.942Z</time></trkpt><trkpt lat="44.6789033" lon="9.3038517"><ele>519.3333333333334</ele><time>2026-04-17T09:33:53.942Z</time></trkpt><trkpt lat="44.6787133" lon="9.30392"><ele>520.0</ele><time>2026-04-17T09:33:54.942Z</time></trkpt><trkpt lat="44.6785433" lon="9.3040267"><ele>520.0</ele><time>2026-04-17T09:33:55.942Z</time></trkpt><trkpt lat="44.6784" lon="9.304175"><ele>520.0</ele><time>2026-04-17T09:33:56.942Z</time></trkpt><trkpt lat="44.6783" lon="9.30436"><ele>520.0</ele><time>2026-04-17T09:33:57.942Z</time></trkpt><trkpt lat="44.6782183" lon="9.304545"><ele>520.0</ele><time>2026-04-17T09:33:58.942Z</time></trkpt><trkpt lat="44.678135" lon="9.3046967"><ele>520.0</ele><time>2026-04-17T09:33:59.942Z</time></trkpt><trkpt lat="44.6780183" lon="9.3047717"><ele>520.0</ele><time>2026-04-17T09:34:00.942Z</time></trkpt><trkpt lat="44.6778817" lon="9.3048467"><ele>520.0</ele><time>2026-04-17T09:34:01.942Z</time></trkpt><trkpt lat="44.6777583" lon="9.304945"><ele>522.75</ele><time>2026-04-17T09:34:02.942Z</time></trkpt><trkpt lat="44.67768" lon="9.3051083"><ele>525.5</ele><time>2026-04-17T09:34:03.942Z</time></trkpt><trkpt lat="44.6775783" lon="9.30521"><ele>528.25</ele><time>2026-04-17T09:34:04.942Z</time></trkpt><trkpt lat="44.6774333" lon="9.3052683"><ele>531.0</ele><time>2026-04-17T09:34:05.942Z</time></trkpt><trkpt lat="44.67725" lon="9.3053083"><ele>531.0</ele><time>2026-04-17T09:34:06.942Z</time></trkpt><trkpt lat="44.6770117" lon="9.3053417"><ele>531.0</ele><time>2026-04-17T09:34:07.942Z</time></trkpt><trkpt lat="44.67676" lon="9.305355"><ele>530.5</ele><time>2026-04-17T09:34:08.942Z</time></trkpt><trkpt lat="44.6765233" lon="9.305375"><ele>530.0</ele><time>2026-04-17T09:34:09.942Z</time></trkpt><trkpt lat="44.676305" lon="9.3054083"><ele>530.0</ele><time>2026-04-17T09:34:10.942Z</time></trkpt><trkpt lat="44.6761067" lon="9.3054883"><ele>530.0</ele><time>2026-04-17T09:34:11.942Z</time></trkpt><trkpt lat="44.6759367" lon="9.3056133"><ele>530.0</ele><time>2026-04-17T09:34:12.942Z</time></trkpt><trkpt lat="44.6757917" lon="9.3057783"><ele>532.6666666666666</ele><time>2026-04-17T09:34:13.942Z</time></trkpt><trkpt lat="44.67568" lon="9.3059717"><ele>535.3333333333334</ele><time>2026-04-17T09:34:14.942Z</time></trkpt><trkpt lat="44.6756067" lon="9.30617"><ele>538.0</ele><time>2026-04-17T09:34:15.942Z</time></trkpt><trkpt lat="44.6755717" lon="9.3063783"><ele>541.5</ele><time>2026-04-17T09:34:16.942Z</time></trkpt><trkpt lat="44.6755667" lon="9.306575"><ele>545.0</ele><time>2026-04-17T09:34:17.942Z</time></trkpt><trkpt lat="44.67557" lon="9.306745"><ele>548.5</ele><time>2026-04-17T09:34:18.942Z</time></trkpt><trkpt lat="44.6755483" lon="9.3068867"><ele>552.0</ele><time>2026-04-17T09:34:19.942Z</time></trkpt><trkpt lat="44.6755083" lon="9.307005"><ele>552.0</ele><time>2026-04-17T09:34:20.942Z</time></trkpt><trkpt lat="44.6754283" lon="9.3070933"><ele>552.0</ele><time>2026-04-17T09:34:21.942Z</time></trkpt><trkpt lat="44.6753317" lon="9.3072133"><ele>552.0</ele><time>2026-04-17T09:34:22.942Z</time></trkpt><trkpt lat="44.6752333" lon="9.3073533"><ele>552.0</ele><time>2026-04-17T09:34:23.942Z</time></trkpt><trkpt lat="44.6751717" lon="9.3075467"><ele>555.3333333333334</ele><time>2026-04-17T09:34:24.942Z</time></trkpt><trkpt lat="44.6751567" lon="9.3077817"><ele>558.6666666666667</ele><time>2026-04-17T09:34:25.942Z</time></trkpt><trkpt lat="44.6752017" lon="9.3080517"><ele>562.0</ele><time>2026-04-17T09:34:26.942Z</time></trkpt><trkpt lat="44.6752967" lon="9.3083133"><ele>562.0</ele><time>2026-04-17T09:34:27.942Z</time></trkpt><trkpt lat="44.6753583" lon="9.3085233"><ele>562.0</ele><time>2026-04-17T09:34:28.942Z</time></trkpt><trkpt lat="44.6753933" lon="9.3086867"><ele>562.0</ele><time>2026-04-17T09:34:29.942Z</time></trkpt><trkpt lat="44.6753933" lon="9.3088283"><ele>562.0</ele><time>2026-04-17T09:34:30.942Z</time></trkpt><trkpt lat="44.67533" lon="9.3089617"><ele>557.6666666666667</ele><time>2026-04-17T09:34:31.942Z</time></trkpt><trkpt lat="44.675185" lon="9.3091"><ele>553.3333333333334</ele><time>2026-04-17T09:34:32.942Z</time></trkpt><trkpt lat="44.675035" lon="9.3092117"><ele>549.0</ele><time>2026-04-17T09:34:33.942Z</time></trkpt><trkpt lat="44.6749133" lon="9.309285"><ele>549.0</ele><time>2026-04-17T09:34:34.942Z</time></trkpt><trkpt lat="44.67479" lon="9.30931"><ele>549.0</ele><time>2026-04-17T09:34:35.942Z</time></trkpt><trkpt lat="44.674675" lon="9.3092667"><ele>549.0</ele><time>2026-04-17T09:34:36.942Z</time></trkpt><trkpt lat="44.674585" lon="9.3091283"><ele>549.0</ele><time>2026-04-17T09:34:37.942Z</time></trkpt><trkpt lat="44.674485" lon="9.3090467"><ele>551.6666666666666</ele><time>2026-04-17T09:34:38.943Z</time></trkpt><trkpt lat="44.6743617" lon="9.3090083"><ele>554.3333333333333</ele><time>2026-04-17T09:34:39.942Z</time></trkpt><trkpt lat="44.6742033" lon="9.309025"><ele>557.0</ele><time>2026-04-17T09:34:40.942Z</time></trkpt><trkpt lat="44.6740383" lon="9.30901"><ele>557.0</ele><time>2026-04-17T09:34:41.942Z</time></trkpt><trkpt lat="44.67388" lon="9.30892"><ele>557.0</ele><time>2026-04-17T09:34:42.942Z</time></trkpt><trkpt lat="44.6737483" lon="9.30877"><ele>557.0</ele><time>2026-04-17T09:34:43.942Z</time></trkpt><trkpt lat="44.6736083" lon="9.30863"><ele>550.5</ele><time>2026-04-17T09:34:44.943Z</time></trkpt><trkpt lat="44.673465" lon="9.30851"><ele>544.0</ele><time>2026-04-17T09:34:45.942Z</time></trkpt><trkpt lat="44.6733283" lon="9.308455"><ele>537.5</ele><time>2026-04-17T09:34:46.942Z</time></trkpt><trkpt lat="44.6731967" lon="9.308465"><ele>531.0</ele><time>2026-04-17T09:34:47.942Z</time></trkpt><trkpt lat="44.6730717" lon="9.308545"><ele>531.0</ele><time>2026-04-17T09:34:48.942Z</time></trkpt><trkpt lat="44.6729733" lon="9.3087167"><ele>531.0</ele><time>2026-04-17T09:34:49.942Z</time></trkpt><trkpt lat="44.67286" lon="9.3089333"><ele>531.0</ele><time>2026-04-17T09:34:50.942Z</time></trkpt><trkpt lat="44.6727167" lon="9.309135"><ele>534.3333333333334</ele><time>2026-04-17T09:34:51.942Z</time></trkpt><trkpt lat="44.67254" lon="9.3093117"><ele>537.6666666666667</ele><time>2026-04-17T09:34:52.942Z</time></trkpt><trkpt lat="44.6723633" lon="9.3094567"><ele>541.0</ele><time>2026-04-17T09:34:53.942Z</time></trkpt><trkpt lat="44.6721967" lon="9.309565"><ele>541.0</ele><time>2026-04-17T09:34:54.942Z</time></trkpt><trkpt lat="44.67202" lon="9.3096417"><ele>541.0</ele><time>2026-04-17T09:34:55.942Z</time></trkpt><trkpt lat="44.671835" lon="9.3096533"><ele>541.0</ele><time>2026-04-17T09:34:56.942Z</time></trkpt><trkpt lat="44.671655" lon="9.3096567"><ele>537.0</ele><time>2026-04-17T09:34:57.942Z</time></trkpt><trkpt lat="44.6714933" lon="9.3096317"><ele>533.0</ele><time>2026-04-17T09:34:58.942Z</time></trkpt><trkpt lat="44.671345" lon="9.3095367"><ele>529.0</ele><time>2026-04-17T09:34:59.942Z</time></trkpt><trkpt lat="44.67121" lon="9.3094283"><ele>529.75</ele><time>2026-04-17T09:35:00.942Z</time></trkpt><trkpt lat="44.6710867" lon="9.30937"><ele>530.5</ele><time>2026-04-17T09:35:01.942Z</time></trkpt><trkpt lat="44.6709683" lon="9.309365"><ele>531.25</ele><time>2026-04-17T09:35:02.942Z</time></trkpt><trkpt lat="44.6708117" lon="9.3094533"><ele>532.0</ele><time>2026-04-17T09:35:03.942Z</time></trkpt><trkpt lat="44.6706283" lon="9.3095133"><ele>532.0</ele><time>2026-04-17T09:35:04.942Z</time></trkpt><trkpt lat="44.6704383" lon="9.3095217"><ele>532.0</ele><time>2026-04-17T09:35:05.942Z</time></trkpt><trkpt lat="44.6702633" lon="9.3094933"><ele>532.0</ele><time>2026-04-17T09:35:06.942Z</time></trkpt><trkpt lat="44.6701167" lon="9.3094217"><ele>529.6666666666667</ele><time>2026-04-17T09:35:07.942Z</time></trkpt><trkpt lat="44.6699717" lon="9.3093767"><ele>527.3333333333334</ele><time>2026-04-17T09:35:08.942Z</time></trkpt><trkpt lat="44.669825" lon="9.30941"><ele>525.0</ele><time>2026-04-17T09:35:09.942Z</time></trkpt><trkpt lat="44.6696967" lon="9.309545"><ele>534.6666666666666</ele><time>2026-04-17T09:35:10.943Z</time></trkpt><trkpt lat="44.669635" lon="9.30977"><ele>544.3333333333333</ele><time>2026-04-17T09:35:11.942Z</time></trkpt><trkpt lat="44.6696033" lon="9.3100017"><ele>554.0</ele><time>2026-04-17T09:35:12.942Z</time></trkpt><trkpt lat="44.6696183" lon="9.3102317"><ele>554.0</ele><time>2026-04-17T09:35:13.942Z</time></trkpt><trkpt lat="44.6696317" lon="9.310445"><ele>554.0</ele><time>2026-04-17T09:35:14.942Z</time></trkpt><trkpt lat="44.6696317" lon="9.310635"><ele>554.0</ele><time>2026-04-17T09:35:15.942Z</time></trkpt><trkpt lat="44.66954" lon="9.310755"><ele>554.0</ele><time>2026-04-17T09:35:16.942Z</time></trkpt><trkpt lat="44.66941" lon="9.3108283"><ele>550.25</ele><time>2026-04-17T09:35:17.942Z</time></trkpt><trkpt lat="44.6692667" lon="9.3108583"><ele>546.5</ele><time>2026-04-17T09:35:18.942Z</time></trkpt><trkpt lat="44.669125" lon="9.310905"><ele>542.75</ele><time>2026-04-17T09:35:19.942Z</time></trkpt><trkpt lat="44.6689983" lon="9.3109883"><ele>539.0</ele><time>2026-04-17T09:35:20.942Z</time></trkpt><trkpt lat="44.6688917" lon="9.31114"><ele>539.0</ele><time>2026-04-17T09:35:21.942Z</time></trkpt><trkpt lat="44.668855" lon="9.3113783"><ele>539.0</ele><time>2026-04-17T09:35:22.942Z</time></trkpt><trkpt lat="44.6688267" lon="9.3116183"><ele>539.0</ele><time>2026-04-17T09:35:23.942Z</time></trkpt><trkpt lat="44.6687833" lon="9.3118217"><ele>540.6666666666666</ele><time>2026-04-17T09:35:24.942Z</time></trkpt><trkpt lat="44.668725" lon="9.3119983"><ele>542.3333333333334</ele><time>2026-04-17T09:35:25.942Z</time></trkpt><trkpt lat="44.668615" lon="9.312125"><ele>544.0</ele><time>2026-04-17T09:35:26.942Z</time></trkpt><trkpt lat="44.6684283" lon="9.3121267"><ele>544.0</ele><time>2026-04-17T09:35:27.942Z</time></trkpt><trkpt lat="44.6682467" lon="9.3120733"><ele>544.0</ele><time>2026-04-17T09:35:28.943Z</time></trkpt><trkpt lat="44.66809" lon="9.311965"><ele>544.0</ele><time>2026-04-17T09:35:29.942Z</time></trkpt><trkpt lat="44.6679517" lon="9.31185"><ele>544.0</ele><time>2026-04-17T09:35:30.942Z</time></trkpt><trkpt lat="44.6678233" lon="9.3117883"><ele>544.0</ele><time>2026-04-17T09:35:31.942Z</time></trkpt><trkpt lat="44.6676983" lon="9.3118"><ele>544.0</ele><time>2026-04-17T09:35:32.942Z</time></trkpt><trkpt lat="44.66761" lon="9.311945"><ele>544.0</ele><time>2026-04-17T09:35:33.942Z</time></trkpt><trkpt lat="44.6675217" lon="9.3121333"><ele>548.6666666666667</ele><time>2026-04-17T09:35:34.942Z</time></trkpt><trkpt lat="44.6674317" lon="9.3123417"><ele>553.3333333333334</ele><time>2026-04-17T09:35:35.942Z</time></trkpt><trkpt lat="44.667345" lon="9.3125467"><ele>558.0</ele><time>2026-04-17T09:35:36.942Z</time></trkpt><trkpt lat="44.6672467" lon="9.3127167"><ele>558.0</ele><time>2026-04-17T09:35:37.942Z</time></trkpt><trkpt lat="44.66712" lon="9.3128517"><ele>558.0</ele><time>2026-04-17T09:35:38.942Z</time></trkpt><trkpt lat="44.6669517" lon="9.3129233"><ele>558.0</ele><time>2026-04-17T09:35:39.942Z</time></trkpt><trkpt lat="44.6667717" lon="9.3129917"><ele>562.3333333333334</ele><time>2026-04-17T09:35:40.942Z</time></trkpt><trkpt lat="44.6666" lon="9.3130467"><ele>566.6666666666667</ele><time>2026-04-17T09:35:41.942Z</time></trkpt><trkpt lat="44.6664517" lon="9.3130817"><ele>571.0</ele><time>2026-04-17T09:35:42.942Z</time></trkpt><trkpt lat="44.666315" lon="9.3130933"><ele>567.75</ele><time>2026-04-17T09:35:43.942Z</time></trkpt><trkpt lat="44.6662033" lon="9.3130433"><ele>564.5</ele><time>2026-04-17T09:35:44.942Z</time></trkpt><trkpt lat="44.666115" lon="9.3129133"><ele>561.25</ele><time>2026-04-17T09:35:45.943Z</time></trkpt><trkpt lat="44.6660267" lon="9.3127683"><ele>558.0</ele><time>2026-04-17T09:35:46.942Z</time></trkpt><trkpt lat="44.6659133" lon="9.3126417"><ele>558.0</ele><time>2026-04-17T09:35:47.942Z</time></trkpt><trkpt lat="44.6657767" lon="9.3125283"><ele>558.0</ele><time>2026-04-17T09:35:48.942Z</time></trkpt><trkpt lat="44.6656483" lon="9.3123917"><ele>558.0</ele><time>2026-04-17T09:35:49.942Z</time></trkpt><trkpt lat="44.66554" lon="9.3122067"><ele>559.6666666666666</ele><time>2026-04-17T09:35:50.942Z</time></trkpt><trkpt lat="44.6654517" lon="9.3119917"><ele>561.3333333333333</ele><time>2026-04-17T09:35:51.942Z</time></trkpt><trkpt lat="44.6653483" lon="9.3117867"><ele>563.0</ele><time>2026-04-17T09:35:52.942Z</time></trkpt><trkpt lat="44.665225" lon="9.3115833"><ele>557.6666666666666</ele><time>2026-04-17T09:35:53.942Z</time></trkpt><trkpt lat="44.665085" lon="9.3114"><ele>552.3333333333334</ele><time>2026-04-17T09:35:54.942Z</time></trkpt><trkpt lat="44.664925" lon="9.3112717"><ele>547.0</ele><time>2026-04-17T09:35:55.942Z</time></trkpt><trkpt lat="44.66475" lon="9.31119"><ele>547.0</ele><time>2026-04-17T09:35:56.942Z</time></trkpt><trkpt lat="44.6645633" lon="9.311175"><ele>547.0</ele><time>2026-04-17T09:35:57.942Z</time></trkpt><trkpt lat="44.6643783" lon="9.3112033"><ele>547.0</ele><time>2026-04-17T09:35:58.942Z</time></trkpt><trkpt lat="44.664195" lon="9.3112483"><ele>545.0</ele><time>2026-04-17T09:35:59.942Z</time></trkpt><trkpt lat="44.66402" lon="9.3113233"><ele>543.0</ele><time>2026-04-17T09:36:00.942Z</time></trkpt><trkpt lat="44.6638617" lon="9.3114667"><ele>541.0</ele><time>2026-04-17T09:36:01.942Z</time></trkpt><trkpt lat="44.66369" lon="9.3116617"><ele>541.0</ele><time>2026-04-17T09:36:02.942Z</time></trkpt><trkpt lat="44.66348" lon="9.3118517"><ele>541.0</ele><time>2026-04-17T09:36:03.942Z</time></trkpt><trkpt lat="44.66326" lon="9.3120167"><ele>541.0</ele><time>2026-04-17T09:36:04.942Z</time></trkpt><trkpt lat="44.6630417" lon="9.3121833"><ele>541.0</ele><time>2026-04-17T09:36:05.942Z</time></trkpt><trkpt lat="44.6628483" lon="9.3123483"><ele>540.6666666666667</ele><time>2026-04-17T09:36:06.942Z</time></trkpt><trkpt lat="44.6627033" lon="9.3125033"><ele>540.3333333333334</ele><time>2026-04-17T09:36:07.942Z</time></trkpt><trkpt lat="44.6625867" lon="9.3126583"><ele>540.0</ele><time>2026-04-17T09:36:08.942Z</time></trkpt><trkpt lat="44.6625183" lon="9.31285"><ele>540.0</ele><time>2026-04-17T09:36:09.942Z</time></trkpt><trkpt lat="44.6624467" lon="9.313025"><ele>540.0</ele><time>2026-04-17T09:36:10.942Z</time></trkpt><trkpt lat="44.662345" lon="9.3131933"><ele>540.0</ele><time>2026-04-17T09:36:11.942Z</time></trkpt><trkpt lat="44.66222" lon="9.3133183"><ele>545.25</ele><time>2026-04-17T09:36:12.942Z</time></trkpt><trkpt lat="44.6620967" lon="9.313395"><ele>550.5</ele><time>2026-04-17T09:36:13.942Z</time></trkpt><trkpt lat="44.66197" lon="9.31341"><ele>555.75</ele><time>2026-04-17T09:36:14.942Z</time></trkpt><trkpt lat="44.6618533" lon="9.3133583"><ele>561.0</ele><time>2026-04-17T09:36:15.942Z</time></trkpt><trkpt lat="44.6617617" lon="9.3132417"><ele>561.0</ele><time>2026-04-17T09:36:16.942Z</time></trkpt><trkpt lat="44.6616817" lon="9.3130783"><ele>561.0</ele><time>2026-04-17T09:36:17.942Z</time></trkpt><trkpt lat="44.6616017" lon="9.312845"><ele>561.0</ele><time>2026-04-17T09:36:18.942Z</time></trkpt><trkpt lat="44.6615067" lon="9.3125483"><ele>549.0</ele><time>2026-04-17T09:36:19.942Z</time></trkpt><trkpt lat="44.6613983" lon="9.31223"><ele>537.0</ele><time>2026-04-17T09:36:20.942Z</time></trkpt><trkpt lat="44.66131" lon="9.3119417"><ele>537.0</ele><time>2026-04-17T09:36:21.942Z</time></trkpt><trkpt lat="44.66122" lon="9.3116567"><ele>537.0</ele><time>2026-04-17T09:36:22.942Z</time></trkpt><trkpt lat="44.6611583" lon="9.3113617"><ele>537.0</ele><time>2026-04-17T09:36:23.942Z</time></trkpt><trkpt lat="44.6611183" lon="9.311075"><ele>536.0</ele><time>2026-04-17T09:36:24.942Z</time></trkpt><trkpt lat="44.6610983" lon="9.31079"><ele>535.0</ele><time>2026-04-17T09:36:25.942Z</time></trkpt><trkpt lat="44.66106" lon="9.3105367"><ele>534.0</ele><time>2026-04-17T09:36:26.942Z</time></trkpt><trkpt lat="44.6610033" lon="9.310325"><ele>534.0</ele><time>2026-04-17T09:36:27.942Z</time></trkpt><trkpt lat="44.6609383" lon="9.31015"><ele>534.0</ele><time>2026-04-17T09:36:28.942Z</time></trkpt><trkpt lat="44.6608517" lon="9.3100217"><ele>534.0</ele><time>2026-04-17T09:36:29.942Z</time></trkpt><trkpt lat="44.660755" lon="9.3099417"><ele>534.0</ele><time>2026-04-17T09:36:30.942Z</time></trkpt><trkpt lat="44.6606483" lon="9.31"><ele>534.0</ele><time>2026-04-17T09:36:31.942Z</time></trkpt><trkpt lat="44.66057" lon="9.3101117"><ele>534.0</ele><time>2026-04-17T09:36:32.942Z</time></trkpt><trkpt lat="44.660505" lon="9.310295"><ele>534.0</ele><time>2026-04-17T09:36:33.942Z</time></trkpt><trkpt lat="44.660425" lon="9.3104817"><ele>534.0</ele><time>2026-04-17T09:36:34.942Z</time></trkpt><trkpt lat="44.6603233" lon="9.310635"><ele>534.0</ele><time>2026-04-17T09:36:35.942Z</time></trkpt><trkpt lat="44.6601767" lon="9.31076"><ele>534.0</ele><time>2026-04-17T09:36:36.942Z</time></trkpt><trkpt lat="44.6600033" lon="9.31091"><ele>534.0</ele><time>2026-04-17T09:36:37.942Z</time></trkpt><trkpt lat="44.6598217" lon="9.311095"><ele>534.0</ele><time>2026-04-17T09:36:38.942Z</time></trkpt><trkpt lat="44.6596417" lon="9.3112967"><ele>534.0</ele><time>2026-04-17T09:36:39.942Z</time></trkpt><trkpt lat="44.6594483" lon="9.3114733"><ele>534.0</ele><time>2026-04-17T09:36:40.942Z</time></trkpt><trkpt lat="44.659225" lon="9.3116"><ele>534.0</ele><time>2026-04-17T09:36:41.942Z</time></trkpt><trkpt lat="44.6589967" lon="9.31172"><ele>534.0</ele><time>2026-04-17T09:36:42.942Z</time></trkpt><trkpt lat="44.6587583" lon="9.31188"><ele>534.0</ele><time>2026-04-17T09:36:43.942Z</time></trkpt><trkpt lat="44.65852" lon="9.3120483"><ele>535.5</ele><time>2026-04-17T09:36:44.942Z</time></trkpt><trkpt lat="44.6582783" lon="9.312215"><ele>537.0</ele><time>2026-04-17T09:36:45.942Z</time></trkpt><trkpt lat="44.6580483" lon="9.3123767"><ele>537.0</ele><time>2026-04-17T09:36:46.942Z</time></trkpt><trkpt lat="44.6578333" lon="9.3125233"><ele>537.0</ele><time>2026-04-17T09:36:47.942Z</time></trkpt><trkpt lat="44.657625" lon="9.31262"><ele>533.0</ele><time>2026-04-17T09:36:48.942Z</time></trkpt><trkpt lat="44.6574383" lon="9.3127017"><ele>529.0</ele><time>2026-04-17T09:36:49.942Z</time></trkpt><trkpt lat="44.6572833" lon="9.3127883"><ele>525.0</ele><time>2026-04-17T09:36:50.942Z</time></trkpt><trkpt lat="44.6571417" lon="9.3128617"><ele>525.0</ele><time>2026-04-17T09:36:51.942Z</time></trkpt><trkpt lat="44.6570167" lon="9.3129233"><ele>525.0</ele><time>2026-04-17T09:36:52.942Z</time></trkpt><trkpt lat="44.6568833" lon="9.3129217"><ele>525.0</ele><time>2026-04-17T09:36:53.942Z</time></trkpt><trkpt lat="44.65675" lon="9.3128417"><ele>525.0</ele><time>2026-04-17T09:36:54.942Z</time></trkpt><trkpt lat="44.6566233" lon="9.3127033"><ele>526.0</ele><time>2026-04-17T09:36:55.942Z</time></trkpt><trkpt lat="44.6565017" lon="9.312545"><ele>527.0</ele><time>2026-04-17T09:36:56.942Z</time></trkpt><trkpt lat="44.6563917" lon="9.3123817"><ele>528.0</ele><time>2026-04-17T09:36:57.942Z</time></trkpt><trkpt lat="44.6562817" lon="9.312255"><ele>528.0</ele><time>2026-04-17T09:36:58.942Z</time></trkpt><trkpt lat="44.656165" lon="9.3121817"><ele>528.0</ele><time>2026-04-17T09:36:59.942Z</time></trkpt><trkpt lat="44.65604" lon="9.3121767"><ele>528.0</ele><time>2026-04-17T09:37:00.942Z</time></trkpt><trkpt lat="44.65592" lon="9.3122633"><ele>528.0</ele><time>2026-04-17T09:37:01.942Z</time></trkpt><trkpt lat="44.6557883" lon="9.3123767"><ele>528.0</ele><time>2026-04-17T09:37:02.942Z</time></trkpt><trkpt lat="44.655635" lon="9.312435"><ele>528.0</ele><time>2026-04-17T09:37:03.942Z</time></trkpt><trkpt lat="44.6554617" lon="9.3124633"><ele>528.0</ele><time>2026-04-17T09:37:04.942Z</time></trkpt><trkpt lat="44.6552867" lon="9.3124433"><ele>527.3333333333334</ele><time>2026-04-17T09:37:05.942Z</time></trkpt><trkpt lat="44.6551167" lon="9.31237"><ele>526.6666666666667</ele><time>2026-04-17T09:37:06.942Z</time></trkpt><trkpt lat="44.654975" lon="9.3122817"><ele>526.0</ele><time>2026-04-17T09:37:07.942Z</time></trkpt><trkpt lat="44.6548417" lon="9.31221"><ele>526.0</ele><time>2026-04-17T09:37:08.942Z</time></trkpt><trkpt lat="44.654705" lon="9.3122"><ele>526.0</ele><time>2026-04-17T09:37:09.942Z</time></trkpt><trkpt lat="44.6545583" lon="9.3122667"><ele>526.0</ele><time>2026-04-17T09:37:10.942Z</time></trkpt><trkpt lat="44.6544383" lon="9.31239"><ele>526.0</ele><time>2026-04-17T09:37:11.942Z</time></trkpt><trkpt lat="44.6543433" lon="9.3125933"><ele>524.0</ele><time>2026-04-17T09:37:12.942Z</time></trkpt><trkpt lat="44.6542517" lon="9.3127867"><ele>522.0</ele><time>2026-04-17T09:37:13.942Z</time></trkpt><trkpt lat="44.6541417" lon="9.31295"><ele>520.0</ele><time>2026-04-17T09:37:14.942Z</time></trkpt><trkpt lat="44.6540333" lon="9.3130917"><ele>520.0</ele><time>2026-04-17T09:37:15.942Z</time></trkpt><trkpt lat="44.6539417" lon="9.3132367"><ele>520.0</ele><time>2026-04-17T09:37:16.942Z</time></trkpt><trkpt lat="44.6538983" lon="9.3134"><ele>520.0</ele><time>2026-04-17T09:37:17.942Z</time></trkpt><trkpt lat="44.65392" lon="9.3135683"><ele>520.0</ele><time>2026-04-17T09:37:18.942Z</time></trkpt><trkpt lat="44.654" lon="9.3137383"><ele>518.0</ele><time>2026-04-17T09:37:19.942Z</time></trkpt><trkpt lat="44.6541217" lon="9.3139217"><ele>516.0</ele><time>2026-04-17T09:37:20.942Z</time></trkpt><trkpt lat="44.654235" lon="9.3140967"><ele>514.0</ele><time>2026-04-17T09:37:21.942Z</time></trkpt><trkpt lat="44.65433" lon="9.3142783"><ele>514.0</ele><time>2026-04-17T09:37:22.942Z</time></trkpt><trkpt lat="44.6543867" lon="9.3144733"><ele>514.0</ele><time>2026-04-17T09:37:23.942Z</time></trkpt><trkpt lat="44.6543833" lon="9.31467"><ele>514.0</ele><time>2026-04-17T09:37:24.942Z</time></trkpt><trkpt lat="44.6543333" lon="9.314835"><ele>514.0</ele><time>2026-04-17T09:37:25.942Z</time></trkpt><trkpt lat="44.654225" lon="9.31496"><ele>514.6666666666667</ele><time>2026-04-17T09:37:26.942Z</time></trkpt><trkpt lat="44.6540833" lon="9.3150267"><ele>515.3333333333334</ele><time>2026-04-17T09:37:27.942Z</time></trkpt><trkpt lat="44.6538817" lon="9.3150517"><ele>516.0</ele><time>2026-04-17T09:37:28.942Z</time></trkpt><trkpt lat="44.6537033" lon="9.3150917"><ele>508.66666666666663</ele><time>2026-04-17T09:37:29.942Z</time></trkpt><trkpt lat="44.6535533" lon="9.3151717"><ele>501.3333333333333</ele><time>2026-04-17T09:37:30.943Z</time></trkpt><trkpt lat="44.6534417" lon="9.3153067"><ele>494.0</ele><time>2026-04-17T09:37:31.942Z</time></trkpt><trkpt lat="44.6533667" lon="9.315485"><ele>498.5</ele><time>2026-04-17T09:37:32.942Z</time></trkpt><trkpt lat="44.6532883" lon="9.3156467"><ele>503.0</ele><time>2026-04-17T09:37:33.942Z</time></trkpt><trkpt lat="44.653185" lon="9.315755"><ele>507.5</ele><time>2026-04-17T09:37:34.943Z</time></trkpt><trkpt lat="44.6530133" lon="9.3158083"><ele>512.0</ele><time>2026-04-17T09:37:35.942Z</time></trkpt><trkpt lat="44.6528533" lon="9.31582"><ele>506.66666666666663</ele><time>2026-04-17T09:37:36.942Z</time></trkpt><trkpt lat="44.6527" lon="9.3158517"><ele>501.33333333333337</ele><time>2026-04-17T09:37:37.942Z</time></trkpt><trkpt lat="44.65256" lon="9.3159367"><ele>496.0</ele><time>2026-04-17T09:37:38.942Z</time></trkpt><trkpt lat="44.6524617" lon="9.3160883"><ele>496.0</ele><time>2026-04-17T09:37:39.942Z</time></trkpt><trkpt lat="44.6523833" lon="9.3162483"><ele>496.0</ele><time>2026-04-17T09:37:40.942Z</time></trkpt><trkpt lat="44.6522917" lon="9.3163967"><ele>496.0</ele><time>2026-04-17T09:37:41.942Z</time></trkpt><trkpt lat="44.652175" lon="9.31651"><ele>496.0</ele><time>2026-04-17T09:37:42.942Z</time></trkpt><trkpt lat="44.6520317" lon="9.3165717"><ele>494.0</ele><time>2026-04-17T09:37:43.942Z</time></trkpt><trkpt lat="44.65191" lon="9.3166667"><ele>492.0</ele><time>2026-04-17T09:37:44.942Z</time></trkpt><trkpt lat="44.65181" lon="9.316795"><ele>490.0</ele><time>2026-04-17T09:37:45.942Z</time></trkpt><trkpt lat="44.6517317" lon="9.31694"><ele>488.0</ele><time>2026-04-17T09:37:46.942Z</time></trkpt><trkpt lat="44.65164" lon="9.3170567"><ele>488.0</ele><time>2026-04-17T09:37:47.942Z</time></trkpt><trkpt lat="44.6515367" lon="9.3171317"><ele>488.0</ele><time>2026-04-17T09:37:48.942Z</time></trkpt><trkpt lat="44.6514433" lon="9.317215"><ele>488.0</ele><time>2026-04-17T09:37:49.942Z</time></trkpt><trkpt lat="44.6513667" lon="9.3173417"><ele>488.0</ele><time>2026-04-17T09:37:50.942Z</time></trkpt><trkpt lat="44.65133" lon="9.3175233"><ele>491.0</ele><time>2026-04-17T09:37:51.943Z</time></trkpt><trkpt lat="44.6513133" lon="9.3177483"><ele>494.0</ele><time>2026-04-17T09:37:52.942Z</time></trkpt><trkpt lat="44.6512717" lon="9.3179733"><ele>497.0</ele><time>2026-04-17T09:37:53.942Z</time></trkpt><trkpt lat="44.651215" lon="9.3182"><ele>502.0</ele><time>2026-04-17T09:37:54.943Z</time></trkpt><trkpt lat="44.65118" lon="9.31844"><ele>507.0</ele><time>2026-04-17T09:37:55.943Z</time></trkpt><trkpt lat="44.6511833" lon="9.3187"><ele>512.0</ele><time>2026-04-17T09:37:56.942Z</time></trkpt><trkpt lat="44.6511967" lon="9.3189667"><ele>512.0</ele><time>2026-04-17T09:37:57.942Z</time></trkpt><trkpt lat="44.65121" lon="9.3192367"><ele>512.0</ele><time>2026-04-17T09:37:58.942Z</time></trkpt><trkpt lat="44.6512367" lon="9.31949"><ele>512.0</ele><time>2026-04-17T09:37:59.942Z</time></trkpt><trkpt lat="44.6512817" lon="9.3197183"><ele>507.75</ele><time>2026-04-17T09:38:00.942Z</time></trkpt><trkpt lat="44.6513217" lon="9.319915"><ele>503.5</ele><time>2026-04-17T09:38:01.942Z</time></trkpt><trkpt lat="44.6513433" lon="9.320075"><ele>499.25</ele><time>2026-04-17T09:38:02.942Z</time></trkpt><trkpt lat="44.65131" lon="9.32022"><ele>495.0</ele><time>2026-04-17T09:38:03.942Z</time></trkpt><trkpt lat="44.6512317" lon="9.3203367"><ele>495.0</ele><time>2026-04-17T09:38:04.942Z</time></trkpt><trkpt lat="44.6511833" lon="9.320465"><ele>495.0</ele><time>2026-04-17T09:38:05.942Z</time></trkpt><trkpt lat="44.6512067" lon="9.3206067"><ele>495.0</ele><time>2026-04-17T09:38:06.942Z</time></trkpt><trkpt lat="44.651285" lon="9.3206983"><ele>495.0</ele><time>2026-04-17T09:38:07.942Z</time></trkpt><trkpt lat="44.6513967" lon="9.32076"><ele>495.0</ele><time>2026-04-17T09:38:08.942Z</time></trkpt><trkpt lat="44.6514883" lon="9.3208567"><ele>490.75</ele><time>2026-04-17T09:38:09.942Z</time></trkpt><trkpt lat="44.651555" lon="9.3209783"><ele>486.5</ele><time>2026-04-17T09:38:10.942Z</time></trkpt><trkpt lat="44.65159" lon="9.32113"><ele>482.25</ele><time>2026-04-17T09:38:11.942Z</time></trkpt><trkpt lat="44.6515533" lon="9.3213133"><ele>478.0</ele><time>2026-04-17T09:38:12.942Z</time></trkpt><trkpt lat="44.6514967" lon="9.3214783"><ele>478.0</ele><time>2026-04-17T09:38:13.942Z</time></trkpt><trkpt lat="44.651435" lon="9.321615"><ele>477.99999999999994</ele><time>2026-04-17T09:38:14.942Z</time></trkpt><trkpt lat="44.65136" lon="9.3217083"><ele>477.99999999999994</ele><time>2026-04-17T09:38:15.942Z</time></trkpt><trkpt lat="44.651275" lon="9.3217617"><ele>478.0</ele><time>2026-04-17T09:38:16.942Z</time></trkpt><trkpt lat="44.65118" lon="9.3217583"><ele>478.0</ele><time>2026-04-17T09:38:17.942Z</time></trkpt><trkpt lat="44.6510817" lon="9.3215733"><ele>477.25</ele><time>2026-04-17T09:38:18.942Z</time></trkpt><trkpt lat="44.6509867" lon="9.3214417"><ele>476.5</ele><time>2026-04-17T09:38:19.942Z</time></trkpt><trkpt lat="44.65087" lon="9.3213283"><ele>475.75</ele><time>2026-04-17T09:38:20.942Z</time></trkpt><trkpt lat="44.65072" lon="9.3212333"><ele>475.0</ele><time>2026-04-17T09:38:21.942Z</time></trkpt><trkpt lat="44.6505733" lon="9.3211483"><ele>473.5</ele><time>2026-04-17T09:38:22.942Z</time></trkpt><trkpt lat="44.65045" lon="9.32106"><ele>472.0</ele><time>2026-04-17T09:38:23.942Z</time></trkpt><trkpt lat="44.6503567" lon="9.3209417"><ele>470.5</ele><time>2026-04-17T09:38:24.942Z</time></trkpt><trkpt lat="44.6502933" lon="9.32079"><ele>469.0</ele><time>2026-04-17T09:38:25.942Z</time></trkpt><trkpt lat="44.6502467" lon="9.3206333"><ele>463.5</ele><time>2026-04-17T09:38:26.942Z</time></trkpt><trkpt lat="44.65018" lon="9.320505"><ele>458.0</ele><time>2026-04-17T09:38:27.942Z</time></trkpt><trkpt lat="44.6501033" lon="9.320415"><ele>452.5</ele><time>2026-04-17T09:38:28.942Z</time></trkpt><trkpt lat="44.650005" lon="9.3203917"><ele>447.0</ele><time>2026-04-17T09:38:29.942Z</time></trkpt><trkpt lat="44.6498433" lon="9.3204917"><ele>448.66666666666663</ele><time>2026-04-17T09:38:30.942Z</time></trkpt><trkpt lat="44.6496567" lon="9.3206217"><ele>450.3333333333333</ele><time>2026-04-17T09:38:31.942Z</time></trkpt><trkpt lat="44.6494817" lon="9.3207617"><ele>452.0</ele><time>2026-04-17T09:38:32.942Z</time></trkpt><trkpt lat="44.6493367" lon="9.320905"><ele>452.0</ele><time>2026-04-17T09:38:33.942Z</time></trkpt><trkpt lat="44.649215" lon="9.3211117"><ele>452.0</ele><time>2026-04-17T09:38:34.942Z</time></trkpt><trkpt lat="44.6490967" lon="9.3213383"><ele>452.0</ele><time>2026-04-17T09:38:35.942Z</time></trkpt><trkpt lat="44.648985" lon="9.321555"><ele>455.66666666666663</ele><time>2026-04-17T09:38:36.942Z</time></trkpt><trkpt lat="44.64888" lon="9.3217567"><ele>459.33333333333337</ele><time>2026-04-17T09:38:37.942Z</time></trkpt><trkpt lat="44.64878" lon="9.32196"><ele>463.0</ele><time>2026-04-17T09:38:38.942Z</time></trkpt><trkpt lat="44.6486883" lon="9.322165"><ele>456.6666666666667</ele><time>2026-04-17T09:38:39.942Z</time></trkpt><trkpt lat="44.648605" lon="9.3223867"><ele>450.33333333333337</ele><time>2026-04-17T09:38:40.942Z</time></trkpt><trkpt lat="44.6485317" lon="9.3226283"><ele>444.0</ele><time>2026-04-17T09:38:41.942Z</time></trkpt><trkpt lat="44.6484567" lon="9.3228933"><ele>444.33333333333337</ele><time>2026-04-17T09:38:42.942Z</time></trkpt><trkpt lat="44.6483833" lon="9.3231667"><ele>444.6666666666667</ele><time>2026-04-17T09:38:43.942Z</time></trkpt><trkpt lat="44.6483017" lon="9.323455"><ele>445.0</ele><time>2026-04-17T09:38:44.942Z</time></trkpt><trkpt lat="44.648205" lon="9.3237867"><ele>449.5</ele><time>2026-04-17T09:38:45.942Z</time></trkpt><trkpt lat="44.64809" lon="9.3241483"><ele>454.0</ele><time>2026-04-17T09:38:46.942Z</time></trkpt><trkpt lat="44.647965" lon="9.3245217"><ele>454.5</ele><time>2026-04-17T09:38:47.943Z</time></trkpt><trkpt lat="44.6478483" lon="9.3248867"><ele>455.0</ele><time>2026-04-17T09:38:48.942Z</time></trkpt><trkpt lat="44.6477433" lon="9.3252383"><ele>452.0</ele><time>2026-04-17T09:38:49.942Z</time></trkpt><trkpt lat="44.647645" lon="9.3255767"><ele>449.0</ele><time>2026-04-17T09:38:50.942Z</time></trkpt><trkpt lat="44.6475417" lon="9.3259"><ele>449.0</ele><time>2026-04-17T09:38:51.943Z</time></trkpt><trkpt lat="44.6474167" lon="9.326205"><ele>449.0</ele><time>2026-04-17T09:38:52.942Z</time></trkpt><trkpt lat="44.6472733" lon="9.326495"><ele>449.0</ele><time>2026-04-17T09:38:53.942Z</time></trkpt><trkpt lat="44.64711" lon="9.32676"><ele>449.0</ele><time>2026-04-17T09:38:54.942Z</time></trkpt><trkpt lat="44.646925" lon="9.3270117"><ele>450.5</ele><time>2026-04-17T09:38:55.942Z</time></trkpt><trkpt lat="44.64672" lon="9.3272433"><ele>452.0</ele><time>2026-04-17T09:38:56.942Z</time></trkpt><trkpt lat="44.6464967" lon="9.32745"><ele>452.0</ele><time>2026-04-17T09:38:57.943Z</time></trkpt><trkpt lat="44.646245" lon="9.3276433"><ele>452.0</ele><time>2026-04-17T09:38:58.942Z</time></trkpt><trkpt lat="44.64597" lon="9.3278417"><ele>452.5</ele><time>2026-04-17T09:38:59.942Z</time></trkpt><trkpt lat="44.6456817" lon="9.32805"><ele>453.0</ele><time>2026-04-17T09:39:00.942Z</time></trkpt><trkpt lat="44.645385" lon="9.3282483"><ele>460.0</ele><time>2026-04-17T09:39:01.942Z</time></trkpt><trkpt lat="44.6450817" lon="9.3284283"><ele>467.0</ele><time>2026-04-17T09:39:02.943Z</time></trkpt><trkpt lat="44.6447767" lon="9.3285583"><ele>467.0</ele><time>2026-04-17T09:39:03.942Z</time></trkpt><trkpt lat="44.644465" lon="9.3286583"><ele>467.0</ele><time>2026-04-17T09:39:04.942Z</time></trkpt><trkpt lat="44.6441533" lon="9.328745"><ele>468.0</ele><time>2026-04-17T09:39:05.942Z</time></trkpt><trkpt lat="44.64383" lon="9.3288317"><ele>469.0</ele><time>2026-04-17T09:39:06.942Z</time></trkpt><trkpt lat="44.6435083" lon="9.3289167"><ele>464.0</ele><time>2026-04-17T09:39:07.942Z</time></trkpt><trkpt lat="44.64318" lon="9.3289983"><ele>459.0</ele><time>2026-04-17T09:39:08.942Z</time></trkpt><trkpt lat="44.6428467" lon="9.3290733"><ele>460.0</ele><time>2026-04-17T09:39:09.942Z</time></trkpt><trkpt lat="44.64251" lon="9.3291533"><ele>461.0</ele><time>2026-04-17T09:39:10.942Z</time></trkpt><trkpt lat="44.642165" lon="9.3292367"><ele>462.5</ele><time>2026-04-17T09:39:11.942Z</time></trkpt><trkpt lat="44.6418183" lon="9.32933"><ele>464.0</ele><time>2026-04-17T09:39:12.942Z</time></trkpt><trkpt lat="44.64147" lon="9.329425"><ele>466.0</ele><time>2026-04-17T09:39:13.942Z</time></trkpt><trkpt lat="44.6411283" lon="9.329515"><ele>468.0</ele><time>2026-04-17T09:39:14.942Z</time></trkpt><trkpt lat="44.6408017" lon="9.329605"><ele>468.0</ele><time>2026-04-17T09:39:15.942Z</time></trkpt><trkpt lat="44.6404983" lon="9.3296867"><ele>468.0</ele><time>2026-04-17T09:39:16.942Z</time></trkpt><trkpt lat="44.6402083" lon="9.3297667"><ele>463.5</ele><time>2026-04-17T09:39:17.942Z</time></trkpt><trkpt lat="44.6399383" lon="9.3298367"><ele>459.0</ele><time>2026-04-17T09:39:18.942Z</time></trkpt><trkpt lat="44.6396817" lon="9.3299017"><ele>460.0</ele><time>2026-04-17T09:39:19.942Z</time></trkpt><trkpt lat="44.6394283" lon="9.3299633"><ele>461.0</ele><time>2026-04-17T09:39:20.942Z</time></trkpt><trkpt lat="44.6391717" lon="9.3300117"><ele>461.0</ele><time>2026-04-17T09:39:21.942Z</time></trkpt><trkpt lat="44.6389117" lon="9.330025"><ele>461.0</ele><time>2026-04-17T09:39:22.942Z</time></trkpt><trkpt lat="44.6386483" lon="9.3299833"><ele>467.0</ele><time>2026-04-17T09:39:23.942Z</time></trkpt><trkpt lat="44.6383883" lon="9.329885"><ele>473.0</ele><time>2026-04-17T09:39:24.942Z</time></trkpt><trkpt lat="44.6381233" lon="9.3297333"><ele>470.5</ele><time>2026-04-17T09:39:25.942Z</time></trkpt><trkpt lat="44.6378583" lon="9.3295417"><ele>468.0</ele><time>2026-04-17T09:39:26.942Z</time></trkpt><trkpt lat="44.63759" lon="9.3293367"><ele>468.0</ele><time>2026-04-17T09:39:27.942Z</time></trkpt><trkpt lat="44.63733" lon="9.329145"><ele>468.0</ele><time>2026-04-17T09:39:28.942Z</time></trkpt><trkpt lat="44.6370817" lon="9.3289683"><ele>465.5</ele><time>2026-04-17T09:39:29.942Z</time></trkpt><trkpt lat="44.6368367" lon="9.3288017"><ele>463.0</ele><time>2026-04-17T09:39:30.942Z</time></trkpt><trkpt lat="44.6365867" lon="9.3286483"><ele>463.0</ele><time>2026-04-17T09:39:31.942Z</time></trkpt><trkpt lat="44.63634" lon="9.3285417"><ele>463.0</ele><time>2026-04-17T09:39:32.942Z</time></trkpt><trkpt lat="44.6360883" lon="9.3285017"><ele>465.0</ele><time>2026-04-17T09:39:33.943Z</time></trkpt><trkpt lat="44.6358367" lon="9.3285133"><ele>467.0</ele><time>2026-04-17T09:39:34.942Z</time></trkpt><trkpt lat="44.635605" lon="9.3286067"><ele>467.0</ele><time>2026-04-17T09:39:35.942Z</time></trkpt><trkpt lat="44.6353517" lon="9.3287167"><ele>467.0</ele><time>2026-04-17T09:39:36.942Z</time></trkpt><trkpt lat="44.6350933" lon="9.3288667"><ele>472.0</ele><time>2026-04-17T09:39:37.943Z</time></trkpt><trkpt lat="44.6348233" lon="9.329045"><ele>477.0</ele><time>2026-04-17T09:39:38.942Z</time></trkpt><trkpt lat="44.6345383" lon="9.3292533"><ele>473.0</ele><time>2026-04-17T09:39:39.942Z</time></trkpt><trkpt lat="44.634235" lon="9.329465"><ele>469.0</ele><time>2026-04-17T09:39:40.942Z</time></trkpt><trkpt lat="44.6339183" lon="9.32967"><ele>470.5</ele><time>2026-04-17T09:39:41.942Z</time></trkpt><trkpt lat="44.63359" lon="9.3298717"><ele>472.0</ele><time>2026-04-17T09:39:42.942Z</time></trkpt><trkpt lat="44.6332683" lon="9.3300817"><ele>472.0</ele><time>2026-04-17T09:39:43.942Z</time></trkpt><trkpt lat="44.632955" lon="9.3303067"><ele>472.0</ele><time>2026-04-17T09:39:44.942Z</time></trkpt><trkpt lat="44.6326533" lon="9.3305683"><ele>474.0</ele><time>2026-04-17T09:39:45.942Z</time></trkpt><trkpt lat="44.6323667" lon="9.330855"><ele>476.0</ele><time>2026-04-17T09:39:46.943Z</time></trkpt><trkpt lat="44.63208" lon="9.331145"><ele>478.0</ele><time>2026-04-17T09:39:47.942Z</time></trkpt><trkpt lat="44.6317933" lon="9.33143"><ele>480.0</ele><time>2026-04-17T09:39:48.942Z</time></trkpt><trkpt lat="44.6315067" lon="9.3317133"><ele>480.0</ele><time>2026-04-17T09:39:49.942Z</time></trkpt><trkpt lat="44.6312083" lon="9.331975"><ele>480.0</ele><time>2026-04-17T09:39:50.942Z</time></trkpt><trkpt lat="44.6309033" lon="9.3322133"><ele>482.5</ele><time>2026-04-17T09:39:51.942Z</time></trkpt><trkpt lat="44.6306067" lon="9.3324367"><ele>485.0</ele><time>2026-04-17T09:39:52.942Z</time></trkpt><trkpt lat="44.6303167" lon="9.3326367"><ele>478.0</ele><time>2026-04-17T09:39:53.942Z</time></trkpt><trkpt lat="44.630025" lon="9.3328233"><ele>471.0</ele><time>2026-04-17T09:39:54.943Z</time></trkpt><trkpt lat="44.6297217" lon="9.33296"><ele>471.5</ele><time>2026-04-17T09:39:55.943Z</time></trkpt><trkpt lat="44.62941" lon="9.333045"><ele>472.0</ele><time>2026-04-17T09:39:56.942Z</time></trkpt><trkpt lat="44.62909" lon="9.3330833"><ele>476.0</ele><time>2026-04-17T09:39:57.942Z</time></trkpt><trkpt lat="44.6287617" lon="9.333085"><ele>480.0</ele><time>2026-04-17T09:39:58.942Z</time></trkpt><trkpt lat="44.628435" lon="9.3330617"><ele>476.5</ele><time>2026-04-17T09:39:59.942Z</time></trkpt><trkpt lat="44.6281" lon="9.3330383"><ele>473.0</ele><time>2026-04-17T09:40:00.942Z</time></trkpt><trkpt lat="44.62777" lon="9.333015"><ele>473.0</ele><time>2026-04-17T09:40:01.942Z</time></trkpt><trkpt lat="44.62744" lon="9.33298"><ele>473.0</ele><time>2026-04-17T09:40:02.943Z</time></trkpt><trkpt lat="44.627115" lon="9.3329233"><ele>476.0</ele><time>2026-04-17T09:40:03.942Z</time></trkpt><trkpt lat="44.62679" lon="9.3328467"><ele>479.0</ele><time>2026-04-17T09:40:04.942Z</time></trkpt><trkpt lat="44.6264783" lon="9.3327517"><ele>479.0</ele><time>2026-04-17T09:40:05.942Z</time></trkpt><trkpt lat="44.6261833" lon="9.3326383"><ele>479.0</ele><time>2026-04-17T09:40:06.942Z</time></trkpt><trkpt lat="44.625905" lon="9.3325217"><ele>476.5</ele><time>2026-04-17T09:40:07.942Z</time></trkpt><trkpt lat="44.6256533" lon="9.3324"><ele>474.0</ele><time>2026-04-17T09:40:08.942Z</time></trkpt><trkpt lat="44.6254333" lon="9.3322767"><ele>476.0</ele><time>2026-04-17T09:40:09.942Z</time></trkpt><trkpt lat="44.6252367" lon="9.3321533"><ele>478.0</ele><time>2026-04-17T09:40:10.943Z</time></trkpt><trkpt lat="44.625065" lon="9.3320417"><ele>480.0</ele><time>2026-04-17T09:40:11.942Z</time></trkpt><trkpt lat="44.624915" lon="9.3319433"><ele>480.0</ele><time>2026-04-17T09:40:12.942Z</time></trkpt><trkpt lat="44.6247833" lon="9.3318567"><ele>480.0</ele><time>2026-04-17T09:40:13.942Z</time></trkpt><trkpt lat="44.6246633" lon="9.3317783"><ele>480.0</ele><time>2026-04-17T09:40:14.942Z</time></trkpt><trkpt lat="44.6245517" lon="9.3317"><ele>480.0</ele><time>2026-04-17T09:40:15.942Z</time></trkpt><trkpt lat="44.6244433" lon="9.3316283"><ele>479.75</ele><time>2026-04-17T09:40:16.942Z</time></trkpt><trkpt lat="44.6243367" lon="9.3315633"><ele>479.5</ele><time>2026-04-17T09:40:17.942Z</time></trkpt><trkpt lat="44.624235" lon="9.331495"><ele>479.25</ele><time>2026-04-17T09:40:18.942Z</time></trkpt><trkpt lat="44.624115" lon="9.3314283"><ele>479.0</ele><time>2026-04-17T09:40:19.942Z</time></trkpt><trkpt lat="44.62396" lon="9.3313517"><ele>479.0</ele><time>2026-04-17T09:40:20.942Z</time></trkpt><trkpt lat="44.6237783" lon="9.331255"><ele>479.0</ele><time>2026-04-17T09:40:21.942Z</time></trkpt><trkpt lat="44.62356" lon="9.331125"><ele>479.0</ele><time>2026-04-17T09:40:22.942Z</time></trkpt><trkpt lat="44.6232933" lon="9.3309667"><ele>478.5</ele><time>2026-04-17T09:40:23.942Z</time></trkpt><trkpt lat="44.6229883" lon="9.3307783"><ele>478.0</ele><time>2026-04-17T09:40:24.942Z</time></trkpt><trkpt lat="44.6226733" lon="9.3305383"><ele>480.5</ele><time>2026-04-17T09:40:25.942Z</time></trkpt><trkpt lat="44.622365" lon="9.3302433"><ele>483.0</ele><time>2026-04-17T09:40:26.942Z</time></trkpt><trkpt lat="44.62208" lon="9.3298983"><ele>484.5</ele><time>2026-04-17T09:40:27.942Z</time></trkpt><trkpt lat="44.62182" lon="9.329525"><ele>486.0</ele><time>2026-04-17T09:40:28.942Z</time></trkpt><trkpt lat="44.6215867" lon="9.32912"><ele>488.0</ele><time>2026-04-17T09:40:29.942Z</time></trkpt><trkpt lat="44.62138" lon="9.32868"><ele>490.0</ele><time>2026-04-17T09:40:30.942Z</time></trkpt><trkpt lat="44.62117" lon="9.3282267"><ele>486.5</ele><time>2026-04-17T09:40:31.942Z</time></trkpt><trkpt lat="44.62097" lon="9.32778"><ele>483.0</ele><time>2026-04-17T09:40:32.942Z</time></trkpt><trkpt lat="44.6207933" lon="9.3273417"><ele>483.5</ele><time>2026-04-17T09:40:33.942Z</time></trkpt><trkpt lat="44.6206117" lon="9.3269333"><ele>484.0</ele><time>2026-04-17T09:40:34.942Z</time></trkpt><trkpt lat="44.62041" lon="9.32655"><ele>486.0</ele><time>2026-04-17T09:40:35.942Z</time></trkpt><trkpt lat="44.6201833" lon="9.3261917"><ele>488.0</ele><time>2026-04-17T09:40:36.942Z</time></trkpt><trkpt lat="44.6199433" lon="9.3258433"><ele>488.0</ele><time>2026-04-17T09:40:37.942Z</time></trkpt><trkpt lat="44.619695" lon="9.3255017"><ele>488.0</ele><time>2026-04-17T09:40:38.942Z</time></trkpt><trkpt lat="44.6194417" lon="9.325155"><ele>490.0</ele><time>2026-04-17T09:40:39.942Z</time></trkpt><trkpt lat="44.6191817" lon="9.324805"><ele>492.0</ele><time>2026-04-17T09:40:40.942Z</time></trkpt><trkpt lat="44.6189167" lon="9.3244467"><ele>495.5</ele><time>2026-04-17T09:40:41.942Z</time></trkpt><trkpt lat="44.6186517" lon="9.3240833"><ele>499.0</ele><time>2026-04-17T09:40:42.942Z</time></trkpt><trkpt lat="44.61839" lon="9.3237233"><ele>499.0</ele><time>2026-04-17T09:40:43.942Z</time></trkpt><trkpt lat="44.6181383" lon="9.3233783"><ele>499.0</ele><time>2026-04-17T09:40:44.942Z</time></trkpt><trkpt lat="44.6179017" lon="9.32306"><ele>494.5</ele><time>2026-04-17T09:40:45.942Z</time></trkpt><trkpt lat="44.6176833" lon="9.3227667"><ele>490.0</ele><time>2026-04-17T09:40:46.942Z</time></trkpt><trkpt lat="44.6174817" lon="9.322495"><ele>490.0</ele><time>2026-04-17T09:40:47.942Z</time></trkpt><trkpt lat="44.6172867" lon="9.3222467"><ele>490.0</ele><time>2026-04-17T09:40:48.942Z</time></trkpt><trkpt lat="44.617085" lon="9.322035"><ele>496.0</ele><time>2026-04-17T09:40:49.942Z</time></trkpt><trkpt lat="44.61687" lon="9.3218817"><ele>502.0</ele><time>2026-04-17T09:40:50.942Z</time></trkpt><trkpt lat="44.6166367" lon="9.3217917"><ele>502.0</ele><time>2026-04-17T09:40:51.942Z</time></trkpt><trkpt lat="44.6163867" lon="9.3217617"><ele>502.0</ele><time>2026-04-17T09:40:52.942Z</time></trkpt><trkpt lat="44.6161217" lon="9.32176"><ele>505.5</ele><time>2026-04-17T09:40:53.942Z</time></trkpt><trkpt lat="44.6158533" lon="9.3217683"><ele>509.0</ele><time>2026-04-17T09:40:54.942Z</time></trkpt><trkpt lat="44.6155983" lon="9.3217817"><ele>509.0</ele><time>2026-04-17T09:40:55.942Z</time></trkpt><trkpt lat="44.6153683" lon="9.3217833"><ele>509.0</ele><time>2026-04-17T09:40:56.942Z</time></trkpt><trkpt lat="44.6151517" lon="9.3217383"><ele>509.0</ele><time>2026-04-17T09:40:57.943Z</time></trkpt><trkpt lat="44.614965" lon="9.3216333"><ele>509.66666666666663</ele><time>2026-04-17T09:40:58.942Z</time></trkpt><trkpt lat="44.6148067" lon="9.321515"><ele>510.33333333333337</ele><time>2026-04-17T09:40:59.942Z</time></trkpt><trkpt lat="44.6146567" lon="9.3214117"><ele>511.0</ele><time>2026-04-17T09:41:00.942Z</time></trkpt><trkpt lat="44.6144783" lon="9.3213717"><ele>506.5</ele><time>2026-04-17T09:41:01.942Z</time></trkpt><trkpt lat="44.6142667" lon="9.32139"><ele>502.0</ele><time>2026-04-17T09:41:02.942Z</time></trkpt><trkpt lat="44.6140183" lon="9.3214517"><ele>509.5</ele><time>2026-04-17T09:41:03.942Z</time></trkpt><trkpt lat="44.6137717" lon="9.321505"><ele>517.0</ele><time>2026-04-17T09:41:04.942Z</time></trkpt><trkpt lat="44.6135483" lon="9.3215467"><ele>517.0</ele><time>2026-04-17T09:41:05.942Z</time></trkpt><trkpt lat="44.6133717" lon="9.3215867"><ele>517.0</ele><time>2026-04-17T09:41:06.942Z</time></trkpt><trkpt lat="44.6132267" lon="9.32161"><ele>517.0</ele><time>2026-04-17T09:41:07.942Z</time></trkpt><trkpt lat="44.6130917" lon="9.3216017"><ele>517.0</ele><time>2026-04-17T09:41:08.942Z</time></trkpt><trkpt lat="44.6129883" lon="9.3215067"><ele>517.0</ele><time>2026-04-17T09:41:09.942Z</time></trkpt><trkpt lat="44.612925" lon="9.3213217"><ele>517.0</ele><time>2026-04-17T09:41:10.942Z</time></trkpt><trkpt lat="44.612885" lon="9.3210833"><ele>517.0</ele><time>2026-04-17T09:41:11.943Z</time></trkpt><trkpt lat="44.61284" lon="9.32083"><ele>519.0</ele><time>2026-04-17T09:41:12.943Z</time></trkpt><trkpt lat="44.6127533" lon="9.3206"><ele>521.0</ele><time>2026-04-17T09:41:13.943Z</time></trkpt><trkpt lat="44.612615" lon="9.3204017"><ele>523.0</ele><time>2026-04-17T09:41:14.943Z</time></trkpt><trkpt lat="44.6124417" lon="9.3202267"><ele>523.0</ele><time>2026-04-17T09:41:15.943Z</time></trkpt><trkpt lat="44.61226" lon="9.3200733"><ele>523.0</ele><time>2026-04-17T09:41:16.943Z</time></trkpt><trkpt lat="44.612095" lon="9.319945"><ele>523.0</ele><time>2026-04-17T09:41:17.943Z</time></trkpt><trkpt lat="44.61196" lon="9.31981"><ele>517.0</ele><time>2026-04-17T09:41:18.943Z</time></trkpt><trkpt lat="44.611875" lon="9.3196483"><ele>511.0</ele><time>2026-04-17T09:41:19.943Z</time></trkpt><trkpt lat="44.6118533" lon="9.3194317"><ele>505.0</ele><time>2026-04-17T09:41:20.943Z</time></trkpt><trkpt lat="44.6118583" lon="9.3192183"><ele>505.0</ele><time>2026-04-17T09:41:21.943Z</time></trkpt><trkpt lat="44.6118517" lon="9.31903"><ele>505.0</ele><time>2026-04-17T09:41:22.943Z</time></trkpt><trkpt lat="44.6118083" lon="9.318855"><ele>505.0</ele><time>2026-04-17T09:41:23.943Z</time></trkpt><trkpt lat="44.6117217" lon="9.3186933"><ele>505.0</ele><time>2026-04-17T09:41:24.943Z</time></trkpt><trkpt lat="44.61156" lon="9.3185433"><ele>504.6666666666667</ele><time>2026-04-17T09:41:25.943Z</time></trkpt><trkpt lat="44.6113683" lon="9.318385"><ele>504.33333333333337</ele><time>2026-04-17T09:41:26.943Z</time></trkpt><trkpt lat="44.61117" lon="9.31826"><ele>504.0</ele><time>2026-04-17T09:41:27.943Z</time></trkpt><trkpt lat="44.61101" lon="9.3181533"><ele>504.0</ele><time>2026-04-17T09:41:28.943Z</time></trkpt><trkpt lat="44.6108967" lon="9.318075"><ele>504.0</ele><time>2026-04-17T09:41:29.943Z</time></trkpt><trkpt lat="44.610815" lon="9.3179883"><ele>504.0</ele><time>2026-04-17T09:41:30.943Z</time></trkpt><trkpt lat="44.6107667" lon="9.3178733"><ele>504.0</ele><time>2026-04-17T09:41:31.943Z</time></trkpt><trkpt lat="44.61075" lon="9.3177217"><ele>504.0</ele><time>2026-04-17T09:41:32.944Z</time></trkpt><trkpt lat="44.610755" lon="9.3175517"><ele>506.0</ele><time>2026-04-17T09:41:33.943Z</time></trkpt><trkpt lat="44.61076" lon="9.317355"><ele>508.0</ele><time>2026-04-17T09:41:34.943Z</time></trkpt><trkpt lat="44.610755" lon="9.3171483"><ele>510.0</ele><time>2026-04-17T09:41:35.943Z</time></trkpt><trkpt lat="44.6107433" lon="9.316955"><ele>512.0</ele><time>2026-04-17T09:41:36.943Z</time></trkpt><trkpt lat="44.61076" lon="9.3167617"><ele>513.6666666666666</ele><time>2026-04-17T09:41:37.943Z</time></trkpt><trkpt lat="44.610805" lon="9.3165633"><ele>515.3333333333334</ele><time>2026-04-17T09:41:38.943Z</time></trkpt><trkpt lat="44.6108433" lon="9.31635"><ele>517.0</ele><time>2026-04-17T09:41:39.943Z</time></trkpt><trkpt lat="44.6108483" lon="9.3160933"><ele>517.5</ele><time>2026-04-17T09:41:40.943Z</time></trkpt><trkpt lat="44.6108133" lon="9.315795"><ele>518.0</ele><time>2026-04-17T09:41:41.943Z</time></trkpt><trkpt lat="44.61074" lon="9.3154567"><ele>518.5</ele><time>2026-04-17T09:41:42.943Z</time></trkpt><trkpt lat="44.6106633" lon="9.31514"><ele>519.0</ele><time>2026-04-17T09:41:43.943Z</time></trkpt><trkpt lat="44.6105967" lon="9.3148517"><ele>521.6666666666666</ele><time>2026-04-17T09:41:44.943Z</time></trkpt><trkpt lat="44.610545" lon="9.3145717"><ele>524.3333333333333</ele><time>2026-04-17T09:41:45.943Z</time></trkpt><trkpt lat="44.6105283" lon="9.3142933"><ele>527.0</ele><time>2026-04-17T09:41:46.943Z</time></trkpt><trkpt lat="44.6105233" lon="9.31399"><ele>527.0</ele><time>2026-04-17T09:41:47.943Z</time></trkpt><trkpt lat="44.6105117" lon="9.3136683"><ele>527.0</ele><time>2026-04-17T09:41:48.943Z</time></trkpt><trkpt lat="44.6104733" lon="9.313355"><ele>530.5</ele><time>2026-04-17T09:41:49.943Z</time></trkpt><trkpt lat="44.61041" lon="9.3130383"><ele>534.0</ele><time>2026-04-17T09:41:50.943Z</time></trkpt><trkpt lat="44.6103283" lon="9.3127333"><ele>526.3333333333334</ele><time>2026-04-17T09:41:51.943Z</time></trkpt><trkpt lat="44.61024" lon="9.3124567"><ele>518.6666666666667</ele><time>2026-04-17T09:41:52.943Z</time></trkpt><trkpt lat="44.6101533" lon="9.3122183"><ele>511.0</ele><time>2026-04-17T09:41:53.943Z</time></trkpt><trkpt lat="44.6100933" lon="9.312015"><ele>511.0</ele><time>2026-04-17T09:41:54.943Z</time></trkpt><trkpt lat="44.61007" lon="9.3118267"><ele>511.0</ele><time>2026-04-17T09:41:55.943Z</time></trkpt><trkpt lat="44.61009" lon="9.3116217"><ele>511.0</ele><time>2026-04-17T09:41:56.943Z</time></trkpt><trkpt lat="44.6101583" lon="9.311425"><ele>511.0</ele><time>2026-04-17T09:41:57.943Z</time></trkpt><trkpt lat="44.6102833" lon="9.311225"><ele>512.3333333333334</ele><time>2026-04-17T09:41:58.944Z</time></trkpt><trkpt lat="44.6104333" lon="9.3109967"><ele>513.6666666666666</ele><time>2026-04-17T09:41:59.943Z</time></trkpt><trkpt lat="44.610585" lon="9.3107717"><ele>515.0</ele><time>2026-04-17T09:42:00.943Z</time></trkpt><trkpt lat="44.61073" lon="9.310555"><ele>515.0</ele><time>2026-04-17T09:42:01.943Z</time></trkpt><trkpt lat="44.6108733" lon="9.310355"><ele>515.0</ele><time>2026-04-17T09:42:02.943Z</time></trkpt><trkpt lat="44.610995" lon="9.3101533"><ele>515.0</ele><time>2026-04-17T09:42:03.943Z</time></trkpt><trkpt lat="44.6110867" lon="9.309945"><ele>514.6666666666666</ele><time>2026-04-17T09:42:04.943Z</time></trkpt><trkpt lat="44.6111483" lon="9.30971"><ele>514.3333333333334</ele><time>2026-04-17T09:42:05.943Z</time></trkpt><trkpt lat="44.611185" lon="9.3094533"><ele>514.0</ele><time>2026-04-17T09:42:06.943Z</time></trkpt><trkpt lat="44.6112217" lon="9.30922"><ele>514.0</ele><time>2026-04-17T09:42:07.943Z</time></trkpt><trkpt lat="44.61125" lon="9.3090167"><ele>514.0</ele><time>2026-04-17T09:42:08.943Z</time></trkpt><trkpt lat="44.6112417" lon="9.30883"><ele>514.0</ele><time>2026-04-17T09:42:09.943Z</time></trkpt><trkpt lat="44.611175" lon="9.3086383"><ele>514.0</ele><time>2026-04-17T09:42:10.943Z</time></trkpt><trkpt lat="44.61106" lon="9.308435"><ele>514.0</ele><time>2026-04-17T09:42:11.943Z</time></trkpt><trkpt lat="44.6109417" lon="9.3082383"><ele>514.0</ele><time>2026-04-17T09:42:12.943Z</time></trkpt><trkpt lat="44.6108267" lon="9.3080567"><ele>514.0</ele><time>2026-04-17T09:42:13.943Z</time></trkpt><trkpt lat="44.6107217" lon="9.3078833"><ele>517.0</ele><time>2026-04-17T09:42:14.943Z</time></trkpt><trkpt lat="44.6106417" lon="9.30769"><ele>520.0</ele><time>2026-04-17T09:42:15.943Z</time></trkpt><trkpt lat="44.610595" lon="9.3074817"><ele>523.0</ele><time>2026-04-17T09:42:16.943Z</time></trkpt><trkpt lat="44.610585" lon="9.3072867"><ele>526.0</ele><time>2026-04-17T09:42:17.943Z</time></trkpt><trkpt lat="44.6105467" lon="9.3071283"><ele>529.0</ele><time>2026-04-17T09:42:18.943Z</time></trkpt><trkpt lat="44.610455" lon="9.306975"><ele>532.0</ele><time>2026-04-17T09:42:19.943Z</time></trkpt><trkpt lat="44.61032" lon="9.3068383"><ele>535.0</ele><time>2026-04-17T09:42:20.943Z</time></trkpt><trkpt lat="44.6101417" lon="9.3067317"><ele>535.0</ele><time>2026-04-17T09:42:21.943Z</time></trkpt><trkpt lat="44.6099567" lon="9.3066733"><ele>535.0</ele><time>2026-04-17T09:42:22.943Z</time></trkpt><trkpt lat="44.6097333" lon="9.3066817"><ele>535.0</ele><time>2026-04-17T09:42:23.943Z</time></trkpt><trkpt lat="44.6094767" lon="9.30673"><ele>532.5</ele><time>2026-04-17T09:42:24.943Z</time></trkpt><trkpt lat="44.6092233" lon="9.3067983"><ele>530.0</ele><time>2026-04-17T09:42:25.943Z</time></trkpt><trkpt lat="44.6089933" lon="9.3068867"><ele>530.0</ele><time>2026-04-17T09:42:26.943Z</time></trkpt><trkpt lat="44.6087917" lon="9.3069617"><ele>530.0</ele><time>2026-04-17T09:42:27.943Z</time></trkpt><trkpt lat="44.6085967" lon="9.3070233"><ele>530.0</ele><time>2026-04-17T09:42:28.943Z</time></trkpt><trkpt lat="44.6084" lon="9.3070317"><ele>529.3333333333333</ele><time>2026-04-17T09:42:29.943Z</time></trkpt><trkpt lat="44.6081983" lon="9.3070067"><ele>528.6666666666666</ele><time>2026-04-17T09:42:30.944Z</time></trkpt><trkpt lat="44.60799" lon="9.3069933"><ele>528.0</ele><time>2026-04-17T09:42:31.943Z</time></trkpt><trkpt lat="44.6077983" lon="9.3069933"><ele>527.3333333333334</ele><time>2026-04-17T09:42:32.943Z</time></trkpt><trkpt lat="44.60762" lon="9.3069933"><ele>526.6666666666667</ele><time>2026-04-17T09:42:33.943Z</time></trkpt><trkpt lat="44.6074467" lon="9.306945"><ele>526.0</ele><time>2026-04-17T09:42:34.943Z</time></trkpt><trkpt lat="44.6072867" lon="9.3068417"><ele>526.0</ele><time>2026-04-17T09:42:35.943Z</time></trkpt><trkpt lat="44.6071433" lon="9.3067067"><ele>526.0</ele><time>2026-04-17T09:42:36.943Z</time></trkpt><trkpt lat="44.607005" lon="9.3065683"><ele>526.0</ele><time>2026-04-17T09:42:37.942Z</time></trkpt><trkpt lat="44.6068867" lon="9.3063883"><ele>526.3333333333334</ele><time>2026-04-17T09:42:38.942Z</time></trkpt><trkpt lat="44.6068033" lon="9.3061533"><ele>526.6666666666666</ele><time>2026-04-17T09:42:39.942Z</time></trkpt><trkpt lat="44.6067517" lon="9.3058583"><ele>527.0</ele><time>2026-04-17T09:42:40.942Z</time></trkpt><trkpt lat="44.6067017" lon="9.3055683"><ele>527.0</ele><time>2026-04-17T09:42:41.942Z</time></trkpt><trkpt lat="44.6066683" lon="9.3052883"><ele>527.0</ele><time>2026-04-17T09:42:42.942Z</time></trkpt><trkpt lat="44.60664" lon="9.3050317"><ele>527.0</ele><time>2026-04-17T09:42:43.942Z</time></trkpt><trkpt lat="44.6066333" lon="9.3047967"><ele>524.3333333333333</ele><time>2026-04-17T09:42:44.942Z</time></trkpt><trkpt lat="44.6066667" lon="9.304575"><ele>521.6666666666666</ele><time>2026-04-17T09:42:45.942Z</time></trkpt><trkpt lat="44.6067433" lon="9.3043783"><ele>519.0</ele><time>2026-04-17T09:42:46.942Z</time></trkpt><trkpt lat="44.60687" lon="9.3042633"><ele>523.6666666666666</ele><time>2026-04-17T09:42:47.942Z</time></trkpt><trkpt lat="44.6070317" lon="9.30421"><ele>528.3333333333333</ele><time>2026-04-17T09:42:48.942Z</time></trkpt><trkpt lat="44.60725" lon="9.3041983"><ele>533.0</ele><time>2026-04-17T09:42:49.942Z</time></trkpt><trkpt lat="44.6074583" lon="9.30411"><ele>533.0</ele><time>2026-04-17T09:42:50.942Z</time></trkpt><trkpt lat="44.60769" lon="9.303955"><ele>533.0</ele><time>2026-04-17T09:42:51.942Z</time></trkpt><trkpt lat="44.6079083" lon="9.30377"><ele>533.5</ele><time>2026-04-17T09:42:52.942Z</time></trkpt><trkpt lat="44.6080933" lon="9.3035517"><ele>534.0</ele><time>2026-04-17T09:42:53.942Z</time></trkpt><trkpt lat="44.60825" lon="9.3033033"><ele>533.3333333333334</ele><time>2026-04-17T09:42:54.942Z</time></trkpt><trkpt lat="44.608365" lon="9.3030533"><ele>532.6666666666667</ele><time>2026-04-17T09:42:55.942Z</time></trkpt><trkpt lat="44.608455" lon="9.3028133"><ele>532.0</ele><time>2026-04-17T09:42:56.943Z</time></trkpt><trkpt lat="44.6085033" lon="9.30257"><ele>532.0</ele><time>2026-04-17T09:42:57.942Z</time></trkpt><trkpt lat="44.608515" lon="9.3023033"><ele>532.0</ele><time>2026-04-17T09:42:58.942Z</time></trkpt><trkpt lat="44.6084883" lon="9.3019833"><ele>532.0</ele><time>2026-04-17T09:42:59.942Z</time></trkpt><trkpt lat="44.6084317" lon="9.3016183"><ele>532.5</ele><time>2026-04-17T09:43:00.942Z</time></trkpt><trkpt lat="44.6083717" lon="9.3012217"><ele>533.0</ele><time>2026-04-17T09:43:01.943Z</time></trkpt><trkpt lat="44.6083467" lon="9.300805"><ele>537.0</ele><time>2026-04-17T09:43:02.943Z</time></trkpt><trkpt lat="44.60832" lon="9.3003717"><ele>541.0</ele><time>2026-04-17T09:43:03.942Z</time></trkpt><trkpt lat="44.6082867" lon="9.2999383"><ele>544.0</ele><time>2026-04-17T09:43:04.942Z</time></trkpt><trkpt lat="44.6082417" lon="9.2995367"><ele>547.0</ele><time>2026-04-17T09:43:05.942Z</time></trkpt><trkpt lat="44.6081967" lon="9.2991733"><ele>549.0</ele><time>2026-04-17T09:43:06.942Z</time></trkpt><trkpt lat="44.6081517" lon="9.298855"><ele>551.0</ele><time>2026-04-17T09:43:07.942Z</time></trkpt><trkpt lat="44.60811" lon="9.2985583"><ele>553.0</ele><time>2026-04-17T09:43:08.942Z</time></trkpt><trkpt lat="44.6080467" lon="9.2983133"><ele>553.0</ele><time>2026-04-17T09:43:09.942Z</time></trkpt><trkpt lat="44.60796" lon="9.2981283"><ele>553.0</ele><time>2026-04-17T09:43:10.942Z</time></trkpt><trkpt lat="44.607845" lon="9.2979883"><ele>553.0</ele><time>2026-04-17T09:43:11.942Z</time></trkpt><trkpt lat="44.60772" lon="9.2979"><ele>548.25</ele><time>2026-04-17T09:43:12.942Z</time></trkpt><trkpt lat="44.6075917" lon="9.29783"><ele>543.5</ele><time>2026-04-17T09:43:13.942Z</time></trkpt><trkpt lat="44.6074717" lon="9.297735"><ele>538.75</ele><time>2026-04-17T09:43:14.942Z</time></trkpt><trkpt lat="44.6073683" lon="9.2975917"><ele>534.0</ele><time>2026-04-17T09:43:15.942Z</time></trkpt><trkpt lat="44.6072683" lon="9.2974233"><ele>540.3333333333334</ele><time>2026-04-17T09:43:16.942Z</time></trkpt><trkpt lat="44.6071733" lon="9.297245"><ele>546.6666666666667</ele><time>2026-04-17T09:43:17.942Z</time></trkpt><trkpt lat="44.6070817" lon="9.29707"><ele>553.0</ele><time>2026-04-17T09:43:18.942Z</time></trkpt><trkpt lat="44.6070017" lon="9.2969067"><ele>545.3333333333334</ele><time>2026-04-17T09:43:19.942Z</time></trkpt><trkpt lat="44.6069267" lon="9.2967283"><ele>537.6666666666666</ele><time>2026-04-17T09:43:20.942Z</time></trkpt><trkpt lat="44.6068717" lon="9.2965367"><ele>530.0</ele><time>2026-04-17T09:43:21.942Z</time></trkpt><trkpt lat="44.60684" lon="9.2963233"><ele>530.0</ele><time>2026-04-17T09:43:22.943Z</time></trkpt><trkpt lat="44.6067917" lon="9.2961233"><ele>530.0</ele><time>2026-04-17T09:43:23.942Z</time></trkpt><trkpt lat="44.60671" lon="9.29593"><ele>530.0</ele><time>2026-04-17T09:43:24.942Z</time></trkpt><trkpt lat="44.6066133" lon="9.2957333"><ele>529.6666666666666</ele><time>2026-04-17T09:43:25.942Z</time></trkpt><trkpt lat="44.6065133" lon="9.2955283"><ele>529.3333333333334</ele><time>2026-04-17T09:43:26.942Z</time></trkpt><trkpt lat="44.6064067" lon="9.2953183"><ele>529.0</ele><time>2026-04-17T09:43:27.942Z</time></trkpt><trkpt lat="44.6063" lon="9.2951067"><ele>529.0</ele><time>2026-04-17T09:43:28.942Z</time></trkpt><trkpt lat="44.6061983" lon="9.2949033"><ele>529.0</ele><time>2026-04-17T09:43:29.942Z</time></trkpt><trkpt lat="44.6060983" lon="9.2947"><ele>529.0</ele><time>2026-04-17T09:43:30.942Z</time></trkpt><trkpt lat="44.6059983" lon="9.2944983"><ele>527.3333333333334</ele><time>2026-04-17T09:43:31.942Z</time></trkpt><trkpt lat="44.6058967" lon="9.2942983"><ele>525.6666666666666</ele><time>2026-04-17T09:43:32.942Z</time></trkpt><trkpt lat="44.6057933" lon="9.294085"><ele>524.0</ele><time>2026-04-17T09:43:33.942Z</time></trkpt><trkpt lat="44.60569" lon="9.2938733"><ele>524.0</ele><time>2026-04-17T09:43:34.942Z</time></trkpt><trkpt lat="44.6055967" lon="9.2936817"><ele>524.0</ele><time>2026-04-17T09:43:35.942Z</time></trkpt><trkpt lat="44.6055067" lon="9.2935"><ele>524.0</ele><time>2026-04-17T09:43:36.942Z</time></trkpt><trkpt lat="44.6054233" lon="9.2933283"><ele>524.0</ele><time>2026-04-17T09:43:37.942Z</time></trkpt><trkpt lat="44.6053433" lon="9.2931633"><ele>524.0</ele><time>2026-04-17T09:43:38.942Z</time></trkpt><trkpt lat="44.6052667" lon="9.2930117"><ele>524.0</ele><time>2026-04-17T09:43:39.942Z</time></trkpt><trkpt lat="44.6052" lon="9.2928733"><ele>524.0</ele><time>2026-04-17T09:43:40.942Z</time></trkpt><trkpt lat="44.60515" lon="9.2927567"><ele>525.0</ele><time>2026-04-17T09:43:41.942Z</time></trkpt><trkpt lat="44.60511" lon="9.2926633"><ele>525.0</ele><time>2026-04-17T09:43:42.942Z</time></trkpt><trkpt lat="44.6050483" lon="9.29253"><ele>525.0</ele><time>2026-04-17T09:43:44.942Z</time></trkpt><trkpt lat="44.60502" lon="9.292625"><ele>525.0</ele><time>2026-04-17T09:43:49.942Z</time></trkpt></trkseg><trkseg><trkpt lat="44.6052501" lon="9.2929929"><ele>525.0</ele><time>2026-04-17T10:22:38.943Z</time></trkpt><trkpt lat="44.6052922" lon="9.2930858"><ele>525.0</ele><time>2026-04-17T10:22:39.942Z</time></trkpt><trkpt lat="44.6053371" lon="9.2931783"><ele>525.0</ele><time>2026-04-17T10:22:40.942Z</time></trkpt><trkpt lat="44.6053935" lon="9.2932857"><ele>525.0</ele><time>2026-04-17T10:22:41.943Z</time></trkpt><trkpt lat="44.6054644" lon="9.2934318"><ele>525.0</ele><time>2026-04-17T10:22:42.942Z</time></trkpt><trkpt lat="44.6055441" lon="9.2935877"><ele>524.6666666666666</ele><time>2026-04-17T10:22:43.942Z</time></trkpt><trkpt lat="44.6056325" lon="9.2937639"><ele>524.3333333333333</ele><time>2026-04-17T10:22:44.942Z</time></trkpt><trkpt lat="44.6057281" lon="9.2939731"><ele>524.0</ele><time>2026-04-17T10:22:45.942Z</time></trkpt><trkpt lat="44.6058314" lon="9.2942004"><ele>524.0</ele><time>2026-04-17T10:22:46.942Z</time></trkpt><trkpt lat="44.6059445" lon="9.2944416"><ele>524.0</ele><time>2026-04-17T10:22:47.942Z</time></trkpt><trkpt lat="44.6060673" lon="9.2946991"><ele>524.0</ele><time>2026-04-17T10:22:48.942Z</time></trkpt><trkpt lat="44.6061991" lon="9.2949703"><ele>526.5</ele><time>2026-04-17T10:22:49.942Z</time></trkpt><trkpt lat="44.6063372" lon="9.2952436"><ele>529.0</ele><time>2026-04-17T10:22:50.942Z</time></trkpt><trkpt lat="44.6064727" lon="9.2955108"><ele>529.3333333333334</ele><time>2026-04-17T10:22:51.942Z</time></trkpt><trkpt lat="44.6065958" lon="9.2957483"><ele>529.6666666666666</ele><time>2026-04-17T10:22:52.942Z</time></trkpt><trkpt lat="44.606706" lon="9.2959632"><ele>530.0</ele><time>2026-04-17T10:22:53.942Z</time></trkpt><trkpt lat="44.6067976" lon="9.2961771"><ele>530.0</ele><time>2026-04-17T10:22:54.942Z</time></trkpt><trkpt lat="44.6068668" lon="9.2963852"><ele>530.0</ele><time>2026-04-17T10:22:55.942Z</time></trkpt><trkpt lat="44.6069152" lon="9.2966016"><ele>530.0</ele><time>2026-04-17T10:22:56.942Z</time></trkpt><trkpt lat="44.6069858" lon="9.2968195"><ele>531.3333333333333</ele><time>2026-04-17T10:22:57.942Z</time></trkpt><trkpt lat="44.6070725" lon="9.2970409"><ele>532.6666666666666</ele><time>2026-04-17T10:22:58.942Z</time></trkpt><trkpt lat="44.6071753" lon="9.2972703"><ele>534.0</ele><time>2026-04-17T10:22:59.942Z</time></trkpt><trkpt lat="44.6072817" lon="9.2974907"><ele>534.0</ele><time>2026-04-17T10:23:00.942Z</time></trkpt><trkpt lat="44.6073849" lon="9.2976902"><ele>534.0</ele><time>2026-04-17T10:23:01.942Z</time></trkpt><trkpt lat="44.6074963" lon="9.2978551"><ele>534.0</ele><time>2026-04-17T10:23:02.942Z</time></trkpt><trkpt lat="44.6076294" lon="9.2979763"><ele>534.0</ele><time>2026-04-17T10:23:03.942Z</time></trkpt><trkpt lat="44.6077589" lon="9.2980659"><ele>534.0</ele><time>2026-04-17T10:23:04.942Z</time></trkpt><trkpt lat="44.6078749" lon="9.2981387"><ele>534.0</ele><time>2026-04-17T10:23:05.942Z</time></trkpt><trkpt lat="44.607979" lon="9.2982288"><ele>534.0</ele><time>2026-04-17T10:23:06.942Z</time></trkpt><trkpt lat="44.6080623" lon="9.2983699"><ele>538.3333333333334</ele><time>2026-04-17T10:23:07.942Z</time></trkpt><trkpt lat="44.6081189" lon="9.2985796"><ele>542.6666666666667</ele><time>2026-04-17T10:23:08.942Z</time></trkpt><trkpt lat="44.6081618" lon="9.2988496"><ele>547.0</ele><time>2026-04-17T10:23:09.942Z</time></trkpt><trkpt lat="44.6082034" lon="9.2991814"><ele>547.0</ele><time>2026-04-17T10:23:10.942Z</time></trkpt><trkpt lat="44.608247" lon="9.2995608"><ele>547.0</ele><time>2026-04-17T10:23:11.942Z</time></trkpt><trkpt lat="44.6082867" lon="9.2999796"><ele>544.0</ele><time>2026-04-17T10:23:12.942Z</time></trkpt><trkpt lat="44.6083102" lon="9.3004048"><ele>541.0</ele><time>2026-04-17T10:23:13.943Z</time></trkpt><trkpt lat="44.6083217" lon="9.3008033"><ele>537.0</ele><time>2026-04-17T10:23:14.942Z</time></trkpt><trkpt lat="44.6083417" lon="9.3011967"><ele>533.0</ele><time>2026-04-17T10:23:15.942Z</time></trkpt><trkpt lat="44.608375" lon="9.30159"><ele>532.5</ele><time>2026-04-17T10:23:16.942Z</time></trkpt><trkpt lat="44.6084133" lon="9.3019483"><ele>532.0</ele><time>2026-04-17T10:23:17.942Z</time></trkpt><trkpt lat="44.6084467" lon="9.3022533"><ele>532.0</ele><time>2026-04-17T10:23:18.942Z</time></trkpt><trkpt lat="44.60847" lon="9.3025133"><ele>532.0</ele><time>2026-04-17T10:23:19.942Z</time></trkpt><trkpt lat="44.608475" lon="9.30273"><ele>532.0</ele><time>2026-04-17T10:23:20.942Z</time></trkpt><trkpt lat="44.608445" lon="9.3029267"><ele>532.6666666666667</ele><time>2026-04-17T10:23:21.942Z</time></trkpt><trkpt lat="44.6083767" lon="9.3031317"><ele>533.3333333333334</ele><time>2026-04-17T10:23:22.942Z</time></trkpt><trkpt lat="44.6082767" lon="9.3033517"><ele>534.0</ele><time>2026-04-17T10:23:23.942Z</time></trkpt><trkpt lat="44.6081533" lon="9.3035617"><ele>534.0</ele><time>2026-04-17T10:23:24.942Z</time></trkpt><trkpt lat="44.607995" lon="9.303765"><ele>534.0</ele><time>2026-04-17T10:23:25.942Z</time></trkpt><trkpt lat="44.6078167" lon="9.303935"><ele>534.0</ele><time>2026-04-17T10:23:26.942Z</time></trkpt><trkpt lat="44.6076417" lon="9.3040817"><ele>533.6666666666666</ele><time>2026-04-17T10:23:27.942Z</time></trkpt><trkpt lat="44.6074833" lon="9.3042033"><ele>533.3333333333333</ele><time>2026-04-17T10:23:28.942Z</time></trkpt><trkpt lat="44.6073117" lon="9.3042833"><ele>533.0</ele><time>2026-04-17T10:23:29.942Z</time></trkpt><trkpt lat="44.60713" lon="9.304315"><ele>529.5</ele><time>2026-04-17T10:23:30.942Z</time></trkpt><trkpt lat="44.6069733" lon="9.30433"><ele>526.0</ele><time>2026-04-17T10:23:31.942Z</time></trkpt><trkpt lat="44.6068417" lon="9.304385"><ele>522.5</ele><time>2026-04-17T10:23:32.942Z</time></trkpt><trkpt lat="44.60674" lon="9.304495"><ele>519.0</ele><time>2026-04-17T10:23:33.942Z</time></trkpt><trkpt lat="44.6066717" lon="9.3046617"><ele>521.6666666666666</ele><time>2026-04-17T10:23:34.942Z</time></trkpt><trkpt lat="44.6066483" lon="9.3048917"><ele>524.3333333333333</ele><time>2026-04-17T10:23:35.942Z</time></trkpt><trkpt lat="44.606665" lon="9.3051767"><ele>527.0</ele><time>2026-04-17T10:23:36.942Z</time></trkpt><trkpt lat="44.60671" lon="9.305495"><ele>527.0</ele><time>2026-04-17T10:23:37.942Z</time></trkpt><trkpt lat="44.606765" lon="9.305795"><ele>527.0</ele><time>2026-04-17T10:23:38.942Z</time></trkpt><trkpt lat="44.60683" lon="9.3060783"><ele>527.0</ele><time>2026-04-17T10:23:39.942Z</time></trkpt><trkpt lat="44.6069133" lon="9.3063283"><ele>526.6666666666666</ele><time>2026-04-17T10:23:40.942Z</time></trkpt><trkpt lat="44.6070383" lon="9.306545"><ele>526.3333333333334</ele><time>2026-04-17T10:23:41.942Z</time></trkpt><trkpt lat="44.6071883" lon="9.30672"><ele>526.0</ele><time>2026-04-17T10:23:42.942Z</time></trkpt><trkpt lat="44.6073367" lon="9.30687"><ele>526.0</ele><time>2026-04-17T10:23:43.942Z</time></trkpt><trkpt lat="44.607495" lon="9.3069767"><ele>526.0</ele><time>2026-04-17T10:23:44.942Z</time></trkpt><trkpt lat="44.6076833" lon="9.3070233"><ele>526.0</ele><time>2026-04-17T10:23:45.942Z</time></trkpt><trkpt lat="44.6079" lon="9.3070333"><ele>526.6666666666667</ele><time>2026-04-17T10:23:46.942Z</time></trkpt><trkpt lat="44.6081033" lon="9.307045"><ele>527.3333333333334</ele><time>2026-04-17T10:23:47.942Z</time></trkpt><trkpt lat="44.6082883" lon="9.3070683"><ele>528.0</ele><time>2026-04-17T10:23:48.942Z</time></trkpt><trkpt lat="44.6084583" lon="9.30709"><ele>528.0</ele><time>2026-04-17T10:23:49.942Z</time></trkpt><trkpt lat="44.60863" lon="9.3070833"><ele>528.0</ele><time>2026-04-17T10:23:50.942Z</time></trkpt><trkpt lat="44.608815" lon="9.3070217"><ele>528.0</ele><time>2026-04-17T10:23:51.942Z</time></trkpt><trkpt lat="44.6090183" lon="9.30694"><ele>528.6666666666666</ele><time>2026-04-17T10:23:52.942Z</time></trkpt><trkpt lat="44.6092233" lon="9.3068633"><ele>529.3333333333333</ele><time>2026-04-17T10:23:53.942Z</time></trkpt><trkpt lat="44.6094233" lon="9.3068"><ele>530.0</ele><time>2026-04-17T10:23:54.942Z</time></trkpt><trkpt lat="44.609615" lon="9.3067617"><ele>531.6666666666666</ele><time>2026-04-17T10:23:55.942Z</time></trkpt><trkpt lat="44.6098017" lon="9.3067267"><ele>533.3333333333334</ele><time>2026-04-17T10:23:56.942Z</time></trkpt><trkpt lat="44.609985" lon="9.3067167"><ele>535.0</ele><time>2026-04-17T10:23:57.942Z</time></trkpt><trkpt lat="44.6101483" lon="9.3067383"><ele>535.0</ele><time>2026-04-17T10:23:58.942Z</time></trkpt><trkpt lat="44.6103167" lon="9.3068083"><ele>535.0</ele><time>2026-04-17T10:23:59.942Z</time></trkpt><trkpt lat="44.61046" lon="9.3068967"><ele>535.0</ele><time>2026-04-17T10:24:00.942Z</time></trkpt><trkpt lat="44.6105717" lon="9.307005"><ele>532.0</ele><time>2026-04-17T10:24:01.942Z</time></trkpt><trkpt lat="44.610645" lon="9.3071383"><ele>529.0</ele><time>2026-04-17T10:24:02.942Z</time></trkpt><trkpt lat="44.6106517" lon="9.3073433"><ele>526.0</ele><time>2026-04-17T10:24:03.942Z</time></trkpt><trkpt lat="44.6106833" lon="9.3075417"><ele>523.0</ele><time>2026-04-17T10:24:04.942Z</time></trkpt><trkpt lat="44.6107483" lon="9.3077533"><ele>523.0</ele><time>2026-04-17T10:24:05.942Z</time></trkpt><trkpt lat="44.61086" lon="9.3079667"><ele>523.0</ele><time>2026-04-17T10:24:06.942Z</time></trkpt><trkpt lat="44.6109733" lon="9.3081883"><ele>523.0</ele><time>2026-04-17T10:24:07.942Z</time></trkpt><trkpt lat="44.611085" lon="9.3083967"><ele>525.0</ele><time>2026-04-17T10:24:08.942Z</time></trkpt><trkpt lat="44.6111883" lon="9.3085667"><ele>527.0</ele><time>2026-04-17T10:24:09.942Z</time></trkpt><trkpt lat="44.611255" lon="9.308745"><ele>529.0</ele><time>2026-04-17T10:24:10.943Z</time></trkpt><trkpt lat="44.61129" lon="9.3089267"><ele>531.0</ele><time>2026-04-17T10:24:11.942Z</time></trkpt><trkpt lat="44.6112767" lon="9.3091283"><ele>535.6666666666666</ele><time>2026-04-17T10:24:12.942Z</time></trkpt><trkpt lat="44.6112167" lon="9.3093733"><ele>540.3333333333333</ele><time>2026-04-17T10:24:13.942Z</time></trkpt><trkpt lat="44.6111733" lon="9.3096183"><ele>545.0</ele><time>2026-04-17T10:24:14.942Z</time></trkpt><trkpt lat="44.6111283" lon="9.30986"><ele>535.0</ele><time>2026-04-17T10:24:15.942Z</time></trkpt><trkpt lat="44.611055" lon="9.3100917"><ele>525.0</ele><time>2026-04-17T10:24:16.942Z</time></trkpt><trkpt lat="44.610945" lon="9.3102967"><ele>515.0</ele><time>2026-04-17T10:24:17.942Z</time></trkpt><trkpt lat="44.6108217" lon="9.3104933"><ele>520.3333333333333</ele><time>2026-04-17T10:24:18.942Z</time></trkpt><trkpt lat="44.6107117" lon="9.3106733"><ele>525.6666666666666</ele><time>2026-04-17T10:24:19.942Z</time></trkpt><trkpt lat="44.6106" lon="9.3108367"><ele>531.0</ele><time>2026-04-17T10:24:20.942Z</time></trkpt><trkpt lat="44.6105117" lon="9.3109783"><ele>531.0</ele><time>2026-04-17T10:24:21.942Z</time></trkpt><trkpt lat="44.6104183" lon="9.3111083"><ele>531.0</ele><time>2026-04-17T10:24:22.942Z</time></trkpt><trkpt lat="44.61033" lon="9.3112317"><ele>531.0</ele><time>2026-04-17T10:24:23.942Z</time></trkpt><trkpt lat="44.6102467" lon="9.3113633"><ele>531.0</ele><time>2026-04-17T10:24:24.942Z</time></trkpt><trkpt lat="44.6101767" lon="9.3115"><ele>526.0</ele><time>2026-04-17T10:24:25.942Z</time></trkpt><trkpt lat="44.610115" lon="9.3116433"><ele>521.0</ele><time>2026-04-17T10:24:26.943Z</time></trkpt><trkpt lat="44.6100883" lon="9.3117967"><ele>516.0</ele><time>2026-04-17T10:24:27.942Z</time></trkpt><trkpt lat="44.610095" lon="9.311965"><ele>511.0</ele><time>2026-04-17T10:24:28.942Z</time></trkpt><trkpt lat="44.6101317" lon="9.3121483"><ele>510.6666666666667</ele><time>2026-04-17T10:24:29.942Z</time></trkpt><trkpt lat="44.61018" lon="9.3123683"><ele>510.33333333333337</ele><time>2026-04-17T10:24:30.942Z</time></trkpt><trkpt lat="44.6102483" lon="9.3126233"><ele>510.0</ele><time>2026-04-17T10:24:31.942Z</time></trkpt><trkpt lat="44.6103267" lon="9.3129233"><ele>515.6666666666666</ele><time>2026-04-17T10:24:32.942Z</time></trkpt><trkpt lat="44.6103933" lon="9.313205"><ele>521.3333333333333</ele><time>2026-04-17T10:24:33.942Z</time></trkpt><trkpt lat="44.6104583" lon="9.3135217"><ele>527.0</ele><time>2026-04-17T10:24:34.942Z</time></trkpt><trkpt lat="44.6104767" lon="9.3138283"><ele>527.0</ele><time>2026-04-17T10:24:35.942Z</time></trkpt><trkpt lat="44.6104867" lon="9.3141317"><ele>527.0</ele><time>2026-04-17T10:24:36.942Z</time></trkpt><trkpt lat="44.6105" lon="9.314425"><ele>527.0</ele><time>2026-04-17T10:24:37.942Z</time></trkpt><trkpt lat="44.6105367" lon="9.3147117"><ele>524.3333333333333</ele><time>2026-04-17T10:24:38.942Z</time></trkpt><trkpt lat="44.6106017" lon="9.31501"><ele>521.6666666666666</ele><time>2026-04-17T10:24:39.942Z</time></trkpt><trkpt lat="44.610675" lon="9.315305"><ele>519.0</ele><time>2026-04-17T10:24:40.942Z</time></trkpt><trkpt lat="44.6107433" lon="9.3155883"><ele>518.6666666666666</ele><time>2026-04-17T10:24:41.942Z</time></trkpt><trkpt lat="44.6107933" lon="9.3158667"><ele>518.3333333333333</ele><time>2026-04-17T10:24:42.942Z</time></trkpt><trkpt lat="44.610815" lon="9.3161233"><ele>518.0</ele><time>2026-04-17T10:24:43.942Z</time></trkpt><trkpt lat="44.6108083" lon="9.3163483"><ele>517.75</ele><time>2026-04-17T10:24:44.942Z</time></trkpt><trkpt lat="44.6107717" lon="9.31655"><ele>517.5</ele><time>2026-04-17T10:24:45.942Z</time></trkpt><trkpt lat="44.61074" lon="9.3167267"><ele>517.25</ele><time>2026-04-17T10:24:46.942Z</time></trkpt><trkpt lat="44.6107217" lon="9.3169283"><ele>517.0</ele><time>2026-04-17T10:24:47.942Z</time></trkpt><trkpt lat="44.610735" lon="9.317135"><ele>515.75</ele><time>2026-04-17T10:24:48.942Z</time></trkpt><trkpt lat="44.6107467" lon="9.317345"><ele>514.5</ele><time>2026-04-17T10:24:49.942Z</time></trkpt><trkpt lat="44.610745" lon="9.3175517"><ele>513.25</ele><time>2026-04-17T10:24:50.942Z</time></trkpt><trkpt lat="44.61074" lon="9.3177467"><ele>512.0</ele><time>2026-04-17T10:24:51.942Z</time></trkpt><trkpt lat="44.6107517" lon="9.3179317"><ele>510.0</ele><time>2026-04-17T10:24:52.942Z</time></trkpt><trkpt lat="44.6107983" lon="9.31809"><ele>508.0</ele><time>2026-04-17T10:24:53.942Z</time></trkpt><trkpt lat="44.6108883" lon="9.3182217"><ele>506.0</ele><time>2026-04-17T10:24:54.942Z</time></trkpt><trkpt lat="44.611035" lon="9.31834"><ele>504.0</ele><time>2026-04-17T10:24:55.942Z</time></trkpt><trkpt lat="44.611195" lon="9.3184783"><ele>513.6666666666666</ele><time>2026-04-17T10:24:56.942Z</time></trkpt><trkpt lat="44.61139" lon="9.3185833"><ele>523.3333333333333</ele><time>2026-04-17T10:24:57.943Z</time></trkpt><trkpt lat="44.61154" lon="9.3187017"><ele>533.0</ele><time>2026-04-17T10:24:58.943Z</time></trkpt><trkpt lat="44.6116667" lon="9.3188067"><ele>526.0</ele><time>2026-04-17T10:24:59.942Z</time></trkpt><trkpt lat="44.6117633" lon="9.31892"><ele>519.0</ele><time>2026-04-17T10:25:00.942Z</time></trkpt><trkpt lat="44.6118417" lon="9.3190517"><ele>512.0</ele><time>2026-04-17T10:25:01.942Z</time></trkpt><trkpt lat="44.6118867" lon="9.319215"><ele>505.0</ele><time>2026-04-17T10:25:02.942Z</time></trkpt><trkpt lat="44.6118917" lon="9.31942"><ele>505.0</ele><time>2026-04-17T10:25:03.942Z</time></trkpt><trkpt lat="44.6119067" lon="9.3196"><ele>505.0</ele><time>2026-04-17T10:25:04.942Z</time></trkpt><trkpt lat="44.6119517" lon="9.31978"><ele>505.0</ele><time>2026-04-17T10:25:05.943Z</time></trkpt><trkpt lat="44.612045" lon="9.319935"><ele>505.0</ele><time>2026-04-17T10:25:06.942Z</time></trkpt><trkpt lat="44.6121767" lon="9.3200933"><ele>505.0</ele><time>2026-04-17T10:25:07.942Z</time></trkpt><trkpt lat="44.612335" lon="9.3202417"><ele>505.0</ele><time>2026-04-17T10:25:08.942Z</time></trkpt><trkpt lat="44.6124917" lon="9.3203783"><ele>505.0</ele><time>2026-04-17T10:25:09.942Z</time></trkpt><trkpt lat="44.612635" lon="9.320525"><ele>504.0</ele><time>2026-04-17T10:25:10.942Z</time></trkpt><trkpt lat="44.612755" lon="9.320695"><ele>503.0</ele><time>2026-04-17T10:25:11.942Z</time></trkpt><trkpt lat="44.612845" lon="9.3208917"><ele>502.0</ele><time>2026-04-17T10:25:12.942Z</time></trkpt><trkpt lat="44.6129283" lon="9.3211017"><ele>502.0</ele><time>2026-04-17T10:25:13.942Z</time></trkpt><trkpt lat="44.6129933" lon="9.321305"><ele>502.0</ele><time>2026-04-17T10:25:14.942Z</time></trkpt><trkpt lat="44.61305" lon="9.321495"><ele>502.0</ele><time>2026-04-17T10:25:15.942Z</time></trkpt><trkpt lat="44.613105" lon="9.3216633"><ele>502.0</ele><time>2026-04-17T10:25:16.942Z</time></trkpt><trkpt lat="44.6131867" lon="9.3217967"><ele>507.0</ele><time>2026-04-17T10:25:17.942Z</time></trkpt><trkpt lat="44.613285" lon="9.32189"><ele>512.0</ele><time>2026-04-17T10:25:18.942Z</time></trkpt><trkpt lat="44.6134667" lon="9.3218417"><ele>517.0</ele><time>2026-04-17T10:25:19.942Z</time></trkpt><trkpt lat="44.6136883" lon="9.32179"><ele>519.0</ele><time>2026-04-17T10:25:20.942Z</time></trkpt><trkpt lat="44.613925" lon="9.321675"><ele>521.0</ele><time>2026-04-17T10:25:21.942Z</time></trkpt><trkpt lat="44.6141467" lon="9.32159"><ele>521.0</ele><time>2026-04-17T10:25:22.942Z</time></trkpt><trkpt lat="44.614345" lon="9.3215467"><ele>521.0</ele><time>2026-04-17T10:25:23.942Z</time></trkpt><trkpt lat="44.61454" lon="9.3215267"><ele>521.0</ele><time>2026-04-17T10:25:24.942Z</time></trkpt><trkpt lat="44.6147183" lon="9.32155"><ele>517.6666666666666</ele><time>2026-04-17T10:25:25.942Z</time></trkpt><trkpt lat="44.6148783" lon="9.3216133"><ele>514.3333333333334</ele><time>2026-04-17T10:25:26.942Z</time></trkpt><trkpt lat="44.615025" lon="9.3217333"><ele>511.0</ele><time>2026-04-17T10:25:27.943Z</time></trkpt><trkpt lat="44.6151867" lon="9.32183"><ele>510.33333333333337</ele><time>2026-04-17T10:25:28.942Z</time></trkpt><trkpt lat="44.6153683" lon="9.3218883"><ele>509.66666666666663</ele><time>2026-04-17T10:25:29.942Z</time></trkpt><trkpt lat="44.615605" lon="9.3218883"><ele>509.0</ele><time>2026-04-17T10:25:30.942Z</time></trkpt><trkpt lat="44.6158383" lon="9.32188"><ele>509.0</ele><time>2026-04-17T10:25:31.942Z</time></trkpt><trkpt lat="44.61606" lon="9.3218583"><ele>509.0</ele><time>2026-04-17T10:25:32.942Z</time></trkpt><trkpt lat="44.6162733" lon="9.3218417"><ele>509.0</ele><time>2026-04-17T10:25:33.942Z</time></trkpt><trkpt lat="44.6164767" lon="9.3218317"><ele>506.66666666666663</ele><time>2026-04-17T10:25:34.942Z</time></trkpt><trkpt lat="44.616675" lon="9.3218567"><ele>504.33333333333337</ele><time>2026-04-17T10:25:35.942Z</time></trkpt><trkpt lat="44.6168567" lon="9.3219167"><ele>502.0</ele><time>2026-04-17T10:25:36.942Z</time></trkpt><trkpt lat="44.6170217" lon="9.32201"><ele>496.0</ele><time>2026-04-17T10:25:37.942Z</time></trkpt><trkpt lat="44.617215" lon="9.32217"><ele>490.0</ele><time>2026-04-17T10:25:38.942Z</time></trkpt><trkpt lat="44.6174" lon="9.3223867"><ele>490.0</ele><time>2026-04-17T10:25:39.942Z</time></trkpt><trkpt lat="44.6175967" lon="9.3226467"><ele>490.0</ele><time>2026-04-17T10:25:40.942Z</time></trkpt><trkpt lat="44.6177983" lon="9.322925"><ele>494.5</ele><time>2026-04-17T10:25:41.942Z</time></trkpt><trkpt lat="44.6180067" lon="9.3232217"><ele>499.0</ele><time>2026-04-17T10:25:42.942Z</time></trkpt><trkpt lat="44.618225" lon="9.323535"><ele>499.0</ele><time>2026-04-17T10:25:43.942Z</time></trkpt><trkpt lat="44.61846" lon="9.323845"><ele>499.0</ele><time>2026-04-17T10:25:44.942Z</time></trkpt><trkpt lat="44.618705" lon="9.32417"><ele>501.5</ele><time>2026-04-17T10:25:45.942Z</time></trkpt><trkpt lat="44.618955" lon="9.324505"><ele>504.0</ele><time>2026-04-17T10:25:46.942Z</time></trkpt><trkpt lat="44.6192033" lon="9.324865"><ele>498.0</ele><time>2026-04-17T10:25:47.943Z</time></trkpt><trkpt lat="44.6194533" lon="9.3252033"><ele>492.0</ele><time>2026-04-17T10:25:48.943Z</time></trkpt><trkpt lat="44.619685" lon="9.3255117"><ele>490.0</ele><time>2026-04-17T10:25:49.943Z</time></trkpt><trkpt lat="44.619905" lon="9.3257983"><ele>488.0</ele><time>2026-04-17T10:25:50.943Z</time></trkpt><trkpt lat="44.62012" lon="9.3260967"><ele>486.0</ele><time>2026-04-17T10:25:51.944Z</time></trkpt><trkpt lat="44.6203217" lon="9.3263967"><ele>484.0</ele><time>2026-04-17T10:25:52.943Z</time></trkpt><trkpt lat="44.62051" lon="9.326715"><ele>484.0</ele><time>2026-04-17T10:25:53.943Z</time></trkpt><trkpt lat="44.6206867" lon="9.327065"><ele>484.0</ele><time>2026-04-17T10:25:54.943Z</time></trkpt><trkpt lat="44.6208483" lon="9.32742"><ele>483.5</ele><time>2026-04-17T10:25:55.943Z</time></trkpt><trkpt lat="44.6210133" lon="9.3277867"><ele>483.0</ele><time>2026-04-17T10:25:56.943Z</time></trkpt><trkpt lat="44.6211717" lon="9.3281517"><ele>486.5</ele><time>2026-04-17T10:25:57.943Z</time></trkpt><trkpt lat="44.621325" lon="9.3285017"><ele>490.0</ele><time>2026-04-17T10:25:58.943Z</time></trkpt><trkpt lat="44.621465" lon="9.32885"><ele>488.0</ele><time>2026-04-17T10:25:59.943Z</time></trkpt><trkpt lat="44.6216017" lon="9.3291817"><ele>486.0</ele><time>2026-04-17T10:26:00.943Z</time></trkpt><trkpt lat="44.621755" lon="9.3294967"><ele>484.5</ele><time>2026-04-17T10:26:01.943Z</time></trkpt><trkpt lat="44.621925" lon="9.32979"><ele>483.0</ele><time>2026-04-17T10:26:02.943Z</time></trkpt><trkpt lat="44.6221167" lon="9.330065"><ele>483.0</ele><time>2026-04-17T10:26:03.943Z</time></trkpt><trkpt lat="44.6223183" lon="9.33032"><ele>483.0</ele><time>2026-04-17T10:26:04.943Z</time></trkpt><trkpt lat="44.62253" lon="9.330555"><ele>481.0</ele><time>2026-04-17T10:26:05.943Z</time></trkpt><trkpt lat="44.6227517" lon="9.330765"><ele>479.0</ele><time>2026-04-17T10:26:06.943Z</time></trkpt><trkpt lat="44.6229883" lon="9.3309483"><ele>478.5</ele><time>2026-04-17T10:26:07.943Z</time></trkpt><trkpt lat="44.6232317" lon="9.331105"><ele>478.0</ele><time>2026-04-17T10:26:08.943Z</time></trkpt><trkpt lat="44.6234967" lon="9.3312467"><ele>478.5</ele><time>2026-04-17T10:26:09.943Z</time></trkpt><trkpt lat="44.6237667" lon="9.3313867"><ele>479.0</ele><time>2026-04-17T10:26:10.943Z</time></trkpt><trkpt lat="44.62404" lon="9.3315283"><ele>479.5</ele><time>2026-04-17T10:26:11.943Z</time></trkpt><trkpt lat="44.6243117" lon="9.3316783"><ele>480.0</ele><time>2026-04-17T10:26:12.943Z</time></trkpt><trkpt lat="44.6245833" lon="9.3318317"><ele>480.0</ele><time>2026-04-17T10:26:13.943Z</time></trkpt><trkpt lat="44.62486" lon="9.3319867"><ele>480.0</ele><time>2026-04-17T10:26:14.943Z</time></trkpt><trkpt lat="44.62514" lon="9.3321433"><ele>477.0</ele><time>2026-04-17T10:26:15.943Z</time></trkpt><trkpt lat="44.6254167" lon="9.3323017"><ele>474.0</ele><time>2026-04-17T10:26:16.943Z</time></trkpt><trkpt lat="44.6256967" lon="9.3324567"><ele>474.0</ele><time>2026-04-17T10:26:17.943Z</time></trkpt><trkpt lat="44.62598" lon="9.332605"><ele>474.0</ele><time>2026-04-17T10:26:18.943Z</time></trkpt><trkpt lat="44.6262733" lon="9.33273"><ele>476.5</ele><time>2026-04-17T10:26:19.943Z</time></trkpt><trkpt lat="44.6265717" lon="9.3328283"><ele>479.0</ele><time>2026-04-17T10:26:20.943Z</time></trkpt><trkpt lat="44.6268717" lon="9.3329083"><ele>476.0</ele><time>2026-04-17T10:26:21.943Z</time></trkpt><trkpt lat="44.6271667" lon="9.3329733"><ele>473.0</ele><time>2026-04-17T10:26:22.944Z</time></trkpt><trkpt lat="44.6274733" lon="9.3330083"><ele>473.0</ele><time>2026-04-17T10:26:23.944Z</time></trkpt><trkpt lat="44.6277717" lon="9.3330383"><ele>473.0</ele><time>2026-04-17T10:26:24.943Z</time></trkpt><trkpt lat="44.62807" lon="9.3330567"><ele>476.5</ele><time>2026-04-17T10:26:25.943Z</time></trkpt><trkpt lat="44.6283633" lon="9.33308"><ele>480.0</ele><time>2026-04-17T10:26:26.944Z</time></trkpt><trkpt lat="44.6286567" lon="9.3331017"><ele>480.0</ele><time>2026-04-17T10:26:27.944Z</time></trkpt><trkpt lat="44.6289383" lon="9.3331133"><ele>480.0</ele><time>2026-04-17T10:26:28.944Z</time></trkpt><trkpt lat="44.629215" lon="9.3331017"><ele>481.5</ele><time>2026-04-17T10:26:29.944Z</time></trkpt><trkpt lat="44.6294883" lon="9.3330583"><ele>483.0</ele><time>2026-04-17T10:26:30.943Z</time></trkpt><trkpt lat="44.6297583" lon="9.332975"><ele>477.0</ele><time>2026-04-17T10:26:31.943Z</time></trkpt><trkpt lat="44.6300183" lon="9.3328567"><ele>471.0</ele><time>2026-04-17T10:26:32.943Z</time></trkpt><trkpt lat="44.6302767" lon="9.3327033"><ele>478.0</ele><time>2026-04-17T10:26:33.943Z</time></trkpt><trkpt lat="44.6305333" lon="9.3325317"><ele>485.0</ele><time>2026-04-17T10:26:34.943Z</time></trkpt><trkpt lat="44.6307883" lon="9.3323517"><ele>482.5</ele><time>2026-04-17T10:26:35.943Z</time></trkpt><trkpt lat="44.6310483" lon="9.3321667"><ele>480.0</ele><time>2026-04-17T10:26:36.943Z</time></trkpt><trkpt lat="44.6313017" lon="9.3319667"><ele>480.0</ele><time>2026-04-17T10:26:37.943Z</time></trkpt><trkpt lat="44.631545" lon="9.3317483"><ele>480.0</ele><time>2026-04-17T10:26:38.943Z</time></trkpt><trkpt lat="44.6317883" lon="9.331515"><ele>478.0</ele><time>2026-04-17T10:26:39.943Z</time></trkpt><trkpt lat="44.6320283" lon="9.3312783"><ele>476.0</ele><time>2026-04-17T10:26:40.943Z</time></trkpt><trkpt lat="44.6322683" lon="9.3310317"><ele>476.0</ele><time>2026-04-17T10:26:41.943Z</time></trkpt><trkpt lat="44.6325017" lon="9.3307883"><ele>476.0</ele><time>2026-04-17T10:26:42.943Z</time></trkpt><trkpt lat="44.6327417" lon="9.33056"><ele>474.0</ele><time>2026-04-17T10:26:43.944Z</time></trkpt><trkpt lat="44.6329883" lon="9.3303433"><ele>472.0</ele><time>2026-04-17T10:26:44.943Z</time></trkpt><trkpt lat="44.6332383" lon="9.330145"><ele>472.0</ele><time>2026-04-17T10:26:45.943Z</time></trkpt><trkpt lat="44.6334983" lon="9.3299667"><ele>472.0</ele><time>2026-04-17T10:26:46.943Z</time></trkpt><trkpt lat="44.6337633" lon="9.3297917"><ele>470.5</ele><time>2026-04-17T10:26:47.943Z</time></trkpt><trkpt lat="44.63403" lon="9.329615"><ele>469.0</ele><time>2026-04-17T10:26:48.943Z</time></trkpt><trkpt lat="44.6343017" lon="9.3294417"><ele>473.0</ele><time>2026-04-17T10:26:49.943Z</time></trkpt><trkpt lat="44.6345667" lon="9.3292633"><ele>477.0</ele><time>2026-04-17T10:26:50.943Z</time></trkpt><trkpt lat="44.6348233" lon="9.3290733"><ele>477.0</ele><time>2026-04-17T10:26:51.943Z</time></trkpt><trkpt lat="44.6350667" lon="9.3289033"><ele>477.0</ele><time>2026-04-17T10:26:52.943Z</time></trkpt><trkpt lat="44.6352983" lon="9.3287433"><ele>472.0</ele><time>2026-04-17T10:26:53.943Z</time></trkpt><trkpt lat="44.6355333" lon="9.3285967"><ele>467.0</ele><time>2026-04-17T10:26:54.943Z</time></trkpt><trkpt lat="44.6357767" lon="9.3285"><ele>467.0</ele><time>2026-04-17T10:26:55.943Z</time></trkpt><trkpt lat="44.636015" lon="9.3284717"><ele>467.0</ele><time>2026-04-17T10:26:56.943Z</time></trkpt><trkpt lat="44.6362767" lon="9.3284783"><ele>465.0</ele><time>2026-04-17T10:26:57.943Z</time></trkpt><trkpt lat="44.6365367" lon="9.32854"><ele>463.0</ele><time>2026-04-17T10:26:58.943Z</time></trkpt><trkpt lat="44.6367917" lon="9.3286667"><ele>461.0</ele><time>2026-04-17T10:26:59.943Z</time></trkpt><trkpt lat="44.6370433" lon="9.3288333"><ele>459.0</ele><time>2026-04-17T10:27:00.943Z</time></trkpt><trkpt lat="44.6372833" lon="9.3290017"><ele>463.5</ele><time>2026-04-17T10:27:01.943Z</time></trkpt><trkpt lat="44.637535" lon="9.3291933"><ele>468.0</ele><time>2026-04-17T10:27:02.943Z</time></trkpt><trkpt lat="44.6377683" lon="9.3293617"><ele>470.5</ele><time>2026-04-17T10:27:03.943Z</time></trkpt><trkpt lat="44.6380183" lon="9.3295483"><ele>473.0</ele><time>2026-04-17T10:27:04.943Z</time></trkpt><trkpt lat="44.6382567" lon="9.32973"><ele>473.0</ele><time>2026-04-17T10:27:05.943Z</time></trkpt><trkpt lat="44.6385117" lon="9.32988"><ele>473.0</ele><time>2026-04-17T10:27:06.943Z</time></trkpt><trkpt lat="44.638765" lon="9.3299783"><ele>467.0</ele><time>2026-04-17T10:27:07.943Z</time></trkpt><trkpt lat="44.6390233" lon="9.3300183"><ele>461.0</ele><time>2026-04-17T10:27:08.943Z</time></trkpt><trkpt lat="44.6393" lon="9.3300083"><ele>460.0</ele><time>2026-04-17T10:27:09.943Z</time></trkpt><trkpt lat="44.6395883" lon="9.3299633"><ele>459.0</ele><time>2026-04-17T10:27:10.943Z</time></trkpt><trkpt lat="44.639875" lon="9.3298883"><ele>459.0</ele><time>2026-04-17T10:27:11.943Z</time></trkpt><trkpt lat="44.6401633" lon="9.329805"><ele>459.0</ele><time>2026-04-17T10:27:12.943Z</time></trkpt><trkpt lat="44.6404483" lon="9.3297217"><ele>463.5</ele><time>2026-04-17T10:27:13.943Z</time></trkpt><trkpt lat="44.6407383" lon="9.3296417"><ele>468.0</ele><time>2026-04-17T10:27:14.943Z</time></trkpt><trkpt lat="44.64104" lon="9.329555"><ele>466.0</ele><time>2026-04-17T10:27:15.943Z</time></trkpt><trkpt lat="44.6413433" lon="9.3294717"><ele>464.0</ele><time>2026-04-17T10:27:16.943Z</time></trkpt><trkpt lat="44.6416467" lon="9.3293883"><ele>464.0</ele><time>2026-04-17T10:27:17.943Z</time></trkpt><trkpt lat="44.641945" lon="9.3293067"><ele>464.0</ele><time>2026-04-17T10:27:18.944Z</time></trkpt><trkpt lat="44.6422417" lon="9.329225"><ele>462.5</ele><time>2026-04-17T10:27:19.943Z</time></trkpt><trkpt lat="44.6425367" lon="9.32915"><ele>461.0</ele><time>2026-04-17T10:27:20.943Z</time></trkpt><trkpt lat="44.64283" lon="9.3290733"><ele>460.0</ele><time>2026-04-17T10:27:21.944Z</time></trkpt><trkpt lat="44.6431217" lon="9.3290017"><ele>459.0</ele><time>2026-04-17T10:27:22.943Z</time></trkpt><trkpt lat="44.6434117" lon="9.32893"><ele>464.0</ele><time>2026-04-17T10:27:23.943Z</time></trkpt><trkpt lat="44.6437017" lon="9.32886"><ele>469.0</ele><time>2026-04-17T10:27:24.943Z</time></trkpt><trkpt lat="44.643985" lon="9.3287883"><ele>469.0</ele><time>2026-04-17T10:27:25.943Z</time></trkpt><trkpt lat="44.644265" lon="9.328715"><ele>469.0</ele><time>2026-04-17T10:27:26.943Z</time></trkpt><trkpt lat="44.6445433" lon="9.32864"><ele>468.0</ele><time>2026-04-17T10:27:27.943Z</time></trkpt><trkpt lat="44.6448183" lon="9.32856"><ele>467.0</ele><time>2026-04-17T10:27:28.943Z</time></trkpt><trkpt lat="44.6450917" lon="9.3284617"><ele>460.0</ele><time>2026-04-17T10:27:29.943Z</time></trkpt><trkpt lat="44.6453617" lon="9.32834"><ele>453.0</ele><time>2026-04-17T10:27:30.943Z</time></trkpt><trkpt lat="44.64562" lon="9.32817"><ele>461.0</ele><time>2026-04-17T10:27:31.943Z</time></trkpt><trkpt lat="44.645875" lon="9.3279967"><ele>469.0</ele><time>2026-04-17T10:27:32.943Z</time></trkpt><trkpt lat="44.6461267" lon="9.32781"><ele>460.5</ele><time>2026-04-17T10:27:33.943Z</time></trkpt><trkpt lat="44.646375" lon="9.32763"><ele>452.0</ele><time>2026-04-17T10:27:34.943Z</time></trkpt><trkpt lat="44.6466067" lon="9.3274433"><ele>452.0</ele><time>2026-04-17T10:27:35.943Z</time></trkpt><trkpt lat="44.6468233" lon="9.3272417"><ele>452.0</ele><time>2026-04-17T10:27:36.943Z</time></trkpt><trkpt lat="44.6470267" lon="9.327015"><ele>450.5</ele><time>2026-04-17T10:27:37.944Z</time></trkpt><trkpt lat="44.64722" lon="9.32677"><ele>449.0</ele><time>2026-04-17T10:27:38.943Z</time></trkpt><trkpt lat="44.6473883" lon="9.3264933"><ele>449.0</ele><time>2026-04-17T10:27:39.943Z</time></trkpt><trkpt lat="44.6475333" lon="9.3261883"><ele>449.0</ele><time>2026-04-17T10:27:40.943Z</time></trkpt><trkpt lat="44.647665" lon="9.325865"><ele>450.0</ele><time>2026-04-17T10:27:41.943Z</time></trkpt><trkpt lat="44.6477767" lon="9.325535"><ele>451.0</ele><time>2026-04-17T10:27:42.943Z</time></trkpt><trkpt lat="44.6478767" lon="9.3252033"><ele>452.5</ele><time>2026-04-17T10:27:43.944Z</time></trkpt><trkpt lat="44.6479717" lon="9.3248667"><ele>454.0</ele><time>2026-04-17T10:27:44.943Z</time></trkpt><trkpt lat="44.6480633" lon="9.3245333"><ele>454.0</ele><time>2026-04-17T10:27:45.943Z</time></trkpt><trkpt lat="44.648155" lon="9.3241933"><ele>454.0</ele><time>2026-04-17T10:27:46.943Z</time></trkpt><trkpt lat="44.6482483" lon="9.3238567"><ele>449.5</ele><time>2026-04-17T10:27:47.943Z</time></trkpt><trkpt lat="44.64834" lon="9.323515"><ele>445.0</ele><time>2026-04-17T10:27:48.943Z</time></trkpt><trkpt lat="44.6484367" lon="9.32317"><ele>444.5</ele><time>2026-04-17T10:27:49.943Z</time></trkpt><trkpt lat="44.6485317" lon="9.32283"><ele>444.0</ele><time>2026-04-17T10:27:50.944Z</time></trkpt><trkpt lat="44.64863" lon="9.3224933"><ele>453.5</ele><time>2026-04-17T10:27:51.943Z</time></trkpt><trkpt lat="44.6487417" lon="9.32217"><ele>463.0</ele><time>2026-04-17T10:27:52.944Z</time></trkpt><trkpt lat="44.6488667" lon="9.3218767"><ele>463.0</ele><time>2026-04-17T10:27:53.943Z</time></trkpt><trkpt lat="44.648995" lon="9.3216083"><ele>463.0</ele><time>2026-04-17T10:27:54.943Z</time></trkpt><trkpt lat="44.649115" lon="9.3213633"><ele>463.0</ele><time>2026-04-17T10:27:55.943Z</time></trkpt><trkpt lat="44.6492283" lon="9.321145"><ele>462.33333333333337</ele><time>2026-04-17T10:27:56.943Z</time></trkpt><trkpt lat="44.64934" lon="9.3209517"><ele>461.66666666666663</ele><time>2026-04-17T10:27:57.943Z</time></trkpt><trkpt lat="44.6494683" lon="9.3208017"><ele>461.0</ele><time>2026-04-17T10:27:58.943Z</time></trkpt><trkpt lat="44.6496133" lon="9.3206883"><ele>461.0</ele><time>2026-04-17T10:27:59.944Z</time></trkpt><trkpt lat="44.649765" lon="9.3205917"><ele>461.0</ele><time>2026-04-17T10:28:00.943Z</time></trkpt><trkpt lat="44.64991" lon="9.320505"><ele>461.0</ele><time>2026-04-17T10:28:01.943Z</time></trkpt><trkpt lat="44.6500467" lon="9.3204433"><ele>463.0</ele><time>2026-04-17T10:28:02.943Z</time></trkpt><trkpt lat="44.6501667" lon="9.3204367"><ele>465.0</ele><time>2026-04-17T10:28:03.943Z</time></trkpt><trkpt lat="44.6502617" lon="9.3205117"><ele>467.0</ele><time>2026-04-17T10:28:04.943Z</time></trkpt><trkpt lat="44.650325" lon="9.320625"><ele>469.0</ele><time>2026-04-17T10:28:05.943Z</time></trkpt><trkpt lat="44.6503533" lon="9.3207883"><ele>469.0</ele><time>2026-04-17T10:28:06.943Z</time></trkpt><trkpt lat="44.6504" lon="9.3209367"><ele>469.0</ele><time>2026-04-17T10:28:07.943Z</time></trkpt><trkpt lat="44.6504767" lon="9.321075"><ele>469.0</ele><time>2026-04-17T10:28:08.943Z</time></trkpt><trkpt lat="44.6505833" lon="9.3211933"><ele>469.0</ele><time>2026-04-17T10:28:09.943Z</time></trkpt><trkpt lat="44.6507133" lon="9.3212617"><ele>469.0</ele><time>2026-04-17T10:28:10.943Z</time></trkpt><trkpt lat="44.6508333" lon="9.3213133"><ele>469.0</ele><time>2026-04-17T10:28:11.943Z</time></trkpt><trkpt lat="44.6509517" lon="9.32137"><ele>469.0</ele><time>2026-04-17T10:28:12.943Z</time></trkpt><trkpt lat="44.6510467" lon="9.32146"><ele>469.0</ele><time>2026-04-17T10:28:13.943Z</time></trkpt><trkpt lat="44.6511217" lon="9.3215767"><ele>470.79999999999995</ele><time>2026-04-17T10:28:14.943Z</time></trkpt><trkpt lat="44.6511883" lon="9.3216767"><ele>472.59999999999997</ele><time>2026-04-17T10:28:15.943Z</time></trkpt><trkpt lat="44.6512733" lon="9.3217333"><ele>474.4</ele><time>2026-04-17T10:28:16.943Z</time></trkpt><trkpt lat="44.6513567" lon="9.32178"><ele>476.2</ele><time>2026-04-17T10:28:17.943Z</time></trkpt><trkpt lat="44.65144" lon="9.3217767"><ele>478.0</ele><time>2026-04-17T10:28:18.943Z</time></trkpt><trkpt lat="44.651525" lon="9.3217433"><ele>478.0</ele><time>2026-04-17T10:28:19.943Z</time></trkpt><trkpt lat="44.6516333" lon="9.321615"><ele>478.0</ele><time>2026-04-17T10:28:20.943Z</time></trkpt><trkpt lat="44.65169" lon="9.3214467"><ele>478.0</ele><time>2026-04-17T10:28:21.943Z</time></trkpt><trkpt lat="44.651695" lon="9.3212"><ele>478.0</ele><time>2026-04-17T10:28:22.943Z</time></trkpt><trkpt lat="44.65161" lon="9.3210133"><ele>478.0</ele><time>2026-04-17T10:28:23.943Z</time></trkpt><trkpt lat="44.6515367" lon="9.3208733"><ele>478.0</ele><time>2026-04-17T10:28:24.942Z</time></trkpt><trkpt lat="44.6514383" lon="9.3207717"><ele>478.0</ele><time>2026-04-17T10:28:25.942Z</time></trkpt><trkpt lat="44.65135" lon="9.32069"><ele>478.0</ele><time>2026-04-17T10:28:26.942Z</time></trkpt><trkpt lat="44.651285" lon="9.320575"><ele>477.99999999999994</ele><time>2026-04-17T10:28:27.942Z</time></trkpt><trkpt lat="44.651245" lon="9.3204517"><ele>477.99999999999994</ele><time>2026-04-17T10:28:28.943Z</time></trkpt><trkpt lat="44.651235" lon="9.3203317"><ele>478.0</ele><time>2026-04-17T10:28:29.942Z</time></trkpt><trkpt lat="44.6512417" lon="9.32021"><ele>478.0</ele><time>2026-04-17T10:28:30.942Z</time></trkpt><trkpt lat="44.6512633" lon="9.32006"><ele>482.25</ele><time>2026-04-17T10:28:31.943Z</time></trkpt><trkpt lat="44.6512433" lon="9.3199033"><ele>486.5</ele><time>2026-04-17T10:28:32.942Z</time></trkpt><trkpt lat="44.651215" lon="9.319695"><ele>490.75</ele><time>2026-04-17T10:28:33.942Z</time></trkpt><trkpt lat="44.651185" lon="9.3194483"><ele>495.0</ele><time>2026-04-17T10:28:34.942Z</time></trkpt><trkpt lat="44.651165" lon="9.3191533"><ele>500.66666666666663</ele><time>2026-04-17T10:28:35.942Z</time></trkpt><trkpt lat="44.6511533" lon="9.31886"><ele>506.3333333333333</ele><time>2026-04-17T10:28:36.942Z</time></trkpt><trkpt lat="44.651155" lon="9.318585"><ele>512.0</ele><time>2026-04-17T10:28:37.942Z</time></trkpt><trkpt lat="44.6511767" lon="9.3183333"><ele>512.0</ele><time>2026-04-17T10:28:38.942Z</time></trkpt><trkpt lat="44.65124" lon="9.3180933"><ele>512.0</ele><time>2026-04-17T10:28:39.942Z</time></trkpt><trkpt lat="44.65129" lon="9.3178667"><ele>512.0</ele><time>2026-04-17T10:28:40.943Z</time></trkpt><trkpt lat="44.6513233" lon="9.3176683"><ele>508.25</ele><time>2026-04-17T10:28:41.943Z</time></trkpt><trkpt lat="44.6513417" lon="9.3174817"><ele>504.5</ele><time>2026-04-17T10:28:42.942Z</time></trkpt><trkpt lat="44.6513783" lon="9.31732"><ele>500.75</ele><time>2026-04-17T10:28:43.942Z</time></trkpt><trkpt lat="44.65147" lon="9.3171983"><ele>497.0</ele><time>2026-04-17T10:28:44.942Z</time></trkpt><trkpt lat="44.6515883" lon="9.3171167"><ele>494.75</ele><time>2026-04-17T10:28:45.942Z</time></trkpt><trkpt lat="44.6516933" lon="9.317025"><ele>492.5</ele><time>2026-04-17T10:28:46.942Z</time></trkpt><trkpt lat="44.6517683" lon="9.3168883"><ele>490.25</ele><time>2026-04-17T10:28:47.942Z</time></trkpt><trkpt lat="44.6518417" lon="9.3167417"><ele>488.0</ele><time>2026-04-17T10:28:48.942Z</time></trkpt><trkpt lat="44.65194" lon="9.316625"><ele>490.0</ele><time>2026-04-17T10:28:49.942Z</time></trkpt><trkpt lat="44.6520783" lon="9.3165633"><ele>492.0</ele><time>2026-04-17T10:28:50.942Z</time></trkpt><trkpt lat="44.6522167" lon="9.3164833"><ele>494.0</ele><time>2026-04-17T10:28:51.942Z</time></trkpt><trkpt lat="44.6523417" lon="9.31638"><ele>496.0</ele><time>2026-04-17T10:28:52.942Z</time></trkpt><trkpt lat="44.652435" lon="9.31623"><ele>496.0</ele><time>2026-04-17T10:28:53.942Z</time></trkpt><trkpt lat="44.6525133" lon="9.3160783"><ele>496.0</ele><time>2026-04-17T10:28:54.942Z</time></trkpt><trkpt lat="44.6526083" lon="9.3159583"><ele>496.0</ele><time>2026-04-17T10:28:55.942Z</time></trkpt><trkpt lat="44.6527433" lon="9.3159033"><ele>496.0</ele><time>2026-04-17T10:28:56.942Z</time></trkpt><trkpt lat="44.6529067" lon="9.3158867"><ele>501.33333333333337</ele><time>2026-04-17T10:28:57.942Z</time></trkpt><trkpt lat="44.6530767" lon="9.3158617"><ele>506.66666666666663</ele><time>2026-04-17T10:28:58.942Z</time></trkpt><trkpt lat="44.6532283" lon="9.315775"><ele>512.0</ele><time>2026-04-17T10:28:59.942Z</time></trkpt><trkpt lat="44.6533567" lon="9.3156417"><ele>513.0</ele><time>2026-04-17T10:29:00.942Z</time></trkpt><trkpt lat="44.6534433" lon="9.3154617"><ele>514.0</ele><time>2026-04-17T10:29:01.942Z</time></trkpt><trkpt lat="44.6535217" lon="9.3152933"><ele>515.0</ele><time>2026-04-17T10:29:02.942Z</time></trkpt><trkpt lat="44.65362" lon="9.31517"><ele>516.0</ele><time>2026-04-17T10:29:03.943Z</time></trkpt><trkpt lat="44.6537517" lon="9.315095"><ele>516.0</ele><time>2026-04-17T10:29:04.942Z</time></trkpt><trkpt lat="44.6539133" lon="9.3150517"><ele>516.0</ele><time>2026-04-17T10:29:05.942Z</time></trkpt><trkpt lat="44.654075" lon="9.31501"><ele>516.0</ele><time>2026-04-17T10:29:06.943Z</time></trkpt><trkpt lat="44.6542233" lon="9.3149417"><ele>516.0</ele><time>2026-04-17T10:29:07.942Z</time></trkpt><trkpt lat="44.6543383" lon="9.3148517"><ele>516.0</ele><time>2026-04-17T10:29:08.942Z</time></trkpt><trkpt lat="44.654405" lon="9.3147083"><ele>516.0</ele><time>2026-04-17T10:29:09.942Z</time></trkpt><trkpt lat="44.6544383" lon="9.3145383"><ele>516.0</ele><time>2026-04-17T10:29:10.942Z</time></trkpt><trkpt lat="44.6544317" lon="9.3143617"><ele>515.3333333333334</ele><time>2026-04-17T10:29:11.942Z</time></trkpt><trkpt lat="44.6543667" lon="9.3141717"><ele>514.6666666666667</ele><time>2026-04-17T10:29:12.942Z</time></trkpt><trkpt lat="44.6542483" lon="9.3139717"><ele>514.0</ele><time>2026-04-17T10:29:13.942Z</time></trkpt><trkpt lat="44.65412" lon="9.3137933"><ele>515.5</ele><time>2026-04-17T10:29:14.943Z</time></trkpt><trkpt lat="44.6540133" lon="9.3136317"><ele>517.0</ele><time>2026-04-17T10:29:15.942Z</time></trkpt><trkpt lat="44.6539533" lon="9.31347"><ele>518.5</ele><time>2026-04-17T10:29:16.942Z</time></trkpt><trkpt lat="44.653955" lon="9.31332"><ele>520.0</ele><time>2026-04-17T10:29:17.942Z</time></trkpt><trkpt lat="44.6540267" lon="9.3131833"><ele>518.3333333333334</ele><time>2026-04-17T10:29:18.942Z</time></trkpt><trkpt lat="44.654145" lon="9.31303"><ele>516.6666666666666</ele><time>2026-04-17T10:29:19.942Z</time></trkpt><trkpt lat="44.654265" lon="9.31285"><ele>515.0</ele><time>2026-04-17T10:29:20.943Z</time></trkpt><trkpt lat="44.6543617" lon="9.312645"><ele>512.6666666666666</ele><time>2026-04-17T10:29:21.942Z</time></trkpt><trkpt lat="44.6544733" lon="9.3124517"><ele>510.33333333333337</ele><time>2026-04-17T10:29:22.942Z</time></trkpt><trkpt lat="44.654605" lon="9.3123133"><ele>508.0</ele><time>2026-04-17T10:29:23.942Z</time></trkpt><trkpt lat="44.6547233" lon="9.3122333"><ele>508.0</ele><time>2026-04-17T10:29:24.942Z</time></trkpt><trkpt lat="44.6548567" lon="9.3122367"><ele>508.0</ele><time>2026-04-17T10:29:25.942Z</time></trkpt><trkpt lat="44.6550017" lon="9.3123017"><ele>508.0</ele><time>2026-04-17T10:29:26.942Z</time></trkpt><trkpt lat="44.6551567" lon="9.3124"><ele>514.6666666666667</ele><time>2026-04-17T10:29:27.942Z</time></trkpt><trkpt lat="44.6553183" lon="9.3124783"><ele>521.3333333333334</ele><time>2026-04-17T10:29:28.942Z</time></trkpt><trkpt lat="44.655485" lon="9.312515"><ele>528.0</ele><time>2026-04-17T10:29:29.942Z</time></trkpt><trkpt lat="44.65565" lon="9.3125083"><ele>528.0</ele><time>2026-04-17T10:29:30.942Z</time></trkpt><trkpt lat="44.6558067" lon="9.3124517"><ele>528.0</ele><time>2026-04-17T10:29:31.942Z</time></trkpt><trkpt lat="44.6559383" lon="9.31235"><ele>528.0</ele><time>2026-04-17T10:29:32.943Z</time></trkpt><trkpt lat="44.6560617" lon="9.3122567"><ele>528.0</ele><time>2026-04-17T10:29:33.942Z</time></trkpt><trkpt lat="44.6561817" lon="9.3122"><ele>528.0</ele><time>2026-04-17T10:29:34.942Z</time></trkpt><trkpt lat="44.6563017" lon="9.3122017"><ele>528.0</ele><time>2026-04-17T10:29:35.942Z</time></trkpt><trkpt lat="44.6564217" lon="9.3122717"><ele>528.0</ele><time>2026-04-17T10:29:36.942Z</time></trkpt><trkpt lat="44.6565317" lon="9.3124367"><ele>528.0</ele><time>2026-04-17T10:29:37.942Z</time></trkpt><trkpt lat="44.6566483" lon="9.3126033"><ele>528.0</ele><time>2026-04-17T10:29:38.942Z</time></trkpt><trkpt lat="44.6567667" lon="9.3127533"><ele>528.0</ele><time>2026-04-17T10:29:39.942Z</time></trkpt><trkpt lat="44.6568917" lon="9.3128583"><ele>527.0</ele><time>2026-04-17T10:29:40.942Z</time></trkpt><trkpt lat="44.65703" lon="9.3128917"><ele>526.0</ele><time>2026-04-17T10:29:41.942Z</time></trkpt><trkpt lat="44.657185" lon="9.31285"><ele>525.0</ele><time>2026-04-17T10:29:42.942Z</time></trkpt><trkpt lat="44.6573717" lon="9.3127617"><ele>525.0</ele><time>2026-04-17T10:29:43.942Z</time></trkpt><trkpt lat="44.65758" lon="9.3126633"><ele>525.0</ele><time>2026-04-17T10:29:44.942Z</time></trkpt><trkpt lat="44.6578067" lon="9.3125367"><ele>520.5</ele><time>2026-04-17T10:29:45.942Z</time></trkpt><trkpt lat="44.6580533" lon="9.31239"><ele>516.0</ele><time>2026-04-17T10:29:46.942Z</time></trkpt><trkpt lat="44.6583167" lon="9.3122083"><ele>516.0</ele><time>2026-04-17T10:29:47.942Z</time></trkpt><trkpt lat="44.6585867" lon="9.3120283"><ele>516.0</ele><time>2026-04-17T10:29:48.942Z</time></trkpt><trkpt lat="44.65884" lon="9.3118617"><ele>525.0</ele><time>2026-04-17T10:29:49.942Z</time></trkpt><trkpt lat="44.65908" lon="9.3117167"><ele>534.0</ele><time>2026-04-17T10:29:50.942Z</time></trkpt><trkpt lat="44.659305" lon="9.3115783"><ele>534.0</ele><time>2026-04-17T10:29:51.942Z</time></trkpt><trkpt lat="44.659515" lon="9.31142"><ele>534.0</ele><time>2026-04-17T10:29:52.942Z</time></trkpt><trkpt lat="44.6597133" lon="9.3112283"><ele>534.0</ele><time>2026-04-17T10:29:53.942Z</time></trkpt><trkpt lat="44.65989" lon="9.3110317"><ele>534.0</ele><time>2026-04-17T10:29:54.942Z</time></trkpt><trkpt lat="44.6600633" lon="9.3108633"><ele>534.0</ele><time>2026-04-17T10:29:55.942Z</time></trkpt><trkpt lat="44.660225" lon="9.3107367"><ele>534.0</ele><time>2026-04-17T10:29:56.942Z</time></trkpt><trkpt lat="44.66036" lon="9.3106233"><ele>534.0</ele><time>2026-04-17T10:29:57.943Z</time></trkpt><trkpt lat="44.6604733" lon="9.31051"><ele>534.0</ele><time>2026-04-17T10:29:58.942Z</time></trkpt><trkpt lat="44.6605517" lon="9.3103583"><ele>534.0</ele><time>2026-04-17T10:29:59.942Z</time></trkpt><trkpt lat="44.66061" lon="9.3101933"><ele>534.0</ele><time>2026-04-17T10:30:00.942Z</time></trkpt><trkpt lat="44.660685" lon="9.3100483"><ele>534.0</ele><time>2026-04-17T10:30:01.942Z</time></trkpt><trkpt lat="44.66077" lon="9.3099517"><ele>534.0</ele><time>2026-04-17T10:30:02.943Z</time></trkpt><trkpt lat="44.66086" lon="9.3098967"><ele>534.0</ele><time>2026-04-17T10:30:03.942Z</time></trkpt><trkpt lat="44.6609467" lon="9.3100067"><ele>534.0</ele><time>2026-04-17T10:30:04.942Z</time></trkpt><trkpt lat="44.6610217" lon="9.3101717"><ele>534.0</ele><time>2026-04-17T10:30:05.942Z</time></trkpt><trkpt lat="44.6610817" lon="9.3104067"><ele>534.0</ele><time>2026-04-17T10:30:06.942Z</time></trkpt><trkpt lat="44.6611233" lon="9.3106883"><ele>533.5</ele><time>2026-04-17T10:30:07.942Z</time></trkpt><trkpt lat="44.6611567" lon="9.3109983"><ele>533.0</ele><time>2026-04-17T10:30:08.942Z</time></trkpt><trkpt lat="44.661205" lon="9.3113233"><ele>535.0</ele><time>2026-04-17T10:30:09.943Z</time></trkpt><trkpt lat="44.6612817" lon="9.3116383"><ele>537.0</ele><time>2026-04-17T10:30:10.942Z</time></trkpt><trkpt lat="44.6613817" lon="9.311955"><ele>541.5</ele><time>2026-04-17T10:30:11.942Z</time></trkpt><trkpt lat="44.6614817" lon="9.312275"><ele>546.0</ele><time>2026-04-17T10:30:12.942Z</time></trkpt><trkpt lat="44.6615783" lon="9.3125617"><ele>546.0</ele><time>2026-04-17T10:30:13.942Z</time></trkpt><trkpt lat="44.6616667" lon="9.312815"><ele>546.0</ele><time>2026-04-17T10:30:14.942Z</time></trkpt><trkpt lat="44.6617433" lon="9.3130383"><ele>546.0</ele><time>2026-04-17T10:30:15.942Z</time></trkpt><trkpt lat="44.66181" lon="9.3132267"><ele>549.75</ele><time>2026-04-17T10:30:16.943Z</time></trkpt><trkpt lat="44.661885" lon="9.3133767"><ele>553.5</ele><time>2026-04-17T10:30:17.942Z</time></trkpt><trkpt lat="44.6619983" lon="9.313465"><ele>557.25</ele><time>2026-04-17T10:30:18.942Z</time></trkpt><trkpt lat="44.6621083" lon="9.313505"><ele>561.0</ele><time>2026-04-17T10:30:19.942Z</time></trkpt><trkpt lat="44.6622817" lon="9.31339"><ele>561.0</ele><time>2026-04-17T10:30:20.942Z</time></trkpt><trkpt lat="44.6624283" lon="9.3132683"><ele>561.0</ele><time>2026-04-17T10:30:21.942Z</time></trkpt><trkpt lat="44.66253" lon="9.3131033"><ele>561.0</ele><time>2026-04-17T10:30:22.943Z</time></trkpt><trkpt lat="44.6625917" lon="9.31291"><ele>564.0</ele><time>2026-04-17T10:30:23.942Z</time></trkpt><trkpt lat="44.6626633" lon="9.3127267"><ele>567.0</ele><time>2026-04-17T10:30:24.942Z</time></trkpt><trkpt lat="44.6627717" lon="9.3125783"><ele>570.0</ele><time>2026-04-17T10:30:25.942Z</time></trkpt><trkpt lat="44.66291" lon="9.3124233"><ele>570.0</ele><time>2026-04-17T10:30:26.942Z</time></trkpt><trkpt lat="44.6630617" lon="9.3122733"><ele>570.0</ele><time>2026-04-17T10:30:27.942Z</time></trkpt><trkpt lat="44.6632483" lon="9.3121367"><ele>570.0</ele><time>2026-04-17T10:30:28.943Z</time></trkpt><trkpt lat="44.663435" lon="9.31199"><ele>570.0</ele><time>2026-04-17T10:30:29.942Z</time></trkpt><trkpt lat="44.6636117" lon="9.3118367"><ele>570.0</ele><time>2026-04-17T10:30:30.942Z</time></trkpt><trkpt lat="44.6637683" lon="9.3116767"><ele>570.0</ele><time>2026-04-17T10:30:31.942Z</time></trkpt><trkpt lat="44.6638983" lon="9.3115167"><ele>560.3333333333334</ele><time>2026-04-17T10:30:32.942Z</time></trkpt><trkpt lat="44.6640333" lon="9.311395"><ele>550.6666666666667</ele><time>2026-04-17T10:30:33.942Z</time></trkpt><trkpt lat="44.6641917" lon="9.3113017"><ele>541.0</ele><time>2026-04-17T10:30:34.942Z</time></trkpt><trkpt lat="44.6643617" lon="9.3112233"><ele>543.0</ele><time>2026-04-17T10:30:35.942Z</time></trkpt><trkpt lat="44.6645317" lon="9.3111817"><ele>545.0</ele><time>2026-04-17T10:30:36.942Z</time></trkpt><trkpt lat="44.6647" lon="9.3111733"><ele>547.0</ele><time>2026-04-17T10:30:37.942Z</time></trkpt><trkpt lat="44.6648683" lon="9.31119"><ele>547.0</ele><time>2026-04-17T10:30:38.942Z</time></trkpt><trkpt lat="44.66504" lon="9.31123"><ele>547.0</ele><time>2026-04-17T10:30:39.942Z</time></trkpt><trkpt lat="44.6652067" lon="9.3113233"><ele>547.0</ele><time>2026-04-17T10:30:40.942Z</time></trkpt><trkpt lat="44.66535" lon="9.311485"><ele>544.3333333333334</ele><time>2026-04-17T10:30:41.942Z</time></trkpt><trkpt lat="44.6654633" lon="9.3116683"><ele>541.6666666666666</ele><time>2026-04-17T10:30:42.942Z</time></trkpt><trkpt lat="44.6655583" lon="9.31187"><ele>539.0</ele><time>2026-04-17T10:30:43.942Z</time></trkpt><trkpt lat="44.6655967" lon="9.3121083"><ele>545.3333333333333</ele><time>2026-04-17T10:30:44.942Z</time></trkpt><trkpt lat="44.665685" lon="9.3122883"><ele>551.6666666666666</ele><time>2026-04-17T10:30:45.942Z</time></trkpt><trkpt lat="44.6658083" lon="9.3124317"><ele>558.0</ele><time>2026-04-17T10:30:46.943Z</time></trkpt><trkpt lat="44.66595" lon="9.3125517"><ele>558.0</ele><time>2026-04-17T10:30:47.942Z</time></trkpt><trkpt lat="44.6660833" lon="9.3126733"><ele>558.0</ele><time>2026-04-17T10:30:48.942Z</time></trkpt><trkpt lat="44.6661917" lon="9.3128067"><ele>558.0</ele><time>2026-04-17T10:30:49.942Z</time></trkpt><trkpt lat="44.6662583" lon="9.31295"><ele>558.0</ele><time>2026-04-17T10:30:50.942Z</time></trkpt><trkpt lat="44.6663317" lon="9.31306"><ele>561.25</ele><time>2026-04-17T10:30:51.942Z</time></trkpt><trkpt lat="44.666425" lon="9.31313"><ele>564.5</ele><time>2026-04-17T10:30:52.942Z</time></trkpt><trkpt lat="44.66656" lon="9.313155"><ele>567.75</ele><time>2026-04-17T10:30:53.942Z</time></trkpt><trkpt lat="44.666725" lon="9.31313"><ele>571.0</ele><time>2026-04-17T10:30:54.942Z</time></trkpt><trkpt lat="44.6669133" lon="9.3130333"><ele>566.6666666666667</ele><time>2026-04-17T10:30:55.942Z</time></trkpt><trkpt lat="44.66709" lon="9.3129567"><ele>562.3333333333334</ele><time>2026-04-17T10:30:56.942Z</time></trkpt><trkpt lat="44.6672517" lon="9.3128467"><ele>558.0</ele><time>2026-04-17T10:30:57.942Z</time></trkpt><trkpt lat="44.6673833" lon="9.3126817"><ele>558.0</ele><time>2026-04-17T10:30:58.942Z</time></trkpt><trkpt lat="44.6674683" lon="9.3124667"><ele>558.0</ele><time>2026-04-17T10:30:59.942Z</time></trkpt><trkpt lat="44.6675417" lon="9.3122717"><ele>558.0</ele><time>2026-04-17T10:31:00.942Z</time></trkpt><trkpt lat="44.667615" lon="9.3120833"><ele>554.5</ele><time>2026-04-17T10:31:01.942Z</time></trkpt><trkpt lat="44.6676917" lon="9.31192"><ele>551.0</ele><time>2026-04-17T10:31:02.942Z</time></trkpt><trkpt lat="44.66777" lon="9.3118017"><ele>547.5</ele><time>2026-04-17T10:31:03.943Z</time></trkpt><trkpt lat="44.6678667" lon="9.3117617"><ele>544.0</ele><time>2026-04-17T10:31:04.942Z</time></trkpt><trkpt lat="44.667985" lon="9.3118167"><ele>544.0</ele><time>2026-04-17T10:31:05.942Z</time></trkpt><trkpt lat="44.6681217" lon="9.3119467"><ele>544.0</ele><time>2026-04-17T10:31:06.943Z</time></trkpt><trkpt lat="44.6682583" lon="9.3120333"><ele>544.0</ele><time>2026-04-17T10:31:07.942Z</time></trkpt><trkpt lat="44.6684167" lon="9.3120733"><ele>544.0</ele><time>2026-04-17T10:31:08.942Z</time></trkpt><trkpt lat="44.6685867" lon="9.3120933"><ele>544.0</ele><time>2026-04-17T10:31:09.942Z</time></trkpt><trkpt lat="44.66874" lon="9.3120733"><ele>544.0</ele><time>2026-04-17T10:31:10.942Z</time></trkpt><trkpt lat="44.6688633" lon="9.3119467"><ele>542.3333333333334</ele><time>2026-04-17T10:31:11.942Z</time></trkpt><trkpt lat="44.6689483" lon="9.3117767"><ele>540.6666666666666</ele><time>2026-04-17T10:31:12.942Z</time></trkpt><trkpt lat="44.6690017" lon="9.3115317"><ele>539.0</ele><time>2026-04-17T10:31:13.943Z</time></trkpt><trkpt lat="44.6690483" lon="9.3113083"><ele>539.0</ele><time>2026-04-17T10:31:14.942Z</time></trkpt><trkpt lat="44.6691067" lon="9.3111133"><ele>539.0</ele><time>2026-04-17T10:31:15.942Z</time></trkpt><trkpt lat="44.6691917" lon="9.3109533"><ele>539.0</ele><time>2026-04-17T10:31:16.942Z</time></trkpt><trkpt lat="44.6693083" lon="9.310855"><ele>539.0</ele><time>2026-04-17T10:31:17.942Z</time></trkpt><trkpt lat="44.6694617" lon="9.3108383"><ele>542.75</ele><time>2026-04-17T10:31:18.942Z</time></trkpt><trkpt lat="44.6695967" lon="9.3107967"><ele>546.5</ele><time>2026-04-17T10:31:19.942Z</time></trkpt><trkpt lat="44.6697067" lon="9.3107033"><ele>550.25</ele><time>2026-04-17T10:31:20.942Z</time></trkpt><trkpt lat="44.6697367" lon="9.310525"><ele>554.0</ele><time>2026-04-17T10:31:21.942Z</time></trkpt><trkpt lat="44.6697267" lon="9.3103233"><ele>554.0</ele><time>2026-04-17T10:31:22.942Z</time></trkpt><trkpt lat="44.6697017" lon="9.3101133"><ele>554.0</ele><time>2026-04-17T10:31:23.943Z</time></trkpt><trkpt lat="44.6696967" lon="9.3098983"><ele>554.0</ele><time>2026-04-17T10:31:24.942Z</time></trkpt><trkpt lat="44.66974" lon="9.3096883"><ele>544.3333333333333</ele><time>2026-04-17T10:31:25.942Z</time></trkpt><trkpt lat="44.6698217" lon="9.3095017"><ele>534.6666666666666</ele><time>2026-04-17T10:31:26.942Z</time></trkpt><trkpt lat="44.66991" lon="9.309365"><ele>525.0</ele><time>2026-04-17T10:31:27.942Z</time></trkpt><trkpt lat="44.6700717" lon="9.3094267"><ele>525.0</ele><time>2026-04-17T10:31:28.942Z</time></trkpt><trkpt lat="44.6702233" lon="9.309515"><ele>525.0</ele><time>2026-04-17T10:31:29.942Z</time></trkpt><trkpt lat="44.6703833" lon="9.3095767"><ele>525.0</ele><time>2026-04-17T10:31:30.943Z</time></trkpt><trkpt lat="44.670565" lon="9.30961"><ele>527.3333333333334</ele><time>2026-04-17T10:31:31.942Z</time></trkpt><trkpt lat="44.670735" lon="9.3095983"><ele>529.6666666666667</ele><time>2026-04-17T10:31:32.942Z</time></trkpt><trkpt lat="44.6708967" lon="9.3095467"><ele>532.0</ele><time>2026-04-17T10:31:33.942Z</time></trkpt><trkpt lat="44.67103" lon="9.3094783"><ele>531.25</ele><time>2026-04-17T10:31:34.942Z</time></trkpt><trkpt lat="44.671155" lon="9.309455"><ele>530.5</ele><time>2026-04-17T10:31:35.942Z</time></trkpt><trkpt lat="44.6712817" lon="9.3094867"><ele>529.75</ele><time>2026-04-17T10:31:36.942Z</time></trkpt><trkpt lat="44.6713967" lon="9.30959"><ele>529.0</ele><time>2026-04-17T10:31:37.942Z</time></trkpt><trkpt lat="44.6715417" lon="9.309665"><ele>529.0</ele><time>2026-04-17T10:31:38.942Z</time></trkpt><trkpt lat="44.6716933" lon="9.30968"><ele>529.0</ele><time>2026-04-17T10:31:39.942Z</time></trkpt><trkpt lat="44.6718733" lon="9.3096917"><ele>529.0</ele><time>2026-04-17T10:31:40.943Z</time></trkpt><trkpt lat="44.67204" lon="9.30971"><ele>533.0</ele><time>2026-04-17T10:31:41.942Z</time></trkpt><trkpt lat="44.6721983" lon="9.3096933"><ele>537.0</ele><time>2026-04-17T10:31:42.942Z</time></trkpt><trkpt lat="44.6723533" lon="9.3096083"><ele>541.0</ele><time>2026-04-17T10:31:43.942Z</time></trkpt><trkpt lat="44.67251" lon="9.3094933"><ele>541.0</ele><time>2026-04-17T10:31:44.942Z</time></trkpt><trkpt lat="44.6726683" lon="9.3093717"><ele>541.0</ele><time>2026-04-17T10:31:45.942Z</time></trkpt><trkpt lat="44.6728133" lon="9.309205"><ele>541.0</ele><time>2026-04-17T10:31:46.942Z</time></trkpt><trkpt lat="44.67293" lon="9.3090233"><ele>538.5</ele><time>2026-04-17T10:31:47.942Z</time></trkpt><trkpt lat="44.6730267" lon="9.3088433"><ele>536.0</ele><time>2026-04-17T10:31:48.942Z</time></trkpt><trkpt lat="44.673115" lon="9.3086833"><ele>533.5</ele><time>2026-04-17T10:31:49.942Z</time></trkpt><trkpt lat="44.6732117" lon="9.30857"><ele>531.0</ele><time>2026-04-17T10:31:50.942Z</time></trkpt><trkpt lat="44.6733233" lon="9.30852"><ele>531.0</ele><time>2026-04-17T10:31:51.942Z</time></trkpt><trkpt lat="44.6734533" lon="9.3085467"><ele>531.0</ele><time>2026-04-17T10:31:52.942Z</time></trkpt><trkpt lat="44.6735917" lon="9.3086467"><ele>531.0</ele><time>2026-04-17T10:31:53.942Z</time></trkpt><trkpt lat="44.6737367" lon="9.3087833"><ele>539.6666666666666</ele><time>2026-04-17T10:31:54.942Z</time></trkpt><trkpt lat="44.673875" lon="9.3089183"><ele>548.3333333333333</ele><time>2026-04-17T10:31:55.942Z</time></trkpt><trkpt lat="44.6740233" lon="9.3090183"><ele>557.0</ele><time>2026-04-17T10:31:56.942Z</time></trkpt><trkpt lat="44.6741767" lon="9.3090633"><ele>557.0</ele><time>2026-04-17T10:31:57.942Z</time></trkpt><trkpt lat="44.6743333" lon="9.3090583"><ele>557.0</ele><time>2026-04-17T10:31:58.942Z</time></trkpt><trkpt lat="44.6744733" lon="9.30908"><ele>557.0</ele><time>2026-04-17T10:31:59.942Z</time></trkpt><trkpt lat="44.6746083" lon="9.3091233"><ele>557.0</ele><time>2026-04-17T10:32:00.942Z</time></trkpt><trkpt lat="44.674715" lon="9.3092183"><ele>555.0</ele><time>2026-04-17T10:32:01.943Z</time></trkpt><trkpt lat="44.6748167" lon="9.3093067"><ele>553.0</ele><time>2026-04-17T10:32:02.943Z</time></trkpt><trkpt lat="44.6749317" lon="9.30936"><ele>551.0</ele><time>2026-04-17T10:32:03.942Z</time></trkpt><trkpt lat="44.6750433" lon="9.3093767"><ele>549.0</ele><time>2026-04-17T10:32:04.942Z</time></trkpt><trkpt lat="44.6751733" lon="9.3093333"><ele>553.3333333333334</ele><time>2026-04-17T10:32:05.942Z</time></trkpt><trkpt lat="44.6753133" lon="9.309185"><ele>557.6666666666667</ele><time>2026-04-17T10:32:06.942Z</time></trkpt><trkpt lat="44.67542" lon="9.309"><ele>562.0</ele><time>2026-04-17T10:32:07.942Z</time></trkpt><trkpt lat="44.6754917" lon="9.3088467"><ele>562.0</ele><time>2026-04-17T10:32:08.942Z</time></trkpt><trkpt lat="44.6755133" lon="9.3086833"><ele>562.0</ele><time>2026-04-17T10:32:09.942Z</time></trkpt><trkpt lat="44.6754833" lon="9.308505"><ele>562.0</ele><time>2026-04-17T10:32:10.942Z</time></trkpt><trkpt lat="44.6754017" lon="9.3083017"><ele>562.0</ele><time>2026-04-17T10:32:11.942Z</time></trkpt><trkpt lat="44.67533" lon="9.3080817"><ele>550.3333333333334</ele><time>2026-04-17T10:32:12.942Z</time></trkpt><trkpt lat="44.6752667" lon="9.3078583"><ele>538.6666666666666</ele><time>2026-04-17T10:32:13.942Z</time></trkpt><trkpt lat="44.6752233" lon="9.3076417"><ele>527.0</ele><time>2026-04-17T10:32:14.942Z</time></trkpt><trkpt lat="44.67521" lon="9.30745"><ele>527.0</ele><time>2026-04-17T10:32:15.942Z</time></trkpt><trkpt lat="44.6752417" lon="9.3072717"><ele>527.0</ele><time>2026-04-17T10:32:16.943Z</time></trkpt><trkpt lat="44.675325" lon="9.3071267"><ele>527.0</ele><time>2026-04-17T10:32:17.942Z</time></trkpt><trkpt lat="44.67543" lon="9.3070283"><ele>527.0</ele><time>2026-04-17T10:32:18.942Z</time></trkpt><trkpt lat="44.6755167" lon="9.3069233"><ele>529.75</ele><time>2026-04-17T10:32:19.942Z</time></trkpt><trkpt lat="44.67559" lon="9.30681"><ele>532.5</ele><time>2026-04-17T10:32:20.942Z</time></trkpt><trkpt lat="44.6756117" lon="9.3066683"><ele>535.25</ele><time>2026-04-17T10:32:21.942Z</time></trkpt><trkpt lat="44.6756033" lon="9.306495"><ele>538.0</ele><time>2026-04-17T10:32:22.943Z</time></trkpt><trkpt lat="44.6756167" lon="9.3062967"><ele>538.0</ele><time>2026-04-17T10:32:23.942Z</time></trkpt><trkpt lat="44.67566" lon="9.30608"><ele>538.0</ele><time>2026-04-17T10:32:24.942Z</time></trkpt><trkpt lat="44.6757517" lon="9.3058517"><ele>538.0</ele><time>2026-04-17T10:32:25.942Z</time></trkpt><trkpt lat="44.6758617" lon="9.30565"><ele>535.3333333333334</ele><time>2026-04-17T10:32:26.942Z</time></trkpt><trkpt lat="44.6759883" lon="9.30549"><ele>532.6666666666666</ele><time>2026-04-17T10:32:27.942Z</time></trkpt><trkpt lat="44.676155" lon="9.3053983"><ele>530.0</ele><time>2026-04-17T10:32:28.942Z</time></trkpt><trkpt lat="44.6763417" lon="9.3053417"><ele>530.0</ele><time>2026-04-17T10:32:29.942Z</time></trkpt><trkpt lat="44.6765717" lon="9.3053033"><ele>530.0</ele><time>2026-04-17T10:32:30.942Z</time></trkpt><trkpt lat="44.676805" lon="9.3052617"><ele>530.3333333333333</ele><time>2026-04-17T10:32:31.942Z</time></trkpt><trkpt lat="44.6770267" lon="9.30522"><ele>530.6666666666666</ele><time>2026-04-17T10:32:32.942Z</time></trkpt><trkpt lat="44.6772267" lon="9.305185"><ele>531.0</ele><time>2026-04-17T10:32:33.942Z</time></trkpt><trkpt lat="44.6774017" lon="9.305155"><ele>531.0</ele><time>2026-04-17T10:32:34.942Z</time></trkpt><trkpt lat="44.6775583" lon="9.305095"><ele>531.0</ele><time>2026-04-17T10:32:35.942Z</time></trkpt><trkpt lat="44.6776733" lon="9.304995"><ele>531.0</ele><time>2026-04-17T10:32:36.942Z</time></trkpt><trkpt lat="44.6778" lon="9.3048867"><ele>531.0</ele><time>2026-04-17T10:32:37.942Z</time></trkpt><trkpt lat="44.677935" lon="9.304815"><ele>528.25</ele><time>2026-04-17T10:32:38.943Z</time></trkpt><trkpt lat="44.6780667" lon="9.304755"><ele>525.5</ele><time>2026-04-17T10:32:39.942Z</time></trkpt><trkpt lat="44.678185" lon="9.3046683"><ele>522.75</ele><time>2026-04-17T10:32:40.942Z</time></trkpt><trkpt lat="44.6782817" lon="9.3045183"><ele>520.0</ele><time>2026-04-17T10:32:41.942Z</time></trkpt><trkpt lat="44.6783817" lon="9.304335"><ele>520.0</ele><time>2026-04-17T10:32:42.942Z</time></trkpt><trkpt lat="44.6784917" lon="9.3041567"><ele>520.0</ele><time>2026-04-17T10:32:43.942Z</time></trkpt><trkpt lat="44.6786367" lon="9.3040183"><ele>520.0</ele><time>2026-04-17T10:32:44.942Z</time></trkpt><trkpt lat="44.67881" lon="9.303925"><ele>516.0</ele><time>2026-04-17T10:32:45.942Z</time></trkpt><trkpt lat="44.6789983" lon="9.303875"><ele>512.0</ele><time>2026-04-17T10:32:46.942Z</time></trkpt><trkpt lat="44.6792" lon="9.3038467"><ele>508.0</ele><time>2026-04-17T10:32:47.942Z</time></trkpt><trkpt lat="44.6794117" lon="9.3038083"><ele>511.33333333333337</ele><time>2026-04-17T10:32:48.942Z</time></trkpt><trkpt lat="44.6795883" lon="9.303705"><ele>514.6666666666666</ele><time>2026-04-17T10:32:49.942Z</time></trkpt><trkpt lat="44.6797417" lon="9.3035867"><ele>518.0</ele><time>2026-04-17T10:32:50.942Z</time></trkpt><trkpt lat="44.6798767" lon="9.3034817"><ele>518.0</ele><time>2026-04-17T10:32:51.942Z</time></trkpt><trkpt lat="44.6799917" lon="9.30342"><ele>518.0</ele><time>2026-04-17T10:32:52.942Z</time></trkpt><trkpt lat="44.6801117" lon="9.3034117"><ele>518.0</ele><time>2026-04-17T10:32:53.942Z</time></trkpt><trkpt lat="44.6802367" lon="9.3034617"><ele>518.0</ele><time>2026-04-17T10:32:54.942Z</time></trkpt><trkpt lat="44.6803683" lon="9.30356"><ele>519.6666666666666</ele><time>2026-04-17T10:32:55.943Z</time></trkpt><trkpt lat="44.6805117" lon="9.3037317"><ele>521.3333333333334</ele><time>2026-04-17T10:32:56.942Z</time></trkpt><trkpt lat="44.68066" lon="9.3039083"><ele>523.0</ele><time>2026-04-17T10:32:57.942Z</time></trkpt><trkpt lat="44.6807983" lon="9.30406"><ele>523.0</ele><time>2026-04-17T10:32:58.942Z</time></trkpt><trkpt lat="44.6809467" lon="9.30417"><ele>523.0</ele><time>2026-04-17T10:32:59.942Z</time></trkpt><trkpt lat="44.681105" lon="9.304235"><ele>523.0</ele><time>2026-04-17T10:33:00.942Z</time></trkpt><trkpt lat="44.6812933" lon="9.3042383"><ele>514.5</ele><time>2026-04-17T10:33:01.942Z</time></trkpt><trkpt lat="44.6815183" lon="9.3042017"><ele>506.0</ele><time>2026-04-17T10:33:02.942Z</time></trkpt><trkpt lat="44.6817467" lon="9.3041433"><ele>504.3333333333333</ele><time>2026-04-17T10:33:03.942Z</time></trkpt><trkpt lat="44.681965" lon="9.3040783"><ele>502.66666666666663</ele><time>2026-04-17T10:33:04.942Z</time></trkpt><trkpt lat="44.68216" lon="9.30402"><ele>501.0</ele><time>2026-04-17T10:33:05.942Z</time></trkpt><trkpt lat="44.6823333" lon="9.30398"><ele>501.0</ele><time>2026-04-17T10:33:06.942Z</time></trkpt><trkpt lat="44.682485" lon="9.303965"><ele>501.0</ele><time>2026-04-17T10:33:07.942Z</time></trkpt><trkpt lat="44.6826367" lon="9.3039867"><ele>501.0</ele><time>2026-04-17T10:33:08.942Z</time></trkpt><trkpt lat="44.6827517" lon="9.304115"><ele>497.66666666666663</ele><time>2026-04-17T10:33:09.942Z</time></trkpt><trkpt lat="44.6828583" lon="9.3043217"><ele>494.3333333333333</ele><time>2026-04-17T10:33:10.942Z</time></trkpt><trkpt lat="44.6829433" lon="9.304585"><ele>491.0</ele><time>2026-04-17T10:33:11.942Z</time></trkpt><trkpt lat="44.68303" lon="9.30483"><ele>490.3333333333333</ele><time>2026-04-17T10:33:12.942Z</time></trkpt><trkpt lat="44.6830967" lon="9.30505"><ele>489.66666666666663</ele><time>2026-04-17T10:33:13.942Z</time></trkpt><trkpt lat="44.6831167" lon="9.3052667"><ele>489.0</ele><time>2026-04-17T10:33:14.943Z</time></trkpt><trkpt lat="44.6831167" lon="9.305465"><ele>491.25</ele><time>2026-04-17T10:33:15.942Z</time></trkpt><trkpt lat="44.68315" lon="9.30564"><ele>493.5</ele><time>2026-04-17T10:33:16.942Z</time></trkpt><trkpt lat="44.6832267" lon="9.3057867"><ele>495.75</ele><time>2026-04-17T10:33:17.942Z</time></trkpt><trkpt lat="44.6833267" lon="9.3058917"><ele>498.0</ele><time>2026-04-17T10:33:18.942Z</time></trkpt><trkpt lat="44.6834333" lon="9.3059567"><ele>498.0</ele><time>2026-04-17T10:33:19.942Z</time></trkpt><trkpt lat="44.6835317" lon="9.3060417"><ele>498.0</ele><time>2026-04-17T10:33:20.942Z</time></trkpt><trkpt lat="44.6836317" lon="9.3061433"><ele>498.0</ele><time>2026-04-17T10:33:21.942Z</time></trkpt><trkpt lat="44.6837133" lon="9.3062917"><ele>498.0</ele><time>2026-04-17T10:33:22.942Z</time></trkpt><trkpt lat="44.6837783" lon="9.3064767"><ele>494.0</ele><time>2026-04-17T10:33:23.942Z</time></trkpt><trkpt lat="44.6838233" lon="9.3066683"><ele>490.0</ele><time>2026-04-17T10:33:24.942Z</time></trkpt><trkpt lat="44.6838233" lon="9.3068733"><ele>486.0</ele><time>2026-04-17T10:33:25.942Z</time></trkpt><trkpt lat="44.6838083" lon="9.3070933"><ele>482.0</ele><time>2026-04-17T10:33:26.942Z</time></trkpt><trkpt lat="44.6837667" lon="9.3073133"><ele>482.0</ele><time>2026-04-17T10:33:27.942Z</time></trkpt><trkpt lat="44.6836967" lon="9.3075217"><ele>482.0</ele><time>2026-04-17T10:33:28.942Z</time></trkpt><trkpt lat="44.6836117" lon="9.3077017"><ele>482.0</ele><time>2026-04-17T10:33:29.942Z</time></trkpt><trkpt lat="44.6834933" lon="9.307865"><ele>483.40000000000003</ele><time>2026-04-17T10:33:30.942Z</time></trkpt><trkpt lat="44.6833967" lon="9.3080117"><ele>484.80000000000007</ele><time>2026-04-17T10:33:31.942Z</time></trkpt><trkpt lat="44.68335" lon="9.308145"><ele>486.2</ele><time>2026-04-17T10:33:32.942Z</time></trkpt><trkpt lat="44.6833517" lon="9.3082733"><ele>487.6</ele><time>2026-04-17T10:33:33.942Z</time></trkpt><trkpt lat="44.6833983" lon="9.3083817"><ele>489.0</ele><time>2026-04-17T10:33:34.942Z</time></trkpt><trkpt lat="44.6834667" lon="9.30848"><ele>489.0</ele><time>2026-04-17T10:33:35.942Z</time></trkpt><trkpt lat="44.68358" lon="9.3085733"><ele>489.0</ele><time>2026-04-17T10:33:36.942Z</time></trkpt><trkpt lat="44.68369" lon="9.3087"><ele>489.0</ele><time>2026-04-17T10:33:37.942Z</time></trkpt><trkpt lat="44.6837833" lon="9.3088467"><ele>489.0</ele><time>2026-04-17T10:33:38.942Z</time></trkpt><trkpt lat="44.683865" lon="9.308985"><ele>489.5</ele><time>2026-04-17T10:33:39.942Z</time></trkpt><trkpt lat="44.683975" lon="9.3090967"><ele>490.0</ele><time>2026-04-17T10:33:40.942Z</time></trkpt><trkpt lat="44.6841033" lon="9.309165"><ele>490.5</ele><time>2026-04-17T10:33:41.942Z</time></trkpt><trkpt lat="44.6842517" lon="9.309205"><ele>491.0</ele><time>2026-04-17T10:33:42.942Z</time></trkpt><trkpt lat="44.6844167" lon="9.309205"><ele>490.66666666666663</ele><time>2026-04-17T10:33:43.942Z</time></trkpt><trkpt lat="44.68458" lon="9.3091767"><ele>490.33333333333337</ele><time>2026-04-17T10:33:44.942Z</time></trkpt><trkpt lat="44.6847467" lon="9.3090833"><ele>490.0</ele><time>2026-04-17T10:33:45.942Z</time></trkpt><trkpt lat="44.68492" lon="9.3090017"><ele>490.0</ele><time>2026-04-17T10:33:46.942Z</time></trkpt><trkpt lat="44.6851" lon="9.30894"><ele>490.0</ele><time>2026-04-17T10:33:47.942Z</time></trkpt><trkpt lat="44.6852917" lon="9.308915"><ele>490.0</ele><time>2026-04-17T10:33:48.942Z</time></trkpt><trkpt lat="44.685495" lon="9.3089267"><ele>490.33333333333337</ele><time>2026-04-17T10:33:49.942Z</time></trkpt><trkpt lat="44.6856967" lon="9.3089317"><ele>490.66666666666663</ele><time>2026-04-17T10:33:50.942Z</time></trkpt><trkpt lat="44.6858767" lon="9.3089117"><ele>491.0</ele><time>2026-04-17T10:33:51.942Z</time></trkpt><trkpt lat="44.6860417" lon="9.3089017"><ele>483.3333333333333</ele><time>2026-04-17T10:33:52.942Z</time></trkpt><trkpt lat="44.6862017" lon="9.3089117"><ele>475.66666666666663</ele><time>2026-04-17T10:33:53.942Z</time></trkpt><trkpt lat="44.686365" lon="9.3089567"><ele>468.0</ele><time>2026-04-17T10:33:54.943Z</time></trkpt><trkpt lat="44.686525" lon="9.3090033"><ele>468.0</ele><time>2026-04-17T10:33:55.943Z</time></trkpt><trkpt lat="44.6866733" lon="9.30906"><ele>468.0</ele><time>2026-04-17T10:33:56.942Z</time></trkpt><trkpt lat="44.686805" lon="9.30914"><ele>468.0</ele><time>2026-04-17T10:33:57.942Z</time></trkpt><trkpt lat="44.6869067" lon="9.3092567"><ele>468.0</ele><time>2026-04-17T10:33:58.942Z</time></trkpt><trkpt lat="44.6869833" lon="9.3094333"><ele>468.66666666666663</ele><time>2026-04-17T10:33:59.942Z</time></trkpt><trkpt lat="44.6870083" lon="9.3096417"><ele>469.3333333333333</ele><time>2026-04-17T10:34:00.942Z</time></trkpt><trkpt lat="44.6869867" lon="9.3098517"><ele>470.0</ele><time>2026-04-17T10:34:01.942Z</time></trkpt><trkpt lat="44.68689" lon="9.310045"><ele>470.0</ele><time>2026-04-17T10:34:02.942Z</time></trkpt><trkpt lat="44.6867433" lon="9.3101717"><ele>470.0</ele><time>2026-04-17T10:34:03.942Z</time></trkpt><trkpt lat="44.6865667" lon="9.31025"><ele>470.0</ele><time>2026-04-17T10:34:04.942Z</time></trkpt><trkpt lat="44.6864333" lon="9.3103533"><ele>470.0</ele><time>2026-04-17T10:34:05.943Z</time></trkpt><trkpt lat="44.6863" lon="9.3104983"><ele>470.0</ele><time>2026-04-17T10:34:06.942Z</time></trkpt><trkpt lat="44.68622" lon="9.3107033"><ele>470.0</ele><time>2026-04-17T10:34:07.942Z</time></trkpt><trkpt lat="44.6861717" lon="9.310925"><ele>465.3333333333333</ele><time>2026-04-17T10:34:08.942Z</time></trkpt><trkpt lat="44.686165" lon="9.311175"><ele>460.66666666666663</ele><time>2026-04-17T10:34:09.942Z</time></trkpt><trkpt lat="44.6862333" lon="9.3113867"><ele>456.0</ele><time>2026-04-17T10:34:10.942Z</time></trkpt><trkpt lat="44.6862883" lon="9.3115717"><ele>456.0</ele><time>2026-04-17T10:34:11.943Z</time></trkpt><trkpt lat="44.6864383" lon="9.3117"><ele>456.0</ele><time>2026-04-17T10:34:12.942Z</time></trkpt><trkpt lat="44.6865517" lon="9.3118667"><ele>456.0</ele><time>2026-04-17T10:34:13.942Z</time></trkpt><trkpt lat="44.6866883" lon="9.3120767"><ele>461.0</ele><time>2026-04-17T10:34:14.943Z</time></trkpt><trkpt lat="44.686845" lon="9.31233"><ele>466.0</ele><time>2026-04-17T10:34:15.942Z</time></trkpt><trkpt lat="44.68695" lon="9.3126033"><ele>458.0</ele><time>2026-04-17T10:34:16.942Z</time></trkpt><trkpt lat="44.6870383" lon="9.312875"><ele>450.0</ele><time>2026-04-17T10:34:17.942Z</time></trkpt><trkpt lat="44.6871083" lon="9.31313"><ele>442.0</ele><time>2026-04-17T10:34:18.942Z</time></trkpt><trkpt lat="44.6871983" lon="9.31334"><ele>442.0</ele><time>2026-04-17T10:34:19.942Z</time></trkpt><trkpt lat="44.68729" lon="9.313505"><ele>442.0</ele><time>2026-04-17T10:34:20.942Z</time></trkpt><trkpt lat="44.6874033" lon="9.3136167"><ele>442.0</ele><time>2026-04-17T10:34:21.942Z</time></trkpt><trkpt lat="44.68754" lon="9.313685"><ele>442.0</ele><time>2026-04-17T10:34:22.942Z</time></trkpt><trkpt lat="44.6876617" lon="9.3137883"><ele>445.25</ele><time>2026-04-17T10:34:23.942Z</time></trkpt><trkpt lat="44.6877383" lon="9.3139417"><ele>448.5</ele><time>2026-04-17T10:34:24.942Z</time></trkpt><trkpt lat="44.6877767" lon="9.3141467"><ele>451.75</ele><time>2026-04-17T10:34:25.942Z</time></trkpt><trkpt lat="44.68782" lon="9.3143533"><ele>455.0</ele><time>2026-04-17T10:34:26.942Z</time></trkpt><trkpt lat="44.687745" lon="9.3146017"><ele>451.66666666666663</ele><time>2026-04-17T10:34:27.943Z</time></trkpt><trkpt lat="44.6876283" lon="9.31484"><ele>448.33333333333337</ele><time>2026-04-17T10:34:28.942Z</time></trkpt><trkpt lat="44.6875067" lon="9.3150367"><ele>445.0</ele><time>2026-04-17T10:34:29.942Z</time></trkpt><trkpt lat="44.6873933" lon="9.3152033"><ele>445.0</ele><time>2026-04-17T10:34:30.942Z</time></trkpt><trkpt lat="44.6873417" lon="9.3153817"><ele>445.0</ele><time>2026-04-17T10:34:31.942Z</time></trkpt><trkpt lat="44.68734" lon="9.3155767"><ele>445.0</ele><time>2026-04-17T10:34:32.942Z</time></trkpt><trkpt lat="44.6873267" lon="9.315785"><ele>445.0</ele><time>2026-04-17T10:34:33.942Z</time></trkpt><trkpt lat="44.6872983" lon="9.316015"><ele>440.6666666666667</ele><time>2026-04-17T10:34:34.942Z</time></trkpt><trkpt lat="44.68726" lon="9.316265"><ele>436.33333333333337</ele><time>2026-04-17T10:34:35.942Z</time></trkpt><trkpt lat="44.6872317" lon="9.3165117"><ele>432.0</ele><time>2026-04-17T10:34:36.942Z</time></trkpt><trkpt lat="44.6872067" lon="9.3167483"><ele>429.5</ele><time>2026-04-17T10:34:37.942Z</time></trkpt><trkpt lat="44.687215" lon="9.3169617"><ele>427.0</ele><time>2026-04-17T10:34:38.942Z</time></trkpt><trkpt lat="44.6872417" lon="9.3171583"><ele>424.5</ele><time>2026-04-17T10:34:39.942Z</time></trkpt><trkpt lat="44.687255" lon="9.3173467"><ele>422.0</ele><time>2026-04-17T10:34:40.942Z</time></trkpt><trkpt lat="44.6872267" lon="9.3175233"><ele>418.0</ele><time>2026-04-17T10:34:41.942Z</time></trkpt><trkpt lat="44.6871483" lon="9.317695"><ele>414.0</ele><time>2026-04-17T10:34:42.942Z</time></trkpt><trkpt lat="44.687035" lon="9.3178633"><ele>410.0</ele><time>2026-04-17T10:34:43.942Z</time></trkpt><trkpt lat="44.6869333" lon="9.318055"><ele>422.3333333333333</ele><time>2026-04-17T10:34:44.942Z</time></trkpt><trkpt lat="44.686865" lon="9.3182917"><ele>434.66666666666663</ele><time>2026-04-17T10:34:45.942Z</time></trkpt><trkpt lat="44.68683" lon="9.3185333"><ele>447.0</ele><time>2026-04-17T10:34:46.943Z</time></trkpt><trkpt lat="44.6868583" lon="9.318785"><ele>447.33333333333337</ele><time>2026-04-17T10:34:47.942Z</time></trkpt><trkpt lat="44.6869083" lon="9.319025"><ele>447.6666666666667</ele><time>2026-04-17T10:34:48.942Z</time></trkpt><trkpt lat="44.6869767" lon="9.3192483"><ele>448.0</ele><time>2026-04-17T10:34:49.942Z</time></trkpt><trkpt lat="44.68705" lon="9.3194317"><ele>440.75</ele><time>2026-04-17T10:34:50.942Z</time></trkpt><trkpt lat="44.68714" lon="9.3195667"><ele>433.5</ele><time>2026-04-17T10:34:51.942Z</time></trkpt><trkpt lat="44.68726" lon="9.3196183"><ele>426.25</ele><time>2026-04-17T10:34:52.943Z</time></trkpt><trkpt lat="44.6873833" lon="9.3196283"><ele>419.0</ele><time>2026-04-17T10:34:53.942Z</time></trkpt><trkpt lat="44.6875167" lon="9.3194817"><ele>419.0</ele><time>2026-04-17T10:34:54.942Z</time></trkpt><trkpt lat="44.6876417" lon="9.31939"><ele>419.0</ele><time>2026-04-17T10:34:55.942Z</time></trkpt><trkpt lat="44.68776" lon="9.3193633"><ele>419.0</ele><time>2026-04-17T10:34:56.942Z</time></trkpt><trkpt lat="44.6878933" lon="9.31938"><ele>419.0</ele><time>2026-04-17T10:34:57.942Z</time></trkpt><trkpt lat="44.6880033" lon="9.319465"><ele>412.75</ele><time>2026-04-17T10:34:58.942Z</time></trkpt><trkpt lat="44.688095" lon="9.319595"><ele>406.5</ele><time>2026-04-17T10:34:59.942Z</time></trkpt><trkpt lat="44.6881733" lon="9.3197567"><ele>400.25</ele><time>2026-04-17T10:35:00.942Z</time></trkpt><trkpt lat="44.6881983" lon="9.320005"><ele>394.0</ele><time>2026-04-17T10:35:01.942Z</time></trkpt><trkpt lat="44.688245" lon="9.3202683"><ele>397.0</ele><time>2026-04-17T10:35:02.942Z</time></trkpt><trkpt lat="44.6882167" lon="9.3206717"><ele>400.0</ele><time>2026-04-17T10:35:03.942Z</time></trkpt><trkpt lat="44.688175" lon="9.321045"><ele>400.0</ele><time>2026-04-17T10:35:04.942Z</time></trkpt><trkpt lat="44.6881583" lon="9.3213633"><ele>400.0</ele><time>2026-04-17T10:35:05.942Z</time></trkpt><trkpt lat="44.6881833" lon="9.321635"><ele>400.0</ele><time>2026-04-17T10:35:06.942Z</time></trkpt><trkpt lat="44.688215" lon="9.3218867"><ele>401.33333333333337</ele><time>2026-04-17T10:35:07.942Z</time></trkpt><trkpt lat="44.68822" lon="9.322155"><ele>402.66666666666663</ele><time>2026-04-17T10:35:08.942Z</time></trkpt><trkpt lat="44.6881917" lon="9.3223933"><ele>404.0</ele><time>2026-04-17T10:35:09.942Z</time></trkpt><trkpt lat="44.68818" lon="9.3226"><ele>404.0</ele><time>2026-04-17T10:35:10.942Z</time></trkpt><trkpt lat="44.6882217" lon="9.322805"><ele>404.0</ele><time>2026-04-17T10:35:11.942Z</time></trkpt><trkpt lat="44.6883167" lon="9.322965"><ele>404.0</ele><time>2026-04-17T10:35:12.943Z</time></trkpt><trkpt lat="44.6884883" lon="9.3230633"><ele>399.66666666666663</ele><time>2026-04-17T10:35:13.942Z</time></trkpt><trkpt lat="44.6886417" lon="9.3231417"><ele>395.33333333333337</ele><time>2026-04-17T10:35:14.942Z</time></trkpt><trkpt lat="44.688805" lon="9.3232183"><ele>391.0</ele><time>2026-04-17T10:35:15.942Z</time></trkpt><trkpt lat="44.6889417" lon="9.3233383"><ele>391.0</ele><time>2026-04-17T10:35:16.942Z</time></trkpt><trkpt lat="44.6890467" lon="9.32349"><ele>391.0</ele><time>2026-04-17T10:35:17.942Z</time></trkpt><trkpt lat="44.6891417" lon="9.3236517"><ele>391.0</ele><time>2026-04-17T10:35:18.942Z</time></trkpt><trkpt lat="44.6892217" lon="9.3238333"><ele>392.0</ele><time>2026-04-17T10:35:19.942Z</time></trkpt><trkpt lat="44.689265" lon="9.3240383"><ele>393.0</ele><time>2026-04-17T10:35:20.942Z</time></trkpt><trkpt lat="44.6892917" lon="9.3242783"><ele>394.0</ele><time>2026-04-17T10:35:21.942Z</time></trkpt><trkpt lat="44.689315" lon="9.324555"><ele>393.33333333333337</ele><time>2026-04-17T10:35:22.943Z</time></trkpt><trkpt lat="44.689325" lon="9.3248567"><ele>392.66666666666663</ele><time>2026-04-17T10:35:23.942Z</time></trkpt><trkpt lat="44.689335" lon="9.325155"><ele>392.0</ele><time>2026-04-17T10:35:24.942Z</time></trkpt><trkpt lat="44.68933" lon="9.3254567"><ele>391.0</ele><time>2026-04-17T10:35:25.942Z</time></trkpt><trkpt lat="44.689315" lon="9.32575"><ele>390.0</ele><time>2026-04-17T10:35:26.942Z</time></trkpt><trkpt lat="44.68929" lon="9.32604"><ele>389.0</ele><time>2026-04-17T10:35:27.942Z</time></trkpt><trkpt lat="44.6892433" lon="9.3263383"><ele>387.66666666666663</ele><time>2026-04-17T10:35:28.942Z</time></trkpt><trkpt lat="44.68919" lon="9.3266383"><ele>386.33333333333337</ele><time>2026-04-17T10:35:29.942Z</time></trkpt><trkpt lat="44.68915" lon="9.3269367"><ele>385.0</ele><time>2026-04-17T10:35:30.942Z</time></trkpt><trkpt lat="44.689125" lon="9.3272333"><ele>382.6666666666667</ele><time>2026-04-17T10:35:31.942Z</time></trkpt><trkpt lat="44.6891017" lon="9.3275317"><ele>380.33333333333337</ele><time>2026-04-17T10:35:32.942Z</time></trkpt><trkpt lat="44.6890683" lon="9.3278217"><ele>378.0</ele><time>2026-04-17T10:35:33.942Z</time></trkpt><trkpt lat="44.68902" lon="9.3280867"><ele>376.75</ele><time>2026-04-17T10:35:34.942Z</time></trkpt><trkpt lat="44.6889617" lon="9.328325"><ele>375.5</ele><time>2026-04-17T10:35:35.942Z</time></trkpt><trkpt lat="44.688915" lon="9.3285183"><ele>374.25</ele><time>2026-04-17T10:35:36.942Z</time></trkpt><trkpt lat="44.6888867" lon="9.3286683"><ele>373.0</ele><time>2026-04-17T10:35:37.942Z</time></trkpt><trkpt lat="44.6888817" lon="9.32879"><ele>371.59999999999997</ele><time>2026-04-17T10:35:38.942Z</time></trkpt><trkpt lat="44.688895" lon="9.3288967"><ele>370.2</ele><time>2026-04-17T10:35:39.942Z</time></trkpt><trkpt lat="44.688945" lon="9.3289883"><ele>368.8</ele><time>2026-04-17T10:35:40.942Z</time></trkpt><trkpt lat="44.6890167" lon="9.329085"><ele>367.4</ele><time>2026-04-17T10:35:41.942Z</time></trkpt><trkpt lat="44.6891567" lon="9.3291583"><ele>366.0</ele><time>2026-04-17T10:35:42.942Z</time></trkpt><trkpt lat="44.6892917" lon="9.3292367"><ele>369.0</ele><time>2026-04-17T10:35:43.942Z</time></trkpt><trkpt lat="44.6894417" lon="9.3293217"><ele>372.0</ele><time>2026-04-17T10:35:44.942Z</time></trkpt><trkpt lat="44.6895867" lon="9.3294033"><ele>375.0</ele><time>2026-04-17T10:35:45.942Z</time></trkpt><trkpt lat="44.6897233" lon="9.329485"><ele>375.0</ele><time>2026-04-17T10:35:46.942Z</time></trkpt><trkpt lat="44.68986" lon="9.3295633"><ele>375.0</ele><time>2026-04-17T10:35:47.942Z</time></trkpt><trkpt lat="44.68998" lon="9.3296367"><ele>375.0</ele><time>2026-04-17T10:35:48.942Z</time></trkpt><trkpt lat="44.6900867" lon="9.3297217"><ele>375.0</ele><time>2026-04-17T10:35:49.942Z</time></trkpt><trkpt lat="44.6901667" lon="9.32984"><ele>375.0</ele><time>2026-04-17T10:35:50.942Z</time></trkpt><trkpt lat="44.6902" lon="9.3299783"><ele>375.0</ele><time>2026-04-17T10:35:51.942Z</time></trkpt><trkpt lat="44.6902083" lon="9.330125"><ele>375.0</ele><time>2026-04-17T10:35:52.942Z</time></trkpt><trkpt lat="44.6902083" lon="9.3302867"><ele>375.0</ele><time>2026-04-17T10:35:53.942Z</time></trkpt><trkpt lat="44.6902033" lon="9.330455"><ele>375.0</ele><time>2026-04-17T10:35:54.942Z</time></trkpt><trkpt lat="44.6901917" lon="9.330615"><ele>375.0</ele><time>2026-04-17T10:35:55.942Z</time></trkpt><trkpt lat="44.690175" lon="9.3307683"><ele>375.0</ele><time>2026-04-17T10:35:56.942Z</time></trkpt><trkpt lat="44.6901583" lon="9.3308967"><ele>375.0</ele><time>2026-04-17T10:35:57.942Z</time></trkpt><trkpt lat="44.6901517" lon="9.33102"><ele>375.0</ele><time>2026-04-17T10:35:58.942Z</time></trkpt><trkpt lat="44.6901567" lon="9.33115"><ele>375.0</ele><time>2026-04-17T10:35:59.942Z</time></trkpt><trkpt lat="44.6901733" lon="9.3313017"><ele>375.8</ele><time>2026-04-17T10:36:00.942Z</time></trkpt><trkpt lat="44.6902017" lon="9.3314583"><ele>376.6</ele><time>2026-04-17T10:36:01.942Z</time></trkpt><trkpt lat="44.6902467" lon="9.331605"><ele>377.4</ele><time>2026-04-17T10:36:02.942Z</time></trkpt><trkpt lat="44.6903067" lon="9.3317267"><ele>378.2</ele><time>2026-04-17T10:36:03.942Z</time></trkpt><trkpt lat="44.690375" lon="9.331835"><ele>379.0</ele><time>2026-04-17T10:36:04.942Z</time></trkpt><trkpt lat="44.6904417" lon="9.3319433"><ele>382.0</ele><time>2026-04-17T10:36:05.942Z</time></trkpt><trkpt lat="44.6905067" lon="9.33205"><ele>385.0</ele><time>2026-04-17T10:36:06.942Z</time></trkpt><trkpt lat="44.69057" lon="9.3321483"><ele>388.0</ele><time>2026-04-17T10:36:07.942Z</time></trkpt><trkpt lat="44.690635" lon="9.3322233"><ele>391.0</ele><time>2026-04-17T10:36:08.942Z</time></trkpt><trkpt lat="44.6907" lon="9.3322733"><ele>394.00000000000006</ele><time>2026-04-17T10:36:09.942Z</time></trkpt><trkpt lat="44.6907783" lon="9.3323"><ele>397.0</ele><time>2026-04-17T10:36:10.942Z</time></trkpt><trkpt lat="44.690855" lon="9.3323233"><ele>397.00000000000006</ele><time>2026-04-17T10:36:11.942Z</time></trkpt><trkpt lat="44.6909267" lon="9.332355"><ele>397.0</ele><time>2026-04-17T10:36:12.942Z</time></trkpt><trkpt lat="44.6909883" lon="9.3324083"><ele>397.0</ele><time>2026-04-17T10:36:13.942Z</time></trkpt><trkpt lat="44.691035" lon="9.3324817"><ele>397.0</ele><time>2026-04-17T10:36:14.942Z</time></trkpt><trkpt lat="44.6910483" lon="9.3325717"><ele>397.00000000000006</ele><time>2026-04-17T10:36:15.942Z</time></trkpt><trkpt lat="44.69096" lon="9.332665"><ele>397.0</ele><time>2026-04-17T10:36:16.942Z</time></trkpt><trkpt lat="44.69088" lon="9.3327333"><ele>397.0</ele><time>2026-04-17T10:36:17.942Z</time></trkpt><trkpt lat="44.6907883" lon="9.3327617"><ele>397.0</ele><time>2026-04-17T10:36:18.942Z</time></trkpt><trkpt lat="44.6906833" lon="9.332765"><ele>397.0</ele><time>2026-04-17T10:36:19.942Z</time></trkpt><trkpt lat="44.69056" lon="9.3327717"><ele>397.0</ele><time>2026-04-17T10:36:20.942Z</time></trkpt><trkpt lat="44.6904467" lon="9.332795"><ele>397.0</ele><time>2026-04-17T10:36:21.942Z</time></trkpt><trkpt lat="44.6903433" lon="9.332835"><ele>396.6</ele><time>2026-04-17T10:36:22.942Z</time></trkpt><trkpt lat="44.6902517" lon="9.3328933"><ele>396.20000000000005</ele><time>2026-04-17T10:36:23.942Z</time></trkpt><trkpt lat="44.6901717" lon="9.3329733"><ele>395.8</ele><time>2026-04-17T10:36:24.942Z</time></trkpt><trkpt lat="44.690115" lon="9.3330783"><ele>395.4</ele><time>2026-04-17T10:36:25.942Z</time></trkpt><trkpt lat="44.6900833" lon="9.3332083"><ele>395.0</ele><time>2026-04-17T10:36:26.942Z</time></trkpt><trkpt lat="44.6900817" lon="9.33339"><ele>395.0</ele><time>2026-04-17T10:36:27.942Z</time></trkpt><trkpt lat="44.6900967" lon="9.3336317"><ele>395.0</ele><time>2026-04-17T10:36:28.942Z</time></trkpt><trkpt lat="44.6901017" lon="9.3338917"><ele>395.0</ele><time>2026-04-17T10:36:29.943Z</time></trkpt><trkpt lat="44.6901117" lon="9.3341267"><ele>395.66666666666663</ele><time>2026-04-17T10:36:30.942Z</time></trkpt><trkpt lat="44.69014" lon="9.3343417"><ele>396.33333333333337</ele><time>2026-04-17T10:36:31.943Z</time></trkpt><trkpt lat="44.6902167" lon="9.3345433"><ele>397.0</ele><time>2026-04-17T10:36:32.942Z</time></trkpt><trkpt lat="44.6903217" lon="9.3347433"><ele>405.33333333333337</ele><time>2026-04-17T10:36:33.943Z</time></trkpt><trkpt lat="44.6904233" lon="9.3349417"><ele>413.66666666666663</ele><time>2026-04-17T10:36:34.942Z</time></trkpt><trkpt lat="44.6905" lon="9.33517"><ele>422.0</ele><time>2026-04-17T10:36:35.943Z</time></trkpt><trkpt lat="44.69054" lon="9.3354233"><ele>423.3333333333333</ele><time>2026-04-17T10:36:36.942Z</time></trkpt><trkpt lat="44.690545" lon="9.3357417"><ele>424.66666666666663</ele><time>2026-04-17T10:36:37.942Z</time></trkpt><trkpt lat="44.69055" lon="9.3360533"><ele>426.0</ele><time>2026-04-17T10:36:38.942Z</time></trkpt><trkpt lat="44.6905483" lon="9.3363433"><ele>425.0</ele><time>2026-04-17T10:36:39.942Z</time></trkpt><trkpt lat="44.6905267" lon="9.33661"><ele>424.0</ele><time>2026-04-17T10:36:40.942Z</time></trkpt><trkpt lat="44.6904967" lon="9.3368417"><ele>423.0</ele><time>2026-04-17T10:36:41.942Z</time></trkpt><trkpt lat="44.69048" lon="9.3370417"><ele>422.0</ele><time>2026-04-17T10:36:42.942Z</time></trkpt><trkpt lat="44.6905083" lon="9.3372267"><ele>421.0</ele><time>2026-04-17T10:36:43.942Z</time></trkpt><trkpt lat="44.6905933" lon="9.3374083"><ele>420.0</ele><time>2026-04-17T10:36:44.942Z</time></trkpt><trkpt lat="44.6907033" lon="9.33758"><ele>420.0</ele><time>2026-04-17T10:36:45.942Z</time></trkpt><trkpt lat="44.690825" lon="9.3377317"><ele>420.0</ele><time>2026-04-17T10:36:46.942Z</time></trkpt><trkpt lat="44.6909683" lon="9.337835"><ele>420.0</ele><time>2026-04-17T10:36:47.943Z</time></trkpt><trkpt lat="44.6911333" lon="9.337895"><ele>420.0</ele><time>2026-04-17T10:36:48.942Z</time></trkpt><trkpt lat="44.691295" lon="9.337945"><ele>420.0</ele><time>2026-04-17T10:36:49.943Z</time></trkpt><trkpt lat="44.6914467" lon="9.33799"><ele>420.0</ele><time>2026-04-17T10:36:50.942Z</time></trkpt><trkpt lat="44.6915883" lon="9.3380733"><ele>420.0</ele><time>2026-04-17T10:36:51.942Z</time></trkpt><trkpt lat="44.6917033" lon="9.3382"><ele>420.0</ele><time>2026-04-17T10:36:52.942Z</time></trkpt><trkpt lat="44.6917733" lon="9.3383483"><ele>420.0</ele><time>2026-04-17T10:36:53.942Z</time></trkpt><trkpt lat="44.691785" lon="9.3385233"><ele>420.0</ele><time>2026-04-17T10:36:54.942Z</time></trkpt><trkpt lat="44.6917383" lon="9.3386933"><ele>420.0</ele><time>2026-04-17T10:36:55.942Z</time></trkpt><trkpt lat="44.6916383" lon="9.3388583"><ele>420.0</ele><time>2026-04-17T10:36:56.942Z</time></trkpt><trkpt lat="44.69153" lon="9.3390217"><ele>420.0</ele><time>2026-04-17T10:36:57.942Z</time></trkpt><trkpt lat="44.6914333" lon="9.3391933"><ele>420.25</ele><time>2026-04-17T10:36:58.942Z</time></trkpt><trkpt lat="44.691375" lon="9.3393617"><ele>420.5</ele><time>2026-04-17T10:36:59.942Z</time></trkpt><trkpt lat="44.69138" lon="9.33953"><ele>420.75</ele><time>2026-04-17T10:37:00.942Z</time></trkpt><trkpt lat="44.6914333" lon="9.3396967"><ele>421.0</ele><time>2026-04-17T10:37:01.942Z</time></trkpt><trkpt lat="44.69149" lon="9.3398817"><ele>421.33333333333337</ele><time>2026-04-17T10:37:02.942Z</time></trkpt><trkpt lat="44.6915117" lon="9.3400867"><ele>421.66666666666663</ele><time>2026-04-17T10:37:03.942Z</time></trkpt><trkpt lat="44.69148" lon="9.340325"><ele>422.0</ele><time>2026-04-17T10:37:04.942Z</time></trkpt><trkpt lat="44.6914267" lon="9.3406"><ele>422.0</ele><time>2026-04-17T10:37:05.942Z</time></trkpt><trkpt lat="44.6913917" lon="9.340875"><ele>422.0</ele><time>2026-04-17T10:37:06.942Z</time></trkpt><trkpt lat="44.69141" lon="9.3411383"><ele>422.0</ele><time>2026-04-17T10:37:07.942Z</time></trkpt><trkpt lat="44.691455" lon="9.3413933"><ele>420.3333333333333</ele><time>2026-04-17T10:37:08.942Z</time></trkpt><trkpt lat="44.6914767" lon="9.3416267"><ele>418.66666666666663</ele><time>2026-04-17T10:37:09.942Z</time></trkpt><trkpt lat="44.6914517" lon="9.3418433"><ele>417.0</ele><time>2026-04-17T10:37:10.942Z</time></trkpt><trkpt lat="44.6914233" lon="9.3420383"><ele>417.0</ele><time>2026-04-17T10:37:11.942Z</time></trkpt><trkpt lat="44.69143" lon="9.3422117"><ele>417.0</ele><time>2026-04-17T10:37:12.942Z</time></trkpt><trkpt lat="44.69147" lon="9.3423483"><ele>417.0</ele><time>2026-04-17T10:37:13.943Z</time></trkpt><trkpt lat="44.691535" lon="9.3424567"><ele>417.0</ele><time>2026-04-17T10:37:14.942Z</time></trkpt><trkpt lat="44.6916483" lon="9.3425083"><ele>417.0</ele><time>2026-04-17T10:37:15.943Z</time></trkpt><trkpt lat="44.6918467" lon="9.3423617"><ele>415.66666666666663</ele><time>2026-04-17T10:37:16.942Z</time></trkpt><trkpt lat="44.6920083" lon="9.3422217"><ele>414.3333333333333</ele><time>2026-04-17T10:37:17.942Z</time></trkpt><trkpt lat="44.69216" lon="9.3420333"><ele>413.0</ele><time>2026-04-17T10:37:18.942Z</time></trkpt><trkpt lat="44.6922933" lon="9.3418217"><ele>413.0</ele><time>2026-04-17T10:37:19.942Z</time></trkpt><trkpt lat="44.6924217" lon="9.3416183"><ele>413.0</ele><time>2026-04-17T10:37:20.942Z</time></trkpt><trkpt lat="44.6925383" lon="9.3414367"><ele>413.0</ele><time>2026-04-17T10:37:21.942Z</time></trkpt><trkpt lat="44.69267" lon="9.341295"><ele>422.66666666666663</ele><time>2026-04-17T10:37:22.942Z</time></trkpt><trkpt lat="44.6928383" lon="9.3412117"><ele>432.33333333333337</ele><time>2026-04-17T10:37:23.942Z</time></trkpt><trkpt lat="44.6929983" lon="9.3411767"><ele>442.0</ele><time>2026-04-17T10:37:24.942Z</time></trkpt><trkpt lat="44.6931617" lon="9.3411983"><ele>442.0</ele><time>2026-04-17T10:37:25.942Z</time></trkpt><trkpt lat="44.69329" lon="9.34125"><ele>442.0</ele><time>2026-04-17T10:37:26.942Z</time></trkpt><trkpt lat="44.6933983" lon="9.3413483"><ele>442.0</ele><time>2026-04-17T10:37:27.943Z</time></trkpt><trkpt lat="44.6934483" lon="9.34149"><ele>442.0</ele><time>2026-04-17T10:37:28.942Z</time></trkpt><trkpt lat="44.6935083" lon="9.34161"><ele>436.0</ele><time>2026-04-17T10:37:29.942Z</time></trkpt><trkpt lat="44.6934633" lon="9.3418433"><ele>430.0</ele><time>2026-04-17T10:37:30.942Z</time></trkpt><trkpt lat="44.6933417" lon="9.3420683"><ele>424.0</ele><time>2026-04-17T10:37:31.942Z</time></trkpt><trkpt lat="44.6932083" lon="9.3422817"><ele>424.0</ele><time>2026-04-17T10:37:32.942Z</time></trkpt><trkpt lat="44.693075" lon="9.3424983"><ele>424.0</ele><time>2026-04-17T10:37:33.942Z</time></trkpt><trkpt lat="44.6929533" lon="9.3427367"><ele>424.0</ele><time>2026-04-17T10:37:34.942Z</time></trkpt><trkpt lat="44.69286" lon="9.3429833"><ele>418.33333333333337</ele><time>2026-04-17T10:37:35.942Z</time></trkpt><trkpt lat="44.6927933" lon="9.3432233"><ele>412.66666666666663</ele><time>2026-04-17T10:37:36.942Z</time></trkpt><trkpt lat="44.6927183" lon="9.3434383"><ele>407.0</ele><time>2026-04-17T10:37:37.942Z</time></trkpt><trkpt lat="44.6925983" lon="9.3436517"><ele>407.0</ele><time>2026-04-17T10:37:38.942Z</time></trkpt><trkpt lat="44.6924433" lon="9.3438483"><ele>407.0</ele><time>2026-04-17T10:37:39.942Z</time></trkpt><trkpt lat="44.6922833" lon="9.34402"><ele>407.0</ele><time>2026-04-17T10:37:40.942Z</time></trkpt><trkpt lat="44.6921067" lon="9.344165"><ele>409.0</ele><time>2026-04-17T10:37:41.942Z</time></trkpt><trkpt lat="44.69193" lon="9.3443117"><ele>411.0</ele><time>2026-04-17T10:37:42.942Z</time></trkpt><trkpt lat="44.6917733" lon="9.3444633"><ele>413.0</ele><time>2026-04-17T10:37:43.942Z</time></trkpt><trkpt lat="44.69163" lon="9.3446017"><ele>413.0</ele><time>2026-04-17T10:37:44.942Z</time></trkpt><trkpt lat="44.6914933" lon="9.3447067"><ele>413.0</ele><time>2026-04-17T10:37:45.942Z</time></trkpt><trkpt lat="44.6913583" lon="9.3447717"><ele>413.0</ele><time>2026-04-17T10:37:46.942Z</time></trkpt><trkpt lat="44.6912483" lon="9.3448633"><ele>413.0</ele><time>2026-04-17T10:37:47.942Z</time></trkpt><trkpt lat="44.6911683" lon="9.34501"><ele>423.66666666666663</ele><time>2026-04-17T10:37:48.942Z</time></trkpt><trkpt lat="44.6911183" lon="9.3452167"><ele>434.33333333333337</ele><time>2026-04-17T10:37:49.942Z</time></trkpt><trkpt lat="44.6911017" lon="9.3454567"><ele>445.0</ele><time>2026-04-17T10:37:50.942Z</time></trkpt><trkpt lat="44.6911" lon="9.3456933"><ele>447.25</ele><time>2026-04-17T10:37:51.942Z</time></trkpt><trkpt lat="44.6911183" lon="9.3459033"><ele>449.5</ele><time>2026-04-17T10:37:52.942Z</time></trkpt><trkpt lat="44.6911783" lon="9.3460883"><ele>451.75</ele><time>2026-04-17T10:37:53.942Z</time></trkpt><trkpt lat="44.69128" lon="9.346235"><ele>454.0</ele><time>2026-04-17T10:37:54.942Z</time></trkpt><trkpt lat="44.69139" lon="9.3463583"><ele>451.75</ele><time>2026-04-17T10:37:55.942Z</time></trkpt><trkpt lat="44.6914867" lon="9.346465"><ele>449.5</ele><time>2026-04-17T10:37:56.942Z</time></trkpt><trkpt lat="44.6915417" lon="9.3465883"><ele>447.25</ele><time>2026-04-17T10:37:57.942Z</time></trkpt><trkpt lat="44.6915483" lon="9.3467467"><ele>445.0</ele><time>2026-04-17T10:37:58.942Z</time></trkpt><trkpt lat="44.6915117" lon="9.3469133"><ele>445.0</ele><time>2026-04-17T10:37:59.942Z</time></trkpt><trkpt lat="44.69148" lon="9.34708"><ele>445.0</ele><time>2026-04-17T10:38:00.942Z</time></trkpt><trkpt lat="44.691475" lon="9.34726"><ele>445.0</ele><time>2026-04-17T10:38:01.942Z</time></trkpt><trkpt lat="44.6915067" lon="9.3474383"><ele>445.0</ele><time>2026-04-17T10:38:02.942Z</time></trkpt><trkpt lat="44.6915717" lon="9.3475867"><ele>444.4</ele><time>2026-04-17T10:38:03.942Z</time></trkpt><trkpt lat="44.691655" lon="9.3477033"><ele>443.8</ele><time>2026-04-17T10:38:04.942Z</time></trkpt><trkpt lat="44.6917317" lon="9.3478083"><ele>443.20000000000005</ele><time>2026-04-17T10:38:05.942Z</time></trkpt><trkpt lat="44.691795" lon="9.3479167"><ele>442.6</ele><time>2026-04-17T10:38:06.942Z</time></trkpt><trkpt lat="44.6918317" lon="9.3480317"><ele>442.0</ele><time>2026-04-17T10:38:07.942Z</time></trkpt><trkpt lat="44.6917833" lon="9.3482417"><ele>440.25</ele><time>2026-04-17T10:38:08.942Z</time></trkpt><trkpt lat="44.69172" lon="9.3484317"><ele>438.5</ele><time>2026-04-17T10:38:09.942Z</time></trkpt><trkpt lat="44.6916367" lon="9.3486117"><ele>436.75</ele><time>2026-04-17T10:38:10.943Z</time></trkpt><trkpt lat="44.691555" lon="9.348775"><ele>435.0</ele><time>2026-04-17T10:38:11.942Z</time></trkpt><trkpt lat="44.6914917" lon="9.3489467"><ele>434.0</ele><time>2026-04-17T10:38:12.942Z</time></trkpt><trkpt lat="44.6914783" lon="9.349115"><ele>433.0</ele><time>2026-04-17T10:38:13.942Z</time></trkpt><trkpt lat="44.691505" lon="9.3492767"><ele>432.0</ele><time>2026-04-17T10:38:14.942Z</time></trkpt><trkpt lat="44.6915967" lon="9.3494017"><ele>431.0</ele><time>2026-04-17T10:38:15.943Z</time></trkpt><trkpt lat="44.6917067" lon="9.3494967"><ele>431.0</ele><time>2026-04-17T10:38:16.942Z</time></trkpt><trkpt lat="44.69182" lon="9.34959"><ele>431.0</ele><time>2026-04-17T10:38:17.942Z</time></trkpt><trkpt lat="44.6919117" lon="9.3497133"><ele>431.0</ele><time>2026-04-17T10:38:18.943Z</time></trkpt><trkpt lat="44.6919683" lon="9.3498583"><ele>431.0</ele><time>2026-04-17T10:38:19.942Z</time></trkpt><trkpt lat="44.6920367" lon="9.3500117"><ele>433.0</ele><time>2026-04-17T10:38:20.942Z</time></trkpt><trkpt lat="44.6921467" lon="9.3501683"><ele>435.0</ele><time>2026-04-17T10:38:21.942Z</time></trkpt><trkpt lat="44.69227" lon="9.3503583"><ele>437.0</ele><time>2026-04-17T10:38:22.943Z</time></trkpt><trkpt lat="44.692375" lon="9.3505717"><ele>437.0</ele><time>2026-04-17T10:38:23.942Z</time></trkpt><trkpt lat="44.69249" lon="9.3507567"><ele>437.0</ele><time>2026-04-17T10:38:24.942Z</time></trkpt><trkpt lat="44.69262" lon="9.35092"><ele>437.0</ele><time>2026-04-17T10:38:25.943Z</time></trkpt><trkpt lat="44.692745" lon="9.3510717"><ele>447.0</ele><time>2026-04-17T10:38:26.942Z</time></trkpt><trkpt lat="44.6928433" lon="9.3512667"><ele>457.0</ele><time>2026-04-17T10:38:27.942Z</time></trkpt><trkpt lat="44.692915" lon="9.3514883"><ele>467.0</ele><time>2026-04-17T10:38:28.942Z</time></trkpt><trkpt lat="44.6930017" lon="9.3517083"><ele>467.0</ele><time>2026-04-17T10:38:29.942Z</time></trkpt><trkpt lat="44.6931133" lon="9.3519033"><ele>467.0</ele><time>2026-04-17T10:38:30.942Z</time></trkpt><trkpt lat="44.6932183" lon="9.3520867"><ele>467.0</ele><time>2026-04-17T10:38:31.942Z</time></trkpt><trkpt lat="44.6932883" lon="9.352275"><ele>461.0</ele><time>2026-04-17T10:38:32.942Z</time></trkpt><trkpt lat="44.6933233" lon="9.3524533"><ele>455.0</ele><time>2026-04-17T10:38:33.942Z</time></trkpt><trkpt lat="44.6933167" lon="9.352635"><ele>449.0</ele><time>2026-04-17T10:38:34.942Z</time></trkpt><trkpt lat="44.6933017" lon="9.3527933"><ele>443.0</ele><time>2026-04-17T10:38:35.942Z</time></trkpt><trkpt lat="44.6932933" lon="9.3529483"><ele>448.0</ele><time>2026-04-17T10:38:36.942Z</time></trkpt><trkpt lat="44.69334" lon="9.3530867"><ele>453.0</ele><time>2026-04-17T10:38:37.942Z</time></trkpt><trkpt lat="44.693425" lon="9.3531983"><ele>458.0</ele><time>2026-04-17T10:38:38.942Z</time></trkpt><trkpt lat="44.6935317" lon="9.3532567"><ele>463.0</ele><time>2026-04-17T10:38:39.943Z</time></trkpt><trkpt lat="44.69365" lon="9.3532667"><ele>463.0</ele><time>2026-04-17T10:38:40.943Z</time></trkpt><trkpt lat="44.6937617" lon="9.3532933"><ele>462.99999999999994</ele><time>2026-04-17T10:38:41.943Z</time></trkpt><trkpt lat="44.693855" lon="9.353365"><ele>462.99999999999994</ele><time>2026-04-17T10:38:42.942Z</time></trkpt><trkpt lat="44.6939383" lon="9.3534467"><ele>463.0</ele><time>2026-04-17T10:38:43.942Z</time></trkpt><trkpt lat="44.6940283" lon="9.3535133"><ele>463.0</ele><time>2026-04-17T10:38:44.942Z</time></trkpt><trkpt lat="44.6941317" lon="9.35353"><ele>463.0</ele><time>2026-04-17T10:38:45.942Z</time></trkpt><trkpt lat="44.6942567" lon="9.3535033"><ele>463.0</ele><time>2026-04-17T10:38:46.943Z</time></trkpt><trkpt lat="44.69438" lon="9.3534917"><ele>463.0</ele><time>2026-04-17T10:38:47.942Z</time></trkpt><trkpt lat="44.6945" lon="9.3535067"><ele>463.0</ele><time>2026-04-17T10:38:48.942Z</time></trkpt><trkpt lat="44.6946" lon="9.3535733"><ele>466.75</ele><time>2026-04-17T10:38:49.942Z</time></trkpt><trkpt lat="44.6946783" lon="9.3536867"><ele>470.5</ele><time>2026-04-17T10:38:50.942Z</time></trkpt><trkpt lat="44.6947067" lon="9.3538367"><ele>474.25</ele><time>2026-04-17T10:38:51.942Z</time></trkpt><trkpt lat="44.69472" lon="9.35403"><ele>478.0</ele><time>2026-04-17T10:38:52.942Z</time></trkpt><trkpt lat="44.694775" lon="9.3542167"><ele>478.0</ele><time>2026-04-17T10:38:53.942Z</time></trkpt><trkpt lat="44.6948433" lon="9.354385"><ele>478.0</ele><time>2026-04-17T10:38:54.943Z</time></trkpt><trkpt lat="44.694895" lon="9.3545567"><ele>478.0</ele><time>2026-04-17T10:38:55.942Z</time></trkpt><trkpt lat="44.6949" lon="9.3547467"><ele>478.0</ele><time>2026-04-17T10:38:56.942Z</time></trkpt><trkpt lat="44.6948733" lon="9.3549583"><ele>476.0</ele><time>2026-04-17T10:38:57.942Z</time></trkpt><trkpt lat="44.6948333" lon="9.35517"><ele>474.0</ele><time>2026-04-17T10:38:58.943Z</time></trkpt><trkpt lat="44.694795" lon="9.3553567"><ele>472.0</ele><time>2026-04-17T10:38:59.942Z</time></trkpt><trkpt lat="44.6947833" lon="9.3555417"><ele>470.0</ele><time>2026-04-17T10:39:00.942Z</time></trkpt><trkpt lat="44.6948217" lon="9.35571"><ele>470.0</ele><time>2026-04-17T10:39:01.942Z</time></trkpt><trkpt lat="44.6948833" lon="9.3558683"><ele>470.0</ele><time>2026-04-17T10:39:02.943Z</time></trkpt><trkpt lat="44.6949283" lon="9.3560317"><ele>470.0</ele><time>2026-04-17T10:39:03.942Z</time></trkpt><trkpt lat="44.6949283" lon="9.3562167"><ele>470.0</ele><time>2026-04-17T10:39:04.942Z</time></trkpt><trkpt lat="44.6948967" lon="9.3564333"><ele>471.0</ele><time>2026-04-17T10:39:05.942Z</time></trkpt><trkpt lat="44.6948483" lon="9.3566783"><ele>472.0</ele><time>2026-04-17T10:39:06.942Z</time></trkpt><trkpt lat="44.6947967" lon="9.3569183"><ele>473.0</ele><time>2026-04-17T10:39:07.942Z</time></trkpt><trkpt lat="44.6947383" lon="9.3571367"><ele>477.3333333333333</ele><time>2026-04-17T10:39:08.942Z</time></trkpt><trkpt lat="44.69465" lon="9.3573383"><ele>481.66666666666663</ele><time>2026-04-17T10:39:09.942Z</time></trkpt><trkpt lat="44.6945217" lon="9.3574983"><ele>486.0</ele><time>2026-04-17T10:39:10.942Z</time></trkpt><trkpt lat="44.6943733" lon="9.3576183"><ele>471.66666666666663</ele><time>2026-04-17T10:39:11.942Z</time></trkpt><trkpt lat="44.6942283" lon="9.3577233"><ele>457.3333333333333</ele><time>2026-04-17T10:39:12.942Z</time></trkpt><trkpt lat="44.6940883" lon="9.3578517"><ele>443.0</ele><time>2026-04-17T10:39:13.942Z</time></trkpt><trkpt lat="44.693985" lon="9.3580133"><ele>449.0</ele><time>2026-04-17T10:39:14.942Z</time></trkpt><trkpt lat="44.693915" lon="9.358185"><ele>455.0</ele><time>2026-04-17T10:39:15.942Z</time></trkpt><trkpt lat="44.69389" lon="9.35836"><ele>461.0</ele><time>2026-04-17T10:39:16.942Z</time></trkpt><trkpt lat="44.6939383" lon="9.35854"><ele>467.0</ele><time>2026-04-17T10:39:17.942Z</time></trkpt><trkpt lat="44.6940317" lon="9.358725"><ele>462.3333333333333</ele><time>2026-04-17T10:39:18.942Z</time></trkpt><trkpt lat="44.6941433" lon="9.3589133"><ele>457.66666666666663</ele><time>2026-04-17T10:39:19.942Z</time></trkpt><trkpt lat="44.6942517" lon="9.3590917"><ele>453.0</ele><time>2026-04-17T10:39:20.942Z</time></trkpt><trkpt lat="44.6943467" lon="9.3592417"><ele>458.0</ele><time>2026-04-17T10:39:21.942Z</time></trkpt><trkpt lat="44.6944517" lon="9.3593317"><ele>463.0</ele><time>2026-04-17T10:39:22.942Z</time></trkpt><trkpt lat="44.6945733" lon="9.3593667"><ele>468.0</ele><time>2026-04-17T10:39:23.942Z</time></trkpt><trkpt lat="44.6947367" lon="9.3593283"><ele>473.0</ele><time>2026-04-17T10:39:24.942Z</time></trkpt><trkpt lat="44.6949017" lon="9.359275"><ele>473.0</ele><time>2026-04-17T10:39:25.942Z</time></trkpt><trkpt lat="44.6950567" lon="9.3592317"><ele>473.0</ele><time>2026-04-17T10:39:26.942Z</time></trkpt><trkpt lat="44.695195" lon="9.359195"><ele>473.0</ele><time>2026-04-17T10:39:27.942Z</time></trkpt><trkpt lat="44.6953333" lon="9.3591817"><ele>473.0</ele><time>2026-04-17T10:39:28.942Z</time></trkpt><trkpt lat="44.6954717" lon="9.359205"><ele>474.75</ele><time>2026-04-17T10:39:29.942Z</time></trkpt><trkpt lat="44.6955817" lon="9.3593"><ele>476.5</ele><time>2026-04-17T10:39:30.943Z</time></trkpt><trkpt lat="44.6956783" lon="9.3594217"><ele>478.25</ele><time>2026-04-17T10:39:31.942Z</time></trkpt><trkpt lat="44.6956533" lon="9.3596383"><ele>480.0</ele><time>2026-04-17T10:39:32.943Z</time></trkpt><trkpt lat="44.6955567" lon="9.359955"><ele>480.0</ele><time>2026-04-17T10:39:33.942Z</time></trkpt><trkpt lat="44.6954883" lon="9.3602367"><ele>480.0</ele><time>2026-04-17T10:39:34.942Z</time></trkpt><trkpt lat="44.695415" lon="9.360515"><ele>480.0</ele><time>2026-04-17T10:39:35.942Z</time></trkpt><trkpt lat="44.6953483" lon="9.360785"><ele>479.33333333333337</ele><time>2026-04-17T10:39:36.942Z</time></trkpt><trkpt lat="44.6953167" lon="9.3610267"><ele>478.6666666666667</ele><time>2026-04-17T10:39:37.942Z</time></trkpt><trkpt lat="44.6953283" lon="9.3612683"><ele>478.0</ele><time>2026-04-17T10:39:38.943Z</time></trkpt><trkpt lat="44.6953617" lon="9.3614933"><ele>479.5</ele><time>2026-04-17T10:39:39.942Z</time></trkpt><trkpt lat="44.6953733" lon="9.3617017"><ele>481.0</ele><time>2026-04-17T10:39:40.942Z</time></trkpt><trkpt lat="44.6953633" lon="9.361895"><ele>482.5</ele><time>2026-04-17T10:39:41.942Z</time></trkpt><trkpt lat="44.6953117" lon="9.36207"><ele>484.0</ele><time>2026-04-17T10:39:42.943Z</time></trkpt><trkpt lat="44.6951967" lon="9.3621417"><ele>476.33333333333337</ele><time>2026-04-17T10:39:43.942Z</time></trkpt><trkpt lat="44.6950583" lon="9.3622133"><ele>468.66666666666663</ele><time>2026-04-17T10:39:44.943Z</time></trkpt><trkpt lat="44.69492" lon="9.36232"><ele>461.0</ele><time>2026-04-17T10:39:45.942Z</time></trkpt><trkpt lat="44.6948" lon="9.3624667"><ele>461.0</ele><time>2026-04-17T10:39:46.942Z</time></trkpt><trkpt lat="44.694705" lon="9.362625"><ele>461.0</ele><time>2026-04-17T10:39:47.942Z</time></trkpt><trkpt lat="44.6946333" lon="9.362805"><ele>461.0</ele><time>2026-04-17T10:39:48.942Z</time></trkpt><trkpt lat="44.6946017" lon="9.3629983"><ele>461.0</ele><time>2026-04-17T10:39:49.942Z</time></trkpt><trkpt lat="44.6946083" lon="9.3631917"><ele>462.8</ele><time>2026-04-17T10:39:50.942Z</time></trkpt><trkpt lat="44.694615" lon="9.3633517"><ele>464.6</ele><time>2026-04-17T10:39:51.942Z</time></trkpt><trkpt lat="44.6945817" lon="9.3634967"><ele>466.4</ele><time>2026-04-17T10:39:52.942Z</time></trkpt><trkpt lat="44.6945083" lon="9.3636067"><ele>468.2</ele><time>2026-04-17T10:39:53.943Z</time></trkpt><trkpt lat="44.6944083" lon="9.3636733"><ele>470.0</ele><time>2026-04-17T10:39:54.942Z</time></trkpt><trkpt lat="44.6943233" lon="9.3637283"><ele>465.99999999999994</ele><time>2026-04-17T10:39:55.942Z</time></trkpt><trkpt lat="44.694255" lon="9.3638217"><ele>462.0</ele><time>2026-04-17T10:39:56.942Z</time></trkpt><trkpt lat="44.6942467" lon="9.3639383"><ele>458.0</ele><time>2026-04-17T10:39:57.942Z</time></trkpt><trkpt lat="44.694265" lon="9.3640483"><ele>454.0</ele><time>2026-04-17T10:39:58.942Z</time></trkpt><trkpt lat="44.6943033" lon="9.3641367"><ele>449.99999999999994</ele><time>2026-04-17T10:39:59.942Z</time></trkpt><trkpt lat="44.6943933" lon="9.364185"><ele>446.0</ele><time>2026-04-17T10:40:00.942Z</time></trkpt><trkpt lat="44.69453" lon="9.364175"><ele>446.0</ele><time>2026-04-17T10:40:01.942Z</time></trkpt><trkpt lat="44.6948017" lon="9.3640867"><ele>446.0</ele><time>2026-04-17T10:40:02.942Z</time></trkpt><trkpt lat="44.69506" lon="9.364025"><ele>443.3333333333333</ele><time>2026-04-17T10:40:03.942Z</time></trkpt><trkpt lat="44.695275" lon="9.3639867"><ele>440.66666666666663</ele><time>2026-04-17T10:40:04.942Z</time></trkpt><trkpt lat="44.695485" lon="9.3639783"><ele>438.0</ele><time>2026-04-17T10:40:05.942Z</time></trkpt><trkpt lat="44.69572" lon="9.3639867"><ele>438.0</ele><time>2026-04-17T10:40:06.942Z</time></trkpt><trkpt lat="44.695955" lon="9.3640367"><ele>438.0</ele><time>2026-04-17T10:40:07.942Z</time></trkpt><trkpt lat="44.6961817" lon="9.3640883"><ele>440.0</ele><time>2026-04-17T10:40:08.942Z</time></trkpt><trkpt lat="44.696395" lon="9.3641233"><ele>442.0</ele><time>2026-04-17T10:40:09.942Z</time></trkpt><trkpt lat="44.6966033" lon="9.3641317"><ele>444.0</ele><time>2026-04-17T10:40:10.943Z</time></trkpt><trkpt lat="44.6967983" lon="9.3640967"><ele>441.0</ele><time>2026-04-17T10:40:11.942Z</time></trkpt><trkpt lat="44.6969867" lon="9.364065"><ele>438.0</ele><time>2026-04-17T10:40:12.942Z</time></trkpt><trkpt lat="44.6972067" lon="9.3640533"><ele>435.0</ele><time>2026-04-17T10:40:13.942Z</time></trkpt><trkpt lat="44.697405" lon="9.3640633"><ele>435.0</ele><time>2026-04-17T10:40:14.942Z</time></trkpt><trkpt lat="44.697575" lon="9.3640633"><ele>435.0</ele><time>2026-04-17T10:40:15.942Z</time></trkpt><trkpt lat="44.697725" lon="9.36411"><ele>435.0</ele><time>2026-04-17T10:40:16.942Z</time></trkpt><trkpt lat="44.6978483" lon="9.3642333"><ele>429.0</ele><time>2026-04-17T10:40:17.942Z</time></trkpt><trkpt lat="44.6979317" lon="9.364425"><ele>423.0</ele><time>2026-04-17T10:40:18.942Z</time></trkpt><trkpt lat="44.6980217" lon="9.3646017"><ele>417.0</ele><time>2026-04-17T10:40:19.942Z</time></trkpt><trkpt lat="44.69813" lon="9.364745"><ele>417.0</ele><time>2026-04-17T10:40:20.942Z</time></trkpt><trkpt lat="44.6982633" lon="9.3648283"><ele>417.0</ele><time>2026-04-17T10:40:21.942Z</time></trkpt><trkpt lat="44.6983983" lon="9.3648633"><ele>417.0</ele><time>2026-04-17T10:40:22.942Z</time></trkpt><trkpt lat="44.6985417" lon="9.3649133"><ele>417.0</ele><time>2026-04-17T10:40:23.943Z</time></trkpt><trkpt lat="44.6986667" lon="9.3650317"><ele>419.0</ele><time>2026-04-17T10:40:24.942Z</time></trkpt><trkpt lat="44.6987533" lon="9.3652217"><ele>421.0</ele><time>2026-04-17T10:40:25.942Z</time></trkpt><trkpt lat="44.6988133" lon="9.3654217"><ele>423.0</ele><time>2026-04-17T10:40:26.943Z</time></trkpt><trkpt lat="44.6988383" lon="9.365615"><ele>423.0</ele><time>2026-04-17T10:40:27.943Z</time></trkpt><trkpt lat="44.698845" lon="9.3657933"><ele>423.0</ele><time>2026-04-17T10:40:28.942Z</time></trkpt><trkpt lat="44.69888" lon="9.3659517"><ele>423.0</ele><time>2026-04-17T10:40:29.942Z</time></trkpt><trkpt lat="44.6989633" lon="9.36608"><ele>423.0</ele><time>2026-04-17T10:40:30.943Z</time></trkpt><trkpt lat="44.69909" lon="9.36618"><ele>423.0</ele><time>2026-04-17T10:40:31.942Z</time></trkpt><trkpt lat="44.6992183" lon="9.3662983"><ele>423.0</ele><time>2026-04-17T10:40:32.942Z</time></trkpt><trkpt lat="44.6993583" lon="9.3663683"><ele>423.0</ele><time>2026-04-17T10:40:33.943Z</time></trkpt><trkpt lat="44.6995133" lon="9.3663867"><ele>429.0</ele><time>2026-04-17T10:40:34.942Z</time></trkpt><trkpt lat="44.699705" lon="9.3663433"><ele>435.0</ele><time>2026-04-17T10:40:35.942Z</time></trkpt><trkpt lat="44.699895" lon="9.366295"><ele>441.0</ele><time>2026-04-17T10:40:36.943Z</time></trkpt><trkpt lat="44.7000667" lon="9.3662683"><ele>441.0</ele><time>2026-04-17T10:40:37.943Z</time></trkpt><trkpt lat="44.7002183" lon="9.36627"><ele>441.0</ele><time>2026-04-17T10:40:38.943Z</time></trkpt><trkpt lat="44.7003617" lon="9.3663117"><ele>441.0</ele><time>2026-04-17T10:40:39.943Z</time></trkpt><trkpt lat="44.700475" lon="9.3664167"><ele>441.0</ele><time>2026-04-17T10:40:40.943Z</time></trkpt><trkpt lat="44.70052" lon="9.3665767"><ele>439.5</ele><time>2026-04-17T10:40:41.943Z</time></trkpt><trkpt lat="44.7005067" lon="9.36675"><ele>438.0</ele><time>2026-04-17T10:40:42.943Z</time></trkpt><trkpt lat="44.7004833" lon="9.3669433"><ele>436.5</ele><time>2026-04-17T10:40:43.943Z</time></trkpt><trkpt lat="44.70049" lon="9.3671383"><ele>435.0</ele><time>2026-04-17T10:40:44.943Z</time></trkpt><trkpt lat="44.70054" lon="9.3673317"><ele>428.33333333333337</ele><time>2026-04-17T10:40:45.943Z</time></trkpt><trkpt lat="44.7006417" lon="9.36749"><ele>421.6666666666667</ele><time>2026-04-17T10:40:46.943Z</time></trkpt><trkpt lat="44.700785" lon="9.3676417"><ele>415.0</ele><time>2026-04-17T10:40:47.943Z</time></trkpt><trkpt lat="44.7009333" lon="9.36779"><ele>415.0</ele><time>2026-04-17T10:40:48.944Z</time></trkpt><trkpt lat="44.7010683" lon="9.3679683"><ele>415.0</ele><time>2026-04-17T10:40:49.944Z</time></trkpt><trkpt lat="44.7011833" lon="9.36818"><ele>415.0</ele><time>2026-04-17T10:40:50.943Z</time></trkpt><trkpt lat="44.7012733" lon="9.36841"><ele>412.33333333333337</ele><time>2026-04-17T10:40:51.943Z</time></trkpt><trkpt lat="44.7013633" lon="9.368605"><ele>409.66666666666663</ele><time>2026-04-17T10:40:52.943Z</time></trkpt><trkpt lat="44.7014733" lon="9.3687683"><ele>407.0</ele><time>2026-04-17T10:40:53.943Z</time></trkpt><trkpt lat="44.701585" lon="9.368915"><ele>407.0</ele><time>2026-04-17T10:40:54.943Z</time></trkpt><trkpt lat="44.70167" lon="9.3690933"><ele>407.0</ele><time>2026-04-17T10:40:55.943Z</time></trkpt><trkpt lat="44.7017183" lon="9.3693033"><ele>407.0</ele><time>2026-04-17T10:40:56.943Z</time></trkpt><trkpt lat="44.7017733" lon="9.3694917"><ele>407.0</ele><time>2026-04-17T10:40:57.943Z</time></trkpt><trkpt lat="44.70184" lon="9.3696733"><ele>407.0</ele><time>2026-04-17T10:40:58.943Z</time></trkpt><trkpt lat="44.7019" lon="9.3698483"><ele>407.0</ele><time>2026-04-17T10:40:59.943Z</time></trkpt><trkpt lat="44.7019367" lon="9.3700183"><ele>407.0</ele><time>2026-04-17T10:41:00.943Z</time></trkpt><trkpt lat="44.7019233" lon="9.3701867"><ele>402.25</ele><time>2026-04-17T10:41:01.943Z</time></trkpt><trkpt lat="44.7018717" lon="9.3703533"><ele>397.5</ele><time>2026-04-17T10:41:02.943Z</time></trkpt><trkpt lat="44.70183" lon="9.370535"><ele>392.75</ele><time>2026-04-17T10:41:03.944Z</time></trkpt><trkpt lat="44.70183" lon="9.3707333"><ele>388.0</ele><time>2026-04-17T10:41:04.943Z</time></trkpt><trkpt lat="44.7018717" lon="9.3709233"><ele>392.0</ele><time>2026-04-17T10:41:05.943Z</time></trkpt><trkpt lat="44.7019433" lon="9.371095"><ele>396.0</ele><time>2026-04-17T10:41:06.943Z</time></trkpt><trkpt lat="44.702055" lon="9.3712333"><ele>400.0</ele><time>2026-04-17T10:41:07.943Z</time></trkpt><trkpt lat="44.7022217" lon="9.37133"><ele>396.0</ele><time>2026-04-17T10:41:08.943Z</time></trkpt><trkpt lat="44.702425" lon="9.3714033"><ele>392.0</ele><time>2026-04-17T10:41:09.943Z</time></trkpt><trkpt lat="44.70263" lon="9.3714783"><ele>388.0</ele><time>2026-04-17T10:41:10.943Z</time></trkpt><trkpt lat="44.7028183" lon="9.3715467"><ele>388.0</ele><time>2026-04-17T10:41:11.944Z</time></trkpt><trkpt lat="44.7029933" lon="9.3716267"><ele>388.0</ele><time>2026-04-17T10:41:12.943Z</time></trkpt><trkpt lat="44.7031533" lon="9.37174"><ele>388.0</ele><time>2026-04-17T10:41:13.943Z</time></trkpt><trkpt lat="44.7032933" lon="9.37191"><ele>388.0</ele><time>2026-04-17T10:41:14.943Z</time></trkpt><trkpt lat="44.7034083" lon="9.3721133"><ele>388.0</ele><time>2026-04-17T10:41:15.943Z</time></trkpt><trkpt lat="44.7035217" lon="9.3723317"><ele>388.0</ele><time>2026-04-17T10:41:16.943Z</time></trkpt><trkpt lat="44.7036483" lon="9.3725433"><ele>387.33333333333337</ele><time>2026-04-17T10:41:17.943Z</time></trkpt><trkpt lat="44.7037983" lon="9.3727133"><ele>386.66666666666663</ele><time>2026-04-17T10:41:18.943Z</time></trkpt><trkpt lat="44.7039567" lon="9.3728383"><ele>386.0</ele><time>2026-04-17T10:41:19.943Z</time></trkpt><trkpt lat="44.7041233" lon="9.3728967"><ele>386.0</ele><time>2026-04-17T10:41:20.943Z</time></trkpt><trkpt lat="44.704295" lon="9.3728817"><ele>386.0</ele><time>2026-04-17T10:41:21.943Z</time></trkpt><trkpt lat="44.7044717" lon="9.372855"><ele>386.0</ele><time>2026-04-17T10:41:22.943Z</time></trkpt><trkpt lat="44.7046467" lon="9.3728683"><ele>388.0</ele><time>2026-04-17T10:41:23.943Z</time></trkpt><trkpt lat="44.7048" lon="9.3729317"><ele>390.0</ele><time>2026-04-17T10:41:24.943Z</time></trkpt><trkpt lat="44.7049467" lon="9.3729917"><ele>392.0</ele><time>2026-04-17T10:41:25.943Z</time></trkpt><trkpt lat="44.70509" lon="9.3730433"><ele>388.75</ele><time>2026-04-17T10:41:26.944Z</time></trkpt><trkpt lat="44.7052233" lon="9.3730917"><ele>385.5</ele><time>2026-04-17T10:41:27.943Z</time></trkpt><trkpt lat="44.7053433" lon="9.3731783"><ele>382.25</ele><time>2026-04-17T10:41:28.943Z</time></trkpt><trkpt lat="44.7054417" lon="9.3733183"><ele>379.0</ele><time>2026-04-17T10:41:29.943Z</time></trkpt><trkpt lat="44.705525" lon="9.37346"><ele>379.0</ele><time>2026-04-17T10:41:30.943Z</time></trkpt><trkpt lat="44.7056033" lon="9.3735933"><ele>379.0</ele><time>2026-04-17T10:41:31.943Z</time></trkpt><trkpt lat="44.70568" lon="9.3737183"><ele>379.0</ele><time>2026-04-17T10:41:32.943Z</time></trkpt><trkpt lat="44.7057483" lon="9.3738333"><ele>379.0</ele><time>2026-04-17T10:41:33.943Z</time></trkpt><trkpt lat="44.7057983" lon="9.3739467"><ele>379.0</ele><time>2026-04-17T10:41:34.943Z</time></trkpt><trkpt lat="44.705835" lon="9.3740517"><ele>375.4</ele><time>2026-04-17T10:41:35.943Z</time></trkpt><trkpt lat="44.7058567" lon="9.37414"><ele>371.79999999999995</ele><time>2026-04-17T10:41:36.943Z</time></trkpt><trkpt lat="44.7058433" lon="9.3742783"><ele>368.20000000000005</ele><time>2026-04-17T10:41:38.943Z</time></trkpt><trkpt lat="44.705805" lon="9.3744383"><ele>364.6</ele><time>2026-04-17T10:41:40.943Z</time></trkpt><trkpt lat="44.705785" lon="9.3745533"><ele>361.0</ele><time>2026-04-17T10:41:41.943Z</time></trkpt><trkpt lat="44.7057567" lon="9.3746933"><ele>360.0</ele><time>2026-04-17T10:41:42.943Z</time></trkpt><trkpt lat="44.7056883" lon="9.3748683"><ele>359.0</ele><time>2026-04-17T10:41:43.943Z</time></trkpt><trkpt lat="44.705625" lon="9.3750483"><ele>358.0</ele><time>2026-04-17T10:41:44.943Z</time></trkpt><trkpt lat="44.7055733" lon="9.3752433"><ele>357.0</ele><time>2026-04-17T10:41:45.943Z</time></trkpt><trkpt lat="44.7055283" lon="9.3754517"><ele>355.6666666666667</ele><time>2026-04-17T10:41:46.943Z</time></trkpt><trkpt lat="44.7055217" lon="9.3756633"><ele>354.33333333333337</ele><time>2026-04-17T10:41:47.943Z</time></trkpt><trkpt lat="44.7055567" lon="9.37589"><ele>353.0</ele><time>2026-04-17T10:41:48.943Z</time></trkpt><trkpt lat="44.7056283" lon="9.3761333"><ele>350.6666666666667</ele><time>2026-04-17T10:41:49.943Z</time></trkpt><trkpt lat="44.7057167" lon="9.3763767"><ele>348.3333333333333</ele><time>2026-04-17T10:41:50.943Z</time></trkpt><trkpt lat="44.7058167" lon="9.376585"><ele>346.0</ele><time>2026-04-17T10:41:51.943Z</time></trkpt><trkpt lat="44.7059183" lon="9.3767383"><ele>346.0</ele><time>2026-04-17T10:41:52.943Z</time></trkpt><trkpt lat="44.7060083" lon="9.376845"><ele>346.0</ele><time>2026-04-17T10:41:53.943Z</time></trkpt><trkpt lat="44.7060833" lon="9.3769217"><ele>346.0</ele><time>2026-04-17T10:41:54.943Z</time></trkpt><trkpt lat="44.7061383" lon="9.3769833"><ele>346.0</ele><time>2026-04-17T10:41:55.943Z</time></trkpt><trkpt lat="44.7061983" lon="9.3770667"><ele>346.0</ele><time>2026-04-17T10:41:57.943Z</time></trkpt><trkpt lat="44.7062617" lon="9.3771017"><ele>346.0</ele><time>2026-04-17T10:42:50.943Z</time></trkpt><trkpt lat="44.7063667" lon="9.3771917"><ele>345.0</ele><time>2026-04-17T10:42:52.943Z</time></trkpt><trkpt lat="44.706425" lon="9.3772383"><ele>344.0</ele><time>2026-04-17T10:42:53.943Z</time></trkpt><trkpt lat="44.7064883" lon="9.37728"><ele>343.0</ele><time>2026-04-17T10:42:54.943Z</time></trkpt><trkpt lat="44.70656" lon="9.3773133"><ele>342.0</ele><time>2026-04-17T10:42:55.943Z</time></trkpt><trkpt lat="44.7066317" lon="9.3773317"><ele>341.0</ele><time>2026-04-17T10:42:56.943Z</time></trkpt><trkpt lat="44.70671" lon="9.3773283"><ele>340.0</ele><time>2026-04-17T10:42:57.943Z</time></trkpt><trkpt lat="44.7067817" lon="9.3772983"><ele>339.0</ele><time>2026-04-17T10:42:58.943Z</time></trkpt><trkpt lat="44.7068517" lon="9.3772517"><ele>340.0</ele><time>2026-04-17T10:42:59.943Z</time></trkpt><trkpt lat="44.7069133" lon="9.3771783"><ele>341.0</ele><time>2026-04-17T10:43:00.943Z</time></trkpt><trkpt lat="44.7069733" lon="9.3771"><ele>342.0</ele><time>2026-04-17T10:43:01.943Z</time></trkpt><trkpt lat="44.707035" lon="9.3770267"><ele>343.0</ele><time>2026-04-17T10:43:02.943Z</time></trkpt><trkpt lat="44.7070983" lon="9.3769617"><ele>344.0</ele><time>2026-04-17T10:43:03.943Z</time></trkpt><trkpt lat="44.7071667" lon="9.37691"><ele>345.0</ele><time>2026-04-17T10:43:04.944Z</time></trkpt><trkpt lat="44.707245" lon="9.3768817"><ele>345.0</ele><time>2026-04-17T10:43:05.943Z</time></trkpt><trkpt lat="44.7073283" lon="9.3768667"><ele>345.0</ele><time>2026-04-17T10:43:06.943Z</time></trkpt><trkpt lat="44.7074133" lon="9.3768583"><ele>345.0</ele><time>2026-04-17T10:43:07.943Z</time></trkpt><trkpt lat="44.7075033" lon="9.3768517"><ele>345.0</ele><time>2026-04-17T10:43:08.944Z</time></trkpt><trkpt lat="44.7075917" lon="9.37684"><ele>345.0</ele><time>2026-04-17T10:43:09.943Z</time></trkpt><trkpt lat="44.70768" lon="9.376825"><ele>345.0</ele><time>2026-04-17T10:43:10.944Z</time></trkpt><trkpt lat="44.70777" lon="9.3768283"><ele>343.0</ele><time>2026-04-17T10:43:11.943Z</time></trkpt><trkpt lat="44.707855" lon="9.3768517"><ele>341.0</ele><time>2026-04-17T10:43:12.943Z</time></trkpt><trkpt lat="44.7079383" lon="9.3768967"><ele>339.0</ele><time>2026-04-17T10:43:13.943Z</time></trkpt><trkpt lat="44.7080017" lon="9.3769883"><ele>337.0</ele><time>2026-04-17T10:43:14.944Z</time></trkpt><trkpt lat="44.7080433" lon="9.3771067"><ele>335.0</ele><time>2026-04-17T10:43:15.943Z</time></trkpt><trkpt lat="44.7080683" lon="9.3772383"><ele>335.0</ele><time>2026-04-17T10:43:16.943Z</time></trkpt><trkpt lat="44.708085" lon="9.377375"><ele>335.0</ele><time>2026-04-17T10:43:17.943Z</time></trkpt><trkpt lat="44.708105" lon="9.3775083"><ele>335.0</ele><time>2026-04-17T10:43:18.943Z</time></trkpt><trkpt lat="44.7081333" lon="9.37763"><ele>335.0</ele><time>2026-04-17T10:43:19.943Z</time></trkpt><trkpt lat="44.7081783" lon="9.3777383"><ele>335.0</ele><time>2026-04-17T10:43:20.943Z</time></trkpt><trkpt lat="44.7082483" lon="9.3778283"><ele>335.0</ele><time>2026-04-17T10:43:21.943Z</time></trkpt><trkpt lat="44.7083417" lon="9.3778933"><ele>335.0</ele><time>2026-04-17T10:43:22.943Z</time></trkpt><trkpt lat="44.7084433" lon="9.3779467"><ele>335.0</ele><time>2026-04-17T10:43:23.943Z</time></trkpt><trkpt lat="44.7085483" lon="9.377995"><ele>335.0</ele><time>2026-04-17T10:43:24.943Z</time></trkpt><trkpt lat="44.7086533" lon="9.3780433"><ele>335.0</ele><time>2026-04-17T10:43:25.943Z</time></trkpt><trkpt lat="44.7087567" lon="9.3780817"><ele>332.0</ele><time>2026-04-17T10:43:26.943Z</time></trkpt><trkpt lat="44.70886" lon="9.3781233"><ele>329.0</ele><time>2026-04-17T10:43:27.943Z</time></trkpt><trkpt lat="44.70897" lon="9.3781533"><ele>326.0</ele><time>2026-04-17T10:43:28.943Z</time></trkpt><trkpt lat="44.709085" lon="9.3781483"><ele>323.0</ele><time>2026-04-17T10:43:29.943Z</time></trkpt><trkpt lat="44.7091967" lon="9.378115"><ele>320.0</ele><time>2026-04-17T10:43:30.943Z</time></trkpt><trkpt lat="44.7093" lon="9.378075"><ele>320.0</ele><time>2026-04-17T10:43:31.943Z</time></trkpt><trkpt lat="44.7094017" lon="9.37803"><ele>320.0</ele><time>2026-04-17T10:43:32.943Z</time></trkpt><trkpt lat="44.709505" lon="9.377975"><ele>320.0</ele><time>2026-04-17T10:43:33.943Z</time></trkpt><trkpt lat="44.7096033" lon="9.3779033"><ele>320.0</ele><time>2026-04-17T10:43:34.943Z</time></trkpt><trkpt lat="44.7096917" lon="9.37783"><ele>320.0</ele><time>2026-04-17T10:43:35.943Z</time></trkpt><trkpt lat="44.709775" lon="9.3777517"><ele>320.8</ele><time>2026-04-17T10:43:36.943Z</time></trkpt><trkpt lat="44.7098567" lon="9.3776617"><ele>321.6</ele><time>2026-04-17T10:43:37.943Z</time></trkpt><trkpt lat="44.70995" lon="9.3775717"><ele>322.4</ele><time>2026-04-17T10:43:38.944Z</time></trkpt><trkpt lat="44.7100517" lon="9.3775067"><ele>323.2</ele><time>2026-04-17T10:43:39.943Z</time></trkpt><trkpt lat="44.7101533" lon="9.3774733"><ele>324.0</ele><time>2026-04-17T10:43:40.943Z</time></trkpt><trkpt lat="44.71026" lon="9.3774783"><ele>324.0</ele><time>2026-04-17T10:43:41.943Z</time></trkpt><trkpt lat="44.7103683" lon="9.3775183"><ele>324.0</ele><time>2026-04-17T10:43:42.943Z</time></trkpt><trkpt lat="44.7104683" lon="9.3776033"><ele>324.0</ele><time>2026-04-17T10:43:43.943Z</time></trkpt><trkpt lat="44.7105667" lon="9.3777283"><ele>324.0</ele><time>2026-04-17T10:43:44.943Z</time></trkpt><trkpt lat="44.7106817" lon="9.3779233"><ele>320.0</ele><time>2026-04-17T10:43:45.944Z</time></trkpt><trkpt lat="44.7108067" lon="9.3781667"><ele>316.0</ele><time>2026-04-17T10:43:46.943Z</time></trkpt><trkpt lat="44.7109433" lon="9.3784583"><ele>314.5</ele><time>2026-04-17T10:43:47.943Z</time></trkpt><trkpt lat="44.7110817" lon="9.37876"><ele>313.0</ele><time>2026-04-17T10:43:48.943Z</time></trkpt><trkpt lat="44.7112067" lon="9.3790417"><ele>313.0</ele><time>2026-04-17T10:43:49.943Z</time></trkpt><trkpt lat="44.7113183" lon="9.3792983"><ele>313.0</ele><time>2026-04-17T10:43:50.943Z</time></trkpt><trkpt lat="44.71142" lon="9.3795233"><ele>313.0</ele><time>2026-04-17T10:43:51.943Z</time></trkpt><trkpt lat="44.7115083" lon="9.3797117"><ele>314.25</ele><time>2026-04-17T10:43:52.943Z</time></trkpt><trkpt lat="44.7116117" lon="9.3798567"><ele>315.5</ele><time>2026-04-17T10:43:53.943Z</time></trkpt><trkpt lat="44.711735" lon="9.3799567"><ele>316.75</ele><time>2026-04-17T10:43:54.943Z</time></trkpt><trkpt lat="44.711875" lon="9.3800067"><ele>318.0</ele><time>2026-04-17T10:43:55.943Z</time></trkpt><trkpt lat="44.71203" lon="9.3800217"><ele>319.3333333333333</ele><time>2026-04-17T10:43:56.943Z</time></trkpt><trkpt lat="44.7121883" lon="9.3800367"><ele>320.66666666666663</ele><time>2026-04-17T10:43:57.943Z</time></trkpt><trkpt lat="44.7123433" lon="9.3800583"><ele>322.0</ele><time>2026-04-17T10:43:58.943Z</time></trkpt><trkpt lat="44.7124883" lon="9.3800833"><ele>322.0</ele><time>2026-04-17T10:43:59.943Z</time></trkpt><trkpt lat="44.712625" lon="9.3801083"><ele>322.0</ele><time>2026-04-17T10:44:00.943Z</time></trkpt><trkpt lat="44.7127533" lon="9.3801333"><ele>322.0</ele><time>2026-04-17T10:44:01.943Z</time></trkpt><trkpt lat="44.71288" lon="9.3801633"><ele>322.0</ele><time>2026-04-17T10:44:02.943Z</time></trkpt><trkpt lat="44.712995" lon="9.3801917"><ele>322.20000000000005</ele><time>2026-04-17T10:44:03.943Z</time></trkpt><trkpt lat="44.7131033" lon="9.3802333"><ele>322.4</ele><time>2026-04-17T10:44:04.943Z</time></trkpt><trkpt lat="44.7132033" lon="9.38029"><ele>322.6</ele><time>2026-04-17T10:44:05.943Z</time></trkpt><trkpt lat="44.7132933" lon="9.3803783"><ele>322.79999999999995</ele><time>2026-04-17T10:44:06.943Z</time></trkpt><trkpt lat="44.7133767" lon="9.3804833"><ele>323.0</ele><time>2026-04-17T10:44:07.943Z</time></trkpt><trkpt lat="44.713465" lon="9.380605"><ele>323.0</ele><time>2026-04-17T10:44:08.943Z</time></trkpt><trkpt lat="44.71356" lon="9.3807533"><ele>323.0</ele><time>2026-04-17T10:44:09.943Z</time></trkpt><trkpt lat="44.71365" lon="9.3809017"><ele>323.0</ele><time>2026-04-17T10:44:10.943Z</time></trkpt><trkpt lat="44.7137333" lon="9.3810583"><ele>323.0</ele><time>2026-04-17T10:44:11.943Z</time></trkpt><trkpt lat="44.7137967" lon="9.38122"><ele>320.75</ele><time>2026-04-17T10:44:12.943Z</time></trkpt><trkpt lat="44.713825" lon="9.3813967"><ele>318.5</ele><time>2026-04-17T10:44:13.943Z</time></trkpt><trkpt lat="44.71384" lon="9.3815817"><ele>316.25</ele><time>2026-04-17T10:44:14.943Z</time></trkpt><trkpt lat="44.7138533" lon="9.3817783"><ele>314.0</ele><time>2026-04-17T10:44:15.943Z</time></trkpt><trkpt lat="44.7138633" lon="9.381975"><ele>314.0</ele><time>2026-04-17T10:44:16.943Z</time></trkpt><trkpt lat="44.71388" lon="9.38218"><ele>314.0</ele><time>2026-04-17T10:44:17.943Z</time></trkpt><trkpt lat="44.713915" lon="9.3823817"><ele>314.0</ele><time>2026-04-17T10:44:18.943Z</time></trkpt><trkpt lat="44.7139817" lon="9.382585"><ele>315.0</ele><time>2026-04-17T10:44:19.943Z</time></trkpt><trkpt lat="44.7140917" lon="9.3827917"><ele>316.0</ele><time>2026-04-17T10:44:20.943Z</time></trkpt><trkpt lat="44.71422" lon="9.3829917"><ele>317.0</ele><time>2026-04-17T10:44:21.944Z</time></trkpt><trkpt lat="44.7143417" lon="9.38318"><ele>315.33333333333337</ele><time>2026-04-17T10:44:22.942Z</time></trkpt><trkpt lat="44.7144367" lon="9.38337"><ele>313.6666666666667</ele><time>2026-04-17T10:44:23.942Z</time></trkpt><trkpt lat="44.7144867" lon="9.3835817"><ele>312.0</ele><time>2026-04-17T10:44:24.943Z</time></trkpt><trkpt lat="44.71448" lon="9.3838183"><ele>310.6666666666667</ele><time>2026-04-17T10:44:25.943Z</time></trkpt><trkpt lat="44.71445" lon="9.38407"><ele>309.33333333333337</ele><time>2026-04-17T10:44:26.943Z</time></trkpt><trkpt lat="44.7144167" lon="9.3843383"><ele>308.0</ele><time>2026-04-17T10:44:27.943Z</time></trkpt><trkpt lat="44.714395" lon="9.38461"><ele>308.0</ele><time>2026-04-17T10:44:28.943Z</time></trkpt><trkpt lat="44.7143867" lon="9.38488"><ele>308.0</ele><time>2026-04-17T10:44:29.943Z</time></trkpt><trkpt lat="44.7144117" lon="9.3851517"><ele>308.0</ele><time>2026-04-17T10:44:30.943Z</time></trkpt><trkpt lat="44.714495" lon="9.385435"><ele>311.5</ele><time>2026-04-17T10:44:31.943Z</time></trkpt><trkpt lat="44.71459" lon="9.3857367"><ele>315.0</ele><time>2026-04-17T10:44:32.943Z</time></trkpt><trkpt lat="44.7147133" lon="9.3860467"><ele>320.5</ele><time>2026-04-17T10:44:33.943Z</time></trkpt><trkpt lat="44.71483" lon="9.3863517"><ele>326.0</ele><time>2026-04-17T10:44:34.943Z</time></trkpt><trkpt lat="44.7149367" lon="9.386645"><ele>326.0</ele><time>2026-04-17T10:44:35.943Z</time></trkpt><trkpt lat="44.71505" lon="9.3869167"><ele>326.0</ele><time>2026-04-17T10:44:36.943Z</time></trkpt><trkpt lat="44.7151483" lon="9.38717"><ele>326.0</ele><time>2026-04-17T10:44:37.943Z</time></trkpt><trkpt lat="44.7152483" lon="9.3874167"><ele>318.5</ele><time>2026-04-17T10:44:38.944Z</time></trkpt><trkpt lat="44.7154067" lon="9.387645"><ele>311.0</ele><time>2026-04-17T10:44:39.943Z</time></trkpt><trkpt lat="44.7155767" lon="9.387865"><ele>315.33333333333337</ele><time>2026-04-17T10:44:40.942Z</time></trkpt><trkpt lat="44.7157167" lon="9.3881083"><ele>319.6666666666667</ele><time>2026-04-17T10:44:41.943Z</time></trkpt><trkpt lat="44.7158183" lon="9.3883867"><ele>324.0</ele><time>2026-04-17T10:44:42.942Z</time></trkpt><trkpt lat="44.715885" lon="9.3886767"><ele>320.0</ele><time>2026-04-17T10:44:43.942Z</time></trkpt><trkpt lat="44.7159583" lon="9.388945"><ele>316.0</ele><time>2026-04-17T10:44:44.942Z</time></trkpt><trkpt lat="44.7160533" lon="9.389185"><ele>312.0</ele><time>2026-04-17T10:44:45.942Z</time></trkpt><trkpt lat="44.716205" lon="9.38939"><ele>312.0</ele><time>2026-04-17T10:44:46.942Z</time></trkpt><trkpt lat="44.7163817" lon="9.3895733"><ele>312.0</ele><time>2026-04-17T10:44:47.942Z</time></trkpt><trkpt lat="44.7165817" lon="9.389755"><ele>322.0</ele><time>2026-04-17T10:44:48.942Z</time></trkpt><trkpt lat="44.716815" lon="9.3899183"><ele>332.0</ele><time>2026-04-17T10:44:49.942Z</time></trkpt><trkpt lat="44.71704" lon="9.3900683"><ele>332.0</ele><time>2026-04-17T10:44:50.942Z</time></trkpt><trkpt lat="44.7172633" lon="9.39019"><ele>332.0</ele><time>2026-04-17T10:44:51.942Z</time></trkpt><trkpt lat="44.71752" lon="9.3902433"><ele>328.5</ele><time>2026-04-17T10:44:52.943Z</time></trkpt><trkpt lat="44.7177933" lon="9.390255"><ele>325.0</ele><time>2026-04-17T10:44:53.942Z</time></trkpt><trkpt lat="44.7180633" lon="9.39028"><ele>325.0</ele><time>2026-04-17T10:44:54.942Z</time></trkpt><trkpt lat="44.718315" lon="9.3903183"><ele>325.0</ele><time>2026-04-17T10:44:55.942Z</time></trkpt><trkpt lat="44.7185533" lon="9.3903367"><ele>324.3333333333333</ele><time>2026-04-17T10:44:56.942Z</time></trkpt><trkpt lat="44.71877" lon="9.3902967"><ele>323.6666666666667</ele><time>2026-04-17T10:44:57.943Z</time></trkpt><trkpt lat="44.7189683" lon="9.3902067"><ele>323.0</ele><time>2026-04-17T10:44:58.942Z</time></trkpt><trkpt lat="44.719165" lon="9.3901133"><ele>323.0</ele><time>2026-04-17T10:44:59.942Z</time></trkpt><trkpt lat="44.7193783" lon="9.3900683"><ele>323.0</ele><time>2026-04-17T10:45:00.943Z</time></trkpt><trkpt lat="44.7195883" lon="9.39007"><ele>323.0</ele><time>2026-04-17T10:45:01.943Z</time></trkpt><trkpt lat="44.7197833" lon="9.390105"><ele>321.6666666666667</ele><time>2026-04-17T10:45:02.942Z</time></trkpt><trkpt lat="44.719955" lon="9.3901817"><ele>320.3333333333333</ele><time>2026-04-17T10:45:03.942Z</time></trkpt><trkpt lat="44.7201117" lon="9.3902933"><ele>319.0</ele><time>2026-04-17T10:45:04.942Z</time></trkpt><trkpt lat="44.720245" lon="9.3904533"><ele>313.66666666666663</ele><time>2026-04-17T10:45:05.942Z</time></trkpt><trkpt lat="44.72032" lon="9.3906633"><ele>308.3333333333333</ele><time>2026-04-17T10:45:06.942Z</time></trkpt><trkpt lat="44.7203367" lon="9.39093"><ele>303.0</ele><time>2026-04-17T10:45:07.942Z</time></trkpt><trkpt lat="44.7203417" lon="9.3912517"><ele>306.0</ele><time>2026-04-17T10:45:08.942Z</time></trkpt><trkpt lat="44.720345" lon="9.3915767"><ele>309.0</ele><time>2026-04-17T10:45:09.942Z</time></trkpt><trkpt lat="44.72036" lon="9.3918917"><ele>313.3333333333333</ele><time>2026-04-17T10:45:10.942Z</time></trkpt><trkpt lat="44.7204033" lon="9.392195"><ele>317.66666666666663</ele><time>2026-04-17T10:45:11.943Z</time></trkpt><trkpt lat="44.7204767" lon="9.3924733"><ele>322.0</ele><time>2026-04-17T10:45:12.942Z</time></trkpt><trkpt lat="44.7205767" lon="9.3927133"><ele>322.0</ele><time>2026-04-17T10:45:13.942Z</time></trkpt><trkpt lat="44.7206867" lon="9.3929167"><ele>322.0</ele><time>2026-04-17T10:45:14.942Z</time></trkpt><trkpt lat="44.7207717" lon="9.3931267"><ele>322.0</ele><time>2026-04-17T10:45:15.942Z</time></trkpt><trkpt lat="44.7208233" lon="9.393335"><ele>323.0</ele><time>2026-04-17T10:45:16.943Z</time></trkpt><trkpt lat="44.7208" lon="9.3935433"><ele>324.0</ele><time>2026-04-17T10:45:17.943Z</time></trkpt><trkpt lat="44.720745" lon="9.393745"><ele>325.0</ele><time>2026-04-17T10:45:18.942Z</time></trkpt><trkpt lat="44.720655" lon="9.3939717"><ele>325.0</ele><time>2026-04-17T10:45:19.942Z</time></trkpt><trkpt lat="44.7205433" lon="9.3942417"><ele>325.0</ele><time>2026-04-17T10:45:20.942Z</time></trkpt><trkpt lat="44.7204483" lon="9.394515"><ele>325.0</ele><time>2026-04-17T10:45:21.942Z</time></trkpt><trkpt lat="44.7204467" lon="9.3947317"><ele>331.0</ele><time>2026-04-17T10:45:22.942Z</time></trkpt><trkpt lat="44.7204733" lon="9.3949083"><ele>337.0</ele><time>2026-04-17T10:45:23.942Z</time></trkpt><trkpt lat="44.72054" lon="9.3950533"><ele>343.0</ele><time>2026-04-17T10:45:24.942Z</time></trkpt><trkpt lat="44.7206483" lon="9.3951567"><ele>349.0</ele><time>2026-04-17T10:45:25.942Z</time></trkpt><trkpt lat="44.7207833" lon="9.3952"><ele>349.0</ele><time>2026-04-17T10:45:26.942Z</time></trkpt><trkpt lat="44.720935" lon="9.3951783"><ele>349.0</ele><time>2026-04-17T10:45:27.942Z</time></trkpt><trkpt lat="44.72111" lon="9.3950583"><ele>349.0</ele><time>2026-04-17T10:45:28.942Z</time></trkpt><trkpt lat="44.7212833" lon="9.3948867"><ele>345.0</ele><time>2026-04-17T10:45:29.942Z</time></trkpt><trkpt lat="44.721405" lon="9.3946883"><ele>341.0</ele><time>2026-04-17T10:45:30.942Z</time></trkpt><trkpt lat="44.7214233" lon="9.39436"><ele>337.0</ele><time>2026-04-17T10:45:31.942Z</time></trkpt><trkpt lat="44.72149" lon="9.3942017"><ele>337.0</ele><time>2026-04-17T10:45:32.942Z</time></trkpt><trkpt lat="44.7215667" lon="9.3940483"><ele>337.0</ele><time>2026-04-17T10:45:33.943Z</time></trkpt><trkpt lat="44.7216583" lon="9.39396"><ele>337.0</ele><time>2026-04-17T10:45:34.943Z</time></trkpt><trkpt lat="44.72177" lon="9.393925"><ele>337.0</ele><time>2026-04-17T10:45:35.942Z</time></trkpt><trkpt lat="44.7218817" lon="9.3939117"><ele>338.0</ele><time>2026-04-17T10:45:36.942Z</time></trkpt><trkpt lat="44.722035" lon="9.39394"><ele>339.0</ele><time>2026-04-17T10:45:37.942Z</time></trkpt><trkpt lat="44.7221883" lon="9.394025"><ele>340.0</ele><time>2026-04-17T10:45:38.942Z</time></trkpt><trkpt lat="44.7223217" lon="9.3942417"><ele>340.0</ele><time>2026-04-17T10:45:39.942Z</time></trkpt><trkpt lat="44.7224517" lon="9.3943117"><ele>340.0</ele><time>2026-04-17T10:45:40.942Z</time></trkpt><trkpt lat="44.7225333" lon="9.394355"><ele>340.0</ele><time>2026-04-17T10:45:41.942Z</time></trkpt><trkpt lat="44.7226217" lon="9.3943517"><ele>340.0</ele><time>2026-04-17T10:45:42.942Z</time></trkpt><trkpt lat="44.7226983" lon="9.3943167"><ele>340.0</ele><time>2026-04-17T10:45:43.942Z</time></trkpt><trkpt lat="44.7227833" lon="9.39423"><ele>345.6</ele><time>2026-04-17T10:45:44.942Z</time></trkpt><trkpt lat="44.7228783" lon="9.3941567"><ele>351.2</ele><time>2026-04-17T10:45:45.942Z</time></trkpt><trkpt lat="44.7229833" lon="9.3941167"><ele>356.79999999999995</ele><time>2026-04-17T10:45:46.942Z</time></trkpt><trkpt lat="44.7230817" lon="9.3940867"><ele>362.4</ele><time>2026-04-17T10:45:47.943Z</time></trkpt><trkpt lat="44.723165" lon="9.3940517"><ele>368.0</ele><time>2026-04-17T10:45:48.942Z</time></trkpt><trkpt lat="44.7232383" lon="9.3940333"><ele>368.0</ele><time>2026-04-17T10:45:49.942Z</time></trkpt><trkpt lat="44.7233317" lon="9.393975"><ele>368.0</ele><time>2026-04-17T10:45:57.942Z</time></trkpt><trkpt lat="44.7233967" lon="9.3939283"><ele>368.0</ele><time>2026-04-17T10:45:58.942Z</time></trkpt><trkpt lat="44.7235333" lon="9.39384"><ele>368.0</ele><time>2026-04-17T10:45:59.942Z</time></trkpt><trkpt lat="44.723685" lon="9.393715"><ele>367.33333333333337</ele><time>2026-04-17T10:46:00.942Z</time></trkpt><trkpt lat="44.72384" lon="9.3935683"><ele>366.6666666666667</ele><time>2026-04-17T10:46:01.942Z</time></trkpt><trkpt lat="44.7239817" lon="9.39337"><ele>366.0</ele><time>2026-04-17T10:46:02.942Z</time></trkpt><trkpt lat="44.724125" lon="9.3931467"><ele>370.3333333333333</ele><time>2026-04-17T10:46:03.942Z</time></trkpt><trkpt lat="44.7242683" lon="9.392905"><ele>374.66666666666663</ele><time>2026-04-17T10:46:04.942Z</time></trkpt><trkpt lat="44.7244017" lon="9.3926683"><ele>379.0</ele><time>2026-04-17T10:46:05.942Z</time></trkpt><trkpt lat="44.72452" lon="9.3924133"><ele>370.5</ele><time>2026-04-17T10:46:06.942Z</time></trkpt><trkpt lat="44.7246267" lon="9.3921333"><ele>362.0</ele><time>2026-04-17T10:46:07.942Z</time></trkpt><trkpt lat="44.7247133" lon="9.3918"><ele>362.0</ele><time>2026-04-17T10:46:08.942Z</time></trkpt><trkpt lat="44.7247933" lon="9.391475"><ele>362.0</ele><time>2026-04-17T10:46:09.942Z</time></trkpt><trkpt lat="44.7248617" lon="9.3911733"><ele>361.0</ele><time>2026-04-17T10:46:10.942Z</time></trkpt><trkpt lat="44.7249217" lon="9.3909133"><ele>360.0</ele><time>2026-04-17T10:46:11.942Z</time></trkpt><trkpt lat="44.724955" lon="9.3906833"><ele>359.0</ele><time>2026-04-17T10:46:12.943Z</time></trkpt><trkpt lat="44.7249367" lon="9.3904783"><ele>359.0</ele><time>2026-04-17T10:46:13.942Z</time></trkpt><trkpt lat="44.7248667" lon="9.3903017"><ele>359.0</ele><time>2026-04-17T10:46:14.942Z</time></trkpt><trkpt lat="44.7248083" lon="9.3901267"><ele>359.0</ele><time>2026-04-17T10:46:15.942Z</time></trkpt><trkpt lat="44.7247817" lon="9.38992"><ele>359.0</ele><time>2026-04-17T10:46:16.942Z</time></trkpt><trkpt lat="44.7247833" lon="9.3897167"><ele>358.33333333333337</ele><time>2026-04-17T10:46:17.942Z</time></trkpt><trkpt lat="44.7248333" lon="9.3894667"><ele>357.6666666666667</ele><time>2026-04-17T10:46:18.942Z</time></trkpt><trkpt lat="44.7249117" lon="9.3892333"><ele>357.0</ele><time>2026-04-17T10:46:19.942Z</time></trkpt><trkpt lat="44.7250133" lon="9.3890217"><ele>357.0</ele><time>2026-04-17T10:46:20.942Z</time></trkpt><trkpt lat="44.7251483" lon="9.388845"><ele>357.0</ele><time>2026-04-17T10:46:21.942Z</time></trkpt><trkpt lat="44.72532" lon="9.3886833"><ele>357.0</ele><time>2026-04-17T10:46:22.942Z</time></trkpt><trkpt lat="44.7255" lon="9.3885233"><ele>363.0</ele><time>2026-04-17T10:46:23.942Z</time></trkpt><trkpt lat="44.7256883" lon="9.3883467"><ele>369.0</ele><time>2026-04-17T10:46:24.942Z</time></trkpt><trkpt lat="44.72586" lon="9.3881267"><ele>382.0</ele><time>2026-04-17T10:46:25.942Z</time></trkpt><trkpt lat="44.7260183" lon="9.3878783"><ele>395.0</ele><time>2026-04-17T10:46:26.942Z</time></trkpt><trkpt lat="44.726155" lon="9.3876117"><ele>395.0</ele><time>2026-04-17T10:46:27.942Z</time></trkpt><trkpt lat="44.7262817" lon="9.38735"><ele>395.0</ele><time>2026-04-17T10:46:28.942Z</time></trkpt><trkpt lat="44.7263717" lon="9.3870683"><ele>395.0</ele><time>2026-04-17T10:46:29.942Z</time></trkpt><trkpt lat="44.72642" lon="9.3867867"><ele>388.66666666666663</ele><time>2026-04-17T10:46:30.942Z</time></trkpt><trkpt lat="44.7264267" lon="9.3864967"><ele>382.3333333333333</ele><time>2026-04-17T10:46:31.942Z</time></trkpt><trkpt lat="44.7264133" lon="9.3861933"><ele>376.0</ele><time>2026-04-17T10:46:32.943Z</time></trkpt><trkpt lat="44.72637" lon="9.385915"><ele>371.25</ele><time>2026-04-17T10:46:33.942Z</time></trkpt><trkpt lat="44.726325" lon="9.3856617"><ele>366.5</ele><time>2026-04-17T10:46:34.942Z</time></trkpt><trkpt lat="44.7262833" lon="9.3854633"><ele>361.75</ele><time>2026-04-17T10:46:35.943Z</time></trkpt><trkpt lat="44.7262317" lon="9.38532"><ele>357.0</ele><time>2026-04-17T10:46:36.942Z</time></trkpt><trkpt lat="44.7262133" lon="9.3851983"><ele>349.0</ele><time>2026-04-17T10:46:37.943Z</time></trkpt><trkpt lat="44.7262133" lon="9.385055"><ele>341.0</ele><time>2026-04-17T10:46:38.943Z</time></trkpt><trkpt lat="44.726225" lon="9.3849517"><ele>333.0</ele><time>2026-04-17T10:46:39.942Z</time></trkpt><trkpt lat="44.72625" lon="9.38487"><ele>325.0</ele><time>2026-04-17T10:46:40.942Z</time></trkpt><trkpt lat="44.72634" lon="9.384885"><ele>317.0</ele><time>2026-04-17T10:46:41.942Z</time></trkpt><trkpt lat="44.726615" lon="9.3852733"><ele>333.0</ele><time>2026-04-17T10:46:42.942Z</time></trkpt><trkpt lat="44.7269467" lon="9.385715"><ele>333.0</ele><time>2026-04-17T10:46:43.942Z</time></trkpt><trkpt lat="44.7272083" lon="9.3859883"><ele>333.0</ele><time>2026-04-17T10:46:44.942Z</time></trkpt><trkpt lat="44.7274467" lon="9.3861983"><ele>346.5</ele><time>2026-04-17T10:46:45.942Z</time></trkpt><trkpt lat="44.7276917" lon="9.3863683"><ele>360.0</ele><time>2026-04-17T10:46:46.943Z</time></trkpt><trkpt lat="44.7279533" lon="9.3865167"><ele>360.0</ele><time>2026-04-17T10:46:47.942Z</time></trkpt><trkpt lat="44.7281867" lon="9.3866167"><ele>360.0</ele><time>2026-04-17T10:46:48.942Z</time></trkpt><trkpt lat="44.7283967" lon="9.3867017"><ele>346.6666666666667</ele><time>2026-04-17T10:46:49.943Z</time></trkpt><trkpt lat="44.728575" lon="9.3867617"><ele>333.33333333333337</ele><time>2026-04-17T10:46:50.942Z</time></trkpt><trkpt lat="44.7287317" lon="9.38681"><ele>320.0</ele><time>2026-04-17T10:46:51.942Z</time></trkpt><trkpt lat="44.7288183" lon="9.3869217"><ele>320.0</ele><time>2026-04-17T10:46:52.942Z</time></trkpt><trkpt lat="44.7288767" lon="9.3870633"><ele>320.0</ele><time>2026-04-17T10:46:53.942Z</time></trkpt><trkpt lat="44.7289683" lon="9.3871967"><ele>320.0</ele><time>2026-04-17T10:46:54.942Z</time></trkpt><trkpt lat="44.7290717" lon="9.3873083"><ele>320.0</ele><time>2026-04-17T10:46:55.943Z</time></trkpt><trkpt lat="44.7292117" lon="9.3873967"><ele>325.33333333333337</ele><time>2026-04-17T10:46:56.942Z</time></trkpt><trkpt lat="44.7293517" lon="9.3874533"><ele>330.6666666666667</ele><time>2026-04-17T10:46:57.942Z</time></trkpt><trkpt lat="44.7295133" lon="9.3874717"><ele>336.0</ele><time>2026-04-17T10:46:58.943Z</time></trkpt><trkpt lat="44.72966" lon="9.38754"><ele>336.0</ele><time>2026-04-17T10:46:59.942Z</time></trkpt><trkpt lat="44.7297933" lon="9.3876767"><ele>336.0</ele><time>2026-04-17T10:47:00.942Z</time></trkpt><trkpt lat="44.72993" lon="9.387805"><ele>336.0</ele><time>2026-04-17T10:47:01.942Z</time></trkpt><trkpt lat="44.7300783" lon="9.3879017"><ele>344.0</ele><time>2026-04-17T10:47:02.942Z</time></trkpt><trkpt lat="44.730235" lon="9.387995"><ele>352.0</ele><time>2026-04-17T10:47:03.942Z</time></trkpt><trkpt lat="44.7303933" lon="9.388075"><ele>360.0</ele><time>2026-04-17T10:47:04.942Z</time></trkpt><trkpt lat="44.730555" lon="9.3881167"><ele>360.0</ele><time>2026-04-17T10:47:05.942Z</time></trkpt><trkpt lat="44.7307017" lon="9.3881467"><ele>360.0</ele><time>2026-04-17T10:47:06.942Z</time></trkpt><trkpt lat="44.7308383" lon="9.3882033"><ele>360.0</ele><time>2026-04-17T10:47:07.942Z</time></trkpt><trkpt lat="44.7309467" lon="9.388305"><ele>360.0</ele><time>2026-04-17T10:47:08.942Z</time></trkpt><trkpt lat="44.731055" lon="9.3884083"><ele>353.6666666666667</ele><time>2026-04-17T10:47:09.942Z</time></trkpt><trkpt lat="44.7311717" lon="9.3884867"><ele>347.33333333333337</ele><time>2026-04-17T10:47:10.942Z</time></trkpt><trkpt lat="44.7313183" lon="9.3885167"><ele>341.0</ele><time>2026-04-17T10:47:11.942Z</time></trkpt><trkpt lat="44.7315067" lon="9.3884883"><ele>341.0</ele><time>2026-04-17T10:47:12.942Z</time></trkpt><trkpt lat="44.7317017" lon="9.388475"><ele>341.0</ele><time>2026-04-17T10:47:13.943Z</time></trkpt><trkpt lat="44.7318883" lon="9.3885117"><ele>341.0</ele><time>2026-04-17T10:47:14.942Z</time></trkpt><trkpt lat="44.7320533" lon="9.3885933"><ele>335.25</ele><time>2026-04-17T10:47:15.942Z</time></trkpt><trkpt lat="44.73219" lon="9.388715"><ele>329.5</ele><time>2026-04-17T10:47:16.942Z</time></trkpt><trkpt lat="44.7322983" lon="9.3888433"><ele>323.75</ele><time>2026-04-17T10:47:17.942Z</time></trkpt><trkpt lat="44.7323967" lon="9.388955"><ele>318.0</ele><time>2026-04-17T10:47:18.942Z</time></trkpt><trkpt lat="44.73251" lon="9.389025"><ele>328.0</ele><time>2026-04-17T10:47:19.942Z</time></trkpt><trkpt lat="44.7326567" lon="9.38905"><ele>338.0</ele><time>2026-04-17T10:47:20.942Z</time></trkpt><trkpt lat="44.7328417" lon="9.3890817"><ele>348.0</ele><time>2026-04-17T10:47:21.942Z</time></trkpt><trkpt lat="44.7330483" lon="9.3891183"><ele>348.0</ele><time>2026-04-17T10:47:22.942Z</time></trkpt><trkpt lat="44.7332483" lon="9.3891717"><ele>348.0</ele><time>2026-04-17T10:47:23.942Z</time></trkpt><trkpt lat="44.733435" lon="9.3892083"><ele>348.0</ele><time>2026-04-17T10:47:24.942Z</time></trkpt><trkpt lat="44.7336117" lon="9.389195"><ele>347.0</ele><time>2026-04-17T10:47:25.942Z</time></trkpt><trkpt lat="44.7337933" lon="9.3891733"><ele>346.0</ele><time>2026-04-17T10:47:26.942Z</time></trkpt><trkpt lat="44.7339817" lon="9.3891667"><ele>345.0</ele><time>2026-04-17T10:47:27.943Z</time></trkpt><trkpt lat="44.7341717" lon="9.389185"><ele>345.0</ele><time>2026-04-17T10:47:28.942Z</time></trkpt><trkpt lat="44.7343567" lon="9.3892367"><ele>345.0</ele><time>2026-04-17T10:47:29.942Z</time></trkpt><trkpt lat="44.73454" lon="9.389345"><ele>345.0</ele><time>2026-04-17T10:47:30.942Z</time></trkpt><trkpt lat="44.7347333" lon="9.3894733"><ele>337.5</ele><time>2026-04-17T10:47:31.942Z</time></trkpt><trkpt lat="44.7349433" lon="9.3895967"><ele>330.0</ele><time>2026-04-17T10:47:32.942Z</time></trkpt><trkpt lat="44.7351617" lon="9.389685"><ele>340.0</ele><time>2026-04-17T10:47:33.942Z</time></trkpt><trkpt lat="44.7353717" lon="9.3897533"><ele>350.0</ele><time>2026-04-17T10:47:34.942Z</time></trkpt><trkpt lat="44.73559" lon="9.389785"><ele>360.0</ele><time>2026-04-17T10:47:35.942Z</time></trkpt><trkpt lat="44.7358283" lon="9.3897883"><ele>362.0</ele><time>2026-04-17T10:47:36.942Z</time></trkpt><trkpt lat="44.736075" lon="9.38978"><ele>364.0</ele><time>2026-04-17T10:47:37.942Z</time></trkpt><trkpt lat="44.7363167" lon="9.3897467"><ele>364.0</ele><time>2026-04-17T10:47:38.942Z</time></trkpt><trkpt lat="44.7365433" lon="9.389735"><ele>364.0</ele><time>2026-04-17T10:47:39.942Z</time></trkpt><trkpt lat="44.7367583" lon="9.3897017"><ele>364.0</ele><time>2026-04-17T10:47:40.943Z</time></trkpt><trkpt lat="44.7369733" lon="9.3896367"><ele>348.5</ele><time>2026-04-17T10:47:41.942Z</time></trkpt><trkpt lat="44.7371917" lon="9.3895367"><ele>333.0</ele><time>2026-04-17T10:47:42.942Z</time></trkpt><trkpt lat="44.7374033" lon="9.3893967"><ele>333.0</ele><time>2026-04-17T10:47:43.942Z</time></trkpt><trkpt lat="44.7376017" lon="9.389225"><ele>333.0</ele><time>2026-04-17T10:47:44.942Z</time></trkpt><trkpt lat="44.7377817" lon="9.3890533"><ele>333.3333333333333</ele><time>2026-04-17T10:47:45.942Z</time></trkpt><trkpt lat="44.7379433" lon="9.3888833"><ele>333.66666666666663</ele><time>2026-04-17T10:47:46.943Z</time></trkpt><trkpt lat="44.7380833" lon="9.3887083"><ele>334.0</ele><time>2026-04-17T10:47:47.942Z</time></trkpt><trkpt lat="44.7382083" lon="9.38855"><ele>332.0</ele><time>2026-04-17T10:47:48.942Z</time></trkpt><trkpt lat="44.7383233" lon="9.388415"><ele>330.0</ele><time>2026-04-17T10:47:49.942Z</time></trkpt><trkpt lat="44.7384233" lon="9.388295"><ele>328.0</ele><time>2026-04-17T10:47:50.942Z</time></trkpt><trkpt lat="44.7385083" lon="9.3881883"><ele>326.0</ele><time>2026-04-17T10:47:51.942Z</time></trkpt><trkpt lat="44.7385783" lon="9.3880783"><ele>326.33333333333337</ele><time>2026-04-17T10:47:52.942Z</time></trkpt><trkpt lat="44.7386433" lon="9.38798"><ele>326.6666666666667</ele><time>2026-04-17T10:47:53.943Z</time></trkpt><trkpt lat="44.7387033" lon="9.3879033"><ele>327.0</ele><time>2026-04-17T10:47:54.942Z</time></trkpt><trkpt lat="44.7387583" lon="9.3878367"><ele>327.3333333333333</ele><time>2026-04-17T10:47:55.942Z</time></trkpt><trkpt lat="44.73881" lon="9.3877733"><ele>327.66666666666663</ele><time>2026-04-17T10:47:56.942Z</time></trkpt><trkpt lat="44.7388983" lon="9.387675"><ele>328.0</ele><time>2026-04-17T10:47:58.942Z</time></trkpt><trkpt lat="44.7389533" lon="9.387605"><ele>328.0</ele><time>2026-04-17T10:48:00.943Z</time></trkpt><trkpt lat="44.7390467" lon="9.387575"><ele>328.0</ele><time>2026-04-17T10:50:23.942Z</time></trkpt><trkpt lat="44.7391933" lon="9.3874517"><ele>328.0</ele><time>2026-04-17T10:50:25.942Z</time></trkpt><trkpt lat="44.73931" lon="9.3873783"><ele>328.0</ele><time>2026-04-17T10:50:26.942Z</time></trkpt><trkpt lat="44.73951" lon="9.3872867"><ele>324.0</ele><time>2026-04-17T10:50:27.942Z</time></trkpt><trkpt lat="44.73972" lon="9.3872267"><ele>320.0</ele><time>2026-04-17T10:50:28.942Z</time></trkpt><trkpt lat="44.7399217" lon="9.3872133"><ele>316.0</ele><time>2026-04-17T10:50:29.942Z</time></trkpt><trkpt lat="44.7401233" lon="9.3872367"><ele>329.3333333333333</ele><time>2026-04-17T10:50:30.942Z</time></trkpt><trkpt lat="44.740325" lon="9.3873017"><ele>342.6666666666667</ele><time>2026-04-17T10:50:31.942Z</time></trkpt><trkpt lat="44.7405333" lon="9.3873967"><ele>356.0</ele><time>2026-04-17T10:50:32.942Z</time></trkpt><trkpt lat="44.7407467" lon="9.38752"><ele>356.0</ele><time>2026-04-17T10:50:33.942Z</time></trkpt><trkpt lat="44.7409633" lon="9.3876467"><ele>356.0</ele><time>2026-04-17T10:50:34.942Z</time></trkpt><trkpt lat="44.7411817" lon="9.3877717"><ele>358.5</ele><time>2026-04-17T10:50:35.942Z</time></trkpt><trkpt lat="44.7414033" lon="9.3878983"><ele>361.0</ele><time>2026-04-17T10:50:36.942Z</time></trkpt><trkpt lat="44.7416217" lon="9.3880233"><ele>333.0</ele><time>2026-04-17T10:50:37.942Z</time></trkpt><trkpt lat="44.74231" lon="9.3884717"><ele>333.0</ele><time>2026-04-17T10:50:40.942Z</time></trkpt><trkpt lat="44.7426417" lon="9.38863"><ele>333.0</ele><time>2026-04-17T10:50:41.942Z</time></trkpt><trkpt lat="44.7429267" lon="9.3888017"><ele>340.0</ele><time>2026-04-17T10:50:42.942Z</time></trkpt><trkpt lat="44.7432" lon="9.3889367"><ele>347.0</ele><time>2026-04-17T10:50:43.942Z</time></trkpt><trkpt lat="44.7434833" lon="9.3890083"><ele>338.5</ele><time>2026-04-17T10:50:44.942Z</time></trkpt><trkpt lat="44.743765" lon="9.389005"><ele>330.0</ele><time>2026-04-17T10:50:45.942Z</time></trkpt><trkpt lat="44.74404" lon="9.3889967"><ele>330.0</ele><time>2026-04-17T10:50:46.942Z</time></trkpt><trkpt lat="44.7443133" lon="9.3890317"><ele>330.0</ele><time>2026-04-17T10:50:47.942Z</time></trkpt><trkpt lat="44.7445933" lon="9.3891383"><ele>322.0</ele><time>2026-04-17T10:50:48.942Z</time></trkpt><trkpt lat="44.7448533" lon="9.389305"><ele>314.0</ele><time>2026-04-17T10:50:49.942Z</time></trkpt><trkpt lat="44.7451017" lon="9.3895"><ele>318.0</ele><time>2026-04-17T10:50:50.942Z</time></trkpt><trkpt lat="44.7453517" lon="9.3896833"><ele>322.0</ele><time>2026-04-17T10:50:51.942Z</time></trkpt><trkpt lat="44.7455983" lon="9.38986"><ele>322.0</ele><time>2026-04-17T10:50:52.942Z</time></trkpt><trkpt lat="44.7458533" lon="9.39"><ele>322.0</ele><time>2026-04-17T10:50:53.942Z</time></trkpt><trkpt lat="44.7461083" lon="9.39011"><ele>314.0</ele><time>2026-04-17T10:50:54.942Z</time></trkpt><trkpt lat="44.746365" lon="9.3901833"><ele>306.0</ele><time>2026-04-17T10:50:55.942Z</time></trkpt><trkpt lat="44.74663" lon="9.3902017"><ele>315.0</ele><time>2026-04-17T10:50:56.943Z</time></trkpt><trkpt lat="44.7468983" lon="9.39016"><ele>324.0</ele><time>2026-04-17T10:50:57.942Z</time></trkpt><trkpt lat="44.7471583" lon="9.3900733"><ele>324.0</ele><time>2026-04-17T10:50:58.942Z</time></trkpt><trkpt lat="44.7474117" lon="9.3899333"><ele>324.0</ele><time>2026-04-17T10:50:59.942Z</time></trkpt><trkpt lat="44.7476517" lon="9.3897383"><ele>330.5</ele><time>2026-04-17T10:51:00.942Z</time></trkpt><trkpt lat="44.7478733" lon="9.3894833"><ele>337.0</ele><time>2026-04-17T10:51:01.942Z</time></trkpt><trkpt lat="44.7480683" lon="9.389185"><ele>322.0</ele><time>2026-04-17T10:51:02.942Z</time></trkpt><trkpt lat="44.7482533" lon="9.3888317"><ele>307.0</ele><time>2026-04-17T10:51:03.942Z</time></trkpt><trkpt lat="44.7484317" lon="9.3884383"><ele>327.0</ele><time>2026-04-17T10:51:04.942Z</time></trkpt><trkpt lat="44.7486017" lon="9.388015"><ele>347.0</ele><time>2026-04-17T10:51:05.942Z</time></trkpt><trkpt lat="44.748755" lon="9.3875717"><ele>339.0</ele><time>2026-04-17T10:51:06.942Z</time></trkpt><trkpt lat="44.7488783" lon="9.3871317"><ele>331.0</ele><time>2026-04-17T10:51:07.943Z</time></trkpt><trkpt lat="44.7489617" lon="9.3866917"><ele>324.0</ele><time>2026-04-17T10:51:08.942Z</time></trkpt><trkpt lat="44.74901" lon="9.386245"><ele>317.0</ele><time>2026-04-17T10:51:09.942Z</time></trkpt><trkpt lat="44.7490333" lon="9.385785"><ele>313.0</ele><time>2026-04-17T10:51:10.942Z</time></trkpt><trkpt lat="44.7490317" lon="9.3853183"><ele>309.0</ele><time>2026-04-17T10:51:11.942Z</time></trkpt><trkpt lat="44.7490317" lon="9.3848433"><ele>310.5</ele><time>2026-04-17T10:51:12.942Z</time></trkpt><trkpt lat="44.7490283" lon="9.384375"><ele>312.0</ele><time>2026-04-17T10:51:13.942Z</time></trkpt><trkpt lat="44.7490083" lon="9.3839133"><ele>309.5</ele><time>2026-04-17T10:51:14.942Z</time></trkpt><trkpt lat="44.7489633" lon="9.3834683"><ele>307.0</ele><time>2026-04-17T10:51:15.942Z</time></trkpt><trkpt lat="44.7488967" lon="9.3830333"><ele>306.5</ele><time>2026-04-17T10:51:16.942Z</time></trkpt><trkpt lat="44.7488333" lon="9.38262"><ele>306.0</ele><time>2026-04-17T10:51:17.942Z</time></trkpt><trkpt lat="44.7487933" lon="9.3822233"><ele>302.5</ele><time>2026-04-17T10:51:18.942Z</time></trkpt><trkpt lat="44.748785" lon="9.3818467"><ele>299.0</ele><time>2026-04-17T10:51:19.942Z</time></trkpt><trkpt lat="44.7488133" lon="9.3814967"><ele>292.0</ele><time>2026-04-17T10:51:20.942Z</time></trkpt><trkpt lat="44.74888" lon="9.3811667"><ele>285.0</ele><time>2026-04-17T10:51:21.942Z</time></trkpt><trkpt lat="44.74898" lon="9.3808467"><ele>285.0</ele><time>2026-04-17T10:51:22.942Z</time></trkpt><trkpt lat="44.749115" lon="9.3805483"><ele>285.0</ele><time>2026-04-17T10:51:23.942Z</time></trkpt><trkpt lat="44.74929" lon="9.38029"><ele>277.5</ele><time>2026-04-17T10:51:24.942Z</time></trkpt><trkpt lat="44.7494983" lon="9.380065"><ele>270.0</ele><time>2026-04-17T10:51:25.942Z</time></trkpt><trkpt lat="44.7497383" lon="9.3798883"><ele>270.0</ele><time>2026-04-17T10:51:26.942Z</time></trkpt><trkpt lat="44.7499917" lon="9.3797617"><ele>270.0</ele><time>2026-04-17T10:51:27.942Z</time></trkpt><trkpt lat="44.750265" lon="9.3796867"><ele>268.5</ele><time>2026-04-17T10:51:28.943Z</time></trkpt><trkpt lat="44.7505633" lon="9.3796683"><ele>267.0</ele><time>2026-04-17T10:51:29.942Z</time></trkpt><trkpt lat="44.750865" lon="9.379685"><ele>266.0</ele><time>2026-04-17T10:51:30.942Z</time></trkpt><trkpt lat="44.751175" lon="9.37971"><ele>265.0</ele><time>2026-04-17T10:51:31.943Z</time></trkpt><trkpt lat="44.751495" lon="9.3797317"><ele>265.0</ele><time>2026-04-17T10:51:32.942Z</time></trkpt><trkpt lat="44.7518183" lon="9.3797533"><ele>265.0</ele><time>2026-04-17T10:51:33.943Z</time></trkpt><trkpt lat="44.7521467" lon="9.3797867"><ele>264.5</ele><time>2026-04-17T10:51:34.942Z</time></trkpt><trkpt lat="44.75247" lon="9.379815"><ele>264.0</ele><time>2026-04-17T10:51:35.942Z</time></trkpt><trkpt lat="44.7527867" lon="9.3798433"><ele>264.0</ele><time>2026-04-17T10:51:36.942Z</time></trkpt><trkpt lat="44.7530867" lon="9.3798733"><ele>264.0</ele><time>2026-04-17T10:51:37.942Z</time></trkpt><trkpt lat="44.7533683" lon="9.3798983"><ele>267.5</ele><time>2026-04-17T10:51:38.942Z</time></trkpt><trkpt lat="44.7536333" lon="9.37993"><ele>271.0</ele><time>2026-04-17T10:51:39.942Z</time></trkpt><trkpt lat="44.7538833" lon="9.379995"><ele>271.0</ele><time>2026-04-17T10:51:40.942Z</time></trkpt><trkpt lat="44.7541317" lon="9.38012"><ele>271.0</ele><time>2026-04-17T10:51:41.942Z</time></trkpt><trkpt lat="44.7543733" lon="9.3803033"><ele>271.0</ele><time>2026-04-17T10:51:42.943Z</time></trkpt><trkpt lat="44.7546167" lon="9.3805233"><ele>271.0</ele><time>2026-04-17T10:51:43.942Z</time></trkpt><trkpt lat="44.75486" lon="9.3807683"><ele>271.0</ele><time>2026-04-17T10:51:44.942Z</time></trkpt><trkpt lat="44.7551033" lon="9.381005"><ele>271.0</ele><time>2026-04-17T10:51:45.942Z</time></trkpt><trkpt lat="44.7553517" lon="9.3812367"><ele>270.5</ele><time>2026-04-17T10:51:46.942Z</time></trkpt><trkpt lat="44.755585" lon="9.3814617"><ele>270.0</ele><time>2026-04-17T10:51:47.942Z</time></trkpt><trkpt lat="44.7558083" lon="9.381665"><ele>270.0</ele><time>2026-04-17T10:51:48.942Z</time></trkpt><trkpt lat="44.7560317" lon="9.3818483"><ele>270.0</ele><time>2026-04-17T10:51:49.942Z</time></trkpt><trkpt lat="44.75626" lon="9.3819917"><ele>270.5</ele><time>2026-04-17T10:51:50.942Z</time></trkpt><trkpt lat="44.75651" lon="9.38208"><ele>271.0</ele><time>2026-04-17T10:51:51.942Z</time></trkpt><trkpt lat="44.7567683" lon="9.3821133"><ele>270.0</ele><time>2026-04-17T10:51:52.942Z</time></trkpt><trkpt lat="44.757035" lon="9.382105"><ele>269.0</ele><time>2026-04-17T10:51:53.942Z</time></trkpt><trkpt lat="44.7573117" lon="9.382065"><ele>269.0</ele><time>2026-04-17T10:51:54.942Z</time></trkpt><trkpt lat="44.7575883" lon="9.382015"><ele>269.0</ele><time>2026-04-17T10:51:55.942Z</time></trkpt><trkpt lat="44.7578483" lon="9.3819683"><ele>268.0</ele><time>2026-04-17T10:51:56.942Z</time></trkpt><trkpt lat="44.758105" lon="9.38192"><ele>267.0</ele><time>2026-04-17T10:51:57.942Z</time></trkpt><trkpt lat="44.758355" lon="9.381885"><ele>266.5</ele><time>2026-04-17T10:51:58.942Z</time></trkpt><trkpt lat="44.7586033" lon="9.381845"><ele>266.0</ele><time>2026-04-17T10:51:59.942Z</time></trkpt><trkpt lat="44.75885" lon="9.3818083"><ele>266.0</ele><time>2026-04-17T10:52:00.943Z</time></trkpt><trkpt lat="44.7590867" lon="9.3817733"><ele>266.0</ele><time>2026-04-17T10:52:01.942Z</time></trkpt><trkpt lat="44.7593117" lon="9.381735"><ele>266.0</ele><time>2026-04-17T10:52:02.942Z</time></trkpt><trkpt lat="44.7595267" lon="9.3817"><ele>266.0</ele><time>2026-04-17T10:52:03.942Z</time></trkpt><trkpt lat="44.75974" lon="9.381685"><ele>266.0</ele><time>2026-04-17T10:52:04.942Z</time></trkpt><trkpt lat="44.7599667" lon="9.3816933"><ele>266.0</ele><time>2026-04-17T10:52:05.942Z</time></trkpt><trkpt lat="44.7601967" lon="9.3817483"><ele>266.0</ele><time>2026-04-17T10:52:06.942Z</time></trkpt><trkpt lat="44.760425" lon="9.3818433"><ele>267.0</ele><time>2026-04-17T10:52:07.942Z</time></trkpt><trkpt lat="44.7606417" lon="9.38199"><ele>268.0</ele><time>2026-04-17T10:52:08.942Z</time></trkpt><trkpt lat="44.760865" lon="9.3821633"><ele>265.5</ele><time>2026-04-17T10:52:09.942Z</time></trkpt><trkpt lat="44.7611033" lon="9.3823333"><ele>263.0</ele><time>2026-04-17T10:52:10.942Z</time></trkpt><trkpt lat="44.761355" lon="9.382505"><ele>263.0</ele><time>2026-04-17T10:52:11.942Z</time></trkpt><trkpt lat="44.7616133" lon="9.3826783"><ele>263.0</ele><time>2026-04-17T10:52:12.942Z</time></trkpt><trkpt lat="44.7618683" lon="9.3828533"><ele>263.0</ele><time>2026-04-17T10:52:13.942Z</time></trkpt><trkpt lat="44.7621167" lon="9.383025"><ele>263.0</ele><time>2026-04-17T10:52:14.942Z</time></trkpt><trkpt lat="44.76236" lon="9.3831983"><ele>263.0</ele><time>2026-04-17T10:52:15.942Z</time></trkpt><trkpt lat="44.7625867" lon="9.38338"><ele>263.0</ele><time>2026-04-17T10:52:16.942Z</time></trkpt><trkpt lat="44.7627983" lon="9.3835767"><ele>265.5</ele><time>2026-04-17T10:52:17.942Z</time></trkpt><trkpt lat="44.7629917" lon="9.3838"><ele>268.0</ele><time>2026-04-17T10:52:18.942Z</time></trkpt><trkpt lat="44.763175" lon="9.3840517"><ele>268.0</ele><time>2026-04-17T10:52:19.942Z</time></trkpt><trkpt lat="44.7633383" lon="9.384325"><ele>268.0</ele><time>2026-04-17T10:52:20.942Z</time></trkpt><trkpt lat="44.7634817" lon="9.3846167"><ele>274.5</ele><time>2026-04-17T10:52:21.942Z</time></trkpt><trkpt lat="44.763625" lon="9.38492"><ele>281.0</ele><time>2026-04-17T10:52:22.942Z</time></trkpt><trkpt lat="44.7637783" lon="9.3852483"><ele>273.5</ele><time>2026-04-17T10:52:23.942Z</time></trkpt><trkpt lat="44.7639467" lon="9.3856133"><ele>266.0</ele><time>2026-04-17T10:52:24.942Z</time></trkpt><trkpt lat="44.76413" lon="9.3859933"><ele>264.5</ele><time>2026-04-17T10:52:25.942Z</time></trkpt><trkpt lat="44.76432" lon="9.386395"><ele>263.0</ele><time>2026-04-17T10:52:26.942Z</time></trkpt><trkpt lat="44.764515" lon="9.3868"><ele>260.0</ele><time>2026-04-17T10:52:27.942Z</time></trkpt><trkpt lat="44.7647017" lon="9.38719"><ele>257.0</ele><time>2026-04-17T10:52:28.942Z</time></trkpt><trkpt lat="44.7648733" lon="9.38755"><ele>257.0</ele><time>2026-04-17T10:52:29.942Z</time></trkpt><trkpt lat="44.7650383" lon="9.3878917"><ele>257.0</ele><time>2026-04-17T10:52:30.942Z</time></trkpt><trkpt lat="44.7651933" lon="9.38821"><ele>259.0</ele><time>2026-04-17T10:52:31.942Z</time></trkpt><trkpt lat="44.765345" lon="9.3884933"><ele>261.0</ele><time>2026-04-17T10:52:32.942Z</time></trkpt><trkpt lat="44.765515" lon="9.3887433"><ele>259.0</ele><time>2026-04-17T10:52:33.943Z</time></trkpt><trkpt lat="44.7657117" lon="9.3889483"><ele>257.0</ele><time>2026-04-17T10:52:34.942Z</time></trkpt><trkpt lat="44.765935" lon="9.3891017"><ele>258.0</ele><time>2026-04-17T10:52:35.942Z</time></trkpt><trkpt lat="44.766165" lon="9.3891967"><ele>259.0</ele><time>2026-04-17T10:52:36.942Z</time></trkpt><trkpt lat="44.76639" lon="9.3892333"><ele>259.0</ele><time>2026-04-17T10:52:37.942Z</time></trkpt><trkpt lat="44.766615" lon="9.3892117"><ele>259.0</ele><time>2026-04-17T10:52:38.942Z</time></trkpt><trkpt lat="44.7668267" lon="9.3891633"><ele>259.0</ele><time>2026-04-17T10:52:39.942Z</time></trkpt><trkpt lat="44.7670083" lon="9.3891117"><ele>259.0</ele><time>2026-04-17T10:52:40.942Z</time></trkpt><trkpt lat="44.7671683" lon="9.389065"><ele>259.0</ele><time>2026-04-17T10:52:41.942Z</time></trkpt><trkpt lat="44.7673217" lon="9.389025"><ele>259.0</ele><time>2026-04-17T10:52:42.942Z</time></trkpt><trkpt lat="44.7674733" lon="9.3889867"><ele>259.0</ele><time>2026-04-17T10:52:43.942Z</time></trkpt><trkpt lat="44.7676317" lon="9.3889317"><ele>259.0</ele><time>2026-04-17T10:52:44.942Z</time></trkpt><trkpt lat="44.7678133" lon="9.38886"><ele>259.0</ele><time>2026-04-17T10:52:45.942Z</time></trkpt><trkpt lat="44.7680233" lon="9.3887933"><ele>260.5</ele><time>2026-04-17T10:52:46.942Z</time></trkpt><trkpt lat="44.7682583" lon="9.38872"><ele>262.0</ele><time>2026-04-17T10:52:47.942Z</time></trkpt><trkpt lat="44.768505" lon="9.3886383"><ele>263.0</ele><time>2026-04-17T10:52:48.942Z</time></trkpt><trkpt lat="44.76877" lon="9.3885567"><ele>264.0</ele><time>2026-04-17T10:52:49.942Z</time></trkpt><trkpt lat="44.7690483" lon="9.388485"><ele>264.0</ele><time>2026-04-17T10:52:50.942Z</time></trkpt><trkpt lat="44.7693317" lon="9.3884367"><ele>264.0</ele><time>2026-04-17T10:52:51.942Z</time></trkpt><trkpt lat="44.7696083" lon="9.38841"><ele>261.5</ele><time>2026-04-17T10:52:52.942Z</time></trkpt><trkpt lat="44.7698817" lon="9.388415"><ele>259.0</ele><time>2026-04-17T10:52:53.942Z</time></trkpt><trkpt lat="44.770145" lon="9.388445"><ele>260.5</ele><time>2026-04-17T10:52:54.942Z</time></trkpt><trkpt lat="44.7704033" lon="9.3884967"><ele>262.0</ele><time>2026-04-17T10:52:55.942Z</time></trkpt><trkpt lat="44.7706517" lon="9.3885667"><ele>262.0</ele><time>2026-04-17T10:52:56.942Z</time></trkpt><trkpt lat="44.7708817" lon="9.38865"><ele>262.0</ele><time>2026-04-17T10:52:57.942Z</time></trkpt><trkpt lat="44.7710933" lon="9.3887283"><ele>262.66666666666663</ele><time>2026-04-17T10:52:58.942Z</time></trkpt><trkpt lat="44.7712867" lon="9.3888033"><ele>263.3333333333333</ele><time>2026-04-17T10:52:59.942Z</time></trkpt><trkpt lat="44.7714567" lon="9.38887"><ele>264.0</ele><time>2026-04-17T10:53:00.942Z</time></trkpt><trkpt lat="44.77161" lon="9.388945"><ele>262.75</ele><time>2026-04-17T10:53:01.942Z</time></trkpt><trkpt lat="44.7717517" lon="9.3890167"><ele>261.5</ele><time>2026-04-17T10:53:02.942Z</time></trkpt><trkpt lat="44.7718867" lon="9.38908"><ele>260.25</ele><time>2026-04-17T10:53:03.942Z</time></trkpt><trkpt lat="44.772015" lon="9.389145"><ele>259.0</ele><time>2026-04-17T10:53:04.942Z</time></trkpt><trkpt lat="44.7721433" lon="9.3892083"><ele>259.0</ele><time>2026-04-17T10:53:05.942Z</time></trkpt><trkpt lat="44.7722617" lon="9.3892567"><ele>259.0</ele><time>2026-04-17T10:53:06.942Z</time></trkpt><trkpt lat="44.7723767" lon="9.3893067"><ele>259.0</ele><time>2026-04-17T10:53:07.942Z</time></trkpt><trkpt lat="44.7724767" lon="9.3893533"><ele>259.0</ele><time>2026-04-17T10:53:08.942Z</time></trkpt><trkpt lat="44.77257" lon="9.3893933"><ele>259.0</ele><time>2026-04-17T10:53:09.942Z</time></trkpt><trkpt lat="44.7726517" lon="9.3894267"><ele>259.2</ele><time>2026-04-17T10:53:10.942Z</time></trkpt><trkpt lat="44.7727283" lon="9.3894517"><ele>259.4</ele><time>2026-04-17T10:53:11.942Z</time></trkpt><trkpt lat="44.7728133" lon="9.3894717"><ele>259.6</ele><time>2026-04-17T10:53:12.942Z</time></trkpt><trkpt lat="44.7729117" lon="9.3894933"><ele>259.8</ele><time>2026-04-17T10:53:13.942Z</time></trkpt><trkpt lat="44.7730433" lon="9.3895183"><ele>260.0</ele><time>2026-04-17T10:53:14.942Z</time></trkpt><trkpt lat="44.773205" lon="9.3895433"><ele>260.0</ele><time>2026-04-17T10:53:15.942Z</time></trkpt><trkpt lat="44.7733967" lon="9.389545"><ele>260.0</ele><time>2026-04-17T10:53:16.942Z</time></trkpt><trkpt lat="44.7736083" lon="9.3895383"><ele>260.0</ele><time>2026-04-17T10:53:17.942Z</time></trkpt><trkpt lat="44.7738333" lon="9.38953"><ele>257.5</ele><time>2026-04-17T10:53:18.942Z</time></trkpt><trkpt lat="44.7740667" lon="9.38952"><ele>255.0</ele><time>2026-04-17T10:53:19.942Z</time></trkpt><trkpt lat="44.7743" lon="9.3895067"><ele>255.0</ele><time>2026-04-17T10:53:20.942Z</time></trkpt><trkpt lat="44.774525" lon="9.3895"><ele>255.0</ele><time>2026-04-17T10:53:21.942Z</time></trkpt><trkpt lat="44.7747333" lon="9.389515"><ele>255.0</ele><time>2026-04-17T10:53:22.942Z</time></trkpt><trkpt lat="44.7749283" lon="9.38955"><ele>255.0</ele><time>2026-04-17T10:53:23.942Z</time></trkpt><trkpt lat="44.77511" lon="9.3895967"><ele>255.0</ele><time>2026-04-17T10:53:24.942Z</time></trkpt><trkpt lat="44.7752817" lon="9.3896617"><ele>255.0</ele><time>2026-04-17T10:53:25.942Z</time></trkpt><trkpt lat="44.775445" lon="9.3897367"><ele>254.66666666666669</ele><time>2026-04-17T10:53:26.942Z</time></trkpt><trkpt lat="44.775605" lon="9.389825"><ele>254.33333333333334</ele><time>2026-04-17T10:53:27.942Z</time></trkpt><trkpt lat="44.7757617" lon="9.38993"><ele>254.0</ele><time>2026-04-17T10:53:28.942Z</time></trkpt><trkpt lat="44.7759167" lon="9.3900467"><ele>259.33333333333337</ele><time>2026-04-17T10:53:29.942Z</time></trkpt><trkpt lat="44.776065" lon="9.390175"><ele>264.6666666666667</ele><time>2026-04-17T10:53:30.942Z</time></trkpt><trkpt lat="44.776215" lon="9.3903167"><ele>270.0</ele><time>2026-04-17T10:53:31.942Z</time></trkpt><trkpt lat="44.7763783" lon="9.3904617"><ele>272.0</ele><time>2026-04-17T10:53:32.942Z</time></trkpt><trkpt lat="44.77656" lon="9.3906283"><ele>274.0</ele><time>2026-04-17T10:53:33.943Z</time></trkpt><trkpt lat="44.77675" lon="9.3908067"><ele>276.0</ele><time>2026-04-17T10:53:34.942Z</time></trkpt><trkpt lat="44.7769317" lon="9.3909933"><ele>276.0</ele><time>2026-04-17T10:53:35.942Z</time></trkpt><trkpt lat="44.7771083" lon="9.3911717"><ele>276.0</ele><time>2026-04-17T10:53:36.942Z</time></trkpt><trkpt lat="44.7772733" lon="9.391335"><ele>276.0</ele><time>2026-04-17T10:53:37.942Z</time></trkpt><trkpt lat="44.7774333" lon="9.39149"><ele>277.3333333333333</ele><time>2026-04-17T10:53:38.942Z</time></trkpt><trkpt lat="44.777585" lon="9.391655"><ele>278.66666666666663</ele><time>2026-04-17T10:53:39.942Z</time></trkpt><trkpt lat="44.77773" lon="9.39182"><ele>280.0</ele><time>2026-04-17T10:53:40.942Z</time></trkpt><trkpt lat="44.7778733" lon="9.3919967"><ele>271.66666666666663</ele><time>2026-04-17T10:53:41.942Z</time></trkpt><trkpt lat="44.77801" lon="9.392175"><ele>263.3333333333333</ele><time>2026-04-17T10:53:42.942Z</time></trkpt><trkpt lat="44.7781433" lon="9.3923583"><ele>255.0</ele><time>2026-04-17T10:53:43.942Z</time></trkpt><trkpt lat="44.77827" lon="9.392545"><ele>255.0</ele><time>2026-04-17T10:53:44.942Z</time></trkpt><trkpt lat="44.7783867" lon="9.39273"><ele>255.0</ele><time>2026-04-17T10:53:45.942Z</time></trkpt><trkpt lat="44.7784967" lon="9.3929217"><ele>255.0</ele><time>2026-04-17T10:53:46.942Z</time></trkpt><trkpt lat="44.7786033" lon="9.3931167"><ele>258.0</ele><time>2026-04-17T10:53:47.942Z</time></trkpt><trkpt lat="44.778705" lon="9.3933167"><ele>261.0</ele><time>2026-04-17T10:53:48.942Z</time></trkpt><trkpt lat="44.7788017" lon="9.3935217"><ele>264.0</ele><time>2026-04-17T10:53:49.942Z</time></trkpt><trkpt lat="44.7788933" lon="9.3937367"><ele>260.3333333333333</ele><time>2026-04-17T10:53:50.943Z</time></trkpt><trkpt lat="44.778985" lon="9.3939617"><ele>256.66666666666663</ele><time>2026-04-17T10:53:51.942Z</time></trkpt><trkpt lat="44.779075" lon="9.3941883"><ele>253.0</ele><time>2026-04-17T10:53:52.942Z</time></trkpt><trkpt lat="44.7791567" lon="9.3944183"><ele>253.0</ele><time>2026-04-17T10:53:53.942Z</time></trkpt><trkpt lat="44.7792317" lon="9.3946483"><ele>253.0</ele><time>2026-04-17T10:53:54.942Z</time></trkpt><trkpt lat="44.7792983" lon="9.3948783"><ele>253.0</ele><time>2026-04-17T10:53:55.942Z</time></trkpt><trkpt lat="44.7793633" lon="9.39511"><ele>260.3333333333333</ele><time>2026-04-17T10:53:56.942Z</time></trkpt><trkpt lat="44.7794233" lon="9.3953383"><ele>267.6666666666667</ele><time>2026-04-17T10:53:57.942Z</time></trkpt><trkpt lat="44.7794783" lon="9.3955633"><ele>275.0</ele><time>2026-04-17T10:53:58.942Z</time></trkpt><trkpt lat="44.779525" lon="9.39579"><ele>275.0</ele><time>2026-04-17T10:53:59.942Z</time></trkpt><trkpt lat="44.77957" lon="9.3960133"><ele>275.0</ele><time>2026-04-17T10:54:00.942Z</time></trkpt><trkpt lat="44.7796083" lon="9.3962383"><ele>275.0</ele><time>2026-04-17T10:54:01.942Z</time></trkpt><trkpt lat="44.7796417" lon="9.3964667"><ele>272.33333333333337</ele><time>2026-04-17T10:54:02.942Z</time></trkpt><trkpt lat="44.7796733" lon="9.39669"><ele>269.6666666666667</ele><time>2026-04-17T10:54:03.942Z</time></trkpt><trkpt lat="44.77971" lon="9.39694"><ele>267.0</ele><time>2026-04-17T10:54:04.942Z</time></trkpt><trkpt lat="44.779745" lon="9.397245"><ele>265.0</ele><time>2026-04-17T10:54:05.942Z</time></trkpt><trkpt lat="44.7797683" lon="9.3975633"><ele>263.0</ele><time>2026-04-17T10:54:06.942Z</time></trkpt><trkpt lat="44.77978" lon="9.397845"><ele>261.0</ele><time>2026-04-17T10:54:07.942Z</time></trkpt><trkpt lat="44.7797917" lon="9.3981"><ele>260.6666666666667</ele><time>2026-04-17T10:54:08.942Z</time></trkpt><trkpt lat="44.7798033" lon="9.3983433"><ele>260.33333333333337</ele><time>2026-04-17T10:54:09.942Z</time></trkpt><trkpt lat="44.7798167" lon="9.3985817"><ele>260.0</ele><time>2026-04-17T10:54:10.942Z</time></trkpt><trkpt lat="44.7798333" lon="9.39881"><ele>259.0</ele><time>2026-04-17T10:54:11.942Z</time></trkpt><trkpt lat="44.7798583" lon="9.399035"><ele>258.0</ele><time>2026-04-17T10:54:12.942Z</time></trkpt><trkpt lat="44.7798933" lon="9.3992633"><ele>257.0</ele><time>2026-04-17T10:54:13.942Z</time></trkpt><trkpt lat="44.7799383" lon="9.39949"><ele>255.33333333333334</ele><time>2026-04-17T10:54:14.942Z</time></trkpt><trkpt lat="44.77999" lon="9.39973"><ele>253.66666666666669</ele><time>2026-04-17T10:54:15.942Z</time></trkpt><trkpt lat="44.7800567" lon="9.3999617"><ele>252.0</ele><time>2026-04-17T10:54:16.942Z</time></trkpt><trkpt lat="44.7801267" lon="9.4001933"><ele>253.0</ele><time>2026-04-17T10:54:17.942Z</time></trkpt><trkpt lat="44.7802017" lon="9.400415"><ele>254.0</ele><time>2026-04-17T10:54:18.942Z</time></trkpt><trkpt lat="44.7802883" lon="9.4006267"><ele>255.0</ele><time>2026-04-17T10:54:19.942Z</time></trkpt><trkpt lat="44.7803883" lon="9.4008333"><ele>255.0</ele><time>2026-04-17T10:54:20.942Z</time></trkpt><trkpt lat="44.780505" lon="9.401055"><ele>255.0</ele><time>2026-04-17T10:54:21.942Z</time></trkpt><trkpt lat="44.7806417" lon="9.40132"><ele>255.0</ele><time>2026-04-17T10:54:22.942Z</time></trkpt><trkpt lat="44.7808233" lon="9.401565"><ele>254.0</ele><time>2026-04-17T10:54:23.943Z</time></trkpt><trkpt lat="44.7810167" lon="9.4018383"><ele>253.0</ele><time>2026-04-17T10:54:24.942Z</time></trkpt><trkpt lat="44.78122" lon="9.4021233"><ele>250.0</ele><time>2026-04-17T10:54:25.942Z</time></trkpt><trkpt lat="44.7814417" lon="9.402425"><ele>247.0</ele><time>2026-04-17T10:54:26.942Z</time></trkpt><trkpt lat="44.781675" lon="9.40275"><ele>245.5</ele><time>2026-04-17T10:54:27.942Z</time></trkpt><trkpt lat="44.78192" lon="9.4030983"><ele>244.0</ele><time>2026-04-17T10:54:28.942Z</time></trkpt><trkpt lat="44.782175" lon="9.40346"><ele>244.0</ele><time>2026-04-17T10:54:29.942Z</time></trkpt><trkpt lat="44.7824233" lon="9.4038183"><ele>244.0</ele><time>2026-04-17T10:54:30.942Z</time></trkpt><trkpt lat="44.7826517" lon="9.4041817"><ele>242.5</ele><time>2026-04-17T10:54:31.942Z</time></trkpt><trkpt lat="44.782875" lon="9.40452"><ele>241.0</ele><time>2026-04-17T10:54:32.942Z</time></trkpt><trkpt lat="44.7830917" lon="9.4048567"><ele>241.0</ele><time>2026-04-17T10:54:33.942Z</time></trkpt><trkpt lat="44.7833117" lon="9.405175"><ele>241.0</ele><time>2026-04-17T10:54:34.942Z</time></trkpt><trkpt lat="44.7835467" lon="9.40547"><ele>242.5</ele><time>2026-04-17T10:54:35.943Z</time></trkpt><trkpt lat="44.7837917" lon="9.40577"><ele>244.0</ele><time>2026-04-17T10:54:36.942Z</time></trkpt><trkpt lat="44.7839933" lon="9.4060967"><ele>245.0</ele><time>2026-04-17T10:54:37.942Z</time></trkpt><trkpt lat="44.784205" lon="9.4064167"><ele>246.0</ele><time>2026-04-17T10:54:38.942Z</time></trkpt><trkpt lat="44.78441" lon="9.4067167"><ele>246.0</ele><time>2026-04-17T10:54:39.942Z</time></trkpt><trkpt lat="44.78461" lon="9.4070033"><ele>246.0</ele><time>2026-04-17T10:54:40.942Z</time></trkpt><trkpt lat="44.78481" lon="9.407285"><ele>247.0</ele><time>2026-04-17T10:54:41.942Z</time></trkpt><trkpt lat="44.7850267" lon="9.40755"><ele>248.0</ele><time>2026-04-17T10:54:42.942Z</time></trkpt><trkpt lat="44.785235" lon="9.40784"><ele>247.0</ele><time>2026-04-17T10:54:43.942Z</time></trkpt><trkpt lat="44.7854517" lon="9.4081367"><ele>246.0</ele><time>2026-04-17T10:54:44.942Z</time></trkpt><trkpt lat="44.7856717" lon="9.4084317"><ele>246.0</ele><time>2026-04-17T10:54:45.942Z</time></trkpt><trkpt lat="44.7858933" lon="9.4087433"><ele>246.0</ele><time>2026-04-17T10:54:46.942Z</time></trkpt><trkpt lat="44.7861183" lon="9.40905"><ele>246.0</ele><time>2026-04-17T10:54:47.942Z</time></trkpt><trkpt lat="44.7863483" lon="9.409355"><ele>246.0</ele><time>2026-04-17T10:54:48.942Z</time></trkpt><trkpt lat="44.7865783" lon="9.4096617"><ele>247.0</ele><time>2026-04-17T10:54:49.942Z</time></trkpt><trkpt lat="44.7868083" lon="9.409965"><ele>248.0</ele><time>2026-04-17T10:54:50.942Z</time></trkpt><trkpt lat="44.78703" lon="9.410285"><ele>244.0</ele><time>2026-04-17T10:54:51.942Z</time></trkpt><trkpt lat="44.7872717" lon="9.4105667"><ele>240.0</ele><time>2026-04-17T10:54:52.942Z</time></trkpt><trkpt lat="44.7874917" lon="9.4108717"><ele>239.0</ele><time>2026-04-17T10:54:53.943Z</time></trkpt><trkpt lat="44.78773" lon="9.411155"><ele>238.0</ele><time>2026-04-17T10:54:54.942Z</time></trkpt><trkpt lat="44.7879533" lon="9.4114567"><ele>238.0</ele><time>2026-04-17T10:54:55.942Z</time></trkpt><trkpt lat="44.7881767" lon="9.41175"><ele>238.0</ele><time>2026-04-17T10:54:56.942Z</time></trkpt><trkpt lat="44.7884067" lon="9.412035"><ele>237.5</ele><time>2026-04-17T10:54:57.942Z</time></trkpt><trkpt lat="44.7886283" lon="9.4123333"><ele>237.0</ele><time>2026-04-17T10:54:58.942Z</time></trkpt><trkpt lat="44.7888567" lon="9.412625"><ele>237.0</ele><time>2026-04-17T10:54:59.942Z</time></trkpt><trkpt lat="44.7890917" lon="9.41291"><ele>237.0</ele><time>2026-04-17T10:55:00.942Z</time></trkpt><trkpt lat="44.78933" lon="9.4131883"><ele>236.5</ele><time>2026-04-17T10:55:01.942Z</time></trkpt><trkpt lat="44.7895383" lon="9.4135367"><ele>236.0</ele><time>2026-04-17T10:55:02.942Z</time></trkpt><trkpt lat="44.7897783" lon="9.4138117"><ele>237.5</ele><time>2026-04-17T10:55:03.942Z</time></trkpt><trkpt lat="44.79001" lon="9.4141083"><ele>239.0</ele><time>2026-04-17T10:55:04.942Z</time></trkpt><trkpt lat="44.7902417" lon="9.4144083"><ele>249.0</ele><time>2026-04-17T10:55:05.942Z</time></trkpt><trkpt lat="44.790465" lon="9.4147133"><ele>259.0</ele><time>2026-04-17T10:55:06.942Z</time></trkpt><trkpt lat="44.7906883" lon="9.4150167"><ele>259.0</ele><time>2026-04-17T10:55:07.942Z</time></trkpt><trkpt lat="44.7909117" lon="9.415325"><ele>259.0</ele><time>2026-04-17T10:55:08.943Z</time></trkpt><trkpt lat="44.791135" lon="9.4156117"><ele>293.0</ele><time>2026-04-17T10:55:09.942Z</time></trkpt><trkpt lat="44.79133" lon="9.4159133"><ele>327.0</ele><time>2026-04-17T10:55:10.942Z</time></trkpt><trkpt lat="44.7915633" lon="9.4161617"><ele>342.0</ele><time>2026-04-17T10:55:11.942Z</time></trkpt><trkpt lat="44.7917967" lon="9.41639"><ele>357.0</ele><time>2026-04-17T10:55:12.942Z</time></trkpt><trkpt lat="44.79582" lon="9.4217767"><ele>298.5</ele><time>2026-04-17T10:55:28.942Z</time></trkpt><trkpt lat="44.796025" lon="9.422015"><ele>240.0</ele><time>2026-04-17T10:55:29.942Z</time></trkpt><trkpt lat="44.796205" lon="9.4222433"><ele>240.0</ele><time>2026-04-17T10:55:30.942Z</time></trkpt><trkpt lat="44.796375" lon="9.4224367"><ele>240.0</ele><time>2026-04-17T10:55:31.942Z</time></trkpt><trkpt lat="44.796555" lon="9.4225833"><ele>240.0</ele><time>2026-04-17T10:55:32.942Z</time></trkpt><trkpt lat="44.79673" lon="9.4227217"><ele>240.66666666666669</ele><time>2026-04-17T10:55:33.943Z</time></trkpt><trkpt lat="44.7969133" lon="9.4228433"><ele>241.33333333333334</ele><time>2026-04-17T10:55:34.942Z</time></trkpt><trkpt lat="44.797105" lon="9.42295"><ele>242.0</ele><time>2026-04-17T10:55:35.942Z</time></trkpt><trkpt lat="44.79732" lon="9.4230317"><ele>242.0</ele><time>2026-04-17T10:55:36.942Z</time></trkpt><trkpt lat="44.7975667" lon="9.423095"><ele>242.0</ele><time>2026-04-17T10:55:37.942Z</time></trkpt><trkpt lat="44.7978367" lon="9.42314"><ele>241.5</ele><time>2026-04-17T10:55:38.942Z</time></trkpt><trkpt lat="44.79812" lon="9.423185"><ele>241.0</ele><time>2026-04-17T10:55:39.942Z</time></trkpt><trkpt lat="44.7983983" lon="9.42323"><ele>238.5</ele><time>2026-04-17T10:55:40.942Z</time></trkpt><trkpt lat="44.79866" lon="9.4232667"><ele>236.0</ele><time>2026-04-17T10:55:41.942Z</time></trkpt><trkpt lat="44.79891" lon="9.4233017"><ele>236.0</ele><time>2026-04-17T10:55:42.942Z</time></trkpt><trkpt lat="44.7991733" lon="9.4233433"><ele>236.0</ele><time>2026-04-17T10:55:43.942Z</time></trkpt><trkpt lat="44.7994483" lon="9.4234117"><ele>235.0</ele><time>2026-04-17T10:55:44.942Z</time></trkpt><trkpt lat="44.7997267" lon="9.4235217"><ele>234.0</ele><time>2026-04-17T10:55:45.942Z</time></trkpt><trkpt lat="44.8" lon="9.4236717"><ele>231.5</ele><time>2026-04-17T10:55:46.942Z</time></trkpt><trkpt lat="44.80027" lon="9.4238467"><ele>229.0</ele><time>2026-04-17T10:55:47.942Z</time></trkpt><trkpt lat="44.80055" lon="9.4240467"><ele>229.0</ele><time>2026-04-17T10:55:48.942Z</time></trkpt><trkpt lat="44.8008283" lon="9.4242533"><ele>229.0</ele><time>2026-04-17T10:55:49.942Z</time></trkpt><trkpt lat="44.8011117" lon="9.42446"><ele>226.5</ele><time>2026-04-17T10:55:50.942Z</time></trkpt><trkpt lat="44.8013933" lon="9.4246683"><ele>224.0</ele><time>2026-04-17T10:55:51.942Z</time></trkpt><trkpt lat="44.8016583" lon="9.4248633"><ele>227.5</ele><time>2026-04-17T10:55:52.942Z</time></trkpt><trkpt lat="44.80192" lon="9.4250817"><ele>231.0</ele><time>2026-04-17T10:55:53.942Z</time></trkpt><trkpt lat="44.8021633" lon="9.4252417"><ele>231.0</ele><time>2026-04-17T10:55:54.943Z</time></trkpt><trkpt lat="44.8023933" lon="9.4254033"><ele>231.0</ele><time>2026-04-17T10:55:55.942Z</time></trkpt><trkpt lat="44.8026133" lon="9.4255617"><ele>229.0</ele><time>2026-04-17T10:55:56.942Z</time></trkpt><trkpt lat="44.8028183" lon="9.42573"><ele>227.0</ele><time>2026-04-17T10:55:57.942Z</time></trkpt><trkpt lat="44.8030017" lon="9.4259017"><ele>227.0</ele><time>2026-04-17T10:55:58.942Z</time></trkpt><trkpt lat="44.80318" lon="9.4260783"><ele>227.0</ele><time>2026-04-17T10:55:59.942Z</time></trkpt><trkpt lat="44.8033633" lon="9.4262683"><ele>227.0</ele><time>2026-04-17T10:56:00.942Z</time></trkpt><trkpt lat="44.8035583" lon="9.4264933"><ele>228.5</ele><time>2026-04-17T10:56:01.942Z</time></trkpt><trkpt lat="44.8037617" lon="9.4267567"><ele>230.0</ele><time>2026-04-17T10:56:02.942Z</time></trkpt><trkpt lat="44.8039683" lon="9.4270317"><ele>229.0</ele><time>2026-04-17T10:56:03.943Z</time></trkpt><trkpt lat="44.80417" lon="9.42732"><ele>228.0</ele><time>2026-04-17T10:56:04.942Z</time></trkpt><trkpt lat="44.80438" lon="9.4276083"><ele>228.0</ele><time>2026-04-17T10:56:05.942Z</time></trkpt><trkpt lat="44.8046" lon="9.4279167"><ele>228.0</ele><time>2026-04-17T10:56:06.943Z</time></trkpt><trkpt lat="44.80482" lon="9.4282133"><ele>227.0</ele><time>2026-04-17T10:56:07.942Z</time></trkpt><trkpt lat="44.8050483" lon="9.4285067"><ele>226.0</ele><time>2026-04-17T10:56:08.942Z</time></trkpt><trkpt lat="44.8052733" lon="9.4288"><ele>226.0</ele><time>2026-04-17T10:56:09.942Z</time></trkpt><trkpt lat="44.80551" lon="9.4290967"><ele>226.0</ele><time>2026-04-17T10:56:10.942Z</time></trkpt><trkpt lat="44.8057367" lon="9.4293967"><ele>224.5</ele><time>2026-04-17T10:56:11.942Z</time></trkpt><trkpt lat="44.8059533" lon="9.4296733"><ele>223.0</ele><time>2026-04-17T10:56:12.942Z</time></trkpt><trkpt lat="44.806165" lon="9.4299267"><ele>226.0</ele><time>2026-04-17T10:56:13.942Z</time></trkpt><trkpt lat="44.8063417" lon="9.4302117"><ele>229.0</ele><time>2026-04-17T10:56:14.942Z</time></trkpt><trkpt lat="44.80652" lon="9.43048"><ele>229.0</ele><time>2026-04-17T10:56:15.942Z</time></trkpt><trkpt lat="44.8066967" lon="9.4307783"><ele>229.0</ele><time>2026-04-17T10:56:16.942Z</time></trkpt><trkpt lat="44.8068383" lon="9.4311217"><ele>231.5</ele><time>2026-04-17T10:56:17.942Z</time></trkpt><trkpt lat="44.8069867" lon="9.4314533"><ele>234.0</ele><time>2026-04-17T10:56:18.942Z</time></trkpt><trkpt lat="44.8071233" lon="9.4317833"><ele>234.0</ele><time>2026-04-17T10:56:19.942Z</time></trkpt><trkpt lat="44.8072633" lon="9.4321183"><ele>234.0</ele><time>2026-04-17T10:56:20.942Z</time></trkpt><trkpt lat="44.807395" lon="9.4324667"><ele>229.5</ele><time>2026-04-17T10:56:21.942Z</time></trkpt><trkpt lat="44.80752" lon="9.43282"><ele>225.0</ele><time>2026-04-17T10:56:22.942Z</time></trkpt><trkpt lat="44.80764" lon="9.4331767"><ele>223.0</ele><time>2026-04-17T10:56:23.942Z</time></trkpt><trkpt lat="44.8077667" lon="9.4335367"><ele>221.0</ele><time>2026-04-17T10:56:24.942Z</time></trkpt><trkpt lat="44.8078933" lon="9.4339"><ele>221.0</ele><time>2026-04-17T10:56:25.942Z</time></trkpt><trkpt lat="44.80802" lon="9.434265"><ele>221.0</ele><time>2026-04-17T10:56:26.942Z</time></trkpt><trkpt lat="44.80815" lon="9.43463"><ele>219.5</ele><time>2026-04-17T10:56:27.942Z</time></trkpt><trkpt lat="44.8082817" lon="9.4350183"><ele>218.0</ele><time>2026-04-17T10:56:28.943Z</time></trkpt><trkpt lat="44.8084083" lon="9.4353983"><ele>217.5</ele><time>2026-04-17T10:56:29.942Z</time></trkpt><trkpt lat="44.8085317" lon="9.4357667"><ele>217.0</ele><time>2026-04-17T10:56:30.942Z</time></trkpt><trkpt lat="44.80866" lon="9.4361317"><ele>219.5</ele><time>2026-04-17T10:56:31.942Z</time></trkpt><trkpt lat="44.8087783" lon="9.436515"><ele>222.0</ele><time>2026-04-17T10:56:32.942Z</time></trkpt><trkpt lat="44.808905" lon="9.4368833"><ele>227.0</ele><time>2026-04-17T10:56:33.942Z</time></trkpt><trkpt lat="44.80905" lon="9.4372267"><ele>232.0</ele><time>2026-04-17T10:56:34.942Z</time></trkpt><trkpt lat="44.8092067" lon="9.4375733"><ele>232.0</ele><time>2026-04-17T10:56:35.942Z</time></trkpt><trkpt lat="44.80927" lon="9.437545"><ele>232.0</ele><time>2026-04-17T10:56:36.942Z</time></trkpt><trkpt lat="44.809415" lon="9.4377167"><ele>232.0</ele><time>2026-04-17T10:56:37.942Z</time></trkpt><trkpt lat="44.8096467" lon="9.43812"><ele>230.5</ele><time>2026-04-17T10:56:38.942Z</time></trkpt><trkpt lat="44.8098733" lon="9.438485"><ele>229.0</ele><time>2026-04-17T10:56:39.942Z</time></trkpt><trkpt lat="44.8100933" lon="9.4388117"><ele>225.0</ele><time>2026-04-17T10:56:40.942Z</time></trkpt><trkpt lat="44.8103" lon="9.439125"><ele>221.0</ele><time>2026-04-17T10:56:41.942Z</time></trkpt><trkpt lat="44.810505" lon="9.4393933"><ele>223.0</ele><time>2026-04-17T10:56:42.942Z</time></trkpt><trkpt lat="44.81065" lon="9.4396417"><ele>225.0</ele><time>2026-04-17T10:56:43.942Z</time></trkpt><trkpt lat="44.8107817" lon="9.4399017"><ele>225.0</ele><time>2026-04-17T10:56:44.942Z</time></trkpt><trkpt lat="44.81088" lon="9.4401833"><ele>225.0</ele><time>2026-04-17T10:56:45.942Z</time></trkpt><trkpt lat="44.810965" lon="9.44047"><ele>225.0</ele><time>2026-04-17T10:56:46.942Z</time></trkpt><trkpt lat="44.81103" lon="9.4407783"><ele>222.0</ele><time>2026-04-17T10:56:47.942Z</time></trkpt><trkpt lat="44.8110817" lon="9.4410983"><ele>219.0</ele><time>2026-04-17T10:56:48.942Z</time></trkpt><trkpt lat="44.8111267" lon="9.441425"><ele>219.0</ele><time>2026-04-17T10:56:49.942Z</time></trkpt><trkpt lat="44.8111667" lon="9.44176"><ele>219.0</ele><time>2026-04-17T10:56:50.942Z</time></trkpt><trkpt lat="44.8112117" lon="9.4421033"><ele>220.0</ele><time>2026-04-17T10:56:51.942Z</time></trkpt><trkpt lat="44.8112567" lon="9.4424433"><ele>221.0</ele><time>2026-04-17T10:56:52.942Z</time></trkpt><trkpt lat="44.811295" lon="9.4427717"><ele>221.0</ele><time>2026-04-17T10:56:53.942Z</time></trkpt><trkpt lat="44.8113317" lon="9.4430833"><ele>221.0</ele><time>2026-04-17T10:56:54.942Z</time></trkpt><trkpt lat="44.81137" lon="9.4433833"><ele>221.0</ele><time>2026-04-17T10:56:55.942Z</time></trkpt><trkpt lat="44.811405" lon="9.4436733"><ele>221.33333333333334</ele><time>2026-04-17T10:56:56.942Z</time></trkpt><trkpt lat="44.8114433" lon="9.44398"><ele>221.66666666666669</ele><time>2026-04-17T10:56:57.942Z</time></trkpt><trkpt lat="44.81148" lon="9.44426"><ele>222.0</ele><time>2026-04-17T10:56:58.942Z</time></trkpt><trkpt lat="44.8115167" lon="9.44454"><ele>222.0</ele><time>2026-04-17T10:56:59.942Z</time></trkpt><trkpt lat="44.8115517" lon="9.4448117"><ele>222.0</ele><time>2026-04-17T10:57:00.942Z</time></trkpt><trkpt lat="44.8115833" lon="9.4450867"><ele>222.0</ele><time>2026-04-17T10:57:01.942Z</time></trkpt><trkpt lat="44.81164" lon="9.4454483"><ele>221.5</ele><time>2026-04-17T10:57:03.942Z</time></trkpt><trkpt lat="44.8116767" lon="9.4459083"><ele>221.0</ele><time>2026-04-17T10:57:04.942Z</time></trkpt><trkpt lat="44.81173" lon="9.4463533"><ele>221.0</ele><time>2026-04-17T10:57:05.942Z</time></trkpt><trkpt lat="44.81178" lon="9.4468033"><ele>221.0</ele><time>2026-04-17T10:57:06.942Z</time></trkpt><trkpt lat="44.8118233" lon="9.4472267"><ele>217.5</ele><time>2026-04-17T10:57:07.942Z</time></trkpt><trkpt lat="44.8118617" lon="9.4476167"><ele>214.0</ele><time>2026-04-17T10:57:08.942Z</time></trkpt><trkpt lat="44.81191" lon="9.4479817"><ele>214.0</ele><time>2026-04-17T10:57:09.942Z</time></trkpt><trkpt lat="44.8119517" lon="9.4483417"><ele>214.0</ele><time>2026-04-17T10:57:10.942Z</time></trkpt><trkpt lat="44.8119867" lon="9.4486833"><ele>214.5</ele><time>2026-04-17T10:57:11.942Z</time></trkpt><trkpt lat="44.8120233" lon="9.44901"><ele>215.0</ele><time>2026-04-17T10:57:12.942Z</time></trkpt><trkpt lat="44.8120633" lon="9.44933"><ele>217.0</ele><time>2026-04-17T10:57:13.942Z</time></trkpt><trkpt lat="44.8121067" lon="9.4496617"><ele>219.0</ele><time>2026-04-17T10:57:14.942Z</time></trkpt><trkpt lat="44.8121483" lon="9.45"><ele>219.0</ele><time>2026-04-17T10:57:15.942Z</time></trkpt><trkpt lat="44.8121917" lon="9.4503617"><ele>219.0</ele><time>2026-04-17T10:57:16.942Z</time></trkpt><trkpt lat="44.8122283" lon="9.4507183"><ele>219.0</ele><time>2026-04-17T10:57:17.943Z</time></trkpt><trkpt lat="44.812265" lon="9.4510683"><ele>219.0</ele><time>2026-04-17T10:57:18.942Z</time></trkpt><trkpt lat="44.8123067" lon="9.451395"><ele>220.0</ele><time>2026-04-17T10:57:19.942Z</time></trkpt><trkpt lat="44.8123483" lon="9.4516867"><ele>221.0</ele><time>2026-04-17T10:57:20.942Z</time></trkpt><trkpt lat="44.8123967" lon="9.4519433"><ele>222.0</ele><time>2026-04-17T10:57:21.942Z</time></trkpt><trkpt lat="44.8125167" lon="9.4522267"><ele>222.33333333333331</ele><time>2026-04-17T10:57:23.942Z</time></trkpt><trkpt lat="44.8126033" lon="9.452495"><ele>222.66666666666666</ele><time>2026-04-17T10:57:24.942Z</time></trkpt><trkpt lat="44.8127117" lon="9.45278"><ele>223.0</ele><time>2026-04-17T10:57:25.942Z</time></trkpt><trkpt lat="44.8128383" lon="9.4530483"><ele>218.5</ele><time>2026-04-17T10:57:26.942Z</time></trkpt><trkpt lat="44.8129583" lon="9.4533133"><ele>214.0</ele><time>2026-04-17T10:57:27.942Z</time></trkpt><trkpt lat="44.81308" lon="9.4535917"><ele>217.0</ele><time>2026-04-17T10:57:28.942Z</time></trkpt><trkpt lat="44.8132083" lon="9.4538767"><ele>220.0</ele><time>2026-04-17T10:57:29.942Z</time></trkpt><trkpt lat="44.813335" lon="9.4541617"><ele>220.0</ele><time>2026-04-17T10:57:30.942Z</time></trkpt><trkpt lat="44.813465" lon="9.4544517"><ele>220.0</ele><time>2026-04-17T10:57:31.943Z</time></trkpt><trkpt lat="44.8135983" lon="9.4547383"><ele>217.5</ele><time>2026-04-17T10:57:32.942Z</time></trkpt><trkpt lat="44.8137283" lon="9.4550267"><ele>215.0</ele><time>2026-04-17T10:57:33.942Z</time></trkpt><trkpt lat="44.81386" lon="9.45534"><ele>217.5</ele><time>2026-04-17T10:57:34.942Z</time></trkpt><trkpt lat="44.8139867" lon="9.455635"><ele>220.0</ele><time>2026-04-17T10:57:35.942Z</time></trkpt><trkpt lat="44.8141083" lon="9.4559183"><ele>220.0</ele><time>2026-04-17T10:57:36.942Z</time></trkpt><trkpt lat="44.8142317" lon="9.4561967"><ele>220.0</ele><time>2026-04-17T10:57:37.943Z</time></trkpt><trkpt lat="44.814355" lon="9.4564717"><ele>216.5</ele><time>2026-04-17T10:57:38.942Z</time></trkpt><trkpt lat="44.8144733" lon="9.45674"><ele>213.0</ele><time>2026-04-17T10:57:39.942Z</time></trkpt><trkpt lat="44.8145967" lon="9.4570117"><ele>217.33333333333331</ele><time>2026-04-17T10:57:40.942Z</time></trkpt><trkpt lat="44.814715" lon="9.457285"><ele>221.66666666666666</ele><time>2026-04-17T10:57:41.942Z</time></trkpt><trkpt lat="44.81483" lon="9.4575483"><ele>226.0</ele><time>2026-04-17T10:57:42.942Z</time></trkpt><trkpt lat="44.8149483" lon="9.457805"><ele>224.66666666666666</ele><time>2026-04-17T10:57:43.943Z</time></trkpt><trkpt lat="44.8150633" lon="9.458055"><ele>223.33333333333331</ele><time>2026-04-17T10:57:44.942Z</time></trkpt><trkpt lat="44.8151967" lon="9.4583067"><ele>222.0</ele><time>2026-04-17T10:57:45.942Z</time></trkpt><trkpt lat="44.8152733" lon="9.4585667"><ele>222.33333333333331</ele><time>2026-04-17T10:57:46.942Z</time></trkpt><trkpt lat="44.8153467" lon="9.4588567"><ele>222.66666666666666</ele><time>2026-04-17T10:57:47.942Z</time></trkpt><trkpt lat="44.8153967" lon="9.4591717"><ele>223.0</ele><time>2026-04-17T10:57:48.942Z</time></trkpt><trkpt lat="44.8154333" lon="9.4595033"><ele>222.5</ele><time>2026-04-17T10:57:49.943Z</time></trkpt><trkpt lat="44.8154633" lon="9.4598583"><ele>222.0</ele><time>2026-04-17T10:57:50.942Z</time></trkpt><trkpt lat="44.8154917" lon="9.46024"><ele>223.0</ele><time>2026-04-17T10:57:51.942Z</time></trkpt><trkpt lat="44.8155283" lon="9.460645"><ele>224.0</ele><time>2026-04-17T10:57:52.942Z</time></trkpt><trkpt lat="44.8155683" lon="9.4610733"><ele>225.0</ele><time>2026-04-17T10:57:53.942Z</time></trkpt><trkpt lat="44.815625" lon="9.4615217"><ele>226.0</ele><time>2026-04-17T10:57:54.942Z</time></trkpt><trkpt lat="44.8157" lon="9.4619767"><ele>227.5</ele><time>2026-04-17T10:57:55.942Z</time></trkpt><trkpt lat="44.815775" lon="9.4624533"><ele>229.0</ele><time>2026-04-17T10:57:56.942Z</time></trkpt><trkpt lat="44.8158483" lon="9.4629167"><ele>229.5</ele><time>2026-04-17T10:57:57.943Z</time></trkpt><trkpt lat="44.8159117" lon="9.46336"><ele>230.0</ele><time>2026-04-17T10:57:58.942Z</time></trkpt><trkpt lat="44.81597" lon="9.4637967"><ele>221.5</ele><time>2026-04-17T10:57:59.942Z</time></trkpt><trkpt lat="44.816015" lon="9.46423"><ele>213.0</ele><time>2026-04-17T10:58:00.942Z</time></trkpt><trkpt lat="44.81606" lon="9.4646733"><ele>213.0</ele><time>2026-04-17T10:58:01.942Z</time></trkpt><trkpt lat="44.8161017" lon="9.465085"><ele>213.0</ele><time>2026-04-17T10:58:02.942Z</time></trkpt><trkpt lat="44.81616" lon="9.46545"><ele>216.0</ele><time>2026-04-17T10:58:03.942Z</time></trkpt><trkpt lat="44.8162633" lon="9.46582"><ele>219.0</ele><time>2026-04-17T10:58:04.942Z</time></trkpt><trkpt lat="44.8164" lon="9.466165"><ele>223.5</ele><time>2026-04-17T10:58:05.942Z</time></trkpt><trkpt lat="44.816555" lon="9.4664933"><ele>228.0</ele><time>2026-04-17T10:58:06.942Z</time></trkpt><trkpt lat="44.816705" lon="9.4668367"><ele>222.5</ele><time>2026-04-17T10:58:07.942Z</time></trkpt><trkpt lat="44.8168383" lon="9.4671833"><ele>217.0</ele><time>2026-04-17T10:58:08.942Z</time></trkpt><trkpt lat="44.8169517" lon="9.467545"><ele>217.0</ele><time>2026-04-17T10:58:09.942Z</time></trkpt><trkpt lat="44.817035" lon="9.46793"><ele>217.0</ele><time>2026-04-17T10:58:10.942Z</time></trkpt><trkpt lat="44.8171183" lon="9.4683167"><ele>217.5</ele><time>2026-04-17T10:58:11.942Z</time></trkpt><trkpt lat="44.8172017" lon="9.4687083"><ele>218.0</ele><time>2026-04-17T10:58:12.942Z</time></trkpt><trkpt lat="44.817285" lon="9.4691033"><ele>219.0</ele><time>2026-04-17T10:58:13.942Z</time></trkpt><trkpt lat="44.8173633" lon="9.4694917"><ele>220.0</ele><time>2026-04-17T10:58:14.942Z</time></trkpt><trkpt lat="44.817435" lon="9.46986"><ele>225.0</ele><time>2026-04-17T10:58:15.942Z</time></trkpt><trkpt lat="44.8175017" lon="9.4702017"><ele>230.0</ele><time>2026-04-17T10:58:16.942Z</time></trkpt><trkpt lat="44.8175567" lon="9.470545"><ele>232.0</ele><time>2026-04-17T10:58:17.942Z</time></trkpt><trkpt lat="44.817585" lon="9.47088"><ele>234.0</ele><time>2026-04-17T10:58:18.942Z</time></trkpt><trkpt lat="44.8175683" lon="9.4712083"><ele>232.5</ele><time>2026-04-17T10:58:19.942Z</time></trkpt><trkpt lat="44.8175033" lon="9.471515"><ele>231.0</ele><time>2026-04-17T10:58:20.942Z</time></trkpt><trkpt lat="44.8173933" lon="9.471795"><ele>231.0</ele><time>2026-04-17T10:58:21.942Z</time></trkpt><trkpt lat="44.81725" lon="9.47204"><ele>231.0</ele><time>2026-04-17T10:58:22.942Z</time></trkpt><trkpt lat="44.8170983" lon="9.472245"><ele>231.0</ele><time>2026-04-17T10:58:23.942Z</time></trkpt><trkpt lat="44.8169567" lon="9.4724067"><ele>232.0</ele><time>2026-04-17T10:58:24.942Z</time></trkpt><trkpt lat="44.816825" lon="9.472515"><ele>233.0</ele><time>2026-04-17T10:58:25.942Z</time></trkpt><trkpt lat="44.8167033" lon="9.47257"><ele>234.0</ele><time>2026-04-17T10:58:26.942Z</time></trkpt><trkpt lat="44.8165933" lon="9.4726067"><ele>235.0</ele><time>2026-04-17T10:58:27.943Z</time></trkpt><trkpt lat="44.8165117" lon="9.47269"><ele>235.0</ele><time>2026-04-17T10:58:28.942Z</time></trkpt><trkpt lat="44.8164533" lon="9.47282"><ele>235.0</ele><time>2026-04-17T10:58:29.942Z</time></trkpt><trkpt lat="44.8164517" lon="9.4729617"><ele>235.0</ele><time>2026-04-17T10:58:30.942Z</time></trkpt><trkpt lat="44.8165033" lon="9.4731033"><ele>235.0</ele><time>2026-04-17T10:58:31.942Z</time></trkpt><trkpt lat="44.81657" lon="9.4732883"><ele>232.66666666666666</ele><time>2026-04-17T10:58:32.942Z</time></trkpt><trkpt lat="44.816615" lon="9.4735117"><ele>230.33333333333331</ele><time>2026-04-17T10:58:33.942Z</time></trkpt><trkpt lat="44.816625" lon="9.4737867"><ele>228.0</ele><time>2026-04-17T10:58:34.943Z</time></trkpt><trkpt lat="44.81662" lon="9.4741033"><ele>228.0</ele><time>2026-04-17T10:58:35.942Z</time></trkpt><trkpt lat="44.8166133" lon="9.4744583"><ele>228.0</ele><time>2026-04-17T10:58:36.942Z</time></trkpt><trkpt lat="44.8166133" lon="9.474845"><ele>226.5</ele><time>2026-04-17T10:58:37.942Z</time></trkpt><trkpt lat="44.816615" lon="9.4752533"><ele>225.0</ele><time>2026-04-17T10:58:38.942Z</time></trkpt><trkpt lat="44.8166167" lon="9.4756867"><ele>223.0</ele><time>2026-04-17T10:58:39.942Z</time></trkpt><trkpt lat="44.816615" lon="9.4761533"><ele>221.0</ele><time>2026-04-17T10:58:40.942Z</time></trkpt><trkpt lat="44.8166117" lon="9.4766383"><ele>216.0</ele><time>2026-04-17T10:58:41.942Z</time></trkpt><trkpt lat="44.81661" lon="9.4771417"><ele>211.0</ele><time>2026-04-17T10:58:42.942Z</time></trkpt><trkpt lat="44.816605" lon="9.47764"><ele>210.5</ele><time>2026-04-17T10:58:43.942Z</time></trkpt><trkpt lat="44.8166033" lon="9.4781233"><ele>210.0</ele><time>2026-04-17T10:58:44.942Z</time></trkpt><trkpt lat="44.8166017" lon="9.4785933"><ele>209.5</ele><time>2026-04-17T10:58:45.942Z</time></trkpt><trkpt lat="44.8166083" lon="9.4790567"><ele>209.0</ele><time>2026-04-17T10:58:46.942Z</time></trkpt><trkpt lat="44.8166317" lon="9.4795167"><ele>208.0</ele><time>2026-04-17T10:58:47.942Z</time></trkpt><trkpt lat="44.81668" lon="9.47997"><ele>207.0</ele><time>2026-04-17T10:58:48.942Z</time></trkpt><trkpt lat="44.8167483" lon="9.48041"><ele>205.5</ele><time>2026-04-17T10:58:49.942Z</time></trkpt><trkpt lat="44.81684" lon="9.4808433"><ele>204.0</ele><time>2026-04-17T10:58:50.942Z</time></trkpt><trkpt lat="44.816955" lon="9.4812717"><ele>204.0</ele><time>2026-04-17T10:58:51.942Z</time></trkpt><trkpt lat="44.81709" lon="9.4816867"><ele>204.0</ele><time>2026-04-17T10:58:52.942Z</time></trkpt><trkpt lat="44.817245" lon="9.4820967"><ele>209.5</ele><time>2026-04-17T10:58:53.942Z</time></trkpt><trkpt lat="44.817395" lon="9.4825133"><ele>215.0</ele><time>2026-04-17T10:58:54.942Z</time></trkpt><trkpt lat="44.8175517" lon="9.4829233"><ele>216.5</ele><time>2026-04-17T10:58:55.942Z</time></trkpt><trkpt lat="44.8177083" lon="9.48333"><ele>218.0</ele><time>2026-04-17T10:58:56.942Z</time></trkpt><trkpt lat="44.817865" lon="9.4837383"><ele>220.0</ele><time>2026-04-17T10:58:57.942Z</time></trkpt><trkpt lat="44.8180267" lon="9.484155"><ele>222.0</ele><time>2026-04-17T10:58:58.942Z</time></trkpt><trkpt lat="44.8185533" lon="9.4858133"><ele>210.5</ele><time>2026-04-17T10:59:02.942Z</time></trkpt><trkpt lat="44.8186217" lon="9.4862483"><ele>199.0</ele><time>2026-04-17T10:59:03.942Z</time></trkpt><trkpt lat="44.8187017" lon="9.4866633"><ele>198.5</ele><time>2026-04-17T10:59:04.942Z</time></trkpt><trkpt lat="44.8187617" lon="9.487085"><ele>198.0</ele><time>2026-04-17T10:59:05.942Z</time></trkpt><trkpt lat="44.8187883" lon="9.4875217"><ele>196.0</ele><time>2026-04-17T10:59:06.942Z</time></trkpt><trkpt lat="44.8187933" lon="9.4879533"><ele>194.0</ele><time>2026-04-17T10:59:07.942Z</time></trkpt><trkpt lat="44.8188017" lon="9.48838"><ele>194.5</ele><time>2026-04-17T10:59:08.942Z</time></trkpt><trkpt lat="44.8188133" lon="9.4888033"><ele>195.0</ele><time>2026-04-17T10:59:09.943Z</time></trkpt><trkpt lat="44.8188233" lon="9.4892283"><ele>195.0</ele><time>2026-04-17T10:59:10.942Z</time></trkpt><trkpt lat="44.8188333" lon="9.4896483"><ele>195.0</ele><time>2026-04-17T10:59:11.942Z</time></trkpt><trkpt lat="44.8188417" lon="9.4900667"><ele>195.0</ele><time>2026-04-17T10:59:12.942Z</time></trkpt><trkpt lat="44.8188517" lon="9.49048"><ele>195.0</ele><time>2026-04-17T10:59:13.942Z</time></trkpt><trkpt lat="44.8188633" lon="9.490885"><ele>194.5</ele><time>2026-04-17T10:59:14.942Z</time></trkpt><trkpt lat="44.8188717" lon="9.4912883"><ele>194.0</ele><time>2026-04-17T10:59:15.942Z</time></trkpt><trkpt lat="44.8188817" lon="9.491685"><ele>194.0</ele><time>2026-04-17T10:59:16.942Z</time></trkpt><trkpt lat="44.8188933" lon="9.492075"><ele>194.0</ele><time>2026-04-17T10:59:17.942Z</time></trkpt><trkpt lat="44.81891" lon="9.4924583"><ele>194.0</ele><time>2026-04-17T10:59:18.942Z</time></trkpt><trkpt lat="44.81894" lon="9.49284"><ele>194.0</ele><time>2026-04-17T10:59:19.942Z</time></trkpt><trkpt lat="44.818985" lon="9.493215"><ele>194.0</ele><time>2026-04-17T10:59:20.943Z</time></trkpt><trkpt lat="44.819045" lon="9.493585"><ele>194.0</ele><time>2026-04-17T10:59:21.942Z</time></trkpt><trkpt lat="44.8191167" lon="9.4939533"><ele>196.0</ele><time>2026-04-17T10:59:22.942Z</time></trkpt><trkpt lat="44.8192067" lon="9.494315"><ele>198.0</ele><time>2026-04-17T10:59:23.942Z</time></trkpt><trkpt lat="44.8193" lon="9.494675"><ele>194.0</ele><time>2026-04-17T10:59:24.942Z</time></trkpt><trkpt lat="44.8193967" lon="9.49503"><ele>190.0</ele><time>2026-04-17T10:59:25.942Z</time></trkpt><trkpt lat="44.8194967" lon="9.4953833"><ele>191.5</ele><time>2026-04-17T10:59:26.942Z</time></trkpt><trkpt lat="44.8196" lon="9.4957317"><ele>193.0</ele><time>2026-04-17T10:59:27.942Z</time></trkpt><trkpt lat="44.81971" lon="9.4960767"><ele>195.5</ele><time>2026-04-17T10:59:28.942Z</time></trkpt><trkpt lat="44.8198183" lon="9.4964167"><ele>198.0</ele><time>2026-04-17T10:59:29.942Z</time></trkpt><trkpt lat="44.8199283" lon="9.4967567"><ele>201.0</ele><time>2026-04-17T10:59:30.943Z</time></trkpt><trkpt lat="44.8200417" lon="9.497095"><ele>204.0</ele><time>2026-04-17T10:59:31.942Z</time></trkpt><trkpt lat="44.8201533" lon="9.4974333"><ele>198.0</ele><time>2026-04-17T10:59:32.942Z</time></trkpt><trkpt lat="44.8202633" lon="9.4977667"><ele>192.0</ele><time>2026-04-17T10:59:33.942Z</time></trkpt><trkpt lat="44.820375" lon="9.4981067"><ele>192.0</ele><time>2026-04-17T10:59:34.942Z</time></trkpt><trkpt lat="44.8204817" lon="9.498445"><ele>192.0</ele><time>2026-04-17T10:59:35.942Z</time></trkpt><trkpt lat="44.8205833" lon="9.4987883"><ele>192.5</ele><time>2026-04-17T10:59:36.943Z</time></trkpt><trkpt lat="44.8206733" lon="9.499135"><ele>193.0</ele><time>2026-04-17T10:59:37.942Z</time></trkpt><trkpt lat="44.820765" lon="9.4994833"><ele>193.0</ele><time>2026-04-17T10:59:38.942Z</time></trkpt><trkpt lat="44.820855" lon="9.4998317"><ele>193.0</ele><time>2026-04-17T10:59:39.942Z</time></trkpt><trkpt lat="44.82095" lon="9.5001683"><ele>191.0</ele><time>2026-04-17T10:59:40.942Z</time></trkpt><trkpt lat="44.821055" lon="9.5004867"><ele>189.0</ele><time>2026-04-17T10:59:41.942Z</time></trkpt><trkpt lat="44.8211717" lon="9.500785"><ele>189.0</ele><time>2026-04-17T10:59:42.942Z</time></trkpt><trkpt lat="44.8213033" lon="9.5010733"><ele>189.0</ele><time>2026-04-17T10:59:43.942Z</time></trkpt><trkpt lat="44.821445" lon="9.501345"><ele>190.5</ele><time>2026-04-17T10:59:44.942Z</time></trkpt><trkpt lat="44.8215967" lon="9.501605"><ele>192.0</ele><time>2026-04-17T10:59:45.942Z</time></trkpt><trkpt lat="44.8217667" lon="9.5018467"><ele>189.5</ele><time>2026-04-17T10:59:46.942Z</time></trkpt><trkpt lat="44.8219483" lon="9.502065"><ele>187.0</ele><time>2026-04-17T10:59:47.942Z</time></trkpt><trkpt lat="44.822135" lon="9.50228"><ele>187.0</ele><time>2026-04-17T10:59:48.942Z</time></trkpt><trkpt lat="44.8223267" lon="9.50249"><ele>187.0</ele><time>2026-04-17T10:59:49.942Z</time></trkpt><trkpt lat="44.82252" lon="9.502695"><ele>187.5</ele><time>2026-04-17T10:59:50.942Z</time></trkpt><trkpt lat="44.822715" lon="9.502905"><ele>188.0</ele><time>2026-04-17T10:59:51.942Z</time></trkpt><trkpt lat="44.8229117" lon="9.5031217"><ele>188.5</ele><time>2026-04-17T10:59:52.942Z</time></trkpt><trkpt lat="44.8231067" lon="9.5033533"><ele>189.0</ele><time>2026-04-17T10:59:53.942Z</time></trkpt><trkpt lat="44.8233" lon="9.5035917"><ele>188.5</ele><time>2026-04-17T10:59:54.942Z</time></trkpt><trkpt lat="44.82349" lon="9.503845"><ele>188.0</ele><time>2026-04-17T10:59:55.942Z</time></trkpt><trkpt lat="44.8236667" lon="9.5041117"><ele>188.0</ele><time>2026-04-17T10:59:56.942Z</time></trkpt><trkpt lat="44.823835" lon="9.5043867"><ele>188.0</ele><time>2026-04-17T10:59:57.943Z</time></trkpt><trkpt lat="44.824" lon="9.50467"><ele>188.5</ele><time>2026-04-17T10:59:58.942Z</time></trkpt><trkpt lat="44.8241583" lon="9.5049733"><ele>189.0</ele><time>2026-04-17T10:59:59.942Z</time></trkpt><trkpt lat="44.8243133" lon="9.5052967"><ele>188.5</ele><time>2026-04-17T11:00:00.942Z</time></trkpt><trkpt lat="44.824475" lon="9.50564"><ele>188.0</ele><time>2026-04-17T11:00:01.943Z</time></trkpt><trkpt lat="44.824635" lon="9.505995"><ele>188.5</ele><time>2026-04-17T11:00:02.942Z</time></trkpt><trkpt lat="44.8248067" lon="9.5063633"><ele>189.0</ele><time>2026-04-17T11:00:03.942Z</time></trkpt><trkpt lat="44.8249833" lon="9.5067383"><ele>188.5</ele><time>2026-04-17T11:00:04.942Z</time></trkpt><trkpt lat="44.8251567" lon="9.5071167"><ele>188.0</ele><time>2026-04-17T11:00:05.942Z</time></trkpt><trkpt lat="44.8253283" lon="9.507495"><ele>188.0</ele><time>2026-04-17T11:00:06.943Z</time></trkpt><trkpt lat="44.8255" lon="9.5078667"><ele>188.0</ele><time>2026-04-17T11:00:07.943Z</time></trkpt><trkpt lat="44.825675" lon="9.508235"><ele>187.5</ele><time>2026-04-17T11:00:08.943Z</time></trkpt><trkpt lat="44.82585" lon="9.508595"><ele>187.0</ele><time>2026-04-17T11:00:09.943Z</time></trkpt><trkpt lat="44.8260233" lon="9.5089483"><ele>187.0</ele><time>2026-04-17T11:00:10.942Z</time></trkpt><trkpt lat="44.8261967" lon="9.5092967"><ele>187.0</ele><time>2026-04-17T11:00:11.942Z</time></trkpt><trkpt lat="44.8263667" lon="9.5096383"><ele>187.5</ele><time>2026-04-17T11:00:12.942Z</time></trkpt><trkpt lat="44.8265417" lon="9.5099683"><ele>188.0</ele><time>2026-04-17T11:00:13.942Z</time></trkpt><trkpt lat="44.82672" lon="9.5102933"><ele>188.5</ele><time>2026-04-17T11:00:14.942Z</time></trkpt><trkpt lat="44.8269033" lon="9.5106"><ele>189.0</ele><time>2026-04-17T11:00:15.942Z</time></trkpt><trkpt lat="44.8270883" lon="9.5108917"><ele>189.0</ele><time>2026-04-17T11:00:16.942Z</time></trkpt><trkpt lat="44.8272667" lon="9.511175"><ele>189.0</ele><time>2026-04-17T11:00:17.942Z</time></trkpt><trkpt lat="44.8274383" lon="9.51145"><ele>188.0</ele><time>2026-04-17T11:00:18.942Z</time></trkpt><trkpt lat="44.8276" lon="9.5117267"><ele>187.0</ele><time>2026-04-17T11:00:19.942Z</time></trkpt><trkpt lat="44.8277433" lon="9.5120183"><ele>189.0</ele><time>2026-04-17T11:00:20.942Z</time></trkpt><trkpt lat="44.8278667" lon="9.5123217"><ele>191.0</ele><time>2026-04-17T11:00:21.942Z</time></trkpt><trkpt lat="44.8279833" lon="9.5126267"><ele>196.5</ele><time>2026-04-17T11:00:22.942Z</time></trkpt><trkpt lat="44.8280933" lon="9.512935"><ele>202.0</ele><time>2026-04-17T11:00:23.942Z</time></trkpt><trkpt lat="44.8282083" lon="9.5132317"><ele>202.0</ele><time>2026-04-17T11:00:24.942Z</time></trkpt><trkpt lat="44.8283367" lon="9.5135233"><ele>202.0</ele><time>2026-04-17T11:00:25.942Z</time></trkpt><trkpt lat="44.8284767" lon="9.5138033"><ele>198.5</ele><time>2026-04-17T11:00:26.942Z</time></trkpt><trkpt lat="44.82864" lon="9.514045"><ele>195.0</ele><time>2026-04-17T11:00:27.942Z</time></trkpt><trkpt lat="44.82882" lon="9.5142667"><ele>195.0</ele><time>2026-04-17T11:00:28.942Z</time></trkpt><trkpt lat="44.8290083" lon="9.51447"><ele>195.0</ele><time>2026-04-17T11:00:29.942Z</time></trkpt><trkpt lat="44.8292017" lon="9.5146617"><ele>194.5</ele><time>2026-04-17T11:00:30.942Z</time></trkpt><trkpt lat="44.8293967" lon="9.514845"><ele>194.0</ele><time>2026-04-17T11:00:31.942Z</time></trkpt><trkpt lat="44.8295883" lon="9.5150167"><ele>194.0</ele><time>2026-04-17T11:00:32.942Z</time></trkpt><trkpt lat="44.8297683" lon="9.5151783"><ele>194.0</ele><time>2026-04-17T11:00:33.943Z</time></trkpt><trkpt lat="44.8299333" lon="9.515335"><ele>194.0</ele><time>2026-04-17T11:00:34.942Z</time></trkpt><trkpt lat="44.830085" lon="9.5154833"><ele>194.75</ele><time>2026-04-17T11:00:35.942Z</time></trkpt><trkpt lat="44.83021" lon="9.5156333"><ele>195.5</ele><time>2026-04-17T11:00:36.942Z</time></trkpt><trkpt lat="44.8303" lon="9.515775"><ele>196.25</ele><time>2026-04-17T11:00:37.942Z</time></trkpt><trkpt lat="44.8303467" lon="9.515895"><ele>197.0</ele><time>2026-04-17T11:00:38.942Z</time></trkpt><trkpt lat="44.8303667" lon="9.5160067"><ele>197.00000000000003</ele><time>2026-04-17T11:00:39.942Z</time></trkpt><trkpt lat="44.8303717" lon="9.5161083"><ele>197.0</ele><time>2026-04-17T11:00:40.942Z</time></trkpt><trkpt lat="44.8303883" lon="9.5162"><ele>197.0</ele><time>2026-04-17T11:00:41.942Z</time></trkpt><trkpt lat="44.8304267" lon="9.51628"><ele>197.0</ele><time>2026-04-17T11:00:42.942Z</time></trkpt><trkpt lat="44.8305067" lon="9.5162783"><ele>197.00000000000003</ele><time>2026-04-17T11:00:43.942Z</time></trkpt><trkpt lat="44.8305917" lon="9.51628"><ele>197.0</ele><time>2026-04-17T11:00:44.942Z</time></trkpt><trkpt lat="44.830685" lon="9.5163483"><ele>199.0</ele><time>2026-04-17T11:00:45.942Z</time></trkpt><trkpt lat="44.8307617" lon="9.5164917"><ele>201.0</ele><time>2026-04-17T11:00:46.942Z</time></trkpt><trkpt lat="44.8308217" lon="9.516685"><ele>203.0</ele><time>2026-04-17T11:00:47.942Z</time></trkpt><trkpt lat="44.83086" lon="9.5169033"><ele>205.0</ele><time>2026-04-17T11:00:48.942Z</time></trkpt><trkpt lat="44.83087" lon="9.517135"><ele>205.33333333333331</ele><time>2026-04-17T11:00:49.942Z</time></trkpt><trkpt lat="44.8308367" lon="9.517375"><ele>205.66666666666669</ele><time>2026-04-17T11:00:50.942Z</time></trkpt><trkpt lat="44.830755" lon="9.5176217"><ele>206.0</ele><time>2026-04-17T11:00:51.942Z</time></trkpt><trkpt lat="44.830665" lon="9.51786"><ele>204.0</ele><time>2026-04-17T11:00:52.942Z</time></trkpt><trkpt lat="44.83059" lon="9.518085"><ele>202.0</ele><time>2026-04-17T11:00:53.942Z</time></trkpt><trkpt lat="44.8305383" lon="9.518305"><ele>200.0</ele><time>2026-04-17T11:00:54.942Z</time></trkpt><trkpt lat="44.8305417" lon="9.5185233"><ele>200.66666666666669</ele><time>2026-04-17T11:00:55.942Z</time></trkpt><trkpt lat="44.830605" lon="9.5187367"><ele>201.33333333333331</ele><time>2026-04-17T11:00:56.942Z</time></trkpt><trkpt lat="44.8307267" lon="9.5189267"><ele>202.0</ele><time>2026-04-17T11:00:57.942Z</time></trkpt><trkpt lat="44.8308633" lon="9.5191283"><ele>203.0</ele><time>2026-04-17T11:00:58.942Z</time></trkpt><trkpt lat="44.831" lon="9.519335"><ele>204.0</ele><time>2026-04-17T11:00:59.942Z</time></trkpt><trkpt lat="44.83114" lon="9.5195483"><ele>205.0</ele><time>2026-04-17T11:01:00.942Z</time></trkpt><trkpt lat="44.831275" lon="9.5197567"><ele>205.0</ele><time>2026-04-17T11:01:01.942Z</time></trkpt><trkpt lat="44.83141" lon="9.5199483"><ele>205.0</ele><time>2026-04-17T11:01:02.942Z</time></trkpt><trkpt lat="44.83156" lon="9.5200917"><ele>205.0</ele><time>2026-04-17T11:01:03.942Z</time></trkpt><trkpt lat="44.8317333" lon="9.5201717"><ele>206.33333333333331</ele><time>2026-04-17T11:01:04.942Z</time></trkpt><trkpt lat="44.83192" lon="9.5201817"><ele>207.66666666666669</ele><time>2026-04-17T11:01:05.942Z</time></trkpt><trkpt lat="44.83212" lon="9.520125"><ele>209.0</ele><time>2026-04-17T11:01:06.942Z</time></trkpt><trkpt lat="44.8323283" lon="9.5200283"><ele>209.0</ele><time>2026-04-17T11:01:07.942Z</time></trkpt><trkpt lat="44.8325383" lon="9.5199317"><ele>209.0</ele><time>2026-04-17T11:01:08.942Z</time></trkpt><trkpt lat="44.83274" lon="9.5198283"><ele>209.0</ele><time>2026-04-17T11:01:09.942Z</time></trkpt><trkpt lat="44.832925" lon="9.5197317"><ele>210.0</ele><time>2026-04-17T11:01:10.942Z</time></trkpt><trkpt lat="44.8331017" lon="9.519655"><ele>211.0</ele><time>2026-04-17T11:01:11.942Z</time></trkpt><trkpt lat="44.83328" lon="9.519615"><ele>212.0</ele><time>2026-04-17T11:01:12.942Z</time></trkpt><trkpt lat="44.83347" lon="9.519635"><ele>210.33333333333334</ele><time>2026-04-17T11:01:13.942Z</time></trkpt><trkpt lat="44.8336467" lon="9.5197233"><ele>208.66666666666669</ele><time>2026-04-17T11:01:14.943Z</time></trkpt><trkpt lat="44.833825" lon="9.519845"><ele>207.0</ele><time>2026-04-17T11:01:15.942Z</time></trkpt><trkpt lat="44.833985" lon="9.5199783"><ele>207.0</ele><time>2026-04-17T11:01:16.942Z</time></trkpt><trkpt lat="44.83412" lon="9.5201233"><ele>207.0</ele><time>2026-04-17T11:01:17.942Z</time></trkpt><trkpt lat="44.8342417" lon="9.5202567"><ele>207.0</ele><time>2026-04-17T11:01:18.942Z</time></trkpt><trkpt lat="44.8343683" lon="9.5203483"><ele>208.25</ele><time>2026-04-17T11:01:19.942Z</time></trkpt><trkpt lat="44.8345067" lon="9.52036"><ele>209.5</ele><time>2026-04-17T11:01:20.943Z</time></trkpt><trkpt lat="44.8346433" lon="9.5202917"><ele>210.75</ele><time>2026-04-17T11:01:21.942Z</time></trkpt><trkpt lat="44.8347783" lon="9.5201683"><ele>212.0</ele><time>2026-04-17T11:01:22.942Z</time></trkpt><trkpt lat="44.834925" lon="9.5200433"><ele>212.0</ele><time>2026-04-17T11:01:23.942Z</time></trkpt><trkpt lat="44.8350867" lon="9.5199617"><ele>212.0</ele><time>2026-04-17T11:01:24.942Z</time></trkpt><trkpt lat="44.8352633" lon="9.5199417"><ele>212.0</ele><time>2026-04-17T11:01:25.942Z</time></trkpt><trkpt lat="44.8354467" lon="9.5199883"><ele>209.33333333333334</ele><time>2026-04-17T11:01:26.942Z</time></trkpt><trkpt lat="44.83564" lon="9.5200833"><ele>206.66666666666669</ele><time>2026-04-17T11:01:27.942Z</time></trkpt><trkpt lat="44.8358383" lon="9.5201967"><ele>204.0</ele><time>2026-04-17T11:01:28.942Z</time></trkpt><trkpt lat="44.8360317" lon="9.52035"><ele>205.33333333333331</ele><time>2026-04-17T11:01:29.942Z</time></trkpt><trkpt lat="44.8361967" lon="9.5205383"><ele>206.66666666666666</ele><time>2026-04-17T11:01:30.942Z</time></trkpt><trkpt lat="44.83637" lon="9.5207533"><ele>208.0</ele><time>2026-04-17T11:01:31.942Z</time></trkpt><trkpt lat="44.8365483" lon="9.5209917"><ele>205.5</ele><time>2026-04-17T11:01:32.942Z</time></trkpt><trkpt lat="44.8367317" lon="9.521265"><ele>203.0</ele><time>2026-04-17T11:01:33.942Z</time></trkpt><trkpt lat="44.8369367" lon="9.5215333"><ele>203.0</ele><time>2026-04-17T11:01:34.942Z</time></trkpt><trkpt lat="44.8371617" lon="9.5218067"><ele>203.0</ele><time>2026-04-17T11:01:35.942Z</time></trkpt><trkpt lat="44.8374083" lon="9.5220733"><ele>203.0</ele><time>2026-04-17T11:01:36.942Z</time></trkpt><trkpt lat="44.8376517" lon="9.5223367"><ele>203.0</ele><time>2026-04-17T11:01:37.942Z</time></trkpt><trkpt lat="44.837875" lon="9.5225783"><ele>203.0</ele><time>2026-04-17T11:01:38.942Z</time></trkpt><trkpt lat="44.8380817" lon="9.5227967"><ele>203.0</ele><time>2026-04-17T11:01:39.942Z</time></trkpt><trkpt lat="44.8382733" lon="9.522995"><ele>199.5</ele><time>2026-04-17T11:01:40.942Z</time></trkpt><trkpt lat="44.8384467" lon="9.5232017"><ele>196.0</ele><time>2026-04-17T11:01:41.942Z</time></trkpt><trkpt lat="44.8385983" lon="9.5234317"><ele>196.0</ele><time>2026-04-17T11:01:42.942Z</time></trkpt><trkpt lat="44.8387283" lon="9.52368"><ele>196.0</ele><time>2026-04-17T11:01:43.942Z</time></trkpt><trkpt lat="44.83884" lon="9.5239433"><ele>196.0</ele><time>2026-04-17T11:01:44.942Z</time></trkpt><trkpt lat="44.8389283" lon="9.5242333"><ele>202.0</ele><time>2026-04-17T11:01:45.942Z</time></trkpt><trkpt lat="44.8389867" lon="9.5245483"><ele>208.0</ele><time>2026-04-17T11:01:46.942Z</time></trkpt><trkpt lat="44.8390417" lon="9.5248767"><ele>211.0</ele><time>2026-04-17T11:01:47.942Z</time></trkpt><trkpt lat="44.8391317" lon="9.52519"><ele>214.0</ele><time>2026-04-17T11:01:48.942Z</time></trkpt><trkpt lat="44.83925" lon="9.525505"><ele>206.0</ele><time>2026-04-17T11:01:49.942Z</time></trkpt><trkpt lat="44.8393833" lon="9.52582"><ele>198.0</ele><time>2026-04-17T11:01:50.942Z</time></trkpt><trkpt lat="44.8395117" lon="9.5261517"><ele>202.0</ele><time>2026-04-17T11:01:51.942Z</time></trkpt><trkpt lat="44.8396417" lon="9.5264817"><ele>206.0</ele><time>2026-04-17T11:01:52.942Z</time></trkpt><trkpt lat="44.8397717" lon="9.526825"><ele>210.5</ele><time>2026-04-17T11:01:53.942Z</time></trkpt><trkpt lat="44.8399033" lon="9.527175"><ele>215.0</ele><time>2026-04-17T11:01:54.942Z</time></trkpt><trkpt lat="44.84005" lon="9.52753"><ele>209.0</ele><time>2026-04-17T11:01:55.942Z</time></trkpt><trkpt lat="44.8401867" lon="9.5278867"><ele>203.0</ele><time>2026-04-17T11:01:56.942Z</time></trkpt><trkpt lat="44.8403383" lon="9.5282383"><ele>203.0</ele><time>2026-04-17T11:01:57.942Z</time></trkpt><trkpt lat="44.84051" lon="9.528575"><ele>203.0</ele><time>2026-04-17T11:01:58.943Z</time></trkpt><trkpt lat="44.8407" lon="9.5289017"><ele>205.5</ele><time>2026-04-17T11:01:59.942Z</time></trkpt><trkpt lat="44.8408983" lon="9.5292117"><ele>208.0</ele><time>2026-04-17T11:02:00.942Z</time></trkpt><trkpt lat="44.8410917" lon="9.5295083"><ele>205.0</ele><time>2026-04-17T11:02:01.943Z</time></trkpt><trkpt lat="44.8412667" lon="9.52982"><ele>202.0</ele><time>2026-04-17T11:02:02.942Z</time></trkpt><trkpt lat="44.841415" lon="9.53014"><ele>206.5</ele><time>2026-04-17T11:02:03.942Z</time></trkpt><trkpt lat="44.8415367" lon="9.530455"><ele>211.0</ele><time>2026-04-17T11:02:04.942Z</time></trkpt><trkpt lat="44.841655" lon="9.5307583"><ele>211.0</ele><time>2026-04-17T11:02:05.943Z</time></trkpt><trkpt lat="44.8417733" lon="9.5310317"><ele>211.0</ele><time>2026-04-17T11:02:06.942Z</time></trkpt><trkpt lat="44.8419117" lon="9.53127"><ele>211.0</ele><time>2026-04-17T11:02:07.942Z</time></trkpt><trkpt lat="44.8420833" lon="9.531465"><ele>210.0</ele><time>2026-04-17T11:02:08.943Z</time></trkpt><trkpt lat="44.842275" lon="9.5316067"><ele>209.0</ele><time>2026-04-17T11:02:09.942Z</time></trkpt><trkpt lat="44.842455" lon="9.5317183"><ele>208.0</ele><time>2026-04-17T11:02:10.942Z</time></trkpt><trkpt lat="44.8426233" lon="9.531825"><ele>201.33333333333331</ele><time>2026-04-17T11:02:11.942Z</time></trkpt><trkpt lat="44.8427767" lon="9.5319633"><ele>194.66666666666666</ele><time>2026-04-17T11:02:12.942Z</time></trkpt><trkpt lat="44.8428933" lon="9.5321733"><ele>188.0</ele><time>2026-04-17T11:02:13.942Z</time></trkpt><trkpt lat="44.8429783" lon="9.5324533"><ele>188.0</ele><time>2026-04-17T11:02:14.942Z</time></trkpt><trkpt lat="44.8430467" lon="9.5327967"><ele>188.0</ele><time>2026-04-17T11:02:15.942Z</time></trkpt><trkpt lat="44.8431067" lon="9.53317"><ele>192.5</ele><time>2026-04-17T11:02:16.942Z</time></trkpt><trkpt lat="44.84317" lon="9.5335483"><ele>197.0</ele><time>2026-04-17T11:02:17.942Z</time></trkpt><trkpt lat="44.8432167" lon="9.5339267"><ele>199.0</ele><time>2026-04-17T11:02:18.942Z</time></trkpt><trkpt lat="44.8432567" lon="9.5342917"><ele>201.0</ele><time>2026-04-17T11:02:19.942Z</time></trkpt><trkpt lat="44.8432917" lon="9.534625"><ele>202.66666666666669</ele><time>2026-04-17T11:02:20.942Z</time></trkpt><trkpt lat="44.8433067" lon="9.5349417"><ele>204.33333333333334</ele><time>2026-04-17T11:02:21.942Z</time></trkpt><trkpt lat="44.8433167" lon="9.5352217"><ele>206.0</ele><time>2026-04-17T11:02:22.943Z</time></trkpt><trkpt lat="44.8433317" lon="9.5354667"><ele>207.33333333333334</ele><time>2026-04-17T11:02:23.943Z</time></trkpt><trkpt lat="44.8433867" lon="9.5356767"><ele>208.66666666666669</ele><time>2026-04-17T11:02:24.942Z</time></trkpt><trkpt lat="44.8434883" lon="9.5358617"><ele>210.0</ele><time>2026-04-17T11:02:25.942Z</time></trkpt><trkpt lat="44.8436417" lon="9.5360017"><ele>206.0</ele><time>2026-04-17T11:02:26.942Z</time></trkpt><trkpt lat="44.8438117" lon="9.5360767"><ele>202.0</ele><time>2026-04-17T11:02:27.942Z</time></trkpt><trkpt lat="44.8439983" lon="9.5360783"><ele>198.0</ele><time>2026-04-17T11:02:28.942Z</time></trkpt><trkpt lat="44.84418" lon="9.536055"><ele>197.66666666666669</ele><time>2026-04-17T11:02:29.942Z</time></trkpt><trkpt lat="44.8443517" lon="9.536095"><ele>197.33333333333334</ele><time>2026-04-17T11:02:30.942Z</time></trkpt><trkpt lat="44.844515" lon="9.5361883"><ele>197.0</ele><time>2026-04-17T11:02:31.942Z</time></trkpt><trkpt lat="44.844655" lon="9.53635"><ele>197.0</ele><time>2026-04-17T11:02:32.942Z</time></trkpt><trkpt lat="44.8447817" lon="9.536535"><ele>197.0</ele><time>2026-04-17T11:02:33.942Z</time></trkpt><trkpt lat="44.8449217" lon="9.536695"><ele>197.0</ele><time>2026-04-17T11:02:34.942Z</time></trkpt><trkpt lat="44.845085" lon="9.5368083"><ele>195.33333333333334</ele><time>2026-04-17T11:02:35.942Z</time></trkpt><trkpt lat="44.8452533" lon="9.536925"><ele>193.66666666666669</ele><time>2026-04-17T11:02:36.942Z</time></trkpt><trkpt lat="44.8454067" lon="9.5370667"><ele>192.0</ele><time>2026-04-17T11:02:37.942Z</time></trkpt><trkpt lat="44.8455533" lon="9.537245"><ele>192.0</ele><time>2026-04-17T11:02:38.942Z</time></trkpt><trkpt lat="44.84568" lon="9.537475"><ele>192.0</ele><time>2026-04-17T11:02:39.942Z</time></trkpt><trkpt lat="44.84579" lon="9.5377183"><ele>192.0</ele><time>2026-04-17T11:02:40.942Z</time></trkpt><trkpt lat="44.8459033" lon="9.53794"><ele>190.66666666666666</ele><time>2026-04-17T11:02:41.942Z</time></trkpt><trkpt lat="44.8460567" lon="9.5381183"><ele>189.33333333333331</ele><time>2026-04-17T11:02:42.942Z</time></trkpt><trkpt lat="44.846235" lon="9.538255"><ele>188.0</ele><time>2026-04-17T11:02:43.942Z</time></trkpt><trkpt lat="44.8464367" lon="9.5383667"><ele>188.0</ele><time>2026-04-17T11:02:44.942Z</time></trkpt><trkpt lat="44.8466433" lon="9.5384867"><ele>188.0</ele><time>2026-04-17T11:02:45.942Z</time></trkpt><trkpt lat="44.84684" lon="9.53864"><ele>188.0</ele><time>2026-04-17T11:02:46.942Z</time></trkpt><trkpt lat="44.84703" lon="9.5388233"><ele>188.5</ele><time>2026-04-17T11:02:47.942Z</time></trkpt><trkpt lat="44.8472117" lon="9.539035"><ele>189.0</ele><time>2026-04-17T11:02:48.942Z</time></trkpt><trkpt lat="44.847375" lon="9.5392567"><ele>189.0</ele><time>2026-04-17T11:02:49.942Z</time></trkpt><trkpt lat="44.8475267" lon="9.53948"><ele>189.0</ele><time>2026-04-17T11:02:50.943Z</time></trkpt><trkpt lat="44.84767" lon="9.5396917"><ele>189.0</ele><time>2026-04-17T11:02:51.942Z</time></trkpt><trkpt lat="44.8478" lon="9.5398933"><ele>189.33333333333334</ele><time>2026-04-17T11:02:52.942Z</time></trkpt><trkpt lat="44.8479167" lon="9.5400867"><ele>189.66666666666669</ele><time>2026-04-17T11:02:53.942Z</time></trkpt><trkpt lat="44.8480267" lon="9.54026"><ele>190.0</ele><time>2026-04-17T11:02:54.942Z</time></trkpt><trkpt lat="44.8481317" lon="9.5404117"><ele>190.0</ele><time>2026-04-17T11:02:55.942Z</time></trkpt><trkpt lat="44.8482383" lon="9.5405233"><ele>190.0</ele><time>2026-04-17T11:02:56.942Z</time></trkpt><trkpt lat="44.848355" lon="9.540595"><ele>190.0</ele><time>2026-04-17T11:02:57.942Z</time></trkpt><trkpt lat="44.8485133" lon="9.54063"><ele>190.0</ele><time>2026-04-17T11:02:58.942Z</time></trkpt><trkpt lat="44.8487083" lon="9.5406633"><ele>190.0</ele><time>2026-04-17T11:02:59.942Z</time></trkpt><trkpt lat="44.8489233" lon="9.5407"><ele>190.0</ele><time>2026-04-17T11:03:00.942Z</time></trkpt><trkpt lat="44.8491467" lon="9.5407383"><ele>190.0</ele><time>2026-04-17T11:03:01.942Z</time></trkpt><trkpt lat="44.8493817" lon="9.5407733"><ele>190.0</ele><time>2026-04-17T11:03:02.942Z</time></trkpt><trkpt lat="44.8496317" lon="9.5407983"><ele>190.0</ele><time>2026-04-17T11:03:03.942Z</time></trkpt><trkpt lat="44.8498833" lon="9.5408283"><ele>191.0</ele><time>2026-04-17T11:03:04.942Z</time></trkpt><trkpt lat="44.85014" lon="9.5408583"><ele>192.0</ele><time>2026-04-17T11:03:05.942Z</time></trkpt><trkpt lat="44.8503983" lon="9.54089"><ele>192.0</ele><time>2026-04-17T11:03:06.942Z</time></trkpt><trkpt lat="44.8506517" lon="9.5409117"><ele>192.0</ele><time>2026-04-17T11:03:07.942Z</time></trkpt><trkpt lat="44.8508967" lon="9.54094"><ele>191.0</ele><time>2026-04-17T11:03:08.942Z</time></trkpt><trkpt lat="44.8511333" lon="9.5409883"><ele>190.0</ele><time>2026-04-17T11:03:09.942Z</time></trkpt><trkpt lat="44.8513633" lon="9.5410717"><ele>190.0</ele><time>2026-04-17T11:03:10.942Z</time></trkpt><trkpt lat="44.851595" lon="9.5411933"><ele>190.0</ele><time>2026-04-17T11:03:11.942Z</time></trkpt><trkpt lat="44.8518317" lon="9.5413217"><ele>191.5</ele><time>2026-04-17T11:03:12.942Z</time></trkpt><trkpt lat="44.85207" lon="9.54146"><ele>193.0</ele><time>2026-04-17T11:03:13.942Z</time></trkpt><trkpt lat="44.852305" lon="9.54161"><ele>193.0</ele><time>2026-04-17T11:03:14.942Z</time></trkpt><trkpt lat="44.85255" lon="9.541765"><ele>193.0</ele><time>2026-04-17T11:03:15.942Z</time></trkpt><trkpt lat="44.8527917" lon="9.541925"><ele>192.0</ele><time>2026-04-17T11:03:16.942Z</time></trkpt><trkpt lat="44.8530233" lon="9.5420833"><ele>191.0</ele><time>2026-04-17T11:03:17.942Z</time></trkpt><trkpt lat="44.85324" lon="9.542255"><ele>191.0</ele><time>2026-04-17T11:03:18.943Z</time></trkpt><trkpt lat="44.853435" lon="9.5424617"><ele>191.0</ele><time>2026-04-17T11:03:19.942Z</time></trkpt><trkpt lat="44.8536017" lon="9.5427167"><ele>185.5</ele><time>2026-04-17T11:03:20.942Z</time></trkpt><trkpt lat="44.8537317" lon="9.542995"><ele>180.0</ele><time>2026-04-17T11:03:21.942Z</time></trkpt><trkpt lat="44.85382" lon="9.5433017"><ele>180.0</ele><time>2026-04-17T11:03:22.942Z</time></trkpt><trkpt lat="44.85387" lon="9.543635"><ele>180.0</ele><time>2026-04-17T11:03:23.942Z</time></trkpt><trkpt lat="44.85391" lon="9.5439717"><ele>181.0</ele><time>2026-04-17T11:03:24.943Z</time></trkpt><trkpt lat="44.8539667" lon="9.544295"><ele>182.0</ele><time>2026-04-17T11:03:25.942Z</time></trkpt><trkpt lat="44.854045" lon="9.5446"><ele>185.5</ele><time>2026-04-17T11:03:26.942Z</time></trkpt><trkpt lat="44.85416" lon="9.5448983"><ele>189.0</ele><time>2026-04-17T11:03:27.942Z</time></trkpt><trkpt lat="44.8543017" lon="9.5451867"><ele>186.0</ele><time>2026-04-17T11:03:28.942Z</time></trkpt><trkpt lat="44.8544583" lon="9.5454733"><ele>183.0</ele><time>2026-04-17T11:03:29.942Z</time></trkpt><trkpt lat="44.8546267" lon="9.5457417"><ele>183.0</ele><time>2026-04-17T11:03:30.942Z</time></trkpt><trkpt lat="44.854805" lon="9.5459933"><ele>183.0</ele><time>2026-04-17T11:03:31.943Z</time></trkpt><trkpt lat="44.8549867" lon="9.5462367"><ele>183.0</ele><time>2026-04-17T11:03:32.943Z</time></trkpt><trkpt lat="44.855165" lon="9.5464667"><ele>183.0</ele><time>2026-04-17T11:03:33.943Z</time></trkpt><trkpt lat="44.8553417" lon="9.54669"><ele>183.0</ele><time>2026-04-17T11:03:34.943Z</time></trkpt><trkpt lat="44.855515" lon="9.5469133"><ele>183.0</ele><time>2026-04-17T11:03:35.943Z</time></trkpt><trkpt lat="44.8556883" lon="9.54713"><ele>181.66666666666666</ele><time>2026-04-17T11:03:36.943Z</time></trkpt><trkpt lat="44.8558567" lon="9.5473383"><ele>180.33333333333331</ele><time>2026-04-17T11:03:37.943Z</time></trkpt><trkpt lat="44.8560217" lon="9.5475383"><ele>179.0</ele><time>2026-04-17T11:03:38.943Z</time></trkpt><trkpt lat="44.8561833" lon="9.547705"><ele>179.0</ele><time>2026-04-17T11:03:39.943Z</time></trkpt><trkpt lat="44.8563617" lon="9.547825"><ele>179.0</ele><time>2026-04-17T11:03:40.943Z</time></trkpt><trkpt lat="44.856555" lon="9.5479267"><ele>179.0</ele><time>2026-04-17T11:03:41.943Z</time></trkpt><trkpt lat="44.8567667" lon="9.54803"><ele>182.0</ele><time>2026-04-17T11:03:42.943Z</time></trkpt><trkpt lat="44.8569983" lon="9.5481367"><ele>185.0</ele><time>2026-04-17T11:03:43.943Z</time></trkpt><trkpt lat="44.857245" lon="9.5482567"><ele>185.0</ele><time>2026-04-17T11:03:44.944Z</time></trkpt><trkpt lat="44.8574967" lon="9.5483717"><ele>185.0</ele><time>2026-04-17T11:03:45.943Z</time></trkpt><trkpt lat="44.8577383" lon="9.5484867"><ele>180.5</ele><time>2026-04-17T11:03:46.943Z</time></trkpt><trkpt lat="44.8579667" lon="9.5486167"><ele>176.0</ele><time>2026-04-17T11:03:47.943Z</time></trkpt><trkpt lat="44.858185" lon="9.5487833"><ele>174.0</ele><time>2026-04-17T11:03:48.943Z</time></trkpt><trkpt lat="44.8584" lon="9.5490017"><ele>172.0</ele><time>2026-04-17T11:03:49.943Z</time></trkpt><trkpt lat="44.858625" lon="9.5492417"><ele>172.0</ele><time>2026-04-17T11:03:50.944Z</time></trkpt><trkpt lat="44.8588567" lon="9.5494933"><ele>172.0</ele><time>2026-04-17T11:03:51.943Z</time></trkpt><trkpt lat="44.859105" lon="9.5497417"><ele>173.0</ele><time>2026-04-17T11:03:52.943Z</time></trkpt><trkpt lat="44.8593533" lon="9.5499883"><ele>174.0</ele><time>2026-04-17T11:03:53.943Z</time></trkpt><trkpt lat="44.8595833" lon="9.55022"><ele>184.0</ele><time>2026-04-17T11:03:54.943Z</time></trkpt><trkpt lat="44.859795" lon="9.5504567"><ele>194.0</ele><time>2026-04-17T11:03:55.943Z</time></trkpt><trkpt lat="44.8600067" lon="9.550705"><ele>190.5</ele><time>2026-04-17T11:03:56.943Z</time></trkpt><trkpt lat="44.8602233" lon="9.55097"><ele>187.0</ele><time>2026-04-17T11:03:57.943Z</time></trkpt><trkpt lat="44.86045" lon="9.55122"><ele>187.0</ele><time>2026-04-17T11:03:58.943Z</time></trkpt><trkpt lat="44.8606617" lon="9.5514567"><ele>187.0</ele><time>2026-04-17T11:03:59.943Z</time></trkpt><trkpt lat="44.86086" lon="9.5516733"><ele>186.0</ele><time>2026-04-17T11:04:00.943Z</time></trkpt><trkpt lat="44.8610467" lon="9.5518733"><ele>185.0</ele><time>2026-04-17T11:04:01.943Z</time></trkpt><trkpt lat="44.861215" lon="9.552085"><ele>185.0</ele><time>2026-04-17T11:04:02.943Z</time></trkpt><trkpt lat="44.8613717" lon="9.55233"><ele>185.0</ele><time>2026-04-17T11:04:03.943Z</time></trkpt><trkpt lat="44.8615033" lon="9.5526083"><ele>183.33333333333331</ele><time>2026-04-17T11:04:04.943Z</time></trkpt><trkpt lat="44.86163" lon="9.55288"><ele>181.66666666666666</ele><time>2026-04-17T11:04:05.943Z</time></trkpt><trkpt lat="44.8617467" lon="9.5531283"><ele>180.0</ele><time>2026-04-17T11:04:06.943Z</time></trkpt><trkpt lat="44.8618733" lon="9.55334"><ele>180.0</ele><time>2026-04-17T11:04:07.943Z</time></trkpt><trkpt lat="44.862035" lon="9.5535033"><ele>180.0</ele><time>2026-04-17T11:04:08.943Z</time></trkpt><trkpt lat="44.8622117" lon="9.5536417"><ele>180.0</ele><time>2026-04-17T11:04:09.943Z</time></trkpt><trkpt lat="44.8623817" lon="9.55378"><ele>180.0</ele><time>2026-04-17T11:04:10.943Z</time></trkpt><trkpt lat="44.862535" lon="9.5539483"><ele>180.0</ele><time>2026-04-17T11:04:11.943Z</time></trkpt><trkpt lat="44.8626717" lon="9.5541533"><ele>180.0</ele><time>2026-04-17T11:04:12.943Z</time></trkpt><trkpt lat="44.8627717" lon="9.5543933"><ele>182.66666666666666</ele><time>2026-04-17T11:04:13.943Z</time></trkpt><trkpt lat="44.8629033" lon="9.5546433"><ele>185.33333333333331</ele><time>2026-04-17T11:04:14.943Z</time></trkpt><trkpt lat="44.8630517" lon="9.554875"><ele>188.0</ele><time>2026-04-17T11:04:15.943Z</time></trkpt><trkpt lat="44.8632117" lon="9.55508"><ele>188.0</ele><time>2026-04-17T11:04:16.943Z</time></trkpt><trkpt lat="44.8634017" lon="9.5552317"><ele>188.0</ele><time>2026-04-17T11:04:17.943Z</time></trkpt><trkpt lat="44.8636033" lon="9.5553267"><ele>188.0</ele><time>2026-04-17T11:04:18.943Z</time></trkpt><trkpt lat="44.8638283" lon="9.555305"><ele>188.0</ele><time>2026-04-17T11:04:19.943Z</time></trkpt><trkpt lat="44.8640667" lon="9.5552483"><ele>188.0</ele><time>2026-04-17T11:04:20.943Z</time></trkpt><trkpt lat="44.86433" lon="9.555165"><ele>190.5</ele><time>2026-04-17T11:04:21.943Z</time></trkpt><trkpt lat="44.8646133" lon="9.5550633"><ele>193.0</ele><time>2026-04-17T11:04:22.943Z</time></trkpt><trkpt lat="44.86489" lon="9.5549733"><ele>194.0</ele><time>2026-04-17T11:04:23.943Z</time></trkpt><trkpt lat="44.865145" lon="9.55489"><ele>195.0</ele><time>2026-04-17T11:04:24.943Z</time></trkpt><trkpt lat="44.8653767" lon="9.55482"><ele>195.0</ele><time>2026-04-17T11:04:25.943Z</time></trkpt><trkpt lat="44.865595" lon="9.554755"><ele>195.0</ele><time>2026-04-17T11:04:26.943Z</time></trkpt><trkpt lat="44.8657917" lon="9.55471"><ele>195.0</ele><time>2026-04-17T11:04:27.943Z</time></trkpt><trkpt lat="44.86598" lon="9.5547067"><ele>192.0</ele><time>2026-04-17T11:04:28.943Z</time></trkpt><trkpt lat="44.866165" lon="9.55477"><ele>189.0</ele><time>2026-04-17T11:04:29.943Z</time></trkpt><trkpt lat="44.8663333" lon="9.55492"><ele>186.0</ele><time>2026-04-17T11:04:30.943Z</time></trkpt><trkpt lat="44.8665017" lon="9.5551233"><ele>186.0</ele><time>2026-04-17T11:04:31.943Z</time></trkpt><trkpt lat="44.8666633" lon="9.5553583"><ele>186.0</ele><time>2026-04-17T11:04:32.943Z</time></trkpt><trkpt lat="44.86683" lon="9.5555967"><ele>186.0</ele><time>2026-04-17T11:04:33.943Z</time></trkpt><trkpt lat="44.8670017" lon="9.5558133"><ele>186.0</ele><time>2026-04-17T11:04:34.943Z</time></trkpt><trkpt lat="44.8671967" lon="9.5559833"><ele>186.0</ele><time>2026-04-17T11:04:35.943Z</time></trkpt><trkpt lat="44.86742" lon="9.5560933"><ele>186.0</ele><time>2026-04-17T11:04:36.944Z</time></trkpt><trkpt lat="44.867645" lon="9.5561633"><ele>186.66666666666666</ele><time>2026-04-17T11:04:37.944Z</time></trkpt><trkpt lat="44.8678533" lon="9.556225"><ele>187.33333333333331</ele><time>2026-04-17T11:04:38.943Z</time></trkpt><trkpt lat="44.8680517" lon="9.5563083"><ele>188.0</ele><time>2026-04-17T11:04:39.943Z</time></trkpt><trkpt lat="44.86823" lon="9.5564383"><ele>188.0</ele><time>2026-04-17T11:04:40.943Z</time></trkpt><trkpt lat="44.8683817" lon="9.5566283"><ele>188.0</ele><time>2026-04-17T11:04:41.943Z</time></trkpt><trkpt lat="44.8685" lon="9.5568883"><ele>188.0</ele><time>2026-04-17T11:04:42.943Z</time></trkpt><trkpt lat="44.8686133" lon="9.557155"><ele>187.0</ele><time>2026-04-17T11:04:43.943Z</time></trkpt><trkpt lat="44.8687217" lon="9.5574033"><ele>186.0</ele><time>2026-04-17T11:04:44.943Z</time></trkpt><trkpt lat="44.868855" lon="9.5576267"><ele>185.0</ele><time>2026-04-17T11:04:45.943Z</time></trkpt><trkpt lat="44.86903" lon="9.557795"><ele>190.5</ele><time>2026-04-17T11:04:46.943Z</time></trkpt><trkpt lat="44.869235" lon="9.557895"><ele>196.0</ele><time>2026-04-17T11:04:47.943Z</time></trkpt><trkpt lat="44.869475" lon="9.5579483"><ele>196.0</ele><time>2026-04-17T11:04:48.943Z</time></trkpt><trkpt lat="44.8697333" lon="9.5579617"><ele>196.0</ele><time>2026-04-17T11:04:49.944Z</time></trkpt><trkpt lat="44.8700067" lon="9.5579117"><ele>191.0</ele><time>2026-04-17T11:04:50.943Z</time></trkpt><trkpt lat="44.870275" lon="9.5578283"><ele>186.0</ele><time>2026-04-17T11:04:51.943Z</time></trkpt><trkpt lat="44.870525" lon="9.557745"><ele>186.0</ele><time>2026-04-17T11:04:52.943Z</time></trkpt><trkpt lat="44.8707533" lon="9.5576733"><ele>186.0</ele><time>2026-04-17T11:04:53.943Z</time></trkpt><trkpt lat="44.87097" lon="9.55762"><ele>183.33333333333334</ele><time>2026-04-17T11:04:54.943Z</time></trkpt><trkpt lat="44.8711817" lon="9.5576017"><ele>180.66666666666669</ele><time>2026-04-17T11:04:55.943Z</time></trkpt><trkpt lat="44.871385" lon="9.55765"><ele>178.0</ele><time>2026-04-17T11:04:56.943Z</time></trkpt><trkpt lat="44.8715717" lon="9.55777"><ele>176.66666666666669</ele><time>2026-04-17T11:04:57.943Z</time></trkpt><trkpt lat="44.871745" lon="9.5579383"><ele>175.33333333333334</ele><time>2026-04-17T11:04:58.943Z</time></trkpt><trkpt lat="44.8718817" lon="9.55817"><ele>174.0</ele><time>2026-04-17T11:04:59.943Z</time></trkpt><trkpt lat="44.8719933" lon="9.55844"><ele>175.33333333333334</ele><time>2026-04-17T11:05:00.943Z</time></trkpt><trkpt lat="44.8721" lon="9.558715"><ele>176.66666666666669</ele><time>2026-04-17T11:05:01.943Z</time></trkpt><trkpt lat="44.87221" lon="9.5589933"><ele>178.0</ele><time>2026-04-17T11:05:02.943Z</time></trkpt><trkpt lat="44.8723567" lon="9.5592283"><ele>178.0</ele><time>2026-04-17T11:05:03.943Z</time></trkpt><trkpt lat="44.87254" lon="9.5594117"><ele>178.0</ele><time>2026-04-17T11:05:04.943Z</time></trkpt><trkpt lat="44.8727383" lon="9.5595783"><ele>179.5</ele><time>2026-04-17T11:05:05.943Z</time></trkpt><trkpt lat="44.87294" lon="9.5597483"><ele>181.0</ele><time>2026-04-17T11:05:06.943Z</time></trkpt><trkpt lat="44.873145" lon="9.559925"><ele>181.0</ele><time>2026-04-17T11:05:07.944Z</time></trkpt><trkpt lat="44.8733583" lon="9.5600917"><ele>181.0</ele><time>2026-04-17T11:05:08.943Z</time></trkpt><trkpt lat="44.8735633" lon="9.5602517"><ele>180.33333333333334</ele><time>2026-04-17T11:05:09.943Z</time></trkpt><trkpt lat="44.8737583" lon="9.5604"><ele>179.66666666666666</ele><time>2026-04-17T11:05:10.943Z</time></trkpt><trkpt lat="44.8739417" lon="9.5605383"><ele>179.0</ele><time>2026-04-17T11:05:11.943Z</time></trkpt><trkpt lat="44.87412" lon="9.5606633"><ele>178.33333333333331</ele><time>2026-04-17T11:05:12.943Z</time></trkpt><trkpt lat="44.8742917" lon="9.5607833"><ele>177.66666666666666</ele><time>2026-04-17T11:05:13.943Z</time></trkpt><trkpt lat="44.8744517" lon="9.5609"><ele>177.0</ele><time>2026-04-17T11:05:14.943Z</time></trkpt><trkpt lat="44.8746067" lon="9.5610033"><ele>177.0</ele><time>2026-04-17T11:05:15.943Z</time></trkpt><trkpt lat="44.8747733" lon="9.561075"><ele>177.0</ele><time>2026-04-17T11:05:16.943Z</time></trkpt><trkpt lat="44.8749633" lon="9.5610983"><ele>177.0</ele><time>2026-04-17T11:05:17.943Z</time></trkpt><trkpt lat="44.8751817" lon="9.5610667"><ele>176.5</ele><time>2026-04-17T11:05:18.943Z</time></trkpt><trkpt lat="44.8754233" lon="9.56101"><ele>176.0</ele><time>2026-04-17T11:05:19.943Z</time></trkpt><trkpt lat="44.8756783" lon="9.5609433"><ele>176.0</ele><time>2026-04-17T11:05:20.943Z</time></trkpt><trkpt lat="44.8759167" lon="9.5609067"><ele>176.0</ele><time>2026-04-17T11:05:21.943Z</time></trkpt><trkpt lat="44.8761583" lon="9.56093"><ele>175.5</ele><time>2026-04-17T11:05:22.944Z</time></trkpt><trkpt lat="44.8764083" lon="9.5610133"><ele>175.0</ele><time>2026-04-17T11:05:23.943Z</time></trkpt><trkpt lat="44.8766567" lon="9.5611517"><ele>175.0</ele><time>2026-04-17T11:05:24.943Z</time></trkpt><trkpt lat="44.8768933" lon="9.561335"><ele>175.0</ele><time>2026-04-17T11:05:25.943Z</time></trkpt><trkpt lat="44.8771233" lon="9.56156"><ele>175.0</ele><time>2026-04-17T11:05:26.943Z</time></trkpt><trkpt lat="44.8773567" lon="9.5618067"><ele>175.0</ele><time>2026-04-17T11:05:27.944Z</time></trkpt><trkpt lat="44.8775967" lon="9.5620583"><ele>174.5</ele><time>2026-04-17T11:05:28.944Z</time></trkpt><trkpt lat="44.8778367" lon="9.5623133"><ele>174.0</ele><time>2026-04-17T11:05:29.943Z</time></trkpt><trkpt lat="44.8780817" lon="9.562565"><ele>174.0</ele><time>2026-04-17T11:05:30.943Z</time></trkpt><trkpt lat="44.878325" lon="9.5628367"><ele>174.0</ele><time>2026-04-17T11:05:31.943Z</time></trkpt><trkpt lat="44.8785617" lon="9.5631217"><ele>177.5</ele><time>2026-04-17T11:05:32.944Z</time></trkpt><trkpt lat="44.8787967" lon="9.5634283"><ele>181.0</ele><time>2026-04-17T11:05:33.943Z</time></trkpt><trkpt lat="44.8790217" lon="9.5637533"><ele>181.0</ele><time>2026-04-17T11:05:34.943Z</time></trkpt><trkpt lat="44.8792517" lon="9.5640717"><ele>181.0</ele><time>2026-04-17T11:05:35.943Z</time></trkpt><trkpt lat="44.87949" lon="9.5643917"><ele>177.5</ele><time>2026-04-17T11:05:36.943Z</time></trkpt><trkpt lat="44.879725" lon="9.564705"><ele>174.0</ele><time>2026-04-17T11:05:37.943Z</time></trkpt><trkpt lat="44.8799517" lon="9.5650067"><ele>171.5</ele><time>2026-04-17T11:05:38.943Z</time></trkpt><trkpt lat="44.8801683" lon="9.5652917"><ele>169.0</ele><time>2026-04-17T11:05:39.943Z</time></trkpt><trkpt lat="44.880375" lon="9.5655667"><ele>169.0</ele><time>2026-04-17T11:05:40.943Z</time></trkpt><trkpt lat="44.880575" lon="9.565835"><ele>169.0</ele><time>2026-04-17T11:05:41.943Z</time></trkpt><trkpt lat="44.8807683" lon="9.5661"><ele>169.0</ele><time>2026-04-17T11:05:42.943Z</time></trkpt><trkpt lat="44.8809633" lon="9.56636"><ele>169.0</ele><time>2026-04-17T11:05:43.943Z</time></trkpt><trkpt lat="44.8811533" lon="9.5666133"><ele>169.0</ele><time>2026-04-17T11:05:44.943Z</time></trkpt><trkpt lat="44.88134" lon="9.5668617"><ele>169.0</ele><time>2026-04-17T11:05:45.943Z</time></trkpt><trkpt lat="44.8815183" lon="9.5671117"><ele>167.5</ele><time>2026-04-17T11:05:46.943Z</time></trkpt><trkpt lat="44.881685" lon="9.5673883"><ele>166.0</ele><time>2026-04-17T11:05:47.943Z</time></trkpt><trkpt lat="44.8818333" lon="9.5676933"><ele>166.5</ele><time>2026-04-17T11:05:48.943Z</time></trkpt><trkpt lat="44.8819633" lon="9.5680367"><ele>167.0</ele><time>2026-04-17T11:05:49.943Z</time></trkpt><trkpt lat="44.8820867" lon="9.56842"><ele>169.0</ele><time>2026-04-17T11:05:50.944Z</time></trkpt><trkpt lat="44.88222" lon="9.5688083"><ele>171.0</ele><time>2026-04-17T11:05:51.943Z</time></trkpt><trkpt lat="44.8823583" lon="9.5692017"><ele>173.5</ele><time>2026-04-17T11:05:52.943Z</time></trkpt><trkpt lat="44.8825017" lon="9.5696067"><ele>176.0</ele><time>2026-04-17T11:05:53.943Z</time></trkpt><trkpt lat="44.8826417" lon="9.570045"><ele>170.5</ele><time>2026-04-17T11:05:54.943Z</time></trkpt><trkpt lat="44.8827833" lon="9.57048"><ele>165.0</ele><time>2026-04-17T11:05:55.943Z</time></trkpt><trkpt lat="44.8829333" lon="9.5709083"><ele>167.0</ele><time>2026-04-17T11:05:56.943Z</time></trkpt><trkpt lat="44.8830783" lon="9.57133"><ele>169.0</ele><time>2026-04-17T11:05:57.943Z</time></trkpt><trkpt lat="44.883215" lon="9.5717267"><ele>167.0</ele><time>2026-04-17T11:05:58.943Z</time></trkpt><trkpt lat="44.88334" lon="9.5720967"><ele>165.0</ele><time>2026-04-17T11:05:59.943Z</time></trkpt><trkpt lat="44.8834633" lon="9.5724433"><ele>165.0</ele><time>2026-04-17T11:06:00.943Z</time></trkpt><trkpt lat="44.8835817" lon="9.5727683"><ele>165.0</ele><time>2026-04-17T11:06:01.943Z</time></trkpt><trkpt lat="44.8836967" lon="9.57308"><ele>166.5</ele><time>2026-04-17T11:06:02.943Z</time></trkpt><trkpt lat="44.8838" lon="9.5733783"><ele>168.0</ele><time>2026-04-17T11:06:03.943Z</time></trkpt><trkpt lat="44.8838817" lon="9.5736683"><ele>168.0</ele><time>2026-04-17T11:06:04.943Z</time></trkpt><trkpt lat="44.8839183" lon="9.573965"><ele>168.0</ele><time>2026-04-17T11:06:05.943Z</time></trkpt><trkpt lat="44.8839083" lon="9.5742883"><ele>168.0</ele><time>2026-04-17T11:06:06.943Z</time></trkpt><trkpt lat="44.8838733" lon="9.5746167"><ele>167.66666666666666</ele><time>2026-04-17T11:06:07.943Z</time></trkpt><trkpt lat="44.883845" lon="9.574935"><ele>167.33333333333331</ele><time>2026-04-17T11:06:08.943Z</time></trkpt><trkpt lat="44.8838333" lon="9.5752283"><ele>167.0</ele><time>2026-04-17T11:06:09.944Z</time></trkpt><trkpt lat="44.88385" lon="9.5754967"><ele>169.0</ele><time>2026-04-17T11:06:10.943Z</time></trkpt><trkpt lat="44.8839167" lon="9.5757267"><ele>171.0</ele><time>2026-04-17T11:06:11.943Z</time></trkpt><trkpt lat="44.884035" lon="9.5759333"><ele>173.0</ele><time>2026-04-17T11:06:12.943Z</time></trkpt><trkpt lat="44.8842033" lon="9.576095"><ele>170.33333333333331</ele><time>2026-04-17T11:06:13.943Z</time></trkpt><trkpt lat="44.8843667" lon="9.5762433"><ele>167.66666666666666</ele><time>2026-04-17T11:06:14.943Z</time></trkpt><trkpt lat="44.8845167" lon="9.576385"><ele>165.0</ele><time>2026-04-17T11:06:15.943Z</time></trkpt><trkpt lat="44.8846283" lon="9.5765567"><ele>165.0</ele><time>2026-04-17T11:06:16.943Z</time></trkpt><trkpt lat="44.8846833" lon="9.5767867"><ele>165.0</ele><time>2026-04-17T11:06:17.943Z</time></trkpt><trkpt lat="44.88469" lon="9.577085"><ele>165.0</ele><time>2026-04-17T11:06:18.942Z</time></trkpt><trkpt lat="44.8846967" lon="9.5774317"><ele>167.5</ele><time>2026-04-17T11:06:19.942Z</time></trkpt><trkpt lat="44.8847283" lon="9.5778067"><ele>170.0</ele><time>2026-04-17T11:06:20.942Z</time></trkpt><trkpt lat="44.884785" lon="9.5782017"><ele>173.5</ele><time>2026-04-17T11:06:21.942Z</time></trkpt><trkpt lat="44.8848483" lon="9.5786033"><ele>177.0</ele><time>2026-04-17T11:06:22.942Z</time></trkpt><trkpt lat="44.8849017" lon="9.5789883"><ele>178.0</ele><time>2026-04-17T11:06:23.943Z</time></trkpt><trkpt lat="44.884955" lon="9.5793483"><ele>179.0</ele><time>2026-04-17T11:06:24.943Z</time></trkpt><trkpt lat="44.88502" lon="9.5796933"><ele>173.0</ele><time>2026-04-17T11:06:25.942Z</time></trkpt><trkpt lat="44.88511" lon="9.58002"><ele>167.0</ele><time>2026-04-17T11:06:26.942Z</time></trkpt><trkpt lat="44.88522" lon="9.5803267"><ele>168.66666666666666</ele><time>2026-04-17T11:06:27.942Z</time></trkpt><trkpt lat="44.8853367" lon="9.5806067"><ele>170.33333333333334</ele><time>2026-04-17T11:06:28.942Z</time></trkpt><trkpt lat="44.8854283" lon="9.580885"><ele>172.0</ele><time>2026-04-17T11:06:29.942Z</time></trkpt><trkpt lat="44.88548" lon="9.5811717"><ele>172.66666666666669</ele><time>2026-04-17T11:06:30.942Z</time></trkpt><trkpt lat="44.885515" lon="9.5814717"><ele>173.33333333333334</ele><time>2026-04-17T11:06:31.942Z</time></trkpt><trkpt lat="44.885555" lon="9.5817717"><ele>174.0</ele><time>2026-04-17T11:06:32.942Z</time></trkpt><trkpt lat="44.8856417" lon="9.5820567"><ele>177.0</ele><time>2026-04-17T11:06:33.943Z</time></trkpt><trkpt lat="44.88576" lon="9.5823317"><ele>180.0</ele><time>2026-04-17T11:06:34.942Z</time></trkpt><trkpt lat="44.8858917" lon="9.5826017"><ele>179.66666666666666</ele><time>2026-04-17T11:06:35.943Z</time></trkpt><trkpt lat="44.88601" lon="9.582855"><ele>179.33333333333331</ele><time>2026-04-17T11:06:36.942Z</time></trkpt><trkpt lat="44.8861067" lon="9.5830833"><ele>179.0</ele><time>2026-04-17T11:06:37.942Z</time></trkpt><trkpt lat="44.8862067" lon="9.5832667"><ele>179.0</ele><time>2026-04-17T11:06:38.942Z</time></trkpt><trkpt lat="44.8863283" lon="9.5834067"><ele>179.0</ele><time>2026-04-17T11:06:39.942Z</time></trkpt><trkpt lat="44.8864783" lon="9.583495"><ele>179.0</ele><time>2026-04-17T11:06:40.942Z</time></trkpt><trkpt lat="44.8866567" lon="9.5835067"><ele>179.33333333333331</ele><time>2026-04-17T11:06:41.942Z</time></trkpt><trkpt lat="44.886855" lon="9.5834567"><ele>179.66666666666666</ele><time>2026-04-17T11:06:42.942Z</time></trkpt><trkpt lat="44.887045" lon="9.5834367"><ele>180.0</ele><time>2026-04-17T11:06:43.942Z</time></trkpt><trkpt lat="44.88722" lon="9.583495"><ele>180.0</ele><time>2026-04-17T11:06:44.942Z</time></trkpt><trkpt lat="44.8873683" lon="9.583635"><ele>180.0</ele><time>2026-04-17T11:06:45.942Z</time></trkpt><trkpt lat="44.88749" lon="9.583815"><ele>180.0</ele><time>2026-04-17T11:06:46.942Z</time></trkpt><trkpt lat="44.8875933" lon="9.5839917"><ele>181.33333333333334</ele><time>2026-04-17T11:06:47.942Z</time></trkpt><trkpt lat="44.8877217" lon="9.58413"><ele>182.66666666666669</ele><time>2026-04-17T11:06:48.942Z</time></trkpt><trkpt lat="44.8878817" lon="9.584205"><ele>184.0</ele><time>2026-04-17T11:06:49.942Z</time></trkpt><trkpt lat="44.88806" lon="9.5842233"><ele>184.0</ele><time>2026-04-17T11:06:50.943Z</time></trkpt><trkpt lat="44.8882617" lon="9.5841933"><ele>184.0</ele><time>2026-04-17T11:06:51.942Z</time></trkpt><trkpt lat="44.88846" lon="9.5841817"><ele>184.0</ele><time>2026-04-17T11:06:52.942Z</time></trkpt><trkpt lat="44.8886533" lon="9.5842183"><ele>183.0</ele><time>2026-04-17T11:06:53.942Z</time></trkpt><trkpt lat="44.8888167" lon="9.584325"><ele>182.0</ele><time>2026-04-17T11:06:54.942Z</time></trkpt><trkpt lat="44.8889567" lon="9.5845133"><ele>181.0</ele><time>2026-04-17T11:06:55.942Z</time></trkpt><trkpt lat="44.8890833" lon="9.58477"><ele>181.0</ele><time>2026-04-17T11:06:56.942Z</time></trkpt><trkpt lat="44.88922" lon="9.5850133"><ele>181.0</ele><time>2026-04-17T11:06:57.942Z</time></trkpt><trkpt lat="44.8893633" lon="9.5852367"><ele>181.0</ele><time>2026-04-17T11:06:58.942Z</time></trkpt><trkpt lat="44.8895083" lon="9.58542"><ele>185.0</ele><time>2026-04-17T11:06:59.943Z</time></trkpt><trkpt lat="44.8896733" lon="9.5855317"><ele>189.0</ele><time>2026-04-17T11:07:00.942Z</time></trkpt><trkpt lat="44.8898633" lon="9.5855733"><ele>193.0</ele><time>2026-04-17T11:07:01.942Z</time></trkpt><trkpt lat="44.89006" lon="9.585575"><ele>192.33333333333331</ele><time>2026-04-17T11:07:02.942Z</time></trkpt><trkpt lat="44.89027" lon="9.585515"><ele>191.66666666666666</ele><time>2026-04-17T11:07:03.942Z</time></trkpt><trkpt lat="44.890495" lon="9.5854617"><ele>191.0</ele><time>2026-04-17T11:07:04.942Z</time></trkpt><trkpt lat="44.8907267" lon="9.5854217"><ele>191.5</ele><time>2026-04-17T11:07:05.942Z</time></trkpt><trkpt lat="44.8909783" lon="9.5853917"><ele>192.0</ele><time>2026-04-17T11:07:06.942Z</time></trkpt><trkpt lat="44.8912233" lon="9.5853733"><ele>192.0</ele><time>2026-04-17T11:07:07.942Z</time></trkpt><trkpt lat="44.8914867" lon="9.5853683"><ele>192.0</ele><time>2026-04-17T11:07:08.942Z</time></trkpt><trkpt lat="44.8917467" lon="9.5853617"><ele>192.0</ele><time>2026-04-17T11:07:09.943Z</time></trkpt><trkpt lat="44.8920067" lon="9.5853533"><ele>192.0</ele><time>2026-04-17T11:07:10.942Z</time></trkpt><trkpt lat="44.8922817" lon="9.5853467"><ele>191.5</ele><time>2026-04-17T11:07:11.942Z</time></trkpt><trkpt lat="44.892555" lon="9.5853367"><ele>191.0</ele><time>2026-04-17T11:07:12.942Z</time></trkpt><trkpt lat="44.892825" lon="9.5853267"><ele>188.0</ele><time>2026-04-17T11:07:13.942Z</time></trkpt><trkpt lat="44.8930983" lon="9.5853167"><ele>185.0</ele><time>2026-04-17T11:07:14.942Z</time></trkpt><trkpt lat="44.8933767" lon="9.58531"><ele>184.0</ele><time>2026-04-17T11:07:15.942Z</time></trkpt><trkpt lat="44.8936617" lon="9.5853017"><ele>183.0</ele><time>2026-04-17T11:07:16.942Z</time></trkpt><trkpt lat="44.8939483" lon="9.5852967"><ele>183.0</ele><time>2026-04-17T11:07:17.942Z</time></trkpt><trkpt lat="44.8942267" lon="9.5852867"><ele>183.0</ele><time>2026-04-17T11:07:18.942Z</time></trkpt><trkpt lat="44.8944933" lon="9.5852733"><ele>183.0</ele><time>2026-04-17T11:07:19.942Z</time></trkpt><trkpt lat="44.8947533" lon="9.5852533"><ele>183.0</ele><time>2026-04-17T11:07:20.942Z</time></trkpt><trkpt lat="44.895005" lon="9.58521"><ele>181.5</ele><time>2026-04-17T11:07:21.942Z</time></trkpt><trkpt lat="44.8952517" lon="9.5851583"><ele>180.0</ele><time>2026-04-17T11:07:22.942Z</time></trkpt><trkpt lat="44.89549" lon="9.585095"><ele>180.0</ele><time>2026-04-17T11:07:23.942Z</time></trkpt><trkpt lat="44.8957217" lon="9.58506"><ele>180.0</ele><time>2026-04-17T11:07:24.942Z</time></trkpt><trkpt lat="44.8959467" lon="9.5850833"><ele>176.5</ele><time>2026-04-17T11:07:25.942Z</time></trkpt><trkpt lat="44.8961783" lon="9.5851483"><ele>173.0</ele><time>2026-04-17T11:07:26.942Z</time></trkpt><trkpt lat="44.8964117" lon="9.58523"><ele>173.0</ele><time>2026-04-17T11:07:27.942Z</time></trkpt><trkpt lat="44.8966467" lon="9.58534"><ele>173.0</ele><time>2026-04-17T11:07:28.942Z</time></trkpt><trkpt lat="44.8968783" lon="9.5854767"><ele>176.0</ele><time>2026-04-17T11:07:29.942Z</time></trkpt><trkpt lat="44.8970983" lon="9.5856133"><ele>179.0</ele><time>2026-04-17T11:07:30.942Z</time></trkpt><trkpt lat="44.8973067" lon="9.58574"><ele>179.0</ele><time>2026-04-17T11:07:31.942Z</time></trkpt><trkpt lat="44.897505" lon="9.585855"><ele>179.0</ele><time>2026-04-17T11:07:32.942Z</time></trkpt><trkpt lat="44.8976983" lon="9.585925"><ele>179.0</ele><time>2026-04-17T11:07:33.942Z</time></trkpt><trkpt lat="44.8978817" lon="9.58592"><ele>177.33333333333331</ele><time>2026-04-17T11:07:34.942Z</time></trkpt><trkpt lat="44.8980517" lon="9.5858417"><ele>175.66666666666666</ele><time>2026-04-17T11:07:35.942Z</time></trkpt><trkpt lat="44.898225" lon="9.5857267"><ele>174.0</ele><time>2026-04-17T11:07:36.942Z</time></trkpt><trkpt lat="44.898415" lon="9.5856417"><ele>172.33333333333334</ele><time>2026-04-17T11:07:37.942Z</time></trkpt><trkpt lat="44.8986233" lon="9.5856183"><ele>170.66666666666669</ele><time>2026-04-17T11:07:38.943Z</time></trkpt><trkpt lat="44.89882" lon="9.5856467"><ele>169.0</ele><time>2026-04-17T11:07:39.942Z</time></trkpt><trkpt lat="44.8990317" lon="9.5857033"><ele>166.0</ele><time>2026-04-17T11:07:40.942Z</time></trkpt><trkpt lat="44.8992567" lon="9.58578"><ele>163.0</ele><time>2026-04-17T11:07:41.942Z</time></trkpt><trkpt lat="44.8994883" lon="9.5858583"><ele>163.0</ele><time>2026-04-17T11:07:42.943Z</time></trkpt><trkpt lat="44.8997083" lon="9.5859267"><ele>163.0</ele><time>2026-04-17T11:07:43.942Z</time></trkpt><trkpt lat="44.8999217" lon="9.5860017"><ele>163.0</ele><time>2026-04-17T11:07:44.942Z</time></trkpt><trkpt lat="44.9001333" lon="9.5860717"><ele>164.0</ele><time>2026-04-17T11:07:45.942Z</time></trkpt><trkpt lat="44.9003333" lon="9.586145"><ele>165.0</ele><time>2026-04-17T11:07:46.942Z</time></trkpt><trkpt lat="44.90052" lon="9.5862233"><ele>166.0</ele><time>2026-04-17T11:07:47.943Z</time></trkpt><trkpt lat="44.9006983" lon="9.58631"><ele>166.0</ele><time>2026-04-17T11:07:48.942Z</time></trkpt><trkpt lat="44.9008717" lon="9.5864083"><ele>166.0</ele><time>2026-04-17T11:07:49.942Z</time></trkpt><trkpt lat="44.901045" lon="9.5865183"><ele>166.0</ele><time>2026-04-17T11:07:50.942Z</time></trkpt><trkpt lat="44.90123" lon="9.5866533"><ele>162.5</ele><time>2026-04-17T11:07:51.942Z</time></trkpt><trkpt lat="44.9014367" lon="9.5868233"><ele>159.0</ele><time>2026-04-17T11:07:52.942Z</time></trkpt><trkpt lat="44.901645" lon="9.587005"><ele>159.0</ele><time>2026-04-17T11:07:53.942Z</time></trkpt><trkpt lat="44.90184" lon="9.58718"><ele>159.0</ele><time>2026-04-17T11:07:54.942Z</time></trkpt><trkpt lat="44.9020117" lon="9.587325"><ele>159.0</ele><time>2026-04-17T11:07:55.942Z</time></trkpt><trkpt lat="44.9021467" lon="9.58745"><ele>159.0</ele><time>2026-04-17T11:07:56.942Z</time></trkpt><trkpt lat="44.9022517" lon="9.5875483"><ele>159.0</ele><time>2026-04-17T11:07:57.942Z</time></trkpt><trkpt lat="44.902335" lon="9.5876183"><ele>159.0</ele><time>2026-04-17T11:07:58.942Z</time></trkpt><trkpt lat="44.9024" lon="9.58766"><ele>159.0</ele><time>2026-04-17T11:07:59.942Z</time></trkpt><trkpt lat="44.9025" lon="9.5876067"><ele>159.0</ele><time>2026-04-17T11:08:01.942Z</time></trkpt><trkpt lat="44.9024733" lon="9.587475"><ele>159.0</ele><time>2026-04-17T11:08:02.942Z</time></trkpt><trkpt lat="44.902445" lon="9.5873717"><ele>159.0</ele><time>2026-04-17T11:08:03.942Z</time></trkpt><trkpt lat="44.90238" lon="9.58726"><ele>159.0</ele><time>2026-04-17T11:08:04.943Z</time></trkpt><trkpt lat="44.9021883" lon="9.5871133"><ele>159.0</ele><time>2026-04-17T11:08:05.942Z</time></trkpt><trkpt lat="44.9020117" lon="9.586955"><ele>159.0</ele><time>2026-04-17T11:08:06.942Z</time></trkpt><trkpt lat="44.90182" lon="9.5867717"><ele>159.0</ele><time>2026-04-17T11:08:07.942Z</time></trkpt><trkpt lat="44.9016333" lon="9.5865767"><ele>159.0</ele><time>2026-04-17T11:08:08.942Z</time></trkpt><trkpt lat="44.9014517" lon="9.5863733"><ele>159.0</ele><time>2026-04-17T11:08:09.942Z</time></trkpt><trkpt lat="44.901265" lon="9.58611"><ele>152.0</ele><time>2026-04-17T11:08:10.942Z</time></trkpt><trkpt lat="44.9011133" lon="9.585845"><ele>145.0</ele><time>2026-04-17T11:08:11.942Z</time></trkpt><trkpt lat="44.90097" lon="9.585555"><ele>146.5</ele><time>2026-04-17T11:08:12.942Z</time></trkpt><trkpt lat="44.9008283" lon="9.5852633"><ele>148.0</ele><time>2026-04-17T11:08:13.942Z</time></trkpt><trkpt lat="44.9006883" lon="9.584975"><ele>148.0</ele><time>2026-04-17T11:08:14.942Z</time></trkpt><trkpt lat="44.9005633" lon="9.584675"><ele>148.0</ele><time>2026-04-17T11:08:15.942Z</time></trkpt><trkpt lat="44.9004583" lon="9.584365"><ele>147.0</ele><time>2026-04-17T11:08:16.942Z</time></trkpt><trkpt lat="44.900375" lon="9.58406"><ele>146.0</ele><time>2026-04-17T11:08:17.942Z</time></trkpt><trkpt lat="44.9003067" lon="9.5837533"><ele>144.0</ele><time>2026-04-17T11:08:18.942Z</time></trkpt><trkpt lat="44.900255" lon="9.583445"><ele>142.0</ele><time>2026-04-17T11:08:19.942Z</time></trkpt><trkpt lat="44.9002417" lon="9.583125"><ele>138.5</ele><time>2026-04-17T11:08:20.942Z</time></trkpt><trkpt lat="44.9002567" lon="9.5827733"><ele>135.0</ele><time>2026-04-17T11:08:21.942Z</time></trkpt><trkpt lat="44.9002917" lon="9.58239"><ele>135.0</ele><time>2026-04-17T11:08:22.942Z</time></trkpt><trkpt lat="44.9003233" lon="9.5820083"><ele>135.0</ele><time>2026-04-17T11:08:23.942Z</time></trkpt><trkpt lat="44.90036" lon="9.5816633"><ele>135.0</ele><time>2026-04-17T11:08:24.942Z</time></trkpt><trkpt lat="44.9003933" lon="9.5813567"><ele>135.0</ele><time>2026-04-17T11:08:25.942Z</time></trkpt><trkpt lat="44.900425" lon="9.581095"><ele>135.0</ele><time>2026-04-17T11:08:26.942Z</time></trkpt><trkpt lat="44.9004483" lon="9.5808717"><ele>137.0</ele><time>2026-04-17T11:08:27.942Z</time></trkpt><trkpt lat="44.9004667" lon="9.58068"><ele>139.0</ele><time>2026-04-17T11:08:28.942Z</time></trkpt><trkpt lat="44.9004683" lon="9.5805167"><ele>141.0</ele><time>2026-04-17T11:08:29.942Z</time></trkpt><trkpt lat="44.900435" lon="9.58038"><ele>143.0</ele><time>2026-04-17T11:08:30.942Z</time></trkpt><trkpt lat="44.9003533" lon="9.5802783"><ele>147.0</ele><time>2026-04-17T11:08:31.942Z</time></trkpt><trkpt lat="44.900215" lon="9.5802083"><ele>151.0</ele><time>2026-04-17T11:08:32.942Z</time></trkpt><trkpt lat="44.900035" lon="9.5801533"><ele>155.0</ele><time>2026-04-17T11:08:33.942Z</time></trkpt><trkpt lat="44.8998533" lon="9.5800767"><ele>155.0</ele><time>2026-04-17T11:08:34.942Z</time></trkpt><trkpt lat="44.89966" lon="9.5799767"><ele>155.0</ele><time>2026-04-17T11:08:35.942Z</time></trkpt><trkpt lat="44.8994617" lon="9.57985"><ele>155.0</ele><time>2026-04-17T11:08:36.942Z</time></trkpt><trkpt lat="44.899265" lon="9.57971"><ele>153.0</ele><time>2026-04-17T11:08:37.942Z</time></trkpt><trkpt lat="44.8990733" lon="9.5795767"><ele>151.0</ele><time>2026-04-17T11:08:38.942Z</time></trkpt><trkpt lat="44.8988933" lon="9.5794467"><ele>149.0</ele><time>2026-04-17T11:08:39.942Z</time></trkpt><trkpt lat="44.8987217" lon="9.5793167"><ele>152.0</ele><time>2026-04-17T11:08:40.942Z</time></trkpt><trkpt lat="44.8985583" lon="9.5791717"><ele>155.0</ele><time>2026-04-17T11:08:41.942Z</time></trkpt><trkpt lat="44.898395" lon="9.5790117"><ele>158.0</ele><time>2026-04-17T11:08:42.942Z</time></trkpt><trkpt lat="44.8982383" lon="9.578825"><ele>160.5</ele><time>2026-04-17T11:08:43.942Z</time></trkpt><trkpt lat="44.8980833" lon="9.5786133"><ele>163.0</ele><time>2026-04-17T11:08:44.942Z</time></trkpt><trkpt lat="44.8979133" lon="9.5783717"><ele>163.0</ele><time>2026-04-17T11:08:45.942Z</time></trkpt><trkpt lat="44.89775" lon="9.578135"><ele>163.0</ele><time>2026-04-17T11:08:46.942Z</time></trkpt><trkpt lat="44.8976067" lon="9.5779233"><ele>163.0</ele><time>2026-04-17T11:08:47.942Z</time></trkpt><trkpt lat="44.8974817" lon="9.5777517"><ele>163.60000000000002</ele><time>2026-04-17T11:08:48.942Z</time></trkpt><trkpt lat="44.897395" lon="9.5776267"><ele>164.20000000000002</ele><time>2026-04-17T11:08:49.942Z</time></trkpt><trkpt lat="44.8973367" lon="9.5775317"><ele>164.8</ele><time>2026-04-17T11:08:50.942Z</time></trkpt><trkpt lat="44.8972917" lon="9.5774433"><ele>165.4</ele><time>2026-04-17T11:08:51.942Z</time></trkpt><trkpt lat="44.8972733" lon="9.5773567"><ele>166.0</ele><time>2026-04-17T11:08:52.942Z</time></trkpt><trkpt lat="44.897355" lon="9.57727"><ele>166.0</ele><time>2026-04-17T11:08:54.942Z</time></trkpt><trkpt lat="44.8974433" lon="9.5773017"><ele>166.0</ele><time>2026-04-17T11:08:55.943Z</time></trkpt><trkpt lat="44.8975733" lon="9.5773517"><ele>166.0</ele><time>2026-04-17T11:08:56.942Z</time></trkpt><trkpt lat="44.89771" lon="9.5774167"><ele>166.0</ele><time>2026-04-17T11:08:57.942Z</time></trkpt><trkpt lat="44.8978567" lon="9.57749"><ele>165.0</ele><time>2026-04-17T11:08:58.942Z</time></trkpt><trkpt lat="44.8980183" lon="9.5775917"><ele>164.0</ele><time>2026-04-17T11:08:59.942Z</time></trkpt><trkpt lat="44.8981833" lon="9.5777383"><ele>163.0</ele><time>2026-04-17T11:09:00.942Z</time></trkpt><trkpt lat="44.8983417" lon="9.5779167"><ele>165.0</ele><time>2026-04-17T11:09:01.942Z</time></trkpt><trkpt lat="44.8984883" lon="9.5780917"><ele>167.0</ele><time>2026-04-17T11:09:02.942Z</time></trkpt><trkpt lat="44.8986467" lon="9.5782367"><ele>169.0</ele><time>2026-04-17T11:09:03.942Z</time></trkpt><trkpt lat="44.898845" lon="9.5783667"><ele>169.0</ele><time>2026-04-17T11:09:04.942Z</time></trkpt><trkpt lat="44.89906" lon="9.5784717"><ele>169.0</ele><time>2026-04-17T11:09:05.942Z</time></trkpt><trkpt lat="44.899265" lon="9.5785683"><ele>169.0</ele><time>2026-04-17T11:09:06.943Z</time></trkpt><trkpt lat="44.89945" lon="9.5786617"><ele>168.0</ele><time>2026-04-17T11:09:07.943Z</time></trkpt><trkpt lat="44.8996267" lon="9.5787417"><ele>167.0</ele><time>2026-04-17T11:09:08.942Z</time></trkpt><trkpt lat="44.8997917" lon="9.5787617"><ele>166.0</ele><time>2026-04-17T11:09:09.942Z</time></trkpt><trkpt lat="44.8999583" lon="9.57876"><ele>166.33333333333334</ele><time>2026-04-17T11:09:10.943Z</time></trkpt><trkpt lat="44.9001283" lon="9.5788"><ele>166.66666666666666</ele><time>2026-04-17T11:09:11.942Z</time></trkpt><trkpt lat="44.900285" lon="9.5788817"><ele>167.0</ele><time>2026-04-17T11:09:12.942Z</time></trkpt><trkpt lat="44.90043" lon="9.5789783"><ele>167.0</ele><time>2026-04-17T11:09:13.943Z</time></trkpt><trkpt lat="44.9005667" lon="9.5790567"><ele>167.0</ele><time>2026-04-17T11:09:14.943Z</time></trkpt><trkpt lat="44.9007017" lon="9.5790933"><ele>167.0</ele><time>2026-04-17T11:09:15.942Z</time></trkpt><trkpt lat="44.9008333" lon="9.5790633"><ele>167.0</ele><time>2026-04-17T11:09:16.942Z</time></trkpt><trkpt lat="44.90096" lon="9.5789617"><ele>165.33333333333331</ele><time>2026-04-17T11:09:17.942Z</time></trkpt><trkpt lat="44.90109" lon="9.5788133"><ele>163.66666666666666</ele><time>2026-04-17T11:09:18.942Z</time></trkpt><trkpt lat="44.9012233" lon="9.5786517"><ele>162.0</ele><time>2026-04-17T11:09:19.942Z</time></trkpt><trkpt lat="44.901365" lon="9.5785033"><ele>165.33333333333334</ele><time>2026-04-17T11:09:20.942Z</time></trkpt><trkpt lat="44.9015283" lon="9.57838"><ele>168.66666666666669</ele><time>2026-04-17T11:09:21.942Z</time></trkpt><trkpt lat="44.9017117" lon="9.578295"><ele>172.0</ele><time>2026-04-17T11:09:22.942Z</time></trkpt><trkpt lat="44.9019133" lon="9.5782417"><ele>172.0</ele><time>2026-04-17T11:09:23.942Z</time></trkpt><trkpt lat="44.90213" lon="9.5782517"><ele>172.0</ele><time>2026-04-17T11:09:24.942Z</time></trkpt><trkpt lat="44.902375" lon="9.5783067"><ele>172.5</ele><time>2026-04-17T11:09:25.942Z</time></trkpt><trkpt lat="44.90264" lon="9.5784"><ele>173.0</ele><time>2026-04-17T11:09:26.942Z</time></trkpt><trkpt lat="44.9029183" lon="9.5785267"><ele>173.0</ele><time>2026-04-17T11:09:27.942Z</time></trkpt><trkpt lat="44.9032067" lon="9.5786817"><ele>173.0</ele><time>2026-04-17T11:09:28.942Z</time></trkpt><trkpt lat="44.9035" lon="9.57885"><ele>173.5</ele><time>2026-04-17T11:09:29.942Z</time></trkpt><trkpt lat="44.9037783" lon="9.5790367"><ele>174.0</ele><time>2026-04-17T11:09:30.942Z</time></trkpt><trkpt lat="44.9040233" lon="9.5792233"><ele>172.5</ele><time>2026-04-17T11:09:31.942Z</time></trkpt><trkpt lat="44.90425" lon="9.5794083"><ele>171.0</ele><time>2026-04-17T11:09:32.943Z</time></trkpt><trkpt lat="44.904465" lon="9.579575"><ele>171.0</ele><time>2026-04-17T11:09:33.942Z</time></trkpt><trkpt lat="44.9046867" lon="9.5797017"><ele>171.0</ele><time>2026-04-17T11:09:34.942Z</time></trkpt><trkpt lat="44.904925" lon="9.579785"><ele>173.0</ele><time>2026-04-17T11:09:35.942Z</time></trkpt><trkpt lat="44.9051867" lon="9.57984"><ele>175.0</ele><time>2026-04-17T11:09:36.943Z</time></trkpt><trkpt lat="44.9054567" lon="9.5799"><ele>175.0</ele><time>2026-04-17T11:09:37.942Z</time></trkpt><trkpt lat="44.905725" lon="9.5799817"><ele>175.0</ele><time>2026-04-17T11:09:38.942Z</time></trkpt><trkpt lat="44.9059817" lon="9.5800733"><ele>178.0</ele><time>2026-04-17T11:09:39.942Z</time></trkpt><trkpt lat="44.9062183" lon="9.5801533"><ele>181.0</ele><time>2026-04-17T11:09:40.942Z</time></trkpt><trkpt lat="44.9064383" lon="9.5802267"><ele>181.0</ele><time>2026-04-17T11:09:41.942Z</time></trkpt><trkpt lat="44.906635" lon="9.5802983"><ele>181.0</ele><time>2026-04-17T11:09:42.942Z</time></trkpt><trkpt lat="44.9068133" lon="9.5803783"><ele>181.0</ele><time>2026-04-17T11:09:43.942Z</time></trkpt><trkpt lat="44.9069717" lon="9.5804733"><ele>180.66666666666669</ele><time>2026-04-17T11:09:44.942Z</time></trkpt><trkpt lat="44.9071233" lon="9.5805633"><ele>180.33333333333334</ele><time>2026-04-17T11:09:45.942Z</time></trkpt><trkpt lat="44.90728" lon="9.5806233"><ele>180.0</ele><time>2026-04-17T11:09:46.942Z</time></trkpt><trkpt lat="44.9074333" lon="9.5806383"><ele>182.0</ele><time>2026-04-17T11:09:47.942Z</time></trkpt><trkpt lat="44.90759" lon="9.5806533"><ele>184.0</ele><time>2026-04-17T11:09:48.942Z</time></trkpt><trkpt lat="44.907735" lon="9.58072"><ele>186.0</ele><time>2026-04-17T11:09:49.942Z</time></trkpt><trkpt lat="44.90788" lon="9.5808417"><ele>186.0</ele><time>2026-04-17T11:09:50.942Z</time></trkpt><trkpt lat="44.90803" lon="9.5810033"><ele>186.0</ele><time>2026-04-17T11:09:51.942Z</time></trkpt><trkpt lat="44.908175" lon="9.58117"><ele>186.0</ele><time>2026-04-17T11:09:52.942Z</time></trkpt><trkpt lat="44.9082933" lon="9.581345"><ele>185.33333333333334</ele><time>2026-04-17T11:09:53.942Z</time></trkpt><trkpt lat="44.908385" lon="9.581525"><ele>184.66666666666669</ele><time>2026-04-17T11:09:54.942Z</time></trkpt><trkpt lat="44.9084567" lon="9.5817133"><ele>184.0</ele><time>2026-04-17T11:09:55.942Z</time></trkpt><trkpt lat="44.9085217" lon="9.5819283"><ele>184.0</ele><time>2026-04-17T11:09:56.942Z</time></trkpt><trkpt lat="44.9086" lon="9.582175"><ele>184.0</ele><time>2026-04-17T11:09:57.942Z</time></trkpt><trkpt lat="44.9086883" lon="9.5824183"><ele>184.0</ele><time>2026-04-17T11:09:58.942Z</time></trkpt><trkpt lat="44.9087683" lon="9.5826483"><ele>182.5</ele><time>2026-04-17T11:09:59.942Z</time></trkpt><trkpt lat="44.9088317" lon="9.5828583"><ele>181.0</ele><time>2026-04-17T11:10:00.942Z</time></trkpt><trkpt lat="44.9088917" lon="9.5830417"><ele>179.5</ele><time>2026-04-17T11:10:01.942Z</time></trkpt><trkpt lat="44.9089733" lon="9.58319"><ele>178.0</ele><time>2026-04-17T11:10:02.942Z</time></trkpt><trkpt lat="44.9091067" lon="9.58329"><ele>176.66666666666669</ele><time>2026-04-17T11:10:03.942Z</time></trkpt><trkpt lat="44.909285" lon="9.5833783"><ele>175.33333333333334</ele><time>2026-04-17T11:10:04.943Z</time></trkpt><trkpt lat="44.9095033" lon="9.5834467"><ele>174.0</ele><time>2026-04-17T11:10:05.942Z</time></trkpt><trkpt lat="44.9097517" lon="9.5834917"><ele>174.0</ele><time>2026-04-17T11:10:06.942Z</time></trkpt><trkpt lat="44.910025" lon="9.58352"><ele>174.0</ele><time>2026-04-17T11:10:07.942Z</time></trkpt><trkpt lat="44.9103033" lon="9.5835367"><ele>171.5</ele><time>2026-04-17T11:10:08.942Z</time></trkpt><trkpt lat="44.9105633" lon="9.58356"><ele>169.0</ele><time>2026-04-17T11:10:09.942Z</time></trkpt><trkpt lat="44.9108033" lon="9.583585"><ele>168.0</ele><time>2026-04-17T11:10:10.942Z</time></trkpt><trkpt lat="44.9110317" lon="9.5836083"><ele>167.0</ele><time>2026-04-17T11:10:11.942Z</time></trkpt><trkpt lat="44.9112483" lon="9.5836383"><ele>166.0</ele><time>2026-04-17T11:10:12.942Z</time></trkpt><trkpt lat="44.9114483" lon="9.5837"><ele>165.33333333333334</ele><time>2026-04-17T11:10:13.942Z</time></trkpt><trkpt lat="44.9116283" lon="9.5838233"><ele>164.66666666666666</ele><time>2026-04-17T11:10:14.942Z</time></trkpt><trkpt lat="44.911775" lon="9.583975"><ele>164.0</ele><time>2026-04-17T11:10:15.943Z</time></trkpt><trkpt lat="44.9119233" lon="9.5841083"><ele>163.33333333333331</ele><time>2026-04-17T11:10:16.942Z</time></trkpt><trkpt lat="44.9120883" lon="9.5841883"><ele>162.66666666666666</ele><time>2026-04-17T11:10:17.942Z</time></trkpt><trkpt lat="44.9122833" lon="9.5842017"><ele>162.0</ele><time>2026-04-17T11:10:18.942Z</time></trkpt><trkpt lat="44.9125033" lon="9.5841567"><ele>157.0</ele><time>2026-04-17T11:10:19.942Z</time></trkpt><trkpt lat="44.912715" lon="9.5840633"><ele>152.0</ele><time>2026-04-17T11:10:20.942Z</time></trkpt><trkpt lat="44.9129217" lon="9.5839133"><ele>152.0</ele><time>2026-04-17T11:10:21.942Z</time></trkpt><trkpt lat="44.91312" lon="9.5837367"><ele>152.0</ele><time>2026-04-17T11:10:22.942Z</time></trkpt><trkpt lat="44.91332" lon="9.5835883"><ele>154.0</ele><time>2026-04-17T11:10:23.942Z</time></trkpt><trkpt lat="44.9135167" lon="9.5834717"><ele>156.0</ele><time>2026-04-17T11:10:24.942Z</time></trkpt><trkpt lat="44.9137017" lon="9.58339"><ele>158.0</ele><time>2026-04-17T11:10:25.942Z</time></trkpt><trkpt lat="44.913875" lon="9.5833567"><ele>158.0</ele><time>2026-04-17T11:10:26.943Z</time></trkpt><trkpt lat="44.914055" lon="9.5833867"><ele>158.0</ele><time>2026-04-17T11:10:27.942Z</time></trkpt><trkpt lat="44.9142167" lon="9.5834933"><ele>158.0</ele><time>2026-04-17T11:10:28.942Z</time></trkpt><trkpt lat="44.91437" lon="9.583595"><ele>156.33333333333331</ele><time>2026-04-17T11:10:29.942Z</time></trkpt><trkpt lat="44.9145283" lon="9.5836483"><ele>154.66666666666666</ele><time>2026-04-17T11:10:30.942Z</time></trkpt><trkpt lat="44.9147" lon="9.583635"><ele>153.0</ele><time>2026-04-17T11:10:31.942Z</time></trkpt><trkpt lat="44.9148983" lon="9.58357"><ele>149.5</ele><time>2026-04-17T11:10:32.942Z</time></trkpt><trkpt lat="44.9151283" lon="9.5834767"><ele>146.0</ele><time>2026-04-17T11:10:33.942Z</time></trkpt><trkpt lat="44.9153833" lon="9.5833933"><ele>146.0</ele><time>2026-04-17T11:10:34.942Z</time></trkpt><trkpt lat="44.9156483" lon="9.5832983"><ele>146.0</ele><time>2026-04-17T11:10:35.942Z</time></trkpt><trkpt lat="44.9159133" lon="9.583175"><ele>144.0</ele><time>2026-04-17T11:10:36.942Z</time></trkpt><trkpt lat="44.9161567" lon="9.5830517"><ele>142.0</ele><time>2026-04-17T11:10:37.942Z</time></trkpt><trkpt lat="44.9163783" lon="9.5829"><ele>145.0</ele><time>2026-04-17T11:10:38.942Z</time></trkpt><trkpt lat="44.9165767" lon="9.5827317"><ele>148.0</ele><time>2026-04-17T11:10:39.943Z</time></trkpt><trkpt lat="44.9167533" lon="9.58258"><ele>151.0</ele><time>2026-04-17T11:10:40.942Z</time></trkpt><trkpt lat="44.9169317" lon="9.582495"><ele>151.0</ele><time>2026-04-17T11:10:41.942Z</time></trkpt><trkpt lat="44.9171133" lon="9.5824683"><ele>151.0</ele><time>2026-04-17T11:10:42.943Z</time></trkpt><trkpt lat="44.91731" lon="9.5825017"><ele>151.0</ele><time>2026-04-17T11:10:43.942Z</time></trkpt><trkpt lat="44.9175333" lon="9.5825717"><ele>152.0</ele><time>2026-04-17T11:10:44.942Z</time></trkpt><trkpt lat="44.9177667" lon="9.5826583"><ele>153.0</ele><time>2026-04-17T11:10:45.942Z</time></trkpt><trkpt lat="44.91801" lon="9.58276"><ele>153.0</ele><time>2026-04-17T11:10:46.942Z</time></trkpt><trkpt lat="44.9182633" lon="9.5828733"><ele>153.0</ele><time>2026-04-17T11:10:47.942Z</time></trkpt><trkpt lat="44.91853" lon="9.5829933"><ele>153.0</ele><time>2026-04-17T11:10:48.943Z</time></trkpt><trkpt lat="44.91879" lon="9.5830967"><ele>153.0</ele><time>2026-04-17T11:10:49.942Z</time></trkpt><trkpt lat="44.9190367" lon="9.583185"><ele>152.0</ele><time>2026-04-17T11:10:50.942Z</time></trkpt><trkpt lat="44.9192717" lon="9.5832633"><ele>151.0</ele><time>2026-04-17T11:10:51.942Z</time></trkpt><trkpt lat="44.9195" lon="9.5833117"><ele>151.0</ele><time>2026-04-17T11:10:52.942Z</time></trkpt><trkpt lat="44.9197367" lon="9.5833117"><ele>151.0</ele><time>2026-04-17T11:10:53.942Z</time></trkpt><trkpt lat="44.9199833" lon="9.5832733"><ele>149.5</ele><time>2026-04-17T11:10:54.942Z</time></trkpt><trkpt lat="44.920235" lon="9.5832017"><ele>148.0</ele><time>2026-04-17T11:10:55.942Z</time></trkpt><trkpt lat="44.9204933" lon="9.5831217"><ele>148.0</ele><time>2026-04-17T11:10:56.942Z</time></trkpt><trkpt lat="44.9207617" lon="9.5830367"><ele>148.0</ele><time>2026-04-17T11:10:57.942Z</time></trkpt><trkpt lat="44.9210383" lon="9.58295"><ele>148.5</ele><time>2026-04-17T11:10:58.942Z</time></trkpt><trkpt lat="44.9213067" lon="9.5828667"><ele>149.0</ele><time>2026-04-17T11:10:59.943Z</time></trkpt><trkpt lat="44.9215617" lon="9.582795"><ele>152.0</ele><time>2026-04-17T11:11:00.942Z</time></trkpt><trkpt lat="44.9218017" lon="9.5827283"><ele>155.0</ele><time>2026-04-17T11:11:01.943Z</time></trkpt><trkpt lat="44.92203" lon="9.5826733"><ele>155.0</ele><time>2026-04-17T11:11:02.942Z</time></trkpt><trkpt lat="44.9222583" lon="9.5826617"><ele>155.0</ele><time>2026-04-17T11:11:03.942Z</time></trkpt><trkpt lat="44.9224883" lon="9.5826967"><ele>154.5</ele><time>2026-04-17T11:11:04.942Z</time></trkpt><trkpt lat="44.9227117" lon="9.5827667"><ele>154.0</ele><time>2026-04-17T11:11:05.942Z</time></trkpt><trkpt lat="44.9229533" lon="9.582825"><ele>150.5</ele><time>2026-04-17T11:11:06.943Z</time></trkpt><trkpt lat="44.9232017" lon="9.582885"><ele>147.0</ele><time>2026-04-17T11:11:07.942Z</time></trkpt><trkpt lat="44.9234467" lon="9.58294"><ele>147.0</ele><time>2026-04-17T11:11:08.942Z</time></trkpt><trkpt lat="44.9237033" lon="9.58301"><ele>147.0</ele><time>2026-04-17T11:11:09.942Z</time></trkpt><trkpt lat="44.9239533" lon="9.5831083"><ele>147.0</ele><time>2026-04-17T11:11:10.942Z</time></trkpt><trkpt lat="44.9241967" lon="9.5832467"><ele>147.0</ele><time>2026-04-17T11:11:11.943Z</time></trkpt><trkpt lat="44.92444" lon="9.5834017"><ele>144.0</ele><time>2026-04-17T11:11:12.942Z</time></trkpt><trkpt lat="44.9246817" lon="9.5835433"><ele>141.0</ele><time>2026-04-17T11:11:13.942Z</time></trkpt><trkpt lat="44.92492" lon="9.583685"><ele>139.0</ele><time>2026-04-17T11:11:14.942Z</time></trkpt><trkpt lat="44.9251533" lon="9.58382"><ele>137.0</ele><time>2026-04-17T11:11:15.942Z</time></trkpt><trkpt lat="44.9253817" lon="9.583965"><ele>137.0</ele><time>2026-04-17T11:11:16.942Z</time></trkpt><trkpt lat="44.9256133" lon="9.5841067"><ele>137.0</ele><time>2026-04-17T11:11:17.942Z</time></trkpt><trkpt lat="44.9258383" lon="9.5842483"><ele>136.5</ele><time>2026-04-17T11:11:18.942Z</time></trkpt><trkpt lat="44.92607" lon="9.58439"><ele>136.0</ele><time>2026-04-17T11:11:19.942Z</time></trkpt><trkpt lat="44.926305" lon="9.5845367"><ele>135.0</ele><time>2026-04-17T11:11:20.942Z</time></trkpt><trkpt lat="44.926545" lon="9.5846883"><ele>134.0</ele><time>2026-04-17T11:11:21.942Z</time></trkpt><trkpt lat="44.92679" lon="9.584845"><ele>134.0</ele><time>2026-04-17T11:11:22.943Z</time></trkpt><trkpt lat="44.9270417" lon="9.58501"><ele>134.0</ele><time>2026-04-17T11:11:23.942Z</time></trkpt><trkpt lat="44.9272983" lon="9.5851733"><ele>134.0</ele><time>2026-04-17T11:11:24.942Z</time></trkpt><trkpt lat="44.9275567" lon="9.5853367"><ele>134.0</ele><time>2026-04-17T11:11:25.942Z</time></trkpt><trkpt lat="44.9278133" lon="9.5854983"><ele>134.5</ele><time>2026-04-17T11:11:26.942Z</time></trkpt><trkpt lat="44.9280717" lon="9.5856633"><ele>135.0</ele><time>2026-04-17T11:11:27.942Z</time></trkpt><trkpt lat="44.9283283" lon="9.5858217"><ele>135.0</ele><time>2026-04-17T11:11:28.942Z</time></trkpt><trkpt lat="44.92859" lon="9.585985"><ele>135.0</ele><time>2026-04-17T11:11:29.942Z</time></trkpt><trkpt lat="44.928855" lon="9.5861483"><ele>135.0</ele><time>2026-04-17T11:11:30.942Z</time></trkpt><trkpt lat="44.929115" lon="9.5863083"><ele>135.0</ele><time>2026-04-17T11:11:31.942Z</time></trkpt><trkpt lat="44.92937" lon="9.5864667"><ele>135.0</ele><time>2026-04-17T11:11:32.943Z</time></trkpt><trkpt lat="44.9296217" lon="9.5866267"><ele>135.0</ele><time>2026-04-17T11:11:33.942Z</time></trkpt><trkpt lat="44.9298717" lon="9.58679"><ele>136.5</ele><time>2026-04-17T11:11:34.942Z</time></trkpt><trkpt lat="44.9301167" lon="9.5869483"><ele>138.0</ele><time>2026-04-17T11:11:35.942Z</time></trkpt><trkpt lat="44.9303683" lon="9.5871067"><ele>138.0</ele><time>2026-04-17T11:11:36.942Z</time></trkpt><trkpt lat="44.9306233" lon="9.5872567"><ele>138.0</ele><time>2026-04-17T11:11:37.943Z</time></trkpt><trkpt lat="44.9308833" lon="9.5874167"><ele>143.0</ele><time>2026-04-17T11:11:38.943Z</time></trkpt><trkpt lat="44.9311383" lon="9.5875733"><ele>148.0</ele><time>2026-04-17T11:11:39.942Z</time></trkpt><trkpt lat="44.93139" lon="9.5877283"><ele>146.0</ele><time>2026-04-17T11:11:40.942Z</time></trkpt><trkpt lat="44.9316383" lon="9.5878783"><ele>144.0</ele><time>2026-04-17T11:11:41.942Z</time></trkpt><trkpt lat="44.931885" lon="9.5880283"><ele>144.0</ele><time>2026-04-17T11:11:42.942Z</time></trkpt><trkpt lat="44.932135" lon="9.5881783"><ele>144.0</ele><time>2026-04-17T11:11:43.942Z</time></trkpt><trkpt lat="44.93238" lon="9.5883333"><ele>150.0</ele><time>2026-04-17T11:11:44.943Z</time></trkpt><trkpt lat="44.9326283" lon="9.588485"><ele>156.0</ele><time>2026-04-17T11:11:45.942Z</time></trkpt><trkpt lat="44.9328717" lon="9.5886367"><ele>147.0</ele><time>2026-04-17T11:11:46.942Z</time></trkpt><trkpt lat="44.933115" lon="9.58879"><ele>138.0</ele><time>2026-04-17T11:11:47.942Z</time></trkpt><trkpt lat="44.9333617" lon="9.5889483"><ele>143.5</ele><time>2026-04-17T11:11:48.942Z</time></trkpt><trkpt lat="44.9336167" lon="9.5891067"><ele>149.0</ele><time>2026-04-17T11:11:49.942Z</time></trkpt><trkpt lat="44.9338733" lon="9.58927"><ele>149.0</ele><time>2026-04-17T11:11:50.942Z</time></trkpt><trkpt lat="44.9341333" lon="9.58944"><ele>149.0</ele><time>2026-04-17T11:11:51.943Z</time></trkpt><trkpt lat="44.9343933" lon="9.5896017"><ele>143.0</ele><time>2026-04-17T11:11:52.942Z</time></trkpt><trkpt lat="44.9346467" lon="9.5897733"><ele>137.0</ele><time>2026-04-17T11:11:53.942Z</time></trkpt><trkpt lat="44.9348983" lon="9.58994"><ele>141.5</ele><time>2026-04-17T11:11:54.942Z</time></trkpt><trkpt lat="44.9351483" lon="9.5901117"><ele>146.0</ele><time>2026-04-17T11:11:55.943Z</time></trkpt><trkpt lat="44.9354" lon="9.59027"><ele>144.0</ele><time>2026-04-17T11:11:56.942Z</time></trkpt><trkpt lat="44.9356517" lon="9.5904283"><ele>142.0</ele><time>2026-04-17T11:11:57.942Z</time></trkpt><trkpt lat="44.9358967" lon="9.5905833"><ele>142.0</ele><time>2026-04-17T11:11:58.943Z</time></trkpt><trkpt lat="44.9361317" lon="9.5907317"><ele>142.0</ele><time>2026-04-17T11:11:59.942Z</time></trkpt><trkpt lat="44.9363483" lon="9.59087"><ele>142.0</ele><time>2026-04-17T11:12:00.942Z</time></trkpt><trkpt lat="44.9365567" lon="9.5909867"><ele>142.0</ele><time>2026-04-17T11:12:01.942Z</time></trkpt><trkpt lat="44.9367633" lon="9.59106"><ele>142.0</ele><time>2026-04-17T11:12:02.942Z</time></trkpt><trkpt lat="44.9369783" lon="9.5910717"><ele>141.5</ele><time>2026-04-17T11:12:03.942Z</time></trkpt><trkpt lat="44.937205" lon="9.5910667"><ele>141.0</ele><time>2026-04-17T11:12:04.942Z</time></trkpt><trkpt lat="44.9374433" lon="9.5910367"><ele>135.0</ele><time>2026-04-17T11:12:05.943Z</time></trkpt><trkpt lat="44.9376917" lon="9.59099"><ele>129.0</ele><time>2026-04-17T11:12:06.942Z</time></trkpt><trkpt lat="44.9379467" lon="9.5909683"><ele>129.0</ele><time>2026-04-17T11:12:07.942Z</time></trkpt><trkpt lat="44.9382083" lon="9.5909483"><ele>129.0</ele><time>2026-04-17T11:12:08.942Z</time></trkpt><trkpt lat="44.9384733" lon="9.5909133"><ele>127.0</ele><time>2026-04-17T11:12:09.942Z</time></trkpt><trkpt lat="44.9387483" lon="9.590905"><ele>125.0</ele><time>2026-04-17T11:12:10.942Z</time></trkpt><trkpt lat="44.9390183" lon="9.5908667"><ele>125.0</ele><time>2026-04-17T11:12:11.942Z</time></trkpt><trkpt lat="44.9392883" lon="9.5908267"><ele>125.0</ele><time>2026-04-17T11:12:12.942Z</time></trkpt><trkpt lat="44.9395567" lon="9.5907933"><ele>125.0</ele><time>2026-04-17T11:12:13.942Z</time></trkpt><trkpt lat="44.9398267" lon="9.5907567"><ele>125.0</ele><time>2026-04-17T11:12:14.942Z</time></trkpt><trkpt lat="44.9400917" lon="9.590695"><ele>125.0</ele><time>2026-04-17T11:12:15.942Z</time></trkpt><trkpt lat="44.9403567" lon="9.590665"><ele>125.0</ele><time>2026-04-17T11:12:16.942Z</time></trkpt><trkpt lat="44.9406183" lon="9.5906133"><ele>125.0</ele><time>2026-04-17T11:12:17.942Z</time></trkpt><trkpt lat="44.94087" lon="9.59055"><ele>125.0</ele><time>2026-04-17T11:12:18.942Z</time></trkpt><trkpt lat="44.9411267" lon="9.59049"><ele>123.0</ele><time>2026-04-17T11:12:19.942Z</time></trkpt><trkpt lat="44.9413783" lon="9.5904183"><ele>121.0</ele><time>2026-04-17T11:12:20.943Z</time></trkpt><trkpt lat="44.9416333" lon="9.5903267"><ele>125.5</ele><time>2026-04-17T11:12:21.942Z</time></trkpt><trkpt lat="44.941875" lon="9.59019"><ele>130.0</ele><time>2026-04-17T11:12:22.942Z</time></trkpt><trkpt lat="44.9421217" lon="9.590055"><ele>130.0</ele><time>2026-04-17T11:12:23.942Z</time></trkpt><trkpt lat="44.9423717" lon="9.58993"><ele>130.0</ele><time>2026-04-17T11:12:24.942Z</time></trkpt><trkpt lat="44.94262" lon="9.589805"><ele>127.5</ele><time>2026-04-17T11:12:25.943Z</time></trkpt><trkpt lat="44.94287" lon="9.589685"><ele>125.0</ele><time>2026-04-17T11:12:26.942Z</time></trkpt><trkpt lat="44.9431233" lon="9.5895867"><ele>131.0</ele><time>2026-04-17T11:12:27.942Z</time></trkpt><trkpt lat="44.943315" lon="9.5894"><ele>137.0</ele><time>2026-04-17T11:12:28.942Z</time></trkpt><trkpt lat="44.9435683" lon="9.5892883"><ele>137.0</ele><time>2026-04-17T11:12:29.942Z</time></trkpt><trkpt lat="44.9438533" lon="9.5892567"><ele>137.0</ele><time>2026-04-17T11:12:30.942Z</time></trkpt><trkpt lat="44.9441283" lon="9.58921"><ele>136.0</ele><time>2026-04-17T11:12:31.942Z</time></trkpt><trkpt lat="44.9444117" lon="9.5891933"><ele>135.0</ele><time>2026-04-17T11:12:32.942Z</time></trkpt><trkpt lat="44.944705" lon="9.5891717"><ele>135.0</ele><time>2026-04-17T11:12:33.942Z</time></trkpt><trkpt lat="44.9450033" lon="9.5891383"><ele>135.0</ele><time>2026-04-17T11:12:34.942Z</time></trkpt><trkpt lat="44.945315" lon="9.589105"><ele>135.0</ele><time>2026-04-17T11:12:35.942Z</time></trkpt><trkpt lat="44.9456267" lon="9.5890817"><ele>135.0</ele><time>2026-04-17T11:12:36.942Z</time></trkpt><trkpt lat="44.9459383" lon="9.5890833"><ele>134.5</ele><time>2026-04-17T11:12:37.942Z</time></trkpt><trkpt lat="44.9462317" lon="9.58909"><ele>134.0</ele><time>2026-04-17T11:12:38.942Z</time></trkpt><trkpt lat="44.94648" lon="9.5891"><ele>133.0</ele><time>2026-04-17T11:12:39.942Z</time></trkpt><trkpt lat="44.946735" lon="9.589155"><ele>132.0</ele><time>2026-04-17T11:12:40.942Z</time></trkpt><trkpt lat="44.946995" lon="9.589265"><ele>132.0</ele><time>2026-04-17T11:12:41.942Z</time></trkpt><trkpt lat="44.9472583" lon="9.5893867"><ele>132.0</ele><time>2026-04-17T11:12:42.942Z</time></trkpt><trkpt lat="44.9475133" lon="9.5895033"><ele>130.5</ele><time>2026-04-17T11:12:43.942Z</time></trkpt><trkpt lat="44.9477517" lon="9.5896133"><ele>129.0</ele><time>2026-04-17T11:12:44.943Z</time></trkpt><trkpt lat="44.94798" lon="9.5897167"><ele>129.0</ele><time>2026-04-17T11:12:45.943Z</time></trkpt><trkpt lat="44.9481883" lon="9.5898183"><ele>129.0</ele><time>2026-04-17T11:12:46.942Z</time></trkpt><trkpt lat="44.9483933" lon="9.5899167"><ele>129.0</ele><time>2026-04-17T11:12:47.942Z</time></trkpt><trkpt lat="44.9485883" lon="9.589995"><ele>130.33333333333334</ele><time>2026-04-17T11:12:48.942Z</time></trkpt><trkpt lat="44.94875" lon="9.590115"><ele>131.66666666666669</ele><time>2026-04-17T11:12:49.942Z</time></trkpt><trkpt lat="44.948925" lon="9.5901517"><ele>133.0</ele><time>2026-04-17T11:12:50.942Z</time></trkpt><trkpt lat="44.9491" lon="9.5901167"><ele>133.33333333333334</ele><time>2026-04-17T11:12:51.942Z</time></trkpt><trkpt lat="44.9492733" lon="9.590035"><ele>133.66666666666666</ele><time>2026-04-17T11:12:52.942Z</time></trkpt><trkpt lat="44.949435" lon="9.5899283"><ele>134.0</ele><time>2026-04-17T11:12:53.942Z</time></trkpt><trkpt lat="44.9496017" lon="9.5897967"><ele>134.0</ele><time>2026-04-17T11:12:54.943Z</time></trkpt><trkpt lat="44.9497783" lon="9.58966"><ele>134.0</ele><time>2026-04-17T11:12:55.943Z</time></trkpt><trkpt lat="44.94996" lon="9.5895233"><ele>134.0</ele><time>2026-04-17T11:12:56.942Z</time></trkpt><trkpt lat="44.950155" lon="9.589365"><ele>132.5</ele><time>2026-04-17T11:12:57.942Z</time></trkpt><trkpt lat="44.9503633" lon="9.589205"><ele>131.0</ele><time>2026-04-17T11:12:58.942Z</time></trkpt><trkpt lat="44.9505667" lon="9.5890533"><ele>131.0</ele><time>2026-04-17T11:12:59.942Z</time></trkpt><trkpt lat="44.9507617" lon="9.58889"><ele>131.0</ele><time>2026-04-17T11:13:00.942Z</time></trkpt><trkpt lat="44.9509433" lon="9.588695"><ele>132.0</ele><time>2026-04-17T11:13:01.942Z</time></trkpt><trkpt lat="44.951125" lon="9.5884867"><ele>133.0</ele><time>2026-04-17T11:13:02.942Z</time></trkpt><trkpt lat="44.951315" lon="9.5882767"><ele>133.0</ele><time>2026-04-17T11:13:03.943Z</time></trkpt><trkpt lat="44.95151" lon="9.5880667"><ele>133.0</ele><time>2026-04-17T11:13:04.942Z</time></trkpt><trkpt lat="44.9517067" lon="9.5878683"><ele>133.5</ele><time>2026-04-17T11:13:05.942Z</time></trkpt><trkpt lat="44.9519167" lon="9.58769"><ele>134.0</ele><time>2026-04-17T11:13:06.942Z</time></trkpt><trkpt lat="44.9521433" lon="9.5875317"><ele>134.0</ele><time>2026-04-17T11:13:07.942Z</time></trkpt><trkpt lat="44.9523767" lon="9.5873883"><ele>134.0</ele><time>2026-04-17T11:13:08.942Z</time></trkpt><trkpt lat="44.9526017" lon="9.5872567"><ele>132.66666666666666</ele><time>2026-04-17T11:13:09.942Z</time></trkpt><trkpt lat="44.9528167" lon="9.587145"><ele>131.33333333333334</ele><time>2026-04-17T11:13:10.943Z</time></trkpt><trkpt lat="44.9530233" lon="9.5870567"><ele>130.0</ele><time>2026-04-17T11:13:11.943Z</time></trkpt><trkpt lat="44.9532467" lon="9.5870183"><ele>130.0</ele><time>2026-04-17T11:13:12.942Z</time></trkpt><trkpt lat="44.9534883" lon="9.5870433"><ele>130.0</ele><time>2026-04-17T11:13:13.942Z</time></trkpt><trkpt lat="44.9537367" lon="9.5871283"><ele>130.0</ele><time>2026-04-17T11:13:14.942Z</time></trkpt><trkpt lat="44.9539833" lon="9.5872283"><ele>130.0</ele><time>2026-04-17T11:13:15.942Z</time></trkpt><trkpt lat="44.9542383" lon="9.58734"><ele>130.0</ele><time>2026-04-17T11:13:16.942Z</time></trkpt><trkpt lat="44.9545" lon="9.5874533"><ele>130.0</ele><time>2026-04-17T11:13:17.942Z</time></trkpt><trkpt lat="44.954745" lon="9.5875533"><ele>130.0</ele><time>2026-04-17T11:13:18.942Z</time></trkpt><trkpt lat="44.954975" lon="9.58764"><ele>130.0</ele><time>2026-04-17T11:13:19.942Z</time></trkpt><trkpt lat="44.95521" lon="9.5876917"><ele>129.0</ele><time>2026-04-17T11:13:20.942Z</time></trkpt><trkpt lat="44.955445" lon="9.587695"><ele>128.0</ele><time>2026-04-17T11:13:21.942Z</time></trkpt><trkpt lat="44.95568" lon="9.5876583"><ele>128.0</ele><time>2026-04-17T11:13:22.942Z</time></trkpt><trkpt lat="44.9559267" lon="9.5875983"><ele>128.0</ele><time>2026-04-17T11:13:23.942Z</time></trkpt><trkpt lat="44.9561733" lon="9.5875317"><ele>128.0</ele><time>2026-04-17T11:13:24.942Z</time></trkpt><trkpt lat="44.95641" lon="9.5874717"><ele>128.0</ele><time>2026-04-17T11:13:25.942Z</time></trkpt><trkpt lat="44.9566433" lon="9.5874333"><ele>127.0</ele><time>2026-04-17T11:13:26.942Z</time></trkpt><trkpt lat="44.95688" lon="9.5874433"><ele>126.0</ele><time>2026-04-17T11:13:27.942Z</time></trkpt><trkpt lat="44.9571183" lon="9.5874917"><ele>126.0</ele><time>2026-04-17T11:13:28.942Z</time></trkpt><trkpt lat="44.9573433" lon="9.5875517"><ele>126.0</ele><time>2026-04-17T11:13:29.942Z</time></trkpt><trkpt lat="44.95755" lon="9.58761"><ele>126.0</ele><time>2026-04-17T11:13:30.942Z</time></trkpt><trkpt lat="44.95774" lon="9.5876567"><ele>126.0</ele><time>2026-04-17T11:13:31.942Z</time></trkpt><trkpt lat="44.9579133" lon="9.5877017"><ele>126.0</ele><time>2026-04-17T11:13:32.942Z</time></trkpt><trkpt lat="44.95808" lon="9.5877317"><ele>126.0</ele><time>2026-04-17T11:13:33.942Z</time></trkpt><trkpt lat="44.958255" lon="9.5877217"><ele>125.33333333333334</ele><time>2026-04-17T11:13:34.942Z</time></trkpt><trkpt lat="44.9584583" lon="9.5876517"><ele>124.66666666666667</ele><time>2026-04-17T11:13:35.942Z</time></trkpt><trkpt lat="44.9586883" lon="9.587565"><ele>124.0</ele><time>2026-04-17T11:13:36.942Z</time></trkpt><trkpt lat="44.958945" lon="9.5874783"><ele>123.5</ele><time>2026-04-17T11:13:37.943Z</time></trkpt><trkpt lat="44.95922" lon="9.587375"><ele>123.0</ele><time>2026-04-17T11:13:38.942Z</time></trkpt><trkpt lat="44.95951" lon="9.58726"><ele>123.0</ele><time>2026-04-17T11:13:39.943Z</time></trkpt><trkpt lat="44.9598067" lon="9.5871517"><ele>123.0</ele><time>2026-04-17T11:13:40.942Z</time></trkpt><trkpt lat="44.960095" lon="9.5870533"><ele>122.0</ele><time>2026-04-17T11:13:41.942Z</time></trkpt><trkpt lat="44.9603633" lon="9.5869683"><ele>121.0</ele><time>2026-04-17T11:13:42.943Z</time></trkpt><trkpt lat="44.9606217" lon="9.58689"><ele>121.5</ele><time>2026-04-17T11:13:43.942Z</time></trkpt><trkpt lat="44.9608783" lon="9.5868133"><ele>122.0</ele><time>2026-04-17T11:13:44.942Z</time></trkpt><trkpt lat="44.9611317" lon="9.5867317"><ele>122.0</ele><time>2026-04-17T11:13:45.942Z</time></trkpt><trkpt lat="44.9613867" lon="9.5866517"><ele>122.0</ele><time>2026-04-17T11:13:46.942Z</time></trkpt><trkpt lat="44.96164" lon="9.586565"><ele>121.0</ele><time>2026-04-17T11:13:47.942Z</time></trkpt><trkpt lat="44.961885" lon="9.5865583"><ele>120.0</ele><time>2026-04-17T11:13:48.942Z</time></trkpt><trkpt lat="44.9621467" lon="9.5864667"><ele>120.0</ele><time>2026-04-17T11:13:49.942Z</time></trkpt><trkpt lat="44.962405" lon="9.5863767"><ele>120.0</ele><time>2026-04-17T11:13:50.943Z</time></trkpt><trkpt lat="44.962655" lon="9.586295"><ele>119.0</ele><time>2026-04-17T11:13:51.942Z</time></trkpt><trkpt lat="44.962885" lon="9.5862117"><ele>118.0</ele><time>2026-04-17T11:13:52.942Z</time></trkpt><trkpt lat="44.9631" lon="9.586115"><ele>118.0</ele><time>2026-04-17T11:13:53.943Z</time></trkpt><trkpt lat="44.96331" lon="9.5860583"><ele>118.0</ele><time>2026-04-17T11:13:54.942Z</time></trkpt><trkpt lat="44.963505" lon="9.5859717"><ele>118.0</ele><time>2026-04-17T11:13:55.943Z</time></trkpt><trkpt lat="44.963685" lon="9.5859233"><ele>117.25</ele><time>2026-04-17T11:13:56.942Z</time></trkpt><trkpt lat="44.963845" lon="9.5858733"><ele>116.5</ele><time>2026-04-17T11:13:57.942Z</time></trkpt><trkpt lat="44.9639933" lon="9.5858233"><ele>115.75</ele><time>2026-04-17T11:13:58.942Z</time></trkpt><trkpt lat="44.96412" lon="9.5857783"><ele>115.0</ele><time>2026-04-17T11:13:59.942Z</time></trkpt><trkpt lat="44.96423" lon="9.5857483"><ele>114.50000000000001</ele><time>2026-04-17T11:14:00.942Z</time></trkpt><trkpt lat="44.9643333" lon="9.5857683"><ele>114.0</ele><time>2026-04-17T11:14:01.943Z</time></trkpt><trkpt lat="44.9644133" lon="9.5857733"><ele>113.5</ele><time>2026-04-17T11:14:02.942Z</time></trkpt><trkpt lat="44.9644717" lon="9.5858217"><ele>113.0</ele><time>2026-04-17T11:14:03.942Z</time></trkpt><trkpt lat="44.964515" lon="9.5858967"><ele>112.50000000000001</ele><time>2026-04-17T11:14:04.942Z</time></trkpt><trkpt lat="44.9645383" lon="9.5860067"><ele>112.0</ele><time>2026-04-17T11:14:05.942Z</time></trkpt><trkpt lat="44.96455" lon="9.586135"><ele>112.0</ele><time>2026-04-17T11:14:06.942Z</time></trkpt><trkpt lat="44.964545" lon="9.586335"><ele>112.0</ele><time>2026-04-17T11:14:07.942Z</time></trkpt><trkpt lat="44.96452" lon="9.5866183"><ele>112.0</ele><time>2026-04-17T11:14:08.942Z</time></trkpt><trkpt lat="44.964495" lon="9.5869167"><ele>110.0</ele><time>2026-04-17T11:14:09.942Z</time></trkpt><trkpt lat="44.9644667" lon="9.5872333"><ele>108.0</ele><time>2026-04-17T11:14:10.942Z</time></trkpt><trkpt lat="44.964435" lon="9.5875717"><ele>107.0</ele><time>2026-04-17T11:14:11.942Z</time></trkpt><trkpt lat="44.964405" lon="9.5879217"><ele>106.0</ele><time>2026-04-17T11:14:12.942Z</time></trkpt><trkpt lat="44.9643767" lon="9.5882767"><ele>106.0</ele><time>2026-04-17T11:14:13.943Z</time></trkpt><trkpt lat="44.9643467" lon="9.5886483"><ele>106.0</ele><time>2026-04-17T11:14:14.942Z</time></trkpt><trkpt lat="44.96433" lon="9.589025"><ele>105.0</ele><time>2026-04-17T11:14:15.942Z</time></trkpt><trkpt lat="44.9643083" lon="9.5894033"><ele>104.0</ele><time>2026-04-17T11:14:16.942Z</time></trkpt><trkpt lat="44.964285" lon="9.5897967"><ele>103.0</ele><time>2026-04-17T11:14:17.942Z</time></trkpt><trkpt lat="44.964255" lon="9.5902183"><ele>102.0</ele><time>2026-04-17T11:14:18.942Z</time></trkpt><trkpt lat="44.9642083" lon="9.5906617"><ele>102.0</ele><time>2026-04-17T11:14:19.942Z</time></trkpt><trkpt lat="44.964205" lon="9.5911167"><ele>102.0</ele><time>2026-04-17T11:14:20.942Z</time></trkpt><trkpt lat="44.964185" lon="9.591585"><ele>101.0</ele><time>2026-04-17T11:14:21.942Z</time></trkpt><trkpt lat="44.964115" lon="9.5920617"><ele>100.0</ele><time>2026-04-17T11:14:22.942Z</time></trkpt><trkpt lat="44.9640833" lon="9.59254"><ele>100.5</ele><time>2026-04-17T11:14:23.942Z</time></trkpt><trkpt lat="44.9640533" lon="9.5930283"><ele>101.0</ele><time>2026-04-17T11:14:24.942Z</time></trkpt><trkpt lat="44.96402" lon="9.59351"><ele>100.5</ele><time>2026-04-17T11:14:25.942Z</time></trkpt><trkpt lat="44.9640017" lon="9.594005"><ele>100.0</ele><time>2026-04-17T11:14:26.942Z</time></trkpt><trkpt lat="44.9639533" lon="9.5944883"><ele>100.0</ele><time>2026-04-17T11:14:27.942Z</time></trkpt><trkpt lat="44.9639367" lon="9.5949667"><ele>100.0</ele><time>2026-04-17T11:14:28.942Z</time></trkpt><trkpt lat="44.9639033" lon="9.5954317"><ele>100.0</ele><time>2026-04-17T11:14:29.942Z</time></trkpt><trkpt lat="44.96388" lon="9.5958983"><ele>100.0</ele><time>2026-04-17T11:14:30.942Z</time></trkpt><trkpt lat="44.9638467" lon="9.596355"><ele>100.5</ele><time>2026-04-17T11:14:31.942Z</time></trkpt><trkpt lat="44.9638133" lon="9.5968167"><ele>101.0</ele><time>2026-04-17T11:14:32.942Z</time></trkpt><trkpt lat="44.9637933" lon="9.597295"><ele>101.0</ele><time>2026-04-17T11:14:33.942Z</time></trkpt><trkpt lat="44.9637517" lon="9.59779"><ele>101.0</ele><time>2026-04-17T11:14:34.942Z</time></trkpt><trkpt lat="44.9637067" lon="9.598275"><ele>103.0</ele><time>2026-04-17T11:14:35.942Z</time></trkpt><trkpt lat="44.9636883" lon="9.5987267"><ele>105.0</ele><time>2026-04-17T11:14:36.942Z</time></trkpt><trkpt lat="44.9636767" lon="9.5991567"><ele>104.5</ele><time>2026-04-17T11:14:37.942Z</time></trkpt><trkpt lat="44.96361" lon="9.5995967"><ele>104.0</ele><time>2026-04-17T11:14:38.943Z</time></trkpt><trkpt lat="44.9636433" lon="9.600035"><ele>104.0</ele><time>2026-04-17T11:14:39.943Z</time></trkpt><trkpt lat="44.9636117" lon="9.60047"><ele>104.0</ele><time>2026-04-17T11:14:40.942Z</time></trkpt><trkpt lat="44.96354" lon="9.6008767"><ele>103.5</ele><time>2026-04-17T11:14:41.942Z</time></trkpt><trkpt lat="44.9635483" lon="9.601285"><ele>103.0</ele><time>2026-04-17T11:14:42.942Z</time></trkpt><trkpt lat="44.9635967" lon="9.6016733"><ele>104.0</ele><time>2026-04-17T11:14:43.942Z</time></trkpt><trkpt lat="44.9636783" lon="9.6020517"><ele>105.0</ele><time>2026-04-17T11:14:44.942Z</time></trkpt><trkpt lat="44.963835" lon="9.6024067"><ele>105.0</ele><time>2026-04-17T11:14:45.942Z</time></trkpt><trkpt lat="44.96399" lon="9.6027533"><ele>105.0</ele><time>2026-04-17T11:14:46.942Z</time></trkpt><trkpt lat="44.9641883" lon="9.6030667"><ele>105.0</ele><time>2026-04-17T11:14:47.942Z</time></trkpt><trkpt lat="44.9644167" lon="9.60332"><ele>105.0</ele><time>2026-04-17T11:14:48.942Z</time></trkpt><trkpt lat="44.96467" lon="9.6035083"><ele>105.0</ele><time>2026-04-17T11:14:49.942Z</time></trkpt><trkpt lat="44.96495" lon="9.6036433"><ele>105.0</ele><time>2026-04-17T11:14:50.942Z</time></trkpt><trkpt lat="44.965255" lon="9.6037183"><ele>105.0</ele><time>2026-04-17T11:14:51.942Z</time></trkpt><trkpt lat="44.9655717" lon="9.6037417"><ele>105.0</ele><time>2026-04-17T11:14:52.942Z</time></trkpt><trkpt lat="44.9659033" lon="9.60373"><ele>104.5</ele><time>2026-04-17T11:14:53.942Z</time></trkpt><trkpt lat="44.96624" lon="9.603695"><ele>104.0</ele><time>2026-04-17T11:14:54.942Z</time></trkpt><trkpt lat="44.9665733" lon="9.6036433"><ele>104.5</ele><time>2026-04-17T11:14:55.942Z</time></trkpt><trkpt lat="44.9669017" lon="9.6035883"><ele>105.0</ele><time>2026-04-17T11:14:56.942Z</time></trkpt><trkpt lat="44.9672233" lon="9.6035633"><ele>104.0</ele><time>2026-04-17T11:14:57.942Z</time></trkpt><trkpt lat="44.96755" lon="9.6035783"><ele>103.0</ele><time>2026-04-17T11:14:58.942Z</time></trkpt><trkpt lat="44.967875" lon="9.6036367"><ele>103.5</ele><time>2026-04-17T11:14:59.942Z</time></trkpt><trkpt lat="44.9681967" lon="9.6037433"><ele>104.0</ele><time>2026-04-17T11:15:00.942Z</time></trkpt><trkpt lat="44.96851" lon="9.6038817"><ele>105.0</ele><time>2026-04-17T11:15:01.942Z</time></trkpt><trkpt lat="44.968815" lon="9.6040533"><ele>106.0</ele><time>2026-04-17T11:15:02.942Z</time></trkpt><trkpt lat="44.9691017" lon="9.6042733"><ele>105.0</ele><time>2026-04-17T11:15:03.942Z</time></trkpt><trkpt lat="44.969355" lon="9.6045067"><ele>104.0</ele><time>2026-04-17T11:15:04.942Z</time></trkpt><trkpt lat="44.9695817" lon="9.60482"><ele>104.0</ele><time>2026-04-17T11:15:05.942Z</time></trkpt><trkpt lat="44.9697783" lon="9.6050783"><ele>104.0</ele><time>2026-04-17T11:15:06.942Z</time></trkpt><trkpt lat="44.9699233" lon="9.6053"><ele>103.25</ele><time>2026-04-17T11:15:07.942Z</time></trkpt><trkpt lat="44.9700433" lon="9.605475"><ele>102.5</ele><time>2026-04-17T11:15:08.942Z</time></trkpt><trkpt lat="44.9701333" lon="9.60564"><ele>101.75</ele><time>2026-04-17T11:15:09.942Z</time></trkpt><trkpt lat="44.9701967" lon="9.60575"><ele>101.0</ele><time>2026-04-17T11:15:10.942Z</time></trkpt><trkpt lat="44.9702367" lon="9.6058367"><ele>101.0</ele><time>2026-04-17T11:15:11.942Z</time></trkpt><trkpt lat="44.970275" lon="9.6059083"><ele>101.0</ele><time>2026-04-17T11:15:12.942Z</time></trkpt><trkpt lat="44.9703517" lon="9.605905"><ele>101.0</ele><time>2026-04-17T11:15:13.942Z</time></trkpt><trkpt lat="44.9704417" lon="9.6058767"><ele>101.0</ele><time>2026-04-17T11:15:14.942Z</time></trkpt><trkpt lat="44.9705833" lon="9.6057433"><ele>101.0</ele><time>2026-04-17T11:15:15.942Z</time></trkpt><trkpt lat="44.97075" lon="9.6055983"><ele>101.5</ele><time>2026-04-17T11:15:16.942Z</time></trkpt><trkpt lat="44.9709483" lon="9.6054783"><ele>102.0</ele><time>2026-04-17T11:15:17.942Z</time></trkpt><trkpt lat="44.971195" lon="9.6054"><ele>102.0</ele><time>2026-04-17T11:15:18.942Z</time></trkpt><trkpt lat="44.9714467" lon="9.6053783"><ele>102.0</ele><time>2026-04-17T11:15:19.942Z</time></trkpt><trkpt lat="44.9717783" lon="9.6054617"><ele>100.5</ele><time>2026-04-17T11:15:20.943Z</time></trkpt><trkpt lat="44.9720933" lon="9.6055283"><ele>99.0</ele><time>2026-04-17T11:15:21.942Z</time></trkpt><trkpt lat="44.9724183" lon="9.6055883"><ele>99.5</ele><time>2026-04-17T11:15:22.943Z</time></trkpt><trkpt lat="44.972745" lon="9.6056317"><ele>100.0</ele><time>2026-04-17T11:15:23.942Z</time></trkpt><trkpt lat="44.973075" lon="9.605645"><ele>100.5</ele><time>2026-04-17T11:15:24.942Z</time></trkpt><trkpt lat="44.973415" lon="9.60566"><ele>101.0</ele><time>2026-04-17T11:15:25.942Z</time></trkpt><trkpt lat="44.9737583" lon="9.6056783"><ele>101.0</ele><time>2026-04-17T11:15:26.942Z</time></trkpt><trkpt lat="44.9741167" lon="9.6057083"><ele>101.0</ele><time>2026-04-17T11:15:27.942Z</time></trkpt><trkpt lat="44.97447" lon="9.6057267"><ele>101.0</ele><time>2026-04-17T11:15:28.942Z</time></trkpt><trkpt lat="44.9748317" lon="9.605755"><ele>101.0</ele><time>2026-04-17T11:15:29.942Z</time></trkpt><trkpt lat="44.9751833" lon="9.6058167"><ele>99.5</ele><time>2026-04-17T11:15:30.942Z</time></trkpt><trkpt lat="44.9755183" lon="9.60587"><ele>98.0</ele><time>2026-04-17T11:15:31.942Z</time></trkpt><trkpt lat="44.9758567" lon="9.605955"><ele>98.0</ele><time>2026-04-17T11:15:32.942Z</time></trkpt><trkpt lat="44.9761883" lon="9.6060333"><ele>98.0</ele><time>2026-04-17T11:15:33.942Z</time></trkpt><trkpt lat="44.976495" lon="9.60611"><ele>98.0</ele><time>2026-04-17T11:15:34.942Z</time></trkpt><trkpt lat="44.9767883" lon="9.606185"><ele>98.0</ele><time>2026-04-17T11:15:35.942Z</time></trkpt><trkpt lat="44.9770717" lon="9.6062567"><ele>98.0</ele><time>2026-04-17T11:15:36.942Z</time></trkpt><trkpt lat="44.977345" lon="9.6063267"><ele>98.0</ele><time>2026-04-17T11:15:37.943Z</time></trkpt><trkpt lat="44.9776083" lon="9.6063917"><ele>98.5</ele><time>2026-04-17T11:15:38.942Z</time></trkpt><trkpt lat="44.9778683" lon="9.606455"><ele>99.0</ele><time>2026-04-17T11:15:39.942Z</time></trkpt><trkpt lat="44.9781383" lon="9.6065417"><ele>97.0</ele><time>2026-04-17T11:15:40.942Z</time></trkpt><trkpt lat="44.9784033" lon="9.6066"><ele>95.0</ele><time>2026-04-17T11:15:41.942Z</time></trkpt><trkpt lat="44.978665" lon="9.6066517"><ele>95.0</ele><time>2026-04-17T11:15:42.942Z</time></trkpt><trkpt lat="44.9789367" lon="9.606715"><ele>95.0</ele><time>2026-04-17T11:15:43.942Z</time></trkpt><trkpt lat="44.9792067" lon="9.606775"><ele>96.0</ele><time>2026-04-17T11:15:44.942Z</time></trkpt><trkpt lat="44.9794783" lon="9.6068433"><ele>97.0</ele><time>2026-04-17T11:15:45.943Z</time></trkpt><trkpt lat="44.9797483" lon="9.6069167"><ele>97.0</ele><time>2026-04-17T11:15:46.942Z</time></trkpt><trkpt lat="44.9800067" lon="9.60698"><ele>97.0</ele><time>2026-04-17T11:15:47.942Z</time></trkpt><trkpt lat="44.9802583" lon="9.60703"><ele>95.5</ele><time>2026-04-17T11:15:48.942Z</time></trkpt><trkpt lat="44.9805117" lon="9.60706"><ele>94.0</ele><time>2026-04-17T11:15:49.942Z</time></trkpt><trkpt lat="44.9807583" lon="9.6070733"><ele>94.0</ele><time>2026-04-17T11:15:50.942Z</time></trkpt><trkpt lat="44.9810183" lon="9.6070683"><ele>94.0</ele><time>2026-04-17T11:15:51.942Z</time></trkpt><trkpt lat="44.98128" lon="9.6070567"><ele>94.0</ele><time>2026-04-17T11:15:52.942Z</time></trkpt><trkpt lat="44.981525" lon="9.6070467"><ele>94.0</ele><time>2026-04-17T11:15:53.943Z</time></trkpt><trkpt lat="44.98176" lon="9.6070367"><ele>94.33333333333333</ele><time>2026-04-17T11:15:54.942Z</time></trkpt><trkpt lat="44.981965" lon="9.60701"><ele>94.66666666666667</ele><time>2026-04-17T11:15:55.942Z</time></trkpt><trkpt lat="44.982165" lon="9.606995"><ele>95.0</ele><time>2026-04-17T11:15:56.943Z</time></trkpt><trkpt lat="44.98236" lon="9.606985"><ele>95.0</ele><time>2026-04-17T11:15:57.942Z</time></trkpt><trkpt lat="44.9825767" lon="9.6070067"><ele>95.0</ele><time>2026-04-17T11:15:58.942Z</time></trkpt><trkpt lat="44.9827967" lon="9.6069817"><ele>95.0</ele><time>2026-04-17T11:15:59.942Z</time></trkpt><trkpt lat="44.98305" lon="9.60696"><ele>95.0</ele><time>2026-04-17T11:16:00.943Z</time></trkpt><trkpt lat="44.9833317" lon="9.6069367"><ele>95.0</ele><time>2026-04-17T11:16:01.943Z</time></trkpt><trkpt lat="44.9836333" lon="9.606915"><ele>95.0</ele><time>2026-04-17T11:16:02.942Z</time></trkpt><trkpt lat="44.9839417" lon="9.60691"><ele>95.0</ele><time>2026-04-17T11:16:03.943Z</time></trkpt><trkpt lat="44.9842583" lon="9.6069133"><ele>94.5</ele><time>2026-04-17T11:16:04.942Z</time></trkpt><trkpt lat="44.984595" lon="9.6070033"><ele>94.0</ele><time>2026-04-17T11:16:05.942Z</time></trkpt><trkpt lat="44.984915" lon="9.6069817"><ele>93.5</ele><time>2026-04-17T11:16:06.942Z</time></trkpt><trkpt lat="44.9852383" lon="9.607"><ele>93.0</ele><time>2026-04-17T11:16:07.942Z</time></trkpt><trkpt lat="44.9855617" lon="9.6070517"><ele>93.5</ele><time>2026-04-17T11:16:08.942Z</time></trkpt><trkpt lat="44.98588" lon="9.6071317"><ele>94.0</ele><time>2026-04-17T11:16:09.942Z</time></trkpt><trkpt lat="44.9861733" lon="9.6072317"><ele>94.0</ele><time>2026-04-17T11:16:10.942Z</time></trkpt><trkpt lat="44.9864517" lon="9.6073517"><ele>94.0</ele><time>2026-04-17T11:16:11.942Z</time></trkpt><trkpt lat="44.9867267" lon="9.607485"><ele>93.5</ele><time>2026-04-17T11:16:12.942Z</time></trkpt><trkpt lat="44.987" lon="9.60763"><ele>93.0</ele><time>2026-04-17T11:16:13.942Z</time></trkpt><trkpt lat="44.9872667" lon="9.6077933"><ele>93.5</ele><time>2026-04-17T11:16:14.942Z</time></trkpt><trkpt lat="44.9875317" lon="9.6079667"><ele>94.0</ele><time>2026-04-17T11:16:15.942Z</time></trkpt><trkpt lat="44.98779" lon="9.6081617"><ele>94.0</ele><time>2026-04-17T11:16:16.942Z</time></trkpt><trkpt lat="44.98805" lon="9.6083683"><ele>94.0</ele><time>2026-04-17T11:16:17.942Z</time></trkpt><trkpt lat="44.9883033" lon="9.6085917"><ele>92.5</ele><time>2026-04-17T11:16:18.942Z</time></trkpt><trkpt lat="44.9885533" lon="9.6088217"><ele>91.0</ele><time>2026-04-17T11:16:19.942Z</time></trkpt><trkpt lat="44.9888067" lon="9.6090633"><ele>91.0</ele><time>2026-04-17T11:16:20.942Z</time></trkpt><trkpt lat="44.989045" lon="9.6092767"><ele>91.0</ele><time>2026-04-17T11:16:21.942Z</time></trkpt><trkpt lat="44.9892767" lon="9.6094867"><ele>91.0</ele><time>2026-04-17T11:16:22.942Z</time></trkpt><trkpt lat="44.9895017" lon="9.6097033"><ele>91.0</ele><time>2026-04-17T11:16:23.942Z</time></trkpt><trkpt lat="44.98973" lon="9.60991"><ele>91.0</ele><time>2026-04-17T11:16:24.942Z</time></trkpt><trkpt lat="44.9899583" lon="9.6101167"><ele>91.0</ele><time>2026-04-17T11:16:25.942Z</time></trkpt><trkpt lat="44.99019" lon="9.61032"><ele>91.5</ele><time>2026-04-17T11:16:26.942Z</time></trkpt><trkpt lat="44.9904233" lon="9.6105167"><ele>92.0</ele><time>2026-04-17T11:16:27.942Z</time></trkpt><trkpt lat="44.9906583" lon="9.6107183"><ele>91.5</ele><time>2026-04-17T11:16:28.942Z</time></trkpt><trkpt lat="44.99089" lon="9.610925"><ele>91.0</ele><time>2026-04-17T11:16:29.942Z</time></trkpt><trkpt lat="44.9911217" lon="9.61113"><ele>92.0</ele><time>2026-04-17T11:16:30.943Z</time></trkpt><trkpt lat="44.99136" lon="9.61133"><ele>93.0</ele><time>2026-04-17T11:16:31.942Z</time></trkpt><trkpt lat="44.9915967" lon="9.61153"><ele>91.5</ele><time>2026-04-17T11:16:32.942Z</time></trkpt><trkpt lat="44.9918317" lon="9.6117333"><ele>90.0</ele><time>2026-04-17T11:16:33.942Z</time></trkpt><trkpt lat="44.9920617" lon="9.6119367"><ele>90.0</ele><time>2026-04-17T11:16:34.942Z</time></trkpt><trkpt lat="44.9922883" lon="9.6121433"><ele>90.0</ele><time>2026-04-17T11:16:35.942Z</time></trkpt><trkpt lat="44.9925133" lon="9.6123467"><ele>90.5</ele><time>2026-04-17T11:16:36.942Z</time></trkpt><trkpt lat="44.9927383" lon="9.6125417"><ele>91.0</ele><time>2026-04-17T11:16:37.942Z</time></trkpt><trkpt lat="44.992965" lon="9.6127317"><ele>91.5</ele><time>2026-04-17T11:16:38.942Z</time></trkpt><trkpt lat="44.9931883" lon="9.6129217"><ele>92.0</ele><time>2026-04-17T11:16:39.942Z</time></trkpt><trkpt lat="44.9934033" lon="9.613115"><ele>90.0</ele><time>2026-04-17T11:16:40.942Z</time></trkpt><trkpt lat="44.9936083" lon="9.6133033"><ele>88.0</ele><time>2026-04-17T11:16:41.942Z</time></trkpt><trkpt lat="44.9938083" lon="9.61349"><ele>87.5</ele><time>2026-04-17T11:16:42.942Z</time></trkpt><trkpt lat="44.994" lon="9.6136783"><ele>87.0</ele><time>2026-04-17T11:16:43.942Z</time></trkpt><trkpt lat="44.9941867" lon="9.6138667"><ele>87.0</ele><time>2026-04-17T11:16:44.942Z</time></trkpt><trkpt lat="44.9943683" lon="9.6140517"><ele>87.0</ele><time>2026-04-17T11:16:45.942Z</time></trkpt><trkpt lat="44.99455" lon="9.6142417"><ele>87.0</ele><time>2026-04-17T11:16:46.942Z</time></trkpt><trkpt lat="44.9947317" lon="9.6144333"><ele>87.0</ele><time>2026-04-17T11:16:47.943Z</time></trkpt><trkpt lat="44.9949083" lon="9.61462"><ele>87.0</ele><time>2026-04-17T11:16:48.942Z</time></trkpt><trkpt lat="44.9950833" lon="9.614815"><ele>87.5</ele><time>2026-04-17T11:16:49.942Z</time></trkpt><trkpt lat="44.9952633" lon="9.6150083"><ele>88.0</ele><time>2026-04-17T11:16:50.943Z</time></trkpt><trkpt lat="44.9954467" lon="9.6151933"><ele>89.5</ele><time>2026-04-17T11:16:51.942Z</time></trkpt><trkpt lat="44.9956283" lon="9.615385"><ele>91.0</ele><time>2026-04-17T11:16:52.942Z</time></trkpt><trkpt lat="44.9958117" lon="9.61558"><ele>90.0</ele><time>2026-04-17T11:16:53.942Z</time></trkpt><trkpt lat="44.9959983" lon="9.6157733"><ele>89.0</ele><time>2026-04-17T11:16:54.942Z</time></trkpt><trkpt lat="44.9961883" lon="9.6159667"><ele>89.0</ele><time>2026-04-17T11:16:55.942Z</time></trkpt><trkpt lat="44.9963733" lon="9.61616"><ele>89.0</ele><time>2026-04-17T11:16:56.942Z</time></trkpt><trkpt lat="44.9965567" lon="9.6163533"><ele>88.5</ele><time>2026-04-17T11:16:57.942Z</time></trkpt><trkpt lat="44.99675" lon="9.6165567"><ele>88.0</ele><time>2026-04-17T11:16:58.942Z</time></trkpt><trkpt lat="44.996955" lon="9.61677"><ele>88.0</ele><time>2026-04-17T11:16:59.942Z</time></trkpt><trkpt lat="44.9971717" lon="9.6169883"><ele>88.0</ele><time>2026-04-17T11:17:00.942Z</time></trkpt><trkpt lat="44.9973933" lon="9.617205"><ele>86.5</ele><time>2026-04-17T11:17:01.942Z</time></trkpt><trkpt lat="44.997615" lon="9.6174333"><ele>85.0</ele><time>2026-04-17T11:17:02.942Z</time></trkpt><trkpt lat="44.9978317" lon="9.6176683"><ele>85.0</ele><time>2026-04-17T11:17:03.942Z</time></trkpt><trkpt lat="44.9980483" lon="9.61791"><ele>85.0</ele><time>2026-04-17T11:17:04.942Z</time></trkpt><trkpt lat="44.99827" lon="9.6181517"><ele>85.5</ele><time>2026-04-17T11:17:05.942Z</time></trkpt><trkpt lat="44.998495" lon="9.6183917"><ele>86.0</ele><time>2026-04-17T11:17:06.942Z</time></trkpt><trkpt lat="44.9987217" lon="9.6186367"><ele>86.0</ele><time>2026-04-17T11:17:07.943Z</time></trkpt><trkpt lat="44.9989467" lon="9.6188917"><ele>86.0</ele><time>2026-04-17T11:17:08.942Z</time></trkpt><trkpt lat="44.99917" lon="9.6191667"><ele>86.0</ele><time>2026-04-17T11:17:09.942Z</time></trkpt><trkpt lat="44.99939" lon="9.6194667"><ele>86.0</ele><time>2026-04-17T11:17:10.942Z</time></trkpt><trkpt lat="44.999605" lon="9.619795"><ele>86.0</ele><time>2026-04-17T11:17:11.942Z</time></trkpt><trkpt lat="44.9998267" lon="9.6201467"><ele>86.0</ele><time>2026-04-17T11:17:12.942Z</time></trkpt><trkpt lat="45.00005" lon="9.620515"><ele>86.0</ele><time>2026-04-17T11:17:13.942Z</time></trkpt><trkpt lat="45.00028" lon="9.6208917"><ele>86.0</ele><time>2026-04-17T11:17:14.942Z</time></trkpt><trkpt lat="45.0005083" lon="9.621265"><ele>86.0</ele><time>2026-04-17T11:17:15.942Z</time></trkpt><trkpt lat="45.00074" lon="9.6216417"><ele>86.0</ele><time>2026-04-17T11:17:16.942Z</time></trkpt><trkpt lat="45.000975" lon="9.6220067"><ele>86.0</ele><time>2026-04-17T11:17:17.942Z</time></trkpt><trkpt lat="45.001215" lon="9.6223483"><ele>86.0</ele><time>2026-04-17T11:17:18.942Z</time></trkpt><trkpt lat="45.0014233" lon="9.6226783"><ele>86.0</ele><time>2026-04-17T11:17:19.942Z</time></trkpt><trkpt lat="45.00163" lon="9.62298"><ele>86.0</ele><time>2026-04-17T11:17:20.942Z</time></trkpt><trkpt lat="45.0017733" lon="9.6233083"><ele>86.0</ele><time>2026-04-17T11:17:21.942Z</time></trkpt><trkpt lat="45.0019267" lon="9.623575"><ele>86.0</ele><time>2026-04-17T11:17:22.942Z</time></trkpt><trkpt lat="45.00207" lon="9.6238117"><ele>85.66666666666667</ele><time>2026-04-17T11:17:23.942Z</time></trkpt><trkpt lat="45.002195" lon="9.6240233"><ele>85.33333333333333</ele><time>2026-04-17T11:17:24.942Z</time></trkpt><trkpt lat="45.002305" lon="9.62421"><ele>85.0</ele><time>2026-04-17T11:17:25.943Z</time></trkpt><trkpt lat="45.00239" lon="9.624375"><ele>85.25</ele><time>2026-04-17T11:17:26.942Z</time></trkpt><trkpt lat="45.0024533" lon="9.6245317"><ele>85.5</ele><time>2026-04-17T11:17:27.942Z</time></trkpt><trkpt lat="45.0024867" lon="9.624685"><ele>85.75</ele><time>2026-04-17T11:17:28.942Z</time></trkpt><trkpt lat="45.002525" lon="9.624825"><ele>86.0</ele><time>2026-04-17T11:17:29.942Z</time></trkpt><trkpt lat="45.0025867" lon="9.6249433"><ele>86.0</ele><time>2026-04-17T11:17:30.942Z</time></trkpt><trkpt lat="45.0026867" lon="9.625035"><ele>86.0</ele><time>2026-04-17T11:17:31.942Z</time></trkpt><trkpt lat="45.0028083" lon="9.6251483"><ele>86.0</ele><time>2026-04-17T11:17:32.942Z</time></trkpt><trkpt lat="45.002945" lon="9.6253217"><ele>86.0</ele><time>2026-04-17T11:17:33.942Z</time></trkpt><trkpt lat="45.00309" lon="9.6255467"><ele>86.33333333333334</ele><time>2026-04-17T11:17:34.942Z</time></trkpt><trkpt lat="45.003235" lon="9.6257917"><ele>86.66666666666667</ele><time>2026-04-17T11:17:35.942Z</time></trkpt><trkpt lat="45.003375" lon="9.6260133"><ele>87.0</ele><time>2026-04-17T11:17:36.942Z</time></trkpt><trkpt lat="45.0035083" lon="9.6262217"><ele>87.0</ele><time>2026-04-17T11:17:37.942Z</time></trkpt><trkpt lat="45.003635" lon="9.62643"><ele>87.0</ele><time>2026-04-17T11:17:38.942Z</time></trkpt><trkpt lat="45.0037617" lon="9.6266333"><ele>87.0</ele><time>2026-04-17T11:17:39.942Z</time></trkpt><trkpt lat="45.003885" lon="9.6268317"><ele>86.33333333333333</ele><time>2026-04-17T11:17:40.942Z</time></trkpt><trkpt lat="45.00403" lon="9.6270083"><ele>85.66666666666666</ele><time>2026-04-17T11:17:41.942Z</time></trkpt><trkpt lat="45.00417" lon="9.627205"><ele>85.0</ele><time>2026-04-17T11:17:42.942Z</time></trkpt><trkpt lat="45.004345" lon="9.6274"><ele>84.5</ele><time>2026-04-17T11:17:43.942Z</time></trkpt><trkpt lat="45.004545" lon="9.6275817"><ele>84.0</ele><time>2026-04-17T11:17:44.942Z</time></trkpt><trkpt lat="45.0047583" lon="9.6277817"><ele>83.0</ele><time>2026-04-17T11:17:45.942Z</time></trkpt><trkpt lat="45.0049783" lon="9.6279583"><ele>82.0</ele><time>2026-04-17T11:17:46.942Z</time></trkpt><trkpt lat="45.0051967" lon="9.628105"><ele>81.33333333333333</ele><time>2026-04-17T11:17:47.942Z</time></trkpt><trkpt lat="45.005395" lon="9.6282267"><ele>80.66666666666667</ele><time>2026-04-17T11:17:48.942Z</time></trkpt><trkpt lat="45.0055717" lon="9.6283283"><ele>80.0</ele><time>2026-04-17T11:17:49.942Z</time></trkpt><trkpt lat="45.0057317" lon="9.6284167"><ele>80.5</ele><time>2026-04-17T11:17:50.942Z</time></trkpt><trkpt lat="45.005875" lon="9.6285"><ele>81.0</ele><time>2026-04-17T11:17:51.942Z</time></trkpt><trkpt lat="45.0060083" lon="9.62863"><ele>81.5</ele><time>2026-04-17T11:17:52.942Z</time></trkpt><trkpt lat="45.006115" lon="9.6287183"><ele>82.0</ele><time>2026-04-17T11:17:53.942Z</time></trkpt><trkpt lat="45.0062217" lon="9.6288017"><ele>82.0</ele><time>2026-04-17T11:17:54.942Z</time></trkpt><trkpt lat="45.0063383" lon="9.6288367"><ele>82.0</ele><time>2026-04-17T11:17:55.942Z</time></trkpt><trkpt lat="45.0064667" lon="9.6288667"><ele>82.0</ele><time>2026-04-17T11:17:56.942Z</time></trkpt><trkpt lat="45.0066117" lon="9.628945"><ele>82.0</ele><time>2026-04-17T11:17:57.942Z</time></trkpt><trkpt lat="45.00677" lon="9.6290983"><ele>82.33333333333333</ele><time>2026-04-17T11:17:58.943Z</time></trkpt><trkpt lat="45.0069283" lon="9.629285"><ele>82.66666666666667</ele><time>2026-04-17T11:17:59.942Z</time></trkpt><trkpt lat="45.0070883" lon="9.6294883"><ele>83.0</ele><time>2026-04-17T11:18:00.942Z</time></trkpt><trkpt lat="45.00725" lon="9.62971"><ele>83.0</ele><time>2026-04-17T11:18:01.942Z</time></trkpt><trkpt lat="45.0074267" lon="9.6299433"><ele>83.0</ele><time>2026-04-17T11:18:02.942Z</time></trkpt><trkpt lat="45.007615" lon="9.6302"><ele>82.0</ele><time>2026-04-17T11:18:03.942Z</time></trkpt><trkpt lat="45.0078033" lon="9.6304633"><ele>81.0</ele><time>2026-04-17T11:18:04.942Z</time></trkpt><trkpt lat="45.007995" lon="9.63074"><ele>81.0</ele><time>2026-04-17T11:18:05.942Z</time></trkpt><trkpt lat="45.00819" lon="9.6310217"><ele>81.0</ele><time>2026-04-17T11:18:06.943Z</time></trkpt><trkpt lat="45.0083883" lon="9.6313117"><ele>80.5</ele><time>2026-04-17T11:18:07.942Z</time></trkpt><trkpt lat="45.0085883" lon="9.6316067"><ele>80.0</ele><time>2026-04-17T11:18:08.943Z</time></trkpt><trkpt lat="45.00879" lon="9.6318983"><ele>81.5</ele><time>2026-04-17T11:18:09.942Z</time></trkpt><trkpt lat="45.009005" lon="9.632205"><ele>83.0</ele><time>2026-04-17T11:18:10.942Z</time></trkpt><trkpt lat="45.0091517" lon="9.6325783"><ele>83.0</ele><time>2026-04-17T11:18:11.942Z</time></trkpt><trkpt lat="45.009355" lon="9.6328733"><ele>83.0</ele><time>2026-04-17T11:18:12.942Z</time></trkpt><trkpt lat="45.009575" lon="9.6331233"><ele>83.0</ele><time>2026-04-17T11:18:13.942Z</time></trkpt><trkpt lat="45.0097833" lon="9.6333917"><ele>83.0</ele><time>2026-04-17T11:18:14.942Z</time></trkpt><trkpt lat="45.009985" lon="9.63366"><ele>82.0</ele><time>2026-04-17T11:18:15.942Z</time></trkpt><trkpt lat="45.0101833" lon="9.6339217"><ele>81.0</ele><time>2026-04-17T11:18:16.942Z</time></trkpt><trkpt lat="45.0103783" lon="9.6341683"><ele>81.0</ele><time>2026-04-17T11:18:17.942Z</time></trkpt><trkpt lat="45.010565" lon="9.63441"><ele>81.0</ele><time>2026-04-17T11:18:18.942Z</time></trkpt><trkpt lat="45.0107433" lon="9.6346567"><ele>81.5</ele><time>2026-04-17T11:18:19.942Z</time></trkpt><trkpt lat="45.0109167" lon="9.634905"><ele>82.0</ele><time>2026-04-17T11:18:20.942Z</time></trkpt><trkpt lat="45.0110917" lon="9.635145"><ele>82.0</ele><time>2026-04-17T11:18:21.942Z</time></trkpt><trkpt lat="45.01126" lon="9.6353817"><ele>82.0</ele><time>2026-04-17T11:18:22.943Z</time></trkpt><trkpt lat="45.0114333" lon="9.6356117"><ele>82.0</ele><time>2026-04-17T11:18:23.942Z</time></trkpt><trkpt lat="45.0115833" lon="9.63584"><ele>82.0</ele><time>2026-04-17T11:18:24.943Z</time></trkpt><trkpt lat="45.0117367" lon="9.6360633"><ele>82.0</ele><time>2026-04-17T11:18:25.942Z</time></trkpt><trkpt lat="45.0118933" lon="9.63628"><ele>81.66666666666666</ele><time>2026-04-17T11:18:26.942Z</time></trkpt><trkpt lat="45.0120633" lon="9.63648"><ele>81.33333333333333</ele><time>2026-04-17T11:18:27.942Z</time></trkpt><trkpt lat="45.01222" lon="9.6366983"><ele>81.0</ele><time>2026-04-17T11:18:28.942Z</time></trkpt><trkpt lat="45.0123633" lon="9.6369283"><ele>81.0</ele><time>2026-04-17T11:18:29.942Z</time></trkpt><trkpt lat="45.0125183" lon="9.6371317"><ele>81.0</ele><time>2026-04-17T11:18:30.942Z</time></trkpt><trkpt lat="45.0126633" lon="9.6373383"><ele>81.0</ele><time>2026-04-17T11:18:31.942Z</time></trkpt><trkpt lat="45.0127933" lon="9.6375383"><ele>81.0</ele><time>2026-04-17T11:18:32.942Z</time></trkpt><trkpt lat="45.0129183" lon="9.6377233"><ele>81.0</ele><time>2026-04-17T11:18:33.942Z</time></trkpt><trkpt lat="45.0130367" lon="9.6378967"><ele>81.0</ele><time>2026-04-17T11:18:34.942Z</time></trkpt><trkpt lat="45.013145" lon="9.6380633"><ele>81.0</ele><time>2026-04-17T11:18:35.942Z</time></trkpt><trkpt lat="45.0132533" lon="9.6382183"><ele>81.0</ele><time>2026-04-17T11:18:36.942Z</time></trkpt><trkpt lat="45.0133567" lon="9.6383817"><ele>81.0</ele><time>2026-04-17T11:18:37.943Z</time></trkpt><trkpt lat="45.0134683" lon="9.63855"><ele>80.33333333333333</ele><time>2026-04-17T11:18:38.942Z</time></trkpt><trkpt lat="45.0135867" lon="9.638715"><ele>79.66666666666666</ele><time>2026-04-17T11:18:39.942Z</time></trkpt><trkpt lat="45.013705" lon="9.6388883"><ele>79.0</ele><time>2026-04-17T11:18:40.942Z</time></trkpt><trkpt lat="45.013825" lon="9.6390633"><ele>79.0</ele><time>2026-04-17T11:18:41.942Z</time></trkpt><trkpt lat="45.0139467" lon="9.639245"><ele>79.0</ele><time>2026-04-17T11:18:42.942Z</time></trkpt><trkpt lat="45.01407" lon="9.6394267"><ele>79.0</ele><time>2026-04-17T11:18:43.942Z</time></trkpt><trkpt lat="45.0141933" lon="9.6396033"><ele>79.33333333333333</ele><time>2026-04-17T11:18:44.943Z</time></trkpt><trkpt lat="45.01433" lon="9.639765"><ele>79.66666666666667</ele><time>2026-04-17T11:18:45.942Z</time></trkpt><trkpt lat="45.0144717" lon="9.6399533"><ele>80.0</ele><time>2026-04-17T11:18:46.942Z</time></trkpt><trkpt lat="45.014625" lon="9.64019"><ele>79.5</ele><time>2026-04-17T11:18:47.942Z</time></trkpt><trkpt lat="45.014825" lon="9.6403883"><ele>79.0</ele><time>2026-04-17T11:18:48.942Z</time></trkpt><trkpt lat="45.014995" lon="9.6406567"><ele>76.5</ele><time>2026-04-17T11:18:49.942Z</time></trkpt><trkpt lat="45.0151583" lon="9.6409133"><ele>74.0</ele><time>2026-04-17T11:18:50.942Z</time></trkpt><trkpt lat="45.0153283" lon="9.6411317"><ele>74.66666666666667</ele><time>2026-04-17T11:18:51.942Z</time></trkpt><trkpt lat="45.0154617" lon="9.641375"><ele>75.33333333333333</ele><time>2026-04-17T11:18:52.942Z</time></trkpt><trkpt lat="45.0156267" lon="9.6415767"><ele>76.0</ele><time>2026-04-17T11:18:53.942Z</time></trkpt><trkpt lat="45.0157767" lon="9.6417833"><ele>76.33333333333333</ele><time>2026-04-17T11:18:54.942Z</time></trkpt><trkpt lat="45.0159317" lon="9.6419883"><ele>76.66666666666667</ele><time>2026-04-17T11:18:55.942Z</time></trkpt><trkpt lat="45.0160917" lon="9.64218"><ele>77.0</ele><time>2026-04-17T11:18:56.943Z</time></trkpt><trkpt lat="45.0162367" lon="9.6423767"><ele>77.0</ele><time>2026-04-17T11:18:57.942Z</time></trkpt><trkpt lat="45.0163817" lon="9.6425683"><ele>77.0</ele><time>2026-04-17T11:18:58.942Z</time></trkpt><trkpt lat="45.0165117" lon="9.6427767"><ele>77.0</ele><time>2026-04-17T11:18:59.942Z</time></trkpt><trkpt lat="45.0166467" lon="9.642975"><ele>76.66666666666667</ele><time>2026-04-17T11:19:00.942Z</time></trkpt><trkpt lat="45.0167783" lon="9.6431733"><ele>76.33333333333333</ele><time>2026-04-17T11:19:01.942Z</time></trkpt><trkpt lat="45.0169067" lon="9.6433733"><ele>76.0</ele><time>2026-04-17T11:19:02.942Z</time></trkpt><trkpt lat="45.0170417" lon="9.6435667"><ele>74.5</ele><time>2026-04-17T11:19:03.942Z</time></trkpt><trkpt lat="45.0171933" lon="9.64377"><ele>73.0</ele><time>2026-04-17T11:19:04.942Z</time></trkpt><trkpt lat="45.0173467" lon="9.6440333"><ele>72.5</ele><time>2026-04-17T11:19:05.942Z</time></trkpt><trkpt lat="45.01754" lon="9.6442667"><ele>72.0</ele><time>2026-04-17T11:19:06.942Z</time></trkpt><trkpt lat="45.017735" lon="9.644545"><ele>72.0</ele><time>2026-04-17T11:19:07.942Z</time></trkpt><trkpt lat="45.0179383" lon="9.64484"><ele>72.0</ele><time>2026-04-17T11:19:08.942Z</time></trkpt><trkpt lat="45.0181483" lon="9.6451383"><ele>73.0</ele><time>2026-04-17T11:19:09.942Z</time></trkpt><trkpt lat="45.0183617" lon="9.64544"><ele>74.0</ele><time>2026-04-17T11:19:10.942Z</time></trkpt><trkpt lat="45.018575" lon="9.6457367"><ele>74.0</ele><time>2026-04-17T11:19:11.942Z</time></trkpt><trkpt lat="45.01878" lon="9.64603"><ele>74.0</ele><time>2026-04-17T11:19:12.942Z</time></trkpt><trkpt lat="45.0189717" lon="9.646325"><ele>74.0</ele><time>2026-04-17T11:19:13.942Z</time></trkpt><trkpt lat="45.019175" lon="9.6465967"><ele>74.0</ele><time>2026-04-17T11:19:14.942Z</time></trkpt><trkpt lat="45.0193567" lon="9.6468717"><ele>74.5</ele><time>2026-04-17T11:19:15.942Z</time></trkpt><trkpt lat="45.0195333" lon="9.6471383"><ele>75.0</ele><time>2026-04-17T11:19:16.942Z</time></trkpt><trkpt lat="45.019735" lon="9.6473583"><ele>75.0</ele><time>2026-04-17T11:19:17.942Z</time></trkpt><trkpt lat="45.01989" lon="9.6476317"><ele>75.0</ele><time>2026-04-17T11:19:18.942Z</time></trkpt><trkpt lat="45.0200717" lon="9.6478633"><ele>75.5</ele><time>2026-04-17T11:19:19.942Z</time></trkpt><trkpt lat="45.02023" lon="9.64812"><ele>76.0</ele><time>2026-04-17T11:19:20.942Z</time></trkpt><trkpt lat="45.02043" lon="9.6483183"><ele>74.5</ele><time>2026-04-17T11:19:21.942Z</time></trkpt><trkpt lat="45.020535" lon="9.648645"><ele>73.0</ele><time>2026-04-17T11:19:22.943Z</time></trkpt><trkpt lat="45.0207" lon="9.6488417"><ele>73.33333333333333</ele><time>2026-04-17T11:19:23.942Z</time></trkpt><trkpt lat="45.0208633" lon="9.64905"><ele>73.66666666666667</ele><time>2026-04-17T11:19:24.942Z</time></trkpt><trkpt lat="45.0210217" lon="9.6492667"><ele>74.0</ele><time>2026-04-17T11:19:25.942Z</time></trkpt><trkpt lat="45.0211667" lon="9.6495067"><ele>74.0</ele><time>2026-04-17T11:19:26.942Z</time></trkpt><trkpt lat="45.0213317" lon="9.64971"><ele>74.0</ele><time>2026-04-17T11:19:27.943Z</time></trkpt><trkpt lat="45.021495" lon="9.6499183"><ele>74.0</ele><time>2026-04-17T11:19:28.942Z</time></trkpt><trkpt lat="45.021655" lon="9.6501367"><ele>73.33333333333334</ele><time>2026-04-17T11:19:29.942Z</time></trkpt><trkpt lat="45.02181" lon="9.65035"><ele>72.66666666666667</ele><time>2026-04-17T11:19:30.942Z</time></trkpt><trkpt lat="45.0219583" lon="9.65055"><ele>72.0</ele><time>2026-04-17T11:19:31.942Z</time></trkpt><trkpt lat="45.0221033" lon="9.6507433"><ele>72.0</ele><time>2026-04-17T11:19:32.942Z</time></trkpt><trkpt lat="45.0222383" lon="9.65093"><ele>72.0</ele><time>2026-04-17T11:19:33.942Z</time></trkpt><trkpt lat="45.0223683" lon="9.6511117"><ele>72.0</ele><time>2026-04-17T11:19:34.942Z</time></trkpt><trkpt lat="45.0225" lon="9.651285"><ele>72.66666666666667</ele><time>2026-04-17T11:19:35.942Z</time></trkpt><trkpt lat="45.0226283" lon="9.651455"><ele>73.33333333333334</ele><time>2026-04-17T11:19:36.942Z</time></trkpt><trkpt lat="45.02275" lon="9.651625"><ele>74.0</ele><time>2026-04-17T11:19:37.942Z</time></trkpt><trkpt lat="45.0228717" lon="9.6517967"><ele>74.0</ele><time>2026-04-17T11:19:38.942Z</time></trkpt><trkpt lat="45.023015" lon="9.6519533"><ele>74.0</ele><time>2026-04-17T11:19:39.942Z</time></trkpt><trkpt lat="45.0231317" lon="9.6521483"><ele>74.0</ele><time>2026-04-17T11:19:40.942Z</time></trkpt><trkpt lat="45.0232767" lon="9.652325"><ele>73.0</ele><time>2026-04-17T11:19:41.942Z</time></trkpt><trkpt lat="45.0233867" lon="9.6525367"><ele>72.0</ele><time>2026-04-17T11:19:42.943Z</time></trkpt><trkpt lat="45.023535" lon="9.6526967"><ele>71.0</ele><time>2026-04-17T11:19:43.942Z</time></trkpt><trkpt lat="45.0236567" lon="9.6528933"><ele>71.0</ele><time>2026-04-17T11:19:44.942Z</time></trkpt><trkpt lat="45.0237883" lon="9.653075"><ele>71.0</ele><time>2026-04-17T11:19:45.942Z</time></trkpt><trkpt lat="45.02392" lon="9.6532567"><ele>71.0</ele><time>2026-04-17T11:19:46.942Z</time></trkpt><trkpt lat="45.0240483" lon="9.6534367"><ele>71.66666666666667</ele><time>2026-04-17T11:19:47.942Z</time></trkpt><trkpt lat="45.0241767" lon="9.6536217"><ele>72.33333333333333</ele><time>2026-04-17T11:19:48.942Z</time></trkpt><trkpt lat="45.0243183" lon="9.6537817"><ele>73.0</ele><time>2026-04-17T11:19:49.942Z</time></trkpt><trkpt lat="45.024425" lon="9.6539533"><ele>73.25</ele><time>2026-04-17T11:19:50.942Z</time></trkpt><trkpt lat="45.0245383" lon="9.65409"><ele>73.5</ele><time>2026-04-17T11:19:51.943Z</time></trkpt><trkpt lat="45.024635" lon="9.654285"><ele>73.75</ele><time>2026-04-17T11:19:52.943Z</time></trkpt><trkpt lat="45.024685" lon="9.65435"><ele>74.0</ele><time>2026-04-17T11:19:53.942Z</time></trkpt><trkpt lat="45.0247233" lon="9.6545083"><ele>73.5</ele><time>2026-04-17T11:19:55.942Z</time></trkpt><trkpt lat="45.0247333" lon="9.6546717"><ele>73.0</ele><time>2026-04-17T11:19:57.942Z</time></trkpt><trkpt lat="45.024825" lon="9.6548533"><ele>72.5</ele><time>2026-04-17T11:23:11.943Z</time></trkpt><trkpt lat="45.0249217" lon="9.6548733"><ele>72.0</ele><time>2026-04-17T11:23:13.943Z</time></trkpt><trkpt lat="45.02504" lon="9.6549333"><ele>72.0</ele><time>2026-04-17T11:23:15.943Z</time></trkpt><trkpt lat="45.025125" lon="9.6549983"><ele>72.0</ele><time>2026-04-17T11:23:16.944Z</time></trkpt><trkpt lat="45.02521" lon="9.6550917"><ele>72.0</ele><time>2026-04-17T11:23:17.943Z</time></trkpt><trkpt lat="45.0253133" lon="9.6552433"><ele>72.0</ele><time>2026-04-17T11:23:18.943Z</time></trkpt><trkpt lat="45.02543" lon="9.6553983"><ele>71.33333333333333</ele><time>2026-04-17T11:23:19.943Z</time></trkpt><trkpt lat="45.025555" lon="9.6555733"><ele>70.66666666666666</ele><time>2026-04-17T11:23:20.943Z</time></trkpt><trkpt lat="45.0256917" lon="9.6557667"><ele>70.0</ele><time>2026-04-17T11:23:21.943Z</time></trkpt><trkpt lat="45.0258383" lon="9.6559783"><ele>70.5</ele><time>2026-04-17T11:23:22.943Z</time></trkpt><trkpt lat="45.0259967" lon="9.6562017"><ele>71.0</ele><time>2026-04-17T11:23:23.943Z</time></trkpt><trkpt lat="45.0261633" lon="9.656435"><ele>71.0</ele><time>2026-04-17T11:23:24.943Z</time></trkpt><trkpt lat="45.02634" lon="9.6566783"><ele>71.0</ele><time>2026-04-17T11:23:25.943Z</time></trkpt><trkpt lat="45.02652" lon="9.6569283"><ele>69.0</ele><time>2026-04-17T11:23:26.943Z</time></trkpt><trkpt lat="45.0267033" lon="9.6571833"><ele>67.0</ele><time>2026-04-17T11:23:27.943Z</time></trkpt><trkpt lat="45.0268867" lon="9.6574433"><ele>67.0</ele><time>2026-04-17T11:23:28.943Z</time></trkpt><trkpt lat="45.0270733" lon="9.657705"><ele>67.0</ele><time>2026-04-17T11:23:29.943Z</time></trkpt><trkpt lat="45.02726" lon="9.6579717"><ele>67.0</ele><time>2026-04-17T11:23:30.943Z</time></trkpt><trkpt lat="45.0274483" lon="9.6582333"><ele>67.0</ele><time>2026-04-17T11:23:31.943Z</time></trkpt><trkpt lat="45.0276333" lon="9.6585"><ele>68.0</ele><time>2026-04-17T11:23:32.943Z</time></trkpt><trkpt lat="45.0278167" lon="9.65877"><ele>69.0</ele><time>2026-04-17T11:23:33.943Z</time></trkpt><trkpt lat="45.0280033" lon="9.659035"><ele>69.0</ele><time>2026-04-17T11:23:34.943Z</time></trkpt><trkpt lat="45.0281917" lon="9.6593"><ele>69.0</ele><time>2026-04-17T11:23:35.943Z</time></trkpt><trkpt lat="45.02838" lon="9.659565"><ele>69.5</ele><time>2026-04-17T11:23:36.943Z</time></trkpt><trkpt lat="45.02857" lon="9.659835"><ele>70.0</ele><time>2026-04-17T11:23:37.943Z</time></trkpt><trkpt lat="45.02876" lon="9.660105"><ele>69.0</ele><time>2026-04-17T11:23:38.943Z</time></trkpt><trkpt lat="45.0289483" lon="9.660375"><ele>68.0</ele><time>2026-04-17T11:23:39.943Z</time></trkpt><trkpt lat="45.0291383" lon="9.66064"><ele>68.0</ele><time>2026-04-17T11:23:40.943Z</time></trkpt><trkpt lat="45.0293267" lon="9.6609033"><ele>68.0</ele><time>2026-04-17T11:23:41.943Z</time></trkpt><trkpt lat="45.0295133" lon="9.661175"><ele>69.0</ele><time>2026-04-17T11:23:42.943Z</time></trkpt><trkpt lat="45.0297017" lon="9.661445"><ele>70.0</ele><time>2026-04-17T11:23:43.943Z</time></trkpt><trkpt lat="45.02989" lon="9.6617167"><ele>69.5</ele><time>2026-04-17T11:23:44.943Z</time></trkpt><trkpt lat="45.0300817" lon="9.661985"><ele>69.0</ele><time>2026-04-17T11:23:45.943Z</time></trkpt><trkpt lat="45.03027" lon="9.6622533"><ele>69.0</ele><time>2026-04-17T11:23:46.943Z</time></trkpt><trkpt lat="45.0304533" lon="9.6625083"><ele>69.0</ele><time>2026-04-17T11:23:47.943Z</time></trkpt><trkpt lat="45.0306267" lon="9.662755"><ele>68.5</ele><time>2026-04-17T11:23:48.943Z</time></trkpt><trkpt lat="45.0307883" lon="9.66299"><ele>68.0</ele><time>2026-04-17T11:23:49.943Z</time></trkpt><trkpt lat="45.0309483" lon="9.6632133"><ele>68.66666666666667</ele><time>2026-04-17T11:23:50.943Z</time></trkpt><trkpt lat="45.0311017" lon="9.6634233"><ele>69.33333333333333</ele><time>2026-04-17T11:23:51.943Z</time></trkpt><trkpt lat="45.0312483" lon="9.663635"><ele>70.0</ele><time>2026-04-17T11:23:52.943Z</time></trkpt><trkpt lat="45.0313917" lon="9.66384"><ele>70.33333333333333</ele><time>2026-04-17T11:23:53.943Z</time></trkpt><trkpt lat="45.0315317" lon="9.6640433"><ele>70.66666666666667</ele><time>2026-04-17T11:23:54.943Z</time></trkpt><trkpt lat="45.0316667" lon="9.6642483"><ele>71.0</ele><time>2026-04-17T11:23:55.943Z</time></trkpt><trkpt lat="45.0318067" lon="9.664455"><ele>68.66666666666667</ele><time>2026-04-17T11:23:56.943Z</time></trkpt><trkpt lat="45.03195" lon="9.6646617"><ele>66.33333333333333</ele><time>2026-04-17T11:23:57.943Z</time></trkpt><trkpt lat="45.0320967" lon="9.664865"><ele>64.0</ele><time>2026-04-17T11:23:58.943Z</time></trkpt><trkpt lat="45.0322417" lon="9.6650683"><ele>64.0</ele><time>2026-04-17T11:23:59.943Z</time></trkpt><trkpt lat="45.0323917" lon="9.6652767"><ele>64.0</ele><time>2026-04-17T11:24:00.943Z</time></trkpt><trkpt lat="45.0325417" lon="9.6654883"><ele>64.0</ele><time>2026-04-17T11:24:01.943Z</time></trkpt><trkpt lat="45.0326983" lon="9.6656983"><ele>65.33333333333333</ele><time>2026-04-17T11:24:02.943Z</time></trkpt><trkpt lat="45.0328567" lon="9.6659117"><ele>66.66666666666667</ele><time>2026-04-17T11:24:03.943Z</time></trkpt><trkpt lat="45.0330133" lon="9.6661233"><ele>68.0</ele><time>2026-04-17T11:24:04.943Z</time></trkpt><trkpt lat="45.0331717" lon="9.666335"><ele>67.66666666666667</ele><time>2026-04-17T11:24:05.943Z</time></trkpt><trkpt lat="45.0333283" lon="9.6665517"><ele>67.33333333333333</ele><time>2026-04-17T11:24:06.943Z</time></trkpt><trkpt lat="45.0334867" lon="9.66677"><ele>67.0</ele><time>2026-04-17T11:24:07.943Z</time></trkpt><trkpt lat="45.033645" lon="9.66698"><ele>68.0</ele><time>2026-04-17T11:24:08.943Z</time></trkpt><trkpt lat="45.0338067" lon="9.667195"><ele>69.0</ele><time>2026-04-17T11:24:09.943Z</time></trkpt><trkpt lat="45.0339783" lon="9.6674217"><ele>68.0</ele><time>2026-04-17T11:24:10.943Z</time></trkpt><trkpt lat="45.0341483" lon="9.6676567"><ele>67.0</ele><time>2026-04-17T11:24:11.943Z</time></trkpt><trkpt lat="45.0343033" lon="9.6678833"><ele>67.0</ele><time>2026-04-17T11:24:12.944Z</time></trkpt><trkpt lat="45.034445" lon="9.6680933"><ele>67.0</ele><time>2026-04-17T11:24:13.943Z</time></trkpt><trkpt lat="45.03457" lon="9.6682817"><ele>67.0</ele><time>2026-04-17T11:24:14.943Z</time></trkpt><trkpt lat="45.03467" lon="9.6684483"><ele>67.0</ele><time>2026-04-17T11:24:15.943Z</time></trkpt><trkpt lat="45.0347333" lon="9.6686067"><ele>67.0</ele><time>2026-04-17T11:24:16.943Z</time></trkpt><trkpt lat="45.0347783" lon="9.66876"><ele>67.0</ele><time>2026-04-17T11:24:17.943Z</time></trkpt><trkpt lat="45.034825" lon="9.6688967"><ele>67.0</ele><time>2026-04-17T11:24:18.943Z</time></trkpt><trkpt lat="45.034905" lon="9.668995"><ele>67.0</ele><time>2026-04-17T11:24:19.943Z</time></trkpt><trkpt lat="45.0350183" lon="9.66906"><ele>67.0</ele><time>2026-04-17T11:24:20.943Z</time></trkpt><trkpt lat="45.0351383" lon="9.669135"><ele>67.0</ele><time>2026-04-17T11:24:21.943Z</time></trkpt><trkpt lat="45.0352617" lon="9.6692617"><ele>67.0</ele><time>2026-04-17T11:24:22.943Z</time></trkpt><trkpt lat="45.0353883" lon="9.66944"><ele>66.0</ele><time>2026-04-17T11:24:23.943Z</time></trkpt><trkpt lat="45.0355233" lon="9.6696367"><ele>65.0</ele><time>2026-04-17T11:24:24.943Z</time></trkpt><trkpt lat="45.03567" lon="9.66985"><ele>64.0</ele><time>2026-04-17T11:24:25.944Z</time></trkpt><trkpt lat="45.0358283" lon="9.670075"><ele>63.0</ele><time>2026-04-17T11:24:26.943Z</time></trkpt><trkpt lat="45.0359917" lon="9.670305"><ele>62.0</ele><time>2026-04-17T11:24:27.943Z</time></trkpt><trkpt lat="45.036155" lon="9.67054"><ele>62.0</ele><time>2026-04-17T11:24:28.943Z</time></trkpt><trkpt lat="45.036315" lon="9.6707767"><ele>62.0</ele><time>2026-04-17T11:24:29.943Z</time></trkpt><trkpt lat="45.03647" lon="9.67101"><ele>61.66666666666667</ele><time>2026-04-17T11:24:30.943Z</time></trkpt><trkpt lat="45.0366233" lon="9.671245"><ele>61.33333333333333</ele><time>2026-04-17T11:24:31.943Z</time></trkpt><trkpt lat="45.0367733" lon="9.6714733"><ele>61.0</ele><time>2026-04-17T11:24:32.944Z</time></trkpt><trkpt lat="45.036915" lon="9.6716883"><ele>61.0</ele><time>2026-04-17T11:24:33.943Z</time></trkpt><trkpt lat="45.03705" lon="9.6718883"><ele>61.0</ele><time>2026-04-17T11:24:34.943Z</time></trkpt><trkpt lat="45.0371733" lon="9.6720683"><ele>61.0</ele><time>2026-04-17T11:24:35.943Z</time></trkpt><trkpt lat="45.0372833" lon="9.6722283"><ele>61.0</ele><time>2026-04-17T11:24:36.943Z</time></trkpt><trkpt lat="45.0373783" lon="9.6723767"><ele>61.0</ele><time>2026-04-17T11:24:37.943Z</time></trkpt><trkpt lat="45.037445" lon="9.6725333"><ele>61.0</ele><time>2026-04-17T11:24:38.943Z</time></trkpt><trkpt lat="45.037495" lon="9.6726733"><ele>61.0</ele><time>2026-04-17T11:24:39.943Z</time></trkpt><trkpt lat="45.0375617" lon="9.672785"><ele>61.0</ele><time>2026-04-17T11:24:40.943Z</time></trkpt><trkpt lat="45.0376533" lon="9.6728583"><ele>61.0</ele><time>2026-04-17T11:24:41.943Z</time></trkpt><trkpt lat="45.0377633" lon="9.6729317"><ele>61.0</ele><time>2026-04-17T11:24:42.943Z</time></trkpt><trkpt lat="45.0378667" lon="9.6730383"><ele>61.0</ele><time>2026-04-17T11:24:43.943Z</time></trkpt><trkpt lat="45.037975" lon="9.6731867"><ele>61.0</ele><time>2026-04-17T11:24:44.943Z</time></trkpt><trkpt lat="45.0380917" lon="9.6733633"><ele>61.0</ele><time>2026-04-17T11:24:45.943Z</time></trkpt><trkpt lat="45.0382183" lon="9.6735517"><ele>61.0</ele><time>2026-04-17T11:24:46.943Z</time></trkpt><trkpt lat="45.0383333" lon="9.6737233"><ele>60.75</ele><time>2026-04-17T11:24:47.943Z</time></trkpt><trkpt lat="45.0384383" lon="9.6738767"><ele>60.5</ele><time>2026-04-17T11:24:48.943Z</time></trkpt><trkpt lat="45.0385317" lon="9.6740083"><ele>60.25</ele><time>2026-04-17T11:24:49.943Z</time></trkpt><trkpt lat="45.0386067" lon="9.6741167"><ele>60.0</ele><time>2026-04-17T11:24:50.943Z</time></trkpt><trkpt lat="45.038675" lon="9.6742117"><ele>60.0</ele><time>2026-04-17T11:24:51.943Z</time></trkpt><trkpt lat="45.03874" lon="9.6743"><ele>60.0</ele><time>2026-04-17T11:24:52.943Z</time></trkpt><trkpt lat="45.0388083" lon="9.6743933"><ele>60.0</ele><time>2026-04-17T11:24:53.943Z</time></trkpt><trkpt lat="45.03888" lon="9.674485"><ele>60.0</ele><time>2026-04-17T11:24:54.943Z</time></trkpt><trkpt lat="45.0389433" lon="9.6745783"><ele>60.0</ele><time>2026-04-17T11:24:55.943Z</time></trkpt><trkpt lat="45.0390017" lon="9.67466"><ele>60.166666666666664</ele><time>2026-04-17T11:24:56.943Z</time></trkpt><trkpt lat="45.0390583" lon="9.674735"><ele>60.33333333333333</ele><time>2026-04-17T11:24:57.943Z</time></trkpt><trkpt lat="45.0391133" lon="9.674815"><ele>60.5</ele><time>2026-04-17T11:24:58.943Z</time></trkpt><trkpt lat="45.039175" lon="9.6749"><ele>60.666666666666664</ele><time>2026-04-17T11:24:59.943Z</time></trkpt><trkpt lat="45.0392383" lon="9.674985"><ele>60.83333333333333</ele><time>2026-04-17T11:25:00.943Z</time></trkpt><trkpt lat="45.0392933" lon="9.6750667"><ele>61.0</ele><time>2026-04-17T11:25:01.943Z</time></trkpt><trkpt lat="45.0393433" lon="9.6751383"><ele>60.99999999999999</ele><time>2026-04-17T11:25:02.943Z</time></trkpt><trkpt lat="45.03942" lon="9.6752517"><ele>61.0</ele><time>2026-04-17T11:25:04.943Z</time></trkpt><trkpt lat="45.039485" lon="9.675295"><ele>61.0</ele><time>2026-04-17T11:25:06.943Z</time></trkpt><trkpt lat="45.0395367" lon="9.6752317"><ele>61.0</ele><time>2026-04-17T11:25:08.944Z</time></trkpt><trkpt lat="45.03961" lon="9.6751067"><ele>60.99999999999999</ele><time>2026-04-17T11:25:10.943Z</time></trkpt><trkpt lat="45.0396633" lon="9.6750283"><ele>61.0</ele><time>2026-04-17T11:25:11.943Z</time></trkpt><trkpt lat="45.0397233" lon="9.6749383"><ele>61.0</ele><time>2026-04-17T11:25:12.943Z</time></trkpt><trkpt lat="45.0398067" lon="9.674815"><ele>61.0</ele><time>2026-04-17T11:25:13.944Z</time></trkpt><trkpt lat="45.0399067" lon="9.6746733"><ele>61.0</ele><time>2026-04-17T11:25:14.943Z</time></trkpt><trkpt lat="45.0400167" lon="9.67452"><ele>61.0</ele><time>2026-04-17T11:25:15.943Z</time></trkpt><trkpt lat="45.040125" lon="9.6743667"><ele>60.25</ele><time>2026-04-17T11:25:16.943Z</time></trkpt><trkpt lat="45.0402183" lon="9.6742183"><ele>59.5</ele><time>2026-04-17T11:25:17.943Z</time></trkpt><trkpt lat="45.04031" lon="9.67408"><ele>58.75</ele><time>2026-04-17T11:25:18.943Z</time></trkpt><trkpt lat="45.0403983" lon="9.6739533"><ele>58.0</ele><time>2026-04-17T11:25:19.943Z</time></trkpt><trkpt lat="45.04048" lon="9.6738333"><ele>58.0</ele><time>2026-04-17T11:25:20.943Z</time></trkpt><trkpt lat="45.0405567" lon="9.6737217"><ele>58.0</ele><time>2026-04-17T11:25:21.943Z</time></trkpt><trkpt lat="45.0406317" lon="9.67361"><ele>58.0</ele><time>2026-04-17T11:25:22.943Z</time></trkpt><trkpt lat="45.0407033" lon="9.6735017"><ele>58.0</ele><time>2026-04-17T11:25:23.943Z</time></trkpt><trkpt lat="45.04078" lon="9.6734017"><ele>58.0</ele><time>2026-04-17T11:25:24.943Z</time></trkpt><trkpt lat="45.0408483" lon="9.6733033"><ele>58.83333333333333</ele><time>2026-04-17T11:25:25.943Z</time></trkpt><trkpt lat="45.0409083" lon="9.6732167"><ele>59.666666666666664</ele><time>2026-04-17T11:25:26.943Z</time></trkpt><trkpt lat="45.0409617" lon="9.67314"><ele>60.5</ele><time>2026-04-17T11:25:27.943Z</time></trkpt><trkpt lat="45.0410083" lon="9.6730683"><ele>61.33333333333333</ele><time>2026-04-17T11:25:28.943Z</time></trkpt><trkpt lat="45.04109" lon="9.672955"><ele>62.166666666666664</ele><time>2026-04-17T11:25:30.944Z</time></trkpt><trkpt lat="45.0411517" lon="9.67289"><ele>63.0</ele><time>2026-04-17T11:25:32.943Z</time></trkpt><trkpt lat="45.0412117" lon="9.6728217"><ele>62.4</ele><time>2026-04-17T11:25:37.943Z</time></trkpt><trkpt lat="45.041295" lon="9.6727067"><ele>61.8</ele><time>2026-04-17T11:25:39.943Z</time></trkpt><trkpt lat="45.0413833" lon="9.6725733"><ele>61.2</ele><time>2026-04-17T11:25:41.943Z</time></trkpt><trkpt lat="45.0414383" lon="9.67249"><ele>60.6</ele><time>2026-04-17T11:25:42.944Z</time></trkpt><trkpt lat="45.0415033" lon="9.672405"><ele>60.0</ele><time>2026-04-17T11:25:43.944Z</time></trkpt><trkpt lat="45.04157" lon="9.6723217"><ele>60.0</ele><time>2026-04-17T11:25:44.944Z</time></trkpt><trkpt lat="45.0416317" lon="9.6722267"><ele>60.0</ele><time>2026-04-17T11:25:45.943Z</time></trkpt><trkpt lat="45.041695" lon="9.67214"><ele>60.0</ele><time>2026-04-17T11:25:46.943Z</time></trkpt><trkpt lat="45.0417517" lon="9.672065"><ele>60.0</ele><time>2026-04-17T11:25:47.943Z</time></trkpt><trkpt lat="45.0418" lon="9.672"><ele>60.0</ele><time>2026-04-17T11:25:48.943Z</time></trkpt><trkpt lat="45.0418833" lon="9.671925"><ele>60.0</ele><time>2026-04-17T11:25:50.943Z</time></trkpt><trkpt lat="45.0419667" lon="9.6719167"><ele>59.8</ele><time>2026-04-17T11:25:52.943Z</time></trkpt><trkpt lat="45.042075" lon="9.67201"><ele>59.6</ele><time>2026-04-17T11:25:54.943Z</time></trkpt><trkpt lat="45.0421433" lon="9.6720783"><ele>59.400000000000006</ele><time>2026-04-17T11:25:55.943Z</time></trkpt><trkpt lat="45.0422217" lon="9.6721467"><ele>59.2</ele><time>2026-04-17T11:25:56.944Z</time></trkpt><trkpt lat="45.042295" lon="9.6722133"><ele>59.0</ele><time>2026-04-17T11:25:57.943Z</time></trkpt><trkpt lat="45.0423667" lon="9.6722767"><ele>59.0</ele><time>2026-04-17T11:25:58.943Z</time></trkpt><trkpt lat="45.04244" lon="9.672345"><ele>59.00000000000001</ele><time>2026-04-17T11:25:59.943Z</time></trkpt><trkpt lat="45.0425283" lon="9.6724267"><ele>59.00000000000001</ele><time>2026-04-17T11:26:00.943Z</time></trkpt><trkpt lat="45.0426283" lon="9.6725183"><ele>59.0</ele><time>2026-04-17T11:26:01.943Z</time></trkpt><trkpt lat="45.0427317" lon="9.6726133"><ele>59.0</ele><time>2026-04-17T11:26:02.943Z</time></trkpt><trkpt lat="45.042835" lon="9.6727117"><ele>59.0</ele><time>2026-04-17T11:26:03.943Z</time></trkpt><trkpt lat="45.0429417" lon="9.6728117"><ele>59.0</ele><time>2026-04-17T11:26:04.943Z</time></trkpt><trkpt lat="45.0430483" lon="9.6729017"><ele>59.0</ele><time>2026-04-17T11:26:05.943Z</time></trkpt><trkpt lat="45.0431517" lon="9.672995"><ele>59.0</ele><time>2026-04-17T11:26:06.943Z</time></trkpt><trkpt lat="45.0432567" lon="9.6730817"><ele>59.0</ele><time>2026-04-17T11:26:07.943Z</time></trkpt><trkpt lat="45.0433633" lon="9.6731717"><ele>59.0</ele><time>2026-04-17T11:26:08.943Z</time></trkpt><trkpt lat="45.04347" lon="9.6732667"><ele>59.0</ele><time>2026-04-17T11:26:09.943Z</time></trkpt><trkpt lat="45.0435733" lon="9.6733533"><ele>59.0</ele><time>2026-04-17T11:26:10.943Z</time></trkpt><trkpt lat="45.0436667" lon="9.6734333"><ele>59.00000000000001</ele><time>2026-04-17T11:26:11.943Z</time></trkpt><trkpt lat="45.0437483" lon="9.6735017"><ele>59.0</ele><time>2026-04-17T11:26:12.943Z</time></trkpt><trkpt lat="45.04383" lon="9.6735733"><ele>59.0</ele><time>2026-04-17T11:26:13.943Z</time></trkpt><trkpt lat="45.0439083" lon="9.673635"><ele>59.0</ele><time>2026-04-17T11:26:14.943Z</time></trkpt><trkpt lat="45.04398" lon="9.6736933"><ele>59.00000000000001</ele><time>2026-04-17T11:26:15.943Z</time></trkpt><trkpt lat="45.0440417" lon="9.673745"><ele>59.0</ele><time>2026-04-17T11:26:16.943Z</time></trkpt><trkpt lat="45.0441317" lon="9.6738183"><ele>59.333333333333336</ele><time>2026-04-17T11:26:18.943Z</time></trkpt><trkpt lat="45.0441883" lon="9.6738717"><ele>59.66666666666667</ele><time>2026-04-17T11:26:20.943Z</time></trkpt><trkpt lat="45.044275" lon="9.6739667"><ele>60.0</ele><time>2026-04-17T11:26:40.943Z</time></trkpt><trkpt lat="45.0443433" lon="9.67403"><ele>60.33333333333333</ele><time>2026-04-17T11:26:42.943Z</time></trkpt><trkpt lat="45.044415" lon="9.674095"><ele>60.666666666666664</ele><time>2026-04-17T11:26:43.943Z</time></trkpt><trkpt lat="45.0445033" lon="9.6741617"><ele>61.0</ele><time>2026-04-17T11:26:44.943Z</time></trkpt><trkpt lat="45.0446" lon="9.674255"><ele>60.99999999999999</ele><time>2026-04-17T11:26:45.943Z</time></trkpt><trkpt lat="45.04468" lon="9.6743283"><ele>61.0</ele><time>2026-04-17T11:26:46.943Z</time></trkpt><trkpt lat="45.0447583" lon="9.6743933"><ele>61.0</ele><time>2026-04-17T11:26:47.944Z</time></trkpt><trkpt lat="45.044835" lon="9.6744533"><ele>61.0</ele><time>2026-04-17T11:26:48.943Z</time></trkpt><trkpt lat="45.0448983" lon="9.6745067"><ele>60.99999999999999</ele><time>2026-04-17T11:26:49.944Z</time></trkpt><trkpt lat="45.0449567" lon="9.6745583"><ele>61.0</ele><time>2026-04-17T11:26:50.943Z</time></trkpt><trkpt lat="45.0450117" lon="9.6746067"><ele>60.666666666666664</ele><time>2026-04-17T11:26:51.943Z</time></trkpt><trkpt lat="45.0451" lon="9.6747017"><ele>60.33333333333333</ele><time>2026-04-17T11:26:53.943Z</time></trkpt><trkpt lat="45.0451617" lon="9.6747733"><ele>60.0</ele><time>2026-04-17T11:26:55.943Z</time></trkpt><trkpt lat="45.045235" lon="9.6748417"><ele>59.66666666666667</ele><time>2026-04-17T11:26:58.943Z</time></trkpt><trkpt lat="45.045305" lon="9.6749117"><ele>59.333333333333336</ele><time>2026-04-17T11:27:00.943Z</time></trkpt><trkpt lat="45.0453533" lon="9.6749717"><ele>59.0</ele><time>2026-04-17T11:27:01.944Z</time></trkpt><trkpt lat="45.0454167" lon="9.675045"><ele>59.0</ele><time>2026-04-17T11:27:02.943Z</time></trkpt><trkpt lat="45.0454867" lon="9.6751117"><ele>59.00000000000001</ele><time>2026-04-17T11:27:03.944Z</time></trkpt><trkpt lat="45.0455633" lon="9.6751833"><ele>59.00000000000001</ele><time>2026-04-17T11:27:04.943Z</time></trkpt><trkpt lat="45.0456467" lon="9.6752583"><ele>59.0</ele><time>2026-04-17T11:27:05.943Z</time></trkpt><trkpt lat="45.0457267" lon="9.675325"><ele>59.0</ele><time>2026-04-17T11:27:06.943Z</time></trkpt><trkpt lat="45.0458067" lon="9.6753867"><ele>59.66666666666667</ele><time>2026-04-17T11:27:07.943Z</time></trkpt><trkpt lat="45.04588" lon="9.675445"><ele>60.333333333333336</ele><time>2026-04-17T11:27:08.943Z</time></trkpt><trkpt lat="45.0459583" lon="9.675505"><ele>61.0</ele><time>2026-04-17T11:27:09.943Z</time></trkpt><trkpt lat="45.0460383" lon="9.6755467"><ele>61.66666666666667</ele><time>2026-04-17T11:27:10.943Z</time></trkpt><trkpt lat="45.046115" lon="9.67557"><ele>62.333333333333336</ele><time>2026-04-17T11:27:11.943Z</time></trkpt><trkpt lat="45.0461867" lon="9.675585"><ele>63.0</ele><time>2026-04-17T11:27:12.943Z</time></trkpt><trkpt lat="45.046255" lon="9.6755767"><ele>63.0</ele><time>2026-04-17T11:27:13.943Z</time></trkpt><trkpt lat="45.0463567" lon="9.6754467"><ele>63.0</ele><time>2026-04-17T11:27:15.943Z</time></trkpt><trkpt lat="45.046415" lon="9.6753533"><ele>63.0</ele><time>2026-04-17T11:27:17.943Z</time></trkpt><trkpt lat="45.0464767" lon="9.67525"><ele>63.0</ele><time>2026-04-17T11:27:19.943Z</time></trkpt><trkpt lat="45.0465267" lon="9.675145"><ele>63.0</ele><time>2026-04-17T11:27:20.943Z</time></trkpt><trkpt lat="45.0465917" lon="9.6750233"><ele>62.5</ele><time>2026-04-17T11:27:21.943Z</time></trkpt><trkpt lat="45.0466733" lon="9.674875"><ele>62.0</ele><time>2026-04-17T11:27:22.943Z</time></trkpt><trkpt lat="45.0467683" lon="9.6747217"><ele>61.5</ele><time>2026-04-17T11:27:23.943Z</time></trkpt><trkpt lat="45.04687" lon="9.6745617"><ele>61.0</ele><time>2026-04-17T11:27:24.943Z</time></trkpt><trkpt lat="45.0469683" lon="9.674405"><ele>60.25</ele><time>2026-04-17T11:27:25.943Z</time></trkpt><trkpt lat="45.0470567" lon="9.6742733"><ele>59.5</ele><time>2026-04-17T11:27:26.944Z</time></trkpt><trkpt lat="45.047145" lon="9.6741317"><ele>58.75</ele><time>2026-04-17T11:27:27.943Z</time></trkpt><trkpt lat="45.0472233" lon="9.6740067"><ele>58.0</ele><time>2026-04-17T11:27:28.943Z</time></trkpt><trkpt lat="45.0472883" lon="9.6738983"><ele>58.0</ele><time>2026-04-17T11:27:29.943Z</time></trkpt><trkpt lat="45.047345" lon="9.6738167"><ele>58.0</ele><time>2026-04-17T11:27:30.943Z</time></trkpt><trkpt lat="45.0473933" lon="9.67375"><ele>58.0</ele><time>2026-04-17T11:27:31.944Z</time></trkpt><trkpt lat="45.047455" lon="9.673635"><ele>58.0</ele><time>2026-04-17T11:27:33.943Z</time></trkpt><trkpt lat="45.0474733" lon="9.6734967"><ele>58.0</ele><time>2026-04-17T11:27:35.944Z</time></trkpt><trkpt lat="45.0474333" lon="9.6733633"><ele>58.2</ele><time>2026-04-17T11:27:37.943Z</time></trkpt><trkpt lat="45.04738" lon="9.6732783"><ele>58.4</ele><time>2026-04-17T11:27:39.943Z</time></trkpt><trkpt lat="45.04732" lon="9.67318"><ele>58.60000000000001</ele><time>2026-04-17T11:27:42.943Z</time></trkpt><trkpt lat="45.04724" lon="9.67304"><ele>58.800000000000004</ele><time>2026-04-17T11:28:09.943Z</time></trkpt><trkpt lat="45.0471883" lon="9.6729817"><ele>59.0</ele><time>2026-04-17T11:28:11.943Z</time></trkpt><trkpt lat="45.0470933" lon="9.6728917"><ele>59.00000000000001</ele><time>2026-04-17T11:28:13.943Z</time></trkpt><trkpt lat="45.04703" lon="9.6728383"><ele>59.0</ele><time>2026-04-17T11:28:14.943Z</time></trkpt><trkpt lat="45.0469667" lon="9.6727867"><ele>59.0</ele><time>2026-04-17T11:28:15.943Z</time></trkpt><trkpt lat="45.04691" lon="9.6727367"><ele>59.0</ele><time>2026-04-17T11:28:16.943Z</time></trkpt><trkpt lat="45.0468567" lon="9.6726883"><ele>59.00000000000001</ele><time>2026-04-17T11:28:17.943Z</time></trkpt><trkpt lat="45.046775" lon="9.6726283"><ele>59.0</ele><time>2026-04-17T11:28:19.944Z</time></trkpt><trkpt lat="45.0466883" lon="9.6726267"><ele>59.16666666666667</ele><time>2026-04-17T11:28:22.944Z</time></trkpt><trkpt lat="45.0466317" lon="9.6726667"><ele>59.333333333333336</ele><time>2026-04-17T11:28:24.943Z</time></trkpt><trkpt lat="45.0465567" lon="9.672725"><ele>59.5</ele><time>2026-04-17T11:28:26.943Z</time></trkpt><trkpt lat="45.046475" lon="9.6726967"><ele>59.66666666666667</ele><time>2026-04-17T11:28:28.943Z</time></trkpt><trkpt lat="45.046405" lon="9.672645"><ele>59.833333333333336</ele><time>2026-04-17T11:28:30.943Z</time></trkpt><trkpt lat="45.0463133" lon="9.6725883"><ele>60.0</ele><time>2026-04-17T11:29:04.943Z</time></trkpt><trkpt lat="45.0462583" lon="9.6726367"><ele>60.0</ele><time>2026-04-17T11:29:37.943Z</time></trkpt></trkseg></trk></gpx>